<?xml version='1.0' encoding='UTF-8'?><gpx version="1.1" creator="JPX - https://github.com/jenetics/jpx" xmlns="http://www.topografix.com/GPX/1/1"><trk><trkseg><trkpt lat="43.9661082" lon="12.7635257"><ele>1.9999999999999998</ele><time>2026-04-25T07:19:41.534Z</time></trkpt><trkpt lat="43.9661943" lon="12.7635313"><ele>2.0</ele><time>2026-04-25T07:21:17.533Z</time></trkpt><trkpt lat="43.9661501" lon="12.7634599"><ele>2.0</ele><time>2026-04-25T07:21:23.531Z</time></trkpt><trkpt lat="43.9661338" lon="12.7633737"><ele>2.0</ele><time>2026-04-25T07:21:25.532Z</time></trkpt><trkpt lat="43.9661176" lon="12.7632624"><ele>1.9999999999999998</ele><time>2026-04-25T07:21:28.531Z</time></trkpt><trkpt lat="43.9661225" lon="12.7631395"><ele>2.0</ele><time>2026-04-25T07:21:31.531Z</time></trkpt><trkpt lat="43.9661187" lon="12.7630448"><ele>1.9999999999999998</ele><time>2026-04-25T07:21:34.532Z</time></trkpt><trkpt lat="43.9661469" lon="12.7629585"><ele>2.0</ele><time>2026-04-25T07:21:53.534Z</time></trkpt><trkpt lat="43.9661789" lon="12.7628609"><ele>2.0</ele><time>2026-04-25T07:21:56.534Z</time></trkpt><trkpt lat="43.9662069" lon="12.7627802"><ele>2.0</ele><time>2026-04-25T07:22:00.534Z</time></trkpt><trkpt lat="43.9661743" lon="12.7626614"><ele>1.9999999999999998</ele><time>2026-04-25T07:22:05.534Z</time></trkpt><trkpt lat="43.9661747" lon="12.7625439"><ele>2.0</ele><time>2026-04-25T07:22:08.535Z</time></trkpt><trkpt lat="43.9661406" lon="12.7623931"><ele>2.1666666666666665</ele><time>2026-04-25T07:22:10.532Z</time></trkpt><trkpt lat="43.9660973" lon="12.7622863"><ele>2.333333333333333</ele><time>2026-04-25T07:22:11.537Z</time></trkpt><trkpt lat="43.9660597" lon="12.7622003"><ele>2.5</ele><time>2026-04-25T07:22:12.534Z</time></trkpt><trkpt lat="43.9660325" lon="12.7621187"><ele>2.6666666666666665</ele><time>2026-04-25T07:22:13.534Z</time></trkpt><trkpt lat="43.9660109" lon="12.7619608"><ele>2.8333333333333335</ele><time>2026-04-25T07:22:15.534Z</time></trkpt><trkpt lat="43.9660036" lon="12.7618187"><ele>3.0</ele><time>2026-04-25T07:22:17.531Z</time></trkpt><trkpt lat="43.9659932" lon="12.7616757"><ele>3.8</ele><time>2026-04-25T07:22:19.533Z</time></trkpt><trkpt lat="43.9659849" lon="12.7615694"><ele>4.6</ele><time>2026-04-25T07:22:21.532Z</time></trkpt><trkpt lat="43.9659193" lon="12.7616295"><ele>5.3999999999999995</ele><time>2026-04-25T07:22:25.535Z</time></trkpt><trkpt lat="43.9658846" lon="12.7617738"><ele>6.199999999999999</ele><time>2026-04-25T07:22:27.534Z</time></trkpt><trkpt lat="43.9658343" lon="12.761926"><ele>7.0</ele><time>2026-04-25T07:22:29.534Z</time></trkpt><trkpt lat="43.9657937" lon="12.762083"><ele>9.5</ele><time>2026-04-25T07:22:31.534Z</time></trkpt><trkpt lat="43.9657504" lon="12.7622412"><ele>12.0</ele><time>2026-04-25T07:22:33.535Z</time></trkpt><trkpt lat="43.965708" lon="12.7624019"><ele>14.5</ele><time>2026-04-25T07:22:35.534Z</time></trkpt><trkpt lat="43.9656707" lon="12.7625581"><ele>17.0</ele><time>2026-04-25T07:22:37.531Z</time></trkpt><trkpt lat="43.9656411" lon="12.7627086"><ele>17.0</ele><time>2026-04-25T07:22:39.53Z</time></trkpt><trkpt lat="43.965611" lon="12.7627979"><ele>17.0</ele><time>2026-04-25T07:22:41.531Z</time></trkpt><trkpt lat="43.9655443" lon="12.7628893"><ele>17.0</ele><time>2026-04-25T07:23:44.534Z</time></trkpt><trkpt lat="43.9654583" lon="12.762869"><ele>17.0</ele><time>2026-04-25T07:23:46.531Z</time></trkpt><trkpt lat="43.965357" lon="12.7628223"><ele>17.0</ele><time>2026-04-25T07:23:48.535Z</time></trkpt><trkpt lat="43.9652753" lon="12.7628054"><ele>17.0</ele><time>2026-04-25T07:23:50.532Z</time></trkpt><trkpt lat="43.9652116" lon="12.7627434"><ele>17.0</ele><time>2026-04-25T07:23:53.532Z</time></trkpt><trkpt lat="43.9652191" lon="12.7626339"><ele>17.0</ele><time>2026-04-25T07:23:55.532Z</time></trkpt><trkpt lat="43.9652564" lon="12.7624739"><ele>17.0</ele><time>2026-04-25T07:23:57.532Z</time></trkpt><trkpt lat="43.9652833" lon="12.7623785"><ele>17.0</ele><time>2026-04-25T07:23:58.532Z</time></trkpt><trkpt lat="43.9653104" lon="12.762276"><ele>17.0</ele><time>2026-04-25T07:23:59.532Z</time></trkpt><trkpt lat="43.9653382" lon="12.7621698"><ele>17.0</ele><time>2026-04-25T07:24:00.533Z</time></trkpt><trkpt lat="43.9653639" lon="12.7620692"><ele>16.999999999999996</ele><time>2026-04-25T07:24:01.534Z</time></trkpt><trkpt lat="43.9653884" lon="12.7619748"><ele>17.0</ele><time>2026-04-25T07:24:02.532Z</time></trkpt><trkpt lat="43.9654115" lon="12.7618788"><ele>17.0</ele><time>2026-04-25T07:24:03.533Z</time></trkpt><trkpt lat="43.9654365" lon="12.7617825"><ele>17.0</ele><time>2026-04-25T07:24:04.532Z</time></trkpt><trkpt lat="43.9654598" lon="12.7616947"><ele>17.0</ele><time>2026-04-25T07:24:05.533Z</time></trkpt><trkpt lat="43.965479" lon="12.7616008"><ele>16.999999999999996</ele><time>2026-04-25T07:24:06.532Z</time></trkpt><trkpt lat="43.9654973" lon="12.7615144"><ele>17.0</ele><time>2026-04-25T07:24:07.534Z</time></trkpt><trkpt lat="43.9655215" lon="12.7614258"><ele>17.4</ele><time>2026-04-25T07:24:08.533Z</time></trkpt><trkpt lat="43.965551" lon="12.7613213"><ele>17.799999999999997</ele><time>2026-04-25T07:24:09.533Z</time></trkpt><trkpt lat="43.9655816" lon="12.7611954"><ele>18.2</ele><time>2026-04-25T07:24:10.532Z</time></trkpt><trkpt lat="43.9656144" lon="12.7610329"><ele>18.599999999999998</ele><time>2026-04-25T07:24:11.533Z</time></trkpt><trkpt lat="43.9656524" lon="12.7608724"><ele>19.0</ele><time>2026-04-25T07:24:12.532Z</time></trkpt><trkpt lat="43.9656906" lon="12.7607243"><ele>19.2</ele><time>2026-04-25T07:24:13.535Z</time></trkpt><trkpt lat="43.9657293" lon="12.7605874"><ele>19.4</ele><time>2026-04-25T07:24:14.532Z</time></trkpt><trkpt lat="43.9657675" lon="12.7604571"><ele>19.6</ele><time>2026-04-25T07:24:15.536Z</time></trkpt><trkpt lat="43.9658016" lon="12.7603254"><ele>19.8</ele><time>2026-04-25T07:24:16.531Z</time></trkpt><trkpt lat="43.9658372" lon="12.7601887"><ele>20.0</ele><time>2026-04-25T07:24:17.532Z</time></trkpt><trkpt lat="43.9658788" lon="12.7600383"><ele>17.6</ele><time>2026-04-25T07:24:18.532Z</time></trkpt><trkpt lat="43.965921" lon="12.759882"><ele>15.2</ele><time>2026-04-25T07:24:19.534Z</time></trkpt><trkpt lat="43.9659544" lon="12.7597275"><ele>12.8</ele><time>2026-04-25T07:24:20.535Z</time></trkpt><trkpt lat="43.9659823" lon="12.7595837"><ele>10.4</ele><time>2026-04-25T07:24:21.533Z</time></trkpt><trkpt lat="43.9660148" lon="12.7594625"><ele>8.0</ele><time>2026-04-25T07:24:22.533Z</time></trkpt><trkpt lat="43.9660406" lon="12.7593505"><ele>7.999999999999999</ele><time>2026-04-25T07:24:23.533Z</time></trkpt><trkpt lat="43.9660606" lon="12.7592412"><ele>8.0</ele><time>2026-04-25T07:24:24.536Z</time></trkpt><trkpt lat="43.966091" lon="12.759132"><ele>8.0</ele><time>2026-04-25T07:24:25.532Z</time></trkpt><trkpt lat="43.9661258" lon="12.759021"><ele>8.0</ele><time>2026-04-25T07:24:26.535Z</time></trkpt><trkpt lat="43.9661622" lon="12.7589095"><ele>7.999999999999999</ele><time>2026-04-25T07:24:27.534Z</time></trkpt><trkpt lat="43.966195" lon="12.7588004"><ele>8.0</ele><time>2026-04-25T07:24:28.534Z</time></trkpt><trkpt lat="43.9662222" lon="12.7586925"><ele>7.999999999999999</ele><time>2026-04-25T07:24:29.537Z</time></trkpt><trkpt lat="43.9662454" lon="12.7585833"><ele>8.0</ele><time>2026-04-25T07:24:30.534Z</time></trkpt><trkpt lat="43.9662671" lon="12.758478"><ele>8.0</ele><time>2026-04-25T07:24:31.534Z</time></trkpt><trkpt lat="43.9662919" lon="12.7583732"><ele>8.0</ele><time>2026-04-25T07:24:32.531Z</time></trkpt><trkpt lat="43.966314" lon="12.7582619"><ele>7.999999999999999</ele><time>2026-04-25T07:24:33.531Z</time></trkpt><trkpt lat="43.9663416" lon="12.7581435"><ele>8.0</ele><time>2026-04-25T07:24:34.535Z</time></trkpt><trkpt lat="43.9663698" lon="12.7580202"><ele>8.200000000000001</ele><time>2026-04-25T07:24:35.531Z</time></trkpt><trkpt lat="43.9664002" lon="12.7578903"><ele>8.4</ele><time>2026-04-25T07:24:36.531Z</time></trkpt><trkpt lat="43.9664316" lon="12.7577584"><ele>8.600000000000001</ele><time>2026-04-25T07:24:37.532Z</time></trkpt><trkpt lat="43.9664619" lon="12.7576302"><ele>8.8</ele><time>2026-04-25T07:24:38.535Z</time></trkpt><trkpt lat="43.9664875" lon="12.7574976"><ele>9.0</ele><time>2026-04-25T07:24:39.534Z</time></trkpt><trkpt lat="43.9665143" lon="12.7573624"><ele>9.0</ele><time>2026-04-25T07:24:40.534Z</time></trkpt><trkpt lat="43.9665391" lon="12.7572299"><ele>9.0</ele><time>2026-04-25T07:24:41.535Z</time></trkpt><trkpt lat="43.9665695" lon="12.7570981"><ele>9.0</ele><time>2026-04-25T07:24:42.532Z</time></trkpt><trkpt lat="43.9666026" lon="12.7569663"><ele>9.0</ele><time>2026-04-25T07:24:43.533Z</time></trkpt><trkpt lat="43.9666365" lon="12.7568419"><ele>9.0</ele><time>2026-04-25T07:24:44.533Z</time></trkpt><trkpt lat="43.9666634" lon="12.7567282"><ele>9.0</ele><time>2026-04-25T07:24:45.534Z</time></trkpt><trkpt lat="43.9666942" lon="12.7566177"><ele>9.0</ele><time>2026-04-25T07:24:46.534Z</time></trkpt><trkpt lat="43.9667304" lon="12.7565028"><ele>9.0</ele><time>2026-04-25T07:24:47.535Z</time></trkpt><trkpt lat="43.9667612" lon="12.7563881"><ele>9.0</ele><time>2026-04-25T07:24:48.534Z</time></trkpt><trkpt lat="43.9667815" lon="12.7562758"><ele>9.0</ele><time>2026-04-25T07:24:49.534Z</time></trkpt><trkpt lat="43.9667754" lon="12.7561641"><ele>9.0</ele><time>2026-04-25T07:24:50.531Z</time></trkpt><trkpt lat="43.9667377" lon="12.7560532"><ele>8.666666666666666</ele><time>2026-04-25T07:24:51.534Z</time></trkpt><trkpt lat="43.9666746" lon="12.7559616"><ele>8.333333333333334</ele><time>2026-04-25T07:24:52.534Z</time></trkpt><trkpt lat="43.9666013" lon="12.7558948"><ele>8.0</ele><time>2026-04-25T07:24:53.531Z</time></trkpt><trkpt lat="43.9665323" lon="12.755838"><ele>7.666666666666667</ele><time>2026-04-25T07:24:54.533Z</time></trkpt><trkpt lat="43.9664624" lon="12.7557891"><ele>7.333333333333334</ele><time>2026-04-25T07:24:55.532Z</time></trkpt><trkpt lat="43.9663904" lon="12.755741"><ele>7.0</ele><time>2026-04-25T07:24:56.533Z</time></trkpt><trkpt lat="43.9663274" lon="12.7556866"><ele>7.0</ele><time>2026-04-25T07:24:57.533Z</time></trkpt><trkpt lat="43.9662647" lon="12.7556327"><ele>7.0</ele><time>2026-04-25T07:24:58.533Z</time></trkpt><trkpt lat="43.9662029" lon="12.7555855"><ele>7.0</ele><time>2026-04-25T07:24:59.533Z</time></trkpt><trkpt lat="43.9661373" lon="12.7555391"><ele>7.0</ele><time>2026-04-25T07:25:00.533Z</time></trkpt><trkpt lat="43.9660649" lon="12.7554881"><ele>7.0</ele><time>2026-04-25T07:25:01.533Z</time></trkpt><trkpt lat="43.9660026" lon="12.7554395"><ele>7.0</ele><time>2026-04-25T07:25:02.533Z</time></trkpt><trkpt lat="43.9659386" lon="12.75539"><ele>7.0</ele><time>2026-04-25T07:25:03.532Z</time></trkpt><trkpt lat="43.9658795" lon="12.7553429"><ele>7.166666666666667</ele><time>2026-04-25T07:25:04.532Z</time></trkpt><trkpt lat="43.9658171" lon="12.7552952"><ele>7.333333333333334</ele><time>2026-04-25T07:25:05.532Z</time></trkpt><trkpt lat="43.9657456" lon="12.7552444"><ele>7.5</ele><time>2026-04-25T07:25:06.533Z</time></trkpt><trkpt lat="43.9656735" lon="12.7551867"><ele>7.666666666666666</ele><time>2026-04-25T07:25:07.532Z</time></trkpt><trkpt lat="43.9656014" lon="12.7551223"><ele>7.833333333333333</ele><time>2026-04-25T07:25:08.532Z</time></trkpt><trkpt lat="43.9655309" lon="12.7550562"><ele>8.0</ele><time>2026-04-25T07:25:09.533Z</time></trkpt><trkpt lat="43.9654635" lon="12.7549921"><ele>8.0</ele><time>2026-04-25T07:25:10.532Z</time></trkpt><trkpt lat="43.9653954" lon="12.7549297"><ele>7.999999999999999</ele><time>2026-04-25T07:25:11.532Z</time></trkpt><trkpt lat="43.9653317" lon="12.75488"><ele>8.0</ele><time>2026-04-25T07:25:12.532Z</time></trkpt><trkpt lat="43.9652767" lon="12.75483"><ele>8.0</ele><time>2026-04-25T07:25:13.534Z</time></trkpt><trkpt lat="43.965225" lon="12.7547733"><ele>7.999999999999999</ele><time>2026-04-25T07:25:14.532Z</time></trkpt><trkpt lat="43.9651733" lon="12.7547067"><ele>8.0</ele><time>2026-04-25T07:25:15.534Z</time></trkpt><trkpt lat="43.96512" lon="12.75463"><ele>8.0</ele><time>2026-04-25T07:25:16.532Z</time></trkpt><trkpt lat="43.9650667" lon="12.7545567"><ele>7.999999999999999</ele><time>2026-04-25T07:25:17.532Z</time></trkpt><trkpt lat="43.9650233" lon="12.75449"><ele>8.0</ele><time>2026-04-25T07:25:18.533Z</time></trkpt><trkpt lat="43.9649417" lon="12.7543633"><ele>8.0</ele><time>2026-04-25T07:25:20.532Z</time></trkpt><trkpt lat="43.9648883" lon="12.754295"><ele>8.0</ele><time>2026-04-25T07:25:21.533Z</time></trkpt><trkpt lat="43.9648283" lon="12.7542283"><ele>7.999999999999999</ele><time>2026-04-25T07:25:22.533Z</time></trkpt><trkpt lat="43.964765" lon="12.754155"><ele>8.0</ele><time>2026-04-25T07:25:23.532Z</time></trkpt><trkpt lat="43.9640067" lon="12.753475"><ele>7.999999999999999</ele><time>2026-04-25T07:25:35.532Z</time></trkpt><trkpt lat="43.9639383" lon="12.7534183"><ele>8.0</ele><time>2026-04-25T07:25:36.532Z</time></trkpt><trkpt lat="43.9638683" lon="12.7533583"><ele>8.0</ele><time>2026-04-25T07:25:37.532Z</time></trkpt><trkpt lat="43.9637983" lon="12.7532967"><ele>8.0</ele><time>2026-04-25T07:25:38.533Z</time></trkpt><trkpt lat="43.9637317" lon="12.7532417"><ele>7.999999999999999</ele><time>2026-04-25T07:25:39.532Z</time></trkpt><trkpt lat="43.9636717" lon="12.753185"><ele>8.0</ele><time>2026-04-25T07:25:40.533Z</time></trkpt><trkpt lat="43.9636117" lon="12.753125"><ele>7.999999999999999</ele><time>2026-04-25T07:25:41.533Z</time></trkpt><trkpt lat="43.96356" lon="12.75307"><ele>8.0</ele><time>2026-04-25T07:25:42.532Z</time></trkpt><trkpt lat="43.9634567" lon="12.7529717"><ele>8.0</ele><time>2026-04-25T07:25:44.531Z</time></trkpt><trkpt lat="43.9634033" lon="12.7529233"><ele>8.0</ele><time>2026-04-25T07:25:45.531Z</time></trkpt><trkpt lat="43.963345" lon="12.7528733"><ele>7.999999999999999</ele><time>2026-04-25T07:25:46.532Z</time></trkpt><trkpt lat="43.963275" lon="12.7528183"><ele>8.0</ele><time>2026-04-25T07:25:47.531Z</time></trkpt><trkpt lat="43.963205" lon="12.7527567"><ele>8.25</ele><time>2026-04-25T07:25:48.532Z</time></trkpt><trkpt lat="43.9631333" lon="12.7526883"><ele>8.5</ele><time>2026-04-25T07:25:49.533Z</time></trkpt><trkpt lat="43.9630517" lon="12.75262"><ele>8.75</ele><time>2026-04-25T07:25:50.531Z</time></trkpt><trkpt lat="43.9628833" lon="12.75247"><ele>9.0</ele><time>2026-04-25T07:25:52.533Z</time></trkpt><trkpt lat="43.9627967" lon="12.7523983"><ele>9.0</ele><time>2026-04-25T07:25:53.531Z</time></trkpt><trkpt lat="43.9627117" lon="12.7523283"><ele>9.0</ele><time>2026-04-25T07:25:54.532Z</time></trkpt><trkpt lat="43.962625" lon="12.7522567"><ele>9.0</ele><time>2026-04-25T07:25:55.533Z</time></trkpt><trkpt lat="43.9625383" lon="12.7521883"><ele>9.0</ele><time>2026-04-25T07:25:56.531Z</time></trkpt><trkpt lat="43.9624583" lon="12.7521133"><ele>9.0</ele><time>2026-04-25T07:25:57.531Z</time></trkpt><trkpt lat="43.9623783" lon="12.7520333"><ele>9.0</ele><time>2026-04-25T07:25:58.532Z</time></trkpt><trkpt lat="43.9622983" lon="12.7519567"><ele>9.0</ele><time>2026-04-25T07:25:59.535Z</time></trkpt><trkpt lat="43.9622167" lon="12.7518833"><ele>9.0</ele><time>2026-04-25T07:26:00.533Z</time></trkpt><trkpt lat="43.9621333" lon="12.7518133"><ele>9.0</ele><time>2026-04-25T07:26:01.532Z</time></trkpt><trkpt lat="43.9620483" lon="12.75174"><ele>9.0</ele><time>2026-04-25T07:26:02.532Z</time></trkpt><trkpt lat="43.961965" lon="12.751665"><ele>9.0</ele><time>2026-04-25T07:26:03.533Z</time></trkpt><trkpt lat="43.961885" lon="12.7515883"><ele>9.0</ele><time>2026-04-25T07:26:04.533Z</time></trkpt><trkpt lat="43.961805" lon="12.751515"><ele>9.0</ele><time>2026-04-25T07:26:05.535Z</time></trkpt><trkpt lat="43.961725" lon="12.7514417"><ele>9.0</ele><time>2026-04-25T07:26:06.533Z</time></trkpt><trkpt lat="43.9616483" lon="12.7513633"><ele>9.0</ele><time>2026-04-25T07:26:07.532Z</time></trkpt><trkpt lat="43.9615733" lon="12.7512867"><ele>9.0</ele><time>2026-04-25T07:26:08.532Z</time></trkpt><trkpt lat="43.9615" lon="12.7512067"><ele>9.0</ele><time>2026-04-25T07:26:09.532Z</time></trkpt><trkpt lat="43.9614167" lon="12.7511317"><ele>9.0</ele><time>2026-04-25T07:26:10.534Z</time></trkpt><trkpt lat="43.9613417" lon="12.75106"><ele>9.0</ele><time>2026-04-25T07:26:11.532Z</time></trkpt><trkpt lat="43.961185" lon="12.7509283"><ele>9.0</ele><time>2026-04-25T07:26:13.533Z</time></trkpt><trkpt lat="43.961095" lon="12.7508783"><ele>9.0</ele><time>2026-04-25T07:26:14.533Z</time></trkpt><trkpt lat="43.961" lon="12.750845"><ele>9.0</ele><time>2026-04-25T07:26:15.533Z</time></trkpt><trkpt lat="43.9608967" lon="12.750825"><ele>9.0</ele><time>2026-04-25T07:26:16.532Z</time></trkpt><trkpt lat="43.9607883" lon="12.7508117"><ele>9.0</ele><time>2026-04-25T07:26:17.532Z</time></trkpt><trkpt lat="43.960685" lon="12.7508017"><ele>9.0</ele><time>2026-04-25T07:26:18.533Z</time></trkpt><trkpt lat="43.9605867" lon="12.7507817"><ele>9.0</ele><time>2026-04-25T07:26:19.533Z</time></trkpt><trkpt lat="43.9604983" lon="12.7507483"><ele>9.0</ele><time>2026-04-25T07:26:20.534Z</time></trkpt><trkpt lat="43.96042" lon="12.7507017"><ele>9.0</ele><time>2026-04-25T07:26:21.532Z</time></trkpt><trkpt lat="43.9603483" lon="12.750655"><ele>9.0</ele><time>2026-04-25T07:26:22.532Z</time></trkpt><trkpt lat="43.9602833" lon="12.7506067"><ele>9.0</ele><time>2026-04-25T07:26:23.531Z</time></trkpt><trkpt lat="43.9602267" lon="12.750565"><ele>9.0</ele><time>2026-04-25T07:26:24.532Z</time></trkpt><trkpt lat="43.9601317" lon="12.7504983"><ele>9.0</ele><time>2026-04-25T07:26:26.535Z</time></trkpt><trkpt lat="43.9601033" lon="12.7503967"><ele>9.0</ele><time>2026-04-25T07:26:28.532Z</time></trkpt><trkpt lat="43.9601267" lon="12.7503017"><ele>9.0</ele><time>2026-04-25T07:26:29.535Z</time></trkpt><trkpt lat="43.9601583" lon="12.750195"><ele>9.0</ele><time>2026-04-25T07:26:30.534Z</time></trkpt><trkpt lat="43.9601867" lon="12.7500883"><ele>9.0</ele><time>2026-04-25T07:26:31.536Z</time></trkpt><trkpt lat="43.9602017" lon="12.7499733"><ele>9.4</ele><time>2026-04-25T07:26:32.535Z</time></trkpt><trkpt lat="43.9602317" lon="12.7497483"><ele>9.8</ele><time>2026-04-25T07:26:34.534Z</time></trkpt><trkpt lat="43.960255" lon="12.7496333"><ele>10.200000000000001</ele><time>2026-04-25T07:26:35.534Z</time></trkpt><trkpt lat="43.96028" lon="12.7495117"><ele>10.600000000000001</ele><time>2026-04-25T07:26:36.534Z</time></trkpt><trkpt lat="43.9603083" lon="12.7493917"><ele>11.0</ele><time>2026-04-25T07:26:37.535Z</time></trkpt><trkpt lat="43.9603417" lon="12.74927"><ele>11.0</ele><time>2026-04-25T07:26:38.534Z</time></trkpt><trkpt lat="43.9603733" lon="12.749145"><ele>11.0</ele><time>2026-04-25T07:26:39.536Z</time></trkpt><trkpt lat="43.9604067" lon="12.7490167"><ele>11.0</ele><time>2026-04-25T07:26:40.537Z</time></trkpt><trkpt lat="43.9604383" lon="12.74889"><ele>11.0</ele><time>2026-04-25T07:26:41.534Z</time></trkpt><trkpt lat="43.960475" lon="12.748765"><ele>11.0</ele><time>2026-04-25T07:26:42.534Z</time></trkpt><trkpt lat="43.9605133" lon="12.7486433"><ele>11.0</ele><time>2026-04-25T07:26:43.532Z</time></trkpt><trkpt lat="43.9605583" lon="12.7485233"><ele>11.0</ele><time>2026-04-25T07:26:44.535Z</time></trkpt><trkpt lat="43.960605" lon="12.7483967"><ele>11.0</ele><time>2026-04-25T07:26:45.534Z</time></trkpt><trkpt lat="43.9606517" lon="12.7482667"><ele>11.0</ele><time>2026-04-25T07:26:46.536Z</time></trkpt><trkpt lat="43.960695" lon="12.748145"><ele>11.0</ele><time>2026-04-25T07:26:47.534Z</time></trkpt><trkpt lat="43.9607333" lon="12.7480233"><ele>11.0</ele><time>2026-04-25T07:26:48.534Z</time></trkpt><trkpt lat="43.96077" lon="12.747905"><ele>11.0</ele><time>2026-04-25T07:26:49.535Z</time></trkpt><trkpt lat="43.9608083" lon="12.74778"><ele>11.0</ele><time>2026-04-25T07:26:50.535Z</time></trkpt><trkpt lat="43.9608517" lon="12.747655"><ele>11.0</ele><time>2026-04-25T07:26:51.534Z</time></trkpt><trkpt lat="43.9608967" lon="12.7475317"><ele>11.0</ele><time>2026-04-25T07:26:52.534Z</time></trkpt><trkpt lat="43.9609417" lon="12.7474083"><ele>11.0</ele><time>2026-04-25T07:26:53.532Z</time></trkpt><trkpt lat="43.961035" lon="12.7471583"><ele>11.0</ele><time>2026-04-25T07:26:55.536Z</time></trkpt><trkpt lat="43.96108" lon="12.7470283"><ele>11.0</ele><time>2026-04-25T07:26:56.535Z</time></trkpt><trkpt lat="43.961125" lon="12.7468983"><ele>11.0</ele><time>2026-04-25T07:26:57.533Z</time></trkpt><trkpt lat="43.96117" lon="12.7467783"><ele>11.0</ele><time>2026-04-25T07:26:58.532Z</time></trkpt><trkpt lat="43.9612117" lon="12.7466667"><ele>11.0</ele><time>2026-04-25T07:26:59.533Z</time></trkpt><trkpt lat="43.96125" lon="12.7465617"><ele>11.0</ele><time>2026-04-25T07:27:00.532Z</time></trkpt><trkpt lat="43.9612817" lon="12.746465"><ele>11.0</ele><time>2026-04-25T07:27:01.533Z</time></trkpt><trkpt lat="43.96131" lon="12.7463783"><ele>11.0</ele><time>2026-04-25T07:27:02.531Z</time></trkpt><trkpt lat="43.9613717" lon="12.74622"><ele>11.0</ele><time>2026-04-25T07:27:04.531Z</time></trkpt><trkpt lat="43.9614067" lon="12.7461117"><ele>11.0</ele><time>2026-04-25T07:27:05.532Z</time></trkpt><trkpt lat="43.961445" lon="12.7460033"><ele>11.0</ele><time>2026-04-25T07:27:06.533Z</time></trkpt><trkpt lat="43.9614817" lon="12.7459017"><ele>11.0</ele><time>2026-04-25T07:27:07.533Z</time></trkpt><trkpt lat="43.96151" lon="12.74581"><ele>11.0</ele><time>2026-04-25T07:27:08.531Z</time></trkpt><trkpt lat="43.96154" lon="12.7457133"><ele>11.0</ele><time>2026-04-25T07:27:09.532Z</time></trkpt><trkpt lat="43.9615717" lon="12.7456133"><ele>11.200000000000001</ele><time>2026-04-25T07:27:10.532Z</time></trkpt><trkpt lat="43.961605" lon="12.74551"><ele>11.4</ele><time>2026-04-25T07:27:11.532Z</time></trkpt><trkpt lat="43.96164" lon="12.74541"><ele>11.6</ele><time>2026-04-25T07:27:12.532Z</time></trkpt><trkpt lat="43.9616783" lon="12.7453133"><ele>11.8</ele><time>2026-04-25T07:27:13.533Z</time></trkpt><trkpt lat="43.9617133" lon="12.745215"><ele>12.0</ele><time>2026-04-25T07:27:14.535Z</time></trkpt><trkpt lat="43.961795" lon="12.7450033"><ele>11.714285714285714</ele><time>2026-04-25T07:27:16.534Z</time></trkpt><trkpt lat="43.9618367" lon="12.7449033"><ele>11.428571428571429</ele><time>2026-04-25T07:27:17.531Z</time></trkpt><trkpt lat="43.96188" lon="12.7448133"><ele>11.142857142857142</ele><time>2026-04-25T07:27:18.532Z</time></trkpt><trkpt lat="43.9619233" lon="12.7447317"><ele>10.857142857142858</ele><time>2026-04-25T07:27:19.533Z</time></trkpt><trkpt lat="43.9619617" lon="12.7446517"><ele>10.571428571428571</ele><time>2026-04-25T07:27:20.533Z</time></trkpt><trkpt lat="43.9619967" lon="12.7445683"><ele>10.285714285714285</ele><time>2026-04-25T07:27:21.533Z</time></trkpt><trkpt lat="43.9620333" lon="12.74448"><ele>10.0</ele><time>2026-04-25T07:27:22.534Z</time></trkpt><trkpt lat="43.9620733" lon="12.7443983"><ele>10.333333333333334</ele><time>2026-04-25T07:27:23.533Z</time></trkpt><trkpt lat="43.9621117" lon="12.7443217"><ele>10.666666666666668</ele><time>2026-04-25T07:27:24.533Z</time></trkpt><trkpt lat="43.96215" lon="12.7442517"><ele>11.0</ele><time>2026-04-25T07:27:25.534Z</time></trkpt><trkpt lat="43.9622233" lon="12.7441117"><ele>11.333333333333334</ele><time>2026-04-25T07:27:27.533Z</time></trkpt><trkpt lat="43.9622567" lon="12.7440233"><ele>11.666666666666666</ele><time>2026-04-25T07:27:28.535Z</time></trkpt><trkpt lat="43.9623067" lon="12.7439183"><ele>12.0</ele><time>2026-04-25T07:27:29.532Z</time></trkpt><trkpt lat="43.962355" lon="12.74382"><ele>12.0</ele><time>2026-04-25T07:27:30.532Z</time></trkpt><trkpt lat="43.9624083" lon="12.7437333"><ele>12.0</ele><time>2026-04-25T07:27:31.533Z</time></trkpt><trkpt lat="43.9624533" lon="12.743655"><ele>12.0</ele><time>2026-04-25T07:27:32.535Z</time></trkpt><trkpt lat="43.9625167" lon="12.7435517"><ele>12.0</ele><time>2026-04-25T07:27:34.534Z</time></trkpt><trkpt lat="43.96258" lon="12.74343"><ele>12.0</ele><time>2026-04-25T07:27:36.534Z</time></trkpt><trkpt lat="43.962615" lon="12.7431317"><ele>11.75</ele><time>2026-04-25T07:27:39.535Z</time></trkpt><trkpt lat="43.9626317" lon="12.742995"><ele>11.5</ele><time>2026-04-25T07:27:40.532Z</time></trkpt><trkpt lat="43.962655" lon="12.74283"><ele>11.25</ele><time>2026-04-25T07:27:41.535Z</time></trkpt><trkpt lat="43.9626767" lon="12.7426467"><ele>11.0</ele><time>2026-04-25T07:27:42.534Z</time></trkpt><trkpt lat="43.9627033" lon="12.74247"><ele>11.0</ele><time>2026-04-25T07:27:43.532Z</time></trkpt><trkpt lat="43.96273" lon="12.7423017"><ele>11.0</ele><time>2026-04-25T07:27:44.534Z</time></trkpt><trkpt lat="43.9627567" lon="12.7421467"><ele>11.0</ele><time>2026-04-25T07:27:45.533Z</time></trkpt><trkpt lat="43.96278" lon="12.7419933"><ele>11.0</ele><time>2026-04-25T07:27:46.534Z</time></trkpt><trkpt lat="43.9628033" lon="12.7418467"><ele>10.666666666666666</ele><time>2026-04-25T07:27:47.532Z</time></trkpt><trkpt lat="43.9628233" lon="12.7417117"><ele>10.333333333333332</ele><time>2026-04-25T07:27:48.534Z</time></trkpt><trkpt lat="43.9628433" lon="12.74159"><ele>10.0</ele><time>2026-04-25T07:27:49.533Z</time></trkpt><trkpt lat="43.9628567" lon="12.7414933"><ele>9.666666666666666</ele><time>2026-04-25T07:27:50.532Z</time></trkpt><trkpt lat="43.962865" lon="12.741365"><ele>9.333333333333334</ele><time>2026-04-25T07:27:52.534Z</time></trkpt><trkpt lat="43.962875" lon="12.74125"><ele>9.0</ele><time>2026-04-25T07:27:54.535Z</time></trkpt><trkpt lat="43.9628867" lon="12.7410967"><ele>8.4</ele><time>2026-04-25T07:27:56.534Z</time></trkpt><trkpt lat="43.9629" lon="12.741005"><ele>7.800000000000001</ele><time>2026-04-25T07:27:57.535Z</time></trkpt><trkpt lat="43.962945" lon="12.74078"><ele>7.199999999999999</ele><time>2026-04-25T07:27:59.535Z</time></trkpt><trkpt lat="43.9629633" lon="12.74066"><ele>6.6</ele><time>2026-04-25T07:28:00.534Z</time></trkpt><trkpt lat="43.962985" lon="12.74054"><ele>6.0</ele><time>2026-04-25T07:28:01.533Z</time></trkpt><trkpt lat="43.963005" lon="12.740415"><ele>6.0</ele><time>2026-04-25T07:28:02.531Z</time></trkpt><trkpt lat="43.9630283" lon="12.7402867"><ele>6.0</ele><time>2026-04-25T07:28:03.532Z</time></trkpt><trkpt lat="43.9630517" lon="12.740155"><ele>6.0</ele><time>2026-04-25T07:28:04.531Z</time></trkpt><trkpt lat="43.9630783" lon="12.7400183"><ele>6.0</ele><time>2026-04-25T07:28:05.531Z</time></trkpt><trkpt lat="43.9631" lon="12.739875"><ele>6.0</ele><time>2026-04-25T07:28:06.531Z</time></trkpt><trkpt lat="43.9631283" lon="12.73973"><ele>6.0</ele><time>2026-04-25T07:28:07.532Z</time></trkpt><trkpt lat="43.9631533" lon="12.7395767"><ele>6.0</ele><time>2026-04-25T07:28:08.531Z</time></trkpt><trkpt lat="43.9631783" lon="12.7394233"><ele>6.0</ele><time>2026-04-25T07:28:09.535Z</time></trkpt><trkpt lat="43.9632017" lon="12.7392817"><ele>6.0</ele><time>2026-04-25T07:28:10.532Z</time></trkpt><trkpt lat="43.9632233" lon="12.7391483"><ele>6.0</ele><time>2026-04-25T07:28:11.535Z</time></trkpt><trkpt lat="43.9632433" lon="12.7390233"><ele>6.0</ele><time>2026-04-25T07:28:12.533Z</time></trkpt><trkpt lat="43.9632633" lon="12.738905"><ele>6.0</ele><time>2026-04-25T07:28:13.533Z</time></trkpt><trkpt lat="43.9632833" lon="12.7388033"><ele>6.0</ele><time>2026-04-25T07:28:14.537Z</time></trkpt><trkpt lat="43.9633067" lon="12.7387133"><ele>6.0</ele><time>2026-04-25T07:28:15.535Z</time></trkpt><trkpt lat="43.963345" lon="12.7386283"><ele>6.0</ele><time>2026-04-25T07:28:16.534Z</time></trkpt><trkpt lat="43.963395" lon="12.738565"><ele>6.0</ele><time>2026-04-25T07:28:17.532Z</time></trkpt><trkpt lat="43.96348" lon="12.7384467"><ele>6.0</ele><time>2026-04-25T07:28:19.533Z</time></trkpt><trkpt lat="43.9634883" lon="12.7381333"><ele>6.0</ele><time>2026-04-25T07:28:22.532Z</time></trkpt><trkpt lat="43.9634767" lon="12.737995"><ele>6.0</ele><time>2026-04-25T07:28:23.531Z</time></trkpt><trkpt lat="43.9634683" lon="12.7378583"><ele>6.0</ele><time>2026-04-25T07:28:24.532Z</time></trkpt><trkpt lat="43.9634533" lon="12.7377117"><ele>5.75</ele><time>2026-04-25T07:28:25.531Z</time></trkpt><trkpt lat="43.96342" lon="12.7375583"><ele>5.5</ele><time>2026-04-25T07:28:26.531Z</time></trkpt><trkpt lat="43.9633667" lon="12.73741"><ele>5.25</ele><time>2026-04-25T07:28:27.533Z</time></trkpt><trkpt lat="43.9633017" lon="12.7372717"><ele>5.0</ele><time>2026-04-25T07:28:28.532Z</time></trkpt><trkpt lat="43.9632333" lon="12.73712"><ele>5.0</ele><time>2026-04-25T07:28:29.531Z</time></trkpt><trkpt lat="43.963175" lon="12.736955"><ele>5.0</ele><time>2026-04-25T07:28:30.538Z</time></trkpt><trkpt lat="43.9631367" lon="12.7367917"><ele>5.0</ele><time>2026-04-25T07:28:31.532Z</time></trkpt><trkpt lat="43.9631133" lon="12.7366317"><ele>5.0</ele><time>2026-04-25T07:28:32.53Z</time></trkpt><trkpt lat="43.963115" lon="12.73648"><ele>4.75</ele><time>2026-04-25T07:28:33.534Z</time></trkpt><trkpt lat="43.96314" lon="12.7363267"><ele>4.5</ele><time>2026-04-25T07:28:34.531Z</time></trkpt><trkpt lat="43.9631683" lon="12.7361717"><ele>4.25</ele><time>2026-04-25T07:28:35.534Z</time></trkpt><trkpt lat="43.963205" lon="12.7360133"><ele>4.0</ele><time>2026-04-25T07:28:36.534Z</time></trkpt><trkpt lat="43.9632467" lon="12.7358483"><ele>4.0</ele><time>2026-04-25T07:28:37.535Z</time></trkpt><trkpt lat="43.9632833" lon="12.7356917"><ele>4.0</ele><time>2026-04-25T07:28:38.534Z</time></trkpt><trkpt lat="43.9633067" lon="12.73555"><ele>4.0</ele><time>2026-04-25T07:28:39.535Z</time></trkpt><trkpt lat="43.9633283" lon="12.7354167"><ele>4.0</ele><time>2026-04-25T07:28:40.535Z</time></trkpt><trkpt lat="43.9633567" lon="12.735135"><ele>4.2</ele><time>2026-04-25T07:28:42.531Z</time></trkpt><trkpt lat="43.96336" lon="12.7349933"><ele>4.4</ele><time>2026-04-25T07:28:43.531Z</time></trkpt><trkpt lat="43.9633567" lon="12.73486"><ele>4.6</ele><time>2026-04-25T07:28:44.532Z</time></trkpt><trkpt lat="43.9633517" lon="12.734735"><ele>4.8</ele><time>2026-04-25T07:28:45.534Z</time></trkpt><trkpt lat="43.9633433" lon="12.7346183"><ele>5.0</ele><time>2026-04-25T07:28:46.531Z</time></trkpt><trkpt lat="43.9633367" lon="12.7345117"><ele>5.0</ele><time>2026-04-25T07:28:47.534Z</time></trkpt><trkpt lat="43.9633233" lon="12.734375"><ele>5.0</ele><time>2026-04-25T07:28:49.534Z</time></trkpt><trkpt lat="43.9633017" lon="12.73426"><ele>5.0</ele><time>2026-04-25T07:28:53.534Z</time></trkpt><trkpt lat="43.9633" lon="12.73417"><ele>5.0</ele><time>2026-04-25T07:28:55.534Z</time></trkpt><trkpt lat="43.9632567" lon="12.7340783"><ele>5.0</ele><time>2026-04-25T07:28:57.533Z</time></trkpt><trkpt lat="43.9631217" lon="12.7340517"><ele>5.0</ele><time>2026-04-25T07:28:59.534Z</time></trkpt><trkpt lat="43.96301" lon="12.7340667"><ele>5.0</ele><time>2026-04-25T07:29:00.534Z</time></trkpt><trkpt lat="43.9628967" lon="12.7340667"><ele>5.0</ele><time>2026-04-25T07:29:01.532Z</time></trkpt><trkpt lat="43.962695" lon="12.734045"><ele>5.0</ele><time>2026-04-25T07:29:03.531Z</time></trkpt><trkpt lat="43.96261" lon="12.73403"><ele>5.0</ele><time>2026-04-25T07:29:04.533Z</time></trkpt><trkpt lat="43.962535" lon="12.7340167"><ele>5.0</ele><time>2026-04-25T07:29:05.532Z</time></trkpt><trkpt lat="43.9624417" lon="12.7340067"><ele>5.0</ele><time>2026-04-25T07:29:07.531Z</time></trkpt><trkpt lat="43.9623633" lon="12.7340083"><ele>5.0</ele><time>2026-04-25T07:29:09.532Z</time></trkpt><trkpt lat="43.962265" lon="12.7339917"><ele>5.0</ele><time>2026-04-25T07:29:11.532Z</time></trkpt><trkpt lat="43.9621617" lon="12.7339817"><ele>5.5</ele><time>2026-04-25T07:29:13.532Z</time></trkpt><trkpt lat="43.9620767" lon="12.7339817"><ele>6.0</ele><time>2026-04-25T07:29:14.531Z</time></trkpt><trkpt lat="43.9619983" lon="12.73398"><ele>6.5</ele><time>2026-04-25T07:29:15.535Z</time></trkpt><trkpt lat="43.9619183" lon="12.7339767"><ele>7.0</ele><time>2026-04-25T07:29:16.533Z</time></trkpt><trkpt lat="43.96183" lon="12.7339783"><ele>7.499999999999999</ele><time>2026-04-25T07:29:17.533Z</time></trkpt><trkpt lat="43.9617233" lon="12.7339833"><ele>8.0</ele><time>2026-04-25T07:29:18.534Z</time></trkpt><trkpt lat="43.9615967" lon="12.73398"><ele>8.5</ele><time>2026-04-25T07:29:19.534Z</time></trkpt><trkpt lat="43.96144" lon="12.7339517"><ele>9.0</ele><time>2026-04-25T07:29:20.532Z</time></trkpt><trkpt lat="43.961295" lon="12.7339283"><ele>9.5</ele><time>2026-04-25T07:29:21.535Z</time></trkpt><trkpt lat="43.96116" lon="12.7339117"><ele>10.0</ele><time>2026-04-25T07:29:22.533Z</time></trkpt><trkpt lat="43.9608867" lon="12.7338817"><ele>10.5</ele><time>2026-04-25T07:29:24.533Z</time></trkpt><trkpt lat="43.9607517" lon="12.7338617"><ele>11.0</ele><time>2026-04-25T07:29:25.535Z</time></trkpt><trkpt lat="43.9606183" lon="12.7338417"><ele>11.5</ele><time>2026-04-25T07:29:26.532Z</time></trkpt><trkpt lat="43.96049" lon="12.7338217"><ele>12.0</ele><time>2026-04-25T07:29:27.534Z</time></trkpt><trkpt lat="43.9603667" lon="12.7337933"><ele>12.0</ele><time>2026-04-25T07:29:28.533Z</time></trkpt><trkpt lat="43.9602233" lon="12.7337617"><ele>12.0</ele><time>2026-04-25T07:29:29.532Z</time></trkpt><trkpt lat="43.9601083" lon="12.73372"><ele>12.0</ele><time>2026-04-25T07:29:30.533Z</time></trkpt><trkpt lat="43.95998" lon="12.7336717"><ele>12.0</ele><time>2026-04-25T07:29:31.533Z</time></trkpt><trkpt lat="43.9598467" lon="12.7336183"><ele>12.0</ele><time>2026-04-25T07:29:32.533Z</time></trkpt><trkpt lat="43.9597133" lon="12.7335617"><ele>12.0</ele><time>2026-04-25T07:29:33.532Z</time></trkpt><trkpt lat="43.9595717" lon="12.733485"><ele>12.0</ele><time>2026-04-25T07:29:34.534Z</time></trkpt><trkpt lat="43.959435" lon="12.7334033"><ele>12.0</ele><time>2026-04-25T07:29:35.533Z</time></trkpt><trkpt lat="43.9593" lon="12.73332"><ele>12.0</ele><time>2026-04-25T07:29:36.538Z</time></trkpt><trkpt lat="43.959175" lon="12.73324"><ele>12.0</ele><time>2026-04-25T07:29:37.533Z</time></trkpt><trkpt lat="43.9590517" lon="12.73315"><ele>12.0</ele><time>2026-04-25T07:29:38.532Z</time></trkpt><trkpt lat="43.9589467" lon="12.733055"><ele>12.0</ele><time>2026-04-25T07:29:39.533Z</time></trkpt><trkpt lat="43.9588433" lon="12.7329517"><ele>12.0</ele><time>2026-04-25T07:29:40.534Z</time></trkpt><trkpt lat="43.95874" lon="12.7328383"><ele>12.0</ele><time>2026-04-25T07:29:41.533Z</time></trkpt><trkpt lat="43.9586433" lon="12.7327233"><ele>12.0</ele><time>2026-04-25T07:29:42.532Z</time></trkpt><trkpt lat="43.9585567" lon="12.7326067"><ele>12.0</ele><time>2026-04-25T07:29:43.533Z</time></trkpt><trkpt lat="43.9583917" lon="12.7323533"><ele>12.25</ele><time>2026-04-25T07:29:45.534Z</time></trkpt><trkpt lat="43.9583117" lon="12.7322267"><ele>12.5</ele><time>2026-04-25T07:29:46.533Z</time></trkpt><trkpt lat="43.9582433" lon="12.7321033"><ele>12.75</ele><time>2026-04-25T07:29:47.532Z</time></trkpt><trkpt lat="43.9581783" lon="12.7319833"><ele>13.0</ele><time>2026-04-25T07:29:48.532Z</time></trkpt><trkpt lat="43.9581133" lon="12.7318633"><ele>13.2</ele><time>2026-04-25T07:29:49.533Z</time></trkpt><trkpt lat="43.9580517" lon="12.731745"><ele>13.4</ele><time>2026-04-25T07:29:50.532Z</time></trkpt><trkpt lat="43.9579917" lon="12.7316183"><ele>13.599999999999998</ele><time>2026-04-25T07:29:51.532Z</time></trkpt><trkpt lat="43.9579333" lon="12.731495"><ele>13.799999999999999</ele><time>2026-04-25T07:29:52.533Z</time></trkpt><trkpt lat="43.95787" lon="12.7313733"><ele>14.0</ele><time>2026-04-25T07:29:53.532Z</time></trkpt><trkpt lat="43.9578117" lon="12.7312567"><ele>14.0</ele><time>2026-04-25T07:29:54.534Z</time></trkpt><trkpt lat="43.9577533" lon="12.7311433"><ele>13.999999999999998</ele><time>2026-04-25T07:29:55.533Z</time></trkpt><trkpt lat="43.957695" lon="12.7310383"><ele>13.999999999999998</ele><time>2026-04-25T07:29:56.532Z</time></trkpt><trkpt lat="43.9576417" lon="12.7309267"><ele>14.0</ele><time>2026-04-25T07:29:57.533Z</time></trkpt><trkpt lat="43.95759" lon="12.7308133"><ele>14.0</ele><time>2026-04-25T07:29:58.534Z</time></trkpt><trkpt lat="43.9575433" lon="12.7307167"><ele>13.833333333333334</ele><time>2026-04-25T07:29:59.532Z</time></trkpt><trkpt lat="43.9574883" lon="12.7306183"><ele>13.666666666666668</ele><time>2026-04-25T07:30:00.532Z</time></trkpt><trkpt lat="43.9574267" lon="12.730525"><ele>13.5</ele><time>2026-04-25T07:30:01.534Z</time></trkpt><trkpt lat="43.9573683" lon="12.730435"><ele>13.333333333333332</ele><time>2026-04-25T07:30:02.533Z</time></trkpt><trkpt lat="43.9573183" lon="12.7303467"><ele>13.166666666666666</ele><time>2026-04-25T07:30:03.532Z</time></trkpt><trkpt lat="43.9572783" lon="12.7302533"><ele>13.0</ele><time>2026-04-25T07:30:04.533Z</time></trkpt><trkpt lat="43.95722" lon="12.73003"><ele>13.4</ele><time>2026-04-25T07:30:06.534Z</time></trkpt><trkpt lat="43.9571733" lon="12.7299217"><ele>13.8</ele><time>2026-04-25T07:30:07.535Z</time></trkpt><trkpt lat="43.9571133" lon="12.7298167"><ele>14.2</ele><time>2026-04-25T07:30:08.532Z</time></trkpt><trkpt lat="43.9570283" lon="12.72971"><ele>14.6</ele><time>2026-04-25T07:30:09.532Z</time></trkpt><trkpt lat="43.9569433" lon="12.729575"><ele>15.0</ele><time>2026-04-25T07:30:10.534Z</time></trkpt><trkpt lat="43.9568617" lon="12.72941"><ele>15.0</ele><time>2026-04-25T07:30:11.531Z</time></trkpt><trkpt lat="43.9567783" lon="12.7292383"><ele>15.0</ele><time>2026-04-25T07:30:12.531Z</time></trkpt><trkpt lat="43.9566883" lon="12.7290617"><ele>15.0</ele><time>2026-04-25T07:30:13.532Z</time></trkpt><trkpt lat="43.9565933" lon="12.7288833"><ele>15.0</ele><time>2026-04-25T07:30:14.531Z</time></trkpt><trkpt lat="43.9564917" lon="12.7287067"><ele>15.0</ele><time>2026-04-25T07:30:15.534Z</time></trkpt><trkpt lat="43.9563833" lon="12.7285367"><ele>15.0</ele><time>2026-04-25T07:30:16.535Z</time></trkpt><trkpt lat="43.95627" lon="12.72837"><ele>15.0</ele><time>2026-04-25T07:30:17.534Z</time></trkpt><trkpt lat="43.9561533" lon="12.7282117"><ele>15.0</ele><time>2026-04-25T07:30:18.535Z</time></trkpt><trkpt lat="43.9560333" lon="12.728055"><ele>15.0</ele><time>2026-04-25T07:30:19.534Z</time></trkpt><trkpt lat="43.955915" lon="12.7278983"><ele>15.333333333333332</ele><time>2026-04-25T07:30:20.534Z</time></trkpt><trkpt lat="43.9557983" lon="12.7277433"><ele>15.666666666666666</ele><time>2026-04-25T07:30:21.534Z</time></trkpt><trkpt lat="43.9556867" lon="12.7275917"><ele>16.0</ele><time>2026-04-25T07:30:22.534Z</time></trkpt><trkpt lat="43.955575" lon="12.7274467"><ele>16.0</ele><time>2026-04-25T07:30:23.532Z</time></trkpt><trkpt lat="43.9554633" lon="12.7273017"><ele>16.0</ele><time>2026-04-25T07:30:24.534Z</time></trkpt><trkpt lat="43.9553533" lon="12.7271583"><ele>16.0</ele><time>2026-04-25T07:30:25.536Z</time></trkpt><trkpt lat="43.955135" lon="12.7269117"><ele>16.0</ele><time>2026-04-25T07:30:27.532Z</time></trkpt><trkpt lat="43.9550267" lon="12.7268083"><ele>16.0</ele><time>2026-04-25T07:30:28.531Z</time></trkpt><trkpt lat="43.9549183" lon="12.7267183"><ele>16.0</ele><time>2026-04-25T07:30:29.531Z</time></trkpt><trkpt lat="43.954815" lon="12.7266417"><ele>16.0</ele><time>2026-04-25T07:30:30.532Z</time></trkpt><trkpt lat="43.9547183" lon="12.726575"><ele>15.999999999999998</ele><time>2026-04-25T07:30:31.532Z</time></trkpt><trkpt lat="43.9546317" lon="12.726515"><ele>16.0</ele><time>2026-04-25T07:30:32.532Z</time></trkpt><trkpt lat="43.9545533" lon="12.7264617"><ele>16.0</ele><time>2026-04-25T07:30:33.531Z</time></trkpt><trkpt lat="43.954485" lon="12.72641"><ele>16.0</ele><time>2026-04-25T07:30:34.531Z</time></trkpt><trkpt lat="43.9544267" lon="12.72636"><ele>15.999999999999998</ele><time>2026-04-25T07:30:35.531Z</time></trkpt><trkpt lat="43.9543783" lon="12.7263017"><ele>16.0</ele><time>2026-04-25T07:30:36.531Z</time></trkpt><trkpt lat="43.95434" lon="12.72623"><ele>15.999999999999998</ele><time>2026-04-25T07:30:37.533Z</time></trkpt><trkpt lat="43.9543183" lon="12.726145"><ele>16.0</ele><time>2026-04-25T07:30:38.531Z</time></trkpt><trkpt lat="43.9543117" lon="12.7260533"><ele>16.0</ele><time>2026-04-25T07:30:39.531Z</time></trkpt><trkpt lat="43.9543067" lon="12.7259583"><ele>16.0</ele><time>2026-04-25T07:30:40.534Z</time></trkpt><trkpt lat="43.9542917" lon="12.725865"><ele>15.999999999999998</ele><time>2026-04-25T07:30:41.535Z</time></trkpt><trkpt lat="43.9542583" lon="12.725785"><ele>16.0</ele><time>2026-04-25T07:30:42.535Z</time></trkpt><trkpt lat="43.9541583" lon="12.7257033"><ele>16.400000000000002</ele><time>2026-04-25T07:30:44.534Z</time></trkpt><trkpt lat="43.9540533" lon="12.7257233"><ele>16.8</ele><time>2026-04-25T07:30:46.534Z</time></trkpt><trkpt lat="43.95393" lon="12.7257783"><ele>17.200000000000003</ele><time>2026-04-25T07:30:48.535Z</time></trkpt><trkpt lat="43.9538583" lon="12.7257867"><ele>17.6</ele><time>2026-04-25T07:30:49.535Z</time></trkpt><trkpt lat="43.9537817" lon="12.7257767"><ele>18.0</ele><time>2026-04-25T07:30:50.532Z</time></trkpt><trkpt lat="43.9536983" lon="12.7257533"><ele>18.0</ele><time>2026-04-25T07:30:51.535Z</time></trkpt><trkpt lat="43.953615" lon="12.7257233"><ele>18.0</ele><time>2026-04-25T07:30:52.535Z</time></trkpt><trkpt lat="43.953525" lon="12.7256883"><ele>18.0</ele><time>2026-04-25T07:30:53.532Z</time></trkpt><trkpt lat="43.95342" lon="12.7256483"><ele>18.0</ele><time>2026-04-25T07:30:54.535Z</time></trkpt><trkpt lat="43.9533" lon="12.7256067"><ele>18.0</ele><time>2026-04-25T07:30:55.534Z</time></trkpt><trkpt lat="43.9531717" lon="12.725565"><ele>18.666666666666668</ele><time>2026-04-25T07:30:56.534Z</time></trkpt><trkpt lat="43.9530317" lon="12.7255217"><ele>19.333333333333336</ele><time>2026-04-25T07:30:57.534Z</time></trkpt><trkpt lat="43.952875" lon="12.725465"><ele>20.0</ele><time>2026-04-25T07:30:58.536Z</time></trkpt><trkpt lat="43.9527167" lon="12.7253983"><ele>20.0</ele><time>2026-04-25T07:30:59.533Z</time></trkpt><trkpt lat="43.9525633" lon="12.7253233"><ele>20.0</ele><time>2026-04-25T07:31:00.534Z</time></trkpt><trkpt lat="43.9524167" lon="12.72525"><ele>20.0</ele><time>2026-04-25T07:31:01.535Z</time></trkpt><trkpt lat="43.9522733" lon="12.7251817"><ele>19.5</ele><time>2026-04-25T07:31:02.533Z</time></trkpt><trkpt lat="43.9521317" lon="12.7251233"><ele>19.0</ele><time>2026-04-25T07:31:03.534Z</time></trkpt><trkpt lat="43.95199" lon="12.7250667"><ele>18.5</ele><time>2026-04-25T07:31:04.535Z</time></trkpt><trkpt lat="43.951855" lon="12.7250117"><ele>18.0</ele><time>2026-04-25T07:31:05.534Z</time></trkpt><trkpt lat="43.951725" lon="12.72496"><ele>19.0</ele><time>2026-04-25T07:31:06.534Z</time></trkpt><trkpt lat="43.9516017" lon="12.724915"><ele>20.0</ele><time>2026-04-25T07:31:07.535Z</time></trkpt><trkpt lat="43.9513683" lon="12.724825"><ele>21.0</ele><time>2026-04-25T07:31:09.533Z</time></trkpt><trkpt lat="43.951265" lon="12.7247783"><ele>21.0</ele><time>2026-04-25T07:31:10.534Z</time></trkpt><trkpt lat="43.9511667" lon="12.724735"><ele>21.0</ele><time>2026-04-25T07:31:11.532Z</time></trkpt><trkpt lat="43.95107" lon="12.7246933"><ele>21.0</ele><time>2026-04-25T07:31:12.532Z</time></trkpt><trkpt lat="43.9509683" lon="12.7246517"><ele>21.0</ele><time>2026-04-25T07:31:13.534Z</time></trkpt><trkpt lat="43.95086" lon="12.7246083"><ele>21.0</ele><time>2026-04-25T07:31:14.534Z</time></trkpt><trkpt lat="43.9507533" lon="12.7245667"><ele>20.666666666666668</ele><time>2026-04-25T07:31:15.534Z</time></trkpt><trkpt lat="43.9506567" lon="12.7245183"><ele>20.333333333333332</ele><time>2026-04-25T07:31:16.534Z</time></trkpt><trkpt lat="43.950575" lon="12.7244517"><ele>20.0</ele><time>2026-04-25T07:31:17.534Z</time></trkpt><trkpt lat="43.9505117" lon="12.724365"><ele>19.666666666666664</ele><time>2026-04-25T07:31:18.533Z</time></trkpt><trkpt lat="43.9504567" lon="12.7242883"><ele>19.333333333333332</ele><time>2026-04-25T07:31:19.537Z</time></trkpt><trkpt lat="43.9504017" lon="12.7242233"><ele>19.0</ele><time>2026-04-25T07:31:20.535Z</time></trkpt><trkpt lat="43.950345" lon="12.7241783"><ele>18.8</ele><time>2026-04-25T07:31:21.534Z</time></trkpt><trkpt lat="43.95023" lon="12.7241433"><ele>18.599999999999998</ele><time>2026-04-25T07:31:23.532Z</time></trkpt><trkpt lat="43.9501067" lon="12.7241133"><ele>18.4</ele><time>2026-04-25T07:31:25.532Z</time></trkpt><trkpt lat="43.9500467" lon="12.724085"><ele>18.2</ele><time>2026-04-25T07:31:26.531Z</time></trkpt><trkpt lat="43.9499783" lon="12.7240417"><ele>18.0</ele><time>2026-04-25T07:31:27.534Z</time></trkpt><trkpt lat="43.9498933" lon="12.72396"><ele>18.5</ele><time>2026-04-25T07:31:28.533Z</time></trkpt><trkpt lat="43.9496683" lon="12.7236833"><ele>19.0</ele><time>2026-04-25T07:31:30.532Z</time></trkpt><trkpt lat="43.949545" lon="12.7235333"><ele>19.0</ele><time>2026-04-25T07:31:31.534Z</time></trkpt><trkpt lat="43.94942" lon="12.7233817"><ele>19.0</ele><time>2026-04-25T07:31:32.531Z</time></trkpt><trkpt lat="43.949295" lon="12.7232233"><ele>19.0</ele><time>2026-04-25T07:31:33.532Z</time></trkpt><trkpt lat="43.9491633" lon="12.7230567"><ele>19.333333333333332</ele><time>2026-04-25T07:31:34.533Z</time></trkpt><trkpt lat="43.9490233" lon="12.7228867"><ele>19.666666666666668</ele><time>2026-04-25T07:31:35.533Z</time></trkpt><trkpt lat="43.9488883" lon="12.7227083"><ele>20.0</ele><time>2026-04-25T07:31:36.531Z</time></trkpt><trkpt lat="43.94876" lon="12.7225367"><ele>20.0</ele><time>2026-04-25T07:31:37.533Z</time></trkpt><trkpt lat="43.948635" lon="12.7223783"><ele>20.0</ele><time>2026-04-25T07:31:38.532Z</time></trkpt><trkpt lat="43.9485133" lon="12.7222283"><ele>20.0</ele><time>2026-04-25T07:31:39.532Z</time></trkpt><trkpt lat="43.9483967" lon="12.7220817"><ele>20.25</ele><time>2026-04-25T07:31:40.532Z</time></trkpt><trkpt lat="43.9482817" lon="12.7219483"><ele>20.5</ele><time>2026-04-25T07:31:41.535Z</time></trkpt><trkpt lat="43.9481817" lon="12.7218233"><ele>20.75</ele><time>2026-04-25T07:31:42.535Z</time></trkpt><trkpt lat="43.9480917" lon="12.7217133"><ele>21.0</ele><time>2026-04-25T07:31:43.532Z</time></trkpt><trkpt lat="43.9480233" lon="12.7216133"><ele>21.4</ele><time>2026-04-25T07:31:44.531Z</time></trkpt><trkpt lat="43.94797" lon="12.72152"><ele>21.8</ele><time>2026-04-25T07:31:45.531Z</time></trkpt><trkpt lat="43.947935" lon="12.7214317"><ele>22.2</ele><time>2026-04-25T07:31:46.531Z</time></trkpt><trkpt lat="43.9479033" lon="12.72135"><ele>22.599999999999998</ele><time>2026-04-25T07:31:47.532Z</time></trkpt><trkpt lat="43.94782" lon="12.721225"><ele>23.0</ele><time>2026-04-25T07:31:49.535Z</time></trkpt><trkpt lat="43.94767" lon="12.721155"><ele>23.0</ele><time>2026-04-25T07:31:51.531Z</time></trkpt><trkpt lat="43.9475767" lon="12.7211017"><ele>23.0</ele><time>2026-04-25T07:31:52.536Z</time></trkpt><trkpt lat="43.9474717" lon="12.7210233"><ele>23.0</ele><time>2026-04-25T07:31:53.531Z</time></trkpt><trkpt lat="43.9473483" lon="12.7209117"><ele>23.0</ele><time>2026-04-25T07:31:54.531Z</time></trkpt><trkpt lat="43.94721" lon="12.7207783"><ele>23.333333333333336</ele><time>2026-04-25T07:31:55.535Z</time></trkpt><trkpt lat="43.9470567" lon="12.720625"><ele>23.666666666666668</ele><time>2026-04-25T07:31:56.534Z</time></trkpt><trkpt lat="43.9468967" lon="12.72046"><ele>24.0</ele><time>2026-04-25T07:31:57.532Z</time></trkpt><trkpt lat="43.9467333" lon="12.720295"><ele>24.0</ele><time>2026-04-25T07:31:58.535Z</time></trkpt><trkpt lat="43.94657" lon="12.7201333"><ele>24.0</ele><time>2026-04-25T07:31:59.532Z</time></trkpt><trkpt lat="43.9464117" lon="12.719975"><ele>24.0</ele><time>2026-04-25T07:32:00.532Z</time></trkpt><trkpt lat="43.9462583" lon="12.7198217"><ele>24.0</ele><time>2026-04-25T07:32:01.532Z</time></trkpt><trkpt lat="43.946105" lon="12.7196667"><ele>24.0</ele><time>2026-04-25T07:32:02.535Z</time></trkpt><trkpt lat="43.9459533" lon="12.71951"><ele>24.0</ele><time>2026-04-25T07:32:03.534Z</time></trkpt><trkpt lat="43.9458" lon="12.7193583"><ele>24.666666666666664</ele><time>2026-04-25T07:32:04.535Z</time></trkpt><trkpt lat="43.9456467" lon="12.7192083"><ele>25.333333333333332</ele><time>2026-04-25T07:32:05.536Z</time></trkpt><trkpt lat="43.945495" lon="12.7190617"><ele>26.0</ele><time>2026-04-25T07:32:06.532Z</time></trkpt><trkpt lat="43.9453483" lon="12.7189183"><ele>26.0</ele><time>2026-04-25T07:32:07.533Z</time></trkpt><trkpt lat="43.945205" lon="12.718775"><ele>26.0</ele><time>2026-04-25T07:32:08.532Z</time></trkpt><trkpt lat="43.9450633" lon="12.718635"><ele>26.0</ele><time>2026-04-25T07:32:09.531Z</time></trkpt><trkpt lat="43.9449217" lon="12.7184933"><ele>25.5</ele><time>2026-04-25T07:32:10.533Z</time></trkpt><trkpt lat="43.9446567" lon="12.7182017"><ele>25.0</ele><time>2026-04-25T07:32:12.532Z</time></trkpt><trkpt lat="43.9445467" lon="12.7180533"><ele>25.0</ele><time>2026-04-25T07:32:13.535Z</time></trkpt><trkpt lat="43.9444633" lon="12.71791"><ele>25.0</ele><time>2026-04-25T07:32:14.531Z</time></trkpt><trkpt lat="43.94439" lon="12.717755"><ele>25.0</ele><time>2026-04-25T07:32:15.532Z</time></trkpt><trkpt lat="43.94432" lon="12.7175783"><ele>25.0</ele><time>2026-04-25T07:32:16.533Z</time></trkpt><trkpt lat="43.944245" lon="12.7173783"><ele>24.666666666666668</ele><time>2026-04-25T07:32:17.534Z</time></trkpt><trkpt lat="43.9441783" lon="12.717145"><ele>24.333333333333336</ele><time>2026-04-25T07:32:18.535Z</time></trkpt><trkpt lat="43.94412" lon="12.7168733"><ele>24.0</ele><time>2026-04-25T07:32:19.536Z</time></trkpt><trkpt lat="43.9440817" lon="12.7165833"><ele>24.0</ele><time>2026-04-25T07:32:20.531Z</time></trkpt><trkpt lat="43.9440667" lon="12.716295"><ele>24.0</ele><time>2026-04-25T07:32:21.535Z</time></trkpt><trkpt lat="43.94407" lon="12.7160083"><ele>24.0</ele><time>2026-04-25T07:32:22.535Z</time></trkpt><trkpt lat="43.94407" lon="12.7157083"><ele>24.5</ele><time>2026-04-25T07:32:23.535Z</time></trkpt><trkpt lat="43.9440717" lon="12.7153967"><ele>25.0</ele><time>2026-04-25T07:32:24.534Z</time></trkpt><trkpt lat="43.944075" lon="12.7150733"><ele>25.0</ele><time>2026-04-25T07:32:25.533Z</time></trkpt><trkpt lat="43.9440767" lon="12.71474"><ele>25.0</ele><time>2026-04-25T07:32:26.535Z</time></trkpt><trkpt lat="43.9440767" lon="12.7144083"><ele>24.5</ele><time>2026-04-25T07:32:27.532Z</time></trkpt><trkpt lat="43.9440767" lon="12.7140833"><ele>24.0</ele><time>2026-04-25T07:32:28.53Z</time></trkpt><trkpt lat="43.944065" lon="12.7137683"><ele>24.5</ele><time>2026-04-25T07:32:29.532Z</time></trkpt><trkpt lat="43.9440383" lon="12.713455"><ele>25.0</ele><time>2026-04-25T07:32:30.531Z</time></trkpt><trkpt lat="43.944" lon="12.7131417"><ele>26.0</ele><time>2026-04-25T07:32:31.532Z</time></trkpt><trkpt lat="43.9439" lon="12.7125133"><ele>26.0</ele><time>2026-04-25T07:32:33.531Z</time></trkpt><trkpt lat="43.9438417" lon="12.712205"><ele>26.0</ele><time>2026-04-25T07:32:34.532Z</time></trkpt><trkpt lat="43.9437717" lon="12.7119"><ele>25.5</ele><time>2026-04-25T07:32:35.53Z</time></trkpt><trkpt lat="43.943695" lon="12.7116017"><ele>25.0</ele><time>2026-04-25T07:32:36.531Z</time></trkpt><trkpt lat="43.9436117" lon="12.7113067"><ele>24.5</ele><time>2026-04-25T07:32:37.531Z</time></trkpt><trkpt lat="43.94352" lon="12.7110167"><ele>24.0</ele><time>2026-04-25T07:32:38.531Z</time></trkpt><trkpt lat="43.94342" lon="12.71073"><ele>24.0</ele><time>2026-04-25T07:32:39.531Z</time></trkpt><trkpt lat="43.9433133" lon="12.7104467"><ele>24.0</ele><time>2026-04-25T07:32:40.534Z</time></trkpt><trkpt lat="43.9432033" lon="12.7101633"><ele>25.0</ele><time>2026-04-25T07:32:41.534Z</time></trkpt><trkpt lat="43.9430917" lon="12.7098783"><ele>26.0</ele><time>2026-04-25T07:32:42.534Z</time></trkpt><trkpt lat="43.94298" lon="12.7095983"><ele>26.5</ele><time>2026-04-25T07:32:43.531Z</time></trkpt><trkpt lat="43.94287" lon="12.7093217"><ele>27.0</ele><time>2026-04-25T07:32:44.535Z</time></trkpt><trkpt lat="43.9427633" lon="12.709045"><ele>27.0</ele><time>2026-04-25T07:32:45.533Z</time></trkpt><trkpt lat="43.9426567" lon="12.7087767"><ele>27.0</ele><time>2026-04-25T07:32:46.534Z</time></trkpt><trkpt lat="43.9425517" lon="12.70851"><ele>27.0</ele><time>2026-04-25T07:32:47.533Z</time></trkpt><trkpt lat="43.942445" lon="12.7082433"><ele>27.333333333333336</ele><time>2026-04-25T07:32:48.533Z</time></trkpt><trkpt lat="43.9423383" lon="12.70798"><ele>27.666666666666668</ele><time>2026-04-25T07:32:49.535Z</time></trkpt><trkpt lat="43.94223" lon="12.7077167"><ele>28.0</ele><time>2026-04-25T07:32:50.533Z</time></trkpt><trkpt lat="43.942125" lon="12.7074517"><ele>28.5</ele><time>2026-04-25T07:32:51.535Z</time></trkpt><trkpt lat="43.9420183" lon="12.7071867"><ele>29.0</ele><time>2026-04-25T07:32:52.535Z</time></trkpt><trkpt lat="43.9417967" lon="12.706645"><ele>28.5</ele><time>2026-04-25T07:32:54.534Z</time></trkpt><trkpt lat="43.9416867" lon="12.70637"><ele>28.0</ele><time>2026-04-25T07:32:55.534Z</time></trkpt><trkpt lat="43.941575" lon="12.7060933"><ele>28.0</ele><time>2026-04-25T07:32:56.53Z</time></trkpt><trkpt lat="43.9414617" lon="12.70581"><ele>28.0</ele><time>2026-04-25T07:32:57.533Z</time></trkpt><trkpt lat="43.9413517" lon="12.7055317"><ele>28.0</ele><time>2026-04-25T07:32:58.532Z</time></trkpt><trkpt lat="43.9412483" lon="12.705265"><ele>28.0</ele><time>2026-04-25T07:32:59.532Z</time></trkpt><trkpt lat="43.94115" lon="12.705015"><ele>28.0</ele><time>2026-04-25T07:33:00.531Z</time></trkpt><trkpt lat="43.9410533" lon="12.7047767"><ele>28.666666666666668</ele><time>2026-04-25T07:33:01.533Z</time></trkpt><trkpt lat="43.94096" lon="12.704545"><ele>29.333333333333336</ele><time>2026-04-25T07:33:02.533Z</time></trkpt><trkpt lat="43.940875" lon="12.704325"><ele>30.0</ele><time>2026-04-25T07:33:03.533Z</time></trkpt><trkpt lat="43.940795" lon="12.7041183"><ele>31.0</ele><time>2026-04-25T07:33:04.533Z</time></trkpt><trkpt lat="43.9407217" lon="12.7039233"><ele>32.0</ele><time>2026-04-25T07:33:05.531Z</time></trkpt><trkpt lat="43.940655" lon="12.7037367"><ele>33.0</ele><time>2026-04-25T07:33:06.531Z</time></trkpt><trkpt lat="43.9405983" lon="12.7035533"><ele>33.0</ele><time>2026-04-25T07:33:07.533Z</time></trkpt><trkpt lat="43.9405517" lon="12.70337"><ele>33.0</ele><time>2026-04-25T07:33:08.533Z</time></trkpt><trkpt lat="43.940515" lon="12.70319"><ele>33.0</ele><time>2026-04-25T07:33:09.531Z</time></trkpt><trkpt lat="43.9404833" lon="12.7030133"><ele>33.0</ele><time>2026-04-25T07:33:10.532Z</time></trkpt><trkpt lat="43.9404567" lon="12.702835"><ele>33.0</ele><time>2026-04-25T07:33:11.531Z</time></trkpt><trkpt lat="43.9404367" lon="12.7026567"><ele>33.0</ele><time>2026-04-25T07:33:12.534Z</time></trkpt><trkpt lat="43.9404183" lon="12.7024733"><ele>33.0</ele><time>2026-04-25T07:33:13.532Z</time></trkpt><trkpt lat="43.9403467" lon="12.7021367"><ele>33.0</ele><time>2026-04-25T07:33:15.533Z</time></trkpt><trkpt lat="43.940275" lon="12.7019933"><ele>33.0</ele><time>2026-04-25T07:33:16.534Z</time></trkpt><trkpt lat="43.9401833" lon="12.70188"><ele>33.0</ele><time>2026-04-25T07:33:17.534Z</time></trkpt><trkpt lat="43.9400817" lon="12.7018067"><ele>33.0</ele><time>2026-04-25T07:33:18.533Z</time></trkpt><trkpt lat="43.9399783" lon="12.70178"><ele>33.199999999999996</ele><time>2026-04-25T07:33:19.534Z</time></trkpt><trkpt lat="43.9398817" lon="12.7018167"><ele>33.4</ele><time>2026-04-25T07:33:20.535Z</time></trkpt><trkpt lat="43.9398033" lon="12.7019067"><ele>33.599999999999994</ele><time>2026-04-25T07:33:21.535Z</time></trkpt><trkpt lat="43.9397517" lon="12.7020433"><ele>33.8</ele><time>2026-04-25T07:33:22.533Z</time></trkpt><trkpt lat="43.9397217" lon="12.7022267"><ele>34.0</ele><time>2026-04-25T07:33:23.534Z</time></trkpt><trkpt lat="43.9396883" lon="12.7024133"><ele>34.0</ele><time>2026-04-25T07:33:24.535Z</time></trkpt><trkpt lat="43.9396383" lon="12.7025683"><ele>34.0</ele><time>2026-04-25T07:33:25.534Z</time></trkpt><trkpt lat="43.93956" lon="12.7026883"><ele>34.0</ele><time>2026-04-25T07:33:26.534Z</time></trkpt><trkpt lat="43.93946" lon="12.7027867"><ele>34.0</ele><time>2026-04-25T07:33:27.531Z</time></trkpt><trkpt lat="43.93935" lon="12.70288"><ele>33.75</ele><time>2026-04-25T07:33:28.535Z</time></trkpt><trkpt lat="43.9392367" lon="12.7029717"><ele>33.5</ele><time>2026-04-25T07:33:29.534Z</time></trkpt><trkpt lat="43.9391233" lon="12.7030583"><ele>33.25</ele><time>2026-04-25T07:33:30.534Z</time></trkpt><trkpt lat="43.93902" lon="12.703145"><ele>33.0</ele><time>2026-04-25T07:33:31.531Z</time></trkpt><trkpt lat="43.9389233" lon="12.703225"><ele>32.75</ele><time>2026-04-25T07:33:32.53Z</time></trkpt><trkpt lat="43.9388333" lon="12.7032967"><ele>32.5</ele><time>2026-04-25T07:33:33.531Z</time></trkpt><trkpt lat="43.9387483" lon="12.703365"><ele>32.25</ele><time>2026-04-25T07:33:34.534Z</time></trkpt><trkpt lat="43.9386" lon="12.70348"><ele>32.0</ele><time>2026-04-25T07:33:36.535Z</time></trkpt><trkpt lat="43.9385067" lon="12.7035467"><ele>32.25</ele><time>2026-04-25T07:33:38.531Z</time></trkpt><trkpt lat="43.9384133" lon="12.7036133"><ele>32.5</ele><time>2026-04-25T07:35:04.531Z</time></trkpt><trkpt lat="43.938275" lon="12.7037233"><ele>32.75</ele><time>2026-04-25T07:35:06.531Z</time></trkpt><trkpt lat="43.9381933" lon="12.7037867"><ele>33.0</ele><time>2026-04-25T07:35:07.532Z</time></trkpt><trkpt lat="43.9381067" lon="12.7038517"><ele>33.166666666666664</ele><time>2026-04-25T07:35:08.534Z</time></trkpt><trkpt lat="43.93802" lon="12.7039267"><ele>33.333333333333336</ele><time>2026-04-25T07:35:09.535Z</time></trkpt><trkpt lat="43.937945" lon="12.70401"><ele>33.5</ele><time>2026-04-25T07:35:10.534Z</time></trkpt><trkpt lat="43.9378867" lon="12.7040983"><ele>33.66666666666667</ele><time>2026-04-25T07:35:11.534Z</time></trkpt><trkpt lat="43.9378283" lon="12.704175"><ele>33.833333333333336</ele><time>2026-04-25T07:35:12.534Z</time></trkpt><trkpt lat="43.9377717" lon="12.7042317"><ele>34.0</ele><time>2026-04-25T07:35:13.534Z</time></trkpt><trkpt lat="43.937705" lon="12.7042817"><ele>34.0</ele><time>2026-04-25T07:35:14.534Z</time></trkpt><trkpt lat="43.937625" lon="12.7042883"><ele>34.0</ele><time>2026-04-25T07:35:15.534Z</time></trkpt><trkpt lat="43.937555" lon="12.7042083"><ele>34.0</ele><time>2026-04-25T07:35:16.532Z</time></trkpt><trkpt lat="43.937465" lon="12.7040517"><ele>34.0</ele><time>2026-04-25T07:35:17.531Z</time></trkpt><trkpt lat="43.9373617" lon="12.7039217"><ele>34.0</ele><time>2026-04-25T07:35:18.532Z</time></trkpt><trkpt lat="43.9372533" lon="12.703795"><ele>34.0</ele><time>2026-04-25T07:35:19.532Z</time></trkpt><trkpt lat="43.9371483" lon="12.7036517"><ele>34.0</ele><time>2026-04-25T07:35:20.531Z</time></trkpt><trkpt lat="43.93704" lon="12.7034883"><ele>34.0</ele><time>2026-04-25T07:35:21.533Z</time></trkpt><trkpt lat="43.9369217" lon="12.7033167"><ele>34.0</ele><time>2026-04-25T07:35:22.532Z</time></trkpt><trkpt lat="43.9368017" lon="12.703145"><ele>34.0</ele><time>2026-04-25T07:35:23.534Z</time></trkpt><trkpt lat="43.93669" lon="12.7029833"><ele>34.0</ele><time>2026-04-25T07:35:24.535Z</time></trkpt><trkpt lat="43.9365833" lon="12.7028317"><ele>35.0</ele><time>2026-04-25T07:35:25.534Z</time></trkpt><trkpt lat="43.9364067" lon="12.7025717"><ele>36.0</ele><time>2026-04-25T07:35:27.531Z</time></trkpt><trkpt lat="43.9363283" lon="12.7024583"><ele>37.0</ele><time>2026-04-25T07:35:28.534Z</time></trkpt><trkpt lat="43.9362567" lon="12.7023483"><ele>37.0</ele><time>2026-04-25T07:35:29.535Z</time></trkpt><trkpt lat="43.9361967" lon="12.7022383"><ele>37.0</ele><time>2026-04-25T07:35:30.534Z</time></trkpt><trkpt lat="43.9361383" lon="12.7021333"><ele>37.0</ele><time>2026-04-25T07:35:31.531Z</time></trkpt><trkpt lat="43.9360667" lon="12.7020267"><ele>37.0</ele><time>2026-04-25T07:35:32.531Z</time></trkpt><trkpt lat="43.9359883" lon="12.7019067"><ele>37.0</ele><time>2026-04-25T07:35:33.531Z</time></trkpt><trkpt lat="43.9359133" lon="12.70177"><ele>36.75</ele><time>2026-04-25T07:35:34.532Z</time></trkpt><trkpt lat="43.9358467" lon="12.7016117"><ele>36.5</ele><time>2026-04-25T07:35:35.532Z</time></trkpt><trkpt lat="43.9357933" lon="12.701435"><ele>36.25</ele><time>2026-04-25T07:35:36.531Z</time></trkpt><trkpt lat="43.9357467" lon="12.701255"><ele>36.0</ele><time>2026-04-25T07:35:37.532Z</time></trkpt><trkpt lat="43.93571" lon="12.7010633"><ele>36.5</ele><time>2026-04-25T07:35:38.531Z</time></trkpt><trkpt lat="43.93568" lon="12.7008683"><ele>37.0</ele><time>2026-04-25T07:35:39.532Z</time></trkpt><trkpt lat="43.935655" lon="12.7006667"><ele>37.5</ele><time>2026-04-25T07:35:40.532Z</time></trkpt><trkpt lat="43.9356233" lon="12.7004717"><ele>38.0</ele><time>2026-04-25T07:35:41.534Z</time></trkpt><trkpt lat="43.9355867" lon="12.7002883"><ele>37.75</ele><time>2026-04-25T07:35:42.531Z</time></trkpt><trkpt lat="43.9355383" lon="12.7001083"><ele>37.5</ele><time>2026-04-25T07:35:43.534Z</time></trkpt><trkpt lat="43.935485" lon="12.69993"><ele>37.25</ele><time>2026-04-25T07:35:44.53Z</time></trkpt><trkpt lat="43.93542" lon="12.699755"><ele>37.0</ele><time>2026-04-25T07:35:45.532Z</time></trkpt><trkpt lat="43.935345" lon="12.6995767"><ele>37.333333333333336</ele><time>2026-04-25T07:35:46.531Z</time></trkpt><trkpt lat="43.9351783" lon="12.6992383"><ele>37.666666666666664</ele><time>2026-04-25T07:35:48.531Z</time></trkpt><trkpt lat="43.9350817" lon="12.6990783"><ele>38.0</ele><time>2026-04-25T07:35:49.535Z</time></trkpt><trkpt lat="43.934975" lon="12.6989217"><ele>38.0</ele><time>2026-04-25T07:35:50.534Z</time></trkpt><trkpt lat="43.9348683" lon="12.698775"><ele>38.0</ele><time>2026-04-25T07:35:51.532Z</time></trkpt><trkpt lat="43.934765" lon="12.698645"><ele>38.0</ele><time>2026-04-25T07:35:52.531Z</time></trkpt><trkpt lat="43.934665" lon="12.6985217"><ele>38.0</ele><time>2026-04-25T07:35:53.534Z</time></trkpt><trkpt lat="43.9345583" lon="12.6984"><ele>38.0</ele><time>2026-04-25T07:35:54.531Z</time></trkpt><trkpt lat="43.9344617" lon="12.6982933"><ele>38.0</ele><time>2026-04-25T07:35:55.532Z</time></trkpt><trkpt lat="43.9343717" lon="12.69819"><ele>38.0</ele><time>2026-04-25T07:35:56.534Z</time></trkpt><trkpt lat="43.934285" lon="12.6980767"><ele>38.0</ele><time>2026-04-25T07:35:57.531Z</time></trkpt><trkpt lat="43.9341867" lon="12.6979517"><ele>38.0</ele><time>2026-04-25T07:35:58.534Z</time></trkpt><trkpt lat="43.9340783" lon="12.6978167"><ele>38.0</ele><time>2026-04-25T07:35:59.534Z</time></trkpt><trkpt lat="43.933965" lon="12.69767"><ele>38.0</ele><time>2026-04-25T07:36:00.534Z</time></trkpt><trkpt lat="43.9338517" lon="12.6975133"><ele>38.0</ele><time>2026-04-25T07:36:01.535Z</time></trkpt><trkpt lat="43.9337367" lon="12.6973517"><ele>38.0</ele><time>2026-04-25T07:36:02.534Z</time></trkpt><trkpt lat="43.9336167" lon="12.6971967"><ele>38.0</ele><time>2026-04-25T07:36:03.532Z</time></trkpt><trkpt lat="43.9334967" lon="12.69704"><ele>38.666666666666664</ele><time>2026-04-25T07:36:04.534Z</time></trkpt><trkpt lat="43.9333783" lon="12.696885"><ele>39.333333333333336</ele><time>2026-04-25T07:36:05.53Z</time></trkpt><trkpt lat="43.933255" lon="12.6967383"><ele>40.0</ele><time>2026-04-25T07:36:06.534Z</time></trkpt><trkpt lat="43.933135" lon="12.69659"><ele>40.0</ele><time>2026-04-25T07:36:07.532Z</time></trkpt><trkpt lat="43.9328917" lon="12.6962883"><ele>40.0</ele><time>2026-04-25T07:36:09.533Z</time></trkpt><trkpt lat="43.9327783" lon="12.6961383"><ele>40.0</ele><time>2026-04-25T07:36:10.531Z</time></trkpt><trkpt lat="43.9326767" lon="12.695985"><ele>40.0</ele><time>2026-04-25T07:36:11.531Z</time></trkpt><trkpt lat="43.9325733" lon="12.69582"><ele>40.0</ele><time>2026-04-25T07:36:12.534Z</time></trkpt><trkpt lat="43.932475" lon="12.695655"><ele>40.0</ele><time>2026-04-25T07:36:13.535Z</time></trkpt><trkpt lat="43.9323833" lon="12.6954917"><ele>40.0</ele><time>2026-04-25T07:36:14.531Z</time></trkpt><trkpt lat="43.9322917" lon="12.6953283"><ele>40.0</ele><time>2026-04-25T07:36:15.531Z</time></trkpt><trkpt lat="43.932195" lon="12.6951667"><ele>40.333333333333336</ele><time>2026-04-25T07:36:16.531Z</time></trkpt><trkpt lat="43.9321067" lon="12.6949983"><ele>40.666666666666664</ele><time>2026-04-25T07:36:17.536Z</time></trkpt><trkpt lat="43.9320133" lon="12.69483"><ele>41.0</ele><time>2026-04-25T07:36:18.534Z</time></trkpt><trkpt lat="43.931915" lon="12.69466"><ele>41.0</ele><time>2026-04-25T07:36:19.532Z</time></trkpt><trkpt lat="43.931815" lon="12.6944917"><ele>41.0</ele><time>2026-04-25T07:36:20.531Z</time></trkpt><trkpt lat="43.9317167" lon="12.6943167"><ele>41.0</ele><time>2026-04-25T07:36:21.531Z</time></trkpt><trkpt lat="43.9316217" lon="12.6941417"><ele>41.33333333333333</ele><time>2026-04-25T07:36:22.534Z</time></trkpt><trkpt lat="43.9315267" lon="12.69397"><ele>41.666666666666664</ele><time>2026-04-25T07:36:23.534Z</time></trkpt><trkpt lat="43.9314317" lon="12.6938017"><ele>42.0</ele><time>2026-04-25T07:36:24.531Z</time></trkpt><trkpt lat="43.9313383" lon="12.6936367"><ele>42.333333333333336</ele><time>2026-04-25T07:36:25.534Z</time></trkpt><trkpt lat="43.9312467" lon="12.6934683"><ele>42.66666666666667</ele><time>2026-04-25T07:36:26.534Z</time></trkpt><trkpt lat="43.93115" lon="12.6932967"><ele>43.0</ele><time>2026-04-25T07:36:27.533Z</time></trkpt><trkpt lat="43.93105" lon="12.69313"><ele>43.0</ele><time>2026-04-25T07:36:28.534Z</time></trkpt><trkpt lat="43.9308467" lon="12.692795"><ele>43.0</ele><time>2026-04-25T07:36:30.534Z</time></trkpt><trkpt lat="43.9307483" lon="12.6926183"><ele>42.66666666666667</ele><time>2026-04-25T07:36:31.533Z</time></trkpt><trkpt lat="43.9306483" lon="12.6924467"><ele>42.333333333333336</ele><time>2026-04-25T07:36:32.535Z</time></trkpt><trkpt lat="43.9305483" lon="12.6922717"><ele>42.0</ele><time>2026-04-25T07:36:33.534Z</time></trkpt><trkpt lat="43.9304433" lon="12.6920983"><ele>42.0</ele><time>2026-04-25T07:36:34.536Z</time></trkpt><trkpt lat="43.9303367" lon="12.6919267"><ele>42.0</ele><time>2026-04-25T07:36:35.534Z</time></trkpt><trkpt lat="43.93023" lon="12.6917483"><ele>42.0</ele><time>2026-04-25T07:36:36.535Z</time></trkpt><trkpt lat="43.9301233" lon="12.6915633"><ele>42.666666666666664</ele><time>2026-04-25T07:36:37.531Z</time></trkpt><trkpt lat="43.9300167" lon="12.6913833"><ele>43.33333333333333</ele><time>2026-04-25T07:36:38.534Z</time></trkpt><trkpt lat="43.9299117" lon="12.6912117"><ele>44.0</ele><time>2026-04-25T07:36:39.531Z</time></trkpt><trkpt lat="43.92982" lon="12.6910567"><ele>44.0</ele><time>2026-04-25T07:36:40.534Z</time></trkpt><trkpt lat="43.9297467" lon="12.6909083"><ele>44.0</ele><time>2026-04-25T07:36:41.53Z</time></trkpt><trkpt lat="43.9297017" lon="12.6907633"><ele>44.0</ele><time>2026-04-25T07:36:42.532Z</time></trkpt><trkpt lat="43.9296783" lon="12.69063"><ele>44.0</ele><time>2026-04-25T07:36:43.534Z</time></trkpt><trkpt lat="43.9296367" lon="12.690515"><ele>44.0</ele><time>2026-04-25T07:36:44.534Z</time></trkpt><trkpt lat="43.92956" lon="12.6904283"><ele>44.0</ele><time>2026-04-25T07:36:45.535Z</time></trkpt><trkpt lat="43.929455" lon="12.6903417"><ele>44.0</ele><time>2026-04-25T07:36:46.534Z</time></trkpt><trkpt lat="43.9293483" lon="12.690215"><ele>44.0</ele><time>2026-04-25T07:36:47.534Z</time></trkpt><trkpt lat="43.9292433" lon="12.6900433"><ele>44.0</ele><time>2026-04-25T07:36:48.534Z</time></trkpt><trkpt lat="43.9291283" lon="12.6898533"><ele>45.0</ele><time>2026-04-25T07:36:49.534Z</time></trkpt><trkpt lat="43.928855" lon="12.689475"><ele>46.0</ele><time>2026-04-25T07:36:51.533Z</time></trkpt><trkpt lat="43.9287117" lon="12.6893083"><ele>46.0</ele><time>2026-04-25T07:36:52.535Z</time></trkpt><trkpt lat="43.928575" lon="12.6891533"><ele>46.0</ele><time>2026-04-25T07:36:53.533Z</time></trkpt><trkpt lat="43.9284433" lon="12.6890067"><ele>46.0</ele><time>2026-04-25T07:36:54.534Z</time></trkpt><trkpt lat="43.9283167" lon="12.6888667"><ele>46.333333333333336</ele><time>2026-04-25T07:36:55.534Z</time></trkpt><trkpt lat="43.9281867" lon="12.6887267"><ele>46.666666666666664</ele><time>2026-04-25T07:36:56.533Z</time></trkpt><trkpt lat="43.9280633" lon="12.6885867"><ele>47.0</ele><time>2026-04-25T07:36:57.535Z</time></trkpt><trkpt lat="43.9279433" lon="12.6884567"><ele>47.25</ele><time>2026-04-25T07:36:58.533Z</time></trkpt><trkpt lat="43.9278317" lon="12.6883317"><ele>47.5</ele><time>2026-04-25T07:36:59.533Z</time></trkpt><trkpt lat="43.9277283" lon="12.6882083"><ele>47.75</ele><time>2026-04-25T07:37:00.534Z</time></trkpt><trkpt lat="43.9276383" lon="12.688085"><ele>48.0</ele><time>2026-04-25T07:37:01.532Z</time></trkpt><trkpt lat="43.9275633" lon="12.68795"><ele>47.75</ele><time>2026-04-25T07:37:02.531Z</time></trkpt><trkpt lat="43.9274917" lon="12.6878183"><ele>47.5</ele><time>2026-04-25T07:37:03.531Z</time></trkpt><trkpt lat="43.9274217" lon="12.6876817"><ele>47.25</ele><time>2026-04-25T07:37:04.535Z</time></trkpt><trkpt lat="43.927355" lon="12.6875383"><ele>47.0</ele><time>2026-04-25T07:37:05.531Z</time></trkpt><trkpt lat="43.9272933" lon="12.687395"><ele>47.5</ele><time>2026-04-25T07:37:06.534Z</time></trkpt><trkpt lat="43.92723" lon="12.6872567"><ele>48.0</ele><time>2026-04-25T07:37:07.537Z</time></trkpt><trkpt lat="43.9271633" lon="12.6871167"><ele>48.5</ele><time>2026-04-25T07:37:08.534Z</time></trkpt><trkpt lat="43.9271" lon="12.6869717"><ele>49.0</ele><time>2026-04-25T07:37:09.534Z</time></trkpt><trkpt lat="43.927035" lon="12.686825"><ele>49.0</ele><time>2026-04-25T07:37:10.534Z</time></trkpt><trkpt lat="43.9268867" lon="12.6865333"><ele>49.0</ele><time>2026-04-25T07:37:12.534Z</time></trkpt><trkpt lat="43.9267983" lon="12.6863883"><ele>49.0</ele><time>2026-04-25T07:37:13.532Z</time></trkpt><trkpt lat="43.9267017" lon="12.6862483"><ele>49.0</ele><time>2026-04-25T07:37:14.534Z</time></trkpt><trkpt lat="43.9265917" lon="12.6861067"><ele>49.0</ele><time>2026-04-25T07:37:15.534Z</time></trkpt><trkpt lat="43.9264717" lon="12.6859683"><ele>49.0</ele><time>2026-04-25T07:37:16.532Z</time></trkpt><trkpt lat="43.9263467" lon="12.685835"><ele>49.33333333333333</ele><time>2026-04-25T07:37:17.532Z</time></trkpt><trkpt lat="43.9262167" lon="12.685705"><ele>49.66666666666667</ele><time>2026-04-25T07:37:18.533Z</time></trkpt><trkpt lat="43.9260883" lon="12.6855767"><ele>50.0</ele><time>2026-04-25T07:37:19.532Z</time></trkpt><trkpt lat="43.9259583" lon="12.6854467"><ele>50.0</ele><time>2026-04-25T07:37:20.531Z</time></trkpt><trkpt lat="43.9258283" lon="12.68531"><ele>50.0</ele><time>2026-04-25T07:37:21.534Z</time></trkpt><trkpt lat="43.9256967" lon="12.6851717"><ele>50.0</ele><time>2026-04-25T07:37:22.533Z</time></trkpt><trkpt lat="43.925565" lon="12.6850333"><ele>50.0</ele><time>2026-04-25T07:37:23.532Z</time></trkpt><trkpt lat="43.9254367" lon="12.6849033"><ele>50.0</ele><time>2026-04-25T07:37:24.532Z</time></trkpt><trkpt lat="43.9253183" lon="12.6847767"><ele>50.0</ele><time>2026-04-25T07:37:25.535Z</time></trkpt><trkpt lat="43.9252067" lon="12.684655"><ele>50.0</ele><time>2026-04-25T07:37:26.531Z</time></trkpt><trkpt lat="43.9250967" lon="12.68453"><ele>50.0</ele><time>2026-04-25T07:37:27.533Z</time></trkpt><trkpt lat="43.9249933" lon="12.684395"><ele>50.0</ele><time>2026-04-25T07:37:28.531Z</time></trkpt><trkpt lat="43.9248967" lon="12.6842467"><ele>50.0</ele><time>2026-04-25T07:37:29.531Z</time></trkpt><trkpt lat="43.92481" lon="12.6840867"><ele>50.66666666666667</ele><time>2026-04-25T07:37:30.533Z</time></trkpt><trkpt lat="43.92473" lon="12.6839167"><ele>51.33333333333333</ele><time>2026-04-25T07:37:31.537Z</time></trkpt><trkpt lat="43.9245783" lon="12.6835667"><ele>52.0</ele><time>2026-04-25T07:37:33.535Z</time></trkpt><trkpt lat="43.9245033" lon="12.6833883"><ele>52.0</ele><time>2026-04-25T07:37:34.534Z</time></trkpt><trkpt lat="43.9244267" lon="12.683205"><ele>52.0</ele><time>2026-04-25T07:37:35.534Z</time></trkpt><trkpt lat="43.9243483" lon="12.68302"><ele>52.0</ele><time>2026-04-25T07:37:36.535Z</time></trkpt><trkpt lat="43.9242733" lon="12.6828333"><ele>52.0</ele><time>2026-04-25T07:37:37.535Z</time></trkpt><trkpt lat="43.924195" lon="12.6826433"><ele>52.0</ele><time>2026-04-25T07:37:38.534Z</time></trkpt><trkpt lat="43.92412" lon="12.6824483"><ele>52.0</ele><time>2026-04-25T07:37:39.535Z</time></trkpt><trkpt lat="43.92404" lon="12.6822567"><ele>52.0</ele><time>2026-04-25T07:37:40.533Z</time></trkpt><trkpt lat="43.9239567" lon="12.6820667"><ele>52.0</ele><time>2026-04-25T07:37:41.535Z</time></trkpt><trkpt lat="43.9238767" lon="12.681875"><ele>52.0</ele><time>2026-04-25T07:37:42.534Z</time></trkpt><trkpt lat="43.9237983" lon="12.6816883"><ele>51.666666666666664</ele><time>2026-04-25T07:37:43.535Z</time></trkpt><trkpt lat="43.9237217" lon="12.681495"><ele>51.33333333333333</ele><time>2026-04-25T07:37:44.537Z</time></trkpt><trkpt lat="43.9236433" lon="12.681295"><ele>51.0</ele><time>2026-04-25T07:37:45.534Z</time></trkpt><trkpt lat="43.9235683" lon="12.68109"><ele>51.66666666666667</ele><time>2026-04-25T07:37:46.534Z</time></trkpt><trkpt lat="43.923495" lon="12.6808817"><ele>52.333333333333336</ele><time>2026-04-25T07:37:47.531Z</time></trkpt><trkpt lat="43.923425" lon="12.6806733"><ele>53.0</ele><time>2026-04-25T07:37:48.534Z</time></trkpt><trkpt lat="43.9233617" lon="12.6804667"><ele>54.0</ele><time>2026-04-25T07:37:49.535Z</time></trkpt><trkpt lat="43.9233083" lon="12.6802633"><ele>55.0</ele><time>2026-04-25T07:37:50.534Z</time></trkpt><trkpt lat="43.9232567" lon="12.6800617"><ele>56.0</ele><time>2026-04-25T07:37:51.535Z</time></trkpt><trkpt lat="43.9232067" lon="12.6798567"><ele>56.0</ele><time>2026-04-25T07:37:52.533Z</time></trkpt><trkpt lat="43.9231083" lon="12.6794333"><ele>56.0</ele><time>2026-04-25T07:37:54.533Z</time></trkpt><trkpt lat="43.923055" lon="12.679215"><ele>56.0</ele><time>2026-04-25T07:37:55.531Z</time></trkpt><trkpt lat="43.9230017" lon="12.6789933"><ele>56.0</ele><time>2026-04-25T07:37:56.532Z</time></trkpt><trkpt lat="43.9229467" lon="12.6787733"><ele>56.0</ele><time>2026-04-25T07:37:57.532Z</time></trkpt><trkpt lat="43.9228917" lon="12.6785533"><ele>56.333333333333336</ele><time>2026-04-25T07:37:58.532Z</time></trkpt><trkpt lat="43.922835" lon="12.678335"><ele>56.66666666666667</ele><time>2026-04-25T07:37:59.531Z</time></trkpt><trkpt lat="43.92278" lon="12.67812"><ele>57.0</ele><time>2026-04-25T07:38:00.532Z</time></trkpt><trkpt lat="43.922725" lon="12.6779067"><ele>56.66666666666667</ele><time>2026-04-25T07:38:01.531Z</time></trkpt><trkpt lat="43.922675" lon="12.6776933"><ele>56.333333333333336</ele><time>2026-04-25T07:38:02.531Z</time></trkpt><trkpt lat="43.922625" lon="12.6774817"><ele>56.0</ele><time>2026-04-25T07:38:03.532Z</time></trkpt><trkpt lat="43.9225767" lon="12.67728"><ele>56.0</ele><time>2026-04-25T07:38:04.533Z</time></trkpt><trkpt lat="43.9225267" lon="12.6770983"><ele>56.0</ele><time>2026-04-25T07:38:05.531Z</time></trkpt><trkpt lat="43.92248" lon="12.6769267"><ele>56.0</ele><time>2026-04-25T07:38:06.531Z</time></trkpt><trkpt lat="43.9224333" lon="12.67676"><ele>56.0</ele><time>2026-04-25T07:38:07.533Z</time></trkpt><trkpt lat="43.9223883" lon="12.67658"><ele>56.0</ele><time>2026-04-25T07:38:08.531Z</time></trkpt><trkpt lat="43.9223483" lon="12.676385"><ele>56.0</ele><time>2026-04-25T07:38:09.531Z</time></trkpt><trkpt lat="43.92231" lon="12.6761967"><ele>56.0</ele><time>2026-04-25T07:38:10.532Z</time></trkpt><trkpt lat="43.9222717" lon="12.6760083"><ele>56.0</ele><time>2026-04-25T07:38:11.531Z</time></trkpt><trkpt lat="43.922235" lon="12.67582"><ele>55.66666666666667</ele><time>2026-04-25T07:38:12.531Z</time></trkpt><trkpt lat="43.922205" lon="12.675625"><ele>55.33333333333333</ele><time>2026-04-25T07:38:13.533Z</time></trkpt><trkpt lat="43.922145" lon="12.675225"><ele>55.0</ele><time>2026-04-25T07:38:15.532Z</time></trkpt><trkpt lat="43.9221183" lon="12.6750167"><ele>55.0</ele><time>2026-04-25T07:38:16.536Z</time></trkpt><trkpt lat="43.9220933" lon="12.674805"><ele>55.0</ele><time>2026-04-25T07:38:17.534Z</time></trkpt><trkpt lat="43.9220633" lon="12.6745867"><ele>55.0</ele><time>2026-04-25T07:38:18.533Z</time></trkpt><trkpt lat="43.9220333" lon="12.6743633"><ele>55.33333333333333</ele><time>2026-04-25T07:38:19.535Z</time></trkpt><trkpt lat="43.9220033" lon="12.674135"><ele>55.66666666666667</ele><time>2026-04-25T07:38:20.533Z</time></trkpt><trkpt lat="43.9219733" lon="12.6739067"><ele>56.0</ele><time>2026-04-25T07:38:21.534Z</time></trkpt><trkpt lat="43.921945" lon="12.6736767"><ele>56.0</ele><time>2026-04-25T07:38:22.535Z</time></trkpt><trkpt lat="43.921915" lon="12.67345"><ele>56.0</ele><time>2026-04-25T07:38:23.534Z</time></trkpt><trkpt lat="43.9218883" lon="12.67323"><ele>56.0</ele><time>2026-04-25T07:38:24.532Z</time></trkpt><trkpt lat="43.92186" lon="12.6730233"><ele>56.0</ele><time>2026-04-25T07:38:25.534Z</time></trkpt><trkpt lat="43.9218333" lon="12.672825"><ele>56.0</ele><time>2026-04-25T07:38:26.533Z</time></trkpt><trkpt lat="43.92181" lon="12.6726333"><ele>56.0</ele><time>2026-04-25T07:38:27.534Z</time></trkpt><trkpt lat="43.9217867" lon="12.6724583"><ele>56.0</ele><time>2026-04-25T07:38:28.534Z</time></trkpt><trkpt lat="43.9217683" lon="12.6722983"><ele>56.199999999999996</ele><time>2026-04-25T07:38:29.534Z</time></trkpt><trkpt lat="43.9217583" lon="12.6721533"><ele>56.39999999999999</ele><time>2026-04-25T07:38:30.531Z</time></trkpt><trkpt lat="43.921765" lon="12.67201"><ele>56.6</ele><time>2026-04-25T07:38:31.536Z</time></trkpt><trkpt lat="43.921765" lon="12.671875"><ele>56.8</ele><time>2026-04-25T07:38:32.533Z</time></trkpt><trkpt lat="43.9217467" lon="12.6717433"><ele>57.0</ele><time>2026-04-25T07:38:33.534Z</time></trkpt><trkpt lat="43.921705" lon="12.6716017"><ele>58.0</ele><time>2026-04-25T07:38:34.534Z</time></trkpt><trkpt lat="43.9216367" lon="12.6713133"><ele>59.0</ele><time>2026-04-25T07:38:36.531Z</time></trkpt><trkpt lat="43.9216133" lon="12.6711567"><ele>60.0</ele><time>2026-04-25T07:38:37.534Z</time></trkpt><trkpt lat="43.9215917" lon="12.67099"><ele>60.0</ele><time>2026-04-25T07:38:38.535Z</time></trkpt><trkpt lat="43.92157" lon="12.6708183"><ele>60.0</ele><time>2026-04-25T07:38:39.535Z</time></trkpt><trkpt lat="43.921545" lon="12.6706433"><ele>60.0</ele><time>2026-04-25T07:38:40.535Z</time></trkpt><trkpt lat="43.9215183" lon="12.670465"><ele>60.0</ele><time>2026-04-25T07:38:41.533Z</time></trkpt><trkpt lat="43.9214917" lon="12.670285"><ele>60.25</ele><time>2026-04-25T07:38:42.534Z</time></trkpt><trkpt lat="43.9214683" lon="12.670105"><ele>60.5</ele><time>2026-04-25T07:38:43.535Z</time></trkpt><trkpt lat="43.92144" lon="12.6699233"><ele>60.75</ele><time>2026-04-25T07:38:44.533Z</time></trkpt><trkpt lat="43.9214133" lon="12.6697383"><ele>61.0</ele><time>2026-04-25T07:38:45.534Z</time></trkpt><trkpt lat="43.92139" lon="12.6695483"><ele>60.0</ele><time>2026-04-25T07:38:46.534Z</time></trkpt><trkpt lat="43.921365" lon="12.6693567"><ele>59.0</ele><time>2026-04-25T07:38:47.535Z</time></trkpt><trkpt lat="43.9213383" lon="12.669165"><ele>58.0</ele><time>2026-04-25T07:38:48.534Z</time></trkpt><trkpt lat="43.9213083" lon="12.6689783"><ele>57.0</ele><time>2026-04-25T07:38:49.535Z</time></trkpt><trkpt lat="43.9212817" lon="12.6687967"><ele>57.0</ele><time>2026-04-25T07:38:50.534Z</time></trkpt><trkpt lat="43.92126" lon="12.6686117"><ele>57.0</ele><time>2026-04-25T07:38:51.536Z</time></trkpt><trkpt lat="43.9212383" lon="12.6684217"><ele>57.0</ele><time>2026-04-25T07:38:52.534Z</time></trkpt><trkpt lat="43.9212133" lon="12.668225"><ele>57.0</ele><time>2026-04-25T07:38:53.531Z</time></trkpt><trkpt lat="43.921185" lon="12.6680183"><ele>57.0</ele><time>2026-04-25T07:38:54.535Z</time></trkpt><trkpt lat="43.921155" lon="12.6678083"><ele>57.0</ele><time>2026-04-25T07:38:55.536Z</time></trkpt><trkpt lat="43.9210967" lon="12.6673817"><ele>57.0</ele><time>2026-04-25T07:38:57.534Z</time></trkpt><trkpt lat="43.9210667" lon="12.6671667"><ele>57.0</ele><time>2026-04-25T07:38:58.535Z</time></trkpt><trkpt lat="43.9210317" lon="12.6669617"><ele>57.0</ele><time>2026-04-25T07:38:59.535Z</time></trkpt><trkpt lat="43.920985" lon="12.6667617"><ele>57.0</ele><time>2026-04-25T07:39:00.535Z</time></trkpt><trkpt lat="43.9209217" lon="12.6665683"><ele>57.0</ele><time>2026-04-25T07:39:01.532Z</time></trkpt><trkpt lat="43.9208483" lon="12.666385"><ele>57.0</ele><time>2026-04-25T07:39:02.532Z</time></trkpt><trkpt lat="43.9207717" lon="12.6662067"><ele>59.0</ele><time>2026-04-25T07:39:03.531Z</time></trkpt><trkpt lat="43.9206933" lon="12.6660283"><ele>61.0</ele><time>2026-04-25T07:39:04.536Z</time></trkpt><trkpt lat="43.9206167" lon="12.6658517"><ele>63.0</ele><time>2026-04-25T07:39:05.534Z</time></trkpt><trkpt lat="43.9205383" lon="12.66567"><ele>63.0</ele><time>2026-04-25T07:39:06.536Z</time></trkpt><trkpt lat="43.9204617" lon="12.6654833"><ele>63.0</ele><time>2026-04-25T07:39:07.536Z</time></trkpt><trkpt lat="43.9203833" lon="12.6652983"><ele>63.0</ele><time>2026-04-25T07:39:08.535Z</time></trkpt><trkpt lat="43.9203033" lon="12.66511"><ele>63.33333333333333</ele><time>2026-04-25T07:39:09.534Z</time></trkpt><trkpt lat="43.9202283" lon="12.66492"><ele>63.666666666666664</ele><time>2026-04-25T07:39:10.535Z</time></trkpt><trkpt lat="43.9201533" lon="12.6647283"><ele>64.0</ele><time>2026-04-25T07:39:11.534Z</time></trkpt><trkpt lat="43.9200817" lon="12.6645333"><ele>64.66666666666666</ele><time>2026-04-25T07:39:12.534Z</time></trkpt><trkpt lat="43.9200233" lon="12.6643333"><ele>65.33333333333333</ele><time>2026-04-25T07:39:13.536Z</time></trkpt><trkpt lat="43.9199717" lon="12.66413"><ele>66.0</ele><time>2026-04-25T07:39:14.532Z</time></trkpt><trkpt lat="43.919925" lon="12.6639217"><ele>66.0</ele><time>2026-04-25T07:39:15.535Z</time></trkpt><trkpt lat="43.9198733" lon="12.663715"><ele>66.0</ele><time>2026-04-25T07:39:16.532Z</time></trkpt><trkpt lat="43.91978" lon="12.6633283"><ele>66.0</ele><time>2026-04-25T07:39:18.534Z</time></trkpt><trkpt lat="43.9197367" lon="12.6631467"><ele>66.0</ele><time>2026-04-25T07:39:19.535Z</time></trkpt><trkpt lat="43.919695" lon="12.6629733"><ele>66.0</ele><time>2026-04-25T07:39:20.533Z</time></trkpt><trkpt lat="43.919655" lon="12.6628083"><ele>66.0</ele><time>2026-04-25T07:39:21.533Z</time></trkpt><trkpt lat="43.91961" lon="12.6626367"><ele>66.0</ele><time>2026-04-25T07:39:22.533Z</time></trkpt><trkpt lat="43.919555" lon="12.662455"><ele>66.0</ele><time>2026-04-25T07:39:23.534Z</time></trkpt><trkpt lat="43.9194817" lon="12.6622733"><ele>66.0</ele><time>2026-04-25T07:39:24.535Z</time></trkpt><trkpt lat="43.9193933" lon="12.6620917"><ele>66.0</ele><time>2026-04-25T07:39:25.535Z</time></trkpt><trkpt lat="43.9192967" lon="12.66191"><ele>66.0</ele><time>2026-04-25T07:39:26.533Z</time></trkpt><trkpt lat="43.9191933" lon="12.6617333"><ele>66.0</ele><time>2026-04-25T07:39:27.535Z</time></trkpt><trkpt lat="43.9190933" lon="12.661555"><ele>66.66666666666667</ele><time>2026-04-25T07:39:28.535Z</time></trkpt><trkpt lat="43.91899" lon="12.6613767"><ele>67.33333333333334</ele><time>2026-04-25T07:39:29.534Z</time></trkpt><trkpt lat="43.9188883" lon="12.661195"><ele>68.0</ele><time>2026-04-25T07:39:30.533Z</time></trkpt><trkpt lat="43.9187883" lon="12.6610117"><ele>68.66666666666667</ele><time>2026-04-25T07:39:31.534Z</time></trkpt><trkpt lat="43.9186867" lon="12.6608283"><ele>69.33333333333333</ele><time>2026-04-25T07:39:32.533Z</time></trkpt><trkpt lat="43.9185833" lon="12.6606433"><ele>70.0</ele><time>2026-04-25T07:39:33.534Z</time></trkpt><trkpt lat="43.9184817" lon="12.6604583"><ele>70.0</ele><time>2026-04-25T07:39:34.535Z</time></trkpt><trkpt lat="43.9183783" lon="12.66027"><ele>70.0</ele><time>2026-04-25T07:39:35.534Z</time></trkpt><trkpt lat="43.9182733" lon="12.66008"><ele>70.0</ele><time>2026-04-25T07:39:36.534Z</time></trkpt><trkpt lat="43.9181717" lon="12.6598967"><ele>70.0</ele><time>2026-04-25T07:39:37.536Z</time></trkpt><trkpt lat="43.9179917" lon="12.6595683"><ele>70.0</ele><time>2026-04-25T07:39:39.534Z</time></trkpt><trkpt lat="43.91791" lon="12.659425"><ele>70.0</ele><time>2026-04-25T07:39:40.534Z</time></trkpt><trkpt lat="43.9178317" lon="12.6592967"><ele>70.0</ele><time>2026-04-25T07:39:41.533Z</time></trkpt><trkpt lat="43.917755" lon="12.65918"><ele>70.0</ele><time>2026-04-25T07:39:42.534Z</time></trkpt><trkpt lat="43.9176817" lon="12.6590567"><ele>70.0</ele><time>2026-04-25T07:39:43.534Z</time></trkpt><trkpt lat="43.9176083" lon="12.65892"><ele>70.0</ele><time>2026-04-25T07:39:44.533Z</time></trkpt><trkpt lat="43.91753" lon="12.6587717"><ele>70.5</ele><time>2026-04-25T07:39:45.535Z</time></trkpt><trkpt lat="43.91745" lon="12.65861"><ele>71.0</ele><time>2026-04-25T07:39:46.537Z</time></trkpt><trkpt lat="43.9173683" lon="12.658445"><ele>71.5</ele><time>2026-04-25T07:39:47.534Z</time></trkpt><trkpt lat="43.9172783" lon="12.6582783"><ele>72.0</ele><time>2026-04-25T07:39:48.534Z</time></trkpt><trkpt lat="43.9171833" lon="12.6581067"><ele>72.0</ele><time>2026-04-25T07:39:49.535Z</time></trkpt><trkpt lat="43.9170883" lon="12.6579383"><ele>72.0</ele><time>2026-04-25T07:39:50.534Z</time></trkpt><trkpt lat="43.917" lon="12.6577817"><ele>72.0</ele><time>2026-04-25T07:39:51.534Z</time></trkpt><trkpt lat="43.9169183" lon="12.6576367"><ele>72.0</ele><time>2026-04-25T07:39:52.534Z</time></trkpt><trkpt lat="43.91684" lon="12.6574983"><ele>72.4</ele><time>2026-04-25T07:39:53.533Z</time></trkpt><trkpt lat="43.9167633" lon="12.6573717"><ele>72.80000000000001</ele><time>2026-04-25T07:39:54.534Z</time></trkpt><trkpt lat="43.916695" lon="12.657255"><ele>73.2</ele><time>2026-04-25T07:39:55.534Z</time></trkpt><trkpt lat="43.9166333" lon="12.6571483"><ele>73.60000000000001</ele><time>2026-04-25T07:39:56.534Z</time></trkpt><trkpt lat="43.9165817" lon="12.657045"><ele>74.0</ele><time>2026-04-25T07:39:57.534Z</time></trkpt><trkpt lat="43.91653" lon="12.6569383"><ele>74.0</ele><time>2026-04-25T07:39:58.534Z</time></trkpt><trkpt lat="43.9164067" lon="12.6567183"><ele>74.0</ele><time>2026-04-25T07:40:00.537Z</time></trkpt><trkpt lat="43.9163467" lon="12.6566183"><ele>74.0</ele><time>2026-04-25T07:40:01.536Z</time></trkpt><trkpt lat="43.916285" lon="12.656515"><ele>74.0</ele><time>2026-04-25T07:40:02.534Z</time></trkpt><trkpt lat="43.916225" lon="12.6564033"><ele>74.0</ele><time>2026-04-25T07:40:03.531Z</time></trkpt><trkpt lat="43.916165" lon="12.65629"><ele>74.0</ele><time>2026-04-25T07:40:04.535Z</time></trkpt><trkpt lat="43.9161067" lon="12.656175"><ele>74.0</ele><time>2026-04-25T07:40:05.535Z</time></trkpt><trkpt lat="43.916055" lon="12.656065"><ele>74.0</ele><time>2026-04-25T07:40:06.534Z</time></trkpt><trkpt lat="43.916015" lon="12.655965"><ele>74.0</ele><time>2026-04-25T07:40:07.532Z</time></trkpt><trkpt lat="43.91598" lon="12.65587"><ele>74.16666666666667</ele><time>2026-04-25T07:40:08.535Z</time></trkpt><trkpt lat="43.9159517" lon="12.6557883"><ele>74.33333333333334</ele><time>2026-04-25T07:40:09.536Z</time></trkpt><trkpt lat="43.915915" lon="12.6556417"><ele>74.5</ele><time>2026-04-25T07:40:11.531Z</time></trkpt><trkpt lat="43.9158983" lon="12.6555567"><ele>74.66666666666667</ele><time>2026-04-25T07:40:12.534Z</time></trkpt><trkpt lat="43.9158783" lon="12.6554567"><ele>74.83333333333333</ele><time>2026-04-25T07:40:13.533Z</time></trkpt><trkpt lat="43.915855" lon="12.655345"><ele>75.0</ele><time>2026-04-25T07:40:14.532Z</time></trkpt><trkpt lat="43.91583" lon="12.65522"><ele>75.2</ele><time>2026-04-25T07:40:15.534Z</time></trkpt><trkpt lat="43.9158033" lon="12.6550883"><ele>75.4</ele><time>2026-04-25T07:40:16.534Z</time></trkpt><trkpt lat="43.9157767" lon="12.654955"><ele>75.6</ele><time>2026-04-25T07:40:17.531Z</time></trkpt><trkpt lat="43.91575" lon="12.6548217"><ele>75.8</ele><time>2026-04-25T07:40:18.535Z</time></trkpt><trkpt lat="43.915725" lon="12.65469"><ele>76.0</ele><time>2026-04-25T07:40:19.533Z</time></trkpt><trkpt lat="43.9156733" lon="12.65443"><ele>76.2</ele><time>2026-04-25T07:40:21.534Z</time></trkpt><trkpt lat="43.9156483" lon="12.654305"><ele>76.39999999999999</ele><time>2026-04-25T07:40:22.532Z</time></trkpt><trkpt lat="43.915625" lon="12.654185"><ele>76.6</ele><time>2026-04-25T07:40:23.531Z</time></trkpt><trkpt lat="43.9156017" lon="12.6540683"><ele>76.8</ele><time>2026-04-25T07:40:24.532Z</time></trkpt><trkpt lat="43.91558" lon="12.6539467"><ele>77.0</ele><time>2026-04-25T07:40:25.532Z</time></trkpt><trkpt lat="43.9155583" lon="12.653825"><ele>77.0</ele><time>2026-04-25T07:40:26.531Z</time></trkpt><trkpt lat="43.9155383" lon="12.6537183"><ele>77.0</ele><time>2026-04-25T07:40:27.532Z</time></trkpt><trkpt lat="43.91552" lon="12.6536233"><ele>77.0</ele><time>2026-04-25T07:40:28.533Z</time></trkpt><trkpt lat="43.9154933" lon="12.6534917"><ele>77.0</ele><time>2026-04-25T07:40:30.532Z</time></trkpt><trkpt lat="43.9154733" lon="12.6534"><ele>77.0</ele><time>2026-04-25T07:40:32.532Z</time></trkpt><trkpt lat="43.9154517" lon="12.6533133"><ele>77.0</ele><time>2026-04-25T07:40:34.532Z</time></trkpt><trkpt lat="43.91542" lon="12.6531633"><ele>77.0</ele><time>2026-04-25T07:40:36.532Z</time></trkpt><trkpt lat="43.915395" lon="12.6530783"><ele>77.0</ele><time>2026-04-25T07:40:37.534Z</time></trkpt><trkpt lat="43.9153767" lon="12.6529933"><ele>77.0</ele><time>2026-04-25T07:40:38.531Z</time></trkpt><trkpt lat="43.9153567" lon="12.65291"><ele>77.0</ele><time>2026-04-25T07:40:39.532Z</time></trkpt><trkpt lat="43.91534" lon="12.65282"><ele>77.0</ele><time>2026-04-25T07:40:40.532Z</time></trkpt><trkpt lat="43.9153067" lon="12.652635"><ele>77.0</ele><time>2026-04-25T07:40:42.534Z</time></trkpt><trkpt lat="43.91529" lon="12.652545"><ele>77.2</ele><time>2026-04-25T07:40:43.536Z</time></trkpt><trkpt lat="43.9152583" lon="12.6523967"><ele>77.4</ele><time>2026-04-25T07:40:45.535Z</time></trkpt><trkpt lat="43.9152367" lon="12.6522533"><ele>77.6</ele><time>2026-04-25T07:40:47.534Z</time></trkpt><trkpt lat="43.9152" lon="12.6521233"><ele>77.8</ele><time>2026-04-25T07:40:49.536Z</time></trkpt><trkpt lat="43.9151467" lon="12.6519733"><ele>78.0</ele><time>2026-04-25T07:40:51.533Z</time></trkpt><trkpt lat="43.9151133" lon="12.6518917"><ele>77.8</ele><time>2026-04-25T07:40:52.532Z</time></trkpt><trkpt lat="43.91507" lon="12.651815"><ele>77.6</ele><time>2026-04-25T07:40:53.533Z</time></trkpt><trkpt lat="43.9150083" lon="12.651755"><ele>77.4</ele><time>2026-04-25T07:40:54.533Z</time></trkpt><trkpt lat="43.9149333" lon="12.6517"><ele>77.2</ele><time>2026-04-25T07:40:55.532Z</time></trkpt><trkpt lat="43.9148317" lon="12.6516417"><ele>77.0</ele><time>2026-04-25T07:40:56.534Z</time></trkpt><trkpt lat="43.91472" lon="12.6515667"><ele>77.0</ele><time>2026-04-25T07:40:57.532Z</time></trkpt><trkpt lat="43.9145967" lon="12.65144"><ele>77.0</ele><time>2026-04-25T07:40:58.534Z</time></trkpt><trkpt lat="43.9144683" lon="12.6513017"><ele>77.0</ele><time>2026-04-25T07:40:59.535Z</time></trkpt><trkpt lat="43.914345" lon="12.6511733"><ele>78.5</ele><time>2026-04-25T07:41:00.535Z</time></trkpt><trkpt lat="43.9142233" lon="12.6510433"><ele>80.0</ele><time>2026-04-25T07:41:01.534Z</time></trkpt><trkpt lat="43.9139783" lon="12.6507917"><ele>80.0</ele><time>2026-04-25T07:41:03.533Z</time></trkpt><trkpt lat="43.9138533" lon="12.6506667"><ele>80.0</ele><time>2026-04-25T07:41:04.534Z</time></trkpt><trkpt lat="43.9137267" lon="12.6505417"><ele>80.0</ele><time>2026-04-25T07:41:05.532Z</time></trkpt><trkpt lat="43.9136033" lon="12.65042"><ele>80.0</ele><time>2026-04-25T07:41:06.531Z</time></trkpt><trkpt lat="43.9134883" lon="12.650305"><ele>80.0</ele><time>2026-04-25T07:41:07.532Z</time></trkpt><trkpt lat="43.91338" lon="12.6501917"><ele>80.0</ele><time>2026-04-25T07:41:08.53Z</time></trkpt><trkpt lat="43.9132817" lon="12.650095"><ele>80.0</ele><time>2026-04-25T07:41:09.53Z</time></trkpt><trkpt lat="43.913195" lon="12.6500067"><ele>80.4</ele><time>2026-04-25T07:41:10.531Z</time></trkpt><trkpt lat="43.9131217" lon="12.6499317"><ele>80.8</ele><time>2026-04-25T07:41:11.531Z</time></trkpt><trkpt lat="43.9130583" lon="12.649875"><ele>81.19999999999999</ele><time>2026-04-25T07:41:12.532Z</time></trkpt><trkpt lat="43.91293" lon="12.649855"><ele>81.6</ele><time>2026-04-25T07:41:14.53Z</time></trkpt><trkpt lat="43.91286" lon="12.64991"><ele>82.0</ele><time>2026-04-25T07:41:15.534Z</time></trkpt><trkpt lat="43.9127933" lon="12.6500167"><ele>82.0</ele><time>2026-04-25T07:41:16.531Z</time></trkpt><trkpt lat="43.91274" lon="12.6501567"><ele>82.0</ele><time>2026-04-25T07:41:17.53Z</time></trkpt><trkpt lat="43.912685" lon="12.65027"><ele>82.0</ele><time>2026-04-25T07:41:18.532Z</time></trkpt><trkpt lat="43.9126267" lon="12.6503717"><ele>82.0</ele><time>2026-04-25T07:41:19.532Z</time></trkpt><trkpt lat="43.9125683" lon="12.6504833"><ele>82.0</ele><time>2026-04-25T07:41:20.53Z</time></trkpt><trkpt lat="43.9124933" lon="12.6506067"><ele>82.66666666666666</ele><time>2026-04-25T07:41:21.532Z</time></trkpt><trkpt lat="43.91241" lon="12.65074"><ele>83.33333333333333</ele><time>2026-04-25T07:41:22.531Z</time></trkpt><trkpt lat="43.9122017" lon="12.6509933"><ele>84.0</ele><time>2026-04-25T07:41:24.534Z</time></trkpt><trkpt lat="43.9120833" lon="12.6511217"><ele>84.0</ele><time>2026-04-25T07:41:25.531Z</time></trkpt><trkpt lat="43.9119583" lon="12.6512533"><ele>84.0</ele><time>2026-04-25T07:41:26.532Z</time></trkpt><trkpt lat="43.911825" lon="12.651395"><ele>84.0</ele><time>2026-04-25T07:41:27.531Z</time></trkpt><trkpt lat="43.9116883" lon="12.6515367"><ele>85.66666666666667</ele><time>2026-04-25T07:41:28.534Z</time></trkpt><trkpt lat="43.9115517" lon="12.6516767"><ele>87.33333333333334</ele><time>2026-04-25T07:41:29.53Z</time></trkpt><trkpt lat="43.9114133" lon="12.6518217"><ele>89.0</ele><time>2026-04-25T07:41:30.534Z</time></trkpt><trkpt lat="43.91129" lon="12.6519817"><ele>89.33333333333334</ele><time>2026-04-25T07:41:31.532Z</time></trkpt><trkpt lat="43.911185" lon="12.65217"><ele>89.66666666666667</ele><time>2026-04-25T07:41:32.532Z</time></trkpt><trkpt lat="43.911105" lon="12.6523833"><ele>90.0</ele><time>2026-04-25T07:41:33.532Z</time></trkpt><trkpt lat="43.911045" lon="12.6526067"><ele>90.33333333333333</ele><time>2026-04-25T07:41:34.531Z</time></trkpt><trkpt lat="43.9109883" lon="12.652825"><ele>90.66666666666666</ele><time>2026-04-25T07:41:35.538Z</time></trkpt><trkpt lat="43.9109267" lon="12.65303"><ele>91.0</ele><time>2026-04-25T07:41:36.531Z</time></trkpt><trkpt lat="43.91086" lon="12.6532283"><ele>93.5</ele><time>2026-04-25T07:41:37.532Z</time></trkpt><trkpt lat="43.91079" lon="12.6534083"><ele>96.0</ele><time>2026-04-25T07:41:38.531Z</time></trkpt><trkpt lat="43.910715" lon="12.6535633"><ele>98.5</ele><time>2026-04-25T07:41:39.532Z</time></trkpt><trkpt lat="43.9106433" lon="12.6536967"><ele>101.0</ele><time>2026-04-25T07:41:40.531Z</time></trkpt><trkpt lat="43.9105717" lon="12.6538333"><ele>101.0</ele><time>2026-04-25T07:41:41.534Z</time></trkpt><trkpt lat="43.9105033" lon="12.6539867"><ele>101.0</ele><time>2026-04-25T07:41:42.531Z</time></trkpt><trkpt lat="43.9104483" lon="12.6541667"><ele>101.0</ele><time>2026-04-25T07:41:43.534Z</time></trkpt><trkpt lat="43.9103583" lon="12.654575"><ele>100.0</ele><time>2026-04-25T07:41:45.534Z</time></trkpt><trkpt lat="43.9103133" lon="12.6547983"><ele>99.0</ele><time>2026-04-25T07:41:46.531Z</time></trkpt><trkpt lat="43.9102667" lon="12.6550167"><ele>98.0</ele><time>2026-04-25T07:41:47.53Z</time></trkpt><trkpt lat="43.9102183" lon="12.6552317"><ele>96.0</ele><time>2026-04-25T07:41:48.531Z</time></trkpt><trkpt lat="43.9101767" lon="12.6554417"><ele>94.0</ele><time>2026-04-25T07:41:49.532Z</time></trkpt><trkpt lat="43.9101483" lon="12.6556517"><ele>92.0</ele><time>2026-04-25T07:41:50.53Z</time></trkpt><trkpt lat="43.9101583" lon="12.6558667"><ele>92.0</ele><time>2026-04-25T07:41:51.531Z</time></trkpt><trkpt lat="43.9102067" lon="12.6560833"><ele>92.0</ele><time>2026-04-25T07:41:52.533Z</time></trkpt><trkpt lat="43.9102783" lon="12.6563067"><ele>92.0</ele><time>2026-04-25T07:41:53.534Z</time></trkpt><trkpt lat="43.9103583" lon="12.656535"><ele>89.66666666666667</ele><time>2026-04-25T07:41:54.534Z</time></trkpt><trkpt lat="43.91043" lon="12.6567817"><ele>87.33333333333333</ele><time>2026-04-25T07:41:55.536Z</time></trkpt><trkpt lat="43.9104867" lon="12.657035"><ele>85.0</ele><time>2026-04-25T07:41:56.534Z</time></trkpt><trkpt lat="43.9105233" lon="12.6572933"><ele>83.66666666666666</ele><time>2026-04-25T07:41:57.535Z</time></trkpt><trkpt lat="43.9105383" lon="12.6575517"><ele>82.33333333333333</ele><time>2026-04-25T07:41:58.534Z</time></trkpt><trkpt lat="43.910545" lon="12.6578"><ele>81.0</ele><time>2026-04-25T07:41:59.531Z</time></trkpt><trkpt lat="43.9105433" lon="12.6580333"><ele>80.0</ele><time>2026-04-25T07:42:00.531Z</time></trkpt><trkpt lat="43.9105333" lon="12.6582417"><ele>79.0</ele><time>2026-04-25T07:42:01.531Z</time></trkpt><trkpt lat="43.9105183" lon="12.6584117"><ele>78.0</ele><time>2026-04-25T07:42:02.531Z</time></trkpt><trkpt lat="43.9104933" lon="12.658535"><ele>77.0</ele><time>2026-04-25T07:42:03.531Z</time></trkpt><trkpt lat="43.91047" lon="12.658625"><ele>76.0</ele><time>2026-04-25T07:42:04.534Z</time></trkpt><trkpt lat="43.910285" lon="12.6585717"><ele>76.0</ele><time>2026-04-25T07:42:08.535Z</time></trkpt><trkpt lat="43.9102017" lon="12.6584533"><ele>76.0</ele><time>2026-04-25T07:42:09.535Z</time></trkpt><trkpt lat="43.9101017" lon="12.6583183"><ele>76.0</ele><time>2026-04-25T07:42:10.531Z</time></trkpt><trkpt lat="43.9100133" lon="12.6581983"><ele>76.0</ele><time>2026-04-25T07:42:11.532Z</time></trkpt><trkpt lat="43.90993" lon="12.6580883"><ele>75.33333333333333</ele><time>2026-04-25T07:42:12.532Z</time></trkpt><trkpt lat="43.9098583" lon="12.6579967"><ele>74.66666666666666</ele><time>2026-04-25T07:42:13.533Z</time></trkpt><trkpt lat="43.9098017" lon="12.6579183"><ele>74.0</ele><time>2026-04-25T07:42:14.534Z</time></trkpt><trkpt lat="43.9097533" lon="12.6578583"><ele>73.33333333333333</ele><time>2026-04-25T07:42:15.534Z</time></trkpt><trkpt lat="43.9096917" lon="12.6578017"><ele>72.66666666666667</ele><time>2026-04-25T07:42:17.534Z</time></trkpt><trkpt lat="43.90976" lon="12.6579567"><ele>72.0</ele><time>2026-04-25T07:42:21.535Z</time></trkpt><trkpt lat="43.9098333" lon="12.6580417"><ele>72.0</ele><time>2026-04-25T07:42:22.534Z</time></trkpt><trkpt lat="43.9099117" lon="12.6581367"><ele>72.0</ele><time>2026-04-25T07:42:23.532Z</time></trkpt><trkpt lat="43.9099967" lon="12.6582333"><ele>72.0</ele><time>2026-04-25T07:42:24.533Z</time></trkpt><trkpt lat="43.910085" lon="12.658335"><ele>72.0</ele><time>2026-04-25T07:42:25.533Z</time></trkpt><trkpt lat="43.910255" lon="12.6585567"><ele>72.2</ele><time>2026-04-25T07:42:27.531Z</time></trkpt><trkpt lat="43.9103333" lon="12.658685"><ele>72.4</ele><time>2026-04-25T07:42:28.531Z</time></trkpt><trkpt lat="43.9103917" lon="12.6588233"><ele>72.6</ele><time>2026-04-25T07:42:29.534Z</time></trkpt><trkpt lat="43.91043" lon="12.658965"><ele>72.8</ele><time>2026-04-25T07:42:30.532Z</time></trkpt><trkpt lat="43.910455" lon="12.6591033"><ele>73.0</ele><time>2026-04-25T07:42:31.531Z</time></trkpt><trkpt lat="43.910465" lon="12.6592317"><ele>73.0</ele><time>2026-04-25T07:42:32.53Z</time></trkpt><trkpt lat="43.9104733" lon="12.6593467"><ele>73.0</ele><time>2026-04-25T07:42:33.531Z</time></trkpt><trkpt lat="43.9104767" lon="12.6594467"><ele>73.0</ele><time>2026-04-25T07:42:34.531Z</time></trkpt><trkpt lat="43.910465" lon="12.6595767"><ele>73.0</ele><time>2026-04-25T07:42:36.531Z</time></trkpt><trkpt lat="43.9103833" lon="12.65956"><ele>73.0</ele><time>2026-04-25T07:42:39.536Z</time></trkpt><trkpt lat="43.9103383" lon="12.6594617"><ele>73.0</ele><time>2026-04-25T07:42:41.533Z</time></trkpt><trkpt lat="43.9103067" lon="12.6593717"><ele>73.0</ele><time>2026-04-25T07:42:42.534Z</time></trkpt><trkpt lat="43.9102533" lon="12.6592467"><ele>73.0</ele><time>2026-04-25T07:42:43.534Z</time></trkpt><trkpt lat="43.91018" lon="12.6591017"><ele>73.0</ele><time>2026-04-25T07:42:44.534Z</time></trkpt><trkpt lat="43.910105" lon="12.6589583"><ele>73.0</ele><time>2026-04-25T07:42:45.535Z</time></trkpt><trkpt lat="43.9100233" lon="12.658815"><ele>72.66666666666666</ele><time>2026-04-25T07:42:46.535Z</time></trkpt><trkpt lat="43.9098717" lon="12.6585333"><ele>72.33333333333333</ele><time>2026-04-25T07:42:48.534Z</time></trkpt><trkpt lat="43.9097933" lon="12.6584033"><ele>72.0</ele><time>2026-04-25T07:42:49.534Z</time></trkpt><trkpt lat="43.9097233" lon="12.6582883"><ele>72.0</ele><time>2026-04-25T07:42:50.536Z</time></trkpt><trkpt lat="43.9096467" lon="12.6581817"><ele>72.0</ele><time>2026-04-25T07:42:51.534Z</time></trkpt><trkpt lat="43.909565" lon="12.658065"><ele>72.0</ele><time>2026-04-25T07:42:52.534Z</time></trkpt><trkpt lat="43.9094817" lon="12.65794"><ele>72.0</ele><time>2026-04-25T07:42:53.53Z</time></trkpt><trkpt lat="43.909395" lon="12.6578117"><ele>71.75</ele><time>2026-04-25T07:42:54.534Z</time></trkpt><trkpt lat="43.909305" lon="12.6576883"><ele>71.5</ele><time>2026-04-25T07:42:55.534Z</time></trkpt><trkpt lat="43.90921" lon="12.6575767"><ele>71.25</ele><time>2026-04-25T07:42:56.533Z</time></trkpt><trkpt lat="43.9091133" lon="12.65748"><ele>71.0</ele><time>2026-04-25T07:42:57.533Z</time></trkpt><trkpt lat="43.9090083" lon="12.6573933"><ele>71.0</ele><time>2026-04-25T07:42:58.535Z</time></trkpt><trkpt lat="43.9088983" lon="12.6573167"><ele>71.0</ele><time>2026-04-25T07:42:59.535Z</time></trkpt><trkpt lat="43.9088" lon="12.657245"><ele>71.0</ele><time>2026-04-25T07:43:00.534Z</time></trkpt><trkpt lat="43.9086967" lon="12.6571817"><ele>71.0</ele><time>2026-04-25T07:43:01.534Z</time></trkpt><trkpt lat="43.9085917" lon="12.6571217"><ele>71.0</ele><time>2026-04-25T07:43:02.535Z</time></trkpt><trkpt lat="43.908485" lon="12.657065"><ele>71.0</ele><time>2026-04-25T07:43:03.534Z</time></trkpt><trkpt lat="43.9083883" lon="12.657015"><ele>71.0</ele><time>2026-04-25T07:43:04.535Z</time></trkpt><trkpt lat="43.9083" lon="12.6569717"><ele>71.0</ele><time>2026-04-25T07:43:05.534Z</time></trkpt><trkpt lat="43.90822" lon="12.6569317"><ele>71.0</ele><time>2026-04-25T07:43:06.535Z</time></trkpt><trkpt lat="43.9081517" lon="12.6568917"><ele>71.39999999999999</ele><time>2026-04-25T07:43:07.534Z</time></trkpt><trkpt lat="43.90801" lon="12.6568"><ele>71.8</ele><time>2026-04-25T07:43:09.535Z</time></trkpt><trkpt lat="43.9079317" lon="12.65675"><ele>72.19999999999999</ele><time>2026-04-25T07:43:10.535Z</time></trkpt><trkpt lat="43.9078467" lon="12.6567017"><ele>72.6</ele><time>2026-04-25T07:43:11.534Z</time></trkpt><trkpt lat="43.9077567" lon="12.6566483"><ele>73.0</ele><time>2026-04-25T07:43:12.535Z</time></trkpt><trkpt lat="43.9076617" lon="12.656605"><ele>72.6</ele><time>2026-04-25T07:43:13.535Z</time></trkpt><trkpt lat="43.90756" lon="12.656575"><ele>72.19999999999999</ele><time>2026-04-25T07:43:14.535Z</time></trkpt><trkpt lat="43.9074517" lon="12.6565533"><ele>71.8</ele><time>2026-04-25T07:43:15.534Z</time></trkpt><trkpt lat="43.90734" lon="12.656555"><ele>71.39999999999999</ele><time>2026-04-25T07:43:16.535Z</time></trkpt><trkpt lat="43.90723" lon="12.6565667"><ele>71.0</ele><time>2026-04-25T07:43:17.534Z</time></trkpt><trkpt lat="43.9071217" lon="12.65658"><ele>71.0</ele><time>2026-04-25T07:43:18.534Z</time></trkpt><trkpt lat="43.9070067" lon="12.6565967"><ele>71.0</ele><time>2026-04-25T07:43:19.535Z</time></trkpt><trkpt lat="43.9068983" lon="12.656625"><ele>71.0</ele><time>2026-04-25T07:43:20.53Z</time></trkpt><trkpt lat="43.9067933" lon="12.6566583"><ele>71.0</ele><time>2026-04-25T07:43:21.535Z</time></trkpt><trkpt lat="43.9066983" lon="12.6566983"><ele>71.0</ele><time>2026-04-25T07:43:22.535Z</time></trkpt><trkpt lat="43.9066183" lon="12.656735"><ele>70.39999999999999</ele><time>2026-04-25T07:43:23.535Z</time></trkpt><trkpt lat="43.90655" lon="12.65676"><ele>69.8</ele><time>2026-04-25T07:43:24.535Z</time></trkpt><trkpt lat="43.9064833" lon="12.6567683"><ele>69.19999999999999</ele><time>2026-04-25T07:43:25.532Z</time></trkpt><trkpt lat="43.906365" lon="12.65672"><ele>68.6</ele><time>2026-04-25T07:43:27.533Z</time></trkpt><trkpt lat="43.9062733" lon="12.6566133"><ele>68.0</ele><time>2026-04-25T07:43:29.533Z</time></trkpt><trkpt lat="43.9061817" lon="12.6563917"><ele>68.0</ele><time>2026-04-25T07:43:32.533Z</time></trkpt><trkpt lat="43.9061533" lon="12.656305"><ele>68.0</ele><time>2026-04-25T07:43:33.534Z</time></trkpt><trkpt lat="43.9061283" lon="12.6562133"><ele>68.0</ele><time>2026-04-25T07:43:34.534Z</time></trkpt><trkpt lat="43.906105" lon="12.65613"><ele>68.0</ele><time>2026-04-25T07:43:35.533Z</time></trkpt><trkpt lat="43.906065" lon="12.6559783"><ele>68.0</ele><time>2026-04-25T07:43:37.535Z</time></trkpt><trkpt lat="43.9060117" lon="12.6558033"><ele>68.0</ele><time>2026-04-25T07:43:39.534Z</time></trkpt><trkpt lat="43.9059783" lon="12.6557"><ele>68.0</ele><time>2026-04-25T07:43:40.532Z</time></trkpt><trkpt lat="43.9059383" lon="12.655605"><ele>68.0</ele><time>2026-04-25T07:43:41.533Z</time></trkpt><trkpt lat="43.905885" lon="12.6555183"><ele>68.0</ele><time>2026-04-25T07:43:42.534Z</time></trkpt><trkpt lat="43.9058267" lon="12.6554483"><ele>68.0</ele><time>2026-04-25T07:43:43.534Z</time></trkpt><trkpt lat="43.9057617" lon="12.6553967"><ele>68.0</ele><time>2026-04-25T07:43:44.534Z</time></trkpt><trkpt lat="43.9056867" lon="12.6553517"><ele>68.0</ele><time>2026-04-25T07:43:45.534Z</time></trkpt><trkpt lat="43.9056033" lon="12.6553167"><ele>68.0</ele><time>2026-04-25T07:43:46.534Z</time></trkpt><trkpt lat="43.905515" lon="12.655285"><ele>68.0</ele><time>2026-04-25T07:43:47.534Z</time></trkpt><trkpt lat="43.9054217" lon="12.6552583"><ele>68.0</ele><time>2026-04-25T07:43:48.533Z</time></trkpt><trkpt lat="43.9053167" lon="12.655235"><ele>68.0</ele><time>2026-04-25T07:43:49.532Z</time></trkpt><trkpt lat="43.9052067" lon="12.6552117"><ele>68.66666666666667</ele><time>2026-04-25T07:43:50.535Z</time></trkpt><trkpt lat="43.9049833" lon="12.6551483"><ele>69.33333333333333</ele><time>2026-04-25T07:43:52.533Z</time></trkpt><trkpt lat="43.9048717" lon="12.65511"><ele>70.0</ele><time>2026-04-25T07:43:53.532Z</time></trkpt><trkpt lat="43.904765" lon="12.6550533"><ele>70.0</ele><time>2026-04-25T07:43:54.534Z</time></trkpt><trkpt lat="43.904665" lon="12.6549917"><ele>70.0</ele><time>2026-04-25T07:43:55.531Z</time></trkpt><trkpt lat="43.90456" lon="12.6549283"><ele>70.0</ele><time>2026-04-25T07:43:56.533Z</time></trkpt><trkpt lat="43.9044517" lon="12.6548717"><ele>70.0</ele><time>2026-04-25T07:43:57.535Z</time></trkpt><trkpt lat="43.9043517" lon="12.6548233"><ele>70.0</ele><time>2026-04-25T07:43:58.534Z</time></trkpt><trkpt lat="43.9042717" lon="12.65478"><ele>70.42857142857143</ele><time>2026-04-25T07:43:59.535Z</time></trkpt><trkpt lat="43.90421" lon="12.6547283"><ele>70.85714285714286</ele><time>2026-04-25T07:44:00.534Z</time></trkpt><trkpt lat="43.904155" lon="12.6546583"><ele>71.28571428571428</ele><time>2026-04-25T07:44:01.531Z</time></trkpt><trkpt lat="43.90412" lon="12.6545617"><ele>71.71428571428572</ele><time>2026-04-25T07:44:02.535Z</time></trkpt><trkpt lat="43.9040883" lon="12.6544633"><ele>72.14285714285714</ele><time>2026-04-25T07:44:03.534Z</time></trkpt><trkpt lat="43.9040583" lon="12.654375"><ele>72.57142857142857</ele><time>2026-04-25T07:44:04.531Z</time></trkpt><trkpt lat="43.90403" lon="12.654295"><ele>73.0</ele><time>2026-04-25T07:44:05.531Z</time></trkpt><trkpt lat="43.9039983" lon="12.654215"><ele>73.33333333333333</ele><time>2026-04-25T07:44:06.534Z</time></trkpt><trkpt lat="43.9039617" lon="12.6541317"><ele>73.66666666666666</ele><time>2026-04-25T07:44:07.532Z</time></trkpt><trkpt lat="43.90392" lon="12.6540417"><ele>74.0</ele><time>2026-04-25T07:44:08.531Z</time></trkpt><trkpt lat="43.9038683" lon="12.6539433"><ele>74.33333333333333</ele><time>2026-04-25T07:44:09.532Z</time></trkpt><trkpt lat="43.9038183" lon="12.6538367"><ele>74.66666666666667</ele><time>2026-04-25T07:44:10.531Z</time></trkpt><trkpt lat="43.90376" lon="12.6537267"><ele>75.0</ele><time>2026-04-25T07:44:11.531Z</time></trkpt><trkpt lat="43.9036033" lon="12.6535333"><ele>75.25</ele><time>2026-04-25T07:44:13.531Z</time></trkpt><trkpt lat="43.9035033" lon="12.65346"><ele>75.5</ele><time>2026-04-25T07:44:14.535Z</time></trkpt><trkpt lat="43.903395" lon="12.6533933"><ele>75.75</ele><time>2026-04-25T07:44:15.534Z</time></trkpt><trkpt lat="43.9032883" lon="12.6533267"><ele>76.0</ele><time>2026-04-25T07:44:16.534Z</time></trkpt><trkpt lat="43.9031817" lon="12.65326"><ele>78.0</ele><time>2026-04-25T07:44:17.534Z</time></trkpt><trkpt lat="43.9030783" lon="12.6532067"><ele>80.0</ele><time>2026-04-25T07:44:18.534Z</time></trkpt><trkpt lat="43.902965" lon="12.6531667"><ele>82.0</ele><time>2026-04-25T07:44:19.532Z</time></trkpt><trkpt lat="43.9028467" lon="12.6531417"><ele>84.0</ele><time>2026-04-25T07:44:20.534Z</time></trkpt><trkpt lat="43.9027233" lon="12.6531217"><ele>84.0</ele><time>2026-04-25T07:44:21.534Z</time></trkpt><trkpt lat="43.90259" lon="12.6531183"><ele>84.0</ele><time>2026-04-25T07:44:22.536Z</time></trkpt><trkpt lat="43.90245" lon="12.6531217"><ele>84.0</ele><time>2026-04-25T07:44:23.533Z</time></trkpt><trkpt lat="43.9023083" lon="12.6531283"><ele>84.0</ele><time>2026-04-25T07:44:24.535Z</time></trkpt><trkpt lat="43.902175" lon="12.6531267"><ele>84.4</ele><time>2026-04-25T07:44:25.534Z</time></trkpt><trkpt lat="43.90205" lon="12.6531233"><ele>84.80000000000001</ele><time>2026-04-25T07:44:26.532Z</time></trkpt><trkpt lat="43.90193" lon="12.6531217"><ele>85.19999999999999</ele><time>2026-04-25T07:44:27.535Z</time></trkpt><trkpt lat="43.9018267" lon="12.6531183"><ele>85.6</ele><time>2026-04-25T07:44:28.534Z</time></trkpt><trkpt lat="43.90173" lon="12.6531117"><ele>86.0</ele><time>2026-04-25T07:44:29.534Z</time></trkpt><trkpt lat="43.9016433" lon="12.6531"><ele>86.4</ele><time>2026-04-25T07:44:30.534Z</time></trkpt><trkpt lat="43.9015617" lon="12.6530933"><ele>86.8</ele><time>2026-04-25T07:44:31.534Z</time></trkpt><trkpt lat="43.9014867" lon="12.6530933"><ele>87.2</ele><time>2026-04-25T07:44:32.535Z</time></trkpt><trkpt lat="43.901315" lon="12.6530883"><ele>87.60000000000001</ele><time>2026-04-25T07:44:35.534Z</time></trkpt><trkpt lat="43.90123" lon="12.653105"><ele>88.0</ele><time>2026-04-25T07:44:39.531Z</time></trkpt><trkpt lat="43.90114" lon="12.6531883"><ele>88.0</ele><time>2026-04-25T07:44:41.531Z</time></trkpt><trkpt lat="43.9010717" lon="12.653235"><ele>88.0</ele><time>2026-04-25T07:44:42.532Z</time></trkpt><trkpt lat="43.90099" lon="12.6532733"><ele>88.0</ele><time>2026-04-25T07:44:43.532Z</time></trkpt><trkpt lat="43.9008967" lon="12.6532883"><ele>88.0</ele><time>2026-04-25T07:44:44.532Z</time></trkpt><trkpt lat="43.9007833" lon="12.6532717"><ele>88.0</ele><time>2026-04-25T07:44:45.534Z</time></trkpt><trkpt lat="43.90066" lon="12.6532433"><ele>87.25</ele><time>2026-04-25T07:44:46.531Z</time></trkpt><trkpt lat="43.9005317" lon="12.6532133"><ele>86.5</ele><time>2026-04-25T07:44:47.531Z</time></trkpt><trkpt lat="43.9003917" lon="12.65319"><ele>85.75</ele><time>2026-04-25T07:44:48.531Z</time></trkpt><trkpt lat="43.900245" lon="12.6531783"><ele>85.0</ele><time>2026-04-25T07:44:49.534Z</time></trkpt><trkpt lat="43.900105" lon="12.6531783"><ele>84.0</ele><time>2026-04-25T07:44:50.532Z</time></trkpt><trkpt lat="43.8999717" lon="12.6531883"><ele>83.0</ele><time>2026-04-25T07:44:51.534Z</time></trkpt><trkpt lat="43.8998367" lon="12.6532133"><ele>82.0</ele><time>2026-04-25T07:44:52.535Z</time></trkpt><trkpt lat="43.8997133" lon="12.6532433"><ele>81.0</ele><time>2026-04-25T07:44:53.534Z</time></trkpt><trkpt lat="43.8994817" lon="12.6533067"><ele>81.0</ele><time>2026-04-25T07:44:55.534Z</time></trkpt><trkpt lat="43.89938" lon="12.653335"><ele>81.0</ele><time>2026-04-25T07:44:56.534Z</time></trkpt><trkpt lat="43.8992917" lon="12.653375"><ele>81.0</ele><time>2026-04-25T07:44:57.533Z</time></trkpt><trkpt lat="43.8992167" lon="12.653425"><ele>81.0</ele><time>2026-04-25T07:44:58.535Z</time></trkpt><trkpt lat="43.899145" lon="12.6534967"><ele>81.0</ele><time>2026-04-25T07:44:59.534Z</time></trkpt><trkpt lat="43.89908" lon="12.6535783"><ele>79.6</ele><time>2026-04-25T07:45:00.535Z</time></trkpt><trkpt lat="43.899015" lon="12.6536683"><ele>78.19999999999999</ele><time>2026-04-25T07:45:01.534Z</time></trkpt><trkpt lat="43.8989483" lon="12.653765"><ele>76.80000000000001</ele><time>2026-04-25T07:45:02.532Z</time></trkpt><trkpt lat="43.8988833" lon="12.6538583"><ele>75.4</ele><time>2026-04-25T07:45:03.532Z</time></trkpt><trkpt lat="43.898815" lon="12.65395"><ele>74.0</ele><time>2026-04-25T07:45:04.534Z</time></trkpt><trkpt lat="43.8987467" lon="12.6540367"><ele>74.0</ele><time>2026-04-25T07:45:05.532Z</time></trkpt><trkpt lat="43.8986767" lon="12.65411"><ele>74.0</ele><time>2026-04-25T07:45:06.533Z</time></trkpt><trkpt lat="43.8986" lon="12.654165"><ele>74.0</ele><time>2026-04-25T07:45:07.533Z</time></trkpt><trkpt lat="43.89852" lon="12.6541833"><ele>74.0</ele><time>2026-04-25T07:45:08.533Z</time></trkpt><trkpt lat="43.8984517" lon="12.6541483"><ele>74.0</ele><time>2026-04-25T07:45:09.532Z</time></trkpt><trkpt lat="43.898395" lon="12.6541"><ele>74.0</ele><time>2026-04-25T07:45:10.532Z</time></trkpt><trkpt lat="43.8983433" lon="12.654015"><ele>74.0</ele><time>2026-04-25T07:45:11.532Z</time></trkpt><trkpt lat="43.8982933" lon="12.653895"><ele>74.0</ele><time>2026-04-25T07:45:12.535Z</time></trkpt><trkpt lat="43.8982467" lon="12.6537517"><ele>74.0</ele><time>2026-04-25T07:45:13.536Z</time></trkpt><trkpt lat="43.8981933" lon="12.6536117"><ele>74.0</ele><time>2026-04-25T07:45:14.531Z</time></trkpt><trkpt lat="43.898105" lon="12.6533383"><ele>74.0</ele><time>2026-04-25T07:45:16.534Z</time></trkpt><trkpt lat="43.8980683" lon="12.6531983"><ele>74.0</ele><time>2026-04-25T07:45:17.531Z</time></trkpt><trkpt lat="43.898025" lon="12.6530667"><ele>74.0</ele><time>2026-04-25T07:45:18.535Z</time></trkpt><trkpt lat="43.89798" lon="12.6529467"><ele>74.0</ele><time>2026-04-25T07:45:19.534Z</time></trkpt><trkpt lat="43.8979183" lon="12.65284"><ele>74.0</ele><time>2026-04-25T07:45:20.534Z</time></trkpt><trkpt lat="43.8978317" lon="12.6527517"><ele>74.0</ele><time>2026-04-25T07:45:21.536Z</time></trkpt><trkpt lat="43.8977333" lon="12.6526733"><ele>74.0</ele><time>2026-04-25T07:45:22.533Z</time></trkpt><trkpt lat="43.8976367" lon="12.652595"><ele>74.0</ele><time>2026-04-25T07:45:23.533Z</time></trkpt><trkpt lat="43.8975417" lon="12.6525117"><ele>74.0</ele><time>2026-04-25T07:45:24.535Z</time></trkpt><trkpt lat="43.89746" lon="12.6524283"><ele>74.0</ele><time>2026-04-25T07:45:25.534Z</time></trkpt><trkpt lat="43.89738" lon="12.6523433"><ele>74.16666666666667</ele><time>2026-04-25T07:45:26.534Z</time></trkpt><trkpt lat="43.897315" lon="12.6522583"><ele>74.33333333333334</ele><time>2026-04-25T07:45:27.533Z</time></trkpt><trkpt lat="43.8972683" lon="12.6521667"><ele>74.5</ele><time>2026-04-25T07:45:28.534Z</time></trkpt><trkpt lat="43.89722" lon="12.652075"><ele>74.66666666666667</ele><time>2026-04-25T07:45:29.535Z</time></trkpt><trkpt lat="43.8971833" lon="12.6519867"><ele>74.83333333333333</ele><time>2026-04-25T07:45:30.532Z</time></trkpt><trkpt lat="43.8971633" lon="12.651825"><ele>75.0</ele><time>2026-04-25T07:45:32.536Z</time></trkpt><trkpt lat="43.8971767" lon="12.6517367"><ele>75.0</ele><time>2026-04-25T07:45:33.535Z</time></trkpt><trkpt lat="43.8972183" lon="12.6516383"><ele>75.0</ele><time>2026-04-25T07:45:34.534Z</time></trkpt><trkpt lat="43.8972567" lon="12.6515317"><ele>75.0</ele><time>2026-04-25T07:45:35.533Z</time></trkpt><trkpt lat="43.8972917" lon="12.6512933"><ele>75.0</ele><time>2026-04-25T07:45:37.535Z</time></trkpt><trkpt lat="43.8972733" lon="12.6511633"><ele>75.0</ele><time>2026-04-25T07:45:38.535Z</time></trkpt><trkpt lat="43.8972417" lon="12.6510333"><ele>75.16666666666667</ele><time>2026-04-25T07:45:39.535Z</time></trkpt><trkpt lat="43.8971917" lon="12.650925"><ele>75.33333333333333</ele><time>2026-04-25T07:45:40.534Z</time></trkpt><trkpt lat="43.897125" lon="12.65083"><ele>75.5</ele><time>2026-04-25T07:45:41.532Z</time></trkpt><trkpt lat="43.8970617" lon="12.65074"><ele>75.66666666666666</ele><time>2026-04-25T07:45:42.535Z</time></trkpt><trkpt lat="43.89702" lon="12.6506533"><ele>75.83333333333333</ele><time>2026-04-25T07:45:43.535Z</time></trkpt><trkpt lat="43.8969733" lon="12.6505717"><ele>76.0</ele><time>2026-04-25T07:45:44.534Z</time></trkpt><trkpt lat="43.896945" lon="12.6504767"><ele>76.0</ele><time>2026-04-25T07:45:45.534Z</time></trkpt><trkpt lat="43.89693" lon="12.6503667"><ele>76.0</ele><time>2026-04-25T07:45:46.535Z</time></trkpt><trkpt lat="43.896955" lon="12.650235"><ele>76.0</ele><time>2026-04-25T07:45:47.534Z</time></trkpt><trkpt lat="43.8969783" lon="12.6501183"><ele>76.0</ele><time>2026-04-25T07:45:48.535Z</time></trkpt><trkpt lat="43.89701" lon="12.6500117"><ele>76.0</ele><time>2026-04-25T07:45:49.536Z</time></trkpt><trkpt lat="43.8970533" lon="12.649915"><ele>76.0</ele><time>2026-04-25T07:45:50.535Z</time></trkpt><trkpt lat="43.8971217" lon="12.6498233"><ele>75.83333333333333</ele><time>2026-04-25T07:45:51.533Z</time></trkpt><trkpt lat="43.897185" lon="12.6497533"><ele>75.66666666666666</ele><time>2026-04-25T07:45:52.531Z</time></trkpt><trkpt lat="43.8972483" lon="12.64971"><ele>75.5</ele><time>2026-04-25T07:45:53.535Z</time></trkpt><trkpt lat="43.89734" lon="12.64966"><ele>75.33333333333333</ele><time>2026-04-25T07:45:54.536Z</time></trkpt><trkpt lat="43.89742" lon="12.6496083"><ele>75.16666666666667</ele><time>2026-04-25T07:45:55.536Z</time></trkpt><trkpt lat="43.897495" lon="12.6495433"><ele>75.0</ele><time>2026-04-25T07:45:56.536Z</time></trkpt><trkpt lat="43.8975967" lon="12.6493433"><ele>76.4</ele><time>2026-04-25T07:45:58.535Z</time></trkpt><trkpt lat="43.8976117" lon="12.6492267"><ele>77.8</ele><time>2026-04-25T07:45:59.532Z</time></trkpt><trkpt lat="43.8976117" lon="12.6491033"><ele>79.19999999999999</ele><time>2026-04-25T07:46:00.536Z</time></trkpt><trkpt lat="43.8975767" lon="12.6489817"><ele>80.6</ele><time>2026-04-25T07:46:01.535Z</time></trkpt><trkpt lat="43.8975067" lon="12.64886"><ele>82.0</ele><time>2026-04-25T07:46:02.534Z</time></trkpt><trkpt lat="43.897415" lon="12.6487433"><ele>83.0</ele><time>2026-04-25T07:46:03.534Z</time></trkpt><trkpt lat="43.8973317" lon="12.6486233"><ele>84.0</ele><time>2026-04-25T07:46:04.531Z</time></trkpt><trkpt lat="43.8972367" lon="12.6485167"><ele>85.0</ele><time>2026-04-25T07:46:05.531Z</time></trkpt><trkpt lat="43.8971433" lon="12.64842"><ele>86.0</ele><time>2026-04-25T07:46:06.532Z</time></trkpt><trkpt lat="43.8970467" lon="12.6483317"><ele>86.0</ele><time>2026-04-25T07:46:07.532Z</time></trkpt><trkpt lat="43.896955" lon="12.648255"><ele>86.0</ele><time>2026-04-25T07:46:08.536Z</time></trkpt><trkpt lat="43.8968667" lon="12.6481783"><ele>86.0</ele><time>2026-04-25T07:46:09.532Z</time></trkpt><trkpt lat="43.896785" lon="12.6481117"><ele>86.0</ele><time>2026-04-25T07:46:10.535Z</time></trkpt><trkpt lat="43.8966967" lon="12.648055"><ele>86.0</ele><time>2026-04-25T07:46:11.531Z</time></trkpt><trkpt lat="43.8966067" lon="12.6480033"><ele>86.0</ele><time>2026-04-25T07:46:12.534Z</time></trkpt><trkpt lat="43.8965217" lon="12.6479617"><ele>86.0</ele><time>2026-04-25T07:46:13.534Z</time></trkpt><trkpt lat="43.8964367" lon="12.64792"><ele>86.0</ele><time>2026-04-25T07:46:14.537Z</time></trkpt><trkpt lat="43.8963567" lon="12.647875"><ele>86.0</ele><time>2026-04-25T07:46:15.535Z</time></trkpt><trkpt lat="43.8962783" lon="12.6478283"><ele>86.0</ele><time>2026-04-25T07:46:16.535Z</time></trkpt><trkpt lat="43.8962033" lon="12.64777"><ele>86.0</ele><time>2026-04-25T07:46:17.534Z</time></trkpt><trkpt lat="43.8960133" lon="12.6476467"><ele>85.25</ele><time>2026-04-25T07:46:19.535Z</time></trkpt><trkpt lat="43.89589" lon="12.6475883"><ele>84.5</ele><time>2026-04-25T07:46:20.533Z</time></trkpt><trkpt lat="43.89575" lon="12.6475267"><ele>83.75</ele><time>2026-04-25T07:46:21.535Z</time></trkpt><trkpt lat="43.8956117" lon="12.64746"><ele>83.0</ele><time>2026-04-25T07:46:22.536Z</time></trkpt><trkpt lat="43.8954767" lon="12.647395"><ele>83.0</ele><time>2026-04-25T07:46:23.534Z</time></trkpt><trkpt lat="43.89536" lon="12.6473267"><ele>83.0</ele><time>2026-04-25T07:46:24.535Z</time></trkpt><trkpt lat="43.895245" lon="12.647265"><ele>83.0</ele><time>2026-04-25T07:46:25.534Z</time></trkpt><trkpt lat="43.8951183" lon="12.64722"><ele>83.0</ele><time>2026-04-25T07:46:26.535Z</time></trkpt><trkpt lat="43.89498" lon="12.6471933"><ele>82.75</ele><time>2026-04-25T07:46:27.534Z</time></trkpt><trkpt lat="43.8948317" lon="12.6471767"><ele>82.5</ele><time>2026-04-25T07:46:28.534Z</time></trkpt><trkpt lat="43.89469" lon="12.6471733"><ele>82.25</ele><time>2026-04-25T07:46:29.535Z</time></trkpt><trkpt lat="43.89455" lon="12.6471667"><ele>82.0</ele><time>2026-04-25T07:46:30.536Z</time></trkpt><trkpt lat="43.8944167" lon="12.64716"><ele>82.0</ele><time>2026-04-25T07:46:31.535Z</time></trkpt><trkpt lat="43.8942817" lon="12.6471583"><ele>82.0</ele><time>2026-04-25T07:46:32.532Z</time></trkpt><trkpt lat="43.8941467" lon="12.6471533"><ele>82.0</ele><time>2026-04-25T07:46:33.534Z</time></trkpt><trkpt lat="43.8940117" lon="12.64714"><ele>82.0</ele><time>2026-04-25T07:46:34.536Z</time></trkpt><trkpt lat="43.89388" lon="12.64711"><ele>82.5</ele><time>2026-04-25T07:46:35.535Z</time></trkpt><trkpt lat="43.893755" lon="12.64706"><ele>83.0</ele><time>2026-04-25T07:46:36.532Z</time></trkpt><trkpt lat="43.8936317" lon="12.647"><ele>83.5</ele><time>2026-04-25T07:46:37.535Z</time></trkpt><trkpt lat="43.8935083" lon="12.6469283"><ele>84.0</ele><time>2026-04-25T07:46:38.536Z</time></trkpt><trkpt lat="43.8932583" lon="12.6467667"><ele>84.0</ele><time>2026-04-25T07:46:40.533Z</time></trkpt><trkpt lat="43.893135" lon="12.6466833"><ele>84.0</ele><time>2026-04-25T07:46:41.532Z</time></trkpt><trkpt lat="43.8930117" lon="12.646605"><ele>84.0</ele><time>2026-04-25T07:46:42.533Z</time></trkpt><trkpt lat="43.892885" lon="12.646535"><ele>84.0</ele><time>2026-04-25T07:46:43.536Z</time></trkpt><trkpt lat="43.8927633" lon="12.64646"><ele>84.0</ele><time>2026-04-25T07:46:44.536Z</time></trkpt><trkpt lat="43.8926417" lon="12.6463883"><ele>84.0</ele><time>2026-04-25T07:46:45.532Z</time></trkpt><trkpt lat="43.89252" lon="12.6463233"><ele>84.0</ele><time>2026-04-25T07:46:46.534Z</time></trkpt><trkpt lat="43.8923933" lon="12.6462483"><ele>84.0</ele><time>2026-04-25T07:46:47.533Z</time></trkpt><trkpt lat="43.892265" lon="12.6461733"><ele>84.0</ele><time>2026-04-25T07:46:48.533Z</time></trkpt><trkpt lat="43.8921417" lon="12.6460983"><ele>84.0</ele><time>2026-04-25T07:46:49.534Z</time></trkpt><trkpt lat="43.892015" lon="12.6460317"><ele>84.0</ele><time>2026-04-25T07:46:50.533Z</time></trkpt><trkpt lat="43.8918883" lon="12.6459683"><ele>84.0</ele><time>2026-04-25T07:46:51.536Z</time></trkpt><trkpt lat="43.8917617" lon="12.64591"><ele>83.75</ele><time>2026-04-25T07:46:52.535Z</time></trkpt><trkpt lat="43.8916333" lon="12.6458517"><ele>83.5</ele><time>2026-04-25T07:46:53.535Z</time></trkpt><trkpt lat="43.891485" lon="12.6458167"><ele>83.25</ele><time>2026-04-25T07:46:54.534Z</time></trkpt><trkpt lat="43.8913383" lon="12.6457683"><ele>83.0</ele><time>2026-04-25T07:46:55.536Z</time></trkpt><trkpt lat="43.8911917" lon="12.6457333"><ele>83.0</ele><time>2026-04-25T07:46:56.531Z</time></trkpt><trkpt lat="43.8910433" lon="12.6456917"><ele>83.0</ele><time>2026-04-25T07:46:57.536Z</time></trkpt><trkpt lat="43.8909067" lon="12.645645"><ele>83.0</ele><time>2026-04-25T07:46:58.536Z</time></trkpt><trkpt lat="43.89076" lon="12.6456017"><ele>83.0</ele><time>2026-04-25T07:46:59.532Z</time></trkpt><trkpt lat="43.890485" lon="12.6455033"><ele>83.5</ele><time>2026-04-25T07:47:01.534Z</time></trkpt><trkpt lat="43.8903533" lon="12.6454567"><ele>84.0</ele><time>2026-04-25T07:47:02.533Z</time></trkpt><trkpt lat="43.8902233" lon="12.64542"><ele>84.5</ele><time>2026-04-25T07:47:03.533Z</time></trkpt><trkpt lat="43.8901" lon="12.64539"><ele>85.0</ele><time>2026-04-25T07:47:04.534Z</time></trkpt><trkpt lat="43.8899833" lon="12.645375"><ele>86.75</ele><time>2026-04-25T07:47:05.535Z</time></trkpt><trkpt lat="43.88987" lon="12.645375"><ele>88.5</ele><time>2026-04-25T07:47:06.533Z</time></trkpt><trkpt lat="43.8897533" lon="12.6453917"><ele>90.25</ele><time>2026-04-25T07:47:07.537Z</time></trkpt><trkpt lat="43.8896267" lon="12.645425"><ele>92.0</ele><time>2026-04-25T07:47:08.535Z</time></trkpt><trkpt lat="43.8895" lon="12.645465"><ele>92.0</ele><time>2026-04-25T07:47:09.533Z</time></trkpt><trkpt lat="43.889365" lon="12.6455083"><ele>92.0</ele><time>2026-04-25T07:47:10.534Z</time></trkpt><trkpt lat="43.8892367" lon="12.6455533"><ele>92.0</ele><time>2026-04-25T07:47:11.534Z</time></trkpt><trkpt lat="43.8891117" lon="12.6455967"><ele>92.0</ele><time>2026-04-25T07:47:12.535Z</time></trkpt><trkpt lat="43.888985" lon="12.6456333"><ele>93.5</ele><time>2026-04-25T07:47:13.534Z</time></trkpt><trkpt lat="43.888865" lon="12.64565"><ele>95.0</ele><time>2026-04-25T07:47:14.532Z</time></trkpt><trkpt lat="43.8887433" lon="12.645615"><ele>96.5</ele><time>2026-04-25T07:47:15.535Z</time></trkpt><trkpt lat="43.8886167" lon="12.6455533"><ele>98.0</ele><time>2026-04-25T07:47:16.532Z</time></trkpt><trkpt lat="43.8884867" lon="12.6454967"><ele>99.25</ele><time>2026-04-25T07:47:17.531Z</time></trkpt><trkpt lat="43.8883583" lon="12.6454333"><ele>100.5</ele><time>2026-04-25T07:47:18.532Z</time></trkpt><trkpt lat="43.8882283" lon="12.6453667"><ele>101.75</ele><time>2026-04-25T07:47:19.532Z</time></trkpt><trkpt lat="43.8880983" lon="12.6453"><ele>103.0</ele><time>2026-04-25T07:47:20.531Z</time></trkpt><trkpt lat="43.88786" lon="12.6451533"><ele>101.2</ele><time>2026-04-25T07:47:22.532Z</time></trkpt><trkpt lat="43.8877583" lon="12.645075"><ele>99.4</ele><time>2026-04-25T07:47:23.536Z</time></trkpt><trkpt lat="43.88768" lon="12.6450017"><ele>97.60000000000001</ele><time>2026-04-25T07:47:24.534Z</time></trkpt><trkpt lat="43.8876033" lon="12.6449517"><ele>95.80000000000001</ele><time>2026-04-25T07:47:25.535Z</time></trkpt><trkpt lat="43.8875267" lon="12.6449167"><ele>94.0</ele><time>2026-04-25T07:47:26.533Z</time></trkpt><trkpt lat="43.8874533" lon="12.6449017"><ele>94.0</ele><time>2026-04-25T07:47:27.536Z</time></trkpt><trkpt lat="43.8873683" lon="12.6449167"><ele>94.0</ele><time>2026-04-25T07:47:28.537Z</time></trkpt><trkpt lat="43.887275" lon="12.64494"><ele>94.0</ele><time>2026-04-25T07:47:29.535Z</time></trkpt><trkpt lat="43.8871767" lon="12.64496"><ele>94.0</ele><time>2026-04-25T07:47:30.535Z</time></trkpt><trkpt lat="43.887075" lon="12.6449667"><ele>94.0</ele><time>2026-04-25T07:47:31.535Z</time></trkpt><trkpt lat="43.88697" lon="12.6449633"><ele>94.0</ele><time>2026-04-25T07:47:32.534Z</time></trkpt><trkpt lat="43.88685" lon="12.6449483"><ele>94.0</ele><time>2026-04-25T07:47:33.533Z</time></trkpt><trkpt lat="43.88672" lon="12.6449267"><ele>94.0</ele><time>2026-04-25T07:47:34.533Z</time></trkpt><trkpt lat="43.88659" lon="12.6449017"><ele>94.0</ele><time>2026-04-25T07:47:35.535Z</time></trkpt><trkpt lat="43.886455" lon="12.64488"><ele>97.25</ele><time>2026-04-25T07:47:36.535Z</time></trkpt><trkpt lat="43.886325" lon="12.6448317"><ele>100.5</ele><time>2026-04-25T07:47:37.534Z</time></trkpt><trkpt lat="43.8862017" lon="12.6447583"><ele>103.75</ele><time>2026-04-25T07:47:38.533Z</time></trkpt><trkpt lat="43.8860817" lon="12.6446617"><ele>107.0</ele><time>2026-04-25T07:47:39.534Z</time></trkpt><trkpt lat="43.8859683" lon="12.64456"><ele>105.0</ele><time>2026-04-25T07:47:40.535Z</time></trkpt><trkpt lat="43.8858633" lon="12.6444483"><ele>103.0</ele><time>2026-04-25T07:47:41.532Z</time></trkpt><trkpt lat="43.8856833" lon="12.64424"><ele>101.0</ele><time>2026-04-25T07:47:43.533Z</time></trkpt><trkpt lat="43.885605" lon="12.6441333"><ele>101.0</ele><time>2026-04-25T07:47:44.536Z</time></trkpt><trkpt lat="43.8855383" lon="12.644005"><ele>101.0</ele><time>2026-04-25T07:47:45.534Z</time></trkpt><trkpt lat="43.8854767" lon="12.64387"><ele>101.0</ele><time>2026-04-25T07:47:46.536Z</time></trkpt><trkpt lat="43.8854167" lon="12.6437283"><ele>101.0</ele><time>2026-04-25T07:47:47.533Z</time></trkpt><trkpt lat="43.8853583" lon="12.6435867"><ele>100.5</ele><time>2026-04-25T07:47:48.536Z</time></trkpt><trkpt lat="43.8852983" lon="12.6434433"><ele>100.0</ele><time>2026-04-25T07:47:49.535Z</time></trkpt><trkpt lat="43.8852283" lon="12.6433083"><ele>99.5</ele><time>2026-04-25T07:47:50.536Z</time></trkpt><trkpt lat="43.8851483" lon="12.6431883"><ele>99.0</ele><time>2026-04-25T07:47:51.535Z</time></trkpt><trkpt lat="43.8850683" lon="12.6430867"><ele>99.0</ele><time>2026-04-25T07:47:52.535Z</time></trkpt><trkpt lat="43.8849817" lon="12.6429967"><ele>99.0</ele><time>2026-04-25T07:47:53.535Z</time></trkpt><trkpt lat="43.8848967" lon="12.6429217"><ele>99.0</ele><time>2026-04-25T07:47:54.535Z</time></trkpt><trkpt lat="43.884805" lon="12.6428733"><ele>99.0</ele><time>2026-04-25T07:47:55.536Z</time></trkpt><trkpt lat="43.8847067" lon="12.642845"><ele>99.0</ele><time>2026-04-25T07:47:56.535Z</time></trkpt><trkpt lat="43.8845967" lon="12.6428317"><ele>99.0</ele><time>2026-04-25T07:47:57.535Z</time></trkpt><trkpt lat="43.8844867" lon="12.6428217"><ele>99.0</ele><time>2026-04-25T07:47:58.532Z</time></trkpt><trkpt lat="43.8843683" lon="12.642825"><ele>99.0</ele><time>2026-04-25T07:47:59.536Z</time></trkpt><trkpt lat="43.8842417" lon="12.6428217"><ele>99.0</ele><time>2026-04-25T07:48:00.535Z</time></trkpt><trkpt lat="43.8841117" lon="12.64282"><ele>100.33333333333334</ele><time>2026-04-25T07:48:01.535Z</time></trkpt><trkpt lat="43.8839917" lon="12.642815"><ele>101.66666666666667</ele><time>2026-04-25T07:48:02.532Z</time></trkpt><trkpt lat="43.88377" lon="12.642795"><ele>103.0</ele><time>2026-04-25T07:48:04.531Z</time></trkpt><trkpt lat="43.883655" lon="12.6427933"><ele>101.0</ele><time>2026-04-25T07:48:05.532Z</time></trkpt><trkpt lat="43.8835417" lon="12.6427917"><ele>99.0</ele><time>2026-04-25T07:48:06.536Z</time></trkpt><trkpt lat="43.883425" lon="12.6428017"><ele>97.0</ele><time>2026-04-25T07:48:07.533Z</time></trkpt><trkpt lat="43.88329" lon="12.642825"><ele>95.0</ele><time>2026-04-25T07:48:08.531Z</time></trkpt><trkpt lat="43.8831633" lon="12.6428433"><ele>99.5</ele><time>2026-04-25T07:48:09.532Z</time></trkpt><trkpt lat="43.88304" lon="12.6428633"><ele>104.0</ele><time>2026-04-25T07:48:10.535Z</time></trkpt><trkpt lat="43.8829083" lon="12.6428883"><ele>108.5</ele><time>2026-04-25T07:48:11.531Z</time></trkpt><trkpt lat="43.88278" lon="12.6429067"><ele>113.0</ele><time>2026-04-25T07:48:12.532Z</time></trkpt><trkpt lat="43.88265" lon="12.6429333"><ele>114.0</ele><time>2026-04-25T07:48:13.533Z</time></trkpt><trkpt lat="43.8825217" lon="12.6429467"><ele>115.0</ele><time>2026-04-25T07:48:14.532Z</time></trkpt><trkpt lat="43.882395" lon="12.6429317"><ele>116.0</ele><time>2026-04-25T07:48:15.531Z</time></trkpt><trkpt lat="43.8822667" lon="12.64291"><ele>117.0</ele><time>2026-04-25T07:48:16.533Z</time></trkpt><trkpt lat="43.8821333" lon="12.6428933"><ele>117.0</ele><time>2026-04-25T07:48:17.533Z</time></trkpt><trkpt lat="43.8820083" lon="12.642885"><ele>117.0</ele><time>2026-04-25T07:48:18.536Z</time></trkpt><trkpt lat="43.881885" lon="12.64288"><ele>117.0</ele><time>2026-04-25T07:48:19.534Z</time></trkpt><trkpt lat="43.88175" lon="12.6428733"><ele>117.0</ele><time>2026-04-25T07:48:20.531Z</time></trkpt><trkpt lat="43.8816233" lon="12.6428583"><ele>118.33333333333334</ele><time>2026-04-25T07:48:21.533Z</time></trkpt><trkpt lat="43.8815117" lon="12.6428367"><ele>119.66666666666667</ele><time>2026-04-25T07:48:22.532Z</time></trkpt><trkpt lat="43.8814" lon="12.6428233"><ele>121.0</ele><time>2026-04-25T07:48:23.532Z</time></trkpt><trkpt lat="43.881135" lon="12.642855"><ele>121.0</ele><time>2026-04-25T07:48:25.535Z</time></trkpt><trkpt lat="43.88099" lon="12.64289"><ele>121.0</ele><time>2026-04-25T07:48:26.531Z</time></trkpt><trkpt lat="43.8808517" lon="12.64293"><ele>121.0</ele><time>2026-04-25T07:48:27.533Z</time></trkpt><trkpt lat="43.8807233" lon="12.6429717"><ele>121.0</ele><time>2026-04-25T07:48:28.534Z</time></trkpt><trkpt lat="43.8805967" lon="12.643015"><ele>119.5</ele><time>2026-04-25T07:48:29.534Z</time></trkpt><trkpt lat="43.8804667" lon="12.6430567"><ele>118.0</ele><time>2026-04-25T07:48:30.533Z</time></trkpt><trkpt lat="43.88034" lon="12.6431033"><ele>116.5</ele><time>2026-04-25T07:48:31.534Z</time></trkpt><trkpt lat="43.8802133" lon="12.64315"><ele>115.0</ele><time>2026-04-25T07:48:32.53Z</time></trkpt><trkpt lat="43.8800867" lon="12.6431933"><ele>113.0</ele><time>2026-04-25T07:48:33.531Z</time></trkpt><trkpt lat="43.87997" lon="12.6432067"><ele>111.0</ele><time>2026-04-25T07:48:34.53Z</time></trkpt><trkpt lat="43.8798367" lon="12.6432133"><ele>109.0</ele><time>2026-04-25T07:48:35.531Z</time></trkpt><trkpt lat="43.8796967" lon="12.6432183"><ele>107.0</ele><time>2026-04-25T07:48:36.531Z</time></trkpt><trkpt lat="43.87955" lon="12.643235"><ele>107.0</ele><time>2026-04-25T07:48:37.534Z</time></trkpt><trkpt lat="43.8793967" lon="12.64326"><ele>107.0</ele><time>2026-04-25T07:48:38.535Z</time></trkpt><trkpt lat="43.8792417" lon="12.643285"><ele>107.0</ele><time>2026-04-25T07:48:39.534Z</time></trkpt><trkpt lat="43.8790933" lon="12.64331"><ele>106.75</ele><time>2026-04-25T07:48:40.531Z</time></trkpt><trkpt lat="43.8789583" lon="12.6433333"><ele>106.5</ele><time>2026-04-25T07:48:41.534Z</time></trkpt><trkpt lat="43.8788283" lon="12.643355"><ele>106.25</ele><time>2026-04-25T07:48:42.53Z</time></trkpt><trkpt lat="43.8787067" lon="12.643385"><ele>106.0</ele><time>2026-04-25T07:48:43.531Z</time></trkpt><trkpt lat="43.87859" lon="12.6434267"><ele>106.66666666666667</ele><time>2026-04-25T07:48:44.534Z</time></trkpt><trkpt lat="43.8783833" lon="12.6435783"><ele>107.33333333333334</ele><time>2026-04-25T07:48:46.532Z</time></trkpt><trkpt lat="43.87829" lon="12.643685"><ele>108.0</ele><time>2026-04-25T07:48:47.53Z</time></trkpt><trkpt lat="43.8782033" lon="12.643795"><ele>112.2</ele><time>2026-04-25T07:48:48.531Z</time></trkpt><trkpt lat="43.878115" lon="12.643895"><ele>116.4</ele><time>2026-04-25T07:48:49.531Z</time></trkpt><trkpt lat="43.878025" lon="12.643975"><ele>120.60000000000001</ele><time>2026-04-25T07:48:50.53Z</time></trkpt><trkpt lat="43.87793" lon="12.64403"><ele>124.80000000000001</ele><time>2026-04-25T07:48:51.531Z</time></trkpt><trkpt lat="43.87783" lon="12.6440533"><ele>129.0</ele><time>2026-04-25T07:48:52.53Z</time></trkpt><trkpt lat="43.87771" lon="12.64404"><ele>125.0</ele><time>2026-04-25T07:48:53.53Z</time></trkpt><trkpt lat="43.8775883" lon="12.643995"><ele>121.0</ele><time>2026-04-25T07:48:54.531Z</time></trkpt><trkpt lat="43.8774717" lon="12.6439483"><ele>117.0</ele><time>2026-04-25T07:48:55.531Z</time></trkpt><trkpt lat="43.8773533" lon="12.6439033"><ele>113.0</ele><time>2026-04-25T07:48:56.533Z</time></trkpt><trkpt lat="43.877255" lon="12.643845"><ele>113.0</ele><time>2026-04-25T07:48:57.53Z</time></trkpt><trkpt lat="43.87717" lon="12.6437667"><ele>113.00000000000001</ele><time>2026-04-25T07:48:58.533Z</time></trkpt><trkpt lat="43.877095" lon="12.6436767"><ele>113.00000000000001</ele><time>2026-04-25T07:48:59.531Z</time></trkpt><trkpt lat="43.8770367" lon="12.6435833"><ele>113.0</ele><time>2026-04-25T07:49:00.53Z</time></trkpt><trkpt lat="43.8769967" lon="12.643475"><ele>113.0</ele><time>2026-04-25T07:49:01.531Z</time></trkpt><trkpt lat="43.8769633" lon="12.6433717"><ele>113.75</ele><time>2026-04-25T07:49:02.534Z</time></trkpt><trkpt lat="43.8769333" lon="12.64326"><ele>114.5</ele><time>2026-04-25T07:49:03.533Z</time></trkpt><trkpt lat="43.8768917" lon="12.643145"><ele>115.25</ele><time>2026-04-25T07:49:04.531Z</time></trkpt><trkpt lat="43.8768333" lon="12.6430083"><ele>116.0</ele><time>2026-04-25T07:49:05.531Z</time></trkpt><trkpt lat="43.8767283" lon="12.6426867"><ele>116.0</ele><time>2026-04-25T07:49:07.532Z</time></trkpt><trkpt lat="43.87669" lon="12.642525"><ele>116.0</ele><time>2026-04-25T07:49:08.532Z</time></trkpt><trkpt lat="43.8766583" lon="12.6423483"><ele>116.0</ele><time>2026-04-25T07:49:09.534Z</time></trkpt><trkpt lat="43.8766233" lon="12.642185"><ele>116.0</ele><time>2026-04-25T07:49:10.531Z</time></trkpt><trkpt lat="43.87659" lon="12.6420267"><ele>115.0</ele><time>2026-04-25T07:49:11.53Z</time></trkpt><trkpt lat="43.876545" lon="12.641885"><ele>114.0</ele><time>2026-04-25T07:49:12.531Z</time></trkpt><trkpt lat="43.8764767" lon="12.6417583"><ele>113.0</ele><time>2026-04-25T07:49:13.534Z</time></trkpt><trkpt lat="43.8763933" lon="12.64164"><ele>112.0</ele><time>2026-04-25T07:49:14.532Z</time></trkpt><trkpt lat="43.8763083" lon="12.6415183"><ele>112.0</ele><time>2026-04-25T07:49:15.535Z</time></trkpt><trkpt lat="43.876205" lon="12.6414"><ele>112.0</ele><time>2026-04-25T07:49:16.532Z</time></trkpt><trkpt lat="43.87612" lon="12.6412817"><ele>112.0</ele><time>2026-04-25T07:49:17.531Z</time></trkpt><trkpt lat="43.8760367" lon="12.6411467"><ele>112.0</ele><time>2026-04-25T07:49:18.532Z</time></trkpt><trkpt lat="43.8759667" lon="12.641005"><ele>113.5</ele><time>2026-04-25T07:49:19.533Z</time></trkpt><trkpt lat="43.8758983" lon="12.6408567"><ele>115.0</ele><time>2026-04-25T07:49:20.533Z</time></trkpt><trkpt lat="43.8758333" lon="12.6407067"><ele>116.5</ele><time>2026-04-25T07:49:21.532Z</time></trkpt><trkpt lat="43.8757717" lon="12.6405567"><ele>118.0</ele><time>2026-04-25T07:49:22.533Z</time></trkpt><trkpt lat="43.875715" lon="12.640405"><ele>116.5</ele><time>2026-04-25T07:49:23.532Z</time></trkpt><trkpt lat="43.8756617" lon="12.6402533"><ele>115.0</ele><time>2026-04-25T07:49:24.532Z</time></trkpt><trkpt lat="43.875615" lon="12.6401033"><ele>113.5</ele><time>2026-04-25T07:49:25.533Z</time></trkpt><trkpt lat="43.8755617" lon="12.6399633"><ele>112.0</ele><time>2026-04-25T07:49:26.534Z</time></trkpt><trkpt lat="43.8754317" lon="12.63974"><ele>112.0</ele><time>2026-04-25T07:49:28.533Z</time></trkpt><trkpt lat="43.8753683" lon="12.6396483"><ele>111.99999999999999</ele><time>2026-04-25T07:49:29.532Z</time></trkpt><trkpt lat="43.8753083" lon="12.6395583"><ele>111.99999999999999</ele><time>2026-04-25T07:49:30.533Z</time></trkpt><trkpt lat="43.8752467" lon="12.6394633"><ele>112.0</ele><time>2026-04-25T07:49:31.532Z</time></trkpt><trkpt lat="43.875175" lon="12.639375"><ele>112.0</ele><time>2026-04-25T07:49:32.533Z</time></trkpt><trkpt lat="43.8751017" lon="12.63928"><ele>113.00000000000001</ele><time>2026-04-25T07:49:33.532Z</time></trkpt><trkpt lat="43.875045" lon="12.6391767"><ele>114.0</ele><time>2026-04-25T07:49:34.532Z</time></trkpt><trkpt lat="43.8749933" lon="12.6390883"><ele>115.0</ele><time>2026-04-25T07:49:35.531Z</time></trkpt><trkpt lat="43.874945" lon="12.6390133"><ele>116.0</ele><time>2026-04-25T07:49:36.532Z</time></trkpt><trkpt lat="43.87489" lon="12.6389433"><ele>117.00000000000001</ele><time>2026-04-25T07:49:37.533Z</time></trkpt><trkpt lat="43.8748383" lon="12.638875"><ele>118.0</ele><time>2026-04-25T07:49:38.535Z</time></trkpt><trkpt lat="43.8747867" lon="12.6388133"><ele>118.0</ele><time>2026-04-25T07:49:39.536Z</time></trkpt><trkpt lat="43.8747367" lon="12.6387533"><ele>118.0</ele><time>2026-04-25T07:49:40.533Z</time></trkpt><trkpt lat="43.8746817" lon="12.638695"><ele>118.0</ele><time>2026-04-25T07:49:41.531Z</time></trkpt><trkpt lat="43.87462" lon="12.638655"><ele>118.0</ele><time>2026-04-25T07:49:42.532Z</time></trkpt><trkpt lat="43.8745483" lon="12.638625"><ele>118.0</ele><time>2026-04-25T07:49:43.532Z</time></trkpt><trkpt lat="43.874475" lon="12.6385883"><ele>118.0</ele><time>2026-04-25T07:49:44.534Z</time></trkpt><trkpt lat="43.874395" lon="12.638545"><ele>118.0</ele><time>2026-04-25T07:49:45.53Z</time></trkpt><trkpt lat="43.8743133" lon="12.6384933"><ele>117.75</ele><time>2026-04-25T07:49:46.533Z</time></trkpt><trkpt lat="43.874235" lon="12.6384283"><ele>117.5</ele><time>2026-04-25T07:49:47.53Z</time></trkpt><trkpt lat="43.8740533" lon="12.6382783"><ele>117.25</ele><time>2026-04-25T07:49:49.535Z</time></trkpt><trkpt lat="43.8739567" lon="12.6381883"><ele>117.0</ele><time>2026-04-25T07:49:50.53Z</time></trkpt><trkpt lat="43.87386" lon="12.6380917"><ele>117.0</ele><time>2026-04-25T07:49:51.531Z</time></trkpt><trkpt lat="43.8737733" lon="12.6379767"><ele>117.0</ele><time>2026-04-25T07:49:52.534Z</time></trkpt><trkpt lat="43.8736867" lon="12.6378517"><ele>117.0</ele><time>2026-04-25T07:49:53.531Z</time></trkpt><trkpt lat="43.8736" lon="12.6377133"><ele>117.0</ele><time>2026-04-25T07:49:54.533Z</time></trkpt><trkpt lat="43.8735083" lon="12.637565"><ele>117.25</ele><time>2026-04-25T07:49:55.532Z</time></trkpt><trkpt lat="43.8734117" lon="12.6374183"><ele>117.5</ele><time>2026-04-25T07:49:56.531Z</time></trkpt><trkpt lat="43.87331" lon="12.63726"><ele>117.75</ele><time>2026-04-25T07:49:57.53Z</time></trkpt><trkpt lat="43.8732117" lon="12.6370967"><ele>118.0</ele><time>2026-04-25T07:49:58.53Z</time></trkpt><trkpt lat="43.8731167" lon="12.6369317"><ele>118.0</ele><time>2026-04-25T07:49:59.534Z</time></trkpt><trkpt lat="43.87303" lon="12.63677"><ele>118.0</ele><time>2026-04-25T07:50:00.531Z</time></trkpt><trkpt lat="43.8729483" lon="12.6366083"><ele>118.0</ele><time>2026-04-25T07:50:01.531Z</time></trkpt><trkpt lat="43.8728633" lon="12.636445"><ele>118.0</ele><time>2026-04-25T07:50:02.53Z</time></trkpt><trkpt lat="43.8727783" lon="12.6362833"><ele>117.5</ele><time>2026-04-25T07:50:03.531Z</time></trkpt><trkpt lat="43.8726967" lon="12.6361117"><ele>117.0</ele><time>2026-04-25T07:50:04.531Z</time></trkpt><trkpt lat="43.8726233" lon="12.6359383"><ele>116.5</ele><time>2026-04-25T07:50:05.534Z</time></trkpt><trkpt lat="43.8725467" lon="12.6357633"><ele>116.0</ele><time>2026-04-25T07:50:06.531Z</time></trkpt><trkpt lat="43.872475" lon="12.6355867"><ele>116.0</ele><time>2026-04-25T07:50:07.534Z</time></trkpt><trkpt lat="43.8724" lon="12.6354217"><ele>116.0</ele><time>2026-04-25T07:50:08.535Z</time></trkpt><trkpt lat="43.8722533" lon="12.635125"><ele>116.0</ele><time>2026-04-25T07:50:10.531Z</time></trkpt><trkpt lat="43.8721767" lon="12.635"><ele>116.4</ele><time>2026-04-25T07:50:11.532Z</time></trkpt><trkpt lat="43.872095" lon="12.6348933"><ele>116.8</ele><time>2026-04-25T07:50:12.532Z</time></trkpt><trkpt lat="43.8720067" lon="12.6348083"><ele>117.20000000000002</ele><time>2026-04-25T07:50:13.531Z</time></trkpt><trkpt lat="43.8719117" lon="12.6347383"><ele>117.60000000000001</ele><time>2026-04-25T07:50:14.531Z</time></trkpt><trkpt lat="43.8718167" lon="12.6346767"><ele>118.0</ele><time>2026-04-25T07:50:15.531Z</time></trkpt><trkpt lat="43.871735" lon="12.6346167"><ele>118.2</ele><time>2026-04-25T07:50:16.535Z</time></trkpt><trkpt lat="43.87166" lon="12.6345483"><ele>118.4</ele><time>2026-04-25T07:50:17.532Z</time></trkpt><trkpt lat="43.8715833" lon="12.6344767"><ele>118.60000000000001</ele><time>2026-04-25T07:50:18.532Z</time></trkpt><trkpt lat="43.8715017" lon="12.63438"><ele>118.80000000000001</ele><time>2026-04-25T07:50:19.535Z</time></trkpt><trkpt lat="43.8714133" lon="12.6342667"><ele>119.0</ele><time>2026-04-25T07:50:20.534Z</time></trkpt><trkpt lat="43.8713183" lon="12.63414"><ele>119.0</ele><time>2026-04-25T07:50:21.534Z</time></trkpt><trkpt lat="43.8712167" lon="12.634015"><ele>119.0</ele><time>2026-04-25T07:50:22.534Z</time></trkpt><trkpt lat="43.8711167" lon="12.6338933"><ele>119.0</ele><time>2026-04-25T07:50:23.531Z</time></trkpt><trkpt lat="43.87102" lon="12.6337767"><ele>119.0</ele><time>2026-04-25T07:50:24.531Z</time></trkpt><trkpt lat="43.8709267" lon="12.6336717"><ele>120.25</ele><time>2026-04-25T07:50:25.532Z</time></trkpt><trkpt lat="43.8708283" lon="12.6335767"><ele>121.5</ele><time>2026-04-25T07:50:26.53Z</time></trkpt><trkpt lat="43.870745" lon="12.63347"><ele>122.75</ele><time>2026-04-25T07:50:27.532Z</time></trkpt><trkpt lat="43.8706667" lon="12.6333583"><ele>124.0</ele><time>2026-04-25T07:50:28.531Z</time></trkpt><trkpt lat="43.8705917" lon="12.6332383"><ele>124.0</ele><time>2026-04-25T07:50:29.531Z</time></trkpt><trkpt lat="43.8704683" lon="12.6329417"><ele>124.0</ele><time>2026-04-25T07:50:31.533Z</time></trkpt><trkpt lat="43.8704133" lon="12.6327817"><ele>124.0</ele><time>2026-04-25T07:50:32.532Z</time></trkpt><trkpt lat="43.8703633" lon="12.632605"><ele>125.0</ele><time>2026-04-25T07:50:33.532Z</time></trkpt><trkpt lat="43.8703083" lon="12.632425"><ele>126.0</ele><time>2026-04-25T07:50:34.534Z</time></trkpt><trkpt lat="43.87025" lon="12.6322517"><ele>127.0</ele><time>2026-04-25T07:50:35.531Z</time></trkpt><trkpt lat="43.87019" lon="12.6320833"><ele>128.0</ele><time>2026-04-25T07:50:36.531Z</time></trkpt><trkpt lat="43.8701267" lon="12.631915"><ele>126.75</ele><time>2026-04-25T07:50:37.532Z</time></trkpt><trkpt lat="43.8700633" lon="12.6317417"><ele>125.5</ele><time>2026-04-25T07:50:38.531Z</time></trkpt><trkpt lat="43.8700067" lon="12.63156"><ele>124.25</ele><time>2026-04-25T07:50:39.53Z</time></trkpt><trkpt lat="43.869955" lon="12.6313783"><ele>123.0</ele><time>2026-04-25T07:50:40.531Z</time></trkpt><trkpt lat="43.8699067" lon="12.6312117"><ele>124.25</ele><time>2026-04-25T07:50:41.53Z</time></trkpt><trkpt lat="43.8698567" lon="12.631055"><ele>125.5</ele><time>2026-04-25T07:50:42.531Z</time></trkpt><trkpt lat="43.86981" lon="12.6308983"><ele>126.75</ele><time>2026-04-25T07:50:43.532Z</time></trkpt><trkpt lat="43.869765" lon="12.6307533"><ele>128.0</ele><time>2026-04-25T07:50:44.53Z</time></trkpt><trkpt lat="43.8697267" lon="12.6306167"><ele>127.99999999999999</ele><time>2026-04-25T07:50:45.531Z</time></trkpt><trkpt lat="43.8696883" lon="12.6304983"><ele>128.0</ele><time>2026-04-25T07:50:46.531Z</time></trkpt><trkpt lat="43.8696533" lon="12.63039"><ele>128.0</ele><time>2026-04-25T07:50:47.534Z</time></trkpt><trkpt lat="43.869625" lon="12.6302817"><ele>128.0</ele><time>2026-04-25T07:50:48.535Z</time></trkpt><trkpt lat="43.8695933" lon="12.6301767"><ele>127.99999999999999</ele><time>2026-04-25T07:50:49.535Z</time></trkpt><trkpt lat="43.8695567" lon="12.6300683"><ele>128.0</ele><time>2026-04-25T07:50:50.532Z</time></trkpt><trkpt lat="43.869455" lon="12.6298383"><ele>127.60000000000001</ele><time>2026-04-25T07:50:52.532Z</time></trkpt><trkpt lat="43.86939" lon="12.629715"><ele>127.20000000000002</ele><time>2026-04-25T07:50:53.531Z</time></trkpt><trkpt lat="43.86933" lon="12.62959"><ele>126.8</ele><time>2026-04-25T07:50:54.53Z</time></trkpt><trkpt lat="43.8692767" lon="12.6294767"><ele>126.4</ele><time>2026-04-25T07:50:55.531Z</time></trkpt><trkpt lat="43.869225" lon="12.6293783"><ele>126.0</ele><time>2026-04-25T07:50:56.53Z</time></trkpt><trkpt lat="43.8691783" lon="12.6292883"><ele>126.0</ele><time>2026-04-25T07:50:57.53Z</time></trkpt><trkpt lat="43.8691367" lon="12.6292083"><ele>126.0</ele><time>2026-04-25T07:50:58.533Z</time></trkpt><trkpt lat="43.8690533" lon="12.6291033"><ele>126.0</ele><time>2026-04-25T07:51:00.532Z</time></trkpt><trkpt lat="43.8689467" lon="12.6290883"><ele>126.0</ele><time>2026-04-25T07:51:02.534Z</time></trkpt><trkpt lat="43.8688717" lon="12.62911"><ele>126.0</ele><time>2026-04-25T07:51:03.531Z</time></trkpt><trkpt lat="43.86878" lon="12.62915"><ele>126.0</ele><time>2026-04-25T07:51:04.531Z</time></trkpt><trkpt lat="43.8686967" lon="12.6291883"><ele>126.0</ele><time>2026-04-25T07:51:05.534Z</time></trkpt><trkpt lat="43.8686083" lon="12.6292267"><ele>126.0</ele><time>2026-04-25T07:51:06.534Z</time></trkpt><trkpt lat="43.868515" lon="12.6292617"><ele>126.0</ele><time>2026-04-25T07:51:07.531Z</time></trkpt><trkpt lat="43.8684317" lon="12.629295"><ele>126.0</ele><time>2026-04-25T07:51:08.531Z</time></trkpt><trkpt lat="43.8683433" lon="12.6293283"><ele>126.4</ele><time>2026-04-25T07:51:09.534Z</time></trkpt><trkpt lat="43.8682517" lon="12.6293567"><ele>126.8</ele><time>2026-04-25T07:51:10.533Z</time></trkpt><trkpt lat="43.868175" lon="12.6293633"><ele>127.20000000000002</ele><time>2026-04-25T07:51:11.535Z</time></trkpt><trkpt lat="43.868035" lon="12.6293583"><ele>127.60000000000001</ele><time>2026-04-25T07:51:13.531Z</time></trkpt><trkpt lat="43.8679283" lon="12.6293633"><ele>128.0</ele><time>2026-04-25T07:51:15.532Z</time></trkpt><trkpt lat="43.8679467" lon="12.6294633"><ele>127.83333333333333</ele><time>2026-04-25T07:51:19.532Z</time></trkpt><trkpt lat="43.868015" lon="12.6294917"><ele>127.66666666666666</ele><time>2026-04-25T07:51:20.53Z</time></trkpt><trkpt lat="43.8680867" lon="12.6295217"><ele>127.5</ele><time>2026-04-25T07:51:21.532Z</time></trkpt><trkpt lat="43.8681433" lon="12.6295667"><ele>127.33333333333334</ele><time>2026-04-25T07:51:22.532Z</time></trkpt><trkpt lat="43.86821" lon="12.6296817"><ele>127.16666666666667</ele><time>2026-04-25T07:51:24.531Z</time></trkpt><trkpt lat="43.868185" lon="12.6298133"><ele>127.0</ele><time>2026-04-25T07:51:26.531Z</time></trkpt><trkpt lat="43.8681367" lon="12.6298833"><ele>127.00000000000001</ele><time>2026-04-25T07:51:27.531Z</time></trkpt><trkpt lat="43.8680617" lon="12.6299517"><ele>127.0</ele><time>2026-04-25T07:51:28.531Z</time></trkpt><trkpt lat="43.8679867" lon="12.6300317"><ele>127.0</ele><time>2026-04-25T07:51:29.531Z</time></trkpt><trkpt lat="43.8679317" lon="12.6301233"><ele>127.0</ele><time>2026-04-25T07:51:30.531Z</time></trkpt><trkpt lat="43.86789" lon="12.6302233"><ele>127.00000000000001</ele><time>2026-04-25T07:51:31.533Z</time></trkpt><trkpt lat="43.8678767" lon="12.6303283"><ele>127.0</ele><time>2026-04-25T07:51:32.531Z</time></trkpt><trkpt lat="43.8679117" lon="12.63056"><ele>128.33333333333334</ele><time>2026-04-25T07:51:34.532Z</time></trkpt><trkpt lat="43.8679217" lon="12.6306833"><ele>129.66666666666669</ele><time>2026-04-25T07:51:35.531Z</time></trkpt><trkpt lat="43.8679183" lon="12.6308033"><ele>131.0</ele><time>2026-04-25T07:51:36.532Z</time></trkpt><trkpt lat="43.8679033" lon="12.6309133"><ele>132.33333333333334</ele><time>2026-04-25T07:51:37.532Z</time></trkpt><trkpt lat="43.8678817" lon="12.631025"><ele>133.66666666666666</ele><time>2026-04-25T07:51:38.532Z</time></trkpt><trkpt lat="43.867845" lon="12.6311367"><ele>135.0</ele><time>2026-04-25T07:51:39.533Z</time></trkpt><trkpt lat="43.8678033" lon="12.6312483"><ele>137.8</ele><time>2026-04-25T07:51:40.531Z</time></trkpt><trkpt lat="43.86776" lon="12.631365"><ele>140.6</ele><time>2026-04-25T07:51:41.532Z</time></trkpt><trkpt lat="43.86772" lon="12.631485"><ele>143.4</ele><time>2026-04-25T07:51:42.531Z</time></trkpt><trkpt lat="43.8676817" lon="12.6316067"><ele>146.2</ele><time>2026-04-25T07:51:43.535Z</time></trkpt><trkpt lat="43.8676383" lon="12.63172"><ele>149.0</ele><time>2026-04-25T07:51:44.535Z</time></trkpt><trkpt lat="43.86759" lon="12.6318317"><ele>152.2</ele><time>2026-04-25T07:51:45.536Z</time></trkpt><trkpt lat="43.867545" lon="12.6319483"><ele>155.4</ele><time>2026-04-25T07:51:46.535Z</time></trkpt><trkpt lat="43.8674867" lon="12.632075"><ele>158.6</ele><time>2026-04-25T07:51:47.532Z</time></trkpt><trkpt lat="43.8674283" lon="12.63219"><ele>161.8</ele><time>2026-04-25T07:51:48.533Z</time></trkpt><trkpt lat="43.8673683" lon="12.632295"><ele>165.0</ele><time>2026-04-25T07:51:49.534Z</time></trkpt><trkpt lat="43.8673067" lon="12.6323867"><ele>169.25</ele><time>2026-04-25T07:51:50.531Z</time></trkpt><trkpt lat="43.8672467" lon="12.632485"><ele>173.5</ele><time>2026-04-25T07:51:51.535Z</time></trkpt><trkpt lat="43.8671867" lon="12.632605"><ele>177.75</ele><time>2026-04-25T07:51:52.533Z</time></trkpt><trkpt lat="43.8671333" lon="12.63273"><ele>182.0</ele><time>2026-04-25T07:51:53.533Z</time></trkpt><trkpt lat="43.8670283" lon="12.6329667"><ele>182.8</ele><time>2026-04-25T07:51:55.534Z</time></trkpt><trkpt lat="43.8669667" lon="12.6330633"><ele>183.6</ele><time>2026-04-25T07:51:56.532Z</time></trkpt><trkpt lat="43.8669" lon="12.6331417"><ele>184.4</ele><time>2026-04-25T07:51:57.534Z</time></trkpt><trkpt lat="43.8668183" lon="12.6332067"><ele>185.20000000000002</ele><time>2026-04-25T07:51:58.533Z</time></trkpt><trkpt lat="43.8667283" lon="12.633265"><ele>186.0</ele><time>2026-04-25T07:51:59.533Z</time></trkpt><trkpt lat="43.86663" lon="12.6333367"><ele>187.75</ele><time>2026-04-25T07:52:00.532Z</time></trkpt><trkpt lat="43.86653" lon="12.633415"><ele>189.5</ele><time>2026-04-25T07:52:01.538Z</time></trkpt><trkpt lat="43.866435" lon="12.6334983"><ele>191.25</ele><time>2026-04-25T07:52:02.533Z</time></trkpt><trkpt lat="43.8663367" lon="12.6335817"><ele>193.0</ele><time>2026-04-25T07:52:03.534Z</time></trkpt><trkpt lat="43.8662367" lon="12.63366"><ele>193.0</ele><time>2026-04-25T07:52:04.533Z</time></trkpt><trkpt lat="43.8661367" lon="12.6337317"><ele>193.0</ele><time>2026-04-25T07:52:05.533Z</time></trkpt><trkpt lat="43.86604" lon="12.63379"><ele>193.0</ele><time>2026-04-25T07:52:06.535Z</time></trkpt><trkpt lat="43.8659483" lon="12.63385"><ele>193.0</ele><time>2026-04-25T07:52:07.536Z</time></trkpt><trkpt lat="43.8658617" lon="12.6339083"><ele>193.0</ele><time>2026-04-25T07:52:08.533Z</time></trkpt><trkpt lat="43.8657767" lon="12.6339717"><ele>196.2</ele><time>2026-04-25T07:52:09.534Z</time></trkpt><trkpt lat="43.865695" lon="12.6340433"><ele>199.4</ele><time>2026-04-25T07:52:10.533Z</time></trkpt><trkpt lat="43.86561" lon="12.634115"><ele>202.6</ele><time>2026-04-25T07:52:11.533Z</time></trkpt><trkpt lat="43.8655317" lon="12.63419"><ele>205.79999999999998</ele><time>2026-04-25T07:52:12.533Z</time></trkpt><trkpt lat="43.865455" lon="12.6342667"><ele>209.0</ele><time>2026-04-25T07:52:13.535Z</time></trkpt><trkpt lat="43.8653817" lon="12.6343383"><ele>209.6</ele><time>2026-04-25T07:52:14.534Z</time></trkpt><trkpt lat="43.86525" lon="12.6344833"><ele>210.2</ele><time>2026-04-25T07:52:16.535Z</time></trkpt><trkpt lat="43.8651917" lon="12.6345583"><ele>210.79999999999998</ele><time>2026-04-25T07:52:17.53Z</time></trkpt><trkpt lat="43.8651267" lon="12.634645"><ele>211.39999999999998</ele><time>2026-04-25T07:52:18.533Z</time></trkpt><trkpt lat="43.8650667" lon="12.6347283"><ele>212.0</ele><time>2026-04-25T07:52:19.532Z</time></trkpt><trkpt lat="43.8649933" lon="12.6348217"><ele>212.0</ele><time>2026-04-25T07:52:20.531Z</time></trkpt><trkpt lat="43.8649167" lon="12.6349183"><ele>212.0</ele><time>2026-04-25T07:52:21.532Z</time></trkpt><trkpt lat="43.8648433" lon="12.6350167"><ele>212.0</ele><time>2026-04-25T07:52:22.533Z</time></trkpt><trkpt lat="43.8647733" lon="12.63512"><ele>212.0</ele><time>2026-04-25T07:52:23.531Z</time></trkpt><trkpt lat="43.8646983" lon="12.6352217"><ele>212.0</ele><time>2026-04-25T07:52:24.532Z</time></trkpt><trkpt lat="43.864625" lon="12.635325"><ele>211.39999999999998</ele><time>2026-04-25T07:52:25.533Z</time></trkpt><trkpt lat="43.8645517" lon="12.6354317"><ele>210.79999999999998</ele><time>2026-04-25T07:52:26.531Z</time></trkpt><trkpt lat="43.8644783" lon="12.63554"><ele>210.2</ele><time>2026-04-25T07:52:27.531Z</time></trkpt><trkpt lat="43.8644067" lon="12.6356467"><ele>209.6</ele><time>2026-04-25T07:52:28.535Z</time></trkpt><trkpt lat="43.8643317" lon="12.6357617"><ele>209.0</ele><time>2026-04-25T07:52:29.535Z</time></trkpt><trkpt lat="43.8642617" lon="12.6358717"><ele>210.6</ele><time>2026-04-25T07:52:30.532Z</time></trkpt><trkpt lat="43.8641933" lon="12.635985"><ele>212.2</ele><time>2026-04-25T07:52:31.533Z</time></trkpt><trkpt lat="43.8641267" lon="12.6361"><ele>213.79999999999998</ele><time>2026-04-25T07:52:32.532Z</time></trkpt><trkpt lat="43.86405" lon="12.6362183"><ele>215.39999999999998</ele><time>2026-04-25T07:52:33.533Z</time></trkpt><trkpt lat="43.86398" lon="12.6363383"><ele>217.0</ele><time>2026-04-25T07:52:34.532Z</time></trkpt><trkpt lat="43.86391" lon="12.636455"><ele>217.5</ele><time>2026-04-25T07:52:35.533Z</time></trkpt><trkpt lat="43.8637667" lon="12.6366667"><ele>218.0</ele><time>2026-04-25T07:52:37.535Z</time></trkpt><trkpt lat="43.8636933" lon="12.63675"><ele>218.5</ele><time>2026-04-25T07:52:38.531Z</time></trkpt><trkpt lat="43.86362" lon="12.6368217"><ele>219.0</ele><time>2026-04-25T07:52:39.533Z</time></trkpt><trkpt lat="43.8635483" lon="12.6368833"><ele>219.0</ele><time>2026-04-25T07:52:40.532Z</time></trkpt><trkpt lat="43.8634767" lon="12.6369383"><ele>219.0</ele><time>2026-04-25T07:52:41.532Z</time></trkpt><trkpt lat="43.8634133" lon="12.63699"><ele>219.0</ele><time>2026-04-25T07:52:42.533Z</time></trkpt><trkpt lat="43.863305" lon="12.63708"><ele>219.0</ele><time>2026-04-25T07:52:44.534Z</time></trkpt><trkpt lat="43.8632467" lon="12.6371333"><ele>219.0</ele><time>2026-04-25T07:52:45.535Z</time></trkpt><trkpt lat="43.8631867" lon="12.6371967"><ele>219.0</ele><time>2026-04-25T07:52:46.531Z</time></trkpt><trkpt lat="43.8631267" lon="12.6372717"><ele>220.42857142857144</ele><time>2026-04-25T07:52:47.533Z</time></trkpt><trkpt lat="43.863075" lon="12.63735"><ele>221.85714285714283</ele><time>2026-04-25T07:52:48.533Z</time></trkpt><trkpt lat="43.8630283" lon="12.637425"><ele>223.28571428571428</ele><time>2026-04-25T07:52:49.532Z</time></trkpt><trkpt lat="43.8629917" lon="12.637505"><ele>224.71428571428572</ele><time>2026-04-25T07:52:50.532Z</time></trkpt><trkpt lat="43.8629617" lon="12.63759"><ele>226.14285714285717</ele><time>2026-04-25T07:52:51.532Z</time></trkpt><trkpt lat="43.8629283" lon="12.6376767"><ele>227.57142857142856</ele><time>2026-04-25T07:52:52.534Z</time></trkpt><trkpt lat="43.8628883" lon="12.63776"><ele>229.0</ele><time>2026-04-25T07:52:53.533Z</time></trkpt><trkpt lat="43.8628433" lon="12.63784"><ele>229.79999999999998</ele><time>2026-04-25T07:52:54.532Z</time></trkpt><trkpt lat="43.8627933" lon="12.6379083"><ele>230.59999999999997</ele><time>2026-04-25T07:52:55.534Z</time></trkpt><trkpt lat="43.86274" lon="12.6379717"><ele>231.4</ele><time>2026-04-25T07:52:56.533Z</time></trkpt><trkpt lat="43.862625" lon="12.6380983"><ele>232.2</ele><time>2026-04-25T07:52:58.533Z</time></trkpt><trkpt lat="43.8625617" lon="12.63817"><ele>233.0</ele><time>2026-04-25T07:52:59.534Z</time></trkpt><trkpt lat="43.8625" lon="12.6382517"><ele>234.66666666666669</ele><time>2026-04-25T07:53:00.535Z</time></trkpt><trkpt lat="43.862445" lon="12.6383433"><ele>236.33333333333334</ele><time>2026-04-25T07:53:01.535Z</time></trkpt><trkpt lat="43.8624" lon="12.638445"><ele>238.0</ele><time>2026-04-25T07:53:02.53Z</time></trkpt><trkpt lat="43.8623633" lon="12.638555"><ele>239.66666666666669</ele><time>2026-04-25T07:53:03.533Z</time></trkpt><trkpt lat="43.8623283" lon="12.63866"><ele>241.33333333333334</ele><time>2026-04-25T07:53:04.533Z</time></trkpt><trkpt lat="43.862285" lon="12.6387567"><ele>243.0</ele><time>2026-04-25T07:53:05.534Z</time></trkpt><trkpt lat="43.8622383" lon="12.6388483"><ele>244.16666666666666</ele><time>2026-04-25T07:53:06.532Z</time></trkpt><trkpt lat="43.8621817" lon="12.63894"><ele>245.33333333333331</ele><time>2026-04-25T07:53:07.532Z</time></trkpt><trkpt lat="43.8621217" lon="12.63903"><ele>246.5</ele><time>2026-04-25T07:53:08.534Z</time></trkpt><trkpt lat="43.8620583" lon="12.6391133"><ele>247.66666666666666</ele><time>2026-04-25T07:53:09.533Z</time></trkpt><trkpt lat="43.861995" lon="12.6391917"><ele>248.83333333333331</ele><time>2026-04-25T07:53:10.534Z</time></trkpt><trkpt lat="43.8619283" lon="12.6392717"><ele>250.0</ele><time>2026-04-25T07:53:11.534Z</time></trkpt><trkpt lat="43.86186" lon="12.6393533"><ele>249.99999999999997</ele><time>2026-04-25T07:53:12.534Z</time></trkpt><trkpt lat="43.8617933" lon="12.6394383"><ele>250.0</ele><time>2026-04-25T07:53:13.533Z</time></trkpt><trkpt lat="43.8617317" lon="12.6395217"><ele>250.0</ele><time>2026-04-25T07:53:14.535Z</time></trkpt><trkpt lat="43.8616683" lon="12.63961"><ele>250.0</ele><time>2026-04-25T07:53:15.534Z</time></trkpt><trkpt lat="43.8616167" lon="12.6396967"><ele>249.99999999999997</ele><time>2026-04-25T07:53:16.535Z</time></trkpt><trkpt lat="43.8615667" lon="12.6397867"><ele>250.0</ele><time>2026-04-25T07:53:17.531Z</time></trkpt><trkpt lat="43.861475" lon="12.6399817"><ele>250.83333333333331</ele><time>2026-04-25T07:53:19.532Z</time></trkpt><trkpt lat="43.8614283" lon="12.6400833"><ele>251.66666666666666</ele><time>2026-04-25T07:53:20.531Z</time></trkpt><trkpt lat="43.861375" lon="12.6401683"><ele>252.5</ele><time>2026-04-25T07:53:21.531Z</time></trkpt><trkpt lat="43.86132" lon="12.6402433"><ele>253.33333333333331</ele><time>2026-04-25T07:53:22.532Z</time></trkpt><trkpt lat="43.8612567" lon="12.6402917"><ele>254.16666666666666</ele><time>2026-04-25T07:53:23.533Z</time></trkpt><trkpt lat="43.8611833" lon="12.640325"><ele>255.0</ele><time>2026-04-25T07:53:24.531Z</time></trkpt><trkpt lat="43.8611067" lon="12.6403467"><ele>255.0</ele><time>2026-04-25T07:53:25.532Z</time></trkpt><trkpt lat="43.8610283" lon="12.64036"><ele>255.0</ele><time>2026-04-25T07:53:26.531Z</time></trkpt><trkpt lat="43.8609467" lon="12.6403683"><ele>255.0</ele><time>2026-04-25T07:53:27.531Z</time></trkpt><trkpt lat="43.860855" lon="12.6403783"><ele>255.0</ele><time>2026-04-25T07:53:28.534Z</time></trkpt><trkpt lat="43.8607617" lon="12.6403933"><ele>255.0</ele><time>2026-04-25T07:53:29.534Z</time></trkpt><trkpt lat="43.8606717" lon="12.6404117"><ele>255.0</ele><time>2026-04-25T07:53:30.535Z</time></trkpt><trkpt lat="43.8605783" lon="12.6404333"><ele>258.5</ele><time>2026-04-25T07:53:31.534Z</time></trkpt><trkpt lat="43.8604883" lon="12.6404567"><ele>262.0</ele><time>2026-04-25T07:53:32.534Z</time></trkpt><trkpt lat="43.8603983" lon="12.64049"><ele>265.5</ele><time>2026-04-25T07:53:33.534Z</time></trkpt><trkpt lat="43.8603167" lon="12.6405233"><ele>269.0</ele><time>2026-04-25T07:53:34.535Z</time></trkpt><trkpt lat="43.8602367" lon="12.6405567"><ele>272.5</ele><time>2026-04-25T07:53:35.53Z</time></trkpt><trkpt lat="43.8601517" lon="12.6405867"><ele>276.0</ele><time>2026-04-25T07:53:36.531Z</time></trkpt><trkpt lat="43.8600733" lon="12.6406033"><ele>279.8</ele><time>2026-04-25T07:53:37.534Z</time></trkpt><trkpt lat="43.859995" lon="12.6406033"><ele>283.6</ele><time>2026-04-25T07:53:38.533Z</time></trkpt><trkpt lat="43.859805" lon="12.6405733"><ele>287.4</ele><time>2026-04-25T07:53:41.532Z</time></trkpt><trkpt lat="43.8597467" lon="12.6405083"><ele>291.2</ele><time>2026-04-25T07:53:43.534Z</time></trkpt><trkpt lat="43.85979" lon="12.64044"><ele>295.0</ele><time>2026-04-25T07:53:46.535Z</time></trkpt><trkpt lat="43.8598233" lon="12.6403283"><ele>295.4</ele><time>2026-04-25T07:53:49.535Z</time></trkpt><trkpt lat="43.859805" lon="12.64023"><ele>295.8</ele><time>2026-04-25T07:58:27.532Z</time></trkpt><trkpt lat="43.8597033" lon="12.6400517"><ele>296.2</ele><time>2026-04-25T07:58:31.531Z</time></trkpt><trkpt lat="43.8596267" lon="12.639985"><ele>296.6</ele><time>2026-04-25T07:58:33.531Z</time></trkpt><trkpt lat="43.8595183" lon="12.63995"><ele>297.0</ele><time>2026-04-25T07:58:35.531Z</time></trkpt><trkpt lat="43.8594483" lon="12.63993"><ele>297.0</ele><time>2026-04-25T07:58:36.531Z</time></trkpt><trkpt lat="43.85933" lon="12.6399233"><ele>297.0</ele><time>2026-04-25T07:58:38.532Z</time></trkpt><trkpt lat="43.8592417" lon="12.639965"><ele>297.0</ele><time>2026-04-25T07:58:40.531Z</time></trkpt><trkpt lat="43.8591833" lon="12.6400317"><ele>297.0</ele><time>2026-04-25T07:58:44.534Z</time></trkpt><trkpt lat="43.8591517" lon="12.64011"><ele>297.0</ele><time>2026-04-25T07:58:46.531Z</time></trkpt><trkpt lat="43.8590933" lon="12.6402517"><ele>300.4</ele><time>2026-04-25T07:58:48.534Z</time></trkpt><trkpt lat="43.859" lon="12.64044"><ele>303.79999999999995</ele><time>2026-04-25T07:58:50.533Z</time></trkpt><trkpt lat="43.8589417" lon="12.6405467"><ele>307.2</ele><time>2026-04-25T07:58:51.533Z</time></trkpt><trkpt lat="43.8588833" lon="12.6406433"><ele>310.59999999999997</ele><time>2026-04-25T07:58:52.532Z</time></trkpt><trkpt lat="43.8588217" lon="12.6407317"><ele>314.0</ele><time>2026-04-25T07:58:53.535Z</time></trkpt><trkpt lat="43.8587483" lon="12.6408183"><ele>314.0</ele><time>2026-04-25T07:58:54.534Z</time></trkpt><trkpt lat="43.85866" lon="12.64089"><ele>314.0</ele><time>2026-04-25T07:58:55.536Z</time></trkpt><trkpt lat="43.8585683" lon="12.640945"><ele>314.0</ele><time>2026-04-25T07:58:56.534Z</time></trkpt><trkpt lat="43.8584833" lon="12.6410133"><ele>314.0</ele><time>2026-04-25T07:58:57.624Z</time></trkpt><trkpt lat="43.8583983" lon="12.6410767"><ele>314.0</ele><time>2026-04-25T07:58:58.532Z</time></trkpt><trkpt lat="43.8583217" lon="12.6411433"><ele>317.6</ele><time>2026-04-25T07:58:59.531Z</time></trkpt><trkpt lat="43.8582617" lon="12.641225"><ele>321.2</ele><time>2026-04-25T07:59:00.534Z</time></trkpt><trkpt lat="43.8582167" lon="12.6413117"><ele>324.8</ele><time>2026-04-25T07:59:01.535Z</time></trkpt><trkpt lat="43.8581683" lon="12.6414183"><ele>328.40000000000003</ele><time>2026-04-25T07:59:02.531Z</time></trkpt><trkpt lat="43.8581267" lon="12.6415433"><ele>332.0</ele><time>2026-04-25T07:59:03.531Z</time></trkpt><trkpt lat="43.8580817" lon="12.6416767"><ele>332.0</ele><time>2026-04-25T07:59:04.536Z</time></trkpt><trkpt lat="43.858035" lon="12.64182"><ele>332.0</ele><time>2026-04-25T07:59:05.531Z</time></trkpt><trkpt lat="43.8579867" lon="12.6419733"><ele>332.0</ele><time>2026-04-25T07:59:06.532Z</time></trkpt><trkpt lat="43.8579383" lon="12.6421333"><ele>332.0</ele><time>2026-04-25T07:59:07.535Z</time></trkpt><trkpt lat="43.8578917" lon="12.6423017"><ele>332.0</ele><time>2026-04-25T07:59:08.535Z</time></trkpt><trkpt lat="43.8578483" lon="12.6424783"><ele>332.0</ele><time>2026-04-25T07:59:09.531Z</time></trkpt><trkpt lat="43.8577617" lon="12.642805"><ele>332.0</ele><time>2026-04-25T07:59:11.531Z</time></trkpt><trkpt lat="43.857725" lon="12.6429483"><ele>331.0</ele><time>2026-04-25T07:59:12.534Z</time></trkpt><trkpt lat="43.8576833" lon="12.6430983"><ele>330.0</ele><time>2026-04-25T07:59:13.535Z</time></trkpt><trkpt lat="43.857645" lon="12.6432583"><ele>329.0</ele><time>2026-04-25T07:59:14.531Z</time></trkpt><trkpt lat="43.857605" lon="12.64343"><ele>328.0</ele><time>2026-04-25T07:59:15.536Z</time></trkpt><trkpt lat="43.8575767" lon="12.6436133"><ele>334.0</ele><time>2026-04-25T07:59:16.534Z</time></trkpt><trkpt lat="43.8575417" lon="12.6438"><ele>340.0</ele><time>2026-04-25T07:59:17.531Z</time></trkpt><trkpt lat="43.857515" lon="12.643985"><ele>346.0</ele><time>2026-04-25T07:59:18.531Z</time></trkpt><trkpt lat="43.85748" lon="12.644155"><ele>352.0</ele><time>2026-04-25T07:59:19.535Z</time></trkpt><trkpt lat="43.8574383" lon="12.644305"><ele>352.0</ele><time>2026-04-25T07:59:20.531Z</time></trkpt><trkpt lat="43.8573883" lon="12.644425"><ele>352.0</ele><time>2026-04-25T07:59:21.533Z</time></trkpt><trkpt lat="43.8573333" lon="12.6445233"><ele>352.0</ele><time>2026-04-25T07:59:22.532Z</time></trkpt><trkpt lat="43.85729" lon="12.6446083"><ele>352.0</ele><time>2026-04-25T07:59:23.534Z</time></trkpt><trkpt lat="43.8572683" lon="12.644695"><ele>352.0</ele><time>2026-04-25T07:59:24.53Z</time></trkpt><trkpt lat="43.857265" lon="12.6447867"><ele>352.0</ele><time>2026-04-25T07:59:25.535Z</time></trkpt><trkpt lat="43.8572783" lon="12.6448917"><ele>352.25</ele><time>2026-04-25T07:59:26.533Z</time></trkpt><trkpt lat="43.85731" lon="12.645035"><ele>352.5</ele><time>2026-04-25T07:59:27.533Z</time></trkpt><trkpt lat="43.8573517" lon="12.64522"><ele>352.75</ele><time>2026-04-25T07:59:28.534Z</time></trkpt><trkpt lat="43.8573883" lon="12.6454083"><ele>353.0</ele><time>2026-04-25T07:59:29.534Z</time></trkpt><trkpt lat="43.8574117" lon="12.6455867"><ele>352.6666666666667</ele><time>2026-04-25T07:59:30.532Z</time></trkpt><trkpt lat="43.8574483" lon="12.64593"><ele>352.3333333333333</ele><time>2026-04-25T07:59:32.53Z</time></trkpt><trkpt lat="43.8574467" lon="12.6460817"><ele>352.0</ele><time>2026-04-25T07:59:33.534Z</time></trkpt><trkpt lat="43.85744" lon="12.646215"><ele>352.0</ele><time>2026-04-25T07:59:34.531Z</time></trkpt><trkpt lat="43.8574367" lon="12.6463183"><ele>352.0</ele><time>2026-04-25T07:59:35.53Z</time></trkpt><trkpt lat="43.857405" lon="12.6464633"><ele>352.0</ele><time>2026-04-25T07:59:37.534Z</time></trkpt><trkpt lat="43.85733" lon="12.6465417"><ele>352.0</ele><time>2026-04-25T07:59:39.531Z</time></trkpt><trkpt lat="43.857215" lon="12.6465633"><ele>352.0</ele><time>2026-04-25T07:59:41.535Z</time></trkpt><trkpt lat="43.8571117" lon="12.6465533"><ele>352.0</ele><time>2026-04-25T07:59:43.531Z</time></trkpt><trkpt lat="43.8570483" lon="12.64652"><ele>352.0</ele><time>2026-04-25T07:59:45.53Z</time></trkpt><trkpt lat="43.8570783" lon="12.646375"><ele>352.0</ele><time>2026-04-25T07:59:47.531Z</time></trkpt><trkpt lat="43.8571117" lon="12.646245"><ele>352.0</ele><time>2026-04-25T07:59:48.532Z</time></trkpt><trkpt lat="43.8571283" lon="12.646075"><ele>352.0</ele><time>2026-04-25T07:59:49.533Z</time></trkpt><trkpt lat="43.8570933" lon="12.6458267"><ele>352.5</ele><time>2026-04-25T07:59:50.531Z</time></trkpt><trkpt lat="43.857055" lon="12.6455933"><ele>353.0</ele><time>2026-04-25T07:59:51.53Z</time></trkpt><trkpt lat="43.8569533" lon="12.6452217"><ele>353.0</ele><time>2026-04-25T07:59:53.531Z</time></trkpt><trkpt lat="43.8568983" lon="12.6450517"><ele>353.0</ele><time>2026-04-25T07:59:54.531Z</time></trkpt><trkpt lat="43.8568383" lon="12.6448833"><ele>353.0</ele><time>2026-04-25T07:59:55.531Z</time></trkpt><trkpt lat="43.856755" lon="12.6447417"><ele>353.0</ele><time>2026-04-25T07:59:56.531Z</time></trkpt><trkpt lat="43.8566467" lon="12.6446317"><ele>353.75</ele><time>2026-04-25T07:59:57.53Z</time></trkpt><trkpt lat="43.85653" lon="12.6445267"><ele>354.5</ele><time>2026-04-25T07:59:58.533Z</time></trkpt><trkpt lat="43.856415" lon="12.6444183"><ele>355.25</ele><time>2026-04-25T07:59:59.53Z</time></trkpt><trkpt lat="43.8563183" lon="12.6442917"><ele>356.0</ele><time>2026-04-25T08:00:00.532Z</time></trkpt><trkpt lat="43.85623" lon="12.6441567"><ele>356.0</ele><time>2026-04-25T08:00:01.533Z</time></trkpt><trkpt lat="43.8561317" lon="12.6440367"><ele>356.0</ele><time>2026-04-25T08:00:02.53Z</time></trkpt><trkpt lat="43.8560183" lon="12.6439367"><ele>356.0</ele><time>2026-04-25T08:00:03.531Z</time></trkpt><trkpt lat="43.8558833" lon="12.643865"><ele>356.0</ele><time>2026-04-25T08:00:04.534Z</time></trkpt><trkpt lat="43.85575" lon="12.6438133"><ele>354.25</ele><time>2026-04-25T08:00:05.531Z</time></trkpt><trkpt lat="43.855625" lon="12.6437633"><ele>352.5</ele><time>2026-04-25T08:00:06.531Z</time></trkpt><trkpt lat="43.8555217" lon="12.6437017"><ele>350.75</ele><time>2026-04-25T08:00:07.532Z</time></trkpt><trkpt lat="43.8554383" lon="12.643605"><ele>349.0</ele><time>2026-04-25T08:00:08.531Z</time></trkpt><trkpt lat="43.8553883" lon="12.6434733"><ele>349.0</ele><time>2026-04-25T08:00:09.534Z</time></trkpt><trkpt lat="43.855355" lon="12.6433033"><ele>349.0</ele><time>2026-04-25T08:00:10.532Z</time></trkpt><trkpt lat="43.8553317" lon="12.6430833"><ele>349.0</ele><time>2026-04-25T08:00:11.533Z</time></trkpt><trkpt lat="43.855295" lon="12.6428717"><ele>349.0</ele><time>2026-04-25T08:00:12.532Z</time></trkpt><trkpt lat="43.8551717" lon="12.6424567"><ele>347.5</ele><time>2026-04-25T08:00:14.532Z</time></trkpt><trkpt lat="43.8550983" lon="12.642275"><ele>346.0</ele><time>2026-04-25T08:00:15.534Z</time></trkpt><trkpt lat="43.85503" lon="12.6421117"><ele>344.5</ele><time>2026-04-25T08:00:16.534Z</time></trkpt><trkpt lat="43.8549483" lon="12.64196"><ele>343.0</ele><time>2026-04-25T08:00:17.535Z</time></trkpt><trkpt lat="43.854855" lon="12.6418317"><ele>343.0</ele><time>2026-04-25T08:00:18.533Z</time></trkpt><trkpt lat="43.8547533" lon="12.6417233"><ele>343.0</ele><time>2026-04-25T08:00:19.532Z</time></trkpt><trkpt lat="43.8546583" lon="12.6416217"><ele>343.0</ele><time>2026-04-25T08:00:20.531Z</time></trkpt><trkpt lat="43.8545817" lon="12.641505"><ele>343.0</ele><time>2026-04-25T08:00:21.534Z</time></trkpt><trkpt lat="43.854515" lon="12.6413783"><ele>343.0</ele><time>2026-04-25T08:00:22.534Z</time></trkpt><trkpt lat="43.8544733" lon="12.64123"><ele>343.0</ele><time>2026-04-25T08:00:23.534Z</time></trkpt><trkpt lat="43.85445" lon="12.6410717"><ele>343.0</ele><time>2026-04-25T08:00:24.531Z</time></trkpt><trkpt lat="43.8544467" lon="12.640905"><ele>343.0</ele><time>2026-04-25T08:00:25.532Z</time></trkpt><trkpt lat="43.8544433" lon="12.6407383"><ele>346.0</ele><time>2026-04-25T08:00:26.534Z</time></trkpt><trkpt lat="43.8544367" lon="12.640565"><ele>349.0</ele><time>2026-04-25T08:00:27.532Z</time></trkpt><trkpt lat="43.8544017" lon="12.6403933"><ele>352.0</ele><time>2026-04-25T08:00:28.531Z</time></trkpt><trkpt lat="43.8543383" lon="12.6402283"><ele>355.0</ele><time>2026-04-25T08:00:29.53Z</time></trkpt><trkpt lat="43.8542483" lon="12.640065"><ele>350.5</ele><time>2026-04-25T08:00:30.531Z</time></trkpt><trkpt lat="43.8541633" lon="12.639895"><ele>346.0</ele><time>2026-04-25T08:00:31.535Z</time></trkpt><trkpt lat="43.85407" lon="12.6397317"><ele>341.5</ele><time>2026-04-25T08:00:32.532Z</time></trkpt><trkpt lat="43.8539917" lon="12.6395617"><ele>337.0</ele><time>2026-04-25T08:00:33.535Z</time></trkpt><trkpt lat="43.8538317" lon="12.6392367"><ele>337.0</ele><time>2026-04-25T08:00:35.534Z</time></trkpt><trkpt lat="43.853755" lon="12.63909"><ele>337.0</ele><time>2026-04-25T08:00:36.533Z</time></trkpt><trkpt lat="43.8536833" lon="12.63895"><ele>337.0</ele><time>2026-04-25T08:00:37.533Z</time></trkpt><trkpt lat="43.8536233" lon="12.6388083"><ele>337.0</ele><time>2026-04-25T08:00:38.533Z</time></trkpt><trkpt lat="43.85359" lon="12.63866"><ele>334.6</ele><time>2026-04-25T08:00:39.533Z</time></trkpt><trkpt lat="43.8535883" lon="12.63852"><ele>332.20000000000005</ele><time>2026-04-25T08:00:40.533Z</time></trkpt><trkpt lat="43.8536067" lon="12.6383867"><ele>329.8</ele><time>2026-04-25T08:00:41.532Z</time></trkpt><trkpt lat="43.8536817" lon="12.6382767"><ele>327.4</ele><time>2026-04-25T08:00:42.533Z</time></trkpt><trkpt lat="43.8537833" lon="12.638205"><ele>325.0</ele><time>2026-04-25T08:00:43.532Z</time></trkpt><trkpt lat="43.8539183" lon="12.638195"><ele>325.0</ele><time>2026-04-25T08:00:44.534Z</time></trkpt><trkpt lat="43.8540733" lon="12.6382333"><ele>325.0</ele><time>2026-04-25T08:00:45.534Z</time></trkpt><trkpt lat="43.8542167" lon="12.6383017"><ele>325.0</ele><time>2026-04-25T08:00:46.532Z</time></trkpt><trkpt lat="43.854345" lon="12.638365"><ele>325.0</ele><time>2026-04-25T08:00:47.531Z</time></trkpt><trkpt lat="43.8544633" lon="12.638405"><ele>327.25</ele><time>2026-04-25T08:00:48.535Z</time></trkpt><trkpt lat="43.854585" lon="12.63843"><ele>329.5</ele><time>2026-04-25T08:00:49.537Z</time></trkpt><trkpt lat="43.854695" lon="12.638405"><ele>331.75</ele><time>2026-04-25T08:00:50.534Z</time></trkpt><trkpt lat="43.8547917" lon="12.6383417"><ele>334.0</ele><time>2026-04-25T08:00:51.534Z</time></trkpt><trkpt lat="43.85487" lon="12.6382383"><ele>334.0</ele><time>2026-04-25T08:00:52.534Z</time></trkpt><trkpt lat="43.854925" lon="12.6380633"><ele>334.0</ele><time>2026-04-25T08:00:53.531Z</time></trkpt><trkpt lat="43.8549833" lon="12.6378883"><ele>334.0</ele><time>2026-04-25T08:00:54.534Z</time></trkpt><trkpt lat="43.8550967" lon="12.6375167"><ele>334.75</ele><time>2026-04-25T08:00:56.531Z</time></trkpt><trkpt lat="43.8551567" lon="12.6373367"><ele>335.5</ele><time>2026-04-25T08:00:57.53Z</time></trkpt><trkpt lat="43.8552167" lon="12.637155"><ele>336.25</ele><time>2026-04-25T08:00:58.534Z</time></trkpt><trkpt lat="43.8552567" lon="12.6369817"><ele>337.0</ele><time>2026-04-25T08:00:59.533Z</time></trkpt><trkpt lat="43.8552783" lon="12.6368067"><ele>335.5</ele><time>2026-04-25T08:01:00.532Z</time></trkpt><trkpt lat="43.8552783" lon="12.636625"><ele>334.0</ele><time>2026-04-25T08:01:01.531Z</time></trkpt><trkpt lat="43.8552517" lon="12.63645"><ele>332.5</ele><time>2026-04-25T08:01:02.53Z</time></trkpt><trkpt lat="43.8551933" lon="12.63627"><ele>331.0</ele><time>2026-04-25T08:01:03.531Z</time></trkpt><trkpt lat="43.8551133" lon="12.6360917"><ele>324.3333333333333</ele><time>2026-04-25T08:01:04.534Z</time></trkpt><trkpt lat="43.8550183" lon="12.6359167"><ele>317.6666666666667</ele><time>2026-04-25T08:01:05.531Z</time></trkpt><trkpt lat="43.85492" lon="12.6357483"><ele>311.0</ele><time>2026-04-25T08:01:06.531Z</time></trkpt><trkpt lat="43.8548283" lon="12.6355667"><ele>311.0</ele><time>2026-04-25T08:01:07.532Z</time></trkpt><trkpt lat="43.8547417" lon="12.6353667"><ele>311.0</ele><time>2026-04-25T08:01:08.531Z</time></trkpt><trkpt lat="43.85467" lon="12.6351583"><ele>311.0</ele><time>2026-04-25T08:01:09.533Z</time></trkpt><trkpt lat="43.8546017" lon="12.6349517"><ele>311.33333333333337</ele><time>2026-04-25T08:01:10.533Z</time></trkpt><trkpt lat="43.8545467" lon="12.63475"><ele>311.6666666666667</ele><time>2026-04-25T08:01:11.534Z</time></trkpt><trkpt lat="43.8545067" lon="12.6345467"><ele>312.0</ele><time>2026-04-25T08:01:12.531Z</time></trkpt><trkpt lat="43.8544817" lon="12.6343467"><ele>309.5</ele><time>2026-04-25T08:01:13.534Z</time></trkpt><trkpt lat="43.8544667" lon="12.6341633"><ele>307.0</ele><time>2026-04-25T08:01:14.534Z</time></trkpt><trkpt lat="43.8544583" lon="12.6340083"><ele>304.5</ele><time>2026-04-25T08:01:15.535Z</time></trkpt><trkpt lat="43.8544683" lon="12.633755"><ele>302.0</ele><time>2026-04-25T08:01:17.532Z</time></trkpt><trkpt lat="43.8544983" lon="12.6336517"><ele>299.83333333333337</ele><time>2026-04-25T08:01:18.532Z</time></trkpt><trkpt lat="43.8546117" lon="12.6335767"><ele>297.6666666666667</ele><time>2026-04-25T08:01:20.532Z</time></trkpt><trkpt lat="43.8546817" lon="12.633545"><ele>295.5</ele><time>2026-04-25T08:01:21.534Z</time></trkpt><trkpt lat="43.8547517" lon="12.633515"><ele>293.3333333333333</ele><time>2026-04-25T08:01:22.533Z</time></trkpt><trkpt lat="43.8547867" lon="12.6334233"><ele>291.16666666666663</ele><time>2026-04-25T08:01:24.534Z</time></trkpt><trkpt lat="43.8547367" lon="12.6333617"><ele>289.0</ele><time>2026-04-25T08:01:25.535Z</time></trkpt><trkpt lat="43.8546283" lon="12.6332867"><ele>289.0</ele><time>2026-04-25T08:01:26.531Z</time></trkpt><trkpt lat="43.8545067" lon="12.63323"><ele>289.0</ele><time>2026-04-25T08:01:27.533Z</time></trkpt><trkpt lat="43.85434" lon="12.633175"><ele>289.0</ele><time>2026-04-25T08:01:28.533Z</time></trkpt><trkpt lat="43.8542067" lon="12.6331433"><ele>289.0</ele><time>2026-04-25T08:01:29.533Z</time></trkpt><trkpt lat="43.85408" lon="12.63312"><ele>288.2</ele><time>2026-04-25T08:01:30.534Z</time></trkpt><trkpt lat="43.8539667" lon="12.633145"><ele>287.4</ele><time>2026-04-25T08:01:31.535Z</time></trkpt><trkpt lat="43.8538783" lon="12.63321"><ele>286.6</ele><time>2026-04-25T08:01:32.532Z</time></trkpt><trkpt lat="43.853815" lon="12.6333033"><ele>285.8</ele><time>2026-04-25T08:01:33.534Z</time></trkpt><trkpt lat="43.85376" lon="12.6334017"><ele>285.0</ele><time>2026-04-25T08:01:34.534Z</time></trkpt><trkpt lat="43.853705" lon="12.63348"><ele>285.0</ele><time>2026-04-25T08:01:35.534Z</time></trkpt><trkpt lat="43.8536033" lon="12.6335017"><ele>285.0</ele><time>2026-04-25T08:01:37.534Z</time></trkpt><trkpt lat="43.853505" lon="12.6332617"><ele>285.0</ele><time>2026-04-25T08:01:39.535Z</time></trkpt><trkpt lat="43.8534867" lon="12.6330817"><ele>285.0</ele><time>2026-04-25T08:01:40.533Z</time></trkpt><trkpt lat="43.8534767" lon="12.6329133"><ele>283.0</ele><time>2026-04-25T08:01:41.532Z</time></trkpt><trkpt lat="43.853465" lon="12.6327783"><ele>281.0</ele><time>2026-04-25T08:01:42.534Z</time></trkpt><trkpt lat="43.8534567" lon="12.632665"><ele>279.0</ele><time>2026-04-25T08:01:43.534Z</time></trkpt><trkpt lat="43.8534367" lon="12.632535"><ele>277.0</ele><time>2026-04-25T08:01:45.534Z</time></trkpt><trkpt lat="43.8533583" lon="12.6326533"><ele>275.0</ele><time>2026-04-25T08:01:48.533Z</time></trkpt><trkpt lat="43.8533133" lon="12.63277"><ele>273.6</ele><time>2026-04-25T08:01:49.535Z</time></trkpt><trkpt lat="43.8532767" lon="12.6328983"><ele>272.2</ele><time>2026-04-25T08:01:50.535Z</time></trkpt><trkpt lat="43.8532417" lon="12.6330283"><ele>270.8</ele><time>2026-04-25T08:01:51.534Z</time></trkpt><trkpt lat="43.8532083" lon="12.63316"><ele>269.4</ele><time>2026-04-25T08:01:52.531Z</time></trkpt><trkpt lat="43.8531883" lon="12.6333017"><ele>268.0</ele><time>2026-04-25T08:01:53.532Z</time></trkpt><trkpt lat="43.8531867" lon="12.633465"><ele>268.0</ele><time>2026-04-25T08:01:54.532Z</time></trkpt><trkpt lat="43.853185" lon="12.6336283"><ele>268.0</ele><time>2026-04-25T08:01:55.531Z</time></trkpt><trkpt lat="43.8531683" lon="12.63379"><ele>268.0</ele><time>2026-04-25T08:01:56.534Z</time></trkpt><trkpt lat="43.8531417" lon="12.6339583"><ele>268.0</ele><time>2026-04-25T08:01:57.531Z</time></trkpt><trkpt lat="43.8531117" lon="12.63413"><ele>268.0</ele><time>2026-04-25T08:01:58.531Z</time></trkpt><trkpt lat="43.85306" lon="12.63444"><ele>268.0</ele><time>2026-04-25T08:02:00.533Z</time></trkpt><trkpt lat="43.8530467" lon="12.6345733"><ele>268.0</ele><time>2026-04-25T08:02:01.531Z</time></trkpt><trkpt lat="43.8530417" lon="12.6346767"><ele>268.0</ele><time>2026-04-25T08:02:02.532Z</time></trkpt><trkpt lat="43.8530033" lon="12.6348033"><ele>268.0</ele><time>2026-04-25T08:02:04.531Z</time></trkpt><trkpt lat="43.8529167" lon="12.6348317"><ele>268.0</ele><time>2026-04-25T08:02:06.534Z</time></trkpt><trkpt lat="43.852845" lon="12.6348283"><ele>268.0</ele><time>2026-04-25T08:02:07.532Z</time></trkpt><trkpt lat="43.8527783" lon="12.6348217"><ele>268.0</ele><time>2026-04-25T08:02:08.534Z</time></trkpt><trkpt lat="43.8527033" lon="12.63482"><ele>268.0</ele><time>2026-04-25T08:02:09.535Z</time></trkpt><trkpt lat="43.852625" lon="12.6348133"><ele>268.0</ele><time>2026-04-25T08:02:10.533Z</time></trkpt><trkpt lat="43.8525467" lon="12.6348067"><ele>266.16666666666663</ele><time>2026-04-25T08:02:11.533Z</time></trkpt><trkpt lat="43.8524667" lon="12.6347983"><ele>264.3333333333333</ele><time>2026-04-25T08:02:12.535Z</time></trkpt><trkpt lat="43.8523883" lon="12.6347883"><ele>262.5</ele><time>2026-04-25T08:02:13.535Z</time></trkpt><trkpt lat="43.8523083" lon="12.6347767"><ele>260.6666666666667</ele><time>2026-04-25T08:02:14.531Z</time></trkpt><trkpt lat="43.8522183" lon="12.6347717"><ele>258.83333333333337</ele><time>2026-04-25T08:02:15.531Z</time></trkpt><trkpt lat="43.85213" lon="12.6347717"><ele>257.0</ele><time>2026-04-25T08:02:16.534Z</time></trkpt><trkpt lat="43.8520467" lon="12.6347783"><ele>257.0</ele><time>2026-04-25T08:02:17.533Z</time></trkpt><trkpt lat="43.85197" lon="12.6347933"><ele>257.0</ele><time>2026-04-25T08:02:18.534Z</time></trkpt><trkpt lat="43.8519033" lon="12.6348133"><ele>257.0</ele><time>2026-04-25T08:02:19.534Z</time></trkpt><trkpt lat="43.8517417" lon="12.634835"><ele>257.0</ele><time>2026-04-25T08:02:21.534Z</time></trkpt><trkpt lat="43.8516517" lon="12.6348433"><ele>257.0</ele><time>2026-04-25T08:02:22.534Z</time></trkpt><trkpt lat="43.8515567" lon="12.6348467"><ele>255.00000000000003</ele><time>2026-04-25T08:02:23.532Z</time></trkpt><trkpt lat="43.8514617" lon="12.63485"><ele>253.0</ele><time>2026-04-25T08:02:24.531Z</time></trkpt><trkpt lat="43.85137" lon="12.634855"><ele>251.0</ele><time>2026-04-25T08:02:25.533Z</time></trkpt><trkpt lat="43.8512783" lon="12.6348617"><ele>249.0</ele><time>2026-04-25T08:02:26.532Z</time></trkpt><trkpt lat="43.8511967" lon="12.6348617"><ele>247.00000000000003</ele><time>2026-04-25T08:02:27.533Z</time></trkpt><trkpt lat="43.8511233" lon="12.63486"><ele>245.0</ele><time>2026-04-25T08:02:28.531Z</time></trkpt><trkpt lat="43.8510583" lon="12.6348533"><ele>241.6</ele><time>2026-04-25T08:02:29.532Z</time></trkpt><trkpt lat="43.8509367" lon="12.6348017"><ele>238.2</ele><time>2026-04-25T08:02:31.532Z</time></trkpt><trkpt lat="43.8508817" lon="12.6347583"><ele>234.8</ele><time>2026-04-25T08:02:32.531Z</time></trkpt><trkpt lat="43.8507917" lon="12.634675"><ele>231.4</ele><time>2026-04-25T08:02:34.532Z</time></trkpt><trkpt lat="43.8507133" lon="12.6345817"><ele>228.0</ele><time>2026-04-25T08:02:36.533Z</time></trkpt><trkpt lat="43.8506583" lon="12.6344517"><ele>226.8</ele><time>2026-04-25T08:02:38.531Z</time></trkpt><trkpt lat="43.8506767" lon="12.6343083"><ele>225.60000000000002</ele><time>2026-04-25T08:02:40.534Z</time></trkpt><trkpt lat="43.8506817" lon="12.6340433"><ele>224.39999999999998</ele><time>2026-04-25T08:02:43.533Z</time></trkpt><trkpt lat="43.8506583" lon="12.6339483"><ele>223.2</ele><time>2026-04-25T08:02:44.534Z</time></trkpt><trkpt lat="43.8506117" lon="12.63387"><ele>222.0</ele><time>2026-04-25T08:02:45.536Z</time></trkpt><trkpt lat="43.8505467" lon="12.6338067"><ele>222.0</ele><time>2026-04-25T08:02:46.533Z</time></trkpt><trkpt lat="43.850475" lon="12.63375"><ele>222.0</ele><time>2026-04-25T08:02:47.536Z</time></trkpt><trkpt lat="43.8504" lon="12.6337017"><ele>222.0</ele><time>2026-04-25T08:02:48.531Z</time></trkpt><trkpt lat="43.850325" lon="12.6336717"><ele>222.0</ele><time>2026-04-25T08:02:49.533Z</time></trkpt><trkpt lat="43.8502083" lon="12.6336733"><ele>222.0</ele><time>2026-04-25T08:02:51.536Z</time></trkpt><trkpt lat="43.85014" lon="12.63367"><ele>222.0</ele><time>2026-04-25T08:02:52.534Z</time></trkpt><trkpt lat="43.850075" lon="12.6336633"><ele>218.33333333333334</ele><time>2026-04-25T08:02:53.532Z</time></trkpt><trkpt lat="43.8499483" lon="12.6336367"><ele>214.66666666666669</ele><time>2026-04-25T08:02:55.534Z</time></trkpt><trkpt lat="43.8498817" lon="12.6336167"><ele>211.0</ele><time>2026-04-25T08:02:56.534Z</time></trkpt><trkpt lat="43.8498133" lon="12.633605"><ele>207.33333333333334</ele><time>2026-04-25T08:02:57.534Z</time></trkpt><trkpt lat="43.8497417" lon="12.6335983"><ele>203.66666666666669</ele><time>2026-04-25T08:02:58.533Z</time></trkpt><trkpt lat="43.849665" lon="12.6335917"><ele>200.0</ele><time>2026-04-25T08:02:59.534Z</time></trkpt><trkpt lat="43.849585" lon="12.633585"><ele>200.0</ele><time>2026-04-25T08:03:00.534Z</time></trkpt><trkpt lat="43.84952" lon="12.6335767"><ele>200.0</ele><time>2026-04-25T08:03:01.534Z</time></trkpt><trkpt lat="43.8493417" lon="12.6333683"><ele>200.0</ele><time>2026-04-25T08:03:05.533Z</time></trkpt><trkpt lat="43.8492867" lon="12.6332967"><ele>200.0</ele><time>2026-04-25T08:03:06.534Z</time></trkpt><trkpt lat="43.8492283" lon="12.6332283"><ele>197.4</ele><time>2026-04-25T08:03:07.533Z</time></trkpt><trkpt lat="43.849175" lon="12.63317"><ele>194.8</ele><time>2026-04-25T08:03:08.533Z</time></trkpt><trkpt lat="43.8490933" lon="12.633075"><ele>192.2</ele><time>2026-04-25T08:03:10.534Z</time></trkpt><trkpt lat="43.8490117" lon="12.6329533"><ele>189.6</ele><time>2026-04-25T08:03:12.535Z</time></trkpt><trkpt lat="43.84895" lon="12.632825"><ele>187.0</ele><time>2026-04-25T08:03:14.533Z</time></trkpt><trkpt lat="43.8489083" lon="12.63268"><ele>186.5</ele><time>2026-04-25T08:03:16.534Z</time></trkpt><trkpt lat="43.8488883" lon="12.632535"><ele>186.0</ele><time>2026-04-25T08:03:18.533Z</time></trkpt><trkpt lat="43.8488983" lon="12.6324467"><ele>185.5</ele><time>2026-04-25T08:03:19.532Z</time></trkpt><trkpt lat="43.8489083" lon="12.63236"><ele>185.0</ele><time>2026-04-25T08:03:20.531Z</time></trkpt><trkpt lat="43.8489133" lon="12.6322683"><ele>184.5</ele><time>2026-04-25T08:03:21.531Z</time></trkpt><trkpt lat="43.8489233" lon="12.6321783"><ele>184.0</ele><time>2026-04-25T08:03:22.534Z</time></trkpt><trkpt lat="43.848905" lon="12.63198"><ele>182.16666666666669</ele><time>2026-04-25T08:03:24.532Z</time></trkpt><trkpt lat="43.848875" lon="12.6318767"><ele>180.33333333333334</ele><time>2026-04-25T08:03:25.532Z</time></trkpt><trkpt lat="43.8488367" lon="12.631775"><ele>178.5</ele><time>2026-04-25T08:03:26.532Z</time></trkpt><trkpt lat="43.8487917" lon="12.631675"><ele>176.66666666666666</ele><time>2026-04-25T08:03:27.532Z</time></trkpt><trkpt lat="43.848745" lon="12.631585"><ele>174.83333333333331</ele><time>2026-04-25T08:03:28.533Z</time></trkpt><trkpt lat="43.8487033" lon="12.6314983"><ele>173.0</ele><time>2026-04-25T08:03:29.531Z</time></trkpt><trkpt lat="43.8486583" lon="12.6314367"><ele>173.0</ele><time>2026-04-25T08:03:30.534Z</time></trkpt><trkpt lat="43.8485717" lon="12.6313483"><ele>173.0</ele><time>2026-04-25T08:03:32.531Z</time></trkpt><trkpt lat="43.848435" lon="12.631315"><ele>173.0</ele><time>2026-04-25T08:03:34.533Z</time></trkpt><trkpt lat="43.8483567" lon="12.631315"><ele>173.0</ele><time>2026-04-25T08:03:35.534Z</time></trkpt><trkpt lat="43.8482717" lon="12.6313267"><ele>173.0</ele><time>2026-04-25T08:03:36.532Z</time></trkpt><trkpt lat="43.8481817" lon="12.6313533"><ele>172.4</ele><time>2026-04-25T08:03:37.534Z</time></trkpt><trkpt lat="43.848085" lon="12.6313883"><ele>171.8</ele><time>2026-04-25T08:03:38.531Z</time></trkpt><trkpt lat="43.8479783" lon="12.631435"><ele>171.2</ele><time>2026-04-25T08:03:39.531Z</time></trkpt><trkpt lat="43.8478833" lon="12.6314783"><ele>170.6</ele><time>2026-04-25T08:03:40.534Z</time></trkpt><trkpt lat="43.847785" lon="12.6315133"><ele>170.0</ele><time>2026-04-25T08:03:41.531Z</time></trkpt><trkpt lat="43.8476867" lon="12.6315383"><ele>167.5</ele><time>2026-04-25T08:03:42.534Z</time></trkpt><trkpt lat="43.8475933" lon="12.6315533"><ele>165.0</ele><time>2026-04-25T08:03:43.531Z</time></trkpt><trkpt lat="43.8474433" lon="12.6315383"><ele>162.5</ele><time>2026-04-25T08:03:45.534Z</time></trkpt><trkpt lat="43.8473333" lon="12.6314833"><ele>160.0</ele><time>2026-04-25T08:03:47.531Z</time></trkpt><trkpt lat="43.8472383" lon="12.6313817"><ele>160.0</ele><time>2026-04-25T08:03:49.531Z</time></trkpt><trkpt lat="43.847185" lon="12.631325"><ele>160.0</ele><time>2026-04-25T08:03:50.531Z</time></trkpt><trkpt lat="43.84712" lon="12.6312767"><ele>160.0</ele><time>2026-04-25T08:03:51.532Z</time></trkpt><trkpt lat="43.84705" lon="12.6312333"><ele>160.0</ele><time>2026-04-25T08:03:52.534Z</time></trkpt><trkpt lat="43.846975" lon="12.6312067"><ele>160.0</ele><time>2026-04-25T08:03:53.531Z</time></trkpt><trkpt lat="43.8469083" lon="12.6311967"><ele>160.0</ele><time>2026-04-25T08:03:54.533Z</time></trkpt><trkpt lat="43.8468433" lon="12.6311817"><ele>160.0</ele><time>2026-04-25T08:03:55.532Z</time></trkpt><trkpt lat="43.8467767" lon="12.631165"><ele>158.5</ele><time>2026-04-25T08:03:56.532Z</time></trkpt><trkpt lat="43.8467117" lon="12.6311417"><ele>157.0</ele><time>2026-04-25T08:03:57.534Z</time></trkpt><trkpt lat="43.8466417" lon="12.6311167"><ele>155.5</ele><time>2026-04-25T08:03:58.534Z</time></trkpt><trkpt lat="43.8465617" lon="12.6311"><ele>154.0</ele><time>2026-04-25T08:03:59.532Z</time></trkpt><trkpt lat="43.8464717" lon="12.6310867"><ele>152.5</ele><time>2026-04-25T08:04:00.533Z</time></trkpt><trkpt lat="43.8463817" lon="12.6310717"><ele>151.0</ele><time>2026-04-25T08:04:01.531Z</time></trkpt><trkpt lat="43.8462933" lon="12.6310717"><ele>149.8</ele><time>2026-04-25T08:04:02.531Z</time></trkpt><trkpt lat="43.84621" lon="12.6310767"><ele>148.6</ele><time>2026-04-25T08:04:03.531Z</time></trkpt><trkpt lat="43.8461217" lon="12.63109"><ele>147.4</ele><time>2026-04-25T08:04:04.534Z</time></trkpt><trkpt lat="43.8459617" lon="12.6311367"><ele>146.2</ele><time>2026-04-25T08:04:06.534Z</time></trkpt><trkpt lat="43.845885" lon="12.6311517"><ele>145.0</ele><time>2026-04-25T08:04:07.533Z</time></trkpt><trkpt lat="43.8458133" lon="12.631165"><ele>144.42857142857144</ele><time>2026-04-25T08:04:08.531Z</time></trkpt><trkpt lat="43.845735" lon="12.6311683"><ele>143.85714285714286</ele><time>2026-04-25T08:04:09.532Z</time></trkpt><trkpt lat="43.8456583" lon="12.631155"><ele>143.28571428571428</ele><time>2026-04-25T08:04:10.531Z</time></trkpt><trkpt lat="43.8455817" lon="12.6311517"><ele>142.71428571428572</ele><time>2026-04-25T08:04:11.532Z</time></trkpt><trkpt lat="43.8455133" lon="12.6311383"><ele>142.14285714285714</ele><time>2026-04-25T08:04:12.533Z</time></trkpt><trkpt lat="43.8454433" lon="12.6311333"><ele>141.57142857142858</ele><time>2026-04-25T08:04:13.532Z</time></trkpt><trkpt lat="43.84537" lon="12.6311367"><ele>141.0</ele><time>2026-04-25T08:04:14.532Z</time></trkpt><trkpt lat="43.8453017" lon="12.631155"><ele>141.0</ele><time>2026-04-25T08:04:15.531Z</time></trkpt><trkpt lat="43.8452333" lon="12.6311833"><ele>141.0</ele><time>2026-04-25T08:04:16.534Z</time></trkpt><trkpt lat="43.8451617" lon="12.6312233"><ele>141.0</ele><time>2026-04-25T08:04:17.531Z</time></trkpt><trkpt lat="43.8450867" lon="12.631265"><ele>141.0</ele><time>2026-04-25T08:04:18.533Z</time></trkpt><trkpt lat="43.8450183" lon="12.6313017"><ele>141.0</ele><time>2026-04-25T08:04:19.532Z</time></trkpt><trkpt lat="43.8449533" lon="12.631335"><ele>141.0</ele><time>2026-04-25T08:04:20.531Z</time></trkpt><trkpt lat="43.8448717" lon="12.6313717"><ele>138.75</ele><time>2026-04-25T08:04:22.534Z</time></trkpt><trkpt lat="43.8447983" lon="12.6313967"><ele>136.5</ele><time>2026-04-25T08:04:25.531Z</time></trkpt><trkpt lat="43.8446617" lon="12.6315783"><ele>134.25</ele><time>2026-04-25T08:04:29.532Z</time></trkpt><trkpt lat="43.8445967" lon="12.6316883"><ele>132.0</ele><time>2026-04-25T08:04:31.532Z</time></trkpt><trkpt lat="43.8445633" lon="12.6318533"><ele>132.0</ele><time>2026-04-25T08:04:33.531Z</time></trkpt><trkpt lat="43.844555" lon="12.6319417"><ele>132.0</ele><time>2026-04-25T08:04:34.533Z</time></trkpt><trkpt lat="43.844525" lon="12.632115"><ele>132.0</ele><time>2026-04-25T08:04:36.533Z</time></trkpt><trkpt lat="43.844495" lon="12.6321933"><ele>132.0</ele><time>2026-04-25T08:04:37.531Z</time></trkpt><trkpt lat="43.8444483" lon="12.6323517"><ele>132.0</ele><time>2026-04-25T08:04:39.531Z</time></trkpt><trkpt lat="43.8443817" lon="12.6325233"><ele>132.0</ele><time>2026-04-25T08:04:41.531Z</time></trkpt><trkpt lat="43.844345" lon="12.63261"><ele>132.0</ele><time>2026-04-25T08:04:42.534Z</time></trkpt><trkpt lat="43.8443083" lon="12.6326917"><ele>132.0</ele><time>2026-04-25T08:04:43.531Z</time></trkpt><trkpt lat="43.8442733" lon="12.63277"><ele>132.0</ele><time>2026-04-25T08:04:44.534Z</time></trkpt><trkpt lat="43.8442283" lon="12.6329283"><ele>132.0</ele><time>2026-04-25T08:04:46.534Z</time></trkpt><trkpt lat="43.8441333" lon="12.6332167"><ele>131.0</ele><time>2026-04-25T08:04:50.533Z</time></trkpt><trkpt lat="43.8440767" lon="12.6332833"><ele>130.0</ele><time>2026-04-25T08:04:51.533Z</time></trkpt><trkpt lat="43.844015" lon="12.6333383"><ele>129.0</ele><time>2026-04-25T08:04:52.532Z</time></trkpt><trkpt lat="43.8439433" lon="12.633385"><ele>128.0</ele><time>2026-04-25T08:04:53.532Z</time></trkpt><trkpt lat="43.8438567" lon="12.6334233"><ele>127.0</ele><time>2026-04-25T08:04:54.532Z</time></trkpt><trkpt lat="43.8437717" lon="12.6334383"><ele>126.0</ele><time>2026-04-25T08:04:55.532Z</time></trkpt><trkpt lat="43.8436917" lon="12.63344"><ele>126.0</ele><time>2026-04-25T08:04:56.532Z</time></trkpt><trkpt lat="43.8436117" lon="12.63344"><ele>126.0</ele><time>2026-04-25T08:04:57.533Z</time></trkpt><trkpt lat="43.8435333" lon="12.63346"><ele>126.0</ele><time>2026-04-25T08:04:58.534Z</time></trkpt><trkpt lat="43.8434567" lon="12.633505"><ele>126.0</ele><time>2026-04-25T08:04:59.533Z</time></trkpt><trkpt lat="43.8433733" lon="12.6335517"><ele>126.0</ele><time>2026-04-25T08:05:00.534Z</time></trkpt><trkpt lat="43.8432933" lon="12.63359"><ele>126.0</ele><time>2026-04-25T08:05:01.531Z</time></trkpt><trkpt lat="43.84322" lon="12.63361"><ele>125.75</ele><time>2026-04-25T08:05:02.531Z</time></trkpt><trkpt lat="43.8431533" lon="12.6336283"><ele>125.5</ele><time>2026-04-25T08:05:03.532Z</time></trkpt><trkpt lat="43.8430517" lon="12.63369"><ele>125.25</ele><time>2026-04-25T08:05:05.531Z</time></trkpt><trkpt lat="43.842945" lon="12.6338017"><ele>125.0</ele><time>2026-04-25T08:05:07.532Z</time></trkpt><trkpt lat="43.8428167" lon="12.633875"><ele>125.0</ele><time>2026-04-25T08:05:09.533Z</time></trkpt><trkpt lat="43.84271" lon="12.6338983"><ele>125.0</ele><time>2026-04-25T08:05:11.531Z</time></trkpt><trkpt lat="43.8426133" lon="12.6338517"><ele>125.0</ele><time>2026-04-25T08:05:13.535Z</time></trkpt><trkpt lat="43.84251" lon="12.63381"><ele>125.0</ele><time>2026-04-25T08:05:15.534Z</time></trkpt><trkpt lat="43.8423967" lon="12.6338167"><ele>125.0</ele><time>2026-04-25T08:05:17.531Z</time></trkpt><trkpt lat="43.8423233" lon="12.633845"><ele>124.66666666666666</ele><time>2026-04-25T08:05:19.533Z</time></trkpt><trkpt lat="43.8422617" lon="12.6338733"><ele>124.33333333333333</ele><time>2026-04-25T08:05:21.534Z</time></trkpt><trkpt lat="43.842185" lon="12.6339383"><ele>124.0</ele><time>2026-04-25T08:05:23.532Z</time></trkpt><trkpt lat="43.8421233" lon="12.63406"><ele>123.66666666666666</ele><time>2026-04-25T08:05:25.533Z</time></trkpt><trkpt lat="43.842105" lon="12.6341517"><ele>123.33333333333333</ele><time>2026-04-25T08:05:26.532Z</time></trkpt><trkpt lat="43.8420883" lon="12.6342533"><ele>123.0</ele><time>2026-04-25T08:05:27.532Z</time></trkpt><trkpt lat="43.84208" lon="12.634355"><ele>123.0</ele><time>2026-04-25T08:05:28.532Z</time></trkpt><trkpt lat="43.8420267" lon="12.6345967"><ele>123.0</ele><time>2026-04-25T08:05:31.533Z</time></trkpt><trkpt lat="43.8419417" lon="12.63472"><ele>123.0</ele><time>2026-04-25T08:05:33.532Z</time></trkpt><trkpt lat="43.8418867" lon="12.6347867"><ele>123.0</ele><time>2026-04-25T08:05:34.533Z</time></trkpt><trkpt lat="43.841825" lon="12.6348467"><ele>123.0</ele><time>2026-04-25T08:05:35.534Z</time></trkpt><trkpt lat="43.8417617" lon="12.634915"><ele>123.0</ele><time>2026-04-25T08:05:36.533Z</time></trkpt><trkpt lat="43.8417017" lon="12.6349967"><ele>123.0</ele><time>2026-04-25T08:05:37.535Z</time></trkpt><trkpt lat="43.841645" lon="12.635085"><ele>123.0</ele><time>2026-04-25T08:05:38.533Z</time></trkpt><trkpt lat="43.8415767" lon="12.6351817"><ele>123.0</ele><time>2026-04-25T08:05:39.536Z</time></trkpt><trkpt lat="43.8415167" lon="12.6352617"><ele>123.0</ele><time>2026-04-25T08:05:40.533Z</time></trkpt><trkpt lat="43.8414583" lon="12.6353367"><ele>122.60000000000001</ele><time>2026-04-25T08:05:41.533Z</time></trkpt><trkpt lat="43.8414117" lon="12.6354033"><ele>122.20000000000002</ele><time>2026-04-25T08:05:42.533Z</time></trkpt><trkpt lat="43.84135" lon="12.6355033"><ele>121.8</ele><time>2026-04-25T08:05:44.533Z</time></trkpt><trkpt lat="43.8412983" lon="12.6355567"><ele>121.4</ele><time>2026-04-25T08:05:47.533Z</time></trkpt><trkpt lat="43.8411983" lon="12.6355833"><ele>121.0</ele><time>2026-04-25T08:06:01.531Z</time></trkpt><trkpt lat="43.8410183" lon="12.63568"><ele>121.50000000000001</ele><time>2026-04-25T08:06:05.531Z</time></trkpt><trkpt lat="43.8409133" lon="12.6357717"><ele>122.0</ele><time>2026-04-25T08:06:07.531Z</time></trkpt><trkpt lat="43.8408583" lon="12.6358267"><ele>122.5</ele><time>2026-04-25T08:06:08.531Z</time></trkpt><trkpt lat="43.8407983" lon="12.63589"><ele>123.0</ele><time>2026-04-25T08:06:09.532Z</time></trkpt><trkpt lat="43.8407383" lon="12.63595"><ele>123.50000000000001</ele><time>2026-04-25T08:06:10.533Z</time></trkpt><trkpt lat="43.8406833" lon="12.6360033"><ele>124.0</ele><time>2026-04-25T08:06:11.531Z</time></trkpt><trkpt lat="43.8406017" lon="12.6360883"><ele>123.2</ele><time>2026-04-25T08:06:13.533Z</time></trkpt><trkpt lat="43.8405783" lon="12.6361717"><ele>122.4</ele><time>2026-04-25T08:06:17.531Z</time></trkpt><trkpt lat="43.8406283" lon="12.6362567"><ele>121.6</ele><time>2026-04-25T08:06:19.535Z</time></trkpt><trkpt lat="43.84069" lon="12.63636"><ele>120.8</ele><time>2026-04-25T08:06:21.535Z</time></trkpt><trkpt lat="43.8407433" lon="12.6364633"><ele>120.0</ele><time>2026-04-25T08:06:23.535Z</time></trkpt><trkpt lat="43.8407783" lon="12.6366933"><ele>120.0</ele><time>2026-04-25T08:06:26.531Z</time></trkpt><trkpt lat="43.84077" lon="12.6367933"><ele>120.0</ele><time>2026-04-25T08:06:27.532Z</time></trkpt><trkpt lat="43.84075" lon="12.6368967"><ele>120.0</ele><time>2026-04-25T08:06:28.531Z</time></trkpt><trkpt lat="43.8407283" lon="12.636995"><ele>120.0</ele><time>2026-04-25T08:06:29.532Z</time></trkpt><trkpt lat="43.8407117" lon="12.6370933"><ele>120.0</ele><time>2026-04-25T08:06:30.531Z</time></trkpt><trkpt lat="43.8406967" lon="12.6371867"><ele>120.0</ele><time>2026-04-25T08:06:31.532Z</time></trkpt><trkpt lat="43.840685" lon="12.637275"><ele>120.0</ele><time>2026-04-25T08:06:32.532Z</time></trkpt><trkpt lat="43.8406367" lon="12.6374433"><ele>120.0</ele><time>2026-04-25T08:06:34.533Z</time></trkpt><trkpt lat="43.840595" lon="12.63752"><ele>120.0</ele><time>2026-04-25T08:06:35.532Z</time></trkpt><trkpt lat="43.840545" lon="12.63759"><ele>120.0</ele><time>2026-04-25T08:06:36.532Z</time></trkpt><trkpt lat="43.8404867" lon="12.6376633"><ele>120.0</ele><time>2026-04-25T08:06:37.532Z</time></trkpt><trkpt lat="43.8404333" lon="12.6377483"><ele>120.0</ele><time>2026-04-25T08:06:38.531Z</time></trkpt><trkpt lat="43.8403867" lon="12.6378583"><ele>120.0</ele><time>2026-04-25T08:06:39.531Z</time></trkpt><trkpt lat="43.8403517" lon="12.6379817"><ele>120.0</ele><time>2026-04-25T08:06:40.532Z</time></trkpt><trkpt lat="43.8403367" lon="12.6381133"><ele>120.0</ele><time>2026-04-25T08:06:41.531Z</time></trkpt><trkpt lat="43.84034" lon="12.6382467"><ele>120.0</ele><time>2026-04-25T08:06:42.532Z</time></trkpt><trkpt lat="43.8403517" lon="12.638375"><ele>120.0</ele><time>2026-04-25T08:06:43.532Z</time></trkpt><trkpt lat="43.840365" lon="12.63849"><ele>120.0</ele><time>2026-04-25T08:06:44.532Z</time></trkpt><trkpt lat="43.8403817" lon="12.6386983"><ele>120.0</ele><time>2026-04-25T08:06:46.535Z</time></trkpt><trkpt lat="43.840385" lon="12.6388083"><ele>120.0</ele><time>2026-04-25T08:06:47.535Z</time></trkpt><trkpt lat="43.84039" lon="12.63892"><ele>120.0</ele><time>2026-04-25T08:06:48.535Z</time></trkpt><trkpt lat="43.8404017" lon="12.6390367"><ele>120.0</ele><time>2026-04-25T08:06:49.535Z</time></trkpt><trkpt lat="43.84042" lon="12.6391617"><ele>120.0</ele><time>2026-04-25T08:06:50.534Z</time></trkpt><trkpt lat="43.8404567" lon="12.6392867"><ele>120.0</ele><time>2026-04-25T08:06:51.531Z</time></trkpt><trkpt lat="43.8405117" lon="12.639415"><ele>120.25</ele><time>2026-04-25T08:06:52.534Z</time></trkpt><trkpt lat="43.840585" lon="12.6395433"><ele>120.5</ele><time>2026-04-25T08:06:53.532Z</time></trkpt><trkpt lat="43.8406717" lon="12.6396717"><ele>120.75</ele><time>2026-04-25T08:06:54.533Z</time></trkpt><trkpt lat="43.840765" lon="12.6397967"><ele>121.0</ele><time>2026-04-25T08:06:55.532Z</time></trkpt><trkpt lat="43.8408567" lon="12.63992"><ele>121.0</ele><time>2026-04-25T08:06:56.532Z</time></trkpt><trkpt lat="43.8409483" lon="12.64004"><ele>121.0</ele><time>2026-04-25T08:06:57.534Z</time></trkpt><trkpt lat="43.8410333" lon="12.6401583"><ele>121.0</ele><time>2026-04-25T08:06:58.534Z</time></trkpt><trkpt lat="43.841115" lon="12.6402817"><ele>121.0</ele><time>2026-04-25T08:06:59.532Z</time></trkpt><trkpt lat="43.8411917" lon="12.640405"><ele>120.4</ele><time>2026-04-25T08:07:00.535Z</time></trkpt><trkpt lat="43.841265" lon="12.640515"><ele>119.8</ele><time>2026-04-25T08:07:01.531Z</time></trkpt><trkpt lat="43.8413283" lon="12.6406183"><ele>119.20000000000002</ele><time>2026-04-25T08:07:02.534Z</time></trkpt><trkpt lat="43.84139" lon="12.6407167"><ele>118.60000000000001</ele><time>2026-04-25T08:07:03.532Z</time></trkpt><trkpt lat="43.841445" lon="12.6408217"><ele>118.0</ele><time>2026-04-25T08:07:04.534Z</time></trkpt><trkpt lat="43.84149" lon="12.6409417"><ele>118.5</ele><time>2026-04-25T08:07:05.531Z</time></trkpt><trkpt lat="43.841535" lon="12.6412233"><ele>119.0</ele><time>2026-04-25T08:07:07.532Z</time></trkpt><trkpt lat="43.8415333" lon="12.6413717"><ele>119.5</ele><time>2026-04-25T08:07:08.531Z</time></trkpt><trkpt lat="43.8415017" lon="12.6415183"><ele>120.0</ele><time>2026-04-25T08:07:09.531Z</time></trkpt><trkpt lat="43.8414517" lon="12.6416517"><ele>120.0</ele><time>2026-04-25T08:07:10.533Z</time></trkpt><trkpt lat="43.8414" lon="12.6417767"><ele>120.0</ele><time>2026-04-25T08:07:11.531Z</time></trkpt><trkpt lat="43.8413683" lon="12.6419083"><ele>120.0</ele><time>2026-04-25T08:07:12.532Z</time></trkpt><trkpt lat="43.841345" lon="12.6420617"><ele>120.0</ele><time>2026-04-25T08:07:13.532Z</time></trkpt><trkpt lat="43.841325" lon="12.642225"><ele>120.0</ele><time>2026-04-25T08:07:14.535Z</time></trkpt><trkpt lat="43.8412983" lon="12.6423933"><ele>120.25</ele><time>2026-04-25T08:07:15.535Z</time></trkpt><trkpt lat="43.8412633" lon="12.642565"><ele>120.5</ele><time>2026-04-25T08:07:16.533Z</time></trkpt><trkpt lat="43.841225" lon="12.6427417"><ele>120.75</ele><time>2026-04-25T08:07:17.534Z</time></trkpt><trkpt lat="43.841185" lon="12.6429117"><ele>121.0</ele><time>2026-04-25T08:07:18.533Z</time></trkpt><trkpt lat="43.8411433" lon="12.6430767"><ele>122.0</ele><time>2026-04-25T08:07:19.534Z</time></trkpt><trkpt lat="43.8411" lon="12.643245"><ele>123.0</ele><time>2026-04-25T08:07:20.533Z</time></trkpt><trkpt lat="43.841055" lon="12.6434183"><ele>124.0</ele><time>2026-04-25T08:07:21.533Z</time></trkpt><trkpt lat="43.8410083" lon="12.64359"><ele>125.0</ele><time>2026-04-25T08:07:22.533Z</time></trkpt><trkpt lat="43.8409633" lon="12.643755"><ele>123.0</ele><time>2026-04-25T08:07:23.531Z</time></trkpt><trkpt lat="43.8409233" lon="12.643905"><ele>121.0</ele><time>2026-04-25T08:07:24.53Z</time></trkpt><trkpt lat="43.8408883" lon="12.6440417"><ele>119.0</ele><time>2026-04-25T08:07:25.531Z</time></trkpt><trkpt lat="43.8408533" lon="12.6441683"><ele>117.0</ele><time>2026-04-25T08:07:26.53Z</time></trkpt><trkpt lat="43.8408117" lon="12.6444233"><ele>117.19999999999999</ele><time>2026-04-25T08:07:28.53Z</time></trkpt><trkpt lat="43.8408117" lon="12.6445617"><ele>117.39999999999999</ele><time>2026-04-25T08:07:29.53Z</time></trkpt><trkpt lat="43.8408133" lon="12.6447033"><ele>117.60000000000001</ele><time>2026-04-25T08:07:30.53Z</time></trkpt><trkpt lat="43.840805" lon="12.6448417"><ele>117.80000000000001</ele><time>2026-04-25T08:07:31.53Z</time></trkpt><trkpt lat="43.840785" lon="12.6449817"><ele>118.0</ele><time>2026-04-25T08:07:32.53Z</time></trkpt><trkpt lat="43.84075" lon="12.6451283"><ele>118.0</ele><time>2026-04-25T08:07:33.531Z</time></trkpt><trkpt lat="43.8407117" lon="12.645295"><ele>118.0</ele><time>2026-04-25T08:07:34.53Z</time></trkpt><trkpt lat="43.8406717" lon="12.645475"><ele>118.0</ele><time>2026-04-25T08:07:35.53Z</time></trkpt><trkpt lat="43.84063" lon="12.64566"><ele>118.0</ele><time>2026-04-25T08:07:36.53Z</time></trkpt><trkpt lat="43.8405767" lon="12.6458367"><ele>118.5</ele><time>2026-04-25T08:07:37.531Z</time></trkpt><trkpt lat="43.840515" lon="12.645995"><ele>119.0</ele><time>2026-04-25T08:07:38.53Z</time></trkpt><trkpt lat="43.84044" lon="12.64613"><ele>119.5</ele><time>2026-04-25T08:07:39.53Z</time></trkpt><trkpt lat="43.8403417" lon="12.6462433"><ele>120.0</ele><time>2026-04-25T08:07:40.531Z</time></trkpt><trkpt lat="43.840225" lon="12.6463217"><ele>120.25</ele><time>2026-04-25T08:07:41.53Z</time></trkpt><trkpt lat="43.840095" lon="12.6463817"><ele>120.5</ele><time>2026-04-25T08:07:42.532Z</time></trkpt><trkpt lat="43.8399567" lon="12.6464317"><ele>120.75</ele><time>2026-04-25T08:07:43.531Z</time></trkpt><trkpt lat="43.8398183" lon="12.6464817"><ele>121.0</ele><time>2026-04-25T08:07:44.534Z</time></trkpt><trkpt lat="43.8396767" lon="12.6465267"><ele>121.0</ele><time>2026-04-25T08:07:45.534Z</time></trkpt><trkpt lat="43.8395383" lon="12.6465683"><ele>121.0</ele><time>2026-04-25T08:07:46.531Z</time></trkpt><trkpt lat="43.8394017" lon="12.646615"><ele>121.0</ele><time>2026-04-25T08:07:47.534Z</time></trkpt><trkpt lat="43.8391633" lon="12.6467367"><ele>120.8</ele><time>2026-04-25T08:07:49.534Z</time></trkpt><trkpt lat="43.8390683" lon="12.64681"><ele>120.6</ele><time>2026-04-25T08:07:50.534Z</time></trkpt><trkpt lat="43.8389917" lon="12.64688"><ele>120.4</ele><time>2026-04-25T08:07:51.533Z</time></trkpt><trkpt lat="43.83893" lon="12.6469433"><ele>120.2</ele><time>2026-04-25T08:07:52.534Z</time></trkpt><trkpt lat="43.8388717" lon="12.64699"><ele>120.0</ele><time>2026-04-25T08:07:53.53Z</time></trkpt><trkpt lat="43.8387567" lon="12.6470433"><ele>120.0</ele><time>2026-04-25T08:07:55.532Z</time></trkpt><trkpt lat="43.83863" lon="12.64698"><ele>120.0</ele><time>2026-04-25T08:07:57.533Z</time></trkpt><trkpt lat="43.8385633" lon="12.646915"><ele>120.0</ele><time>2026-04-25T08:07:58.53Z</time></trkpt><trkpt lat="43.83851" lon="12.6468333"><ele>120.0</ele><time>2026-04-25T08:07:59.532Z</time></trkpt><trkpt lat="43.8384667" lon="12.64674"><ele>120.0</ele><time>2026-04-25T08:08:00.532Z</time></trkpt><trkpt lat="43.838445" lon="12.6466383"><ele>119.83333333333333</ele><time>2026-04-25T08:08:01.531Z</time></trkpt><trkpt lat="43.8384517" lon="12.6465317"><ele>119.66666666666666</ele><time>2026-04-25T08:08:02.532Z</time></trkpt><trkpt lat="43.83847" lon="12.6464317"><ele>119.5</ele><time>2026-04-25T08:08:03.534Z</time></trkpt><trkpt lat="43.8384717" lon="12.6463317"><ele>119.33333333333333</ele><time>2026-04-25T08:08:04.531Z</time></trkpt><trkpt lat="43.8384633" lon="12.6462283"><ele>119.16666666666666</ele><time>2026-04-25T08:08:05.531Z</time></trkpt><trkpt lat="43.8384267" lon="12.64613"><ele>119.0</ele><time>2026-04-25T08:08:06.532Z</time></trkpt><trkpt lat="43.83837" lon="12.646015"><ele>116.5</ele><time>2026-04-25T08:08:07.533Z</time></trkpt><trkpt lat="43.838295" lon="12.6458967"><ele>114.0</ele><time>2026-04-25T08:08:08.532Z</time></trkpt><trkpt lat="43.8381417" lon="12.6457167"><ele>111.5</ele><time>2026-04-25T08:08:10.531Z</time></trkpt><trkpt lat="43.8380583" lon="12.645655"><ele>109.0</ele><time>2026-04-25T08:08:11.538Z</time></trkpt><trkpt lat="43.8379833" lon="12.64561"><ele>109.00000000000001</ele><time>2026-04-25T08:08:12.533Z</time></trkpt><trkpt lat="43.83791" lon="12.6455933"><ele>109.0</ele><time>2026-04-25T08:08:13.548Z</time></trkpt><trkpt lat="43.83781" lon="12.6456683"><ele>109.0</ele><time>2026-04-25T08:08:15.534Z</time></trkpt><trkpt lat="43.8377617" lon="12.6457583"><ele>109.0</ele><time>2026-04-25T08:08:16.533Z</time></trkpt><trkpt lat="43.8377083" lon="12.6458617"><ele>109.00000000000001</ele><time>2026-04-25T08:08:17.533Z</time></trkpt><trkpt lat="43.83765" lon="12.6459517"><ele>109.0</ele><time>2026-04-25T08:08:18.533Z</time></trkpt><trkpt lat="43.8375817" lon="12.64602"><ele>109.80000000000001</ele><time>2026-04-25T08:08:19.535Z</time></trkpt><trkpt lat="43.8375117" lon="12.6460567"><ele>110.60000000000001</ele><time>2026-04-25T08:08:20.533Z</time></trkpt><trkpt lat="43.83744" lon="12.6460333"><ele>111.4</ele><time>2026-04-25T08:08:21.534Z</time></trkpt><trkpt lat="43.8373633" lon="12.64595"><ele>112.2</ele><time>2026-04-25T08:08:22.534Z</time></trkpt><trkpt lat="43.8372767" lon="12.6458317"><ele>113.0</ele><time>2026-04-25T08:08:23.531Z</time></trkpt><trkpt lat="43.8371967" lon="12.6457233"><ele>113.0</ele><time>2026-04-25T08:08:24.531Z</time></trkpt><trkpt lat="43.8371117" lon="12.645615"><ele>113.0</ele><time>2026-04-25T08:08:25.531Z</time></trkpt><trkpt lat="43.8370167" lon="12.6455417"><ele>113.0</ele><time>2026-04-25T08:08:26.535Z</time></trkpt><trkpt lat="43.8369083" lon="12.6455117"><ele>113.0</ele><time>2026-04-25T08:08:27.531Z</time></trkpt><trkpt lat="43.8367917" lon="12.6455117"><ele>116.5</ele><time>2026-04-25T08:08:28.535Z</time></trkpt><trkpt lat="43.8366717" lon="12.6455333"><ele>120.0</ele><time>2026-04-25T08:08:29.53Z</time></trkpt><trkpt lat="43.8364533" lon="12.6455883"><ele>123.5</ele><time>2026-04-25T08:08:31.531Z</time></trkpt><trkpt lat="43.8363733" lon="12.64564"><ele>127.0</ele><time>2026-04-25T08:08:32.539Z</time></trkpt><trkpt lat="43.836305" lon="12.645715"><ele>127.0</ele><time>2026-04-25T08:08:33.535Z</time></trkpt><trkpt lat="43.836255" lon="12.6458117"><ele>126.99999999999999</ele><time>2026-04-25T08:08:34.533Z</time></trkpt><trkpt lat="43.836215" lon="12.6459283"><ele>126.99999999999999</ele><time>2026-04-25T08:08:35.531Z</time></trkpt><trkpt lat="43.8361983" lon="12.6460867"><ele>127.0</ele><time>2026-04-25T08:08:36.532Z</time></trkpt><trkpt lat="43.8361817" lon="12.6462583"><ele>127.0</ele><time>2026-04-25T08:08:37.531Z</time></trkpt><trkpt lat="43.8361683" lon="12.6464417"><ele>127.0</ele><time>2026-04-25T08:08:38.53Z</time></trkpt><trkpt lat="43.8361517" lon="12.646625"><ele>127.0</ele><time>2026-04-25T08:08:39.532Z</time></trkpt><trkpt lat="43.8361317" lon="12.646815"><ele>127.0</ele><time>2026-04-25T08:08:40.531Z</time></trkpt><trkpt lat="43.83611" lon="12.6469967"><ele>127.0</ele><time>2026-04-25T08:08:41.531Z</time></trkpt><trkpt lat="43.8360917" lon="12.6471667"><ele>127.0</ele><time>2026-04-25T08:08:42.531Z</time></trkpt><trkpt lat="43.8360683" lon="12.6473333"><ele>127.0</ele><time>2026-04-25T08:08:43.532Z</time></trkpt><trkpt lat="43.83604" lon="12.6474967"><ele>127.0</ele><time>2026-04-25T08:08:44.534Z</time></trkpt><trkpt lat="43.836005" lon="12.647655"><ele>127.0</ele><time>2026-04-25T08:08:45.534Z</time></trkpt><trkpt lat="43.8359633" lon="12.6478067"><ele>130.75</ele><time>2026-04-25T08:08:46.535Z</time></trkpt><trkpt lat="43.835915" lon="12.647955"><ele>134.5</ele><time>2026-04-25T08:08:47.534Z</time></trkpt><trkpt lat="43.8358633" lon="12.6481017"><ele>138.25</ele><time>2026-04-25T08:08:48.535Z</time></trkpt><trkpt lat="43.83581" lon="12.6482467"><ele>142.0</ele><time>2026-04-25T08:08:49.535Z</time></trkpt><trkpt lat="43.8357567" lon="12.6483833"><ele>140.75</ele><time>2026-04-25T08:08:50.534Z</time></trkpt><trkpt lat="43.83565" lon="12.6486483"><ele>139.5</ele><time>2026-04-25T08:08:52.534Z</time></trkpt><trkpt lat="43.835595" lon="12.6487783"><ele>138.25</ele><time>2026-04-25T08:08:53.53Z</time></trkpt><trkpt lat="43.8355433" lon="12.648905"><ele>137.0</ele><time>2026-04-25T08:08:54.531Z</time></trkpt><trkpt lat="43.8354933" lon="12.6490233"><ele>137.0</ele><time>2026-04-25T08:08:55.531Z</time></trkpt><trkpt lat="43.8354433" lon="12.649145"><ele>137.0</ele><time>2026-04-25T08:08:56.53Z</time></trkpt><trkpt lat="43.83539" lon="12.6492683"><ele>137.0</ele><time>2026-04-25T08:08:57.532Z</time></trkpt><trkpt lat="43.8353317" lon="12.649395"><ele>137.0</ele><time>2026-04-25T08:08:58.532Z</time></trkpt><trkpt lat="43.8352667" lon="12.649525"><ele>137.0</ele><time>2026-04-25T08:08:59.531Z</time></trkpt><trkpt lat="43.835195" lon="12.6496517"><ele>140.5</ele><time>2026-04-25T08:09:00.532Z</time></trkpt><trkpt lat="43.835115" lon="12.649775"><ele>144.0</ele><time>2026-04-25T08:09:01.533Z</time></trkpt><trkpt lat="43.83503" lon="12.6498983"><ele>147.5</ele><time>2026-04-25T08:09:02.531Z</time></trkpt><trkpt lat="43.83494" lon="12.6500233"><ele>151.0</ele><time>2026-04-25T08:09:03.531Z</time></trkpt><trkpt lat="43.8348483" lon="12.650145"><ele>151.0</ele><time>2026-04-25T08:09:04.534Z</time></trkpt><trkpt lat="43.8347533" lon="12.6502617"><ele>151.0</ele><time>2026-04-25T08:09:05.531Z</time></trkpt><trkpt lat="43.8346633" lon="12.650375"><ele>151.0</ele><time>2026-04-25T08:09:06.536Z</time></trkpt><trkpt lat="43.8345733" lon="12.650495"><ele>151.0</ele><time>2026-04-25T08:09:07.531Z</time></trkpt><trkpt lat="43.8344783" lon="12.650615"><ele>150.0</ele><time>2026-04-25T08:09:08.531Z</time></trkpt><trkpt lat="43.8343833" lon="12.6507383"><ele>149.0</ele><time>2026-04-25T08:09:09.531Z</time></trkpt><trkpt lat="43.83429" lon="12.650865"><ele>148.0</ele><time>2026-04-25T08:09:10.534Z</time></trkpt><trkpt lat="43.8341983" lon="12.6509833"><ele>147.0</ele><time>2026-04-25T08:09:11.534Z</time></trkpt><trkpt lat="43.8340117" lon="12.6512167"><ele>151.5</ele><time>2026-04-25T08:09:13.533Z</time></trkpt><trkpt lat="43.83392" lon="12.6513317"><ele>156.0</ele><time>2026-04-25T08:09:14.534Z</time></trkpt><trkpt lat="43.8338233" lon="12.6514517"><ele>160.5</ele><time>2026-04-25T08:09:15.533Z</time></trkpt><trkpt lat="43.83373" lon="12.6515667"><ele>165.0</ele><time>2026-04-25T08:09:16.534Z</time></trkpt><trkpt lat="43.833635" lon="12.6516783"><ele>165.0</ele><time>2026-04-25T08:09:17.534Z</time></trkpt><trkpt lat="43.8335367" lon="12.6517833"><ele>165.0</ele><time>2026-04-25T08:09:18.531Z</time></trkpt><trkpt lat="43.8334367" lon="12.6518817"><ele>165.0</ele><time>2026-04-25T08:09:19.531Z</time></trkpt><trkpt lat="43.8333367" lon="12.65196"><ele>165.0</ele><time>2026-04-25T08:09:20.531Z</time></trkpt><trkpt lat="43.833245" lon="12.6519983"><ele>165.33333333333334</ele><time>2026-04-25T08:09:21.534Z</time></trkpt><trkpt lat="43.83316" lon="12.6520017"><ele>165.66666666666666</ele><time>2026-04-25T08:09:22.534Z</time></trkpt><trkpt lat="43.8330867" lon="12.6519717"><ele>166.0</ele><time>2026-04-25T08:09:23.531Z</time></trkpt><trkpt lat="43.8330317" lon="12.6518967"><ele>166.33333333333331</ele><time>2026-04-25T08:09:24.532Z</time></trkpt><trkpt lat="43.8330017" lon="12.6517883"><ele>166.66666666666666</ele><time>2026-04-25T08:09:25.532Z</time></trkpt><trkpt lat="43.8329783" lon="12.6516567"><ele>167.0</ele><time>2026-04-25T08:09:26.534Z</time></trkpt><trkpt lat="43.8329567" lon="12.6515217"><ele>169.2</ele><time>2026-04-25T08:09:27.532Z</time></trkpt><trkpt lat="43.8329333" lon="12.6513767"><ele>171.39999999999998</ele><time>2026-04-25T08:09:28.534Z</time></trkpt><trkpt lat="43.83291" lon="12.6512233"><ele>173.60000000000002</ele><time>2026-04-25T08:09:29.533Z</time></trkpt><trkpt lat="43.8328833" lon="12.65107"><ele>175.8</ele><time>2026-04-25T08:09:30.534Z</time></trkpt><trkpt lat="43.8328533" lon="12.6509183"><ele>178.0</ele><time>2026-04-25T08:09:31.533Z</time></trkpt><trkpt lat="43.83282" lon="12.6507633"><ele>180.66666666666669</ele><time>2026-04-25T08:09:32.532Z</time></trkpt><trkpt lat="43.8327467" lon="12.6504617"><ele>183.33333333333334</ele><time>2026-04-25T08:09:34.534Z</time></trkpt><trkpt lat="43.832695" lon="12.650315"><ele>186.0</ele><time>2026-04-25T08:09:35.534Z</time></trkpt><trkpt lat="43.8326417" lon="12.6501667"><ele>187.25</ele><time>2026-04-25T08:09:36.532Z</time></trkpt><trkpt lat="43.83259" lon="12.650015"><ele>188.5</ele><time>2026-04-25T08:09:37.534Z</time></trkpt><trkpt lat="43.832535" lon="12.6498567"><ele>189.75</ele><time>2026-04-25T08:09:38.53Z</time></trkpt><trkpt lat="43.8324733" lon="12.6497"><ele>191.0</ele><time>2026-04-25T08:09:39.532Z</time></trkpt><trkpt lat="43.83241" lon="12.6495517"><ele>193.25</ele><time>2026-04-25T08:09:40.534Z</time></trkpt><trkpt lat="43.8323467" lon="12.6494067"><ele>195.5</ele><time>2026-04-25T08:09:41.532Z</time></trkpt><trkpt lat="43.8322833" lon="12.649265"><ele>197.75</ele><time>2026-04-25T08:09:42.533Z</time></trkpt><trkpt lat="43.8322183" lon="12.64912"><ele>200.0</ele><time>2026-04-25T08:09:43.531Z</time></trkpt><trkpt lat="43.8321517" lon="12.6489717"><ele>200.0</ele><time>2026-04-25T08:09:44.532Z</time></trkpt><trkpt lat="43.832085" lon="12.6488167"><ele>200.0</ele><time>2026-04-25T08:09:45.531Z</time></trkpt><trkpt lat="43.832015" lon="12.6486617"><ele>200.0</ele><time>2026-04-25T08:09:46.533Z</time></trkpt><trkpt lat="43.83195" lon="12.648515"><ele>200.0</ele><time>2026-04-25T08:09:47.53Z</time></trkpt><trkpt lat="43.83188" lon="12.6483783"><ele>199.5</ele><time>2026-04-25T08:09:48.534Z</time></trkpt><trkpt lat="43.8318" lon="12.64825"><ele>199.0</ele><time>2026-04-25T08:09:49.532Z</time></trkpt><trkpt lat="43.8317083" lon="12.6481367"><ele>198.5</ele><time>2026-04-25T08:09:50.533Z</time></trkpt><trkpt lat="43.83161" lon="12.64803"><ele>198.0</ele><time>2026-04-25T08:09:51.531Z</time></trkpt><trkpt lat="43.8315033" lon="12.6479233"><ele>198.0</ele><time>2026-04-25T08:09:52.534Z</time></trkpt><trkpt lat="43.8313917" lon="12.6478167"><ele>198.0</ele><time>2026-04-25T08:09:53.53Z</time></trkpt><trkpt lat="43.8311517" lon="12.6476017"><ele>198.0</ele><time>2026-04-25T08:09:55.532Z</time></trkpt><trkpt lat="43.831025" lon="12.6474983"><ele>198.75</ele><time>2026-04-25T08:09:56.531Z</time></trkpt><trkpt lat="43.8308983" lon="12.6474"><ele>199.5</ele><time>2026-04-25T08:09:57.531Z</time></trkpt><trkpt lat="43.83077" lon="12.6473"><ele>200.25</ele><time>2026-04-25T08:09:58.532Z</time></trkpt><trkpt lat="43.830645" lon="12.6472033"><ele>201.0</ele><time>2026-04-25T08:09:59.531Z</time></trkpt><trkpt lat="43.8305333" lon="12.6471133"><ele>201.0</ele><time>2026-04-25T08:10:00.531Z</time></trkpt><trkpt lat="43.8304283" lon="12.647035"><ele>201.0</ele><time>2026-04-25T08:10:01.532Z</time></trkpt><trkpt lat="43.8303317" lon="12.6469633"><ele>201.0</ele><time>2026-04-25T08:10:02.532Z</time></trkpt><trkpt lat="43.830235" lon="12.6468833"><ele>201.0</ele><time>2026-04-25T08:10:03.532Z</time></trkpt><trkpt lat="43.8301483" lon="12.6468"><ele>201.0</ele><time>2026-04-25T08:10:04.533Z</time></trkpt><trkpt lat="43.8300683" lon="12.6467167"><ele>201.5</ele><time>2026-04-25T08:10:05.534Z</time></trkpt><trkpt lat="43.8299917" lon="12.64664"><ele>202.0</ele><time>2026-04-25T08:10:06.533Z</time></trkpt><trkpt lat="43.8299167" lon="12.646575"><ele>202.5</ele><time>2026-04-25T08:10:07.535Z</time></trkpt><trkpt lat="43.8298483" lon="12.6465183"><ele>203.0</ele><time>2026-04-25T08:10:08.531Z</time></trkpt><trkpt lat="43.8297833" lon="12.646465"><ele>203.5</ele><time>2026-04-25T08:10:09.531Z</time></trkpt><trkpt lat="43.82972" lon="12.6464133"><ele>204.0</ele><time>2026-04-25T08:10:10.534Z</time></trkpt><trkpt lat="43.829655" lon="12.64636"><ele>204.0</ele><time>2026-04-25T08:10:11.534Z</time></trkpt><trkpt lat="43.8295917" lon="12.646315"><ele>204.0</ele><time>2026-04-25T08:10:12.533Z</time></trkpt><trkpt lat="43.8295317" lon="12.646265"><ele>204.0</ele><time>2026-04-25T08:10:13.534Z</time></trkpt><trkpt lat="43.82947" lon="12.64621"><ele>204.0</ele><time>2026-04-25T08:10:14.534Z</time></trkpt><trkpt lat="43.82934" lon="12.6460917"><ele>204.0</ele><time>2026-04-25T08:10:16.533Z</time></trkpt><trkpt lat="43.8292783" lon="12.6460283"><ele>204.0</ele><time>2026-04-25T08:10:17.531Z</time></trkpt><trkpt lat="43.8292133" lon="12.6459633"><ele>204.6</ele><time>2026-04-25T08:10:18.534Z</time></trkpt><trkpt lat="43.8291467" lon="12.645895"><ele>205.2</ele><time>2026-04-25T08:10:19.531Z</time></trkpt><trkpt lat="43.8290783" lon="12.6458267"><ele>205.79999999999998</ele><time>2026-04-25T08:10:20.531Z</time></trkpt><trkpt lat="43.829005" lon="12.6457583"><ele>206.39999999999998</ele><time>2026-04-25T08:10:21.532Z</time></trkpt><trkpt lat="43.828925" lon="12.6456817"><ele>207.0</ele><time>2026-04-25T08:10:22.531Z</time></trkpt><trkpt lat="43.8288383" lon="12.6455967"><ele>207.0</ele><time>2026-04-25T08:10:23.534Z</time></trkpt><trkpt lat="43.8287417" lon="12.6455067"><ele>207.0</ele><time>2026-04-25T08:10:24.535Z</time></trkpt><trkpt lat="43.82864" lon="12.6454117"><ele>207.0</ele><time>2026-04-25T08:10:25.536Z</time></trkpt><trkpt lat="43.8285383" lon="12.645315"><ele>207.0</ele><time>2026-04-25T08:10:26.535Z</time></trkpt><trkpt lat="43.8284267" lon="12.64523"><ele>208.75</ele><time>2026-04-25T08:10:27.534Z</time></trkpt><trkpt lat="43.828315" lon="12.645155"><ele>210.5</ele><time>2026-04-25T08:10:28.531Z</time></trkpt><trkpt lat="43.8282067" lon="12.645105"><ele>212.25</ele><time>2026-04-25T08:10:29.536Z</time></trkpt><trkpt lat="43.8281" lon="12.6450867"><ele>214.0</ele><time>2026-04-25T08:10:30.531Z</time></trkpt><trkpt lat="43.8279817" lon="12.6450983"><ele>214.0</ele><time>2026-04-25T08:10:31.534Z</time></trkpt><trkpt lat="43.8278633" lon="12.6451117"><ele>214.0</ele><time>2026-04-25T08:10:32.531Z</time></trkpt><trkpt lat="43.82774" lon="12.645125"><ele>214.0</ele><time>2026-04-25T08:10:33.533Z</time></trkpt><trkpt lat="43.827625" lon="12.6451367"><ele>214.0</ele><time>2026-04-25T08:10:34.533Z</time></trkpt><trkpt lat="43.82752" lon="12.6451483"><ele>216.39999999999998</ele><time>2026-04-25T08:10:35.533Z</time></trkpt><trkpt lat="43.827325" lon="12.6451667"><ele>218.79999999999998</ele><time>2026-04-25T08:10:37.533Z</time></trkpt><trkpt lat="43.8272433" lon="12.6451783"><ele>221.20000000000002</ele><time>2026-04-25T08:10:38.531Z</time></trkpt><trkpt lat="43.8271783" lon="12.6452033"><ele>223.60000000000002</ele><time>2026-04-25T08:10:39.533Z</time></trkpt><trkpt lat="43.8271183" lon="12.6452383"><ele>226.0</ele><time>2026-04-25T08:10:40.533Z</time></trkpt><trkpt lat="43.8270567" lon="12.64528"><ele>225.99999999999997</ele><time>2026-04-25T08:10:41.532Z</time></trkpt><trkpt lat="43.82696" lon="12.6453233"><ele>226.0</ele><time>2026-04-25T08:10:43.532Z</time></trkpt><trkpt lat="43.8268933" lon="12.645305"><ele>226.0</ele><time>2026-04-25T08:10:45.534Z</time></trkpt><trkpt lat="43.8268817" lon="12.6451433"><ele>226.0</ele><time>2026-04-25T08:10:48.531Z</time></trkpt><trkpt lat="43.8268883" lon="12.6450433"><ele>225.99999999999997</ele><time>2026-04-25T08:10:49.533Z</time></trkpt><trkpt lat="43.8268967" lon="12.64493"><ele>226.0</ele><time>2026-04-25T08:10:50.532Z</time></trkpt><trkpt lat="43.826905" lon="12.644805"><ele>226.0</ele><time>2026-04-25T08:10:51.531Z</time></trkpt><trkpt lat="43.8269067" lon="12.6446817"><ele>226.00000000000003</ele><time>2026-04-25T08:10:52.534Z</time></trkpt><trkpt lat="43.8269033" lon="12.644555"><ele>226.00000000000003</ele><time>2026-04-25T08:10:53.531Z</time></trkpt><trkpt lat="43.8268983" lon="12.6444233"><ele>226.0</ele><time>2026-04-25T08:10:54.532Z</time></trkpt><trkpt lat="43.8268933" lon="12.6442833"><ele>226.0</ele><time>2026-04-25T08:10:55.534Z</time></trkpt><trkpt lat="43.82689" lon="12.6441433"><ele>225.75</ele><time>2026-04-25T08:10:56.531Z</time></trkpt><trkpt lat="43.8268767" lon="12.6438733"><ele>225.5</ele><time>2026-04-25T08:10:58.533Z</time></trkpt><trkpt lat="43.8268717" lon="12.6437333"><ele>225.25</ele><time>2026-04-25T08:10:59.531Z</time></trkpt><trkpt lat="43.8268633" lon="12.6435883"><ele>225.0</ele><time>2026-04-25T08:11:00.533Z</time></trkpt><trkpt lat="43.8268567" lon="12.6434367"><ele>225.0</ele><time>2026-04-25T08:11:01.532Z</time></trkpt><trkpt lat="43.8268483" lon="12.6432833"><ele>225.0</ele><time>2026-04-25T08:11:02.531Z</time></trkpt><trkpt lat="43.8268383" lon="12.64313"><ele>225.0</ele><time>2026-04-25T08:11:03.531Z</time></trkpt><trkpt lat="43.82682" lon="12.6429833"><ele>225.0</ele><time>2026-04-25T08:11:04.532Z</time></trkpt><trkpt lat="43.8267983" lon="12.6428367"><ele>225.0</ele><time>2026-04-25T08:11:05.531Z</time></trkpt><trkpt lat="43.8267733" lon="12.6427"><ele>225.0</ele><time>2026-04-25T08:11:06.532Z</time></trkpt><trkpt lat="43.8267467" lon="12.642575"><ele>225.0</ele><time>2026-04-25T08:11:07.532Z</time></trkpt><trkpt lat="43.82671" lon="12.64246"><ele>225.0</ele><time>2026-04-25T08:11:08.532Z</time></trkpt><trkpt lat="43.82666" lon="12.6423567"><ele>225.0</ele><time>2026-04-25T08:11:09.533Z</time></trkpt><trkpt lat="43.8265983" lon="12.6422683"><ele>225.0</ele><time>2026-04-25T08:11:10.532Z</time></trkpt><trkpt lat="43.8265283" lon="12.6422033"><ele>225.0</ele><time>2026-04-25T08:11:11.531Z</time></trkpt><trkpt lat="43.826435" lon="12.6421767"><ele>225.0</ele><time>2026-04-25T08:11:12.532Z</time></trkpt><trkpt lat="43.8263433" lon="12.64218"><ele>225.0</ele><time>2026-04-25T08:11:13.532Z</time></trkpt><trkpt lat="43.826245" lon="12.64219"><ele>225.0</ele><time>2026-04-25T08:11:14.532Z</time></trkpt><trkpt lat="43.8261483" lon="12.6421917"><ele>225.0</ele><time>2026-04-25T08:11:15.534Z</time></trkpt><trkpt lat="43.8260633" lon="12.6421717"><ele>225.0</ele><time>2026-04-25T08:11:16.531Z</time></trkpt><trkpt lat="43.8259933" lon="12.6421267"><ele>225.6</ele><time>2026-04-25T08:11:17.531Z</time></trkpt><trkpt lat="43.8259183" lon="12.6419817"><ele>226.2</ele><time>2026-04-25T08:11:19.532Z</time></trkpt><trkpt lat="43.8259233" lon="12.641875"><ele>226.8</ele><time>2026-04-25T08:11:20.532Z</time></trkpt><trkpt lat="43.8259533" lon="12.641765"><ele>227.4</ele><time>2026-04-25T08:11:21.532Z</time></trkpt><trkpt lat="43.8259967" lon="12.641655"><ele>228.0</ele><time>2026-04-25T08:11:22.531Z</time></trkpt><trkpt lat="43.826035" lon="12.6415417"><ele>228.2</ele><time>2026-04-25T08:11:23.532Z</time></trkpt><trkpt lat="43.82606" lon="12.6414183"><ele>228.4</ele><time>2026-04-25T08:11:24.531Z</time></trkpt><trkpt lat="43.8260717" lon="12.6412883"><ele>228.59999999999997</ele><time>2026-04-25T08:11:25.534Z</time></trkpt><trkpt lat="43.8260617" lon="12.6411667"><ele>228.79999999999998</ele><time>2026-04-25T08:11:26.532Z</time></trkpt><trkpt lat="43.82604" lon="12.641055"><ele>229.0</ele><time>2026-04-25T08:11:27.533Z</time></trkpt><trkpt lat="43.8260067" lon="12.6409367"><ele>232.79999999999998</ele><time>2026-04-25T08:11:28.532Z</time></trkpt><trkpt lat="43.8259633" lon="12.6408083"><ele>236.59999999999997</ele><time>2026-04-25T08:11:29.531Z</time></trkpt><trkpt lat="43.8259083" lon="12.64068"><ele>240.4</ele><time>2026-04-25T08:11:30.531Z</time></trkpt><trkpt lat="43.8258483" lon="12.6405567"><ele>244.2</ele><time>2026-04-25T08:11:31.533Z</time></trkpt><trkpt lat="43.8257767" lon="12.6404367"><ele>248.0</ele><time>2026-04-25T08:11:32.531Z</time></trkpt><trkpt lat="43.8257" lon="12.64032"><ele>248.8</ele><time>2026-04-25T08:11:33.534Z</time></trkpt><trkpt lat="43.8256183" lon="12.64021"><ele>249.60000000000002</ele><time>2026-04-25T08:11:34.533Z</time></trkpt><trkpt lat="43.8255333" lon="12.640115"><ele>250.39999999999998</ele><time>2026-04-25T08:11:35.536Z</time></trkpt><trkpt lat="43.8254367" lon="12.64004"><ele>251.2</ele><time>2026-04-25T08:11:36.534Z</time></trkpt><trkpt lat="43.825335" lon="12.63998"><ele>252.0</ele><time>2026-04-25T08:11:37.535Z</time></trkpt><trkpt lat="43.8252433" lon="12.6399267"><ele>252.75</ele><time>2026-04-25T08:11:38.534Z</time></trkpt><trkpt lat="43.8250667" lon="12.639795"><ele>253.5</ele><time>2026-04-25T08:11:40.534Z</time></trkpt><trkpt lat="43.82499" lon="12.6397133"><ele>254.25</ele><time>2026-04-25T08:11:41.531Z</time></trkpt><trkpt lat="43.8249217" lon="12.6396133"><ele>255.0</ele><time>2026-04-25T08:11:42.531Z</time></trkpt><trkpt lat="43.824855" lon="12.6395067"><ele>258.2</ele><time>2026-04-25T08:11:43.536Z</time></trkpt><trkpt lat="43.8247917" lon="12.6393883"><ele>261.4</ele><time>2026-04-25T08:11:44.534Z</time></trkpt><trkpt lat="43.82473" lon="12.639265"><ele>264.6</ele><time>2026-04-25T08:11:45.535Z</time></trkpt><trkpt lat="43.8246717" lon="12.6391367"><ele>267.8</ele><time>2026-04-25T08:11:46.534Z</time></trkpt><trkpt lat="43.8246117" lon="12.6390067"><ele>271.0</ele><time>2026-04-25T08:11:47.535Z</time></trkpt><trkpt lat="43.8245533" lon="12.638875"><ele>271.0</ele><time>2026-04-25T08:11:48.532Z</time></trkpt><trkpt lat="43.8244967" lon="12.6387483"><ele>271.0</ele><time>2026-04-25T08:11:49.532Z</time></trkpt><trkpt lat="43.8244517" lon="12.6386317"><ele>271.0</ele><time>2026-04-25T08:11:50.532Z</time></trkpt><trkpt lat="43.8244133" lon="12.6385267"><ele>271.0</ele><time>2026-04-25T08:11:51.535Z</time></trkpt><trkpt lat="43.8244" lon="12.638425"><ele>271.0</ele><time>2026-04-25T08:11:52.534Z</time></trkpt><trkpt lat="43.8244083" lon="12.63832"><ele>271.0</ele><time>2026-04-25T08:11:53.532Z</time></trkpt><trkpt lat="43.824425" lon="12.6381933"><ele>273.40000000000003</ele><time>2026-04-25T08:11:54.532Z</time></trkpt><trkpt lat="43.8244417" lon="12.6380533"><ele>275.8</ele><time>2026-04-25T08:11:55.532Z</time></trkpt><trkpt lat="43.824455" lon="12.637915"><ele>278.20000000000005</ele><time>2026-04-25T08:11:56.531Z</time></trkpt><trkpt lat="43.824465" lon="12.637775"><ele>280.6</ele><time>2026-04-25T08:11:57.532Z</time></trkpt><trkpt lat="43.8244717" lon="12.637635"><ele>283.0</ele><time>2026-04-25T08:11:58.532Z</time></trkpt><trkpt lat="43.824475" lon="12.6374883"><ele>283.5</ele><time>2026-04-25T08:11:59.533Z</time></trkpt><trkpt lat="43.8244683" lon="12.637185"><ele>284.0</ele><time>2026-04-25T08:12:01.533Z</time></trkpt><trkpt lat="43.8244583" lon="12.6370267"><ele>284.5</ele><time>2026-04-25T08:12:02.531Z</time></trkpt><trkpt lat="43.8244383" lon="12.63687"><ele>285.0</ele><time>2026-04-25T08:12:03.532Z</time></trkpt><trkpt lat="43.8244133" lon="12.6367117"><ele>282.5</ele><time>2026-04-25T08:12:04.533Z</time></trkpt><trkpt lat="43.8243783" lon="12.6365567"><ele>280.0</ele><time>2026-04-25T08:12:05.531Z</time></trkpt><trkpt lat="43.824335" lon="12.636405"><ele>277.5</ele><time>2026-04-25T08:12:06.532Z</time></trkpt><trkpt lat="43.8242817" lon="12.6362617"><ele>275.0</ele><time>2026-04-25T08:12:07.533Z</time></trkpt><trkpt lat="43.82421" lon="12.636125"><ele>275.0</ele><time>2026-04-25T08:12:08.531Z</time></trkpt><trkpt lat="43.8241333" lon="12.6359867"><ele>275.0</ele><time>2026-04-25T08:12:09.533Z</time></trkpt><trkpt lat="43.8240583" lon="12.6358483"><ele>275.0</ele><time>2026-04-25T08:12:10.532Z</time></trkpt><trkpt lat="43.8239883" lon="12.63572"><ele>275.0</ele><time>2026-04-25T08:12:11.532Z</time></trkpt><trkpt lat="43.823925" lon="12.6355983"><ele>275.0</ele><time>2026-04-25T08:12:12.532Z</time></trkpt><trkpt lat="43.8238633" lon="12.63548"><ele>275.0</ele><time>2026-04-25T08:12:13.536Z</time></trkpt><trkpt lat="43.8238" lon="12.6353567"><ele>275.0</ele><time>2026-04-25T08:12:14.534Z</time></trkpt><trkpt lat="43.8237383" lon="12.635225"><ele>275.0</ele><time>2026-04-25T08:12:15.534Z</time></trkpt><trkpt lat="43.8236733" lon="12.6350883"><ele>275.0</ele><time>2026-04-25T08:12:16.534Z</time></trkpt><trkpt lat="43.823605" lon="12.6349417"><ele>275.25</ele><time>2026-04-25T08:12:17.535Z</time></trkpt><trkpt lat="43.8235367" lon="12.6347817"><ele>275.5</ele><time>2026-04-25T08:12:18.535Z</time></trkpt><trkpt lat="43.8234683" lon="12.6346167"><ele>275.75</ele><time>2026-04-25T08:12:19.535Z</time></trkpt><trkpt lat="43.823395" lon="12.6344467"><ele>276.0</ele><time>2026-04-25T08:12:20.534Z</time></trkpt><trkpt lat="43.823225" lon="12.63411"><ele>276.0</ele><time>2026-04-25T08:12:22.532Z</time></trkpt><trkpt lat="43.82313" lon="12.63394"><ele>276.0</ele><time>2026-04-25T08:12:23.535Z</time></trkpt><trkpt lat="43.8230383" lon="12.633775"><ele>276.0</ele><time>2026-04-25T08:12:24.534Z</time></trkpt><trkpt lat="43.8229467" lon="12.6336133"><ele>276.0</ele><time>2026-04-25T08:12:25.534Z</time></trkpt><trkpt lat="43.8228567" lon="12.63345"><ele>276.0</ele><time>2026-04-25T08:12:26.535Z</time></trkpt><trkpt lat="43.822765" lon="12.633285"><ele>276.0</ele><time>2026-04-25T08:12:27.534Z</time></trkpt><trkpt lat="43.8226733" lon="12.6331233"><ele>276.0</ele><time>2026-04-25T08:12:28.534Z</time></trkpt><trkpt lat="43.8225867" lon="12.6329633"><ele>276.0</ele><time>2026-04-25T08:12:29.531Z</time></trkpt><trkpt lat="43.8225067" lon="12.6328133"><ele>276.0</ele><time>2026-04-25T08:12:30.533Z</time></trkpt><trkpt lat="43.8224283" lon="12.6326683"><ele>276.0</ele><time>2026-04-25T08:12:31.536Z</time></trkpt><trkpt lat="43.8223483" lon="12.6325167"><ele>276.0</ele><time>2026-04-25T08:12:32.532Z</time></trkpt><trkpt lat="43.8222683" lon="12.632365"><ele>277.25</ele><time>2026-04-25T08:12:33.535Z</time></trkpt><trkpt lat="43.8221933" lon="12.632215"><ele>278.5</ele><time>2026-04-25T08:12:34.534Z</time></trkpt><trkpt lat="43.8221183" lon="12.6320683"><ele>279.75</ele><time>2026-04-25T08:12:35.535Z</time></trkpt><trkpt lat="43.8220417" lon="12.63192"><ele>281.0</ele><time>2026-04-25T08:12:36.534Z</time></trkpt><trkpt lat="43.8219617" lon="12.6317667"><ele>281.0</ele><time>2026-04-25T08:12:37.536Z</time></trkpt><trkpt lat="43.82188" lon="12.6316117"><ele>281.0</ele><time>2026-04-25T08:12:38.531Z</time></trkpt><trkpt lat="43.8218" lon="12.6314583"><ele>281.0</ele><time>2026-04-25T08:12:39.534Z</time></trkpt><trkpt lat="43.8217233" lon="12.6313083"><ele>281.0</ele><time>2026-04-25T08:12:40.531Z</time></trkpt><trkpt lat="43.821645" lon="12.631155"><ele>285.33333333333337</ele><time>2026-04-25T08:12:41.535Z</time></trkpt><trkpt lat="43.8214933" lon="12.6308567"><ele>289.6666666666667</ele><time>2026-04-25T08:12:43.532Z</time></trkpt><trkpt lat="43.8214167" lon="12.6307067"><ele>294.0</ele><time>2026-04-25T08:12:44.534Z</time></trkpt><trkpt lat="43.8213417" lon="12.6305617"><ele>294.0</ele><time>2026-04-25T08:12:45.535Z</time></trkpt><trkpt lat="43.821275" lon="12.6304233"><ele>294.0</ele><time>2026-04-25T08:12:46.534Z</time></trkpt><trkpt lat="43.8212167" lon="12.6302883"><ele>294.0</ele><time>2026-04-25T08:12:47.531Z</time></trkpt><trkpt lat="43.8211683" lon="12.6301517"><ele>294.0</ele><time>2026-04-25T08:12:48.534Z</time></trkpt><trkpt lat="43.8211283" lon="12.63001"><ele>293.75</ele><time>2026-04-25T08:12:49.534Z</time></trkpt><trkpt lat="43.821095" lon="12.6298617"><ele>293.5</ele><time>2026-04-25T08:12:50.534Z</time></trkpt><trkpt lat="43.8210683" lon="12.6297067"><ele>293.25</ele><time>2026-04-25T08:12:51.534Z</time></trkpt><trkpt lat="43.8210483" lon="12.6295433"><ele>293.0</ele><time>2026-04-25T08:12:52.535Z</time></trkpt><trkpt lat="43.821035" lon="12.6293683"><ele>292.75</ele><time>2026-04-25T08:12:53.531Z</time></trkpt><trkpt lat="43.821025" lon="12.6291917"><ele>292.5</ele><time>2026-04-25T08:12:54.533Z</time></trkpt><trkpt lat="43.8210167" lon="12.6290117"><ele>292.25</ele><time>2026-04-25T08:12:55.534Z</time></trkpt><trkpt lat="43.821015" lon="12.6288367"><ele>292.0</ele><time>2026-04-25T08:12:56.534Z</time></trkpt><trkpt lat="43.8210217" lon="12.628665"><ele>292.4</ele><time>2026-04-25T08:12:57.534Z</time></trkpt><trkpt lat="43.821025" lon="12.628505"><ele>292.79999999999995</ele><time>2026-04-25T08:12:58.534Z</time></trkpt><trkpt lat="43.821025" lon="12.6283567"><ele>293.2</ele><time>2026-04-25T08:12:59.535Z</time></trkpt><trkpt lat="43.8210217" lon="12.6282167"><ele>293.59999999999997</ele><time>2026-04-25T08:13:00.534Z</time></trkpt><trkpt lat="43.8210117" lon="12.628075"><ele>294.0</ele><time>2026-04-25T08:13:01.533Z</time></trkpt><trkpt lat="43.820995" lon="12.627925"><ele>302.0</ele><time>2026-04-25T08:13:02.533Z</time></trkpt><trkpt lat="43.8209667" lon="12.6275983"><ele>310.0</ele><time>2026-04-25T08:13:04.533Z</time></trkpt><trkpt lat="43.820965" lon="12.6274317"><ele>318.0</ele><time>2026-04-25T08:13:05.533Z</time></trkpt><trkpt lat="43.820975" lon="12.6272733"><ele>317.4</ele><time>2026-04-25T08:13:06.534Z</time></trkpt><trkpt lat="43.8209983" lon="12.6271317"><ele>316.8</ele><time>2026-04-25T08:13:07.535Z</time></trkpt><trkpt lat="43.8210317" lon="12.62699"><ele>316.2</ele><time>2026-04-25T08:13:08.535Z</time></trkpt><trkpt lat="43.821075" lon="12.6268517"><ele>315.6</ele><time>2026-04-25T08:13:09.534Z</time></trkpt><trkpt lat="43.8211083" lon="12.626715"><ele>315.0</ele><time>2026-04-25T08:13:10.536Z</time></trkpt><trkpt lat="43.8211367" lon="12.6265683"><ele>315.0</ele><time>2026-04-25T08:13:11.532Z</time></trkpt><trkpt lat="43.82115" lon="12.6264133"><ele>315.0</ele><time>2026-04-25T08:13:12.534Z</time></trkpt><trkpt lat="43.8211567" lon="12.6262517"><ele>315.0</ele><time>2026-04-25T08:13:13.534Z</time></trkpt><trkpt lat="43.8211583" lon="12.62608"><ele>315.0</ele><time>2026-04-25T08:13:14.535Z</time></trkpt><trkpt lat="43.8211583" lon="12.6259167"><ele>316.3333333333333</ele><time>2026-04-25T08:13:15.534Z</time></trkpt><trkpt lat="43.8211583" lon="12.62577"><ele>317.6666666666667</ele><time>2026-04-25T08:13:16.531Z</time></trkpt><trkpt lat="43.8211517" lon="12.6256433"><ele>319.0</ele><time>2026-04-25T08:13:17.532Z</time></trkpt><trkpt lat="43.821135" lon="12.6255383"><ele>320.33333333333337</ele><time>2026-04-25T08:13:18.531Z</time></trkpt><trkpt lat="43.8211117" lon="12.6254483"><ele>321.6666666666667</ele><time>2026-04-25T08:13:19.532Z</time></trkpt><trkpt lat="43.8210633" lon="12.625335"><ele>323.0</ele><time>2026-04-25T08:13:21.533Z</time></trkpt><trkpt lat="43.82101" lon="12.6252833"><ele>322.5</ele><time>2026-04-25T08:13:24.532Z</time></trkpt><trkpt lat="43.8209233" lon="12.6255533"><ele>322.0</ele><time>2026-04-25T08:13:29.532Z</time></trkpt><trkpt lat="43.8208733" lon="12.625675"><ele>321.5</ele><time>2026-04-25T08:13:30.532Z</time></trkpt><trkpt lat="43.8208183" lon="12.6258"><ele>321.0</ele><time>2026-04-25T08:13:31.533Z</time></trkpt><trkpt lat="43.8207617" lon="12.6259267"><ele>321.0</ele><time>2026-04-25T08:13:32.532Z</time></trkpt><trkpt lat="43.8207033" lon="12.626055"><ele>321.0</ele><time>2026-04-25T08:13:33.531Z</time></trkpt><trkpt lat="43.820645" lon="12.62619"><ele>321.0</ele><time>2026-04-25T08:13:34.532Z</time></trkpt><trkpt lat="43.8205817" lon="12.62633"><ele>321.0</ele><time>2026-04-25T08:13:35.532Z</time></trkpt><trkpt lat="43.8205117" lon="12.6264717"><ele>320.75</ele><time>2026-04-25T08:13:36.532Z</time></trkpt><trkpt lat="43.8204283" lon="12.6266117"><ele>320.5</ele><time>2026-04-25T08:13:37.532Z</time></trkpt><trkpt lat="43.8203317" lon="12.6267483"><ele>320.25</ele><time>2026-04-25T08:13:38.531Z</time></trkpt><trkpt lat="43.8202267" lon="12.6268767"><ele>320.0</ele><time>2026-04-25T08:13:39.531Z</time></trkpt><trkpt lat="43.8201183" lon="12.6269933"><ele>319.25</ele><time>2026-04-25T08:13:40.532Z</time></trkpt><trkpt lat="43.8200067" lon="12.6271"><ele>318.5</ele><time>2026-04-25T08:13:41.532Z</time></trkpt><trkpt lat="43.819895" lon="12.6271967"><ele>317.75</ele><time>2026-04-25T08:13:42.532Z</time></trkpt><trkpt lat="43.8197817" lon="12.6272933"><ele>317.0</ele><time>2026-04-25T08:13:43.532Z</time></trkpt><trkpt lat="43.8196683" lon="12.6273983"><ele>317.0</ele><time>2026-04-25T08:13:44.535Z</time></trkpt><trkpt lat="43.81955" lon="12.6275083"><ele>317.0</ele><time>2026-04-25T08:13:45.535Z</time></trkpt><trkpt lat="43.81933" lon="12.6277317"><ele>317.0</ele><time>2026-04-25T08:13:47.534Z</time></trkpt><trkpt lat="43.8192317" lon="12.6278517"><ele>313.75</ele><time>2026-04-25T08:13:48.534Z</time></trkpt><trkpt lat="43.8191483" lon="12.6279867"><ele>310.5</ele><time>2026-04-25T08:13:49.536Z</time></trkpt><trkpt lat="43.819085" lon="12.62814"><ele>307.25</ele><time>2026-04-25T08:13:50.535Z</time></trkpt><trkpt lat="43.8190333" lon="12.6283117"><ele>304.0</ele><time>2026-04-25T08:13:51.535Z</time></trkpt><trkpt lat="43.8189883" lon="12.628495"><ele>302.25</ele><time>2026-04-25T08:13:52.535Z</time></trkpt><trkpt lat="43.8189467" lon="12.628675"><ele>300.5</ele><time>2026-04-25T08:13:53.531Z</time></trkpt><trkpt lat="43.818905" lon="12.6288467"><ele>298.75</ele><time>2026-04-25T08:13:54.533Z</time></trkpt><trkpt lat="43.8188617" lon="12.629015"><ele>297.0</ele><time>2026-04-25T08:13:55.532Z</time></trkpt><trkpt lat="43.81881" lon="12.6291683"><ele>297.0</ele><time>2026-04-25T08:13:56.534Z</time></trkpt><trkpt lat="43.818735" lon="12.6293017"><ele>297.0</ele><time>2026-04-25T08:13:57.534Z</time></trkpt><trkpt lat="43.818635" lon="12.62941"><ele>297.0</ele><time>2026-04-25T08:13:58.533Z</time></trkpt><trkpt lat="43.81851" lon="12.6294917"><ele>297.0</ele><time>2026-04-25T08:13:59.532Z</time></trkpt><trkpt lat="43.8183733" lon="12.6295583"><ele>292.3333333333333</ele><time>2026-04-25T08:14:00.532Z</time></trkpt><trkpt lat="43.81823" lon="12.6296183"><ele>287.66666666666663</ele><time>2026-04-25T08:14:01.534Z</time></trkpt><trkpt lat="43.8180833" lon="12.6296783"><ele>283.0</ele><time>2026-04-25T08:14:02.532Z</time></trkpt><trkpt lat="43.8179333" lon="12.62974"><ele>283.0</ele><time>2026-04-25T08:14:03.533Z</time></trkpt><trkpt lat="43.81778" lon="12.6298017"><ele>283.0</ele><time>2026-04-25T08:14:04.533Z</time></trkpt><trkpt lat="43.81762" lon="12.6298617"><ele>283.0</ele><time>2026-04-25T08:14:05.532Z</time></trkpt><trkpt lat="43.8174567" lon="12.62992"><ele>287.0</ele><time>2026-04-25T08:14:06.535Z</time></trkpt><trkpt lat="43.817115" lon="12.63004"><ele>291.0</ele><time>2026-04-25T08:14:08.531Z</time></trkpt><trkpt lat="43.816945" lon="12.6301033"><ele>290.3333333333333</ele><time>2026-04-25T08:14:09.532Z</time></trkpt><trkpt lat="43.81677" lon="12.6301633"><ele>289.66666666666663</ele><time>2026-04-25T08:14:10.533Z</time></trkpt><trkpt lat="43.816595" lon="12.630235"><ele>289.0</ele><time>2026-04-25T08:14:11.531Z</time></trkpt><trkpt lat="43.81642" lon="12.6303083"><ele>286.3333333333333</ele><time>2026-04-25T08:14:12.533Z</time></trkpt><trkpt lat="43.8162533" lon="12.63038"><ele>283.6666666666667</ele><time>2026-04-25T08:14:13.532Z</time></trkpt><trkpt lat="43.8160883" lon="12.630445"><ele>281.0</ele><time>2026-04-25T08:14:14.533Z</time></trkpt><trkpt lat="43.8159233" lon="12.6305133"><ele>281.0</ele><time>2026-04-25T08:14:15.536Z</time></trkpt><trkpt lat="43.8157583" lon="12.6305833"><ele>281.0</ele><time>2026-04-25T08:14:16.535Z</time></trkpt><trkpt lat="43.8155917" lon="12.6306483"><ele>281.0</ele><time>2026-04-25T08:14:17.531Z</time></trkpt><trkpt lat="43.8154233" lon="12.6307183"><ele>281.0</ele><time>2026-04-25T08:14:18.533Z</time></trkpt><trkpt lat="43.8152583" lon="12.6307967"><ele>281.0</ele><time>2026-04-25T08:14:19.534Z</time></trkpt><trkpt lat="43.8151" lon="12.6308967"><ele>281.0</ele><time>2026-04-25T08:14:20.531Z</time></trkpt><trkpt lat="43.8149533" lon="12.6310133"><ele>279.25</ele><time>2026-04-25T08:14:21.532Z</time></trkpt><trkpt lat="43.8148183" lon="12.631135"><ele>277.5</ele><time>2026-04-25T08:14:22.535Z</time></trkpt><trkpt lat="43.8147" lon="12.63125"><ele>275.75</ele><time>2026-04-25T08:14:23.533Z</time></trkpt><trkpt lat="43.8145917" lon="12.6313483"><ele>274.0</ele><time>2026-04-25T08:14:24.534Z</time></trkpt><trkpt lat="43.8144833" lon="12.6314117"><ele>274.0</ele><time>2026-04-25T08:14:25.534Z</time></trkpt><trkpt lat="43.8143733" lon="12.6314267"><ele>274.0</ele><time>2026-04-25T08:14:26.534Z</time></trkpt><trkpt lat="43.8142583" lon="12.6313883"><ele>274.0</ele><time>2026-04-25T08:14:27.533Z</time></trkpt><trkpt lat="43.8140833" lon="12.6311617"><ele>278.4</ele><time>2026-04-25T08:14:29.533Z</time></trkpt><trkpt lat="43.81404" lon="12.631035"><ele>282.79999999999995</ele><time>2026-04-25T08:14:30.534Z</time></trkpt><trkpt lat="43.813985" lon="12.6309517"><ele>287.20000000000005</ele><time>2026-04-25T08:14:31.535Z</time></trkpt><trkpt lat="43.813885" lon="12.630885"><ele>291.6</ele><time>2026-04-25T08:14:33.534Z</time></trkpt><trkpt lat="43.8137967" lon="12.6310517"><ele>296.0</ele><time>2026-04-25T08:14:35.532Z</time></trkpt><trkpt lat="43.8137283" lon="12.6312117"><ele>296.0</ele><time>2026-04-25T08:14:36.535Z</time></trkpt><trkpt lat="43.8136267" lon="12.631365"><ele>296.0</ele><time>2026-04-25T08:14:37.533Z</time></trkpt><trkpt lat="43.813515" lon="12.631475"><ele>296.0</ele><time>2026-04-25T08:14:38.531Z</time></trkpt><trkpt lat="43.813375" lon="12.6315617"><ele>296.0</ele><time>2026-04-25T08:14:39.536Z</time></trkpt><trkpt lat="43.81322" lon="12.6316217"><ele>303.0</ele><time>2026-04-25T08:14:40.534Z</time></trkpt><trkpt lat="43.8130583" lon="12.63168"><ele>310.0</ele><time>2026-04-25T08:14:41.534Z</time></trkpt><trkpt lat="43.812895" lon="12.6317417"><ele>317.0</ele><time>2026-04-25T08:14:42.534Z</time></trkpt><trkpt lat="43.8127267" lon="12.6318067"><ele>312.33333333333337</ele><time>2026-04-25T08:14:43.535Z</time></trkpt><trkpt lat="43.8125633" lon="12.6318683"><ele>307.6666666666667</ele><time>2026-04-25T08:14:44.532Z</time></trkpt><trkpt lat="43.8124017" lon="12.6319283"><ele>303.0</ele><time>2026-04-25T08:14:45.535Z</time></trkpt><trkpt lat="43.8122533" lon="12.6319767"><ele>303.0</ele><time>2026-04-25T08:14:46.535Z</time></trkpt><trkpt lat="43.8121133" lon="12.6320117"><ele>303.0</ele><time>2026-04-25T08:14:47.534Z</time></trkpt><trkpt lat="43.8119817" lon="12.632035"><ele>303.0</ele><time>2026-04-25T08:14:48.536Z</time></trkpt><trkpt lat="43.8117233" lon="12.6320533"><ele>307.6</ele><time>2026-04-25T08:14:50.534Z</time></trkpt><trkpt lat="43.8116133" lon="12.632055"><ele>312.20000000000005</ele><time>2026-04-25T08:14:51.534Z</time></trkpt><trkpt lat="43.8115133" lon="12.6320533"><ele>316.8</ele><time>2026-04-25T08:14:52.535Z</time></trkpt><trkpt lat="43.8114317" lon="12.63206"><ele>321.40000000000003</ele><time>2026-04-25T08:14:53.535Z</time></trkpt><trkpt lat="43.811365" lon="12.632055"><ele>326.0</ele><time>2026-04-25T08:14:54.535Z</time></trkpt><trkpt lat="43.8112683" lon="12.63204"><ele>326.0</ele><time>2026-04-25T08:14:56.53Z</time></trkpt><trkpt lat="43.8111833" lon="12.6320033"><ele>326.0</ele><time>2026-04-25T08:14:59.536Z</time></trkpt><trkpt lat="43.8110933" lon="12.6320183"><ele>326.0</ele><time>2026-04-25T08:15:01.532Z</time></trkpt><trkpt lat="43.8109667" lon="12.6320883"><ele>326.0</ele><time>2026-04-25T08:15:03.534Z</time></trkpt><trkpt lat="43.8108983" lon="12.6321217"><ele>326.0</ele><time>2026-04-25T08:15:04.531Z</time></trkpt><trkpt lat="43.8108283" lon="12.6321533"><ele>326.6</ele><time>2026-04-25T08:15:05.533Z</time></trkpt><trkpt lat="43.8107633" lon="12.63218"><ele>327.20000000000005</ele><time>2026-04-25T08:15:06.534Z</time></trkpt><trkpt lat="43.8106633" lon="12.6322067"><ele>327.79999999999995</ele><time>2026-04-25T08:15:08.531Z</time></trkpt><trkpt lat="43.8105883" lon="12.6321433"><ele>328.4</ele><time>2026-04-25T08:15:10.533Z</time></trkpt><trkpt lat="43.81056" lon="12.631905"><ele>329.0</ele><time>2026-04-25T08:15:13.533Z</time></trkpt><trkpt lat="43.8106033" lon="12.6318067"><ele>329.0</ele><time>2026-04-25T08:15:14.535Z</time></trkpt><trkpt lat="43.810645" lon="12.63171"><ele>329.0</ele><time>2026-04-25T08:15:15.534Z</time></trkpt><trkpt lat="43.810725" lon="12.63159"><ele>329.0</ele><time>2026-04-25T08:15:16.531Z</time></trkpt><trkpt lat="43.8108083" lon="12.6314633"><ele>329.0</ele><time>2026-04-25T08:15:17.533Z</time></trkpt><trkpt lat="43.8108783" lon="12.631345"><ele>329.0</ele><time>2026-04-25T08:15:18.532Z</time></trkpt><trkpt lat="43.81095" lon="12.6312283"><ele>330.6666666666667</ele><time>2026-04-25T08:15:19.535Z</time></trkpt><trkpt lat="43.811025" lon="12.6311117"><ele>332.3333333333333</ele><time>2026-04-25T08:15:20.532Z</time></trkpt><trkpt lat="43.811175" lon="12.630845"><ele>334.0</ele><time>2026-04-25T08:15:22.534Z</time></trkpt><trkpt lat="43.81125" lon="12.6306933"><ele>334.0</ele><time>2026-04-25T08:15:23.531Z</time></trkpt><trkpt lat="43.81133" lon="12.63052"><ele>334.0</ele><time>2026-04-25T08:15:24.531Z</time></trkpt><trkpt lat="43.8114067" lon="12.630355"><ele>334.0</ele><time>2026-04-25T08:15:25.532Z</time></trkpt><trkpt lat="43.8114767" lon="12.6301883"><ele>334.0</ele><time>2026-04-25T08:15:26.532Z</time></trkpt><trkpt lat="43.81154" lon="12.63001"><ele>330.75</ele><time>2026-04-25T08:15:27.531Z</time></trkpt><trkpt lat="43.8116083" lon="12.6298333"><ele>327.5</ele><time>2026-04-25T08:15:28.533Z</time></trkpt><trkpt lat="43.8116717" lon="12.6296533"><ele>324.25</ele><time>2026-04-25T08:15:29.531Z</time></trkpt><trkpt lat="43.8117333" lon="12.62948"><ele>321.0</ele><time>2026-04-25T08:15:30.532Z</time></trkpt><trkpt lat="43.8117883" lon="12.6293033"><ele>320.0</ele><time>2026-04-25T08:15:31.532Z</time></trkpt><trkpt lat="43.811895" lon="12.6289583"><ele>319.0</ele><time>2026-04-25T08:15:33.532Z</time></trkpt><trkpt lat="43.8119483" lon="12.6287833"><ele>318.0</ele><time>2026-04-25T08:15:34.533Z</time></trkpt><trkpt lat="43.8120017" lon="12.6286"><ele>315.75</ele><time>2026-04-25T08:15:35.532Z</time></trkpt><trkpt lat="43.8120533" lon="12.6284167"><ele>313.5</ele><time>2026-04-25T08:15:36.534Z</time></trkpt><trkpt lat="43.8121067" lon="12.6282333"><ele>311.25</ele><time>2026-04-25T08:15:37.531Z</time></trkpt><trkpt lat="43.8121667" lon="12.62806"><ele>309.0</ele><time>2026-04-25T08:15:38.531Z</time></trkpt><trkpt lat="43.8122317" lon="12.62789"><ele>306.75</ele><time>2026-04-25T08:15:39.531Z</time></trkpt><trkpt lat="43.812305" lon="12.6277233"><ele>304.5</ele><time>2026-04-25T08:15:40.535Z</time></trkpt><trkpt lat="43.8123817" lon="12.627565"><ele>302.25</ele><time>2026-04-25T08:15:41.534Z</time></trkpt><trkpt lat="43.8124683" lon="12.62743"><ele>300.0</ele><time>2026-04-25T08:15:42.534Z</time></trkpt><trkpt lat="43.81255" lon="12.6273267"><ele>300.0</ele><time>2026-04-25T08:15:43.532Z</time></trkpt><trkpt lat="43.8126167" lon="12.627245"><ele>300.0</ele><time>2026-04-25T08:15:44.534Z</time></trkpt><trkpt lat="43.812665" lon="12.6271733"><ele>300.0</ele><time>2026-04-25T08:15:45.535Z</time></trkpt><trkpt lat="43.8126983" lon="12.62703"><ele>300.0</ele><time>2026-04-25T08:15:47.531Z</time></trkpt><trkpt lat="43.8126467" lon="12.6269767"><ele>300.0</ele><time>2026-04-25T08:15:48.531Z</time></trkpt><trkpt lat="43.8125483" lon="12.6269733"><ele>300.0</ele><time>2026-04-25T08:15:49.531Z</time></trkpt><trkpt lat="43.812435" lon="12.6269983"><ele>300.0</ele><time>2026-04-25T08:15:50.531Z</time></trkpt><trkpt lat="43.8123067" lon="12.62703"><ele>300.0</ele><time>2026-04-25T08:15:51.53Z</time></trkpt><trkpt lat="43.8121683" lon="12.6270467"><ele>300.0</ele><time>2026-04-25T08:15:52.532Z</time></trkpt><trkpt lat="43.8118717" lon="12.62698"><ele>293.3333333333333</ele><time>2026-04-25T08:15:54.532Z</time></trkpt><trkpt lat="43.8117033" lon="12.6269133"><ele>286.66666666666663</ele><time>2026-04-25T08:15:55.532Z</time></trkpt><trkpt lat="43.8115667" lon="12.6268083"><ele>280.0</ele><time>2026-04-25T08:15:56.531Z</time></trkpt><trkpt lat="43.8114583" lon="12.6266817"><ele>280.0</ele><time>2026-04-25T08:15:57.532Z</time></trkpt><trkpt lat="43.81137" lon="12.6265517"><ele>280.0</ele><time>2026-04-25T08:15:58.531Z</time></trkpt><trkpt lat="43.81132" lon="12.6264017"><ele>280.0</ele><time>2026-04-25T08:15:59.532Z</time></trkpt><trkpt lat="43.8113117" lon="12.62624"><ele>280.0</ele><time>2026-04-25T08:16:00.533Z</time></trkpt><trkpt lat="43.8113267" lon="12.6260717"><ele>278.5</ele><time>2026-04-25T08:16:01.533Z</time></trkpt><trkpt lat="43.81133" lon="12.6259083"><ele>277.0</ele><time>2026-04-25T08:16:02.531Z</time></trkpt><trkpt lat="43.8113183" lon="12.6257383"><ele>275.5</ele><time>2026-04-25T08:16:03.534Z</time></trkpt><trkpt lat="43.8112917" lon="12.62556"><ele>274.0</ele><time>2026-04-25T08:16:04.532Z</time></trkpt><trkpt lat="43.81125" lon="12.62538"><ele>272.25</ele><time>2026-04-25T08:16:05.531Z</time></trkpt><trkpt lat="43.8111983" lon="12.6252033"><ele>270.5</ele><time>2026-04-25T08:16:06.532Z</time></trkpt><trkpt lat="43.8111467" lon="12.6250283"><ele>268.75</ele><time>2026-04-25T08:16:07.534Z</time></trkpt><trkpt lat="43.8111017" lon="12.624855"><ele>267.0</ele><time>2026-04-25T08:16:08.53Z</time></trkpt><trkpt lat="43.8110583" lon="12.6246767"><ele>267.0</ele><time>2026-04-25T08:16:09.533Z</time></trkpt><trkpt lat="43.811015" lon="12.62449"><ele>267.0</ele><time>2026-04-25T08:16:10.532Z</time></trkpt><trkpt lat="43.8109567" lon="12.624315"><ele>267.0</ele><time>2026-04-25T08:16:11.535Z</time></trkpt><trkpt lat="43.81088" lon="12.624155"><ele>267.0</ele><time>2026-04-25T08:16:12.531Z</time></trkpt><trkpt lat="43.810785" lon="12.6240183"><ele>267.0</ele><time>2026-04-25T08:16:13.533Z</time></trkpt><trkpt lat="43.810575" lon="12.6237783"><ele>267.0</ele><time>2026-04-25T08:16:15.534Z</time></trkpt><trkpt lat="43.8104717" lon="12.6236617"><ele>267.0</ele><time>2026-04-25T08:16:16.534Z</time></trkpt><trkpt lat="43.8103783" lon="12.6235183"><ele>265.0</ele><time>2026-04-25T08:16:17.531Z</time></trkpt><trkpt lat="43.8102867" lon="12.62337"><ele>263.0</ele><time>2026-04-25T08:16:18.531Z</time></trkpt><trkpt lat="43.8101967" lon="12.623215"><ele>261.0</ele><time>2026-04-25T08:16:19.533Z</time></trkpt><trkpt lat="43.81011" lon="12.623055"><ele>259.0</ele><time>2026-04-25T08:16:20.53Z</time></trkpt><trkpt lat="43.81003" lon="12.62289"><ele>257.3333333333333</ele><time>2026-04-25T08:16:21.533Z</time></trkpt><trkpt lat="43.8099533" lon="12.6227133"><ele>255.66666666666669</ele><time>2026-04-25T08:16:22.532Z</time></trkpt><trkpt lat="43.8098767" lon="12.6225317"><ele>254.0</ele><time>2026-04-25T08:16:23.531Z</time></trkpt><trkpt lat="43.8097967" lon="12.6223467"><ele>254.0</ele><time>2026-04-25T08:16:24.531Z</time></trkpt><trkpt lat="43.8097167" lon="12.622165"><ele>254.0</ele><time>2026-04-25T08:16:25.534Z</time></trkpt><trkpt lat="43.809635" lon="12.6219817"><ele>254.0</ele><time>2026-04-25T08:16:26.531Z</time></trkpt><trkpt lat="43.8095467" lon="12.6217983"><ele>251.33333333333334</ele><time>2026-04-25T08:16:27.533Z</time></trkpt><trkpt lat="43.80945" lon="12.6216183"><ele>248.66666666666669</ele><time>2026-04-25T08:16:28.534Z</time></trkpt><trkpt lat="43.8093383" lon="12.6214517"><ele>246.0</ele><time>2026-04-25T08:16:29.535Z</time></trkpt><trkpt lat="43.80922" lon="12.6212967"><ele>244.5</ele><time>2026-04-25T08:16:30.534Z</time></trkpt><trkpt lat="43.8091" lon="12.6211517"><ele>243.0</ele><time>2026-04-25T08:16:31.534Z</time></trkpt><trkpt lat="43.808985" lon="12.6210233"><ele>241.5</ele><time>2026-04-25T08:16:32.534Z</time></trkpt><trkpt lat="43.80888" lon="12.62091"><ele>240.0</ele><time>2026-04-25T08:16:33.533Z</time></trkpt><trkpt lat="43.8087733" lon="12.62082"><ele>239.66666666666669</ele><time>2026-04-25T08:16:34.532Z</time></trkpt><trkpt lat="43.808525" lon="12.620745"><ele>239.33333333333334</ele><time>2026-04-25T08:16:36.531Z</time></trkpt><trkpt lat="43.808395" lon="12.6207367"><ele>239.0</ele><time>2026-04-25T08:16:37.531Z</time></trkpt><trkpt lat="43.8082767" lon="12.6207217"><ele>236.2</ele><time>2026-04-25T08:16:38.531Z</time></trkpt><trkpt lat="43.8081683" lon="12.6206717"><ele>233.39999999999998</ele><time>2026-04-25T08:16:39.532Z</time></trkpt><trkpt lat="43.8080783" lon="12.6205883"><ele>230.6</ele><time>2026-04-25T08:16:40.532Z</time></trkpt><trkpt lat="43.808025" lon="12.6204867"><ele>227.8</ele><time>2026-04-25T08:16:41.531Z</time></trkpt><trkpt lat="43.8080067" lon="12.6203767"><ele>225.0</ele><time>2026-04-25T08:16:42.534Z</time></trkpt><trkpt lat="43.808025" lon="12.6202583"><ele>224.0</ele><time>2026-04-25T08:16:43.534Z</time></trkpt><trkpt lat="43.8081" lon="12.6201517"><ele>223.0</ele><time>2026-04-25T08:16:44.535Z</time></trkpt><trkpt lat="43.8081583" lon="12.6200683"><ele>222.0</ele><time>2026-04-25T08:16:45.531Z</time></trkpt><trkpt lat="43.80828" lon="12.6200017"><ele>221.0</ele><time>2026-04-25T08:16:46.533Z</time></trkpt><trkpt lat="43.8084217" lon="12.61989"><ele>223.0</ele><time>2026-04-25T08:16:47.531Z</time></trkpt><trkpt lat="43.8085483" lon="12.6197567"><ele>225.0</ele><time>2026-04-25T08:16:48.532Z</time></trkpt><trkpt lat="43.8086767" lon="12.6196"><ele>227.0</ele><time>2026-04-25T08:16:49.531Z</time></trkpt><trkpt lat="43.8087583" lon="12.6194433"><ele>224.39999999999998</ele><time>2026-04-25T08:16:50.531Z</time></trkpt><trkpt lat="43.8088283" lon="12.6192983"><ele>221.79999999999998</ele><time>2026-04-25T08:16:51.531Z</time></trkpt><trkpt lat="43.8088917" lon="12.6191683"><ele>219.2</ele><time>2026-04-25T08:16:52.534Z</time></trkpt><trkpt lat="43.8089333" lon="12.6190633"><ele>216.6</ele><time>2026-04-25T08:16:53.532Z</time></trkpt><trkpt lat="43.80895" lon="12.618975"><ele>214.0</ele><time>2026-04-25T08:16:54.535Z</time></trkpt><trkpt lat="43.8089067" lon="12.618845"><ele>214.0</ele><time>2026-04-25T08:16:56.531Z</time></trkpt><trkpt lat="43.8086933" lon="12.6188167"><ele>213.99999999999997</ele><time>2026-04-25T08:16:59.533Z</time></trkpt><trkpt lat="43.8086317" lon="12.6187533"><ele>213.99999999999997</ele><time>2026-04-25T08:17:00.531Z</time></trkpt><trkpt lat="43.8086083" lon="12.6186583"><ele>214.0</ele><time>2026-04-25T08:17:01.532Z</time></trkpt><trkpt lat="43.808625" lon="12.618545"><ele>214.0</ele><time>2026-04-25T08:17:02.532Z</time></trkpt><trkpt lat="43.808675" lon="12.6184367"><ele>211.6</ele><time>2026-04-25T08:17:03.532Z</time></trkpt><trkpt lat="43.8087067" lon="12.61834"><ele>209.2</ele><time>2026-04-25T08:17:04.533Z</time></trkpt><trkpt lat="43.8087733" lon="12.6182933"><ele>206.79999999999998</ele><time>2026-04-25T08:17:05.531Z</time></trkpt><trkpt lat="43.8088517" lon="12.61827"><ele>204.39999999999998</ele><time>2026-04-25T08:17:06.534Z</time></trkpt><trkpt lat="43.8090117" lon="12.6183617"><ele>202.0</ele><time>2026-04-25T08:17:07.533Z</time></trkpt><trkpt lat="43.809125" lon="12.6184017"><ele>202.0</ele><time>2026-04-25T08:17:08.531Z</time></trkpt><trkpt lat="43.809235" lon="12.61843"><ele>202.0</ele><time>2026-04-25T08:17:09.531Z</time></trkpt><trkpt lat="43.80935" lon="12.6184117"><ele>202.0</ele><time>2026-04-25T08:17:10.533Z</time></trkpt><trkpt lat="43.8094383" lon="12.6183483"><ele>202.0</ele><time>2026-04-25T08:17:11.531Z</time></trkpt><trkpt lat="43.8094883" lon="12.6182533"><ele>202.0</ele><time>2026-04-25T08:17:12.534Z</time></trkpt><trkpt lat="43.809515" lon="12.6181317"><ele>200.0</ele><time>2026-04-25T08:17:13.532Z</time></trkpt><trkpt lat="43.8094917" lon="12.618005"><ele>198.0</ele><time>2026-04-25T08:17:14.534Z</time></trkpt><trkpt lat="43.8094467" lon="12.6178817"><ele>196.0</ele><time>2026-04-25T08:17:15.534Z</time></trkpt><trkpt lat="43.809385" lon="12.6177767"><ele>194.0</ele><time>2026-04-25T08:17:16.532Z</time></trkpt><trkpt lat="43.8092983" lon="12.6177083"><ele>192.0</ele><time>2026-04-25T08:17:17.531Z</time></trkpt><trkpt lat="43.8090983" lon="12.6176733"><ele>192.0</ele><time>2026-04-25T08:17:19.533Z</time></trkpt><trkpt lat="43.80898" lon="12.6176817"><ele>192.0</ele><time>2026-04-25T08:17:20.531Z</time></trkpt><trkpt lat="43.8088433" lon="12.61769"><ele>192.0</ele><time>2026-04-25T08:17:21.532Z</time></trkpt><trkpt lat="43.8086983" lon="12.6177083"><ele>192.0</ele><time>2026-04-25T08:17:22.531Z</time></trkpt><trkpt lat="43.808555" lon="12.61774"><ele>192.66666666666669</ele><time>2026-04-25T08:17:23.535Z</time></trkpt><trkpt lat="43.8084117" lon="12.61781"><ele>193.33333333333334</ele><time>2026-04-25T08:17:24.532Z</time></trkpt><trkpt lat="43.8082733" lon="12.6179033"><ele>194.0</ele><time>2026-04-25T08:17:25.534Z</time></trkpt><trkpt lat="43.8081467" lon="12.6180017"><ele>194.0</ele><time>2026-04-25T08:17:26.531Z</time></trkpt><trkpt lat="43.8080217" lon="12.618075"><ele>194.0</ele><time>2026-04-25T08:17:27.531Z</time></trkpt><trkpt lat="43.8078933" lon="12.6181183"><ele>194.0</ele><time>2026-04-25T08:17:28.531Z</time></trkpt><trkpt lat="43.8077583" lon="12.6181517"><ele>194.0</ele><time>2026-04-25T08:17:29.531Z</time></trkpt><trkpt lat="43.8076217" lon="12.6181867"><ele>188.66666666666669</ele><time>2026-04-25T08:17:30.531Z</time></trkpt><trkpt lat="43.807475" lon="12.6182367"><ele>183.33333333333334</ele><time>2026-04-25T08:17:31.532Z</time></trkpt><trkpt lat="43.80733" lon="12.618305"><ele>178.0</ele><time>2026-04-25T08:17:32.531Z</time></trkpt><trkpt lat="43.807185" lon="12.6183867"><ele>178.0</ele><time>2026-04-25T08:17:33.531Z</time></trkpt><trkpt lat="43.8070433" lon="12.6184667"><ele>178.0</ele><time>2026-04-25T08:17:34.532Z</time></trkpt><trkpt lat="43.8069133" lon="12.6185483"><ele>178.0</ele><time>2026-04-25T08:17:35.532Z</time></trkpt><trkpt lat="43.80679" lon="12.618635"><ele>178.0</ele><time>2026-04-25T08:17:36.533Z</time></trkpt><trkpt lat="43.8066683" lon="12.6187233"><ele>176.66666666666669</ele><time>2026-04-25T08:17:37.531Z</time></trkpt><trkpt lat="43.8065467" lon="12.618815"><ele>175.33333333333334</ele><time>2026-04-25T08:17:38.531Z</time></trkpt><trkpt lat="43.8063017" lon="12.6190083"><ele>174.0</ele><time>2026-04-25T08:17:40.534Z</time></trkpt><trkpt lat="43.8061817" lon="12.6191217"><ele>174.0</ele><time>2026-04-25T08:17:41.534Z</time></trkpt><trkpt lat="43.806065" lon="12.6192417"><ele>174.0</ele><time>2026-04-25T08:17:42.534Z</time></trkpt><trkpt lat="43.805945" lon="12.6193617"><ele>174.0</ele><time>2026-04-25T08:17:43.534Z</time></trkpt><trkpt lat="43.8058267" lon="12.6194767"><ele>174.0</ele><time>2026-04-25T08:17:44.534Z</time></trkpt><trkpt lat="43.8057083" lon="12.6195783"><ele>170.75</ele><time>2026-04-25T08:17:45.532Z</time></trkpt><trkpt lat="43.8055867" lon="12.619655"><ele>167.5</ele><time>2026-04-25T08:17:46.534Z</time></trkpt><trkpt lat="43.80546" lon="12.6196883"><ele>164.25</ele><time>2026-04-25T08:17:47.533Z</time></trkpt><trkpt lat="43.8053217" lon="12.619675"><ele>161.0</ele><time>2026-04-25T08:17:48.534Z</time></trkpt><trkpt lat="43.805175" lon="12.619635"><ele>156.66666666666666</ele><time>2026-04-25T08:17:49.533Z</time></trkpt><trkpt lat="43.805025" lon="12.6195867"><ele>152.33333333333334</ele><time>2026-04-25T08:17:50.537Z</time></trkpt><trkpt lat="43.8048717" lon="12.6195367"><ele>148.0</ele><time>2026-04-25T08:17:51.533Z</time></trkpt><trkpt lat="43.8047283" lon="12.6194867"><ele>148.25</ele><time>2026-04-25T08:17:52.533Z</time></trkpt><trkpt lat="43.804585" lon="12.6194333"><ele>148.5</ele><time>2026-04-25T08:17:53.534Z</time></trkpt><trkpt lat="43.8044567" lon="12.6193683"><ele>148.75</ele><time>2026-04-25T08:17:54.533Z</time></trkpt><trkpt lat="43.804355" lon="12.6192833"><ele>149.0</ele><time>2026-04-25T08:17:55.537Z</time></trkpt><trkpt lat="43.8042767" lon="12.6191767"><ele>149.0</ele><time>2026-04-25T08:17:56.535Z</time></trkpt><trkpt lat="43.8042417" lon="12.6190633"><ele>149.0</ele><time>2026-04-25T08:17:57.531Z</time></trkpt><trkpt lat="43.8042633" lon="12.6189367"><ele>149.0</ele><time>2026-04-25T08:17:58.537Z</time></trkpt><trkpt lat="43.804335" lon="12.6188033"><ele>149.0</ele><time>2026-04-25T08:17:59.532Z</time></trkpt><trkpt lat="43.8045083" lon="12.6185333"><ele>148.5</ele><time>2026-04-25T08:18:01.533Z</time></trkpt><trkpt lat="43.8045933" lon="12.61839"><ele>148.0</ele><time>2026-04-25T08:18:02.534Z</time></trkpt><trkpt lat="43.804675" lon="12.6182367"><ele>147.5</ele><time>2026-04-25T08:18:03.534Z</time></trkpt><trkpt lat="43.8047317" lon="12.6180783"><ele>147.0</ele><time>2026-04-25T08:18:04.534Z</time></trkpt><trkpt lat="43.8047617" lon="12.617915"><ele>146.25</ele><time>2026-04-25T08:18:05.533Z</time></trkpt><trkpt lat="43.8047617" lon="12.617745"><ele>145.5</ele><time>2026-04-25T08:18:06.534Z</time></trkpt><trkpt lat="43.8047417" lon="12.61756"><ele>144.75</ele><time>2026-04-25T08:18:07.534Z</time></trkpt><trkpt lat="43.8047183" lon="12.61737"><ele>144.0</ele><time>2026-04-25T08:18:08.534Z</time></trkpt><trkpt lat="43.804695" lon="12.617175"><ele>143.0</ele><time>2026-04-25T08:18:09.533Z</time></trkpt><trkpt lat="43.8046783" lon="12.6169833"><ele>142.0</ele><time>2026-04-25T08:18:10.534Z</time></trkpt><trkpt lat="43.8046617" lon="12.6167933"><ele>141.0</ele><time>2026-04-25T08:18:11.533Z</time></trkpt><trkpt lat="43.8046483" lon="12.6166117"><ele>140.0</ele><time>2026-04-25T08:18:12.534Z</time></trkpt><trkpt lat="43.8046317" lon="12.61644"><ele>140.0</ele><time>2026-04-25T08:18:13.533Z</time></trkpt><trkpt lat="43.8045933" lon="12.61628"><ele>140.0</ele><time>2026-04-25T08:18:14.533Z</time></trkpt><trkpt lat="43.8045367" lon="12.61614"><ele>140.0</ele><time>2026-04-25T08:18:15.534Z</time></trkpt><trkpt lat="43.80445" lon="12.61605"><ele>140.0</ele><time>2026-04-25T08:18:16.534Z</time></trkpt><trkpt lat="43.8043517" lon="12.6160167"><ele>140.0</ele><time>2026-04-25T08:18:17.534Z</time></trkpt><trkpt lat="43.80424" lon="12.6160417"><ele>139.0</ele><time>2026-04-25T08:18:18.534Z</time></trkpt><trkpt lat="43.8041183" lon="12.6161117"><ele>138.0</ele><time>2026-04-25T08:18:19.532Z</time></trkpt><trkpt lat="43.8040033" lon="12.6162133"><ele>137.0</ele><time>2026-04-25T08:18:20.535Z</time></trkpt><trkpt lat="43.8037833" lon="12.6164117"><ele>137.0</ele><time>2026-04-25T08:18:22.531Z</time></trkpt><trkpt lat="43.8036717" lon="12.6165033"><ele>137.0</ele><time>2026-04-25T08:18:23.531Z</time></trkpt><trkpt lat="43.80356" lon="12.6165883"><ele>137.0</ele><time>2026-04-25T08:18:24.534Z</time></trkpt><trkpt lat="43.80346" lon="12.6166533"><ele>137.0</ele><time>2026-04-25T08:18:25.531Z</time></trkpt><trkpt lat="43.8033717" lon="12.6167"><ele>135.79999999999998</ele><time>2026-04-25T08:18:26.534Z</time></trkpt><trkpt lat="43.8032883" lon="12.616735"><ele>134.6</ele><time>2026-04-25T08:18:27.532Z</time></trkpt><trkpt lat="43.8032017" lon="12.6167683"><ele>133.39999999999998</ele><time>2026-04-25T08:18:28.533Z</time></trkpt><trkpt lat="43.8031" lon="12.616815"><ele>132.2</ele><time>2026-04-25T08:18:29.531Z</time></trkpt><trkpt lat="43.8029867" lon="12.6168667"><ele>131.0</ele><time>2026-04-25T08:18:30.531Z</time></trkpt><trkpt lat="43.8028683" lon="12.616925"><ele>131.0</ele><time>2026-04-25T08:18:31.534Z</time></trkpt><trkpt lat="43.8027483" lon="12.6169917"><ele>131.0</ele><time>2026-04-25T08:18:32.532Z</time></trkpt><trkpt lat="43.8026233" lon="12.6170567"><ele>131.0</ele><time>2026-04-25T08:18:33.531Z</time></trkpt><trkpt lat="43.80249" lon="12.61713"><ele>131.0</ele><time>2026-04-25T08:18:34.531Z</time></trkpt><trkpt lat="43.802355" lon="12.6172017"><ele>131.0</ele><time>2026-04-25T08:18:35.532Z</time></trkpt><trkpt lat="43.8022267" lon="12.6172867"><ele>131.0</ele><time>2026-04-25T08:18:36.533Z</time></trkpt><trkpt lat="43.8021067" lon="12.6173917"><ele>131.0</ele><time>2026-04-25T08:18:37.534Z</time></trkpt><trkpt lat="43.8019917" lon="12.6175133"><ele>131.0</ele><time>2026-04-25T08:18:38.53Z</time></trkpt><trkpt lat="43.8018867" lon="12.61764"><ele>129.33333333333331</ele><time>2026-04-25T08:18:39.533Z</time></trkpt><trkpt lat="43.8017867" lon="12.6177667"><ele>127.66666666666666</ele><time>2026-04-25T08:18:40.533Z</time></trkpt><trkpt lat="43.8016933" lon="12.6179"><ele>126.0</ele><time>2026-04-25T08:18:41.534Z</time></trkpt><trkpt lat="43.8014983" lon="12.6181567"><ele>126.0</ele><time>2026-04-25T08:18:43.532Z</time></trkpt><trkpt lat="43.8013883" lon="12.6182767"><ele>126.0</ele><time>2026-04-25T08:18:44.531Z</time></trkpt><trkpt lat="43.8012717" lon="12.6183817"><ele>126.0</ele><time>2026-04-25T08:18:45.531Z</time></trkpt><trkpt lat="43.8011583" lon="12.61847"><ele>126.0</ele><time>2026-04-25T08:18:46.533Z</time></trkpt><trkpt lat="43.8010433" lon="12.6185467"><ele>125.5</ele><time>2026-04-25T08:18:47.531Z</time></trkpt><trkpt lat="43.8009283" lon="12.6186133"><ele>125.0</ele><time>2026-04-25T08:18:48.531Z</time></trkpt><trkpt lat="43.800815" lon="12.6186717"><ele>124.5</ele><time>2026-04-25T08:18:49.531Z</time></trkpt><trkpt lat="43.8007083" lon="12.6187217"><ele>124.0</ele><time>2026-04-25T08:18:50.531Z</time></trkpt><trkpt lat="43.8006033" lon="12.6187667"><ele>124.00000000000001</ele><time>2026-04-25T08:18:51.532Z</time></trkpt><trkpt lat="43.8005083" lon="12.6188033"><ele>124.0</ele><time>2026-04-25T08:18:52.534Z</time></trkpt><trkpt lat="43.80043" lon="12.61883"><ele>124.0</ele><time>2026-04-25T08:18:53.531Z</time></trkpt><trkpt lat="43.80036" lon="12.6188483"><ele>124.0</ele><time>2026-04-25T08:18:54.532Z</time></trkpt><trkpt lat="43.80029" lon="12.618865"><ele>124.00000000000001</ele><time>2026-04-25T08:18:55.531Z</time></trkpt><trkpt lat="43.800215" lon="12.6188767"><ele>124.0</ele><time>2026-04-25T08:18:56.531Z</time></trkpt><trkpt lat="43.8001283" lon="12.6188817"><ele>123.0</ele><time>2026-04-25T08:18:57.531Z</time></trkpt><trkpt lat="43.80003" lon="12.6188867"><ele>122.0</ele><time>2026-04-25T08:18:58.532Z</time></trkpt><trkpt lat="43.7999167" lon="12.6188983"><ele>121.0</ele><time>2026-04-25T08:18:59.531Z</time></trkpt><trkpt lat="43.79979" lon="12.6189117"><ele>120.0</ele><time>2026-04-25T08:19:00.533Z</time></trkpt><trkpt lat="43.799655" lon="12.6189283"><ele>120.0</ele><time>2026-04-25T08:19:01.533Z</time></trkpt><trkpt lat="43.799525" lon="12.618945"><ele>120.0</ele><time>2026-04-25T08:19:02.531Z</time></trkpt><trkpt lat="43.7992667" lon="12.6189767"><ele>120.0</ele><time>2026-04-25T08:19:04.532Z</time></trkpt><trkpt lat="43.799145" lon="12.6189933"><ele>119.5</ele><time>2026-04-25T08:19:05.54Z</time></trkpt><trkpt lat="43.7990283" lon="12.619005"><ele>119.0</ele><time>2026-04-25T08:19:06.531Z</time></trkpt><trkpt lat="43.7989083" lon="12.6190183"><ele>118.5</ele><time>2026-04-25T08:19:07.532Z</time></trkpt><trkpt lat="43.798785" lon="12.6190383"><ele>118.0</ele><time>2026-04-25T08:19:08.532Z</time></trkpt><trkpt lat="43.79868" lon="12.6190483"><ele>118.0</ele><time>2026-04-25T08:19:09.532Z</time></trkpt><trkpt lat="43.7985767" lon="12.6190617"><ele>118.00000000000001</ele><time>2026-04-25T08:19:10.533Z</time></trkpt><trkpt lat="43.7984767" lon="12.619065"><ele>118.00000000000001</ele><time>2026-04-25T08:19:11.532Z</time></trkpt><trkpt lat="43.7983817" lon="12.6190567"><ele>118.0</ele><time>2026-04-25T08:19:12.534Z</time></trkpt><trkpt lat="43.7982733" lon="12.6190283"><ele>118.0</ele><time>2026-04-25T08:19:13.533Z</time></trkpt><trkpt lat="43.7981517" lon="12.6189717"><ele>117.5</ele><time>2026-04-25T08:19:14.531Z</time></trkpt><trkpt lat="43.79803" lon="12.6189033"><ele>117.0</ele><time>2026-04-25T08:19:15.535Z</time></trkpt><trkpt lat="43.797905" lon="12.6188333"><ele>116.5</ele><time>2026-04-25T08:19:16.534Z</time></trkpt><trkpt lat="43.7977817" lon="12.6187717"><ele>116.0</ele><time>2026-04-25T08:19:17.535Z</time></trkpt><trkpt lat="43.7976617" lon="12.6187183"><ele>115.4</ele><time>2026-04-25T08:19:18.535Z</time></trkpt><trkpt lat="43.7975467" lon="12.6186817"><ele>114.8</ele><time>2026-04-25T08:19:19.532Z</time></trkpt><trkpt lat="43.797435" lon="12.61866"><ele>114.20000000000002</ele><time>2026-04-25T08:19:20.533Z</time></trkpt><trkpt lat="43.7973283" lon="12.61865"><ele>113.60000000000001</ele><time>2026-04-25T08:19:21.534Z</time></trkpt><trkpt lat="43.7972217" lon="12.6186433"><ele>113.0</ele><time>2026-04-25T08:19:22.532Z</time></trkpt><trkpt lat="43.7971033" lon="12.618635"><ele>112.0</ele><time>2026-04-25T08:19:23.534Z</time></trkpt><trkpt lat="43.7968233" lon="12.6186333"><ele>111.0</ele><time>2026-04-25T08:19:25.534Z</time></trkpt><trkpt lat="43.7966667" lon="12.61864"><ele>110.0</ele><time>2026-04-25T08:19:26.534Z</time></trkpt><trkpt lat="43.7965017" lon="12.6186483"><ele>109.33333333333333</ele><time>2026-04-25T08:19:27.531Z</time></trkpt><trkpt lat="43.7963367" lon="12.618655"><ele>108.66666666666666</ele><time>2026-04-25T08:19:28.531Z</time></trkpt><trkpt lat="43.7961667" lon="12.6186633"><ele>108.0</ele><time>2026-04-25T08:19:29.531Z</time></trkpt><trkpt lat="43.7959967" lon="12.6186717"><ele>107.66666666666666</ele><time>2026-04-25T08:19:30.532Z</time></trkpt><trkpt lat="43.7958217" lon="12.6186833"><ele>107.33333333333333</ele><time>2026-04-25T08:19:31.532Z</time></trkpt><trkpt lat="43.7956433" lon="12.618695"><ele>107.0</ele><time>2026-04-25T08:19:32.532Z</time></trkpt><trkpt lat="43.7954617" lon="12.618705"><ele>107.0</ele><time>2026-04-25T08:19:33.531Z</time></trkpt><trkpt lat="43.795275" lon="12.6187167"><ele>107.0</ele><time>2026-04-25T08:19:34.533Z</time></trkpt><trkpt lat="43.7950867" lon="12.6187317"><ele>107.0</ele><time>2026-04-25T08:19:35.534Z</time></trkpt><trkpt lat="43.794895" lon="12.6187483"><ele>106.66666666666666</ele><time>2026-04-25T08:19:36.535Z</time></trkpt><trkpt lat="43.7947117" lon="12.6187583"><ele>106.33333333333334</ele><time>2026-04-25T08:19:37.534Z</time></trkpt><trkpt lat="43.7945383" lon="12.618765"><ele>106.0</ele><time>2026-04-25T08:19:38.534Z</time></trkpt><trkpt lat="43.7943717" lon="12.6187733"><ele>105.75</ele><time>2026-04-25T08:19:39.531Z</time></trkpt><trkpt lat="43.7942217" lon="12.6187733"><ele>105.5</ele><time>2026-04-25T08:19:40.532Z</time></trkpt><trkpt lat="43.7940733" lon="12.61878"><ele>105.25</ele><time>2026-04-25T08:19:41.531Z</time></trkpt><trkpt lat="43.7939283" lon="12.618785"><ele>105.0</ele><time>2026-04-25T08:19:42.532Z</time></trkpt><trkpt lat="43.79379" lon="12.6187833"><ele>105.0</ele><time>2026-04-25T08:19:43.532Z</time></trkpt><trkpt lat="43.793655" lon="12.6187633"><ele>105.0</ele><time>2026-04-25T08:19:44.535Z</time></trkpt><trkpt lat="43.7933833" lon="12.6186583"><ele>105.0</ele><time>2026-04-25T08:19:46.532Z</time></trkpt><trkpt lat="43.79324" lon="12.61861"><ele>106.5</ele><time>2026-04-25T08:19:47.536Z</time></trkpt><trkpt lat="43.7931" lon="12.6185917"><ele>108.0</ele><time>2026-04-25T08:19:48.535Z</time></trkpt><trkpt lat="43.79296" lon="12.6186333"><ele>109.5</ele><time>2026-04-25T08:19:49.534Z</time></trkpt><trkpt lat="43.7928333" lon="12.6187183"><ele>111.0</ele><time>2026-04-25T08:19:50.534Z</time></trkpt><trkpt lat="43.7927117" lon="12.618815"><ele>111.6</ele><time>2026-04-25T08:19:51.534Z</time></trkpt><trkpt lat="43.7925967" lon="12.6188933"><ele>112.19999999999999</ele><time>2026-04-25T08:19:52.534Z</time></trkpt><trkpt lat="43.7924817" lon="12.61893"><ele>112.80000000000001</ele><time>2026-04-25T08:19:53.533Z</time></trkpt><trkpt lat="43.7923883" lon="12.6189133"><ele>113.4</ele><time>2026-04-25T08:19:54.534Z</time></trkpt><trkpt lat="43.79235" lon="12.6188367"><ele>114.0</ele><time>2026-04-25T08:19:55.533Z</time></trkpt><trkpt lat="43.7923667" lon="12.6187467"><ele>114.75</ele><time>2026-04-25T08:19:56.535Z</time></trkpt><trkpt lat="43.7924417" lon="12.61859"><ele>115.5</ele><time>2026-04-25T08:19:58.532Z</time></trkpt><trkpt lat="43.792545" lon="12.618475"><ele>116.25</ele><time>2026-04-25T08:19:59.532Z</time></trkpt><trkpt lat="43.792645" lon="12.6183067"><ele>117.0</ele><time>2026-04-25T08:20:00.533Z</time></trkpt><trkpt lat="43.792675" lon="12.6181433"><ele>117.0</ele><time>2026-04-25T08:20:01.532Z</time></trkpt><trkpt lat="43.7926817" lon="12.61797"><ele>117.0</ele><time>2026-04-25T08:20:02.531Z</time></trkpt><trkpt lat="43.79266" lon="12.6178"><ele>117.0</ele><time>2026-04-25T08:20:03.532Z</time></trkpt><trkpt lat="43.7926133" lon="12.6176117"><ele>117.0</ele><time>2026-04-25T08:20:04.532Z</time></trkpt><trkpt lat="43.7925533" lon="12.617425"><ele>119.66666666666666</ele><time>2026-04-25T08:20:05.532Z</time></trkpt><trkpt lat="43.79248" lon="12.6170483"><ele>122.33333333333333</ele><time>2026-04-25T08:20:07.533Z</time></trkpt><trkpt lat="43.7924883" lon="12.6168633"><ele>125.0</ele><time>2026-04-25T08:20:08.534Z</time></trkpt><trkpt lat="43.792515" lon="12.61669"><ele>125.0</ele><time>2026-04-25T08:20:09.534Z</time></trkpt><trkpt lat="43.79257" lon="12.6165083"><ele>125.0</ele><time>2026-04-25T08:20:10.533Z</time></trkpt><trkpt lat="43.7926433" lon="12.6163433"><ele>125.0</ele><time>2026-04-25T08:20:11.534Z</time></trkpt><trkpt lat="43.792745" lon="12.6162067"><ele>125.0</ele><time>2026-04-25T08:20:12.535Z</time></trkpt><trkpt lat="43.7928583" lon="12.6160967"><ele>126.0</ele><time>2026-04-25T08:20:13.532Z</time></trkpt><trkpt lat="43.7929867" lon="12.6160133"><ele>127.0</ele><time>2026-04-25T08:20:14.535Z</time></trkpt><trkpt lat="43.7931117" lon="12.6159217"><ele>128.0</ele><time>2026-04-25T08:20:15.535Z</time></trkpt><trkpt lat="43.7932267" lon="12.6157933"><ele>129.0</ele><time>2026-04-25T08:20:16.535Z</time></trkpt><trkpt lat="43.7933433" lon="12.6156367"><ele>129.0</ele><time>2026-04-25T08:20:17.531Z</time></trkpt><trkpt lat="43.79345" lon="12.6154583"><ele>129.0</ele><time>2026-04-25T08:20:18.531Z</time></trkpt><trkpt lat="43.7935533" lon="12.6152617"><ele>129.0</ele><time>2026-04-25T08:20:19.532Z</time></trkpt><trkpt lat="43.79365" lon="12.6150533"><ele>127.33333333333334</ele><time>2026-04-25T08:20:20.535Z</time></trkpt><trkpt lat="43.793735" lon="12.614825"><ele>125.66666666666667</ele><time>2026-04-25T08:20:21.535Z</time></trkpt><trkpt lat="43.7938033" lon="12.6145817"><ele>124.0</ele><time>2026-04-25T08:20:22.535Z</time></trkpt><trkpt lat="43.7938667" lon="12.6143467"><ele>124.0</ele><time>2026-04-25T08:20:23.531Z</time></trkpt><trkpt lat="43.793925" lon="12.614125"><ele>124.0</ele><time>2026-04-25T08:20:24.531Z</time></trkpt><trkpt lat="43.79398" lon="12.61391"><ele>124.0</ele><time>2026-04-25T08:20:25.532Z</time></trkpt><trkpt lat="43.79403" lon="12.6137033"><ele>126.33333333333334</ele><time>2026-04-25T08:20:26.531Z</time></trkpt><trkpt lat="43.79413" lon="12.61331"><ele>128.66666666666666</ele><time>2026-04-25T08:20:28.532Z</time></trkpt><trkpt lat="43.7941767" lon="12.6131283"><ele>131.0</ele><time>2026-04-25T08:20:29.532Z</time></trkpt><trkpt lat="43.794215" lon="12.6129617"><ele>130.75</ele><time>2026-04-25T08:20:30.532Z</time></trkpt><trkpt lat="43.794255" lon="12.6128083"><ele>130.5</ele><time>2026-04-25T08:20:31.532Z</time></trkpt><trkpt lat="43.7942967" lon="12.612665"><ele>130.25</ele><time>2026-04-25T08:20:32.531Z</time></trkpt><trkpt lat="43.7943367" lon="12.6125267"><ele>130.0</ele><time>2026-04-25T08:20:33.532Z</time></trkpt><trkpt lat="43.7943883" lon="12.612385"><ele>130.0</ele><time>2026-04-25T08:20:34.534Z</time></trkpt><trkpt lat="43.7944517" lon="12.6122417"><ele>130.0</ele><time>2026-04-25T08:20:35.534Z</time></trkpt><trkpt lat="43.7945283" lon="12.6120983"><ele>130.0</ele><time>2026-04-25T08:20:36.532Z</time></trkpt><trkpt lat="43.7946117" lon="12.611945"><ele>130.0</ele><time>2026-04-25T08:20:37.533Z</time></trkpt><trkpt lat="43.7947017" lon="12.6117817"><ele>130.5</ele><time>2026-04-25T08:20:38.534Z</time></trkpt><trkpt lat="43.794785" lon="12.6116283"><ele>131.0</ele><time>2026-04-25T08:20:39.531Z</time></trkpt><trkpt lat="43.7948783" lon="12.6114733"><ele>131.5</ele><time>2026-04-25T08:20:40.535Z</time></trkpt><trkpt lat="43.79498" lon="12.6113167"><ele>132.0</ele><time>2026-04-25T08:20:41.534Z</time></trkpt><trkpt lat="43.7950883" lon="12.6111583"><ele>130.0</ele><time>2026-04-25T08:20:42.534Z</time></trkpt><trkpt lat="43.7952133" lon="12.6110133"><ele>128.0</ele><time>2026-04-25T08:20:43.533Z</time></trkpt><trkpt lat="43.7953483" lon="12.6108817"><ele>126.0</ele><time>2026-04-25T08:20:44.535Z</time></trkpt><trkpt lat="43.795485" lon="12.6107617"><ele>126.0</ele><time>2026-04-25T08:20:45.532Z</time></trkpt><trkpt lat="43.7956117" lon="12.6106417"><ele>126.0</ele><time>2026-04-25T08:20:46.534Z</time></trkpt><trkpt lat="43.7957283" lon="12.610525"><ele>126.0</ele><time>2026-04-25T08:20:47.534Z</time></trkpt><trkpt lat="43.7959383" lon="12.6102933"><ele>126.8</ele><time>2026-04-25T08:20:49.535Z</time></trkpt><trkpt lat="43.7960217" lon="12.6101817"><ele>127.6</ele><time>2026-04-25T08:20:50.532Z</time></trkpt><trkpt lat="43.79611" lon="12.6100767"><ele>128.4</ele><time>2026-04-25T08:20:51.531Z</time></trkpt><trkpt lat="43.7961917" lon="12.6099917"><ele>129.2</ele><time>2026-04-25T08:20:52.532Z</time></trkpt><trkpt lat="43.79627" lon="12.60994"><ele>130.0</ele><time>2026-04-25T08:20:53.532Z</time></trkpt><trkpt lat="43.7963533" lon="12.60991"><ele>130.0</ele><time>2026-04-25T08:20:54.532Z</time></trkpt><trkpt lat="43.7964383" lon="12.6099083"><ele>130.0</ele><time>2026-04-25T08:20:55.534Z</time></trkpt><trkpt lat="43.7965233" lon="12.6099133"><ele>130.0</ele><time>2026-04-25T08:20:56.531Z</time></trkpt><trkpt lat="43.7966" lon="12.609925"><ele>130.0</ele><time>2026-04-25T08:20:57.533Z</time></trkpt><trkpt lat="43.7966683" lon="12.6099333"><ele>130.0</ele><time>2026-04-25T08:20:58.533Z</time></trkpt><trkpt lat="43.7967417" lon="12.6099333"><ele>130.0</ele><time>2026-04-25T08:20:59.531Z</time></trkpt><trkpt lat="43.796815" lon="12.6099167"><ele>129.33333333333334</ele><time>2026-04-25T08:21:00.532Z</time></trkpt><trkpt lat="43.79689" lon="12.60988"><ele>128.66666666666669</ele><time>2026-04-25T08:21:01.532Z</time></trkpt><trkpt lat="43.7969667" lon="12.6098517"><ele>128.0</ele><time>2026-04-25T08:21:02.532Z</time></trkpt><trkpt lat="43.7970433" lon="12.6098233"><ele>127.33333333333334</ele><time>2026-04-25T08:21:03.532Z</time></trkpt><trkpt lat="43.797135" lon="12.6097783"><ele>126.66666666666667</ele><time>2026-04-25T08:21:04.535Z</time></trkpt><trkpt lat="43.79721" lon="12.6097183"><ele>126.0</ele><time>2026-04-25T08:21:05.531Z</time></trkpt><trkpt lat="43.797285" lon="12.6096467"><ele>126.0</ele><time>2026-04-25T08:21:06.532Z</time></trkpt><trkpt lat="43.79735" lon="12.609565"><ele>126.0</ele><time>2026-04-25T08:21:07.537Z</time></trkpt><trkpt lat="43.7974183" lon="12.6094667"><ele>126.0</ele><time>2026-04-25T08:21:08.534Z</time></trkpt><trkpt lat="43.7975267" lon="12.60921"><ele>126.0</ele><time>2026-04-25T08:21:10.534Z</time></trkpt><trkpt lat="43.797575" lon="12.6090617"><ele>127.8</ele><time>2026-04-25T08:21:11.534Z</time></trkpt><trkpt lat="43.7976133" lon="12.6089183"><ele>129.6</ele><time>2026-04-25T08:21:12.533Z</time></trkpt><trkpt lat="43.797655" lon="12.6087783"><ele>131.4</ele><time>2026-04-25T08:21:13.536Z</time></trkpt><trkpt lat="43.797695" lon="12.6086433"><ele>133.2</ele><time>2026-04-25T08:21:14.534Z</time></trkpt><trkpt lat="43.7977333" lon="12.6085167"><ele>135.0</ele><time>2026-04-25T08:21:15.535Z</time></trkpt><trkpt lat="43.7977717" lon="12.6083983"><ele>138.0</ele><time>2026-04-25T08:21:16.535Z</time></trkpt><trkpt lat="43.797815" lon="12.608285"><ele>141.0</ele><time>2026-04-25T08:21:17.536Z</time></trkpt><trkpt lat="43.79786" lon="12.60818"><ele>144.0</ele><time>2026-04-25T08:21:18.535Z</time></trkpt><trkpt lat="43.79791" lon="12.6080767"><ele>147.0</ele><time>2026-04-25T08:21:19.534Z</time></trkpt><trkpt lat="43.797965" lon="12.6079767"><ele>150.0</ele><time>2026-04-25T08:21:20.535Z</time></trkpt><trkpt lat="43.79803" lon="12.6078767"><ele>150.4</ele><time>2026-04-25T08:21:21.535Z</time></trkpt><trkpt lat="43.7981017" lon="12.6077733"><ele>150.8</ele><time>2026-04-25T08:21:22.534Z</time></trkpt><trkpt lat="43.79818" lon="12.6076667"><ele>151.2</ele><time>2026-04-25T08:21:23.534Z</time></trkpt><trkpt lat="43.7982583" lon="12.6075667"><ele>151.6</ele><time>2026-04-25T08:21:24.535Z</time></trkpt><trkpt lat="43.7983383" lon="12.6074767"><ele>152.0</ele><time>2026-04-25T08:21:25.538Z</time></trkpt><trkpt lat="43.7984233" lon="12.6073933"><ele>152.75</ele><time>2026-04-25T08:21:26.536Z</time></trkpt><trkpt lat="43.7985083" lon="12.60731"><ele>153.5</ele><time>2026-04-25T08:21:27.535Z</time></trkpt><trkpt lat="43.7986017" lon="12.6072333"><ele>154.25</ele><time>2026-04-25T08:21:28.534Z</time></trkpt><trkpt lat="43.798695" lon="12.6071567"><ele>155.0</ele><time>2026-04-25T08:21:29.532Z</time></trkpt><trkpt lat="43.7988783" lon="12.6070083"><ele>156.2</ele><time>2026-04-25T08:21:31.535Z</time></trkpt><trkpt lat="43.7989617" lon="12.6069267"><ele>157.4</ele><time>2026-04-25T08:21:32.535Z</time></trkpt><trkpt lat="43.79903" lon="12.6068333"><ele>158.60000000000002</ele><time>2026-04-25T08:21:33.535Z</time></trkpt><trkpt lat="43.7990917" lon="12.60673"><ele>159.8</ele><time>2026-04-25T08:21:34.537Z</time></trkpt><trkpt lat="43.7991367" lon="12.6066083"><ele>161.0</ele><time>2026-04-25T08:21:35.531Z</time></trkpt><trkpt lat="43.7991817" lon="12.6064767"><ele>161.0</ele><time>2026-04-25T08:21:36.534Z</time></trkpt><trkpt lat="43.7992167" lon="12.6063433"><ele>161.0</ele><time>2026-04-25T08:21:37.534Z</time></trkpt><trkpt lat="43.7992567" lon="12.606205"><ele>161.0</ele><time>2026-04-25T08:21:38.532Z</time></trkpt><trkpt lat="43.7992967" lon="12.6060633"><ele>161.0</ele><time>2026-04-25T08:21:39.534Z</time></trkpt><trkpt lat="43.799345" lon="12.6059217"><ele>161.0</ele><time>2026-04-25T08:21:40.532Z</time></trkpt><trkpt lat="43.799395" lon="12.6057733"><ele>161.25</ele><time>2026-04-25T08:21:41.532Z</time></trkpt><trkpt lat="43.7994483" lon="12.6056217"><ele>161.5</ele><time>2026-04-25T08:21:42.533Z</time></trkpt><trkpt lat="43.7995033" lon="12.6054733"><ele>161.75</ele><time>2026-04-25T08:21:43.536Z</time></trkpt><trkpt lat="43.7995617" lon="12.6053267"><ele>162.0</ele><time>2026-04-25T08:21:44.535Z</time></trkpt><trkpt lat="43.79963" lon="12.6051917"><ele>162.0</ele><time>2026-04-25T08:21:45.535Z</time></trkpt><trkpt lat="43.7997133" lon="12.6050667"><ele>162.0</ele><time>2026-04-25T08:21:46.531Z</time></trkpt><trkpt lat="43.7998017" lon="12.6049517"><ele>162.0</ele><time>2026-04-25T08:21:47.531Z</time></trkpt><trkpt lat="43.7998967" lon="12.6048367"><ele>162.0</ele><time>2026-04-25T08:21:48.532Z</time></trkpt><trkpt lat="43.7999933" lon="12.604715"><ele>162.0</ele><time>2026-04-25T08:21:49.533Z</time></trkpt><trkpt lat="43.8000933" lon="12.6045933"><ele>162.0</ele><time>2026-04-25T08:21:50.531Z</time></trkpt><trkpt lat="43.8003033" lon="12.6043283"><ele>162.0</ele><time>2026-04-25T08:21:52.533Z</time></trkpt><trkpt lat="43.80042" lon="12.6041733"><ele>163.0</ele><time>2026-04-25T08:21:53.536Z</time></trkpt><trkpt lat="43.80053" lon="12.6040083"><ele>164.0</ele><time>2026-04-25T08:21:54.534Z</time></trkpt><trkpt lat="43.8006417" lon="12.6038333"><ele>165.0</ele><time>2026-04-25T08:21:55.537Z</time></trkpt><trkpt lat="43.800755" lon="12.6036583"><ele>165.0</ele><time>2026-04-25T08:21:56.535Z</time></trkpt><trkpt lat="43.8008567" lon="12.6034933"><ele>165.0</ele><time>2026-04-25T08:21:57.533Z</time></trkpt><trkpt lat="43.800945" lon="12.60333"><ele>165.0</ele><time>2026-04-25T08:21:58.534Z</time></trkpt><trkpt lat="43.8010183" lon="12.603165"><ele>165.0</ele><time>2026-04-25T08:21:59.533Z</time></trkpt><trkpt lat="43.80107" lon="12.6030017"><ele>164.25</ele><time>2026-04-25T08:22:00.534Z</time></trkpt><trkpt lat="43.8011" lon="12.6028333"><ele>163.5</ele><time>2026-04-25T08:22:01.534Z</time></trkpt><trkpt lat="43.8011017" lon="12.60266"><ele>162.75</ele><time>2026-04-25T08:22:02.535Z</time></trkpt><trkpt lat="43.8010783" lon="12.6024717"><ele>162.0</ele><time>2026-04-25T08:22:03.535Z</time></trkpt><trkpt lat="43.8010417" lon="12.6022867"><ele>165.0</ele><time>2026-04-25T08:22:04.532Z</time></trkpt><trkpt lat="43.8010083" lon="12.602125"><ele>168.0</ele><time>2026-04-25T08:22:05.532Z</time></trkpt><trkpt lat="43.8009867" lon="12.6019833"><ele>171.0</ele><time>2026-04-25T08:22:06.533Z</time></trkpt><trkpt lat="43.8009817" lon="12.6018517"><ele>174.0</ele><time>2026-04-25T08:22:07.536Z</time></trkpt><trkpt lat="43.8010067" lon="12.601735"><ele>177.0</ele><time>2026-04-25T08:22:08.533Z</time></trkpt><trkpt lat="43.8010517" lon="12.60164"><ele>180.75</ele><time>2026-04-25T08:22:09.532Z</time></trkpt><trkpt lat="43.80112" lon="12.6015533"><ele>184.5</ele><time>2026-04-25T08:22:10.533Z</time></trkpt><trkpt lat="43.8012033" lon="12.6014717"><ele>188.25</ele><time>2026-04-25T08:22:11.532Z</time></trkpt><trkpt lat="43.8013467" lon="12.6012983"><ele>192.0</ele><time>2026-04-25T08:22:13.533Z</time></trkpt><trkpt lat="43.8014" lon="12.6011733"><ele>192.39999999999998</ele><time>2026-04-25T08:22:14.535Z</time></trkpt><trkpt lat="43.801445" lon="12.6010283"><ele>192.79999999999998</ele><time>2026-04-25T08:22:15.534Z</time></trkpt><trkpt lat="43.8014933" lon="12.6008883"><ele>193.2</ele><time>2026-04-25T08:22:16.533Z</time></trkpt><trkpt lat="43.8015533" lon="12.6007717"><ele>193.6</ele><time>2026-04-25T08:22:17.531Z</time></trkpt><trkpt lat="43.8016333" lon="12.600685"><ele>194.0</ele><time>2026-04-25T08:22:18.534Z</time></trkpt><trkpt lat="43.8017383" lon="12.60062"><ele>198.25</ele><time>2026-04-25T08:22:19.533Z</time></trkpt><trkpt lat="43.8018633" lon="12.60057"><ele>202.5</ele><time>2026-04-25T08:22:20.531Z</time></trkpt><trkpt lat="43.8019833" lon="12.6005317"><ele>206.75</ele><time>2026-04-25T08:22:21.532Z</time></trkpt><trkpt lat="43.802105" lon="12.6004933"><ele>211.0</ele><time>2026-04-25T08:22:22.533Z</time></trkpt><trkpt lat="43.8022367" lon="12.60045"><ele>211.0</ele><time>2026-04-25T08:22:23.532Z</time></trkpt><trkpt lat="43.802375" lon="12.6003983"><ele>211.0</ele><time>2026-04-25T08:22:24.532Z</time></trkpt><trkpt lat="43.80251" lon="12.600345"><ele>211.0</ele><time>2026-04-25T08:22:25.534Z</time></trkpt><trkpt lat="43.8026417" lon="12.6002783"><ele>211.0</ele><time>2026-04-25T08:22:26.535Z</time></trkpt><trkpt lat="43.8027667" lon="12.6002"><ele>211.75</ele><time>2026-04-25T08:22:27.535Z</time></trkpt><trkpt lat="43.8028833" lon="12.6001083"><ele>212.5</ele><time>2026-04-25T08:22:28.532Z</time></trkpt><trkpt lat="43.8029933" lon="12.6000083"><ele>213.25</ele><time>2026-04-25T08:22:29.536Z</time></trkpt><trkpt lat="43.80309" lon="12.5999167"><ele>214.0</ele><time>2026-04-25T08:22:30.535Z</time></trkpt><trkpt lat="43.80318" lon="12.599835"><ele>214.0</ele><time>2026-04-25T08:22:31.536Z</time></trkpt><trkpt lat="43.8032767" lon="12.59976"><ele>214.0</ele><time>2026-04-25T08:22:32.532Z</time></trkpt><trkpt lat="43.8034817" lon="12.599585"><ele>214.0</ele><time>2026-04-25T08:22:34.532Z</time></trkpt><trkpt lat="43.8035767" lon="12.599465"><ele>212.5</ele><time>2026-04-25T08:22:35.532Z</time></trkpt><trkpt lat="43.8036717" lon="12.599325"><ele>211.0</ele><time>2026-04-25T08:22:36.532Z</time></trkpt><trkpt lat="43.8037617" lon="12.5991783"><ele>209.5</ele><time>2026-04-25T08:22:37.534Z</time></trkpt><trkpt lat="43.8038467" lon="12.5990333"><ele>208.0</ele><time>2026-04-25T08:22:38.531Z</time></trkpt><trkpt lat="43.8039283" lon="12.5988867"><ele>208.0</ele><time>2026-04-25T08:22:39.535Z</time></trkpt><trkpt lat="43.8040083" lon="12.5987383"><ele>208.0</ele><time>2026-04-25T08:22:40.533Z</time></trkpt><trkpt lat="43.8040867" lon="12.5985883"><ele>208.0</ele><time>2026-04-25T08:22:41.532Z</time></trkpt><trkpt lat="43.8041683" lon="12.5984367"><ele>208.0</ele><time>2026-04-25T08:22:42.532Z</time></trkpt><trkpt lat="43.8042467" lon="12.598285"><ele>207.5</ele><time>2026-04-25T08:22:43.533Z</time></trkpt><trkpt lat="43.8043167" lon="12.5981267"><ele>207.0</ele><time>2026-04-25T08:22:44.533Z</time></trkpt><trkpt lat="43.8043767" lon="12.5979533"><ele>206.5</ele><time>2026-04-25T08:22:45.533Z</time></trkpt><trkpt lat="43.80442" lon="12.5977533"><ele>206.0</ele><time>2026-04-25T08:22:46.533Z</time></trkpt><trkpt lat="43.8044517" lon="12.5975333"><ele>204.33333333333334</ele><time>2026-04-25T08:22:47.533Z</time></trkpt><trkpt lat="43.80447" lon="12.597315"><ele>202.66666666666669</ele><time>2026-04-25T08:22:48.532Z</time></trkpt><trkpt lat="43.80448" lon="12.5971067"><ele>201.0</ele><time>2026-04-25T08:22:49.533Z</time></trkpt><trkpt lat="43.8044817" lon="12.5968967"><ele>201.0</ele><time>2026-04-25T08:22:50.532Z</time></trkpt><trkpt lat="43.804475" lon="12.59669"><ele>201.0</ele><time>2026-04-25T08:22:51.534Z</time></trkpt><trkpt lat="43.8044583" lon="12.5964967"><ele>201.0</ele><time>2026-04-25T08:22:52.532Z</time></trkpt><trkpt lat="43.8044417" lon="12.5963217"><ele>201.0</ele><time>2026-04-25T08:22:53.532Z</time></trkpt><trkpt lat="43.8044367" lon="12.596"><ele>204.20000000000002</ele><time>2026-04-25T08:22:55.536Z</time></trkpt><trkpt lat="43.8044533" lon="12.5958567"><ele>207.4</ele><time>2026-04-25T08:22:56.532Z</time></trkpt><trkpt lat="43.8044983" lon="12.5957383"><ele>210.6</ele><time>2026-04-25T08:22:57.533Z</time></trkpt><trkpt lat="43.8045633" lon="12.595655"><ele>213.8</ele><time>2026-04-25T08:22:58.533Z</time></trkpt><trkpt lat="43.8046483" lon="12.5955983"><ele>217.0</ele><time>2026-04-25T08:22:59.532Z</time></trkpt><trkpt lat="43.8047383" lon="12.5955583"><ele>217.0</ele><time>2026-04-25T08:23:00.532Z</time></trkpt><trkpt lat="43.804815" lon="12.5955017"><ele>217.0</ele><time>2026-04-25T08:23:01.533Z</time></trkpt><trkpt lat="43.80489" lon="12.5954267"><ele>217.0</ele><time>2026-04-25T08:23:02.532Z</time></trkpt><trkpt lat="43.8049433" lon="12.595295"><ele>217.0</ele><time>2026-04-25T08:23:03.53Z</time></trkpt><trkpt lat="43.8049867" lon="12.5951267"><ele>217.0</ele><time>2026-04-25T08:23:04.534Z</time></trkpt><trkpt lat="43.805025" lon="12.59494"><ele>217.75</ele><time>2026-04-25T08:23:05.53Z</time></trkpt><trkpt lat="43.805055" lon="12.59475"><ele>218.5</ele><time>2026-04-25T08:23:06.533Z</time></trkpt><trkpt lat="43.8050783" lon="12.5945617"><ele>219.25</ele><time>2026-04-25T08:23:07.533Z</time></trkpt><trkpt lat="43.8050983" lon="12.5943783"><ele>220.0</ele><time>2026-04-25T08:23:08.531Z</time></trkpt><trkpt lat="43.80512" lon="12.594205"><ele>220.0</ele><time>2026-04-25T08:23:09.531Z</time></trkpt><trkpt lat="43.8051533" lon="12.5940383"><ele>220.0</ele><time>2026-04-25T08:23:10.532Z</time></trkpt><trkpt lat="43.805195" lon="12.593875"><ele>220.0</ele><time>2026-04-25T08:23:11.531Z</time></trkpt><trkpt lat="43.8052467" lon="12.59372"><ele>220.0</ele><time>2026-04-25T08:23:12.533Z</time></trkpt><trkpt lat="43.8053083" lon="12.5935633"><ele>219.33333333333331</ele><time>2026-04-25T08:23:13.533Z</time></trkpt><trkpt lat="43.8053733" lon="12.5934067"><ele>218.66666666666669</ele><time>2026-04-25T08:23:14.535Z</time></trkpt><trkpt lat="43.80549" lon="12.5930717"><ele>218.0</ele><time>2026-04-25T08:23:16.533Z</time></trkpt><trkpt lat="43.805535" lon="12.592895"><ele>219.0</ele><time>2026-04-25T08:23:17.531Z</time></trkpt><trkpt lat="43.8055733" lon="12.5927117"><ele>220.0</ele><time>2026-04-25T08:23:18.533Z</time></trkpt><trkpt lat="43.805605" lon="12.5925183"><ele>221.0</ele><time>2026-04-25T08:23:19.533Z</time></trkpt><trkpt lat="43.805635" lon="12.5923217"><ele>222.0</ele><time>2026-04-25T08:23:20.532Z</time></trkpt><trkpt lat="43.805665" lon="12.5921183"><ele>222.33333333333331</ele><time>2026-04-25T08:23:21.531Z</time></trkpt><trkpt lat="43.8056933" lon="12.5919117"><ele>222.66666666666666</ele><time>2026-04-25T08:23:22.533Z</time></trkpt><trkpt lat="43.805715" lon="12.5917017"><ele>223.0</ele><time>2026-04-25T08:23:23.531Z</time></trkpt><trkpt lat="43.80573" lon="12.5914933"><ele>223.0</ele><time>2026-04-25T08:23:24.535Z</time></trkpt><trkpt lat="43.8057417" lon="12.5912817"><ele>223.0</ele><time>2026-04-25T08:23:25.532Z</time></trkpt><trkpt lat="43.8057467" lon="12.59107"><ele>223.0</ele><time>2026-04-25T08:23:26.53Z</time></trkpt><trkpt lat="43.8057517" lon="12.5908567"><ele>223.0</ele><time>2026-04-25T08:23:27.532Z</time></trkpt><trkpt lat="43.805755" lon="12.5906417"><ele>223.0</ele><time>2026-04-25T08:23:28.532Z</time></trkpt><trkpt lat="43.805755" lon="12.5904267"><ele>223.0</ele><time>2026-04-25T08:23:29.531Z</time></trkpt><trkpt lat="43.8057533" lon="12.5902067"><ele>223.0</ele><time>2026-04-25T08:23:30.533Z</time></trkpt><trkpt lat="43.8057567" lon="12.5899833"><ele>223.0</ele><time>2026-04-25T08:23:31.531Z</time></trkpt><trkpt lat="43.8057617" lon="12.589765"><ele>223.0</ele><time>2026-04-25T08:23:32.531Z</time></trkpt><trkpt lat="43.8057633" lon="12.58955"><ele>224.33333333333331</ele><time>2026-04-25T08:23:33.531Z</time></trkpt><trkpt lat="43.8057533" lon="12.589335"><ele>225.66666666666669</ele><time>2026-04-25T08:23:34.532Z</time></trkpt><trkpt lat="43.8057333" lon="12.5891217"><ele>227.0</ele><time>2026-04-25T08:23:35.531Z</time></trkpt><trkpt lat="43.8056617" lon="12.5887067"><ele>228.25</ele><time>2026-04-25T08:23:37.531Z</time></trkpt><trkpt lat="43.8056217" lon="12.58851"><ele>229.5</ele><time>2026-04-25T08:23:38.531Z</time></trkpt><trkpt lat="43.8055867" lon="12.5883083"><ele>230.75</ele><time>2026-04-25T08:23:39.531Z</time></trkpt><trkpt lat="43.8055583" lon="12.5881117"><ele>232.0</ele><time>2026-04-25T08:23:40.532Z</time></trkpt><trkpt lat="43.8055383" lon="12.587935"><ele>234.0</ele><time>2026-04-25T08:23:41.532Z</time></trkpt><trkpt lat="43.805535" lon="12.5877733"><ele>236.0</ele><time>2026-04-25T08:23:42.532Z</time></trkpt><trkpt lat="43.8055517" lon="12.5876317"><ele>238.0</ele><time>2026-04-25T08:23:43.531Z</time></trkpt><trkpt lat="43.80558" lon="12.5874933"><ele>240.0</ele><time>2026-04-25T08:23:44.531Z</time></trkpt><trkpt lat="43.8056133" lon="12.5873583"><ele>242.0</ele><time>2026-04-25T08:23:45.533Z</time></trkpt><trkpt lat="43.805635" lon="12.58723"><ele>242.0</ele><time>2026-04-25T08:23:46.533Z</time></trkpt><trkpt lat="43.805645" lon="12.587095"><ele>242.0</ele><time>2026-04-25T08:23:47.534Z</time></trkpt><trkpt lat="43.80563" lon="12.5869467"><ele>242.0</ele><time>2026-04-25T08:23:48.534Z</time></trkpt><trkpt lat="43.805605" lon="12.586795"><ele>242.0</ele><time>2026-04-25T08:23:49.535Z</time></trkpt><trkpt lat="43.8055883" lon="12.5866467"><ele>242.0</ele><time>2026-04-25T08:23:50.535Z</time></trkpt><trkpt lat="43.8055867" lon="12.5865067"><ele>242.0</ele><time>2026-04-25T08:23:51.534Z</time></trkpt><trkpt lat="43.80562" lon="12.5863633"><ele>242.0</ele><time>2026-04-25T08:23:52.534Z</time></trkpt><trkpt lat="43.8056633" lon="12.586215"><ele>242.0</ele><time>2026-04-25T08:23:53.534Z</time></trkpt><trkpt lat="43.8057183" lon="12.5860517"><ele>242.0</ele><time>2026-04-25T08:23:54.533Z</time></trkpt><trkpt lat="43.8057733" lon="12.5858833"><ele>242.0</ele><time>2026-04-25T08:23:55.532Z</time></trkpt><trkpt lat="43.8058233" lon="12.585725"><ele>242.0</ele><time>2026-04-25T08:23:56.535Z</time></trkpt><trkpt lat="43.8059333" lon="12.5854083"><ele>242.0</ele><time>2026-04-25T08:23:58.534Z</time></trkpt><trkpt lat="43.8059833" lon="12.5852483"><ele>237.0</ele><time>2026-04-25T08:23:59.531Z</time></trkpt><trkpt lat="43.8060283" lon="12.5850783"><ele>232.0</ele><time>2026-04-25T08:24:00.534Z</time></trkpt><trkpt lat="43.806065" lon="12.5848917"><ele>227.0</ele><time>2026-04-25T08:24:01.531Z</time></trkpt><trkpt lat="43.8060867" lon="12.584705"><ele>222.0</ele><time>2026-04-25T08:24:02.532Z</time></trkpt><trkpt lat="43.8060917" lon="12.5845267"><ele>221.75</ele><time>2026-04-25T08:24:03.534Z</time></trkpt><trkpt lat="43.8060833" lon="12.5843583"><ele>221.5</ele><time>2026-04-25T08:24:04.533Z</time></trkpt><trkpt lat="43.8060667" lon="12.5841817"><ele>221.25</ele><time>2026-04-25T08:24:05.532Z</time></trkpt><trkpt lat="43.806045" lon="12.5839933"><ele>221.0</ele><time>2026-04-25T08:24:06.533Z</time></trkpt><trkpt lat="43.8060183" lon="12.5837983"><ele>226.66666666666669</ele><time>2026-04-25T08:24:07.531Z</time></trkpt><trkpt lat="43.8059917" lon="12.5835917"><ele>232.33333333333331</ele><time>2026-04-25T08:24:08.531Z</time></trkpt><trkpt lat="43.8059617" lon="12.5833783"><ele>238.0</ele><time>2026-04-25T08:24:09.531Z</time></trkpt><trkpt lat="43.80593" lon="12.5831617"><ele>238.0</ele><time>2026-04-25T08:24:10.531Z</time></trkpt><trkpt lat="43.8058983" lon="12.582945"><ele>238.0</ele><time>2026-04-25T08:24:11.531Z</time></trkpt><trkpt lat="43.8058733" lon="12.58274"><ele>238.0</ele><time>2026-04-25T08:24:12.532Z</time></trkpt><trkpt lat="43.805855" lon="12.58255"><ele>238.0</ele><time>2026-04-25T08:24:13.531Z</time></trkpt><trkpt lat="43.80583" lon="12.582375"><ele>238.0</ele><time>2026-04-25T08:24:14.534Z</time></trkpt><trkpt lat="43.8057917" lon="12.5822017"><ele>238.0</ele><time>2026-04-25T08:24:15.53Z</time></trkpt><trkpt lat="43.805735" lon="12.58202"><ele>238.0</ele><time>2026-04-25T08:24:16.534Z</time></trkpt><trkpt lat="43.8056733" lon="12.5818367"><ele>238.0</ele><time>2026-04-25T08:24:17.534Z</time></trkpt><trkpt lat="43.80556" lon="12.5814533"><ele>236.75</ele><time>2026-04-25T08:24:19.537Z</time></trkpt><trkpt lat="43.8055133" lon="12.5812767"><ele>235.5</ele><time>2026-04-25T08:24:20.535Z</time></trkpt><trkpt lat="43.805475" lon="12.5811083"><ele>234.25</ele><time>2026-04-25T08:24:21.536Z</time></trkpt><trkpt lat="43.8054383" lon="12.58094"><ele>233.0</ele><time>2026-04-25T08:24:22.534Z</time></trkpt><trkpt lat="43.8054117" lon="12.5807583"><ele>232.0</ele><time>2026-04-25T08:24:23.53Z</time></trkpt><trkpt lat="43.8054033" lon="12.58058"><ele>231.0</ele><time>2026-04-25T08:24:24.534Z</time></trkpt><trkpt lat="43.8054133" lon="12.580405"><ele>230.0</ele><time>2026-04-25T08:24:25.531Z</time></trkpt><trkpt lat="43.8054333" lon="12.580235"><ele>229.0</ele><time>2026-04-25T08:24:26.532Z</time></trkpt><trkpt lat="43.8054517" lon="12.580085"><ele>228.79999999999998</ele><time>2026-04-25T08:24:27.531Z</time></trkpt><trkpt lat="43.8054567" lon="12.5799533"><ele>228.59999999999997</ele><time>2026-04-25T08:24:28.532Z</time></trkpt><trkpt lat="43.8054417" lon="12.5798383"><ele>228.4</ele><time>2026-04-25T08:24:29.532Z</time></trkpt><trkpt lat="43.8054033" lon="12.5797267"><ele>228.2</ele><time>2026-04-25T08:24:30.531Z</time></trkpt><trkpt lat="43.80534" lon="12.5796033"><ele>228.0</ele><time>2026-04-25T08:24:31.533Z</time></trkpt><trkpt lat="43.8052717" lon="12.579485"><ele>227.0</ele><time>2026-04-25T08:24:32.531Z</time></trkpt><trkpt lat="43.8052033" lon="12.57937"><ele>226.0</ele><time>2026-04-25T08:24:33.533Z</time></trkpt><trkpt lat="43.8051417" lon="12.5792433"><ele>225.0</ele><time>2026-04-25T08:24:34.531Z</time></trkpt><trkpt lat="43.8050967" lon="12.5791033"><ele>224.0</ele><time>2026-04-25T08:24:35.53Z</time></trkpt><trkpt lat="43.8050683" lon="12.5789483"><ele>223.0</ele><time>2026-04-25T08:24:36.531Z</time></trkpt><trkpt lat="43.8050533" lon="12.578785"><ele>225.33333333333331</ele><time>2026-04-25T08:24:37.533Z</time></trkpt><trkpt lat="43.8050467" lon="12.5786083"><ele>227.66666666666669</ele><time>2026-04-25T08:24:38.534Z</time></trkpt><trkpt lat="43.8050367" lon="12.57821"><ele>230.0</ele><time>2026-04-25T08:24:40.535Z</time></trkpt><trkpt lat="43.80502" lon="12.5779983"><ele>229.66666666666669</ele><time>2026-04-25T08:24:41.534Z</time></trkpt><trkpt lat="43.8049867" lon="12.5777833"><ele>229.33333333333331</ele><time>2026-04-25T08:24:42.534Z</time></trkpt><trkpt lat="43.8049417" lon="12.57756"><ele>229.0</ele><time>2026-04-25T08:24:43.534Z</time></trkpt><trkpt lat="43.8048883" lon="12.57733"><ele>229.0</ele><time>2026-04-25T08:24:44.535Z</time></trkpt><trkpt lat="43.8048267" lon="12.5771017"><ele>229.0</ele><time>2026-04-25T08:24:45.536Z</time></trkpt><trkpt lat="43.8047667" lon="12.57687"><ele>229.0</ele><time>2026-04-25T08:24:46.534Z</time></trkpt><trkpt lat="43.8047083" lon="12.57664"><ele>229.66666666666666</ele><time>2026-04-25T08:24:47.535Z</time></trkpt><trkpt lat="43.804655" lon="12.57641"><ele>230.33333333333331</ele><time>2026-04-25T08:24:48.534Z</time></trkpt><trkpt lat="43.804605" lon="12.5761833"><ele>231.0</ele><time>2026-04-25T08:24:49.534Z</time></trkpt><trkpt lat="43.8045583" lon="12.5759717"><ele>233.25</ele><time>2026-04-25T08:24:50.534Z</time></trkpt><trkpt lat="43.8045133" lon="12.5757817"><ele>235.5</ele><time>2026-04-25T08:24:51.534Z</time></trkpt><trkpt lat="43.8044733" lon="12.575615"><ele>237.75</ele><time>2026-04-25T08:24:52.535Z</time></trkpt><trkpt lat="43.8044417" lon="12.5754683"><ele>240.0</ele><time>2026-04-25T08:24:53.535Z</time></trkpt><trkpt lat="43.80442" lon="12.5753233"><ele>241.0</ele><time>2026-04-25T08:24:54.534Z</time></trkpt><trkpt lat="43.8044217" lon="12.57516"><ele>242.0</ele><time>2026-04-25T08:24:55.536Z</time></trkpt><trkpt lat="43.8044333" lon="12.574985"><ele>243.0</ele><time>2026-04-25T08:24:56.537Z</time></trkpt><trkpt lat="43.8044433" lon="12.57481"><ele>244.0</ele><time>2026-04-25T08:24:57.531Z</time></trkpt><trkpt lat="43.8044367" lon="12.57463"><ele>243.33333333333331</ele><time>2026-04-25T08:24:58.534Z</time></trkpt><trkpt lat="43.8044133" lon="12.57445"><ele>242.66666666666669</ele><time>2026-04-25T08:24:59.534Z</time></trkpt><trkpt lat="43.80435" lon="12.5741267"><ele>242.0</ele><time>2026-04-25T08:25:01.534Z</time></trkpt><trkpt lat="43.80432" lon="12.5739633"><ele>241.75</ele><time>2026-04-25T08:25:02.534Z</time></trkpt><trkpt lat="43.804295" lon="12.57379"><ele>241.5</ele><time>2026-04-25T08:25:03.535Z</time></trkpt><trkpt lat="43.8042783" lon="12.5736083"><ele>241.25</ele><time>2026-04-25T08:25:04.534Z</time></trkpt><trkpt lat="43.80426" lon="12.5734283"><ele>241.0</ele><time>2026-04-25T08:25:05.534Z</time></trkpt><trkpt lat="43.804245" lon="12.5732483"><ele>241.4</ele><time>2026-04-25T08:25:06.534Z</time></trkpt><trkpt lat="43.8042333" lon="12.5730733"><ele>241.8</ele><time>2026-04-25T08:25:07.535Z</time></trkpt><trkpt lat="43.8042267" lon="12.5729083"><ele>242.20000000000002</ele><time>2026-04-25T08:25:08.534Z</time></trkpt><trkpt lat="43.8042217" lon="12.5727633"><ele>242.60000000000002</ele><time>2026-04-25T08:25:09.534Z</time></trkpt><trkpt lat="43.8042117" lon="12.57264"><ele>243.0</ele><time>2026-04-25T08:25:10.534Z</time></trkpt><trkpt lat="43.8041917" lon="12.572535"><ele>243.25</ele><time>2026-04-25T08:25:11.535Z</time></trkpt><trkpt lat="43.80416" lon="12.5724217"><ele>243.5</ele><time>2026-04-25T08:25:12.534Z</time></trkpt><trkpt lat="43.8041133" lon="12.572285"><ele>243.75</ele><time>2026-04-25T08:25:13.534Z</time></trkpt><trkpt lat="43.8040533" lon="12.57213"><ele>244.0</ele><time>2026-04-25T08:25:14.535Z</time></trkpt><trkpt lat="43.803985" lon="12.5719583"><ele>245.33333333333331</ele><time>2026-04-25T08:25:15.534Z</time></trkpt><trkpt lat="43.803915" lon="12.57178"><ele>246.66666666666669</ele><time>2026-04-25T08:25:16.531Z</time></trkpt><trkpt lat="43.8038467" lon="12.5715917"><ele>248.0</ele><time>2026-04-25T08:25:17.531Z</time></trkpt><trkpt lat="43.803785" lon="12.571395"><ele>248.0</ele><time>2026-04-25T08:25:18.532Z</time></trkpt><trkpt lat="43.803745" lon="12.5711967"><ele>248.0</ele><time>2026-04-25T08:25:19.532Z</time></trkpt><trkpt lat="43.8037283" lon="12.5710117"><ele>248.0</ele><time>2026-04-25T08:25:20.531Z</time></trkpt><trkpt lat="43.8037817" lon="12.5707133"><ele>248.2</ele><time>2026-04-25T08:25:22.531Z</time></trkpt><trkpt lat="43.8037883" lon="12.570585"><ele>248.4</ele><time>2026-04-25T08:25:23.534Z</time></trkpt><trkpt lat="43.803755" lon="12.57046"><ele>248.59999999999997</ele><time>2026-04-25T08:25:24.531Z</time></trkpt><trkpt lat="43.8036883" lon="12.5703517"><ele>248.79999999999998</ele><time>2026-04-25T08:25:25.534Z</time></trkpt><trkpt lat="43.8036017" lon="12.57025"><ele>249.0</ele><time>2026-04-25T08:25:26.534Z</time></trkpt><trkpt lat="43.803515" lon="12.5701567"><ele>253.0</ele><time>2026-04-25T08:25:27.534Z</time></trkpt><trkpt lat="43.80343" lon="12.5700667"><ele>257.0</ele><time>2026-04-25T08:25:28.535Z</time></trkpt><trkpt lat="43.8033483" lon="12.569975"><ele>261.0</ele><time>2026-04-25T08:25:29.534Z</time></trkpt><trkpt lat="43.8032583" lon="12.5698733"><ele>265.0</ele><time>2026-04-25T08:25:30.534Z</time></trkpt><trkpt lat="43.8031633" lon="12.56976"><ele>265.0</ele><time>2026-04-25T08:25:31.535Z</time></trkpt><trkpt lat="43.803065" lon="12.5696433"><ele>265.0</ele><time>2026-04-25T08:25:32.535Z</time></trkpt><trkpt lat="43.8029633" lon="12.56953"><ele>265.0</ele><time>2026-04-25T08:25:33.535Z</time></trkpt><trkpt lat="43.80286" lon="12.5694167"><ele>265.0</ele><time>2026-04-25T08:25:34.533Z</time></trkpt><trkpt lat="43.8027567" lon="12.5693067"><ele>266.6</ele><time>2026-04-25T08:25:35.534Z</time></trkpt><trkpt lat="43.8026633" lon="12.569195"><ele>268.2</ele><time>2026-04-25T08:25:36.535Z</time></trkpt><trkpt lat="43.80259" lon="12.5690817"><ele>269.8</ele><time>2026-04-25T08:25:37.535Z</time></trkpt><trkpt lat="43.802535" lon="12.5689683"><ele>271.4</ele><time>2026-04-25T08:25:38.534Z</time></trkpt><trkpt lat="43.802485" lon="12.56887"><ele>273.0</ele><time>2026-04-25T08:25:39.534Z</time></trkpt><trkpt lat="43.80244" lon="12.568775"><ele>274.0</ele><time>2026-04-25T08:25:40.534Z</time></trkpt><trkpt lat="43.8024017" lon="12.5686817"><ele>275.0</ele><time>2026-04-25T08:25:41.534Z</time></trkpt><trkpt lat="43.802315" lon="12.5684817"><ele>276.0</ele><time>2026-04-25T08:25:43.535Z</time></trkpt><trkpt lat="43.8022667" lon="12.5683833"><ele>277.0</ele><time>2026-04-25T08:25:44.534Z</time></trkpt><trkpt lat="43.8022167" lon="12.568285"><ele>278.0</ele><time>2026-04-25T08:25:45.535Z</time></trkpt><trkpt lat="43.8021667" lon="12.5681967"><ele>278.0</ele><time>2026-04-25T08:25:46.535Z</time></trkpt><trkpt lat="43.802115" lon="12.56811"><ele>278.0</ele><time>2026-04-25T08:25:47.534Z</time></trkpt><trkpt lat="43.8020667" lon="12.5680217"><ele>278.0</ele><time>2026-04-25T08:25:48.534Z</time></trkpt><trkpt lat="43.8020183" lon="12.5679233"><ele>278.0</ele><time>2026-04-25T08:25:49.534Z</time></trkpt><trkpt lat="43.8019817" lon="12.56781"><ele>278.0</ele><time>2026-04-25T08:25:50.535Z</time></trkpt><trkpt lat="43.8019567" lon="12.5676683"><ele>278.0</ele><time>2026-04-25T08:25:51.534Z</time></trkpt><trkpt lat="43.8019333" lon="12.5675217"><ele>277.25</ele><time>2026-04-25T08:25:52.535Z</time></trkpt><trkpt lat="43.8018983" lon="12.567375"><ele>276.5</ele><time>2026-04-25T08:25:53.535Z</time></trkpt><trkpt lat="43.8018417" lon="12.5672383"><ele>275.75</ele><time>2026-04-25T08:25:54.535Z</time></trkpt><trkpt lat="43.801755" lon="12.5671233"><ele>275.0</ele><time>2026-04-25T08:25:55.534Z</time></trkpt><trkpt lat="43.8016617" lon="12.5670183"><ele>277.25</ele><time>2026-04-25T08:25:56.536Z</time></trkpt><trkpt lat="43.8015617" lon="12.5669183"><ele>279.5</ele><time>2026-04-25T08:25:57.537Z</time></trkpt><trkpt lat="43.8014667" lon="12.5668067"><ele>281.75</ele><time>2026-04-25T08:25:58.534Z</time></trkpt><trkpt lat="43.8013817" lon="12.5666783"><ele>284.0</ele><time>2026-04-25T08:25:59.534Z</time></trkpt><trkpt lat="43.8013" lon="12.5665417"><ele>284.0</ele><time>2026-04-25T08:26:00.535Z</time></trkpt><trkpt lat="43.8012217" lon="12.5664117"><ele>284.0</ele><time>2026-04-25T08:26:01.534Z</time></trkpt><trkpt lat="43.8011283" lon="12.5662933"><ele>284.0</ele><time>2026-04-25T08:26:02.531Z</time></trkpt><trkpt lat="43.8008883" lon="12.56614"><ele>282.0</ele><time>2026-04-25T08:26:04.534Z</time></trkpt><trkpt lat="43.8007467" lon="12.566125"><ele>280.0</ele><time>2026-04-25T08:26:05.531Z</time></trkpt><trkpt lat="43.8005983" lon="12.5661417"><ele>278.0</ele><time>2026-04-25T08:26:06.535Z</time></trkpt><trkpt lat="43.80045" lon="12.566185"><ele>276.0</ele><time>2026-04-25T08:26:07.534Z</time></trkpt><trkpt lat="43.8003083" lon="12.56625"><ele>276.0</ele><time>2026-04-25T08:26:08.534Z</time></trkpt><trkpt lat="43.8001783" lon="12.56632"><ele>276.0</ele><time>2026-04-25T08:26:09.535Z</time></trkpt><trkpt lat="43.8000683" lon="12.5663817"><ele>276.0</ele><time>2026-04-25T08:26:10.532Z</time></trkpt><trkpt lat="43.79998" lon="12.5664017"><ele>276.0</ele><time>2026-04-25T08:26:11.534Z</time></trkpt><trkpt lat="43.7999117" lon="12.5663733"><ele>276.0</ele><time>2026-04-25T08:26:12.534Z</time></trkpt><trkpt lat="43.7998867" lon="12.56629"><ele>278.2</ele><time>2026-04-25T08:26:13.535Z</time></trkpt><trkpt lat="43.799885" lon="12.5661883"><ele>280.40000000000003</ele><time>2026-04-25T08:26:14.536Z</time></trkpt><trkpt lat="43.799905" lon="12.5660683"><ele>282.6</ele><time>2026-04-25T08:26:15.534Z</time></trkpt><trkpt lat="43.7999467" lon="12.5659167"><ele>284.8</ele><time>2026-04-25T08:26:16.535Z</time></trkpt><trkpt lat="43.7999717" lon="12.5657633"><ele>287.0</ele><time>2026-04-25T08:26:17.534Z</time></trkpt><trkpt lat="43.7999767" lon="12.56561"><ele>287.0</ele><time>2026-04-25T08:26:18.535Z</time></trkpt><trkpt lat="43.7999517" lon="12.5654667"><ele>287.0</ele><time>2026-04-25T08:26:19.535Z</time></trkpt><trkpt lat="43.7998967" lon="12.5653383"><ele>287.0</ele><time>2026-04-25T08:26:20.535Z</time></trkpt><trkpt lat="43.7998083" lon="12.5652283"><ele>287.0</ele><time>2026-04-25T08:26:21.534Z</time></trkpt><trkpt lat="43.7996983" lon="12.5651333"><ele>287.0</ele><time>2026-04-25T08:26:22.534Z</time></trkpt><trkpt lat="43.7995833" lon="12.5650533"><ele>287.0</ele><time>2026-04-25T08:26:23.534Z</time></trkpt><trkpt lat="43.799355" lon="12.5650033"><ele>287.0</ele><time>2026-04-25T08:26:25.534Z</time></trkpt><trkpt lat="43.7992467" lon="12.56503"><ele>289.75</ele><time>2026-04-25T08:26:26.534Z</time></trkpt><trkpt lat="43.7991417" lon="12.5650883"><ele>292.5</ele><time>2026-04-25T08:26:27.534Z</time></trkpt><trkpt lat="43.7990383" lon="12.5651817"><ele>295.25</ele><time>2026-04-25T08:26:28.534Z</time></trkpt><trkpt lat="43.79894" lon="12.5653017"><ele>298.0</ele><time>2026-04-25T08:26:29.534Z</time></trkpt><trkpt lat="43.7988517" lon="12.5654267"><ele>298.0</ele><time>2026-04-25T08:26:30.535Z</time></trkpt><trkpt lat="43.7987633" lon="12.5655517"><ele>298.0</ele><time>2026-04-25T08:26:31.535Z</time></trkpt><trkpt lat="43.7986783" lon="12.5656683"><ele>298.0</ele><time>2026-04-25T08:26:32.534Z</time></trkpt><trkpt lat="43.79859" lon="12.5657633"><ele>298.0</ele><time>2026-04-25T08:26:33.535Z</time></trkpt><trkpt lat="43.798505" lon="12.56582"><ele>299.6</ele><time>2026-04-25T08:26:34.535Z</time></trkpt><trkpt lat="43.7984183" lon="12.5658383"><ele>301.20000000000005</ele><time>2026-04-25T08:26:35.534Z</time></trkpt><trkpt lat="43.7983267" lon="12.56582"><ele>302.8</ele><time>2026-04-25T08:26:36.534Z</time></trkpt><trkpt lat="43.79823" lon="12.5657533"><ele>304.40000000000003</ele><time>2026-04-25T08:26:37.535Z</time></trkpt><trkpt lat="43.79813" lon="12.565665"><ele>306.0</ele><time>2026-04-25T08:26:38.534Z</time></trkpt><trkpt lat="43.7980317" lon="12.565565"><ele>306.0</ele><time>2026-04-25T08:26:39.534Z</time></trkpt><trkpt lat="43.7979383" lon="12.5654583"><ele>306.0</ele><time>2026-04-25T08:26:40.535Z</time></trkpt><trkpt lat="43.7978467" lon="12.565345"><ele>306.0</ele><time>2026-04-25T08:26:41.534Z</time></trkpt><trkpt lat="43.7977633" lon="12.5652033"><ele>306.0</ele><time>2026-04-25T08:26:42.534Z</time></trkpt><trkpt lat="43.7976867" lon="12.5650333"><ele>306.6666666666667</ele><time>2026-04-25T08:26:43.535Z</time></trkpt><trkpt lat="43.797615" lon="12.56485"><ele>307.33333333333337</ele><time>2026-04-25T08:26:44.534Z</time></trkpt><trkpt lat="43.7974933" lon="12.56448"><ele>308.0</ele><time>2026-04-25T08:26:46.534Z</time></trkpt><trkpt lat="43.797435" lon="12.5643"><ele>308.0</ele><time>2026-04-25T08:26:47.535Z</time></trkpt><trkpt lat="43.7973867" lon="12.5641367"><ele>308.0</ele><time>2026-04-25T08:26:48.534Z</time></trkpt><trkpt lat="43.7973517" lon="12.5639817"><ele>308.0</ele><time>2026-04-25T08:26:49.533Z</time></trkpt><trkpt lat="43.7973417" lon="12.5638283"><ele>308.0</ele><time>2026-04-25T08:26:50.534Z</time></trkpt><trkpt lat="43.79736" lon="12.5636817"><ele>308.0</ele><time>2026-04-25T08:26:51.535Z</time></trkpt><trkpt lat="43.7974167" lon="12.5635333"><ele>308.0</ele><time>2026-04-25T08:26:52.534Z</time></trkpt><trkpt lat="43.7974917" lon="12.5633833"><ele>308.0</ele><time>2026-04-25T08:26:53.534Z</time></trkpt><trkpt lat="43.7975633" lon="12.56322"><ele>308.0</ele><time>2026-04-25T08:26:54.535Z</time></trkpt><trkpt lat="43.7976283" lon="12.5630433"><ele>306.5</ele><time>2026-04-25T08:26:55.536Z</time></trkpt><trkpt lat="43.797695" lon="12.5628567"><ele>305.0</ele><time>2026-04-25T08:26:56.534Z</time></trkpt><trkpt lat="43.7977567" lon="12.5626683"><ele>303.5</ele><time>2026-04-25T08:26:57.535Z</time></trkpt><trkpt lat="43.7978167" lon="12.56249"><ele>302.0</ele><time>2026-04-25T08:26:58.535Z</time></trkpt><trkpt lat="43.7978767" lon="12.5623183"><ele>302.0</ele><time>2026-04-25T08:26:59.532Z</time></trkpt><trkpt lat="43.7979333" lon="12.56216"><ele>302.0</ele><time>2026-04-25T08:27:00.534Z</time></trkpt><trkpt lat="43.7979917" lon="12.5620017"><ele>302.0</ele><time>2026-04-25T08:27:01.536Z</time></trkpt><trkpt lat="43.7980483" lon="12.5618383"><ele>302.0</ele><time>2026-04-25T08:27:02.532Z</time></trkpt><trkpt lat="43.798085" lon="12.5616683"><ele>301.0</ele><time>2026-04-25T08:27:03.535Z</time></trkpt><trkpt lat="43.7981" lon="12.5614867"><ele>300.0</ele><time>2026-04-25T08:27:04.534Z</time></trkpt><trkpt lat="43.79808" lon="12.5613067"><ele>299.0</ele><time>2026-04-25T08:27:05.535Z</time></trkpt><trkpt lat="43.797965" lon="12.5609367"><ele>299.0</ele><time>2026-04-25T08:27:07.534Z</time></trkpt><trkpt lat="43.7978833" lon="12.560755"><ele>299.0</ele><time>2026-04-25T08:27:08.535Z</time></trkpt><trkpt lat="43.7978133" lon="12.56058"><ele>299.0</ele><time>2026-04-25T08:27:09.534Z</time></trkpt><trkpt lat="43.7977683" lon="12.5604117"><ele>299.0</ele><time>2026-04-25T08:27:10.534Z</time></trkpt><trkpt lat="43.7977567" lon="12.56022"><ele>299.0</ele><time>2026-04-25T08:27:11.535Z</time></trkpt><trkpt lat="43.79776" lon="12.560015"><ele>299.0</ele><time>2026-04-25T08:27:12.534Z</time></trkpt><trkpt lat="43.7977733" lon="12.55982"><ele>299.0</ele><time>2026-04-25T08:27:13.535Z</time></trkpt><trkpt lat="43.7977783" lon="12.5596567"><ele>299.0</ele><time>2026-04-25T08:27:14.534Z</time></trkpt><trkpt lat="43.7977633" lon="12.55951"><ele>300.75</ele><time>2026-04-25T08:27:15.535Z</time></trkpt><trkpt lat="43.797725" lon="12.5593667"><ele>302.5</ele><time>2026-04-25T08:27:16.534Z</time></trkpt><trkpt lat="43.7976667" lon="12.559215"><ele>304.25</ele><time>2026-04-25T08:27:17.531Z</time></trkpt><trkpt lat="43.7975833" lon="12.5590783"><ele>306.0</ele><time>2026-04-25T08:27:18.533Z</time></trkpt><trkpt lat="43.7975" lon="12.5589617"><ele>309.75</ele><time>2026-04-25T08:27:19.532Z</time></trkpt><trkpt lat="43.797425" lon="12.5588367"><ele>313.5</ele><time>2026-04-25T08:27:20.532Z</time></trkpt><trkpt lat="43.797375" lon="12.5586867"><ele>317.25</ele><time>2026-04-25T08:27:21.531Z</time></trkpt><trkpt lat="43.7973517" lon="12.558515"><ele>321.0</ele><time>2026-04-25T08:27:22.533Z</time></trkpt><trkpt lat="43.7973467" lon="12.558325"><ele>321.75</ele><time>2026-04-25T08:27:23.532Z</time></trkpt><trkpt lat="43.79735" lon="12.5581317"><ele>322.5</ele><time>2026-04-25T08:27:24.533Z</time></trkpt><trkpt lat="43.797345" lon="12.557945"><ele>323.25</ele><time>2026-04-25T08:27:25.533Z</time></trkpt><trkpt lat="43.7973217" lon="12.5577617"><ele>324.0</ele><time>2026-04-25T08:27:26.531Z</time></trkpt><trkpt lat="43.7972233" lon="12.5573883"><ele>324.5</ele><time>2026-04-25T08:27:28.534Z</time></trkpt><trkpt lat="43.7971583" lon="12.557205"><ele>325.0</ele><time>2026-04-25T08:27:29.534Z</time></trkpt><trkpt lat="43.79709" lon="12.557035"><ele>325.5</ele><time>2026-04-25T08:27:30.534Z</time></trkpt><trkpt lat="43.7970133" lon="12.5568783"><ele>326.0</ele><time>2026-04-25T08:27:31.536Z</time></trkpt><trkpt lat="43.7969233" lon="12.5567433"><ele>329.75</ele><time>2026-04-25T08:27:32.534Z</time></trkpt><trkpt lat="43.7968233" lon="12.5566267"><ele>333.5</ele><time>2026-04-25T08:27:33.536Z</time></trkpt><trkpt lat="43.7967233" lon="12.5565183"><ele>337.25</ele><time>2026-04-25T08:27:34.535Z</time></trkpt><trkpt lat="43.7966267" lon="12.55641"><ele>341.0</ele><time>2026-04-25T08:27:35.534Z</time></trkpt><trkpt lat="43.7965317" lon="12.5562983"><ele>339.4</ele><time>2026-04-25T08:27:36.534Z</time></trkpt><trkpt lat="43.79644" lon="12.55619"><ele>337.8</ele><time>2026-04-25T08:27:37.536Z</time></trkpt><trkpt lat="43.79636" lon="12.5560867"><ele>336.2</ele><time>2026-04-25T08:27:38.536Z</time></trkpt><trkpt lat="43.796295" lon="12.5559767"><ele>334.59999999999997</ele><time>2026-04-25T08:27:39.534Z</time></trkpt><trkpt lat="43.7962533" lon="12.5558633"><ele>333.0</ele><time>2026-04-25T08:27:40.534Z</time></trkpt><trkpt lat="43.7962417" lon="12.555745"><ele>333.0</ele><time>2026-04-25T08:27:41.536Z</time></trkpt><trkpt lat="43.7962433" lon="12.55561"><ele>333.0</ele><time>2026-04-25T08:27:42.537Z</time></trkpt><trkpt lat="43.7962733" lon="12.5554383"><ele>333.0</ele><time>2026-04-25T08:27:43.536Z</time></trkpt><trkpt lat="43.7963067" lon="12.55525"><ele>333.0</ele><time>2026-04-25T08:27:44.534Z</time></trkpt><trkpt lat="43.7963433" lon="12.5550517"><ele>331.6666666666667</ele><time>2026-04-25T08:27:45.535Z</time></trkpt><trkpt lat="43.7963883" lon="12.55485"><ele>330.33333333333337</ele><time>2026-04-25T08:27:46.534Z</time></trkpt><trkpt lat="43.79643" lon="12.5546533"><ele>329.0</ele><time>2026-04-25T08:27:47.531Z</time></trkpt><trkpt lat="43.7965017" lon="12.55428"><ele>331.25</ele><time>2026-04-25T08:27:49.533Z</time></trkpt><trkpt lat="43.7965317" lon="12.5541017"><ele>333.5</ele><time>2026-04-25T08:27:50.533Z</time></trkpt><trkpt lat="43.7965483" lon="12.55393"><ele>335.75</ele><time>2026-04-25T08:27:51.533Z</time></trkpt><trkpt lat="43.7965433" lon="12.5537533"><ele>338.0</ele><time>2026-04-25T08:27:52.535Z</time></trkpt><trkpt lat="43.7965283" lon="12.5535667"><ele>339.0</ele><time>2026-04-25T08:27:53.533Z</time></trkpt><trkpt lat="43.7965133" lon="12.55338"><ele>340.0</ele><time>2026-04-25T08:27:54.535Z</time></trkpt><trkpt lat="43.796505" lon="12.5531933"><ele>341.0</ele><time>2026-04-25T08:27:55.534Z</time></trkpt><trkpt lat="43.796515" lon="12.5530017"><ele>342.0</ele><time>2026-04-25T08:27:56.533Z</time></trkpt><trkpt lat="43.7965433" lon="12.5528117"><ele>342.75</ele><time>2026-04-25T08:27:57.535Z</time></trkpt><trkpt lat="43.796585" lon="12.5526183"><ele>343.5</ele><time>2026-04-25T08:27:58.535Z</time></trkpt><trkpt lat="43.7966383" lon="12.55242"><ele>344.25</ele><time>2026-04-25T08:27:59.536Z</time></trkpt><trkpt lat="43.7966833" lon="12.5522333"><ele>345.0</ele><time>2026-04-25T08:28:00.534Z</time></trkpt><trkpt lat="43.79672" lon="12.5520483"><ele>345.0</ele><time>2026-04-25T08:28:01.534Z</time></trkpt><trkpt lat="43.7967567" lon="12.55186"><ele>345.0</ele><time>2026-04-25T08:28:02.535Z</time></trkpt><trkpt lat="43.7967983" lon="12.55167"><ele>345.0</ele><time>2026-04-25T08:28:03.533Z</time></trkpt><trkpt lat="43.7968467" lon="12.5514817"><ele>345.0</ele><time>2026-04-25T08:28:04.535Z</time></trkpt><trkpt lat="43.7969083" lon="12.5512883"><ele>344.6666666666667</ele><time>2026-04-25T08:28:05.534Z</time></trkpt><trkpt lat="43.796965" lon="12.5510917"><ele>344.33333333333337</ele><time>2026-04-25T08:28:06.535Z</time></trkpt><trkpt lat="43.7970083" lon="12.550885"><ele>344.0</ele><time>2026-04-25T08:28:07.534Z</time></trkpt><trkpt lat="43.797035" lon="12.5506667"><ele>348.6666666666667</ele><time>2026-04-25T08:28:08.536Z</time></trkpt><trkpt lat="43.7970483" lon="12.5502517"><ele>353.3333333333333</ele><time>2026-04-25T08:28:10.535Z</time></trkpt><trkpt lat="43.797045" lon="12.5500717"><ele>358.0</ele><time>2026-04-25T08:28:11.536Z</time></trkpt><trkpt lat="43.79704" lon="12.549895"><ele>358.0</ele><time>2026-04-25T08:28:12.535Z</time></trkpt><trkpt lat="43.7970433" lon="12.5497283"><ele>358.0</ele><time>2026-04-25T08:28:13.534Z</time></trkpt><trkpt lat="43.7970567" lon="12.5495783"><ele>358.0</ele><time>2026-04-25T08:28:14.535Z</time></trkpt><trkpt lat="43.7970817" lon="12.5494517"><ele>358.0</ele><time>2026-04-25T08:28:15.534Z</time></trkpt><trkpt lat="43.7971317" lon="12.5493433"><ele>358.0</ele><time>2026-04-25T08:28:16.534Z</time></trkpt><trkpt lat="43.7972067" lon="12.5492633"><ele>356.79999999999995</ele><time>2026-04-25T08:28:17.531Z</time></trkpt><trkpt lat="43.7972983" lon="12.5491933"><ele>355.6</ele><time>2026-04-25T08:28:18.534Z</time></trkpt><trkpt lat="43.797405" lon="12.54913"><ele>354.4</ele><time>2026-04-25T08:28:19.532Z</time></trkpt><trkpt lat="43.7975083" lon="12.5490517"><ele>353.20000000000005</ele><time>2026-04-25T08:28:20.532Z</time></trkpt><trkpt lat="43.7975983" lon="12.54897"><ele>352.0</ele><time>2026-04-25T08:28:21.532Z</time></trkpt><trkpt lat="43.7976817" lon="12.5488683"><ele>350.0</ele><time>2026-04-25T08:28:22.532Z</time></trkpt><trkpt lat="43.7977617" lon="12.5487467"><ele>348.0</ele><time>2026-04-25T08:28:23.531Z</time></trkpt><trkpt lat="43.7978333" lon="12.548605"><ele>346.0</ele><time>2026-04-25T08:28:24.535Z</time></trkpt><trkpt lat="43.7979017" lon="12.5484417"><ele>344.0</ele><time>2026-04-25T08:28:25.533Z</time></trkpt><trkpt lat="43.7979717" lon="12.5482667"><ele>342.25</ele><time>2026-04-25T08:28:26.531Z</time></trkpt><trkpt lat="43.79804" lon="12.5480917"><ele>340.5</ele><time>2026-04-25T08:28:27.531Z</time></trkpt><trkpt lat="43.7981083" lon="12.5479183"><ele>338.75</ele><time>2026-04-25T08:28:28.532Z</time></trkpt><trkpt lat="43.7981683" lon="12.5477417"><ele>337.0</ele><time>2026-04-25T08:28:29.531Z</time></trkpt><trkpt lat="43.798275" lon="12.54736"><ele>337.0</ele><time>2026-04-25T08:28:31.534Z</time></trkpt><trkpt lat="43.79831" lon="12.5471517"><ele>337.0</ele><time>2026-04-25T08:28:32.535Z</time></trkpt><trkpt lat="43.7983283" lon="12.546945"><ele>337.0</ele><time>2026-04-25T08:28:33.534Z</time></trkpt><trkpt lat="43.7983333" lon="12.5467383"><ele>337.0</ele><time>2026-04-25T08:28:34.533Z</time></trkpt><trkpt lat="43.7983267" lon="12.546535"><ele>337.0</ele><time>2026-04-25T08:28:35.534Z</time></trkpt><trkpt lat="43.7982983" lon="12.54634"><ele>337.0</ele><time>2026-04-25T08:28:36.532Z</time></trkpt><trkpt lat="43.79826" lon="12.5461517"><ele>337.0</ele><time>2026-04-25T08:28:37.532Z</time></trkpt><trkpt lat="43.7982233" lon="12.5459717"><ele>338.75</ele><time>2026-04-25T08:28:38.531Z</time></trkpt><trkpt lat="43.7982" lon="12.5457933"><ele>340.5</ele><time>2026-04-25T08:28:39.532Z</time></trkpt><trkpt lat="43.798195" lon="12.5456083"><ele>342.25</ele><time>2026-04-25T08:28:40.534Z</time></trkpt><trkpt lat="43.7982" lon="12.5454167"><ele>344.0</ele><time>2026-04-25T08:28:41.535Z</time></trkpt><trkpt lat="43.79819" lon="12.5452233"><ele>345.75</ele><time>2026-04-25T08:28:42.535Z</time></trkpt><trkpt lat="43.7981667" lon="12.5450267"><ele>347.5</ele><time>2026-04-25T08:28:43.535Z</time></trkpt><trkpt lat="43.7981217" lon="12.5448367"><ele>349.25</ele><time>2026-04-25T08:28:44.533Z</time></trkpt><trkpt lat="43.798065" lon="12.5446467"><ele>351.0</ele><time>2026-04-25T08:28:45.534Z</time></trkpt><trkpt lat="43.79802" lon="12.5444533"><ele>352.3333333333333</ele><time>2026-04-25T08:28:46.534Z</time></trkpt><trkpt lat="43.7979933" lon="12.5442517"><ele>353.66666666666663</ele><time>2026-04-25T08:28:47.532Z</time></trkpt><trkpt lat="43.79798" lon="12.5440433"><ele>355.0</ele><time>2026-04-25T08:28:48.533Z</time></trkpt><trkpt lat="43.79797" lon="12.5438317"><ele>351.5</ele><time>2026-04-25T08:28:49.536Z</time></trkpt><trkpt lat="43.7979617" lon="12.5436183"><ele>348.0</ele><time>2026-04-25T08:28:50.531Z</time></trkpt><trkpt lat="43.7979533" lon="12.543175"><ele>348.0</ele><time>2026-04-25T08:28:52.532Z</time></trkpt><trkpt lat="43.79795" lon="12.5429467"><ele>348.0</ele><time>2026-04-25T08:28:53.531Z</time></trkpt><trkpt lat="43.797945" lon="12.5427183"><ele>348.0</ele><time>2026-04-25T08:28:54.532Z</time></trkpt><trkpt lat="43.79793" lon="12.54249"><ele>348.0</ele><time>2026-04-25T08:28:55.532Z</time></trkpt><trkpt lat="43.797905" lon="12.5422633"><ele>348.0</ele><time>2026-04-25T08:28:56.531Z</time></trkpt><trkpt lat="43.7978583" lon="12.5420467"><ele>348.0</ele><time>2026-04-25T08:28:57.533Z</time></trkpt><trkpt lat="43.79779" lon="12.5418517"><ele>348.5</ele><time>2026-04-25T08:28:58.535Z</time></trkpt><trkpt lat="43.79771" lon="12.5416867"><ele>349.0</ele><time>2026-04-25T08:28:59.535Z</time></trkpt><trkpt lat="43.7976317" lon="12.5415433"><ele>349.5</ele><time>2026-04-25T08:29:00.534Z</time></trkpt><trkpt lat="43.7975683" lon="12.5413983"><ele>350.0</ele><time>2026-04-25T08:29:01.534Z</time></trkpt><trkpt lat="43.7975167" lon="12.541245"><ele>353.0</ele><time>2026-04-25T08:29:02.536Z</time></trkpt><trkpt lat="43.7974833" lon="12.5410867"><ele>356.0</ele><time>2026-04-25T08:29:03.531Z</time></trkpt><trkpt lat="43.7974583" lon="12.540925"><ele>359.0</ele><time>2026-04-25T08:29:04.535Z</time></trkpt><trkpt lat="43.7974367" lon="12.5407533"><ele>362.0</ele><time>2026-04-25T08:29:05.535Z</time></trkpt><trkpt lat="43.7974083" lon="12.5405733"><ele>362.0</ele><time>2026-04-25T08:29:06.534Z</time></trkpt><trkpt lat="43.7973717" lon="12.5403883"><ele>362.0</ele><time>2026-04-25T08:29:07.534Z</time></trkpt><trkpt lat="43.7973267" lon="12.5402067"><ele>362.0</ele><time>2026-04-25T08:29:08.535Z</time></trkpt><trkpt lat="43.7972667" lon="12.54004"><ele>362.0</ele><time>2026-04-25T08:29:09.534Z</time></trkpt><trkpt lat="43.7971967" lon="12.53989"><ele>363.6666666666667</ele><time>2026-04-25T08:29:10.535Z</time></trkpt><trkpt lat="43.79712" lon="12.539755"><ele>365.3333333333333</ele><time>2026-04-25T08:29:11.534Z</time></trkpt><trkpt lat="43.7969483" lon="12.5395267"><ele>367.0</ele><time>2026-04-25T08:29:13.535Z</time></trkpt><trkpt lat="43.7968617" lon="12.5394367"><ele>368.20000000000005</ele><time>2026-04-25T08:29:14.536Z</time></trkpt><trkpt lat="43.7967783" lon="12.53935"><ele>369.4</ele><time>2026-04-25T08:29:15.534Z</time></trkpt><trkpt lat="43.7966983" lon="12.5392617"><ele>370.6</ele><time>2026-04-25T08:29:16.534Z</time></trkpt><trkpt lat="43.7966183" lon="12.53916"><ele>371.79999999999995</ele><time>2026-04-25T08:29:17.533Z</time></trkpt><trkpt lat="43.79654" lon="12.539045"><ele>373.0</ele><time>2026-04-25T08:29:18.536Z</time></trkpt><trkpt lat="43.7964633" lon="12.5389217"><ele>373.0</ele><time>2026-04-25T08:29:19.534Z</time></trkpt><trkpt lat="43.7963917" lon="12.5388"><ele>373.0</ele><time>2026-04-25T08:29:20.533Z</time></trkpt><trkpt lat="43.7963133" lon="12.5386933"><ele>373.0</ele><time>2026-04-25T08:29:21.534Z</time></trkpt><trkpt lat="43.79622" lon="12.5386017"><ele>373.0</ele><time>2026-04-25T08:29:22.534Z</time></trkpt><trkpt lat="43.7961133" lon="12.5385233"><ele>373.0</ele><time>2026-04-25T08:29:23.534Z</time></trkpt><trkpt lat="43.7959967" lon="12.53846"><ele>373.0</ele><time>2026-04-25T08:29:24.535Z</time></trkpt><trkpt lat="43.79587" lon="12.5384033"><ele>373.0</ele><time>2026-04-25T08:29:25.537Z</time></trkpt><trkpt lat="43.7957433" lon="12.5383517"><ele>373.0</ele><time>2026-04-25T08:29:26.535Z</time></trkpt><trkpt lat="43.795625" lon="12.5382983"><ele>373.0</ele><time>2026-04-25T08:29:27.531Z</time></trkpt><trkpt lat="43.7955133" lon="12.5382467"><ele>373.0</ele><time>2026-04-25T08:29:28.534Z</time></trkpt><trkpt lat="43.79541" lon="12.5382017"><ele>373.0</ele><time>2026-04-25T08:29:29.531Z</time></trkpt><trkpt lat="43.7953117" lon="12.5381583"><ele>373.0</ele><time>2026-04-25T08:29:30.532Z</time></trkpt><trkpt lat="43.7952183" lon="12.5381167"><ele>373.0</ele><time>2026-04-25T08:29:31.533Z</time></trkpt><trkpt lat="43.7951333" lon="12.53806"><ele>372.5</ele><time>2026-04-25T08:29:32.532Z</time></trkpt><trkpt lat="43.795" lon="12.5378833"><ele>372.0</ele><time>2026-04-25T08:29:34.532Z</time></trkpt><trkpt lat="43.7949567" lon="12.53776"><ele>371.5</ele><time>2026-04-25T08:29:35.531Z</time></trkpt><trkpt lat="43.794925" lon="12.5376233"><ele>371.0</ele><time>2026-04-25T08:29:36.532Z</time></trkpt><trkpt lat="43.7949" lon="12.5374783"><ele>371.0</ele><time>2026-04-25T08:29:37.533Z</time></trkpt><trkpt lat="43.7948833" lon="12.5373283"><ele>371.0</ele><time>2026-04-25T08:29:38.531Z</time></trkpt><trkpt lat="43.7948683" lon="12.5371833"><ele>371.0</ele><time>2026-04-25T08:29:39.532Z</time></trkpt><trkpt lat="43.7948533" lon="12.537035"><ele>371.0</ele><time>2026-04-25T08:29:40.532Z</time></trkpt><trkpt lat="43.7948367" lon="12.536885"><ele>371.0</ele><time>2026-04-25T08:29:41.531Z</time></trkpt><trkpt lat="43.79482" lon="12.5367333"><ele>370.5</ele><time>2026-04-25T08:29:42.533Z</time></trkpt><trkpt lat="43.7948" lon="12.5365733"><ele>370.0</ele><time>2026-04-25T08:29:43.532Z</time></trkpt><trkpt lat="43.7947767" lon="12.5364117"><ele>369.5</ele><time>2026-04-25T08:29:44.534Z</time></trkpt><trkpt lat="43.7947433" lon="12.5362533"><ele>369.0</ele><time>2026-04-25T08:29:45.535Z</time></trkpt><trkpt lat="43.7947033" lon="12.5361033"><ele>367.25</ele><time>2026-04-25T08:29:46.531Z</time></trkpt><trkpt lat="43.7946533" lon="12.5359667"><ele>365.5</ele><time>2026-04-25T08:29:47.533Z</time></trkpt><trkpt lat="43.7945933" lon="12.53584"><ele>363.75</ele><time>2026-04-25T08:29:48.532Z</time></trkpt><trkpt lat="43.79452" lon="12.5357217"><ele>362.0</ele><time>2026-04-25T08:29:49.533Z</time></trkpt><trkpt lat="43.79443" lon="12.53561"><ele>362.0</ele><time>2026-04-25T08:29:50.532Z</time></trkpt><trkpt lat="43.794325" lon="12.535495"><ele>362.0</ele><time>2026-04-25T08:29:51.533Z</time></trkpt><trkpt lat="43.7942033" lon="12.53538"><ele>362.0</ele><time>2026-04-25T08:29:52.532Z</time></trkpt><trkpt lat="43.7940717" lon="12.535265"><ele>362.0</ele><time>2026-04-25T08:29:53.536Z</time></trkpt><trkpt lat="43.79381" lon="12.5350583"><ele>362.0</ele><time>2026-04-25T08:29:55.536Z</time></trkpt><trkpt lat="43.7936867" lon="12.5349683"><ele>362.0</ele><time>2026-04-25T08:29:56.534Z</time></trkpt><trkpt lat="43.7935717" lon="12.5348867"><ele>362.0</ele><time>2026-04-25T08:29:57.532Z</time></trkpt><trkpt lat="43.7934633" lon="12.5348083"><ele>362.0</ele><time>2026-04-25T08:29:58.536Z</time></trkpt><trkpt lat="43.79336" lon="12.5347267"><ele>362.0</ele><time>2026-04-25T08:29:59.532Z</time></trkpt><trkpt lat="43.79327" lon="12.5346367"><ele>362.0</ele><time>2026-04-25T08:30:00.534Z</time></trkpt><trkpt lat="43.793195" lon="12.534535"><ele>362.0</ele><time>2026-04-25T08:30:01.534Z</time></trkpt><trkpt lat="43.7931317" lon="12.5344167"><ele>362.0</ele><time>2026-04-25T08:30:02.533Z</time></trkpt><trkpt lat="43.7930733" lon="12.5342833"><ele>362.0</ele><time>2026-04-25T08:30:03.534Z</time></trkpt><trkpt lat="43.7930167" lon="12.5341367"><ele>361.5</ele><time>2026-04-25T08:30:04.534Z</time></trkpt><trkpt lat="43.7929433" lon="12.5339967"><ele>361.0</ele><time>2026-04-25T08:30:05.533Z</time></trkpt><trkpt lat="43.792855" lon="12.53387"><ele>360.5</ele><time>2026-04-25T08:30:06.534Z</time></trkpt><trkpt lat="43.7927633" lon="12.533755"><ele>360.0</ele><time>2026-04-25T08:30:07.536Z</time></trkpt><trkpt lat="43.7926683" lon="12.5336517"><ele>360.0</ele><time>2026-04-25T08:30:08.533Z</time></trkpt><trkpt lat="43.7925667" lon="12.5335567"><ele>360.0</ele><time>2026-04-25T08:30:09.535Z</time></trkpt><trkpt lat="43.7924533" lon="12.5334683"><ele>360.0</ele><time>2026-04-25T08:30:10.535Z</time></trkpt><trkpt lat="43.792335" lon="12.53339"><ele>360.0</ele><time>2026-04-25T08:30:11.536Z</time></trkpt><trkpt lat="43.7922183" lon="12.53332"><ele>360.0</ele><time>2026-04-25T08:30:12.535Z</time></trkpt><trkpt lat="43.7920967" lon="12.5332617"><ele>360.0</ele><time>2026-04-25T08:30:13.535Z</time></trkpt><trkpt lat="43.7919717" lon="12.5332167"><ele>360.0</ele><time>2026-04-25T08:30:14.535Z</time></trkpt><trkpt lat="43.7917333" lon="12.5331833"><ele>359.4</ele><time>2026-04-25T08:30:16.535Z</time></trkpt><trkpt lat="43.7916167" lon="12.53319"><ele>358.8</ele><time>2026-04-25T08:30:17.536Z</time></trkpt><trkpt lat="43.7915033" lon="12.5331883"><ele>358.20000000000005</ele><time>2026-04-25T08:30:18.536Z</time></trkpt><trkpt lat="43.7913967" lon="12.5331667"><ele>357.6</ele><time>2026-04-25T08:30:19.537Z</time></trkpt><trkpt lat="43.7912983" lon="12.5331117"><ele>357.0</ele><time>2026-04-25T08:30:20.535Z</time></trkpt><trkpt lat="43.7912183" lon="12.5330283"><ele>357.0</ele><time>2026-04-25T08:30:21.535Z</time></trkpt><trkpt lat="43.7911433" lon="12.53292"><ele>357.0</ele><time>2026-04-25T08:30:22.535Z</time></trkpt><trkpt lat="43.7910783" lon="12.5328"><ele>357.0</ele><time>2026-04-25T08:30:23.535Z</time></trkpt><trkpt lat="43.79102" lon="12.5326917"><ele>357.0</ele><time>2026-04-25T08:30:24.535Z</time></trkpt><trkpt lat="43.79097" lon="12.53259"><ele>357.0</ele><time>2026-04-25T08:30:25.536Z</time></trkpt><trkpt lat="43.790925" lon="12.5324917"><ele>357.40000000000003</ele><time>2026-04-25T08:30:26.534Z</time></trkpt><trkpt lat="43.7908767" lon="12.5323933"><ele>357.8</ele><time>2026-04-25T08:30:27.531Z</time></trkpt><trkpt lat="43.79082" lon="12.5322917"><ele>358.2</ele><time>2026-04-25T08:30:28.534Z</time></trkpt><trkpt lat="43.7907583" lon="12.532185"><ele>358.6</ele><time>2026-04-25T08:30:29.531Z</time></trkpt><trkpt lat="43.7906933" lon="12.53207"><ele>359.0</ele><time>2026-04-25T08:30:30.533Z</time></trkpt><trkpt lat="43.790625" lon="12.5319483"><ele>360.75</ele><time>2026-04-25T08:30:31.532Z</time></trkpt><trkpt lat="43.790555" lon="12.531815"><ele>362.5</ele><time>2026-04-25T08:30:32.532Z</time></trkpt><trkpt lat="43.7904833" lon="12.5316767"><ele>364.25</ele><time>2026-04-25T08:30:33.531Z</time></trkpt><trkpt lat="43.79041" lon="12.5315383"><ele>366.0</ele><time>2026-04-25T08:30:34.535Z</time></trkpt><trkpt lat="43.79033" lon="12.5313983"><ele>362.3333333333333</ele><time>2026-04-25T08:30:35.532Z</time></trkpt><trkpt lat="43.7901617" lon="12.5311"><ele>358.66666666666663</ele><time>2026-04-25T08:30:37.532Z</time></trkpt><trkpt lat="43.7900783" lon="12.53094"><ele>355.0</ele><time>2026-04-25T08:30:38.532Z</time></trkpt><trkpt lat="43.7899933" lon="12.5307717"><ele>355.0</ele><time>2026-04-25T08:30:39.532Z</time></trkpt><trkpt lat="43.78991" lon="12.530595"><ele>355.0</ele><time>2026-04-25T08:30:40.536Z</time></trkpt><trkpt lat="43.789825" lon="12.5304133"><ele>355.0</ele><time>2026-04-25T08:30:41.533Z</time></trkpt><trkpt lat="43.78974" lon="12.5302283"><ele>353.0</ele><time>2026-04-25T08:30:42.537Z</time></trkpt><trkpt lat="43.7896633" lon="12.5300483"><ele>351.0</ele><time>2026-04-25T08:30:43.535Z</time></trkpt><trkpt lat="43.7895917" lon="12.529885"><ele>349.0</ele><time>2026-04-25T08:30:44.535Z</time></trkpt><trkpt lat="43.7895233" lon="12.529745"><ele>347.0</ele><time>2026-04-25T08:30:45.535Z</time></trkpt><trkpt lat="43.7894567" lon="12.5296383"><ele>347.0</ele><time>2026-04-25T08:30:46.535Z</time></trkpt><trkpt lat="43.7893867" lon="12.5295767"><ele>347.0</ele><time>2026-04-25T08:30:47.535Z</time></trkpt><trkpt lat="43.78931" lon="12.5295467"><ele>347.0</ele><time>2026-04-25T08:30:48.535Z</time></trkpt><trkpt lat="43.78922" lon="12.5295433"><ele>347.0</ele><time>2026-04-25T08:30:49.536Z</time></trkpt><trkpt lat="43.7891133" lon="12.5295367"><ele>347.0</ele><time>2026-04-25T08:30:50.535Z</time></trkpt><trkpt lat="43.7889917" lon="12.529515"><ele>349.25</ele><time>2026-04-25T08:30:51.536Z</time></trkpt><trkpt lat="43.78885" lon="12.5294883"><ele>351.5</ele><time>2026-04-25T08:30:52.534Z</time></trkpt><trkpt lat="43.7887" lon="12.5294617"><ele>353.75</ele><time>2026-04-25T08:30:53.535Z</time></trkpt><trkpt lat="43.788555" lon="12.52944"><ele>356.0</ele><time>2026-04-25T08:30:54.535Z</time></trkpt><trkpt lat="43.7884267" lon="12.5294283"><ele>360.6666666666667</ele><time>2026-04-25T08:30:55.535Z</time></trkpt><trkpt lat="43.7883083" lon="12.529405"><ele>365.3333333333333</ele><time>2026-04-25T08:30:56.535Z</time></trkpt><trkpt lat="43.7881133" lon="12.5292383"><ele>370.0</ele><time>2026-04-25T08:30:58.533Z</time></trkpt><trkpt lat="43.788025" lon="12.529105"><ele>370.0</ele><time>2026-04-25T08:30:59.531Z</time></trkpt><trkpt lat="43.7879283" lon="12.5289583"><ele>370.0</ele><time>2026-04-25T08:31:00.532Z</time></trkpt><trkpt lat="43.7878317" lon="12.5288083"><ele>370.0</ele><time>2026-04-25T08:31:01.532Z</time></trkpt><trkpt lat="43.7877383" lon="12.5286667"><ele>370.0</ele><time>2026-04-25T08:31:02.531Z</time></trkpt><trkpt lat="43.78765" lon="12.5285217"><ele>372.75</ele><time>2026-04-25T08:31:03.531Z</time></trkpt><trkpt lat="43.78758" lon="12.5283633"><ele>375.5</ele><time>2026-04-25T08:31:04.532Z</time></trkpt><trkpt lat="43.7875267" lon="12.5281917"><ele>378.25</ele><time>2026-04-25T08:31:05.532Z</time></trkpt><trkpt lat="43.7874917" lon="12.5280083"><ele>381.0</ele><time>2026-04-25T08:31:06.535Z</time></trkpt><trkpt lat="43.7874567" lon="12.5278283"><ele>382.75</ele><time>2026-04-25T08:31:07.532Z</time></trkpt><trkpt lat="43.7873967" lon="12.52766"><ele>384.5</ele><time>2026-04-25T08:31:08.532Z</time></trkpt><trkpt lat="43.7873183" lon="12.5275"><ele>386.25</ele><time>2026-04-25T08:31:09.532Z</time></trkpt><trkpt lat="43.7872267" lon="12.52734"><ele>388.0</ele><time>2026-04-25T08:31:10.535Z</time></trkpt><trkpt lat="43.7871267" lon="12.52717"><ele>385.75</ele><time>2026-04-25T08:31:11.536Z</time></trkpt><trkpt lat="43.7870267" lon="12.5270083"><ele>383.5</ele><time>2026-04-25T08:31:12.535Z</time></trkpt><trkpt lat="43.7869317" lon="12.526865"><ele>381.25</ele><time>2026-04-25T08:31:13.535Z</time></trkpt><trkpt lat="43.786835" lon="12.5267483"><ele>379.0</ele><time>2026-04-25T08:31:14.535Z</time></trkpt><trkpt lat="43.7867417" lon="12.5266717"><ele>386.66666666666663</ele><time>2026-04-25T08:31:15.534Z</time></trkpt><trkpt lat="43.7866367" lon="12.5266317"><ele>394.3333333333333</ele><time>2026-04-25T08:31:16.536Z</time></trkpt><trkpt lat="43.7865183" lon="12.52662"><ele>402.0</ele><time>2026-04-25T08:31:17.536Z</time></trkpt><trkpt lat="43.7862817" lon="12.5266483"><ele>402.0</ele><time>2026-04-25T08:31:19.535Z</time></trkpt><trkpt lat="43.7861833" lon="12.5266967"><ele>402.0</ele><time>2026-04-25T08:31:20.535Z</time></trkpt><trkpt lat="43.7861" lon="12.5267767"><ele>402.0</ele><time>2026-04-25T08:31:21.536Z</time></trkpt><trkpt lat="43.78602" lon="12.5268933"><ele>402.0</ele><time>2026-04-25T08:31:22.536Z</time></trkpt><trkpt lat="43.7859467" lon="12.527035"><ele>402.0</ele><time>2026-04-25T08:31:23.535Z</time></trkpt><trkpt lat="43.7858767" lon="12.5271917"><ele>405.5</ele><time>2026-04-25T08:31:24.535Z</time></trkpt><trkpt lat="43.7858067" lon="12.52735"><ele>409.0</ele><time>2026-04-25T08:31:25.536Z</time></trkpt><trkpt lat="43.785735" lon="12.52751"><ele>412.5</ele><time>2026-04-25T08:31:26.535Z</time></trkpt><trkpt lat="43.78566" lon="12.527665"><ele>416.0</ele><time>2026-04-25T08:31:27.533Z</time></trkpt><trkpt lat="43.7855817" lon="12.5278017"><ele>416.5</ele><time>2026-04-25T08:31:28.532Z</time></trkpt><trkpt lat="43.7854917" lon="12.5279183"><ele>417.0</ele><time>2026-04-25T08:31:29.531Z</time></trkpt><trkpt lat="43.7853917" lon="12.5279967"><ele>417.5</ele><time>2026-04-25T08:31:30.535Z</time></trkpt><trkpt lat="43.7852867" lon="12.5280183"><ele>418.0</ele><time>2026-04-25T08:31:31.532Z</time></trkpt><trkpt lat="43.7851733" lon="12.5280033"><ele>418.0</ele><time>2026-04-25T08:31:32.536Z</time></trkpt><trkpt lat="43.785055" lon="12.52798"><ele>418.0</ele><time>2026-04-25T08:31:33.533Z</time></trkpt><trkpt lat="43.7849317" lon="12.5279533"><ele>418.0</ele><time>2026-04-25T08:31:34.532Z</time></trkpt><trkpt lat="43.7848083" lon="12.5279467"><ele>418.0</ele><time>2026-04-25T08:31:35.533Z</time></trkpt><trkpt lat="43.7846783" lon="12.52796"><ele>418.0</ele><time>2026-04-25T08:31:36.531Z</time></trkpt><trkpt lat="43.7845383" lon="12.5279767"><ele>418.0</ele><time>2026-04-25T08:31:37.533Z</time></trkpt><trkpt lat="43.7843867" lon="12.5279817"><ele>418.0</ele><time>2026-04-25T08:31:38.531Z</time></trkpt><trkpt lat="43.784095" lon="12.5279083"><ele>419.25</ele><time>2026-04-25T08:31:40.534Z</time></trkpt><trkpt lat="43.7839783" lon="12.527825"><ele>420.5</ele><time>2026-04-25T08:31:41.534Z</time></trkpt><trkpt lat="43.7838733" lon="12.5277517"><ele>421.75</ele><time>2026-04-25T08:31:42.534Z</time></trkpt><trkpt lat="43.783775" lon="12.5277083"><ele>423.0</ele><time>2026-04-25T08:31:43.534Z</time></trkpt><trkpt lat="43.783675" lon="12.52771"><ele>423.0</ele><time>2026-04-25T08:31:44.534Z</time></trkpt><trkpt lat="43.7835633" lon="12.527745"><ele>423.0</ele><time>2026-04-25T08:31:45.534Z</time></trkpt><trkpt lat="43.7834417" lon="12.5278083"><ele>423.0</ele><time>2026-04-25T08:31:46.534Z</time></trkpt><trkpt lat="43.7833183" lon="12.5278767"><ele>423.0</ele><time>2026-04-25T08:31:47.534Z</time></trkpt><trkpt lat="43.7831967" lon="12.5279417"><ele>426.25</ele><time>2026-04-25T08:31:48.534Z</time></trkpt><trkpt lat="43.7830717" lon="12.527985"><ele>429.5</ele><time>2026-04-25T08:31:49.534Z</time></trkpt><trkpt lat="43.78294" lon="12.527995"><ele>432.75</ele><time>2026-04-25T08:31:50.531Z</time></trkpt><trkpt lat="43.7828083" lon="12.52798"><ele>436.0</ele><time>2026-04-25T08:31:51.53Z</time></trkpt><trkpt lat="43.78267" lon="12.527955"><ele>438.75</ele><time>2026-04-25T08:31:52.531Z</time></trkpt><trkpt lat="43.782535" lon="12.5279283"><ele>441.5</ele><time>2026-04-25T08:31:53.532Z</time></trkpt><trkpt lat="43.782395" lon="12.5279217"><ele>444.25</ele><time>2026-04-25T08:31:54.532Z</time></trkpt><trkpt lat="43.7822467" lon="12.52793"><ele>447.0</ele><time>2026-04-25T08:31:55.532Z</time></trkpt><trkpt lat="43.7820917" lon="12.5279583"><ele>447.0</ele><time>2026-04-25T08:31:56.53Z</time></trkpt><trkpt lat="43.7819383" lon="12.5279983"><ele>447.0</ele><time>2026-04-25T08:31:57.531Z</time></trkpt><trkpt lat="43.7817817" lon="12.5280467"><ele>447.0</ele><time>2026-04-25T08:31:58.531Z</time></trkpt><trkpt lat="43.78163" lon="12.5281017"><ele>447.0</ele><time>2026-04-25T08:31:59.531Z</time></trkpt><trkpt lat="43.7813333" lon="12.52823"><ele>447.0</ele><time>2026-04-25T08:32:01.531Z</time></trkpt><trkpt lat="43.7811867" lon="12.528315"><ele>447.0</ele><time>2026-04-25T08:32:02.531Z</time></trkpt><trkpt lat="43.7810383" lon="12.5283983"><ele>447.0</ele><time>2026-04-25T08:32:03.531Z</time></trkpt><trkpt lat="43.780895" lon="12.5284783"><ele>447.0</ele><time>2026-04-25T08:32:04.531Z</time></trkpt><trkpt lat="43.7807617" lon="12.528555"><ele>447.20000000000005</ele><time>2026-04-25T08:32:05.531Z</time></trkpt><trkpt lat="43.7806433" lon="12.5286267"><ele>447.40000000000003</ele><time>2026-04-25T08:32:06.531Z</time></trkpt><trkpt lat="43.7805333" lon="12.5286967"><ele>447.59999999999997</ele><time>2026-04-25T08:32:07.533Z</time></trkpt><trkpt lat="43.7804417" lon="12.5287717"><ele>447.79999999999995</ele><time>2026-04-25T08:32:08.53Z</time></trkpt><trkpt lat="43.7803683" lon="12.52885"><ele>448.0</ele><time>2026-04-25T08:32:09.532Z</time></trkpt><trkpt lat="43.7803067" lon="12.52894"><ele>448.0</ele><time>2026-04-25T08:32:10.534Z</time></trkpt><trkpt lat="43.7802517" lon="12.5290467"><ele>447.99999999999994</ele><time>2026-04-25T08:32:11.534Z</time></trkpt><trkpt lat="43.7802133" lon="12.529165"><ele>447.99999999999994</ele><time>2026-04-25T08:32:12.535Z</time></trkpt><trkpt lat="43.7801933" lon="12.5292883"><ele>448.0</ele><time>2026-04-25T08:32:13.534Z</time></trkpt><trkpt lat="43.7801817" lon="12.5293967"><ele>448.0</ele><time>2026-04-25T08:32:14.531Z</time></trkpt><trkpt lat="43.7801567" lon="12.5295333"><ele>445.59999999999997</ele><time>2026-04-25T08:32:16.531Z</time></trkpt><trkpt lat="43.7801667" lon="12.529635"><ele>443.19999999999993</ele><time>2026-04-25T08:32:18.532Z</time></trkpt><trkpt lat="43.7802267" lon="12.52973"><ele>440.8</ele><time>2026-04-25T08:32:20.534Z</time></trkpt><trkpt lat="43.7804" lon="12.5298683"><ele>438.4</ele><time>2026-04-25T08:32:24.535Z</time></trkpt><trkpt lat="43.7804767" lon="12.5298717"><ele>436.0</ele><time>2026-04-25T08:32:25.534Z</time></trkpt><trkpt lat="43.7805467" lon="12.529865"><ele>436.00000000000006</ele><time>2026-04-25T08:32:26.535Z</time></trkpt><trkpt lat="43.7806683" lon="12.5298383"><ele>436.0</ele><time>2026-04-25T08:32:28.531Z</time></trkpt><trkpt lat="43.7807933" lon="12.5298217"><ele>436.0</ele><time>2026-04-25T08:32:30.534Z</time></trkpt><trkpt lat="43.78086" lon="12.5298167"><ele>436.0</ele><time>2026-04-25T08:32:31.531Z</time></trkpt><trkpt lat="43.7809267" lon="12.5298183"><ele>436.00000000000006</ele><time>2026-04-25T08:32:32.53Z</time></trkpt><trkpt lat="43.78099" lon="12.5298367"><ele>436.0</ele><time>2026-04-25T08:32:33.534Z</time></trkpt><trkpt lat="43.7810533" lon="12.529865"><ele>437.00000000000006</ele><time>2026-04-25T08:32:34.534Z</time></trkpt><trkpt lat="43.781115" lon="12.5299067"><ele>438.0</ele><time>2026-04-25T08:32:35.53Z</time></trkpt><trkpt lat="43.7811733" lon="12.52996"><ele>439.0</ele><time>2026-04-25T08:32:36.532Z</time></trkpt><trkpt lat="43.78123" lon="12.5300233"><ele>440.0</ele><time>2026-04-25T08:32:37.531Z</time></trkpt><trkpt lat="43.7812833" lon="12.5300967"><ele>441.00000000000006</ele><time>2026-04-25T08:32:38.532Z</time></trkpt><trkpt lat="43.781335" lon="12.5301783"><ele>442.0</ele><time>2026-04-25T08:32:39.531Z</time></trkpt><trkpt lat="43.781385" lon="12.5302733"><ele>442.0</ele><time>2026-04-25T08:32:40.534Z</time></trkpt><trkpt lat="43.781425" lon="12.53038"><ele>442.0</ele><time>2026-04-25T08:32:41.534Z</time></trkpt><trkpt lat="43.781495" lon="12.5306267"><ele>442.0</ele><time>2026-04-25T08:32:43.534Z</time></trkpt><trkpt lat="43.7815283" lon="12.5307617"><ele>442.0</ele><time>2026-04-25T08:32:44.534Z</time></trkpt><trkpt lat="43.781555" lon="12.5308933"><ele>440.33333333333337</ele><time>2026-04-25T08:32:45.535Z</time></trkpt><trkpt lat="43.78158" lon="12.5310133"><ele>438.6666666666667</ele><time>2026-04-25T08:32:46.532Z</time></trkpt><trkpt lat="43.781605" lon="12.531125"><ele>437.0</ele><time>2026-04-25T08:32:47.531Z</time></trkpt><trkpt lat="43.781625" lon="12.5312333"><ele>435.33333333333337</ele><time>2026-04-25T08:32:48.534Z</time></trkpt><trkpt lat="43.7816433" lon="12.5313383"><ele>433.6666666666667</ele><time>2026-04-25T08:32:49.534Z</time></trkpt><trkpt lat="43.7816567" lon="12.5314433"><ele>432.0</ele><time>2026-04-25T08:32:50.535Z</time></trkpt><trkpt lat="43.781665" lon="12.5315583"><ele>430.6666666666667</ele><time>2026-04-25T08:32:51.534Z</time></trkpt><trkpt lat="43.7816717" lon="12.5316733"><ele>429.33333333333337</ele><time>2026-04-25T08:32:52.534Z</time></trkpt><trkpt lat="43.7816717" lon="12.531785"><ele>428.0</ele><time>2026-04-25T08:32:53.535Z</time></trkpt><trkpt lat="43.7816767" lon="12.5318933"><ele>426.6666666666667</ele><time>2026-04-25T08:32:54.532Z</time></trkpt><trkpt lat="43.781685" lon="12.5320017"><ele>425.33333333333337</ele><time>2026-04-25T08:32:55.535Z</time></trkpt><trkpt lat="43.781695" lon="12.53211"><ele>424.0</ele><time>2026-04-25T08:32:56.534Z</time></trkpt><trkpt lat="43.7817017" lon="12.5322183"><ele>423.6</ele><time>2026-04-25T08:32:57.53Z</time></trkpt><trkpt lat="43.7817067" lon="12.532325"><ele>423.2</ele><time>2026-04-25T08:32:58.531Z</time></trkpt><trkpt lat="43.78171" lon="12.53242"><ele>422.8</ele><time>2026-04-25T08:32:59.532Z</time></trkpt><trkpt lat="43.7817167" lon="12.5325833"><ele>422.40000000000003</ele><time>2026-04-25T08:33:01.533Z</time></trkpt><trkpt lat="43.78173" lon="12.5327317"><ele>422.0</ele><time>2026-04-25T08:33:03.531Z</time></trkpt><trkpt lat="43.7818233" lon="12.533"><ele>420.8333333333333</ele><time>2026-04-25T08:33:07.531Z</time></trkpt><trkpt lat="43.781885" lon="12.5331433"><ele>419.66666666666663</ele><time>2026-04-25T08:33:09.531Z</time></trkpt><trkpt lat="43.781905" lon="12.53323"><ele>418.5</ele><time>2026-04-25T08:33:10.532Z</time></trkpt><trkpt lat="43.7819133" lon="12.5333283"><ele>417.33333333333337</ele><time>2026-04-25T08:33:11.531Z</time></trkpt><trkpt lat="43.781905" lon="12.5334383"><ele>416.1666666666667</ele><time>2026-04-25T08:33:12.531Z</time></trkpt><trkpt lat="43.7818867" lon="12.533545"><ele>415.0</ele><time>2026-04-25T08:33:13.533Z</time></trkpt><trkpt lat="43.781855" lon="12.5336517"><ele>413.50000000000006</ele><time>2026-04-25T08:33:14.531Z</time></trkpt><trkpt lat="43.7818333" lon="12.5337617"><ele>412.0</ele><time>2026-04-25T08:33:15.535Z</time></trkpt><trkpt lat="43.7818183" lon="12.5338733"><ele>410.5</ele><time>2026-04-25T08:33:16.531Z</time></trkpt><trkpt lat="43.78182" lon="12.533995"><ele>409.0</ele><time>2026-04-25T08:33:17.532Z</time></trkpt><trkpt lat="43.7818283" lon="12.5341233"><ele>407.50000000000006</ele><time>2026-04-25T08:33:18.531Z</time></trkpt><trkpt lat="43.7818483" lon="12.5342617"><ele>406.0</ele><time>2026-04-25T08:33:19.534Z</time></trkpt><trkpt lat="43.7818817" lon="12.5344117"><ele>402.8</ele><time>2026-04-25T08:33:20.531Z</time></trkpt><trkpt lat="43.78192" lon="12.534565"><ele>399.6</ele><time>2026-04-25T08:33:21.532Z</time></trkpt><trkpt lat="43.781955" lon="12.534715"><ele>396.4</ele><time>2026-04-25T08:33:22.534Z</time></trkpt><trkpt lat="43.7819867" lon="12.53486"><ele>393.2</ele><time>2026-04-25T08:33:23.531Z</time></trkpt><trkpt lat="43.7820183" lon="12.535"><ele>390.0</ele><time>2026-04-25T08:33:24.531Z</time></trkpt><trkpt lat="43.7820783" lon="12.5352467"><ele>390.0</ele><time>2026-04-25T08:33:26.532Z</time></trkpt><trkpt lat="43.78211" lon="12.5353483"><ele>390.0</ele><time>2026-04-25T08:33:27.531Z</time></trkpt><trkpt lat="43.7821367" lon="12.5354417"><ele>390.0</ele><time>2026-04-25T08:33:28.532Z</time></trkpt><trkpt lat="43.7821267" lon="12.5356"><ele>390.0</ele><time>2026-04-25T08:33:30.532Z</time></trkpt><trkpt lat="43.7820833" lon="12.5356683"><ele>390.0</ele><time>2026-04-25T08:33:31.531Z</time></trkpt><trkpt lat="43.7820217" lon="12.5357333"><ele>390.0</ele><time>2026-04-25T08:33:32.531Z</time></trkpt><trkpt lat="43.7819467" lon="12.535805"><ele>391.4</ele><time>2026-04-25T08:33:33.531Z</time></trkpt><trkpt lat="43.7818717" lon="12.5358783"><ele>392.8</ele><time>2026-04-25T08:33:34.533Z</time></trkpt><trkpt lat="43.78179" lon="12.5359617"><ele>394.20000000000005</ele><time>2026-04-25T08:33:35.532Z</time></trkpt><trkpt lat="43.7817033" lon="12.5360433"><ele>395.6</ele><time>2026-04-25T08:33:36.533Z</time></trkpt><trkpt lat="43.781605" lon="12.53612"><ele>397.0</ele><time>2026-04-25T08:33:37.531Z</time></trkpt><trkpt lat="43.7815017" lon="12.536185"><ele>396.20000000000005</ele><time>2026-04-25T08:33:38.531Z</time></trkpt><trkpt lat="43.7814" lon="12.5362383"><ele>395.4</ele><time>2026-04-25T08:33:39.531Z</time></trkpt><trkpt lat="43.7812983" lon="12.53629"><ele>394.6</ele><time>2026-04-25T08:33:40.534Z</time></trkpt><trkpt lat="43.7811967" lon="12.5363467"><ele>393.79999999999995</ele><time>2026-04-25T08:33:41.53Z</time></trkpt><trkpt lat="43.7810917" lon="12.5364167"><ele>393.0</ele><time>2026-04-25T08:33:42.533Z</time></trkpt><trkpt lat="43.780985" lon="12.5364983"><ele>393.0</ele><time>2026-04-25T08:33:43.531Z</time></trkpt><trkpt lat="43.7808767" lon="12.5365817"><ele>393.0</ele><time>2026-04-25T08:33:44.532Z</time></trkpt><trkpt lat="43.7807683" lon="12.5366617"><ele>393.0</ele><time>2026-04-25T08:33:45.534Z</time></trkpt><trkpt lat="43.780535" lon="12.5368067"><ele>393.0</ele><time>2026-04-25T08:33:47.534Z</time></trkpt><trkpt lat="43.7804167" lon="12.5368733"><ele>393.0</ele><time>2026-04-25T08:33:48.532Z</time></trkpt><trkpt lat="43.7803017" lon="12.5369417"><ele>393.0</ele><time>2026-04-25T08:33:49.532Z</time></trkpt><trkpt lat="43.7801833" lon="12.536995"><ele>393.0</ele><time>2026-04-25T08:33:50.532Z</time></trkpt><trkpt lat="43.7800633" lon="12.5370233"><ele>389.25</ele><time>2026-04-25T08:33:51.531Z</time></trkpt><trkpt lat="43.7799467" lon="12.5370333"><ele>385.5</ele><time>2026-04-25T08:33:52.533Z</time></trkpt><trkpt lat="43.7798317" lon="12.53702"><ele>381.75</ele><time>2026-04-25T08:33:53.532Z</time></trkpt><trkpt lat="43.779715" lon="12.537"><ele>378.0</ele><time>2026-04-25T08:33:54.535Z</time></trkpt><trkpt lat="43.7796017" lon="12.5369767"><ele>378.0</ele><time>2026-04-25T08:33:55.535Z</time></trkpt><trkpt lat="43.7794933" lon="12.53697"><ele>378.0</ele><time>2026-04-25T08:33:56.534Z</time></trkpt><trkpt lat="43.7793833" lon="12.5369883"><ele>378.0</ele><time>2026-04-25T08:33:57.531Z</time></trkpt><trkpt lat="43.779275" lon="12.53703"><ele>378.0</ele><time>2026-04-25T08:33:58.534Z</time></trkpt><trkpt lat="43.779175" lon="12.5370883"><ele>378.0</ele><time>2026-04-25T08:33:59.531Z</time></trkpt><trkpt lat="43.7790833" lon="12.5371517"><ele>377.6666666666667</ele><time>2026-04-25T08:34:00.534Z</time></trkpt><trkpt lat="43.7790017" lon="12.5372117"><ele>377.3333333333333</ele><time>2026-04-25T08:34:01.532Z</time></trkpt><trkpt lat="43.7789267" lon="12.5372633"><ele>377.0</ele><time>2026-04-25T08:34:02.532Z</time></trkpt><trkpt lat="43.77886" lon="12.5373083"><ele>376.66666666666663</ele><time>2026-04-25T08:34:03.531Z</time></trkpt><trkpt lat="43.7788033" lon="12.53735"><ele>376.3333333333333</ele><time>2026-04-25T08:34:04.532Z</time></trkpt><trkpt lat="43.7787333" lon="12.5374617"><ele>376.0</ele><time>2026-04-25T08:34:06.532Z</time></trkpt><trkpt lat="43.7788117" lon="12.5377817"><ele>376.0</ele><time>2026-04-25T08:34:10.535Z</time></trkpt><trkpt lat="43.778855" lon="12.537885"><ele>376.0</ele><time>2026-04-25T08:34:11.53Z</time></trkpt><trkpt lat="43.77891" lon="12.537995"><ele>376.0</ele><time>2026-04-25T08:34:12.533Z</time></trkpt><trkpt lat="43.778965" lon="12.5381167"><ele>376.0</ele><time>2026-04-25T08:34:13.534Z</time></trkpt><trkpt lat="43.7790083" lon="12.5382533"><ele>376.0</ele><time>2026-04-25T08:34:14.533Z</time></trkpt><trkpt lat="43.7790383" lon="12.5383867"><ele>374.20000000000005</ele><time>2026-04-25T08:34:15.538Z</time></trkpt><trkpt lat="43.7790483" lon="12.538525"><ele>372.40000000000003</ele><time>2026-04-25T08:34:16.533Z</time></trkpt><trkpt lat="43.779045" lon="12.5386633"><ele>370.6</ele><time>2026-04-25T08:34:17.532Z</time></trkpt><trkpt lat="43.7790417" lon="12.5387833"><ele>368.8</ele><time>2026-04-25T08:34:18.533Z</time></trkpt><trkpt lat="43.7790467" lon="12.5388933"><ele>367.0</ele><time>2026-04-25T08:34:19.535Z</time></trkpt><trkpt lat="43.7790667" lon="12.539005"><ele>363.75</ele><time>2026-04-25T08:34:20.533Z</time></trkpt><trkpt lat="43.779105" lon="12.53912"><ele>360.5</ele><time>2026-04-25T08:34:21.533Z</time></trkpt><trkpt lat="43.779165" lon="12.539245"><ele>357.25</ele><time>2026-04-25T08:34:22.533Z</time></trkpt><trkpt lat="43.7792417" lon="12.5393817"><ele>354.0</ele><time>2026-04-25T08:34:23.535Z</time></trkpt><trkpt lat="43.7793183" lon="12.5395267"><ele>353.25</ele><time>2026-04-25T08:34:24.534Z</time></trkpt><trkpt lat="43.7793833" lon="12.5396817"><ele>352.5</ele><time>2026-04-25T08:34:25.536Z</time></trkpt><trkpt lat="43.77944" lon="12.5398433"><ele>351.75</ele><time>2026-04-25T08:34:26.534Z</time></trkpt><trkpt lat="43.779505" lon="12.54001"><ele>351.0</ele><time>2026-04-25T08:34:27.534Z</time></trkpt><trkpt lat="43.7796133" lon="12.54032"><ele>349.25</ele><time>2026-04-25T08:34:29.53Z</time></trkpt><trkpt lat="43.7796783" lon="12.540475"><ele>347.5</ele><time>2026-04-25T08:34:30.534Z</time></trkpt><trkpt lat="43.779745" lon="12.540635"><ele>345.75</ele><time>2026-04-25T08:34:31.533Z</time></trkpt><trkpt lat="43.7797983" lon="12.5407917"><ele>344.0</ele><time>2026-04-25T08:34:32.532Z</time></trkpt><trkpt lat="43.7798383" lon="12.5409417"><ele>344.0</ele><time>2026-04-25T08:34:33.533Z</time></trkpt><trkpt lat="43.7798733" lon="12.5410917"><ele>344.0</ele><time>2026-04-25T08:34:34.533Z</time></trkpt><trkpt lat="43.7799067" lon="12.54124"><ele>344.0</ele><time>2026-04-25T08:34:35.532Z</time></trkpt><trkpt lat="43.7799517" lon="12.54139"><ele>344.0</ele><time>2026-04-25T08:34:36.533Z</time></trkpt><trkpt lat="43.7799967" lon="12.5415433"><ele>344.5</ele><time>2026-04-25T08:34:37.533Z</time></trkpt><trkpt lat="43.7800367" lon="12.541705"><ele>345.0</ele><time>2026-04-25T08:34:38.532Z</time></trkpt><trkpt lat="43.7800633" lon="12.5418733"><ele>345.5</ele><time>2026-04-25T08:34:39.533Z</time></trkpt><trkpt lat="43.7800717" lon="12.5420317"><ele>346.0</ele><time>2026-04-25T08:34:40.533Z</time></trkpt><trkpt lat="43.78006" lon="12.5421783"><ele>347.0</ele><time>2026-04-25T08:34:41.533Z</time></trkpt><trkpt lat="43.780015" lon="12.5422983"><ele>348.0</ele><time>2026-04-25T08:34:42.533Z</time></trkpt><trkpt lat="43.77996" lon="12.5423983"><ele>349.0</ele><time>2026-04-25T08:34:43.533Z</time></trkpt><trkpt lat="43.7798867" lon="12.542475"><ele>350.0</ele><time>2026-04-25T08:34:44.532Z</time></trkpt><trkpt lat="43.7797967" lon="12.5425383"><ele>351.0</ele><time>2026-04-25T08:34:45.534Z</time></trkpt><trkpt lat="43.77971" lon="12.542585"><ele>351.0</ele><time>2026-04-25T08:34:46.534Z</time></trkpt><trkpt lat="43.7796367" lon="12.5426267"><ele>351.0</ele><time>2026-04-25T08:34:47.533Z</time></trkpt><trkpt lat="43.7795683" lon="12.5426617"><ele>351.0</ele><time>2026-04-25T08:34:48.533Z</time></trkpt><trkpt lat="43.7794067" lon="12.5427533"><ele>351.0</ele><time>2026-04-25T08:34:51.535Z</time></trkpt><trkpt lat="43.7793383" lon="12.5428033"><ele>351.0</ele><time>2026-04-25T08:34:54.534Z</time></trkpt><trkpt lat="43.7792667" lon="12.5427883"><ele>347.25</ele><time>2026-04-25T08:35:52.534Z</time></trkpt><trkpt lat="43.7791067" lon="12.542735"><ele>343.5</ele><time>2026-04-25T08:35:56.534Z</time></trkpt><trkpt lat="43.779015" lon="12.54268"><ele>339.75</ele><time>2026-04-25T08:35:58.531Z</time></trkpt><trkpt lat="43.7789317" lon="12.5426283"><ele>336.0</ele><time>2026-04-25T08:36:00.535Z</time></trkpt><trkpt lat="43.7788133" lon="12.5426083"><ele>336.0</ele><time>2026-04-25T08:36:02.534Z</time></trkpt><trkpt lat="43.77875" lon="12.54261"><ele>336.0</ele><time>2026-04-25T08:36:03.534Z</time></trkpt><trkpt lat="43.7786817" lon="12.5426183"><ele>336.0</ele><time>2026-04-25T08:36:04.535Z</time></trkpt><trkpt lat="43.77861" lon="12.5426283"><ele>336.0</ele><time>2026-04-25T08:36:05.535Z</time></trkpt><trkpt lat="43.7785383" lon="12.5426433"><ele>336.0</ele><time>2026-04-25T08:36:06.534Z</time></trkpt><trkpt lat="43.7784633" lon="12.54267"><ele>336.0</ele><time>2026-04-25T08:36:07.531Z</time></trkpt><trkpt lat="43.7783933" lon="12.5427117"><ele>336.0</ele><time>2026-04-25T08:36:08.532Z</time></trkpt><trkpt lat="43.7783217" lon="12.5427683"><ele>335.0</ele><time>2026-04-25T08:36:09.532Z</time></trkpt><trkpt lat="43.7782467" lon="12.5428317"><ele>334.0</ele><time>2026-04-25T08:36:10.534Z</time></trkpt><trkpt lat="43.7781667" lon="12.5429"><ele>333.0</ele><time>2026-04-25T08:36:11.534Z</time></trkpt><trkpt lat="43.77808" lon="12.5429667"><ele>332.0</ele><time>2026-04-25T08:36:12.533Z</time></trkpt><trkpt lat="43.7779967" lon="12.5430333"><ele>331.0</ele><time>2026-04-25T08:36:13.533Z</time></trkpt><trkpt lat="43.777835" lon="12.543165"><ele>331.0</ele><time>2026-04-25T08:36:15.533Z</time></trkpt><trkpt lat="43.7777617" lon="12.5432333"><ele>331.0</ele><time>2026-04-25T08:36:16.534Z</time></trkpt><trkpt lat="43.7776967" lon="12.5433"><ele>331.0</ele><time>2026-04-25T08:36:17.534Z</time></trkpt><trkpt lat="43.7776367" lon="12.543355"><ele>331.0</ele><time>2026-04-25T08:36:18.537Z</time></trkpt><trkpt lat="43.777575" lon="12.543435"><ele>331.0</ele><time>2026-04-25T08:36:20.534Z</time></trkpt><trkpt lat="43.7776033" lon="12.543545"><ele>331.0</ele><time>2026-04-25T08:36:23.534Z</time></trkpt><trkpt lat="43.7776433" lon="12.5436217"><ele>329.8333333333333</ele><time>2026-04-25T08:36:26.534Z</time></trkpt><trkpt lat="43.77768" lon="12.5437117"><ele>328.66666666666663</ele><time>2026-04-25T08:36:29.534Z</time></trkpt><trkpt lat="43.777705" lon="12.5438167"><ele>327.5</ele><time>2026-04-25T08:36:33.534Z</time></trkpt><trkpt lat="43.7776533" lon="12.54388"><ele>326.3333333333333</ele><time>2026-04-25T08:36:37.532Z</time></trkpt><trkpt lat="43.7775083" lon="12.5439117"><ele>325.1666666666667</ele><time>2026-04-25T08:36:41.538Z</time></trkpt><trkpt lat="43.77744" lon="12.5439233"><ele>324.0</ele><time>2026-04-25T08:36:43.532Z</time></trkpt><trkpt lat="43.777375" lon="12.5438717"><ele>322.25</ele><time>2026-04-25T08:36:56.534Z</time></trkpt><trkpt lat="43.7772967" lon="12.5437983"><ele>320.5</ele><time>2026-04-25T08:36:59.531Z</time></trkpt><trkpt lat="43.77711" lon="12.5438533"><ele>318.75</ele><time>2026-04-25T08:37:03.534Z</time></trkpt><trkpt lat="43.77705" lon="12.5438817"><ele>317.0</ele><time>2026-04-25T08:37:04.535Z</time></trkpt><trkpt lat="43.7769417" lon="12.543945"><ele>317.0</ele><time>2026-04-25T08:37:06.534Z</time></trkpt><trkpt lat="43.7768567" lon="12.5440283"><ele>317.0</ele><time>2026-04-25T08:37:08.536Z</time></trkpt><trkpt lat="43.7767883" lon="12.5441633"><ele>317.0</ele><time>2026-04-25T08:37:10.534Z</time></trkpt><trkpt lat="43.776755" lon="12.54425"><ele>317.0</ele><time>2026-04-25T08:37:11.534Z</time></trkpt><trkpt lat="43.77671" lon="12.5443417"><ele>317.0</ele><time>2026-04-25T08:37:12.535Z</time></trkpt><trkpt lat="43.7766583" lon="12.54443"><ele>313.4</ele><time>2026-04-25T08:37:13.534Z</time></trkpt><trkpt lat="43.7766" lon="12.54452"><ele>309.79999999999995</ele><time>2026-04-25T08:37:14.534Z</time></trkpt><trkpt lat="43.776535" lon="12.5446183"><ele>306.2</ele><time>2026-04-25T08:37:15.534Z</time></trkpt><trkpt lat="43.77647" lon="12.5447183"><ele>302.59999999999997</ele><time>2026-04-25T08:37:16.534Z</time></trkpt><trkpt lat="43.7764" lon="12.544815"><ele>299.0</ele><time>2026-04-25T08:37:17.533Z</time></trkpt><trkpt lat="43.7763283" lon="12.5449083"><ele>298.5</ele><time>2026-04-25T08:37:18.534Z</time></trkpt><trkpt lat="43.7762533" lon="12.545"><ele>298.0</ele><time>2026-04-25T08:37:19.534Z</time></trkpt><trkpt lat="43.776185" lon="12.5450933"><ele>297.5</ele><time>2026-04-25T08:37:20.534Z</time></trkpt><trkpt lat="43.7760267" lon="12.54525"><ele>297.0</ele><time>2026-04-25T08:37:22.534Z</time></trkpt><trkpt lat="43.7759417" lon="12.54531"><ele>295.1666666666667</ele><time>2026-04-25T08:37:23.535Z</time></trkpt><trkpt lat="43.77586" lon="12.5453633"><ele>293.3333333333333</ele><time>2026-04-25T08:37:24.535Z</time></trkpt><trkpt lat="43.7757817" lon="12.54541"><ele>291.5</ele><time>2026-04-25T08:37:25.534Z</time></trkpt><trkpt lat="43.775705" lon="12.5454617"><ele>289.66666666666663</ele><time>2026-04-25T08:37:26.535Z</time></trkpt><trkpt lat="43.77563" lon="12.5455133"><ele>287.8333333333333</ele><time>2026-04-25T08:37:27.535Z</time></trkpt><trkpt lat="43.77556" lon="12.5455717"><ele>286.0</ele><time>2026-04-25T08:37:28.536Z</time></trkpt><trkpt lat="43.7754933" lon="12.54564"><ele>286.0</ele><time>2026-04-25T08:37:29.534Z</time></trkpt><trkpt lat="43.7754333" lon="12.54571"><ele>286.0</ele><time>2026-04-25T08:37:30.534Z</time></trkpt><trkpt lat="43.7753767" lon="12.54579"><ele>286.0</ele><time>2026-04-25T08:37:31.534Z</time></trkpt><trkpt lat="43.7753267" lon="12.5458767"><ele>286.0</ele><time>2026-04-25T08:37:32.535Z</time></trkpt><trkpt lat="43.7752833" lon="12.5459717"><ele>286.0</ele><time>2026-04-25T08:37:33.534Z</time></trkpt><trkpt lat="43.7752417" lon="12.54608"><ele>286.0</ele><time>2026-04-25T08:37:34.531Z</time></trkpt><trkpt lat="43.7752017" lon="12.5461867"><ele>282.16666666666663</ele><time>2026-04-25T08:37:35.535Z</time></trkpt><trkpt lat="43.77516" lon="12.5462967"><ele>278.3333333333333</ele><time>2026-04-25T08:37:36.536Z</time></trkpt><trkpt lat="43.7751217" lon="12.5463983"><ele>274.5</ele><time>2026-04-25T08:37:37.536Z</time></trkpt><trkpt lat="43.7750733" lon="12.5465067"><ele>270.6666666666667</ele><time>2026-04-25T08:37:38.534Z</time></trkpt><trkpt lat="43.7750183" lon="12.5466017"><ele>266.83333333333337</ele><time>2026-04-25T08:37:39.534Z</time></trkpt><trkpt lat="43.774955" lon="12.54669"><ele>263.0</ele><time>2026-04-25T08:37:40.535Z</time></trkpt><trkpt lat="43.7748983" lon="12.546775"><ele>263.0</ele><time>2026-04-25T08:37:41.535Z</time></trkpt><trkpt lat="43.7747917" lon="12.54692"><ele>263.0</ele><time>2026-04-25T08:37:43.535Z</time></trkpt><trkpt lat="43.7747533" lon="12.5470017"><ele>263.0</ele><time>2026-04-25T08:37:44.535Z</time></trkpt><trkpt lat="43.7747267" lon="12.5470867"><ele>263.0</ele><time>2026-04-25T08:37:45.534Z</time></trkpt><trkpt lat="43.7746783" lon="12.5472333"><ele>263.0</ele><time>2026-04-25T08:37:47.535Z</time></trkpt><trkpt lat="43.7745833" lon="12.5473367"><ele>261.0</ele><time>2026-04-25T08:37:49.535Z</time></trkpt><trkpt lat="43.7745117" lon="12.547355"><ele>259.0</ele><time>2026-04-25T08:37:50.534Z</time></trkpt><trkpt lat="43.7744417" lon="12.54736"><ele>257.0</ele><time>2026-04-25T08:37:51.534Z</time></trkpt><trkpt lat="43.77437" lon="12.54735"><ele>255.0</ele><time>2026-04-25T08:37:52.534Z</time></trkpt><trkpt lat="43.7742967" lon="12.5473333"><ele>252.99999999999997</ele><time>2026-04-25T08:37:53.535Z</time></trkpt><trkpt lat="43.7742317" lon="12.5473083"><ele>251.0</ele><time>2026-04-25T08:37:54.536Z</time></trkpt><trkpt lat="43.7741667" lon="12.5472767"><ele>249.0</ele><time>2026-04-25T08:37:55.535Z</time></trkpt><trkpt lat="43.7741117" lon="12.5472233"><ele>246.33333333333334</ele><time>2026-04-25T08:37:56.535Z</time></trkpt><trkpt lat="43.77406" lon="12.5471567"><ele>243.66666666666669</ele><time>2026-04-25T08:37:57.535Z</time></trkpt><trkpt lat="43.7740133" lon="12.54708"><ele>241.0</ele><time>2026-04-25T08:37:58.532Z</time></trkpt><trkpt lat="43.7739817" lon="12.5469983"><ele>238.33333333333334</ele><time>2026-04-25T08:37:59.535Z</time></trkpt><trkpt lat="43.7739583" lon="12.5468267"><ele>235.66666666666669</ele><time>2026-04-25T08:38:01.536Z</time></trkpt><trkpt lat="43.77395" lon="12.5466867"><ele>233.0</ele><time>2026-04-25T08:38:03.533Z</time></trkpt><trkpt lat="43.7738483" lon="12.5466033"><ele>233.0</ele><time>2026-04-25T08:38:07.532Z</time></trkpt><trkpt lat="43.7737817" lon="12.5466267"><ele>233.0</ele><time>2026-04-25T08:38:08.534Z</time></trkpt><trkpt lat="43.773675" lon="12.54667"><ele>233.0</ele><time>2026-04-25T08:38:09.535Z</time></trkpt><trkpt lat="43.7735733" lon="12.546705"><ele>233.0</ele><time>2026-04-25T08:38:10.535Z</time></trkpt><trkpt lat="43.77347" lon="12.54674"><ele>233.0</ele><time>2026-04-25T08:38:11.536Z</time></trkpt><trkpt lat="43.7733783" lon="12.5467717"><ele>229.33333333333334</ele><time>2026-04-25T08:38:12.535Z</time></trkpt><trkpt lat="43.7733017" lon="12.5468067"><ele>225.66666666666669</ele><time>2026-04-25T08:38:13.536Z</time></trkpt><trkpt lat="43.7732317" lon="12.546855"><ele>222.0</ele><time>2026-04-25T08:38:14.535Z</time></trkpt><trkpt lat="43.7731767" lon="12.5469217"><ele>218.33333333333331</ele><time>2026-04-25T08:38:15.535Z</time></trkpt><trkpt lat="43.773135" lon="12.5470017"><ele>214.66666666666666</ele><time>2026-04-25T08:38:16.535Z</time></trkpt><trkpt lat="43.7731" lon="12.5470933"><ele>211.0</ele><time>2026-04-25T08:38:17.534Z</time></trkpt><trkpt lat="43.7730717" lon="12.5471967"><ele>211.0</ele><time>2026-04-25T08:38:18.536Z</time></trkpt><trkpt lat="43.773055" lon="12.5472983"><ele>211.0</ele><time>2026-04-25T08:38:19.532Z</time></trkpt><trkpt lat="43.7730483" lon="12.5474"><ele>211.0</ele><time>2026-04-25T08:38:20.531Z</time></trkpt><trkpt lat="43.7730417" lon="12.5475"><ele>211.0</ele><time>2026-04-25T08:38:21.535Z</time></trkpt><trkpt lat="43.7730267" lon="12.547595"><ele>211.0</ele><time>2026-04-25T08:38:22.534Z</time></trkpt><trkpt lat="43.7730017" lon="12.5476867"><ele>211.0</ele><time>2026-04-25T08:38:23.535Z</time></trkpt><trkpt lat="43.7729717" lon="12.5477667"><ele>211.0</ele><time>2026-04-25T08:38:24.534Z</time></trkpt><trkpt lat="43.7728867" lon="12.54791"><ele>209.49999999999997</ele><time>2026-04-25T08:38:26.534Z</time></trkpt><trkpt lat="43.7727783" lon="12.5480033"><ele>208.0</ele><time>2026-04-25T08:38:28.535Z</time></trkpt><trkpt lat="43.7727067" lon="12.5480333"><ele>206.5</ele><time>2026-04-25T08:38:29.536Z</time></trkpt><trkpt lat="43.7726333" lon="12.5480417"><ele>205.0</ele><time>2026-04-25T08:38:30.534Z</time></trkpt><trkpt lat="43.772555" lon="12.5480367"><ele>203.49999999999997</ele><time>2026-04-25T08:38:31.535Z</time></trkpt><trkpt lat="43.7724717" lon="12.54803"><ele>202.0</ele><time>2026-04-25T08:38:32.535Z</time></trkpt><trkpt lat="43.7723867" lon="12.5480283"><ele>200.83333333333331</ele><time>2026-04-25T08:38:33.535Z</time></trkpt><trkpt lat="43.7723017" lon="12.5480417"><ele>199.66666666666666</ele><time>2026-04-25T08:38:34.535Z</time></trkpt><trkpt lat="43.7722233" lon="12.5480733"><ele>198.5</ele><time>2026-04-25T08:38:35.536Z</time></trkpt><trkpt lat="43.7721483" lon="12.548125"><ele>197.33333333333331</ele><time>2026-04-25T08:38:36.531Z</time></trkpt><trkpt lat="43.7720833" lon="12.5481767"><ele>196.16666666666666</ele><time>2026-04-25T08:38:37.536Z</time></trkpt><trkpt lat="43.7719883" lon="12.548245"><ele>195.0</ele><time>2026-04-25T08:38:39.535Z</time></trkpt><trkpt lat="43.7719267" lon="12.5483"><ele>195.0</ele><time>2026-04-25T08:38:41.536Z</time></trkpt><trkpt lat="43.7718717" lon="12.5483517"><ele>195.0</ele><time>2026-04-25T08:38:43.536Z</time></trkpt><trkpt lat="43.77181" lon="12.5484417"><ele>195.0</ele><time>2026-04-25T08:38:45.534Z</time></trkpt><trkpt lat="43.7716467" lon="12.548605"><ele>195.0</ele><time>2026-04-25T08:38:48.536Z</time></trkpt><trkpt lat="43.7715733" lon="12.548675"><ele>195.0</ele><time>2026-04-25T08:38:49.534Z</time></trkpt><trkpt lat="43.7715" lon="12.5487483"><ele>193.6</ele><time>2026-04-25T08:38:50.532Z</time></trkpt><trkpt lat="43.7714183" lon="12.5488333"><ele>192.2</ele><time>2026-04-25T08:38:51.535Z</time></trkpt><trkpt lat="43.77134" lon="12.5489183"><ele>190.8</ele><time>2026-04-25T08:38:52.533Z</time></trkpt><trkpt lat="43.7712617" lon="12.5489983"><ele>189.4</ele><time>2026-04-25T08:38:53.535Z</time></trkpt><trkpt lat="43.771185" lon="12.5490733"><ele>188.0</ele><time>2026-04-25T08:38:54.534Z</time></trkpt><trkpt lat="43.7711217" lon="12.54914"><ele>188.0</ele><time>2026-04-25T08:38:55.535Z</time></trkpt><trkpt lat="43.7710433" lon="12.5492267"><ele>188.0</ele><time>2026-04-25T08:38:57.535Z</time></trkpt><trkpt lat="43.770985" lon="12.54926"><ele>188.0</ele><time>2026-04-25T08:38:59.534Z</time></trkpt><trkpt lat="43.7709567" lon="12.5493383"><ele>188.0</ele><time>2026-04-25T08:40:39.534Z</time></trkpt><trkpt lat="43.7708217" lon="12.5493283"><ele>188.0</ele><time>2026-04-25T08:40:50.531Z</time></trkpt><trkpt lat="43.7707417" lon="12.54933"><ele>188.0</ele><time>2026-04-25T08:40:52.531Z</time></trkpt><trkpt lat="43.7706283" lon="12.5493383"><ele>187.60000000000002</ele><time>2026-04-25T08:40:54.533Z</time></trkpt><trkpt lat="43.7705567" lon="12.5493367"><ele>187.20000000000002</ele><time>2026-04-25T08:40:55.532Z</time></trkpt><trkpt lat="43.7704567" lon="12.5493533"><ele>186.8</ele><time>2026-04-25T08:40:56.532Z</time></trkpt><trkpt lat="43.7703567" lon="12.54938"><ele>186.4</ele><time>2026-04-25T08:40:57.531Z</time></trkpt><trkpt lat="43.7702517" lon="12.5494317"><ele>186.0</ele><time>2026-04-25T08:40:58.534Z</time></trkpt><trkpt lat="43.7701633" lon="12.549505"><ele>187.75</ele><time>2026-04-25T08:40:59.534Z</time></trkpt><trkpt lat="43.7700717" lon="12.5495817"><ele>189.5</ele><time>2026-04-25T08:41:00.534Z</time></trkpt><trkpt lat="43.769925" lon="12.5496633"><ele>191.25</ele><time>2026-04-25T08:41:02.534Z</time></trkpt><trkpt lat="43.7698267" lon="12.5496283"><ele>193.0</ele><time>2026-04-25T08:41:04.534Z</time></trkpt><trkpt lat="43.7697717" lon="12.54947"><ele>192.99999999999997</ele><time>2026-04-25T08:41:06.533Z</time></trkpt><trkpt lat="43.7697633" lon="12.5493517"><ele>193.0</ele><time>2026-04-25T08:41:07.534Z</time></trkpt><trkpt lat="43.7697517" lon="12.5492383"><ele>193.0</ele><time>2026-04-25T08:41:08.535Z</time></trkpt><trkpt lat="43.7697367" lon="12.5491383"><ele>193.0</ele><time>2026-04-25T08:41:09.533Z</time></trkpt><trkpt lat="43.7697167" lon="12.549035"><ele>192.99999999999997</ele><time>2026-04-25T08:41:10.534Z</time></trkpt><trkpt lat="43.7696883" lon="12.54894"><ele>193.0</ele><time>2026-04-25T08:41:11.533Z</time></trkpt><trkpt lat="43.769655" lon="12.5488483"><ele>192.99999999999997</ele><time>2026-04-25T08:41:12.534Z</time></trkpt><trkpt lat="43.7696133" lon="12.5487667"><ele>193.0</ele><time>2026-04-25T08:41:13.534Z</time></trkpt><trkpt lat="43.7695567" lon="12.5487"><ele>193.0</ele><time>2026-04-25T08:41:14.535Z</time></trkpt><trkpt lat="43.7694817" lon="12.548645"><ele>193.0</ele><time>2026-04-25T08:41:15.534Z</time></trkpt><trkpt lat="43.7693917" lon="12.5485933"><ele>192.99999999999997</ele><time>2026-04-25T08:41:16.531Z</time></trkpt><trkpt lat="43.7692817" lon="12.5485583"><ele>193.0</ele><time>2026-04-25T08:41:17.531Z</time></trkpt><trkpt lat="43.7691667" lon="12.5485283"><ele>196.5</ele><time>2026-04-25T08:41:18.531Z</time></trkpt><trkpt lat="43.76905" lon="12.5485"><ele>200.0</ele><time>2026-04-25T08:41:19.531Z</time></trkpt><trkpt lat="43.7689267" lon="12.5484617"><ele>203.5</ele><time>2026-04-25T08:41:20.533Z</time></trkpt><trkpt lat="43.7687883" lon="12.5484"><ele>207.0</ele><time>2026-04-25T08:41:21.531Z</time></trkpt><trkpt lat="43.7685167" lon="12.5482083"><ele>207.0</ele><time>2026-04-25T08:41:23.535Z</time></trkpt><trkpt lat="43.7683967" lon="12.5481017"><ele>207.0</ele><time>2026-04-25T08:41:24.535Z</time></trkpt><trkpt lat="43.76827" lon="12.548015"><ele>207.0</ele><time>2026-04-25T08:41:25.534Z</time></trkpt><trkpt lat="43.7681417" lon="12.5479417"><ele>207.0</ele><time>2026-04-25T08:41:26.534Z</time></trkpt><trkpt lat="43.768015" lon="12.54787"><ele>208.0</ele><time>2026-04-25T08:41:27.534Z</time></trkpt><trkpt lat="43.7679033" lon="12.5478017"><ele>209.0</ele><time>2026-04-25T08:41:28.531Z</time></trkpt><trkpt lat="43.7678133" lon="12.5477367"><ele>210.0</ele><time>2026-04-25T08:41:29.534Z</time></trkpt><trkpt lat="43.7677483" lon="12.5476667"><ele>211.0</ele><time>2026-04-25T08:41:30.534Z</time></trkpt><trkpt lat="43.7677" lon="12.5476017"><ele>212.0</ele><time>2026-04-25T08:41:31.535Z</time></trkpt><trkpt lat="43.7676317" lon="12.54753"><ele>212.0</ele><time>2026-04-25T08:41:33.535Z</time></trkpt><trkpt lat="43.767525" lon="12.54751"><ele>212.0</ele><time>2026-04-25T08:41:35.535Z</time></trkpt><trkpt lat="43.7674567" lon="12.54749"><ele>212.0</ele><time>2026-04-25T08:41:36.535Z</time></trkpt><trkpt lat="43.7673683" lon="12.547455"><ele>212.0</ele><time>2026-04-25T08:41:37.534Z</time></trkpt><trkpt lat="43.7672667" lon="12.5474167"><ele>212.0</ele><time>2026-04-25T08:41:38.535Z</time></trkpt><trkpt lat="43.7671583" lon="12.5473817"><ele>212.0</ele><time>2026-04-25T08:41:39.534Z</time></trkpt><trkpt lat="43.7670483" lon="12.547375"><ele>212.0</ele><time>2026-04-25T08:41:40.535Z</time></trkpt><trkpt lat="43.7669417" lon="12.5473917"><ele>212.0</ele><time>2026-04-25T08:41:41.535Z</time></trkpt><trkpt lat="43.7668433" lon="12.5474167"><ele>212.0</ele><time>2026-04-25T08:41:42.535Z</time></trkpt><trkpt lat="43.76664" lon="12.5474833"><ele>209.75</ele><time>2026-04-25T08:41:44.536Z</time></trkpt><trkpt lat="43.7665283" lon="12.5475267"><ele>207.5</ele><time>2026-04-25T08:41:45.534Z</time></trkpt><trkpt lat="43.7664133" lon="12.5475783"><ele>205.25</ele><time>2026-04-25T08:41:46.531Z</time></trkpt><trkpt lat="43.7662917" lon="12.5476417"><ele>203.0</ele><time>2026-04-25T08:41:47.531Z</time></trkpt><trkpt lat="43.7661733" lon="12.5477133"><ele>203.0</ele><time>2026-04-25T08:41:48.531Z</time></trkpt><trkpt lat="43.7660583" lon="12.5477967"><ele>203.0</ele><time>2026-04-25T08:41:49.532Z</time></trkpt><trkpt lat="43.7659483" lon="12.5478867"><ele>203.0</ele><time>2026-04-25T08:41:50.531Z</time></trkpt><trkpt lat="43.7658433" lon="12.5479717"><ele>203.0</ele><time>2026-04-25T08:41:51.531Z</time></trkpt><trkpt lat="43.7657367" lon="12.5480417"><ele>199.0</ele><time>2026-04-25T08:41:52.532Z</time></trkpt><trkpt lat="43.765625" lon="12.5480933"><ele>195.0</ele><time>2026-04-25T08:41:53.535Z</time></trkpt><trkpt lat="43.7654917" lon="12.5481317"><ele>191.0</ele><time>2026-04-25T08:41:54.534Z</time></trkpt><trkpt lat="43.765355" lon="12.5481533"><ele>187.0</ele><time>2026-04-25T08:41:55.534Z</time></trkpt><trkpt lat="43.765215" lon="12.5481733"><ele>187.5</ele><time>2026-04-25T08:41:56.534Z</time></trkpt><trkpt lat="43.76508" lon="12.5481883"><ele>188.0</ele><time>2026-04-25T08:41:57.533Z</time></trkpt><trkpt lat="43.76495" lon="12.5482017"><ele>188.5</ele><time>2026-04-25T08:41:58.534Z</time></trkpt><trkpt lat="43.7648267" lon="12.5482117"><ele>189.0</ele><time>2026-04-25T08:41:59.532Z</time></trkpt><trkpt lat="43.7647133" lon="12.5482117"><ele>189.0</ele><time>2026-04-25T08:42:00.532Z</time></trkpt><trkpt lat="43.7646017" lon="12.5481967"><ele>189.0</ele><time>2026-04-25T08:42:01.532Z</time></trkpt><trkpt lat="43.7644867" lon="12.548155"><ele>189.0</ele><time>2026-04-25T08:42:02.531Z</time></trkpt><trkpt lat="43.7643717" lon="12.54809"><ele>189.0</ele><time>2026-04-25T08:42:03.531Z</time></trkpt><trkpt lat="43.76414" lon="12.5479267"><ele>188.5</ele><time>2026-04-25T08:42:05.531Z</time></trkpt><trkpt lat="43.76402" lon="12.5478317"><ele>188.0</ele><time>2026-04-25T08:42:06.533Z</time></trkpt><trkpt lat="43.7638933" lon="12.547735"><ele>187.5</ele><time>2026-04-25T08:42:07.531Z</time></trkpt><trkpt lat="43.7637617" lon="12.5476417"><ele>187.0</ele><time>2026-04-25T08:42:08.533Z</time></trkpt><trkpt lat="43.7636267" lon="12.5475417"><ele>188.66666666666669</ele><time>2026-04-25T08:42:09.531Z</time></trkpt><trkpt lat="43.76349" lon="12.5474533"><ele>190.33333333333334</ele><time>2026-04-25T08:42:10.531Z</time></trkpt><trkpt lat="43.7633433" lon="12.5473783"><ele>192.0</ele><time>2026-04-25T08:42:11.532Z</time></trkpt><trkpt lat="43.7631783" lon="12.5473117"><ele>192.0</ele><time>2026-04-25T08:42:12.532Z</time></trkpt><trkpt lat="43.7630133" lon="12.54724"><ele>192.0</ele><time>2026-04-25T08:42:13.531Z</time></trkpt><trkpt lat="43.7628733" lon="12.5471483"><ele>192.0</ele><time>2026-04-25T08:42:14.534Z</time></trkpt><trkpt lat="43.7627517" lon="12.5470283"><ele>195.25</ele><time>2026-04-25T08:42:15.534Z</time></trkpt><trkpt lat="43.7626367" lon="12.5469033"><ele>198.5</ele><time>2026-04-25T08:42:16.534Z</time></trkpt><trkpt lat="43.7625283" lon="12.5468"><ele>201.75</ele><time>2026-04-25T08:42:17.531Z</time></trkpt><trkpt lat="43.7624167" lon="12.5467333"><ele>205.0</ele><time>2026-04-25T08:42:18.531Z</time></trkpt><trkpt lat="43.7623183" lon="12.54669"><ele>205.0</ele><time>2026-04-25T08:42:19.531Z</time></trkpt><trkpt lat="43.7622483" lon="12.5466583"><ele>205.0</ele><time>2026-04-25T08:42:20.534Z</time></trkpt><trkpt lat="43.76217" lon="12.5465767"><ele>205.0</ele><time>2026-04-25T08:42:22.534Z</time></trkpt><trkpt lat="43.7621267" lon="12.5463917"><ele>205.0</ele><time>2026-04-25T08:42:24.534Z</time></trkpt><trkpt lat="43.7620933" lon="12.546065"><ele>206.5</ele><time>2026-04-25T08:42:26.534Z</time></trkpt><trkpt lat="43.76206" lon="12.5458983"><ele>208.0</ele><time>2026-04-25T08:42:27.534Z</time></trkpt><trkpt lat="43.7620133" lon="12.5457317"><ele>209.5</ele><time>2026-04-25T08:42:28.534Z</time></trkpt><trkpt lat="43.7619383" lon="12.545565"><ele>211.0</ele><time>2026-04-25T08:42:29.534Z</time></trkpt><trkpt lat="43.7618483" lon="12.54538"><ele>208.66666666666666</ele><time>2026-04-25T08:42:30.534Z</time></trkpt><trkpt lat="43.761755" lon="12.54518"><ele>206.33333333333331</ele><time>2026-04-25T08:42:31.534Z</time></trkpt><trkpt lat="43.7616567" lon="12.5449767"><ele>204.0</ele><time>2026-04-25T08:42:32.534Z</time></trkpt><trkpt lat="43.7615533" lon="12.5447817"><ele>204.0</ele><time>2026-04-25T08:42:33.534Z</time></trkpt><trkpt lat="43.76145" lon="12.54459"><ele>204.0</ele><time>2026-04-25T08:42:34.534Z</time></trkpt><trkpt lat="43.7613467" lon="12.5443983"><ele>204.0</ele><time>2026-04-25T08:42:35.535Z</time></trkpt><trkpt lat="43.76125" lon="12.5442167"><ele>203.66666666666669</ele><time>2026-04-25T08:42:36.534Z</time></trkpt><trkpt lat="43.7611533" lon="12.5440367"><ele>203.33333333333334</ele><time>2026-04-25T08:42:37.533Z</time></trkpt><trkpt lat="43.76106" lon="12.543855"><ele>203.0</ele><time>2026-04-25T08:42:38.534Z</time></trkpt><trkpt lat="43.7609667" lon="12.5436783"><ele>203.0</ele><time>2026-04-25T08:42:39.534Z</time></trkpt><trkpt lat="43.7608767" lon="12.5435067"><ele>203.0</ele><time>2026-04-25T08:42:40.534Z</time></trkpt><trkpt lat="43.7607833" lon="12.543345"><ele>203.0</ele><time>2026-04-25T08:42:41.535Z</time></trkpt><trkpt lat="43.7606833" lon="12.5431817"><ele>203.0</ele><time>2026-04-25T08:42:42.531Z</time></trkpt><trkpt lat="43.76059" lon="12.5430217"><ele>203.0</ele><time>2026-04-25T08:42:43.533Z</time></trkpt><trkpt lat="43.7605033" lon="12.54287"><ele>203.0</ele><time>2026-04-25T08:42:44.534Z</time></trkpt><trkpt lat="43.7604117" lon="12.5427267"><ele>203.0</ele><time>2026-04-25T08:42:45.536Z</time></trkpt><trkpt lat="43.760195" lon="12.5424633"><ele>204.66666666666669</ele><time>2026-04-25T08:42:47.534Z</time></trkpt><trkpt lat="43.7600583" lon="12.5423267"><ele>206.33333333333331</ele><time>2026-04-25T08:42:48.534Z</time></trkpt><trkpt lat="43.7599083" lon="12.5421833"><ele>208.0</ele><time>2026-04-25T08:42:49.534Z</time></trkpt><trkpt lat="43.759745" lon="12.5420283"><ele>210.33333333333331</ele><time>2026-04-25T08:42:50.534Z</time></trkpt><trkpt lat="43.7595733" lon="12.5418817"><ele>212.66666666666669</ele><time>2026-04-25T08:42:51.535Z</time></trkpt><trkpt lat="43.7594083" lon="12.5417367"><ele>215.0</ele><time>2026-04-25T08:42:52.535Z</time></trkpt><trkpt lat="43.7592417" lon="12.5415933"><ele>215.0</ele><time>2026-04-25T08:42:53.534Z</time></trkpt><trkpt lat="43.75907" lon="12.5414417"><ele>215.0</ele><time>2026-04-25T08:42:54.535Z</time></trkpt><trkpt lat="43.7589033" lon="12.5412933"><ele>215.0</ele><time>2026-04-25T08:42:55.533Z</time></trkpt><trkpt lat="43.7587467" lon="12.54116"><ele>215.66666666666669</ele><time>2026-04-25T08:42:56.534Z</time></trkpt><trkpt lat="43.7586033" lon="12.5410367"><ele>216.33333333333331</ele><time>2026-04-25T08:42:57.534Z</time></trkpt><trkpt lat="43.7584733" lon="12.54091"><ele>217.0</ele><time>2026-04-25T08:42:58.535Z</time></trkpt><trkpt lat="43.75836" lon="12.540775"><ele>217.0</ele><time>2026-04-25T08:42:59.533Z</time></trkpt><trkpt lat="43.7582617" lon="12.5406333"><ele>217.0</ele><time>2026-04-25T08:43:00.534Z</time></trkpt><trkpt lat="43.7581767" lon="12.5404783"><ele>217.0</ele><time>2026-04-25T08:43:01.532Z</time></trkpt><trkpt lat="43.7581067" lon="12.5403017"><ele>217.0</ele><time>2026-04-25T08:43:02.534Z</time></trkpt><trkpt lat="43.758045" lon="12.5401067"><ele>214.0</ele><time>2026-04-25T08:43:03.534Z</time></trkpt><trkpt lat="43.7579883" lon="12.539915"><ele>211.0</ele><time>2026-04-25T08:43:04.534Z</time></trkpt><trkpt lat="43.7579333" lon="12.539735"><ele>208.0</ele><time>2026-04-25T08:43:05.534Z</time></trkpt><trkpt lat="43.75788" lon="12.5395583"><ele>205.0</ele><time>2026-04-25T08:43:06.532Z</time></trkpt><trkpt lat="43.75779" lon="12.5391833"><ele>203.0</ele><time>2026-04-25T08:43:08.535Z</time></trkpt><trkpt lat="43.757765" lon="12.5389833"><ele>201.0</ele><time>2026-04-25T08:43:09.533Z</time></trkpt><trkpt lat="43.75774" lon="12.5388017"><ele>199.0</ele><time>2026-04-25T08:43:10.534Z</time></trkpt><trkpt lat="43.7577267" lon="12.53862"><ele>197.0</ele><time>2026-04-25T08:43:11.536Z</time></trkpt><trkpt lat="43.7577117" lon="12.5384567"><ele>197.8</ele><time>2026-04-25T08:43:12.531Z</time></trkpt><trkpt lat="43.757695" lon="12.5383033"><ele>198.6</ele><time>2026-04-25T08:43:13.535Z</time></trkpt><trkpt lat="43.7576717" lon="12.538165"><ele>199.4</ele><time>2026-04-25T08:43:14.533Z</time></trkpt><trkpt lat="43.7576283" lon="12.5380333"><ele>200.20000000000002</ele><time>2026-04-25T08:43:15.531Z</time></trkpt><trkpt lat="43.7575617" lon="12.5379033"><ele>201.0</ele><time>2026-04-25T08:43:16.533Z</time></trkpt><trkpt lat="43.7574783" lon="12.5377783"><ele>201.75</ele><time>2026-04-25T08:43:17.537Z</time></trkpt><trkpt lat="43.7573817" lon="12.5376483"><ele>202.5</ele><time>2026-04-25T08:43:18.534Z</time></trkpt><trkpt lat="43.7572883" lon="12.5375317"><ele>203.25</ele><time>2026-04-25T08:43:19.535Z</time></trkpt><trkpt lat="43.75718" lon="12.53744"><ele>204.0</ele><time>2026-04-25T08:43:20.532Z</time></trkpt><trkpt lat="43.7570667" lon="12.5373617"><ele>204.0</ele><time>2026-04-25T08:43:21.534Z</time></trkpt><trkpt lat="43.7569367" lon="12.5373183"><ele>204.0</ele><time>2026-04-25T08:43:22.532Z</time></trkpt><trkpt lat="43.7567933" lon="12.5372933"><ele>204.0</ele><time>2026-04-25T08:43:23.532Z</time></trkpt><trkpt lat="43.7566383" lon="12.5372733"><ele>204.0</ele><time>2026-04-25T08:43:24.532Z</time></trkpt><trkpt lat="43.7564583" lon="12.5372583"><ele>203.66666666666669</ele><time>2026-04-25T08:43:25.536Z</time></trkpt><trkpt lat="43.7562633" lon="12.53725"><ele>203.33333333333334</ele><time>2026-04-25T08:43:26.535Z</time></trkpt><trkpt lat="43.7560833" lon="12.537235"><ele>203.0</ele><time>2026-04-25T08:43:27.534Z</time></trkpt><trkpt lat="43.7558033" lon="12.53718"><ele>202.75</ele><time>2026-04-25T08:43:29.534Z</time></trkpt><trkpt lat="43.7556883" lon="12.5371167"><ele>202.5</ele><time>2026-04-25T08:43:30.534Z</time></trkpt><trkpt lat="43.7555817" lon="12.5370367"><ele>202.25</ele><time>2026-04-25T08:43:31.536Z</time></trkpt><trkpt lat="43.7554717" lon="12.536935"><ele>202.0</ele><time>2026-04-25T08:43:32.534Z</time></trkpt><trkpt lat="43.755365" lon="12.5368133"><ele>202.75</ele><time>2026-04-25T08:43:33.534Z</time></trkpt><trkpt lat="43.7552667" lon="12.53669"><ele>203.5</ele><time>2026-04-25T08:43:34.534Z</time></trkpt><trkpt lat="43.75518" lon="12.5365567"><ele>204.25</ele><time>2026-04-25T08:43:35.534Z</time></trkpt><trkpt lat="43.755095" lon="12.536425"><ele>205.0</ele><time>2026-04-25T08:43:36.534Z</time></trkpt><trkpt lat="43.7549967" lon="12.53631"><ele>205.0</ele><time>2026-04-25T08:43:37.535Z</time></trkpt><trkpt lat="43.75487" lon="12.5362217"><ele>205.0</ele><time>2026-04-25T08:43:38.534Z</time></trkpt><trkpt lat="43.75473" lon="12.53614"><ele>205.0</ele><time>2026-04-25T08:43:39.535Z</time></trkpt><trkpt lat="43.7545983" lon="12.5360683"><ele>205.0</ele><time>2026-04-25T08:43:40.535Z</time></trkpt><trkpt lat="43.754485" lon="12.536015"><ele>207.25</ele><time>2026-04-25T08:43:41.535Z</time></trkpt><trkpt lat="43.754375" lon="12.5359883"><ele>209.5</ele><time>2026-04-25T08:43:42.535Z</time></trkpt><trkpt lat="43.7542583" lon="12.5359883"><ele>211.75</ele><time>2026-04-25T08:43:43.537Z</time></trkpt><trkpt lat="43.7541317" lon="12.5360017"><ele>214.0</ele><time>2026-04-25T08:43:44.534Z</time></trkpt><trkpt lat="43.7539983" lon="12.536015"><ele>214.0</ele><time>2026-04-25T08:43:45.534Z</time></trkpt><trkpt lat="43.75387" lon="12.5360233"><ele>214.0</ele><time>2026-04-25T08:43:46.535Z</time></trkpt><trkpt lat="43.7537517" lon="12.5360267"><ele>214.0</ele><time>2026-04-25T08:43:47.534Z</time></trkpt><trkpt lat="43.7536483" lon="12.5360183"><ele>214.0</ele><time>2026-04-25T08:43:48.535Z</time></trkpt><trkpt lat="43.7534417" lon="12.5359467"><ele>212.5</ele><time>2026-04-25T08:43:50.535Z</time></trkpt><trkpt lat="43.7533333" lon="12.535875"><ele>211.0</ele><time>2026-04-25T08:43:51.534Z</time></trkpt><trkpt lat="43.7532267" lon="12.535785"><ele>209.5</ele><time>2026-04-25T08:43:52.536Z</time></trkpt><trkpt lat="43.7531283" lon="12.5356867"><ele>208.0</ele><time>2026-04-25T08:43:53.535Z</time></trkpt><trkpt lat="43.753045" lon="12.535575"><ele>208.0</ele><time>2026-04-25T08:43:54.536Z</time></trkpt><trkpt lat="43.75297" lon="12.5354683"><ele>208.0</ele><time>2026-04-25T08:43:55.534Z</time></trkpt><trkpt lat="43.7529083" lon="12.5353583"><ele>208.0</ele><time>2026-04-25T08:43:56.535Z</time></trkpt><trkpt lat="43.7528583" lon="12.53524"><ele>208.0</ele><time>2026-04-25T08:43:57.536Z</time></trkpt><trkpt lat="43.75281" lon="12.5351133"><ele>208.0</ele><time>2026-04-25T08:43:58.534Z</time></trkpt><trkpt lat="43.7527667" lon="12.534985"><ele>207.25</ele><time>2026-04-25T08:43:59.536Z</time></trkpt><trkpt lat="43.7527233" lon="12.53484"><ele>206.5</ele><time>2026-04-25T08:44:00.535Z</time></trkpt><trkpt lat="43.7526783" lon="12.5346867"><ele>205.75</ele><time>2026-04-25T08:44:01.535Z</time></trkpt><trkpt lat="43.752625" lon="12.5345217"><ele>205.0</ele><time>2026-04-25T08:44:02.531Z</time></trkpt><trkpt lat="43.7525717" lon="12.53434"><ele>205.0</ele><time>2026-04-25T08:44:03.532Z</time></trkpt><trkpt lat="43.7525117" lon="12.5341583"><ele>205.0</ele><time>2026-04-25T08:44:04.534Z</time></trkpt><trkpt lat="43.7524483" lon="12.5339833"><ele>205.0</ele><time>2026-04-25T08:44:05.534Z</time></trkpt><trkpt lat="43.75239" lon="12.5338183"><ele>205.0</ele><time>2026-04-25T08:44:06.534Z</time></trkpt><trkpt lat="43.7523367" lon="12.5336633"><ele>206.75</ele><time>2026-04-25T08:44:07.534Z</time></trkpt><trkpt lat="43.7522867" lon="12.5335283"><ele>208.5</ele><time>2026-04-25T08:44:08.534Z</time></trkpt><trkpt lat="43.752245" lon="12.533395"><ele>210.25</ele><time>2026-04-25T08:44:09.534Z</time></trkpt><trkpt lat="43.7522167" lon="12.53316"><ele>212.0</ele><time>2026-04-25T08:44:11.534Z</time></trkpt><trkpt lat="43.7522317" lon="12.53306"><ele>212.00000000000003</ele><time>2026-04-25T08:44:12.534Z</time></trkpt><trkpt lat="43.7522633" lon="12.5329617"><ele>212.0</ele><time>2026-04-25T08:44:13.534Z</time></trkpt><trkpt lat="43.7523033" lon="12.5328533"><ele>212.0</ele><time>2026-04-25T08:44:14.535Z</time></trkpt><trkpt lat="43.7523367" lon="12.532725"><ele>212.0</ele><time>2026-04-25T08:44:15.534Z</time></trkpt><trkpt lat="43.7523467" lon="12.5325967"><ele>212.00000000000003</ele><time>2026-04-25T08:44:16.535Z</time></trkpt><trkpt lat="43.7523267" lon="12.5324733"><ele>212.0</ele><time>2026-04-25T08:44:17.535Z</time></trkpt><trkpt lat="43.7522667" lon="12.5323583"><ele>214.25</ele><time>2026-04-25T08:44:18.535Z</time></trkpt><trkpt lat="43.7521917" lon="12.532245"><ele>216.5</ele><time>2026-04-25T08:44:19.534Z</time></trkpt><trkpt lat="43.75211" lon="12.5321283"><ele>218.75</ele><time>2026-04-25T08:44:20.536Z</time></trkpt><trkpt lat="43.752015" lon="12.5320033"><ele>221.0</ele><time>2026-04-25T08:44:21.535Z</time></trkpt><trkpt lat="43.75192" lon="12.5318667"><ele>221.5</ele><time>2026-04-25T08:44:22.535Z</time></trkpt><trkpt lat="43.7518217" lon="12.5317267"><ele>222.0</ele><time>2026-04-25T08:44:23.534Z</time></trkpt><trkpt lat="43.7517233" lon="12.5315867"><ele>222.5</ele><time>2026-04-25T08:44:24.535Z</time></trkpt><trkpt lat="43.7516217" lon="12.53145"><ele>223.0</ele><time>2026-04-25T08:44:25.536Z</time></trkpt><trkpt lat="43.7515133" lon="12.5313067"><ele>228.0</ele><time>2026-04-25T08:44:26.534Z</time></trkpt><trkpt lat="43.7514017" lon="12.53117"><ele>233.0</ele><time>2026-04-25T08:44:27.534Z</time></trkpt><trkpt lat="43.751285" lon="12.53104"><ele>238.0</ele><time>2026-04-25T08:44:28.534Z</time></trkpt><trkpt lat="43.751165" lon="12.5309133"><ele>238.0</ele><time>2026-04-25T08:44:29.535Z</time></trkpt><trkpt lat="43.7510433" lon="12.5307883"><ele>238.0</ele><time>2026-04-25T08:44:30.534Z</time></trkpt><trkpt lat="43.7507917" lon="12.5305383"><ele>238.33333333333331</ele><time>2026-04-25T08:44:32.536Z</time></trkpt><trkpt lat="43.750665" lon="12.5304117"><ele>238.66666666666669</ele><time>2026-04-25T08:44:33.535Z</time></trkpt><trkpt lat="43.7505367" lon="12.530285"><ele>239.0</ele><time>2026-04-25T08:44:34.534Z</time></trkpt><trkpt lat="43.750405" lon="12.5301517"><ele>239.0</ele><time>2026-04-25T08:44:35.535Z</time></trkpt><trkpt lat="43.7502767" lon="12.5300133"><ele>239.0</ele><time>2026-04-25T08:44:36.534Z</time></trkpt><trkpt lat="43.7501417" lon="12.5298733"><ele>239.0</ele><time>2026-04-25T08:44:37.535Z</time></trkpt><trkpt lat="43.7500067" lon="12.52973"><ele>239.33333333333334</ele><time>2026-04-25T08:44:38.535Z</time></trkpt><trkpt lat="43.7498767" lon="12.529585"><ele>239.66666666666669</ele><time>2026-04-25T08:44:39.535Z</time></trkpt><trkpt lat="43.7497517" lon="12.529455"><ele>240.0</ele><time>2026-04-25T08:44:40.534Z</time></trkpt><trkpt lat="43.7496367" lon="12.52934"><ele>240.0</ele><time>2026-04-25T08:44:41.535Z</time></trkpt><trkpt lat="43.7495267" lon="12.5292317"><ele>240.0</ele><time>2026-04-25T08:44:42.535Z</time></trkpt><trkpt lat="43.7494117" lon="12.529135"><ele>240.0</ele><time>2026-04-25T08:44:43.535Z</time></trkpt><trkpt lat="43.7492917" lon="12.5290467"><ele>240.0</ele><time>2026-04-25T08:44:44.535Z</time></trkpt><trkpt lat="43.7491533" lon="12.528975"><ele>239.5</ele><time>2026-04-25T08:44:45.535Z</time></trkpt><trkpt lat="43.7490133" lon="12.5289167"><ele>239.0</ele><time>2026-04-25T08:44:46.536Z</time></trkpt><trkpt lat="43.7488783" lon="12.528865"><ele>238.5</ele><time>2026-04-25T08:44:47.536Z</time></trkpt><trkpt lat="43.7487417" lon="12.52883"><ele>238.0</ele><time>2026-04-25T08:44:48.535Z</time></trkpt><trkpt lat="43.74861" lon="12.52881"><ele>235.33333333333331</ele><time>2026-04-25T08:44:49.535Z</time></trkpt><trkpt lat="43.7484967" lon="12.5287967"><ele>232.66666666666669</ele><time>2026-04-25T08:44:50.534Z</time></trkpt><trkpt lat="43.7483917" lon="12.5287717"><ele>230.0</ele><time>2026-04-25T08:44:51.535Z</time></trkpt><trkpt lat="43.7481783" lon="12.5286533"><ele>234.25</ele><time>2026-04-25T08:44:53.536Z</time></trkpt><trkpt lat="43.7480733" lon="12.5285683"><ele>238.5</ele><time>2026-04-25T08:44:54.535Z</time></trkpt><trkpt lat="43.74797" lon="12.528475"><ele>242.75</ele><time>2026-04-25T08:44:55.534Z</time></trkpt><trkpt lat="43.7478683" lon="12.52839"><ele>247.0</ele><time>2026-04-25T08:44:56.535Z</time></trkpt><trkpt lat="43.7477583" lon="12.52832"><ele>246.0</ele><time>2026-04-25T08:44:57.535Z</time></trkpt><trkpt lat="43.7476367" lon="12.5282683"><ele>245.0</ele><time>2026-04-25T08:44:58.536Z</time></trkpt><trkpt lat="43.7475033" lon="12.5282367"><ele>244.0</ele><time>2026-04-25T08:44:59.535Z</time></trkpt><trkpt lat="43.7473667" lon="12.5282133"><ele>243.0</ele><time>2026-04-25T08:45:00.534Z</time></trkpt><trkpt lat="43.74724" lon="12.528185"><ele>243.0</ele><time>2026-04-25T08:45:01.534Z</time></trkpt><trkpt lat="43.74712" lon="12.52815"><ele>243.0</ele><time>2026-04-25T08:45:02.534Z</time></trkpt><trkpt lat="43.7469883" lon="12.5281083"><ele>243.0</ele><time>2026-04-25T08:45:03.534Z</time></trkpt><trkpt lat="43.746855" lon="12.528055"><ele>243.0</ele><time>2026-04-25T08:45:04.535Z</time></trkpt><trkpt lat="43.7467317" lon="12.52799"><ele>241.25</ele><time>2026-04-25T08:45:05.531Z</time></trkpt><trkpt lat="43.74662" lon="12.5279133"><ele>239.5</ele><time>2026-04-25T08:45:06.535Z</time></trkpt><trkpt lat="43.74652" lon="12.52782"><ele>237.75</ele><time>2026-04-25T08:45:07.535Z</time></trkpt><trkpt lat="43.746425" lon="12.5277017"><ele>236.0</ele><time>2026-04-25T08:45:08.534Z</time></trkpt><trkpt lat="43.746325" lon="12.527585"><ele>238.0</ele><time>2026-04-25T08:45:09.535Z</time></trkpt><trkpt lat="43.7462217" lon="12.5274967"><ele>240.0</ele><time>2026-04-25T08:45:10.535Z</time></trkpt><trkpt lat="43.7461133" lon="12.52744"><ele>242.0</ele><time>2026-04-25T08:45:11.537Z</time></trkpt><trkpt lat="43.74601" lon="12.5274083"><ele>244.0</ele><time>2026-04-25T08:45:12.535Z</time></trkpt><trkpt lat="43.74583" lon="12.52735"><ele>243.99999999999997</ele><time>2026-04-25T08:45:14.534Z</time></trkpt><trkpt lat="43.74575" lon="12.5273017"><ele>244.0</ele><time>2026-04-25T08:45:15.535Z</time></trkpt><trkpt lat="43.7456817" lon="12.527235"><ele>244.0</ele><time>2026-04-25T08:45:16.531Z</time></trkpt><trkpt lat="43.745625" lon="12.5271483"><ele>244.0</ele><time>2026-04-25T08:45:17.536Z</time></trkpt><trkpt lat="43.745585" lon="12.5270467"><ele>243.99999999999997</ele><time>2026-04-25T08:45:18.534Z</time></trkpt><trkpt lat="43.7455717" lon="12.5269333"><ele>244.0</ele><time>2026-04-25T08:45:19.536Z</time></trkpt><trkpt lat="43.7455717" lon="12.526815"><ele>245.79999999999998</ele><time>2026-04-25T08:45:20.534Z</time></trkpt><trkpt lat="43.7455933" lon="12.52668"><ele>247.59999999999997</ele><time>2026-04-25T08:45:21.536Z</time></trkpt><trkpt lat="43.74562" lon="12.526545"><ele>249.4</ele><time>2026-04-25T08:45:22.534Z</time></trkpt><trkpt lat="43.7456483" lon="12.5264183"><ele>251.2</ele><time>2026-04-25T08:45:23.535Z</time></trkpt><trkpt lat="43.7456583" lon="12.5263067"><ele>253.0</ele><time>2026-04-25T08:45:24.534Z</time></trkpt><trkpt lat="43.7456567" lon="12.5262067"><ele>253.0</ele><time>2026-04-25T08:45:25.534Z</time></trkpt><trkpt lat="43.7456117" lon="12.5260683"><ele>253.0</ele><time>2026-04-25T08:45:27.532Z</time></trkpt><trkpt lat="43.74555" lon="12.5260483"><ele>253.0</ele><time>2026-04-25T08:45:28.534Z</time></trkpt><trkpt lat="43.7454333" lon="12.5260933"><ele>253.0</ele><time>2026-04-25T08:45:30.534Z</time></trkpt><trkpt lat="43.7453467" lon="12.5262333"><ele>253.0</ele><time>2026-04-25T08:45:31.535Z</time></trkpt><trkpt lat="43.7452783" lon="12.5263717"><ele>247.5</ele><time>2026-04-25T08:45:32.532Z</time></trkpt><trkpt lat="43.7452017" lon="12.5264867"><ele>242.0</ele><time>2026-04-25T08:45:33.533Z</time></trkpt><trkpt lat="43.7450467" lon="12.5265983"><ele>236.5</ele><time>2026-04-25T08:45:35.536Z</time></trkpt><trkpt lat="43.7449867" lon="12.5265533"><ele>231.0</ele><time>2026-04-25T08:45:36.535Z</time></trkpt><trkpt lat="43.74491" lon="12.5264467"><ele>231.0</ele><time>2026-04-25T08:45:37.535Z</time></trkpt><trkpt lat="43.7448683" lon="12.5262967"><ele>231.0</ele><time>2026-04-25T08:45:38.53Z</time></trkpt><trkpt lat="43.7448217" lon="12.52611"><ele>231.0</ele><time>2026-04-25T08:45:39.532Z</time></trkpt><trkpt lat="43.7447483" lon="12.52598"><ele>231.0</ele><time>2026-04-25T08:45:40.535Z</time></trkpt><trkpt lat="43.7446417" lon="12.52588"><ele>233.33333333333331</ele><time>2026-04-25T08:45:41.533Z</time></trkpt><trkpt lat="43.7445033" lon="12.5257983"><ele>235.66666666666666</ele><time>2026-04-25T08:45:42.534Z</time></trkpt><trkpt lat="43.7443533" lon="12.52572"><ele>238.0</ele><time>2026-04-25T08:45:43.535Z</time></trkpt><trkpt lat="43.7442183" lon="12.5256617"><ele>238.0</ele><time>2026-04-25T08:45:44.534Z</time></trkpt><trkpt lat="43.7441017" lon="12.5256117"><ele>238.0</ele><time>2026-04-25T08:45:45.534Z</time></trkpt><trkpt lat="43.74399" lon="12.5255567"><ele>238.0</ele><time>2026-04-25T08:45:46.532Z</time></trkpt><trkpt lat="43.743895" lon="12.5254883"><ele>238.0</ele><time>2026-04-25T08:45:47.532Z</time></trkpt><trkpt lat="43.743805" lon="12.5254167"><ele>241.5</ele><time>2026-04-25T08:45:48.534Z</time></trkpt><trkpt lat="43.7437083" lon="12.5253533"><ele>245.0</ele><time>2026-04-25T08:45:49.532Z</time></trkpt><trkpt lat="43.7436017" lon="12.5252933"><ele>248.5</ele><time>2026-04-25T08:45:50.532Z</time></trkpt><trkpt lat="43.7434883" lon="12.5252333"><ele>252.0</ele><time>2026-04-25T08:45:51.531Z</time></trkpt><trkpt lat="43.743365" lon="12.5251783"><ele>252.0</ele><time>2026-04-25T08:45:52.531Z</time></trkpt><trkpt lat="43.7432283" lon="12.5251383"><ele>252.0</ele><time>2026-04-25T08:45:53.537Z</time></trkpt><trkpt lat="43.7430867" lon="12.5251133"><ele>252.0</ele><time>2026-04-25T08:45:54.534Z</time></trkpt><trkpt lat="43.7428117" lon="12.52511"><ele>249.25</ele><time>2026-04-25T08:45:56.535Z</time></trkpt><trkpt lat="43.7426817" lon="12.5251133"><ele>246.5</ele><time>2026-04-25T08:45:57.533Z</time></trkpt><trkpt lat="43.74255" lon="12.5251133"><ele>243.75</ele><time>2026-04-25T08:45:58.534Z</time></trkpt><trkpt lat="43.742425" lon="12.5251067"><ele>241.0</ele><time>2026-04-25T08:45:59.535Z</time></trkpt><trkpt lat="43.742305" lon="12.5250733"><ele>241.0</ele><time>2026-04-25T08:46:00.535Z</time></trkpt><trkpt lat="43.7421833" lon="12.525025"><ele>241.0</ele><time>2026-04-25T08:46:01.534Z</time></trkpt><trkpt lat="43.742065" lon="12.524975"><ele>241.0</ele><time>2026-04-25T08:46:02.534Z</time></trkpt><trkpt lat="43.7419467" lon="12.5249367"><ele>241.0</ele><time>2026-04-25T08:46:03.534Z</time></trkpt><trkpt lat="43.74183" lon="12.524915"><ele>238.8</ele><time>2026-04-25T08:46:04.535Z</time></trkpt><trkpt lat="43.7417133" lon="12.5249067"><ele>236.60000000000002</ele><time>2026-04-25T08:46:05.534Z</time></trkpt><trkpt lat="43.7416033" lon="12.52492"><ele>234.4</ele><time>2026-04-25T08:46:06.534Z</time></trkpt><trkpt lat="43.7414967" lon="12.5249383"><ele>232.2</ele><time>2026-04-25T08:46:07.534Z</time></trkpt><trkpt lat="43.741405" lon="12.5249283"><ele>230.0</ele><time>2026-04-25T08:46:08.534Z</time></trkpt><trkpt lat="43.74132" lon="12.5248867"><ele>230.0</ele><time>2026-04-25T08:46:09.535Z</time></trkpt><trkpt lat="43.7412417" lon="12.5248033"><ele>230.0</ele><time>2026-04-25T08:46:10.534Z</time></trkpt><trkpt lat="43.7411883" lon="12.5246933"><ele>230.0</ele><time>2026-04-25T08:46:11.534Z</time></trkpt><trkpt lat="43.7411483" lon="12.5245833"><ele>230.0</ele><time>2026-04-25T08:46:12.534Z</time></trkpt><trkpt lat="43.7411" lon="12.5244817"><ele>230.0</ele><time>2026-04-25T08:46:13.535Z</time></trkpt><trkpt lat="43.741035" lon="12.5244083"><ele>231.75</ele><time>2026-04-25T08:46:14.534Z</time></trkpt><trkpt lat="43.7409567" lon="12.52437"><ele>233.5</ele><time>2026-04-25T08:46:15.534Z</time></trkpt><trkpt lat="43.7407667" lon="12.5243933"><ele>235.25</ele><time>2026-04-25T08:46:17.532Z</time></trkpt><trkpt lat="43.7406667" lon="12.5244033"><ele>237.0</ele><time>2026-04-25T08:46:18.533Z</time></trkpt><trkpt lat="43.7405617" lon="12.5243717"><ele>237.0</ele><time>2026-04-25T08:46:19.531Z</time></trkpt><trkpt lat="43.740455" lon="12.5242967"><ele>237.0</ele><time>2026-04-25T08:46:20.531Z</time></trkpt><trkpt lat="43.7403467" lon="12.5241933"><ele>237.0</ele><time>2026-04-25T08:46:21.531Z</time></trkpt><trkpt lat="43.740235" lon="12.52409"><ele>237.0</ele><time>2026-04-25T08:46:22.531Z</time></trkpt><trkpt lat="43.7401117" lon="12.5239917"><ele>235.25</ele><time>2026-04-25T08:46:23.536Z</time></trkpt><trkpt lat="43.739985" lon="12.52391"><ele>233.5</ele><time>2026-04-25T08:46:24.535Z</time></trkpt><trkpt lat="43.7398583" lon="12.52385"><ele>231.75</ele><time>2026-04-25T08:46:25.535Z</time></trkpt><trkpt lat="43.7397383" lon="12.5238033"><ele>230.0</ele><time>2026-04-25T08:46:26.534Z</time></trkpt><trkpt lat="43.7396333" lon="12.523755"><ele>230.16666666666669</ele><time>2026-04-25T08:46:27.534Z</time></trkpt><trkpt lat="43.73954" lon="12.523705"><ele>230.33333333333334</ele><time>2026-04-25T08:46:28.535Z</time></trkpt><trkpt lat="43.73946" lon="12.5236767"><ele>230.5</ele><time>2026-04-25T08:46:29.535Z</time></trkpt><trkpt lat="43.739385" lon="12.5236817"><ele>230.66666666666669</ele><time>2026-04-25T08:46:30.534Z</time></trkpt><trkpt lat="43.739315" lon="12.5237067"><ele>230.83333333333334</ele><time>2026-04-25T08:46:31.534Z</time></trkpt><trkpt lat="43.739245" lon="12.523785"><ele>231.0</ele><time>2026-04-25T08:46:32.534Z</time></trkpt><trkpt lat="43.73916" lon="12.5238567"><ele>231.0</ele><time>2026-04-25T08:46:33.534Z</time></trkpt><trkpt lat="43.7390667" lon="12.523915"><ele>231.0</ele><time>2026-04-25T08:46:34.534Z</time></trkpt><trkpt lat="43.7389583" lon="12.5239367"><ele>231.0</ele><time>2026-04-25T08:46:35.534Z</time></trkpt><trkpt lat="43.7388533" lon="12.5239183"><ele>231.0</ele><time>2026-04-25T08:46:36.535Z</time></trkpt><trkpt lat="43.7386583" lon="12.5237467"><ele>233.25</ele><time>2026-04-25T08:46:38.534Z</time></trkpt><trkpt lat="43.738555" lon="12.5236317"><ele>235.5</ele><time>2026-04-25T08:46:39.534Z</time></trkpt><trkpt lat="43.738455" lon="12.5235183"><ele>237.75</ele><time>2026-04-25T08:46:40.535Z</time></trkpt><trkpt lat="43.738375" lon="12.5234033"><ele>240.0</ele><time>2026-04-25T08:46:41.534Z</time></trkpt><trkpt lat="43.7383067" lon="12.523285"><ele>240.0</ele><time>2026-04-25T08:46:42.533Z</time></trkpt><trkpt lat="43.73826" lon="12.523155"><ele>240.0</ele><time>2026-04-25T08:46:43.534Z</time></trkpt><trkpt lat="43.7382317" lon="12.5230167"><ele>240.0</ele><time>2026-04-25T08:46:44.534Z</time></trkpt><trkpt lat="43.7382217" lon="12.5228683"><ele>240.0</ele><time>2026-04-25T08:46:45.533Z</time></trkpt><trkpt lat="43.73821" lon="12.5227333"><ele>240.0</ele><time>2026-04-25T08:46:46.531Z</time></trkpt><trkpt lat="43.7381783" lon="12.52262"><ele>243.75</ele><time>2026-04-25T08:46:47.532Z</time></trkpt><trkpt lat="43.73812" lon="12.5225267"><ele>247.5</ele><time>2026-04-25T08:46:48.531Z</time></trkpt><trkpt lat="43.7380333" lon="12.5224517"><ele>251.25</ele><time>2026-04-25T08:46:49.533Z</time></trkpt><trkpt lat="43.737905" lon="12.52242"><ele>255.0</ele><time>2026-04-25T08:46:50.53Z</time></trkpt><trkpt lat="43.7377733" lon="12.52241"><ele>252.5</ele><time>2026-04-25T08:46:51.532Z</time></trkpt><trkpt lat="43.737635" lon="12.52242"><ele>250.0</ele><time>2026-04-25T08:46:52.531Z</time></trkpt><trkpt lat="43.7375067" lon="12.522435"><ele>247.5</ele><time>2026-04-25T08:46:53.535Z</time></trkpt><trkpt lat="43.73739" lon="12.5224483"><ele>245.0</ele><time>2026-04-25T08:46:54.535Z</time></trkpt><trkpt lat="43.7372883" lon="12.5224433"><ele>245.0</ele><time>2026-04-25T08:46:55.532Z</time></trkpt><trkpt lat="43.737195" lon="12.5224167"><ele>245.0</ele><time>2026-04-25T08:46:56.534Z</time></trkpt><trkpt lat="43.7371133" lon="12.5223433"><ele>245.0</ele><time>2026-04-25T08:46:57.535Z</time></trkpt><trkpt lat="43.7369667" lon="12.522115"><ele>245.0</ele><time>2026-04-25T08:46:59.535Z</time></trkpt><trkpt lat="43.73688" lon="12.5219917"><ele>244.25</ele><time>2026-04-25T08:47:00.532Z</time></trkpt><trkpt lat="43.73678" lon="12.5218783"><ele>243.5</ele><time>2026-04-25T08:47:01.534Z</time></trkpt><trkpt lat="43.7366683" lon="12.5217817"><ele>242.75</ele><time>2026-04-25T08:47:02.532Z</time></trkpt><trkpt lat="43.7365517" lon="12.5216967"><ele>242.0</ele><time>2026-04-25T08:47:03.531Z</time></trkpt><trkpt lat="43.73644" lon="12.5216167"><ele>242.00000000000003</ele><time>2026-04-25T08:47:04.531Z</time></trkpt><trkpt lat="43.7363383" lon="12.52154"><ele>242.0</ele><time>2026-04-25T08:47:05.531Z</time></trkpt><trkpt lat="43.7362617" lon="12.521455"><ele>242.0</ele><time>2026-04-25T08:47:06.532Z</time></trkpt><trkpt lat="43.7362" lon="12.521375"><ele>242.0</ele><time>2026-04-25T08:47:07.531Z</time></trkpt><trkpt lat="43.7361567" lon="12.5212967"><ele>242.00000000000003</ele><time>2026-04-25T08:47:08.531Z</time></trkpt><trkpt lat="43.7361367" lon="12.5212083"><ele>242.0</ele><time>2026-04-25T08:47:09.532Z</time></trkpt><trkpt lat="43.736155" lon="12.521095"><ele>244.39999999999998</ele><time>2026-04-25T08:47:10.533Z</time></trkpt><trkpt lat="43.7361717" lon="12.5209717"><ele>246.79999999999998</ele><time>2026-04-25T08:47:11.532Z</time></trkpt><trkpt lat="43.73617" lon="12.5208317"><ele>249.2</ele><time>2026-04-25T08:47:12.535Z</time></trkpt><trkpt lat="43.7361533" lon="12.5207"><ele>251.6</ele><time>2026-04-25T08:47:13.534Z</time></trkpt><trkpt lat="43.7361183" lon="12.52058"><ele>254.0</ele><time>2026-04-25T08:47:14.534Z</time></trkpt><trkpt lat="43.7360633" lon="12.520485"><ele>254.25</ele><time>2026-04-25T08:47:15.532Z</time></trkpt><trkpt lat="43.7359817" lon="12.5204017"><ele>254.5</ele><time>2026-04-25T08:47:16.535Z</time></trkpt><trkpt lat="43.7358783" lon="12.5203283"><ele>254.75</ele><time>2026-04-25T08:47:17.531Z</time></trkpt><trkpt lat="43.73576" lon="12.5202633"><ele>255.0</ele><time>2026-04-25T08:47:18.534Z</time></trkpt><trkpt lat="43.7355417" lon="12.5201567"><ele>255.0</ele><time>2026-04-25T08:47:20.532Z</time></trkpt><trkpt lat="43.735435" lon="12.5201417"><ele>255.0</ele><time>2026-04-25T08:47:21.531Z</time></trkpt><trkpt lat="43.7353317" lon="12.5201617"><ele>255.0</ele><time>2026-04-25T08:47:22.532Z</time></trkpt><trkpt lat="43.7352267" lon="12.52022"><ele>255.0</ele><time>2026-04-25T08:47:23.533Z</time></trkpt><trkpt lat="43.7351317" lon="12.5202983"><ele>255.0</ele><time>2026-04-25T08:47:24.533Z</time></trkpt><trkpt lat="43.7350567" lon="12.5203867"><ele>250.75</ele><time>2026-04-25T08:47:25.534Z</time></trkpt><trkpt lat="43.734995" lon="12.5205233"><ele>246.5</ele><time>2026-04-25T08:47:26.532Z</time></trkpt><trkpt lat="43.734945" lon="12.5206733"><ele>242.25</ele><time>2026-04-25T08:47:27.533Z</time></trkpt><trkpt lat="43.734895" lon="12.5208167"><ele>238.0</ele><time>2026-04-25T08:47:28.531Z</time></trkpt><trkpt lat="43.7348367" lon="12.5209367"><ele>238.0</ele><time>2026-04-25T08:47:29.532Z</time></trkpt><trkpt lat="43.73476" lon="12.5210367"><ele>238.0</ele><time>2026-04-25T08:47:30.534Z</time></trkpt><trkpt lat="43.7346667" lon="12.5211133"><ele>238.0</ele><time>2026-04-25T08:47:31.532Z</time></trkpt><trkpt lat="43.7345617" lon="12.52117"><ele>238.0</ele><time>2026-04-25T08:47:32.531Z</time></trkpt><trkpt lat="43.7344467" lon="12.52121"><ele>238.0</ele><time>2026-04-25T08:47:33.534Z</time></trkpt><trkpt lat="43.7343167" lon="12.5212233"><ele>237.25</ele><time>2026-04-25T08:47:34.531Z</time></trkpt><trkpt lat="43.734175" lon="12.521225"><ele>236.5</ele><time>2026-04-25T08:47:35.531Z</time></trkpt><trkpt lat="43.734035" lon="12.52121"><ele>235.75</ele><time>2026-04-25T08:47:36.531Z</time></trkpt><trkpt lat="43.7339067" lon="12.521205"><ele>235.0</ele><time>2026-04-25T08:47:37.534Z</time></trkpt><trkpt lat="43.733785" lon="12.5212033"><ele>235.0</ele><time>2026-04-25T08:47:38.531Z</time></trkpt><trkpt lat="43.7336617" lon="12.5211783"><ele>235.0</ele><time>2026-04-25T08:47:39.53Z</time></trkpt><trkpt lat="43.7334" lon="12.5210467"><ele>235.0</ele><time>2026-04-25T08:47:41.531Z</time></trkpt><trkpt lat="43.7332633" lon="12.5209533"><ele>236.33333333333331</ele><time>2026-04-25T08:47:42.532Z</time></trkpt><trkpt lat="43.7331267" lon="12.5208533"><ele>237.66666666666669</ele><time>2026-04-25T08:47:43.532Z</time></trkpt><trkpt lat="43.7329883" lon="12.52075"><ele>239.0</ele><time>2026-04-25T08:47:44.53Z</time></trkpt><trkpt lat="43.732855" lon="12.5206333"><ele>239.0</ele><time>2026-04-25T08:47:45.533Z</time></trkpt><trkpt lat="43.7327283" lon="12.5204983"><ele>239.0</ele><time>2026-04-25T08:47:46.531Z</time></trkpt><trkpt lat="43.7326067" lon="12.520365"><ele>239.0</ele><time>2026-04-25T08:47:47.532Z</time></trkpt><trkpt lat="43.7325" lon="12.5202233"><ele>241.75</ele><time>2026-04-25T08:47:48.531Z</time></trkpt><trkpt lat="43.7323933" lon="12.5200833"><ele>244.5</ele><time>2026-04-25T08:47:49.531Z</time></trkpt><trkpt lat="43.7323033" lon="12.519945"><ele>247.25</ele><time>2026-04-25T08:47:50.53Z</time></trkpt><trkpt lat="43.7322133" lon="12.51983"><ele>250.0</ele><time>2026-04-25T08:47:51.53Z</time></trkpt><trkpt lat="43.7321233" lon="12.5197267"><ele>250.0</ele><time>2026-04-25T08:47:52.531Z</time></trkpt><trkpt lat="43.7320283" lon="12.5196483"><ele>250.0</ele><time>2026-04-25T08:47:53.533Z</time></trkpt><trkpt lat="43.7319233" lon="12.5196033"><ele>250.0</ele><time>2026-04-25T08:47:54.531Z</time></trkpt><trkpt lat="43.7318233" lon="12.51956"><ele>250.0</ele><time>2026-04-25T08:47:55.532Z</time></trkpt><trkpt lat="43.731735" lon="12.5194967"><ele>250.0</ele><time>2026-04-25T08:47:56.53Z</time></trkpt><trkpt lat="43.731675" lon="12.5193933"><ele>248.5</ele><time>2026-04-25T08:47:57.53Z</time></trkpt><trkpt lat="43.7316417" lon="12.5192517"><ele>247.0</ele><time>2026-04-25T08:47:58.536Z</time></trkpt><trkpt lat="43.73162" lon="12.5190933"><ele>245.5</ele><time>2026-04-25T08:47:59.531Z</time></trkpt><trkpt lat="43.7315933" lon="12.5189467"><ele>244.0</ele><time>2026-04-25T08:48:00.535Z</time></trkpt><trkpt lat="43.7315133" lon="12.5187417"><ele>244.0</ele><time>2026-04-25T08:48:02.534Z</time></trkpt><trkpt lat="43.7314583" lon="12.5186767"><ele>243.99999999999997</ele><time>2026-04-25T08:48:03.534Z</time></trkpt><trkpt lat="43.73139" lon="12.5186533"><ele>243.99999999999997</ele><time>2026-04-25T08:48:04.534Z</time></trkpt><trkpt lat="43.73131" lon="12.518685"><ele>244.0</ele><time>2026-04-25T08:48:05.534Z</time></trkpt><trkpt lat="43.731205" lon="12.518765"><ele>244.0</ele><time>2026-04-25T08:48:06.536Z</time></trkpt><trkpt lat="43.7310967" lon="12.5188383"><ele>244.0</ele><time>2026-04-25T08:48:07.534Z</time></trkpt><trkpt lat="43.7309833" lon="12.5189067"><ele>243.99999999999997</ele><time>2026-04-25T08:48:08.534Z</time></trkpt><trkpt lat="43.7308717" lon="12.5189517"><ele>243.99999999999997</ele><time>2026-04-25T08:48:09.533Z</time></trkpt><trkpt lat="43.7307733" lon="12.5189533"><ele>244.0</ele><time>2026-04-25T08:48:10.531Z</time></trkpt><trkpt lat="43.7306883" lon="12.5189167"><ele>244.0</ele><time>2026-04-25T08:48:11.535Z</time></trkpt><trkpt lat="43.7306167" lon="12.5188267"><ele>246.25</ele><time>2026-04-25T08:48:12.533Z</time></trkpt><trkpt lat="43.7305633" lon="12.5186783"><ele>248.5</ele><time>2026-04-25T08:48:13.534Z</time></trkpt><trkpt lat="43.7305183" lon="12.518515"><ele>250.75</ele><time>2026-04-25T08:48:14.535Z</time></trkpt><trkpt lat="43.730465" lon="12.5183767"><ele>253.0</ele><time>2026-04-25T08:48:15.535Z</time></trkpt><trkpt lat="43.730415" lon="12.5182717"><ele>253.0</ele><time>2026-04-25T08:48:16.534Z</time></trkpt><trkpt lat="43.7303667" lon="12.51819"><ele>253.0</ele><time>2026-04-25T08:48:17.535Z</time></trkpt><trkpt lat="43.7302683" lon="12.5181317"><ele>253.0</ele><time>2026-04-25T08:48:19.534Z</time></trkpt><trkpt lat="43.7302167" lon="12.5182017"><ele>253.0</ele><time>2026-04-25T08:48:20.534Z</time></trkpt><trkpt lat="43.730155" lon="12.51828"><ele>253.0</ele><time>2026-04-25T08:48:21.535Z</time></trkpt><trkpt lat="43.7299667" lon="12.518235"><ele>251.5</ele><time>2026-04-25T08:48:24.534Z</time></trkpt><trkpt lat="43.729885" lon="12.518135"><ele>250.0</ele><time>2026-04-25T08:48:25.535Z</time></trkpt><trkpt lat="43.7297833" lon="12.5180367"><ele>248.5</ele><time>2026-04-25T08:48:26.535Z</time></trkpt><trkpt lat="43.7296817" lon="12.5179567"><ele>247.0</ele><time>2026-04-25T08:48:27.535Z</time></trkpt><trkpt lat="43.7295783" lon="12.5179017"><ele>247.0</ele><time>2026-04-25T08:48:28.533Z</time></trkpt><trkpt lat="43.7294667" lon="12.5178683"><ele>247.0</ele><time>2026-04-25T08:48:29.534Z</time></trkpt><trkpt lat="43.72936" lon="12.5178533"><ele>247.0</ele><time>2026-04-25T08:48:30.535Z</time></trkpt><trkpt lat="43.7292667" lon="12.5178583"><ele>247.0</ele><time>2026-04-25T08:48:31.534Z</time></trkpt><trkpt lat="43.7291833" lon="12.517895"><ele>247.0</ele><time>2026-04-25T08:48:32.534Z</time></trkpt><trkpt lat="43.7291033" lon="12.5179683"><ele>247.0</ele><time>2026-04-25T08:48:33.534Z</time></trkpt><trkpt lat="43.7290433" lon="12.5180933"><ele>247.0</ele><time>2026-04-25T08:48:34.534Z</time></trkpt><trkpt lat="43.7289983" lon="12.5182533"><ele>247.0</ele><time>2026-04-25T08:48:35.534Z</time></trkpt><trkpt lat="43.728955" lon="12.5184283"><ele>247.0</ele><time>2026-04-25T08:48:36.535Z</time></trkpt><trkpt lat="43.7289133" lon="12.5185967"><ele>247.5</ele><time>2026-04-25T08:48:37.534Z</time></trkpt><trkpt lat="43.7288783" lon="12.5187683"><ele>248.0</ele><time>2026-04-25T08:48:38.531Z</time></trkpt><trkpt lat="43.7288417" lon="12.5189283"><ele>248.5</ele><time>2026-04-25T08:48:39.535Z</time></trkpt><trkpt lat="43.7288067" lon="12.5190683"><ele>249.0</ele><time>2026-04-25T08:48:40.536Z</time></trkpt><trkpt lat="43.7287667" lon="12.5191917"><ele>249.0</ele><time>2026-04-25T08:48:41.535Z</time></trkpt><trkpt lat="43.7287083" lon="12.5193"><ele>249.0</ele><time>2026-04-25T08:48:42.534Z</time></trkpt><trkpt lat="43.7285433" lon="12.519435"><ele>249.0</ele><time>2026-04-25T08:48:44.534Z</time></trkpt><trkpt lat="43.7284383" lon="12.51945"><ele>249.0</ele><time>2026-04-25T08:48:45.534Z</time></trkpt><trkpt lat="43.7283383" lon="12.5194267"><ele>249.5</ele><time>2026-04-25T08:48:46.535Z</time></trkpt><trkpt lat="43.7282517" lon="12.51939"><ele>250.0</ele><time>2026-04-25T08:48:47.535Z</time></trkpt><trkpt lat="43.7281783" lon="12.5193567"><ele>250.5</ele><time>2026-04-25T08:48:48.534Z</time></trkpt><trkpt lat="43.72811" lon="12.5193283"><ele>251.0</ele><time>2026-04-25T08:48:49.535Z</time></trkpt><trkpt lat="43.7280317" lon="12.519305"><ele>251.5</ele><time>2026-04-25T08:48:50.534Z</time></trkpt><trkpt lat="43.7279383" lon="12.5192667"><ele>252.0</ele><time>2026-04-25T08:48:51.534Z</time></trkpt><trkpt lat="43.7278383" lon="12.519215"><ele>252.0</ele><time>2026-04-25T08:48:52.534Z</time></trkpt><trkpt lat="43.7277367" lon="12.5191633"><ele>252.0</ele><time>2026-04-25T08:48:53.534Z</time></trkpt><trkpt lat="43.7276433" lon="12.5191117"><ele>252.0</ele><time>2026-04-25T08:48:54.535Z</time></trkpt><trkpt lat="43.7275633" lon="12.5190567"><ele>252.0</ele><time>2026-04-25T08:48:55.534Z</time></trkpt><trkpt lat="43.7274983" lon="12.5189983"><ele>252.0</ele><time>2026-04-25T08:48:56.534Z</time></trkpt><trkpt lat="43.7274533" lon="12.5189267"><ele>252.0</ele><time>2026-04-25T08:48:57.535Z</time></trkpt><trkpt lat="43.7274267" lon="12.51877"><ele>252.0</ele><time>2026-04-25T08:48:59.534Z</time></trkpt><trkpt lat="43.7275267" lon="12.51861"><ele>252.0</ele><time>2026-04-25T08:49:01.534Z</time></trkpt><trkpt lat="43.7276083" lon="12.5185167"><ele>252.0</ele><time>2026-04-25T08:49:02.535Z</time></trkpt><trkpt lat="43.7276883" lon="12.5184133"><ele>252.0</ele><time>2026-04-25T08:49:03.535Z</time></trkpt><trkpt lat="43.7278033" lon="12.5181533"><ele>251.39999999999998</ele><time>2026-04-25T08:49:05.535Z</time></trkpt><trkpt lat="43.7278533" lon="12.5180167"><ele>250.79999999999998</ele><time>2026-04-25T08:49:06.534Z</time></trkpt><trkpt lat="43.72789" lon="12.5178867"><ele>250.2</ele><time>2026-04-25T08:49:07.535Z</time></trkpt><trkpt lat="43.7279167" lon="12.517745"><ele>249.6</ele><time>2026-04-25T08:49:08.534Z</time></trkpt><trkpt lat="43.7279267" lon="12.5175933"><ele>249.0</ele><time>2026-04-25T08:49:09.534Z</time></trkpt><trkpt lat="43.7279233" lon="12.5174333"><ele>249.0</ele><time>2026-04-25T08:49:10.534Z</time></trkpt><trkpt lat="43.727905" lon="12.5172817"><ele>248.99999999999997</ele><time>2026-04-25T08:49:11.534Z</time></trkpt><trkpt lat="43.7278733" lon="12.5171433"><ele>248.99999999999997</ele><time>2026-04-25T08:49:12.534Z</time></trkpt><trkpt lat="43.7278217" lon="12.5170333"><ele>249.0</ele><time>2026-04-25T08:49:13.536Z</time></trkpt><trkpt lat="43.7277583" lon="12.5169367"><ele>249.0</ele><time>2026-04-25T08:49:14.535Z</time></trkpt><trkpt lat="43.7276783" lon="12.5168567"><ele>249.0</ele><time>2026-04-25T08:49:15.534Z</time></trkpt><trkpt lat="43.72759" lon="12.5167967"><ele>248.99999999999997</ele><time>2026-04-25T08:49:16.531Z</time></trkpt><trkpt lat="43.727505" lon="12.5167617"><ele>248.99999999999997</ele><time>2026-04-25T08:49:17.531Z</time></trkpt><trkpt lat="43.7274233" lon="12.5167617"><ele>249.0</ele><time>2026-04-25T08:49:18.532Z</time></trkpt><trkpt lat="43.7273433" lon="12.5167983"><ele>249.0</ele><time>2026-04-25T08:49:19.531Z</time></trkpt><trkpt lat="43.7272517" lon="12.51686"><ele>249.0</ele><time>2026-04-25T08:49:20.531Z</time></trkpt><trkpt lat="43.7271533" lon="12.5169167"><ele>248.99999999999997</ele><time>2026-04-25T08:49:21.532Z</time></trkpt><trkpt lat="43.7270533" lon="12.5169333"><ele>248.99999999999997</ele><time>2026-04-25T08:49:22.532Z</time></trkpt><trkpt lat="43.726955" lon="12.5169083"><ele>249.0</ele><time>2026-04-25T08:49:23.535Z</time></trkpt><trkpt lat="43.7268517" lon="12.5168517"><ele>249.0</ele><time>2026-04-25T08:49:24.534Z</time></trkpt><trkpt lat="43.72667" lon="12.51665"><ele>249.75</ele><time>2026-04-25T08:49:26.536Z</time></trkpt><trkpt lat="43.7265917" lon="12.5165233"><ele>250.5</ele><time>2026-04-25T08:49:27.534Z</time></trkpt><trkpt lat="43.7265017" lon="12.5163817"><ele>251.25</ele><time>2026-04-25T08:49:28.534Z</time></trkpt><trkpt lat="43.7264167" lon="12.51622"><ele>252.0</ele><time>2026-04-25T08:49:29.535Z</time></trkpt><trkpt lat="43.7263467" lon="12.5160483"><ele>252.0</ele><time>2026-04-25T08:49:30.534Z</time></trkpt><trkpt lat="43.72629" lon="12.515885"><ele>252.0</ele><time>2026-04-25T08:49:31.535Z</time></trkpt><trkpt lat="43.72624" lon="12.5157367"><ele>252.0</ele><time>2026-04-25T08:49:32.531Z</time></trkpt><trkpt lat="43.7261833" lon="12.5155917"><ele>252.0</ele><time>2026-04-25T08:49:33.534Z</time></trkpt><trkpt lat="43.7261217" lon="12.5154517"><ele>253.39999999999998</ele><time>2026-04-25T08:49:34.534Z</time></trkpt><trkpt lat="43.726045" lon="12.5153383"><ele>254.79999999999998</ele><time>2026-04-25T08:49:35.534Z</time></trkpt><trkpt lat="43.7259583" lon="12.5152583"><ele>256.2</ele><time>2026-04-25T08:49:36.532Z</time></trkpt><trkpt lat="43.7258683" lon="12.5151967"><ele>257.59999999999997</ele><time>2026-04-25T08:49:37.536Z</time></trkpt><trkpt lat="43.7257817" lon="12.5151417"><ele>259.0</ele><time>2026-04-25T08:49:38.534Z</time></trkpt><trkpt lat="43.7257067" lon="12.5150783"><ele>259.0</ele><time>2026-04-25T08:49:39.535Z</time></trkpt><trkpt lat="43.725655" lon="12.5149933"><ele>259.0</ele><time>2026-04-25T08:49:40.531Z</time></trkpt><trkpt lat="43.725635" lon="12.5148867"><ele>259.0</ele><time>2026-04-25T08:49:41.536Z</time></trkpt><trkpt lat="43.725635" lon="12.5147883"><ele>259.0</ele><time>2026-04-25T08:49:42.531Z</time></trkpt><trkpt lat="43.725675" lon="12.5147"><ele>259.0</ele><time>2026-04-25T08:49:43.532Z</time></trkpt><trkpt lat="43.7257217" lon="12.5146217"><ele>259.0</ele><time>2026-04-25T08:49:44.53Z</time></trkpt><trkpt lat="43.7258017" lon="12.5145517"><ele>258.59999999999997</ele><time>2026-04-25T08:49:45.535Z</time></trkpt><trkpt lat="43.7259233" lon="12.514395"><ele>258.2</ele><time>2026-04-25T08:49:47.535Z</time></trkpt><trkpt lat="43.72594" lon="12.5142983"><ele>257.79999999999995</ele><time>2026-04-25T08:49:48.534Z</time></trkpt><trkpt lat="43.7259533" lon="12.51419"><ele>257.4</ele><time>2026-04-25T08:49:49.535Z</time></trkpt><trkpt lat="43.7259267" lon="12.5140683"><ele>257.0</ele><time>2026-04-25T08:49:50.534Z</time></trkpt><trkpt lat="43.725875" lon="12.513895"><ele>257.5</ele><time>2026-04-25T08:49:51.534Z</time></trkpt><trkpt lat="43.725835" lon="12.5137233"><ele>258.0</ele><time>2026-04-25T08:49:52.535Z</time></trkpt><trkpt lat="43.7258033" lon="12.5135433"><ele>258.5</ele><time>2026-04-25T08:49:53.534Z</time></trkpt><trkpt lat="43.7257983" lon="12.51338"><ele>259.0</ele><time>2026-04-25T08:49:54.534Z</time></trkpt><trkpt lat="43.7257933" lon="12.5132433"><ele>259.0</ele><time>2026-04-25T08:49:55.532Z</time></trkpt><trkpt lat="43.725775" lon="12.5131183"><ele>259.0</ele><time>2026-04-25T08:49:56.531Z</time></trkpt><trkpt lat="43.72574" lon="12.5130167"><ele>259.0</ele><time>2026-04-25T08:49:57.534Z</time></trkpt><trkpt lat="43.725685" lon="12.5129367"><ele>259.0</ele><time>2026-04-25T08:49:58.534Z</time></trkpt><trkpt lat="43.7256067" lon="12.51288"><ele>259.0</ele><time>2026-04-25T08:49:59.534Z</time></trkpt><trkpt lat="43.7255117" lon="12.5128317"><ele>259.0</ele><time>2026-04-25T08:50:00.534Z</time></trkpt><trkpt lat="43.7254017" lon="12.5127783"><ele>259.5</ele><time>2026-04-25T08:50:01.535Z</time></trkpt><trkpt lat="43.725285" lon="12.51271"><ele>260.0</ele><time>2026-04-25T08:50:02.535Z</time></trkpt><trkpt lat="43.7251967" lon="12.5126067"><ele>260.5</ele><time>2026-04-25T08:50:03.532Z</time></trkpt><trkpt lat="43.7251417" lon="12.512475"><ele>261.0</ele><time>2026-04-25T08:50:04.531Z</time></trkpt><trkpt lat="43.7251217" lon="12.51231"><ele>261.6666666666667</ele><time>2026-04-25T08:50:05.531Z</time></trkpt><trkpt lat="43.7251133" lon="12.51213"><ele>262.33333333333337</ele><time>2026-04-25T08:50:06.532Z</time></trkpt><trkpt lat="43.725085" lon="12.5117367"><ele>263.0</ele><time>2026-04-25T08:50:08.533Z</time></trkpt><trkpt lat="43.725045" lon="12.511535"><ele>263.0</ele><time>2026-04-25T08:50:09.532Z</time></trkpt><trkpt lat="43.7249967" lon="12.5113333"><ele>263.0</ele><time>2026-04-25T08:50:10.531Z</time></trkpt><trkpt lat="43.7249417" lon="12.511145"><ele>263.0</ele><time>2026-04-25T08:50:11.531Z</time></trkpt><trkpt lat="43.7248867" lon="12.5109717"><ele>263.0</ele><time>2026-04-25T08:50:12.532Z</time></trkpt><trkpt lat="43.7248367" lon="12.5108133"><ele>262.6</ele><time>2026-04-25T08:50:13.534Z</time></trkpt><trkpt lat="43.7247967" lon="12.5106583"><ele>262.20000000000005</ele><time>2026-04-25T08:50:14.532Z</time></trkpt><trkpt lat="43.7247717" lon="12.5105233"><ele>261.8</ele><time>2026-04-25T08:50:15.532Z</time></trkpt><trkpt lat="43.7247717" lon="12.5104067"><ele>261.40000000000003</ele><time>2026-04-25T08:50:16.534Z</time></trkpt><trkpt lat="43.72479" lon="12.51031"><ele>261.0</ele><time>2026-04-25T08:50:17.531Z</time></trkpt><trkpt lat="43.7248117" lon="12.5102117"><ele>261.8333333333333</ele><time>2026-04-25T08:50:18.535Z</time></trkpt><trkpt lat="43.72481" lon="12.5101217"><ele>262.6666666666667</ele><time>2026-04-25T08:50:19.534Z</time></trkpt><trkpt lat="43.7247883" lon="12.510035"><ele>263.5</ele><time>2026-04-25T08:50:20.531Z</time></trkpt><trkpt lat="43.72474" lon="12.5099433"><ele>264.33333333333337</ele><time>2026-04-25T08:50:21.531Z</time></trkpt><trkpt lat="43.7246667" lon="12.509845"><ele>265.1666666666667</ele><time>2026-04-25T08:50:22.531Z</time></trkpt><trkpt lat="43.724575" lon="12.509735"><ele>266.0</ele><time>2026-04-25T08:50:23.534Z</time></trkpt><trkpt lat="43.7244783" lon="12.50962"><ele>266.5</ele><time>2026-04-25T08:50:24.534Z</time></trkpt><trkpt lat="43.72438" lon="12.50949"><ele>267.0</ele><time>2026-04-25T08:50:25.535Z</time></trkpt><trkpt lat="43.7242817" lon="12.50935"><ele>267.5</ele><time>2026-04-25T08:50:26.531Z</time></trkpt><trkpt lat="43.7241917" lon="12.5092083"><ele>268.0</ele><time>2026-04-25T08:50:27.532Z</time></trkpt><trkpt lat="43.724015" lon="12.5089017"><ele>268.0</ele><time>2026-04-25T08:50:29.533Z</time></trkpt><trkpt lat="43.7239267" lon="12.5087517"><ele>268.0</ele><time>2026-04-25T08:50:30.534Z</time></trkpt><trkpt lat="43.7238417" lon="12.5085867"><ele>268.0</ele><time>2026-04-25T08:50:31.532Z</time></trkpt><trkpt lat="43.7237667" lon="12.5083983"><ele>268.0</ele><time>2026-04-25T08:50:32.532Z</time></trkpt><trkpt lat="43.723705" lon="12.5081933"><ele>268.75</ele><time>2026-04-25T08:50:33.534Z</time></trkpt><trkpt lat="43.7236567" lon="12.507985"><ele>269.5</ele><time>2026-04-25T08:50:34.535Z</time></trkpt><trkpt lat="43.7236133" lon="12.50779"><ele>270.25</ele><time>2026-04-25T08:50:35.532Z</time></trkpt><trkpt lat="43.723565" lon="12.5076083"><ele>271.0</ele><time>2026-04-25T08:50:36.534Z</time></trkpt><trkpt lat="43.7235067" lon="12.50745"><ele>271.0</ele><time>2026-04-25T08:50:37.534Z</time></trkpt><trkpt lat="43.7234317" lon="12.507305"><ele>271.0</ele><time>2026-04-25T08:50:38.532Z</time></trkpt><trkpt lat="43.72334" lon="12.507165"><ele>271.0</ele><time>2026-04-25T08:50:39.535Z</time></trkpt><trkpt lat="43.7232367" lon="12.5070233"><ele>271.0</ele><time>2026-04-25T08:50:40.535Z</time></trkpt><trkpt lat="43.72313" lon="12.5068783"><ele>271.0</ele><time>2026-04-25T08:50:41.534Z</time></trkpt><trkpt lat="43.7230167" lon="12.5067333"><ele>271.0</ele><time>2026-04-25T08:50:42.536Z</time></trkpt><trkpt lat="43.7229033" lon="12.5065783"><ele>271.0</ele><time>2026-04-25T08:50:43.534Z</time></trkpt><trkpt lat="43.722795" lon="12.5064267"><ele>271.25</ele><time>2026-04-25T08:50:44.532Z</time></trkpt><trkpt lat="43.7226967" lon="12.50628"><ele>271.5</ele><time>2026-04-25T08:50:45.534Z</time></trkpt><trkpt lat="43.7226183" lon="12.5061217"><ele>271.75</ele><time>2026-04-25T08:50:46.534Z</time></trkpt><trkpt lat="43.72255" lon="12.5059667"><ele>272.0</ele><time>2026-04-25T08:50:47.534Z</time></trkpt><trkpt lat="43.7225033" lon="12.5058133"><ele>272.0</ele><time>2026-04-25T08:50:48.534Z</time></trkpt><trkpt lat="43.7224333" lon="12.5055283"><ele>272.0</ele><time>2026-04-25T08:50:50.532Z</time></trkpt><trkpt lat="43.722385" lon="12.5054233"><ele>272.0</ele><time>2026-04-25T08:50:51.535Z</time></trkpt><trkpt lat="43.7223183" lon="12.5053433"><ele>272.0</ele><time>2026-04-25T08:50:52.534Z</time></trkpt><trkpt lat="43.7222383" lon="12.50528"><ele>273.75</ele><time>2026-04-25T08:50:53.534Z</time></trkpt><trkpt lat="43.72213" lon="12.5052383"><ele>275.5</ele><time>2026-04-25T08:50:54.535Z</time></trkpt><trkpt lat="43.7220067" lon="12.505215"><ele>277.25</ele><time>2026-04-25T08:50:55.531Z</time></trkpt><trkpt lat="43.721875" lon="12.5052083"><ele>279.0</ele><time>2026-04-25T08:50:56.535Z</time></trkpt><trkpt lat="43.721745" lon="12.5052167"><ele>279.0</ele><time>2026-04-25T08:50:57.535Z</time></trkpt><trkpt lat="43.721625" lon="12.5052267"><ele>279.0</ele><time>2026-04-25T08:50:58.535Z</time></trkpt><trkpt lat="43.7215133" lon="12.50522"><ele>279.0</ele><time>2026-04-25T08:50:59.535Z</time></trkpt><trkpt lat="43.7214117" lon="12.5051883"><ele>279.0</ele><time>2026-04-25T08:51:00.533Z</time></trkpt><trkpt lat="43.7213267" lon="12.505105"><ele>279.0</ele><time>2026-04-25T08:51:01.535Z</time></trkpt><trkpt lat="43.721255" lon="12.5049583"><ele>279.0</ele><time>2026-04-25T08:51:02.534Z</time></trkpt><trkpt lat="43.721185" lon="12.5048017"><ele>279.0</ele><time>2026-04-25T08:51:03.534Z</time></trkpt><trkpt lat="43.7211233" lon="12.5046233"><ele>279.0</ele><time>2026-04-25T08:51:04.536Z</time></trkpt><trkpt lat="43.7210683" lon="12.50443"><ele>279.0</ele><time>2026-04-25T08:51:05.535Z</time></trkpt><trkpt lat="43.72102" lon="12.5042367"><ele>279.0</ele><time>2026-04-25T08:51:06.535Z</time></trkpt><trkpt lat="43.720985" lon="12.5040467"><ele>279.0</ele><time>2026-04-25T08:51:07.535Z</time></trkpt><trkpt lat="43.7209617" lon="12.5038767"><ele>279.0</ele><time>2026-04-25T08:51:08.535Z</time></trkpt><trkpt lat="43.7209467" lon="12.5037283"><ele>279.0</ele><time>2026-04-25T08:51:09.534Z</time></trkpt><trkpt lat="43.7208767" lon="12.5035067"><ele>279.0</ele><time>2026-04-25T08:51:11.534Z</time></trkpt><trkpt lat="43.7208067" lon="12.5034217"><ele>279.0</ele><time>2026-04-25T08:51:12.534Z</time></trkpt><trkpt lat="43.7206983" lon="12.50335"><ele>279.0</ele><time>2026-04-25T08:51:13.534Z</time></trkpt><trkpt lat="43.7205733" lon="12.5032767"><ele>279.0</ele><time>2026-04-25T08:51:14.534Z</time></trkpt><trkpt lat="43.7204517" lon="12.5032117"><ele>279.0</ele><time>2026-04-25T08:51:15.534Z</time></trkpt><trkpt lat="43.7203367" lon="12.50315"><ele>279.0</ele><time>2026-04-25T08:51:16.534Z</time></trkpt><trkpt lat="43.7202333" lon="12.5030683"><ele>279.0</ele><time>2026-04-25T08:51:17.531Z</time></trkpt><trkpt lat="43.72013" lon="12.5029617"><ele>279.0</ele><time>2026-04-25T08:51:18.535Z</time></trkpt><trkpt lat="43.72002" lon="12.5028583"><ele>281.3333333333333</ele><time>2026-04-25T08:51:19.535Z</time></trkpt><trkpt lat="43.7198917" lon="12.5027667"><ele>283.66666666666663</ele><time>2026-04-25T08:51:20.535Z</time></trkpt><trkpt lat="43.7197417" lon="12.50269"><ele>286.0</ele><time>2026-04-25T08:51:21.534Z</time></trkpt><trkpt lat="43.7195883" lon="12.50262"><ele>286.0</ele><time>2026-04-25T08:51:22.535Z</time></trkpt><trkpt lat="43.719445" lon="12.5025583"><ele>286.0</ele><time>2026-04-25T08:51:23.532Z</time></trkpt><trkpt lat="43.71931" lon="12.5025033"><ele>286.0</ele><time>2026-04-25T08:51:24.536Z</time></trkpt><trkpt lat="43.719185" lon="12.5024483"><ele>286.0</ele><time>2026-04-25T08:51:25.534Z</time></trkpt><trkpt lat="43.719075" lon="12.50239"><ele>285.2</ele><time>2026-04-25T08:51:26.535Z</time></trkpt><trkpt lat="43.7189767" lon="12.5023267"><ele>284.40000000000003</ele><time>2026-04-25T08:51:27.534Z</time></trkpt><trkpt lat="43.7188883" lon="12.502245"><ele>283.6</ele><time>2026-04-25T08:51:28.535Z</time></trkpt><trkpt lat="43.7188217" lon="12.5021383"><ele>282.8</ele><time>2026-04-25T08:51:29.534Z</time></trkpt><trkpt lat="43.7187767" lon="12.5020033"><ele>282.0</ele><time>2026-04-25T08:51:30.534Z</time></trkpt><trkpt lat="43.718745" lon="12.5017083"><ele>282.0</ele><time>2026-04-25T08:51:32.531Z</time></trkpt><trkpt lat="43.718725" lon="12.5015767"><ele>282.0</ele><time>2026-04-25T08:51:33.537Z</time></trkpt><trkpt lat="43.7186817" lon="12.5014633"><ele>282.0</ele><time>2026-04-25T08:51:34.535Z</time></trkpt><trkpt lat="43.7186233" lon="12.5013667"><ele>282.0</ele><time>2026-04-25T08:51:35.532Z</time></trkpt><trkpt lat="43.71855" lon="12.5012883"><ele>282.0</ele><time>2026-04-25T08:51:36.535Z</time></trkpt><trkpt lat="43.7184467" lon="12.50123"><ele>281.8</ele><time>2026-04-25T08:51:37.538Z</time></trkpt><trkpt lat="43.7183433" lon="12.5011717"><ele>281.6</ele><time>2026-04-25T08:51:38.534Z</time></trkpt><trkpt lat="43.7182417" lon="12.5011083"><ele>281.40000000000003</ele><time>2026-04-25T08:51:39.534Z</time></trkpt><trkpt lat="43.718145" lon="12.5010467"><ele>281.2</ele><time>2026-04-25T08:51:40.531Z</time></trkpt><trkpt lat="43.718065" lon="12.5009783"><ele>281.0</ele><time>2026-04-25T08:51:41.533Z</time></trkpt><trkpt lat="43.7179933" lon="12.5009017"><ele>281.0</ele><time>2026-04-25T08:51:42.534Z</time></trkpt><trkpt lat="43.7179183" lon="12.5008183"><ele>281.0</ele><time>2026-04-25T08:51:43.535Z</time></trkpt><trkpt lat="43.7178317" lon="12.5007467"><ele>281.0</ele><time>2026-04-25T08:51:44.535Z</time></trkpt><trkpt lat="43.7177283" lon="12.50069"><ele>281.0</ele><time>2026-04-25T08:51:45.531Z</time></trkpt><trkpt lat="43.7176133" lon="12.5006483"><ele>281.0</ele><time>2026-04-25T08:51:46.532Z</time></trkpt><trkpt lat="43.7174817" lon="12.5006033"><ele>280.75</ele><time>2026-04-25T08:51:47.533Z</time></trkpt><trkpt lat="43.717345" lon="12.5005383"><ele>280.5</ele><time>2026-04-25T08:51:48.533Z</time></trkpt><trkpt lat="43.7172183" lon="12.5004533"><ele>280.25</ele><time>2026-04-25T08:51:49.535Z</time></trkpt><trkpt lat="43.717095" lon="12.50035"><ele>280.0</ele><time>2026-04-25T08:51:50.535Z</time></trkpt><trkpt lat="43.71698" lon="12.5002317"><ele>282.66666666666663</ele><time>2026-04-25T08:51:51.532Z</time></trkpt><trkpt lat="43.7167683" lon="12.4999767"><ele>285.3333333333333</ele><time>2026-04-25T08:51:53.533Z</time></trkpt><trkpt lat="43.7166783" lon="12.49986"><ele>288.0</ele><time>2026-04-25T08:51:54.535Z</time></trkpt><trkpt lat="43.7166017" lon="12.4997633"><ele>288.0</ele><time>2026-04-25T08:51:55.532Z</time></trkpt><trkpt lat="43.7165467" lon="12.4996983"><ele>288.0</ele><time>2026-04-25T08:51:56.533Z</time></trkpt><trkpt lat="43.7164267" lon="12.49962"><ele>288.0</ele><time>2026-04-25T08:51:58.535Z</time></trkpt><trkpt lat="43.7163383" lon="12.4995817"><ele>288.0</ele><time>2026-04-25T08:51:59.534Z</time></trkpt><trkpt lat="43.7162417" lon="12.4995517"><ele>288.0</ele><time>2026-04-25T08:52:00.536Z</time></trkpt><trkpt lat="43.7161417" lon="12.4995333"><ele>291.4</ele><time>2026-04-25T08:52:01.533Z</time></trkpt><trkpt lat="43.71604" lon="12.4995333"><ele>294.8</ele><time>2026-04-25T08:52:02.533Z</time></trkpt><trkpt lat="43.71595" lon="12.4995467"><ele>298.2</ele><time>2026-04-25T08:52:03.532Z</time></trkpt><trkpt lat="43.715865" lon="12.4995633"><ele>301.6</ele><time>2026-04-25T08:52:04.534Z</time></trkpt><trkpt lat="43.7157783" lon="12.499575"><ele>305.0</ele><time>2026-04-25T08:52:05.535Z</time></trkpt><trkpt lat="43.7156917" lon="12.499575"><ele>305.0</ele><time>2026-04-25T08:52:06.535Z</time></trkpt><trkpt lat="43.7156" lon="12.499525"><ele>305.0</ele><time>2026-04-25T08:52:07.532Z</time></trkpt><trkpt lat="43.715515" lon="12.4994383"><ele>305.0</ele><time>2026-04-25T08:52:08.535Z</time></trkpt><trkpt lat="43.7154283" lon="12.4993583"><ele>305.0</ele><time>2026-04-25T08:52:09.534Z</time></trkpt><trkpt lat="43.7153483" lon="12.49926"><ele>305.0</ele><time>2026-04-25T08:52:10.535Z</time></trkpt><trkpt lat="43.7152733" lon="12.499145"><ele>302.5</ele><time>2026-04-25T08:52:11.536Z</time></trkpt><trkpt lat="43.7152" lon="12.49903"><ele>300.0</ele><time>2026-04-25T08:52:12.535Z</time></trkpt><trkpt lat="43.7150467" lon="12.49883"><ele>297.5</ele><time>2026-04-25T08:52:14.535Z</time></trkpt><trkpt lat="43.7149683" lon="12.498735"><ele>295.0</ele><time>2026-04-25T08:52:15.534Z</time></trkpt><trkpt lat="43.7148917" lon="12.498645"><ele>295.0</ele><time>2026-04-25T08:52:16.535Z</time></trkpt><trkpt lat="43.714825" lon="12.4985517"><ele>295.0</ele><time>2026-04-25T08:52:17.532Z</time></trkpt><trkpt lat="43.7147633" lon="12.4984383"><ele>295.0</ele><time>2026-04-25T08:52:18.534Z</time></trkpt><trkpt lat="43.7147017" lon="12.4983067"><ele>295.0</ele><time>2026-04-25T08:52:19.533Z</time></trkpt><trkpt lat="43.7146283" lon="12.4981683"><ele>295.0</ele><time>2026-04-25T08:52:20.532Z</time></trkpt><trkpt lat="43.714545" lon="12.49804"><ele>296.6</ele><time>2026-04-25T08:52:21.533Z</time></trkpt><trkpt lat="43.7144667" lon="12.497915"><ele>298.2</ele><time>2026-04-25T08:52:22.534Z</time></trkpt><trkpt lat="43.7143983" lon="12.4977983"><ele>299.8</ele><time>2026-04-25T08:52:23.532Z</time></trkpt><trkpt lat="43.7143367" lon="12.4976833"><ele>301.4</ele><time>2026-04-25T08:52:24.534Z</time></trkpt><trkpt lat="43.714275" lon="12.497585"><ele>303.0</ele><time>2026-04-25T08:52:25.533Z</time></trkpt><trkpt lat="43.7142017" lon="12.4974983"><ele>300.2</ele><time>2026-04-25T08:52:26.532Z</time></trkpt><trkpt lat="43.7141233" lon="12.4974033"><ele>297.4</ele><time>2026-04-25T08:52:27.533Z</time></trkpt><trkpt lat="43.714055" lon="12.497295"><ele>294.59999999999997</ele><time>2026-04-25T08:52:28.536Z</time></trkpt><trkpt lat="43.7139833" lon="12.4971783"><ele>291.8</ele><time>2026-04-25T08:52:29.534Z</time></trkpt><trkpt lat="43.7139083" lon="12.4970667"><ele>289.0</ele><time>2026-04-25T08:52:30.534Z</time></trkpt><trkpt lat="43.713835" lon="12.4969617"><ele>289.0</ele><time>2026-04-25T08:52:31.534Z</time></trkpt><trkpt lat="43.7137617" lon="12.4968733"><ele>289.0</ele><time>2026-04-25T08:52:32.534Z</time></trkpt><trkpt lat="43.7136917" lon="12.49679"><ele>289.0</ele><time>2026-04-25T08:52:33.534Z</time></trkpt><trkpt lat="43.7135267" lon="12.496665"><ele>289.0</ele><time>2026-04-25T08:52:35.536Z</time></trkpt><trkpt lat="43.7134183" lon="12.4966267"><ele>288.75</ele><time>2026-04-25T08:52:36.535Z</time></trkpt><trkpt lat="43.7132917" lon="12.4966017"><ele>288.5</ele><time>2026-04-25T08:52:37.533Z</time></trkpt><trkpt lat="43.713155" lon="12.4965817"><ele>288.25</ele><time>2026-04-25T08:52:38.532Z</time></trkpt><trkpt lat="43.7130133" lon="12.4965567"><ele>288.0</ele><time>2026-04-25T08:52:39.532Z</time></trkpt><trkpt lat="43.71288" lon="12.4965167"><ele>288.0</ele><time>2026-04-25T08:52:40.534Z</time></trkpt><trkpt lat="43.712755" lon="12.496465"><ele>288.0</ele><time>2026-04-25T08:52:41.533Z</time></trkpt><trkpt lat="43.71264" lon="12.496405"><ele>288.0</ele><time>2026-04-25T08:52:42.534Z</time></trkpt><trkpt lat="43.7125333" lon="12.49634"><ele>288.0</ele><time>2026-04-25T08:52:43.533Z</time></trkpt><trkpt lat="43.712435" lon="12.49629"><ele>288.4</ele><time>2026-04-25T08:52:44.534Z</time></trkpt><trkpt lat="43.7123383" lon="12.4962683"><ele>288.8</ele><time>2026-04-25T08:52:45.535Z</time></trkpt><trkpt lat="43.7122433" lon="12.4962883"><ele>289.2</ele><time>2026-04-25T08:52:46.533Z</time></trkpt><trkpt lat="43.7121483" lon="12.4963367"><ele>289.6</ele><time>2026-04-25T08:52:47.53Z</time></trkpt><trkpt lat="43.712055" lon="12.4963983"><ele>290.0</ele><time>2026-04-25T08:52:48.531Z</time></trkpt><trkpt lat="43.7119567" lon="12.496445"><ele>290.6</ele><time>2026-04-25T08:52:49.531Z</time></trkpt><trkpt lat="43.7118517" lon="12.496465"><ele>291.2</ele><time>2026-04-25T08:52:50.531Z</time></trkpt><trkpt lat="43.7117383" lon="12.4964567"><ele>291.8</ele><time>2026-04-25T08:52:51.531Z</time></trkpt><trkpt lat="43.7116283" lon="12.4964217"><ele>292.4</ele><time>2026-04-25T08:52:52.532Z</time></trkpt><trkpt lat="43.7115333" lon="12.4963517"><ele>293.0</ele><time>2026-04-25T08:52:53.531Z</time></trkpt><trkpt lat="43.7114467" lon="12.4962433"><ele>293.0</ele><time>2026-04-25T08:52:54.532Z</time></trkpt><trkpt lat="43.7113033" lon="12.4959433"><ele>293.0</ele><time>2026-04-25T08:52:56.53Z</time></trkpt><trkpt lat="43.7112417" lon="12.4957783"><ele>293.0</ele><time>2026-04-25T08:52:57.531Z</time></trkpt><trkpt lat="43.71117" lon="12.495615"><ele>293.0</ele><time>2026-04-25T08:52:58.534Z</time></trkpt><trkpt lat="43.71108" lon="12.4954583"><ele>293.0</ele><time>2026-04-25T08:52:59.535Z</time></trkpt><trkpt lat="43.7109933" lon="12.4953117"><ele>293.0</ele><time>2026-04-25T08:53:00.535Z</time></trkpt><trkpt lat="43.7108967" lon="12.4951733"><ele>293.0</ele><time>2026-04-25T08:53:01.535Z</time></trkpt><trkpt lat="43.7107883" lon="12.49505"><ele>293.0</ele><time>2026-04-25T08:53:02.533Z</time></trkpt><trkpt lat="43.7106917" lon="12.4949183"><ele>293.0</ele><time>2026-04-25T08:53:03.534Z</time></trkpt><trkpt lat="43.7105983" lon="12.49478"><ele>293.0</ele><time>2026-04-25T08:53:04.534Z</time></trkpt><trkpt lat="43.710505" lon="12.4946433"><ele>293.0</ele><time>2026-04-25T08:53:05.533Z</time></trkpt><trkpt lat="43.7104133" lon="12.4945033"><ele>293.5</ele><time>2026-04-25T08:53:06.533Z</time></trkpt><trkpt lat="43.710335" lon="12.4943567"><ele>294.0</ele><time>2026-04-25T08:53:07.536Z</time></trkpt><trkpt lat="43.7102717" lon="12.4942017"><ele>294.5</ele><time>2026-04-25T08:53:08.534Z</time></trkpt><trkpt lat="43.710215" lon="12.494055"><ele>295.0</ele><time>2026-04-25T08:53:09.534Z</time></trkpt><trkpt lat="43.7101483" lon="12.493915"><ele>295.0</ele><time>2026-04-25T08:53:10.534Z</time></trkpt><trkpt lat="43.7100733" lon="12.49379"><ele>295.0</ele><time>2026-04-25T08:53:11.534Z</time></trkpt><trkpt lat="43.7099833" lon="12.4936867"><ele>295.0</ele><time>2026-04-25T08:53:12.534Z</time></trkpt><trkpt lat="43.7098767" lon="12.4936167"><ele>295.0</ele><time>2026-04-25T08:53:13.534Z</time></trkpt><trkpt lat="43.709765" lon="12.49358"><ele>294.75</ele><time>2026-04-25T08:53:14.534Z</time></trkpt><trkpt lat="43.7096617" lon="12.49356"><ele>294.5</ele><time>2026-04-25T08:53:15.534Z</time></trkpt><trkpt lat="43.7094633" lon="12.4934633"><ele>294.25</ele><time>2026-04-25T08:53:17.531Z</time></trkpt><trkpt lat="43.70938" lon="12.4933717"><ele>294.0</ele><time>2026-04-25T08:53:18.531Z</time></trkpt><trkpt lat="43.7093067" lon="12.4932617"><ele>294.0</ele><time>2026-04-25T08:53:19.531Z</time></trkpt><trkpt lat="43.7092433" lon="12.4931517"><ele>294.0</ele><time>2026-04-25T08:53:20.53Z</time></trkpt><trkpt lat="43.7091883" lon="12.4930583"><ele>294.0</ele><time>2026-04-25T08:53:21.532Z</time></trkpt><trkpt lat="43.7091333" lon="12.4929817"><ele>294.0</ele><time>2026-04-25T08:53:22.531Z</time></trkpt><trkpt lat="43.7090783" lon="12.492925"><ele>294.0</ele><time>2026-04-25T08:53:23.534Z</time></trkpt><trkpt lat="43.7090183" lon="12.4928933"><ele>294.0</ele><time>2026-04-25T08:53:24.535Z</time></trkpt><trkpt lat="43.7089317" lon="12.4928983"><ele>294.0</ele><time>2026-04-25T08:53:25.534Z</time></trkpt><trkpt lat="43.7088133" lon="12.4929333"><ele>294.0</ele><time>2026-04-25T08:53:26.534Z</time></trkpt><trkpt lat="43.708675" lon="12.49298"><ele>294.0</ele><time>2026-04-25T08:53:27.535Z</time></trkpt><trkpt lat="43.7085267" lon="12.4930283"><ele>294.0</ele><time>2026-04-25T08:53:28.534Z</time></trkpt><trkpt lat="43.70836" lon="12.4930883"><ele>296.6666666666667</ele><time>2026-04-25T08:53:29.533Z</time></trkpt><trkpt lat="43.7081883" lon="12.4931583"><ele>299.33333333333337</ele><time>2026-04-25T08:53:30.535Z</time></trkpt><trkpt lat="43.70801" lon="12.4932333"><ele>302.0</ele><time>2026-04-25T08:53:31.533Z</time></trkpt><trkpt lat="43.707825" lon="12.493315"><ele>304.33333333333337</ele><time>2026-04-25T08:53:32.534Z</time></trkpt><trkpt lat="43.7076517" lon="12.4934167"><ele>306.6666666666667</ele><time>2026-04-25T08:53:33.534Z</time></trkpt><trkpt lat="43.7074933" lon="12.4935417"><ele>309.0</ele><time>2026-04-25T08:53:34.534Z</time></trkpt><trkpt lat="43.7073433" lon="12.49369"><ele>307.5</ele><time>2026-04-25T08:53:35.533Z</time></trkpt><trkpt lat="43.70721" lon="12.49385"><ele>306.0</ele><time>2026-04-25T08:53:36.533Z</time></trkpt><trkpt lat="43.7069717" lon="12.4941833"><ele>309.5</ele><time>2026-04-25T08:53:38.535Z</time></trkpt><trkpt lat="43.706865" lon="12.49433"><ele>313.0</ele><time>2026-04-25T08:53:39.534Z</time></trkpt><trkpt lat="43.7067617" lon="12.4944483"><ele>316.5</ele><time>2026-04-25T08:53:40.534Z</time></trkpt><trkpt lat="43.7066583" lon="12.4945317"><ele>320.0</ele><time>2026-04-25T08:53:41.533Z</time></trkpt><trkpt lat="43.706555" lon="12.4945667"><ele>320.0</ele><time>2026-04-25T08:53:42.534Z</time></trkpt><trkpt lat="43.7064533" lon="12.494555"><ele>320.0</ele><time>2026-04-25T08:53:43.534Z</time></trkpt><trkpt lat="43.7063667" lon="12.4944933"><ele>320.0</ele><time>2026-04-25T08:53:44.534Z</time></trkpt><trkpt lat="43.7063083" lon="12.4943883"><ele>320.0</ele><time>2026-04-25T08:53:45.534Z</time></trkpt><trkpt lat="43.7062717" lon="12.4942667"><ele>320.0</ele><time>2026-04-25T08:53:46.531Z</time></trkpt><trkpt lat="43.7062683" lon="12.49411"><ele>320.0</ele><time>2026-04-25T08:53:47.531Z</time></trkpt><trkpt lat="43.7062783" lon="12.4939417"><ele>320.0</ele><time>2026-04-25T08:53:48.53Z</time></trkpt><trkpt lat="43.70629" lon="12.49377"><ele>320.0</ele><time>2026-04-25T08:53:49.533Z</time></trkpt><trkpt lat="43.7062883" lon="12.49361"><ele>320.0</ele><time>2026-04-25T08:53:50.531Z</time></trkpt><trkpt lat="43.7062583" lon="12.4934633"><ele>320.4</ele><time>2026-04-25T08:53:51.53Z</time></trkpt><trkpt lat="43.7062" lon="12.493355"><ele>320.8</ele><time>2026-04-25T08:53:52.532Z</time></trkpt><trkpt lat="43.7061183" lon="12.4933"><ele>321.20000000000005</ele><time>2026-04-25T08:53:53.535Z</time></trkpt><trkpt lat="43.7060317" lon="12.49328"><ele>321.6</ele><time>2026-04-25T08:53:54.535Z</time></trkpt><trkpt lat="43.70593" lon="12.493305"><ele>322.0</ele><time>2026-04-25T08:53:55.535Z</time></trkpt><trkpt lat="43.705815" lon="12.4933867"><ele>325.5</ele><time>2026-04-25T08:53:56.535Z</time></trkpt><trkpt lat="43.7056983" lon="12.4935117"><ele>329.0</ele><time>2026-04-25T08:53:57.534Z</time></trkpt><trkpt lat="43.7054683" lon="12.4938183"><ele>329.0</ele><time>2026-04-25T08:53:59.534Z</time></trkpt><trkpt lat="43.7053683" lon="12.49397"><ele>329.0</ele><time>2026-04-25T08:54:00.53Z</time></trkpt><trkpt lat="43.705275" lon="12.4941233"><ele>329.0</ele><time>2026-04-25T08:54:01.534Z</time></trkpt><trkpt lat="43.7051867" lon="12.4942833"><ele>329.0</ele><time>2026-04-25T08:54:02.534Z</time></trkpt><trkpt lat="43.7050967" lon="12.494445"><ele>331.0</ele><time>2026-04-25T08:54:03.534Z</time></trkpt><trkpt lat="43.7050067" lon="12.4946"><ele>333.0</ele><time>2026-04-25T08:54:04.535Z</time></trkpt><trkpt lat="43.704915" lon="12.4947517"><ele>335.0</ele><time>2026-04-25T08:54:05.536Z</time></trkpt><trkpt lat="43.704825" lon="12.49489"><ele>337.0</ele><time>2026-04-25T08:54:06.534Z</time></trkpt><trkpt lat="43.7047317" lon="12.495005"><ele>337.0</ele><time>2026-04-25T08:54:07.535Z</time></trkpt><trkpt lat="43.7046317" lon="12.49508"><ele>337.0</ele><time>2026-04-25T08:54:08.535Z</time></trkpt><trkpt lat="43.7045317" lon="12.4951117"><ele>337.0</ele><time>2026-04-25T08:54:09.534Z</time></trkpt><trkpt lat="43.7044367" lon="12.4951167"><ele>337.0</ele><time>2026-04-25T08:54:10.534Z</time></trkpt><trkpt lat="43.70435" lon="12.4950883"><ele>337.0</ele><time>2026-04-25T08:54:11.535Z</time></trkpt><trkpt lat="43.7042667" lon="12.4950233"><ele>339.20000000000005</ele><time>2026-04-25T08:54:12.534Z</time></trkpt><trkpt lat="43.7042033" lon="12.494925"><ele>341.4</ele><time>2026-04-25T08:54:13.534Z</time></trkpt><trkpt lat="43.7041583" lon="12.494805"><ele>343.6</ele><time>2026-04-25T08:54:14.534Z</time></trkpt><trkpt lat="43.704145" lon="12.494675"><ele>345.79999999999995</ele><time>2026-04-25T08:54:15.534Z</time></trkpt><trkpt lat="43.7041567" lon="12.4945483"><ele>348.0</ele><time>2026-04-25T08:54:16.534Z</time></trkpt><trkpt lat="43.7042083" lon="12.4944217"><ele>346.3333333333333</ele><time>2026-04-25T08:54:17.534Z</time></trkpt><trkpt lat="43.7042983" lon="12.4942917"><ele>344.66666666666663</ele><time>2026-04-25T08:54:18.534Z</time></trkpt><trkpt lat="43.7044933" lon="12.493995"><ele>343.0</ele><time>2026-04-25T08:54:20.534Z</time></trkpt><trkpt lat="43.7045833" lon="12.4938333"><ele>345.0</ele><time>2026-04-25T08:54:21.534Z</time></trkpt><trkpt lat="43.70466" lon="12.4936667"><ele>347.0</ele><time>2026-04-25T08:54:22.532Z</time></trkpt><trkpt lat="43.7047167" lon="12.4934817"><ele>349.0</ele><time>2026-04-25T08:54:23.534Z</time></trkpt><trkpt lat="43.7047617" lon="12.4932783"><ele>351.0</ele><time>2026-04-25T08:54:24.535Z</time></trkpt><trkpt lat="43.7048017" lon="12.4930717"><ele>354.25</ele><time>2026-04-25T08:54:25.534Z</time></trkpt><trkpt lat="43.7048417" lon="12.4928683"><ele>357.5</ele><time>2026-04-25T08:54:26.534Z</time></trkpt><trkpt lat="43.7048967" lon="12.4926683"><ele>360.75</ele><time>2026-04-25T08:54:27.532Z</time></trkpt><trkpt lat="43.7049567" lon="12.49249"><ele>364.0</ele><time>2026-04-25T08:54:28.532Z</time></trkpt><trkpt lat="43.7050083" lon="12.4923217"><ele>364.0</ele><time>2026-04-25T08:54:29.532Z</time></trkpt><trkpt lat="43.7050417" lon="12.4921583"><ele>364.0</ele><time>2026-04-25T08:54:30.531Z</time></trkpt><trkpt lat="43.70505" lon="12.491995"><ele>364.0</ele><time>2026-04-25T08:54:31.531Z</time></trkpt><trkpt lat="43.70503" lon="12.4918367"><ele>364.0</ele><time>2026-04-25T08:54:32.531Z</time></trkpt><trkpt lat="43.704985" lon="12.4916883"><ele>364.6</ele><time>2026-04-25T08:54:33.533Z</time></trkpt><trkpt lat="43.7049167" lon="12.4915583"><ele>365.2</ele><time>2026-04-25T08:54:34.531Z</time></trkpt><trkpt lat="43.70484" lon="12.4914583"><ele>365.8</ele><time>2026-04-25T08:54:35.532Z</time></trkpt><trkpt lat="43.704745" lon="12.4914017"><ele>366.40000000000003</ele><time>2026-04-25T08:54:36.532Z</time></trkpt><trkpt lat="43.70464" lon="12.49138"><ele>367.0</ele><time>2026-04-25T08:54:37.532Z</time></trkpt><trkpt lat="43.7045167" lon="12.4914017"><ele>370.0</ele><time>2026-04-25T08:54:38.532Z</time></trkpt><trkpt lat="43.7043933" lon="12.4914567"><ele>373.0</ele><time>2026-04-25T08:54:39.533Z</time></trkpt><trkpt lat="43.7041333" lon="12.49169"><ele>376.0</ele><time>2026-04-25T08:54:41.533Z</time></trkpt><trkpt lat="43.704" lon="12.4918133"><ele>376.0</ele><time>2026-04-25T08:54:42.531Z</time></trkpt><trkpt lat="43.703865" lon="12.4919317"><ele>376.0</ele><time>2026-04-25T08:54:43.533Z</time></trkpt><trkpt lat="43.7037267" lon="12.4920483"><ele>376.0</ele><time>2026-04-25T08:54:44.531Z</time></trkpt><trkpt lat="43.7035867" lon="12.492165"><ele>378.0</ele><time>2026-04-25T08:54:45.532Z</time></trkpt><trkpt lat="43.7034433" lon="12.4922817"><ele>380.0</ele><time>2026-04-25T08:54:46.534Z</time></trkpt><trkpt lat="43.7033" lon="12.4923917"><ele>382.0</ele><time>2026-04-25T08:54:47.534Z</time></trkpt><trkpt lat="43.70316" lon="12.4924833"><ele>382.0</ele><time>2026-04-25T08:54:48.535Z</time></trkpt><trkpt lat="43.703015" lon="12.4925467"><ele>382.0</ele><time>2026-04-25T08:54:49.534Z</time></trkpt><trkpt lat="43.7028567" lon="12.492585"><ele>382.0</ele><time>2026-04-25T08:54:50.535Z</time></trkpt><trkpt lat="43.7026917" lon="12.4926033"><ele>384.66666666666663</ele><time>2026-04-25T08:54:51.533Z</time></trkpt><trkpt lat="43.7025317" lon="12.492605"><ele>387.3333333333333</ele><time>2026-04-25T08:54:52.534Z</time></trkpt><trkpt lat="43.7023683" lon="12.492605"><ele>390.0</ele><time>2026-04-25T08:54:53.534Z</time></trkpt><trkpt lat="43.7022117" lon="12.492605"><ele>390.0</ele><time>2026-04-25T08:54:54.534Z</time></trkpt><trkpt lat="43.7020583" lon="12.492605"><ele>390.0</ele><time>2026-04-25T08:54:55.534Z</time></trkpt><trkpt lat="43.701905" lon="12.4925967"><ele>390.0</ele><time>2026-04-25T08:54:56.535Z</time></trkpt><trkpt lat="43.7017617" lon="12.4925633"><ele>392.0</ele><time>2026-04-25T08:54:57.534Z</time></trkpt><trkpt lat="43.7016383" lon="12.4925017"><ele>394.0</ele><time>2026-04-25T08:54:58.534Z</time></trkpt><trkpt lat="43.7015267" lon="12.4924067"><ele>396.0</ele><time>2026-04-25T08:54:59.533Z</time></trkpt><trkpt lat="43.7014233" lon="12.49228"><ele>398.0</ele><time>2026-04-25T08:55:00.534Z</time></trkpt><trkpt lat="43.70125" lon="12.4919333"><ele>399.5</ele><time>2026-04-25T08:55:02.534Z</time></trkpt><trkpt lat="43.7011667" lon="12.4917667"><ele>401.0</ele><time>2026-04-25T08:55:03.531Z</time></trkpt><trkpt lat="43.70109" lon="12.4916267"><ele>402.5</ele><time>2026-04-25T08:55:04.534Z</time></trkpt><trkpt lat="43.701005" lon="12.4915183"><ele>404.0</ele><time>2026-04-25T08:55:05.531Z</time></trkpt><trkpt lat="43.7009133" lon="12.4914533"><ele>406.25</ele><time>2026-04-25T08:55:06.535Z</time></trkpt><trkpt lat="43.7008233" lon="12.4914333"><ele>408.5</ele><time>2026-04-25T08:55:07.534Z</time></trkpt><trkpt lat="43.7007267" lon="12.49146"><ele>410.75</ele><time>2026-04-25T08:55:08.53Z</time></trkpt><trkpt lat="43.7006183" lon="12.4915533"><ele>413.0</ele><time>2026-04-25T08:55:09.534Z</time></trkpt><trkpt lat="43.7005083" lon="12.4916767"><ele>413.0</ele><time>2026-04-25T08:55:10.534Z</time></trkpt><trkpt lat="43.7004033" lon="12.4918333"><ele>413.0</ele><time>2026-04-25T08:55:11.53Z</time></trkpt><trkpt lat="43.7003033" lon="12.4920283"><ele>413.0</ele><time>2026-04-25T08:55:12.531Z</time></trkpt><trkpt lat="43.7002133" lon="12.492245"><ele>416.3333333333333</ele><time>2026-04-25T08:55:13.531Z</time></trkpt><trkpt lat="43.7001267" lon="12.4924717"><ele>419.66666666666663</ele><time>2026-04-25T08:55:14.531Z</time></trkpt><trkpt lat="43.7000467" lon="12.4926967"><ele>423.0</ele><time>2026-04-25T08:55:15.533Z</time></trkpt><trkpt lat="43.6999667" lon="12.49292"><ele>420.33333333333337</ele><time>2026-04-25T08:55:16.532Z</time></trkpt><trkpt lat="43.6998867" lon="12.49314"><ele>417.6666666666667</ele><time>2026-04-25T08:55:17.531Z</time></trkpt><trkpt lat="43.6997983" lon="12.4933667"><ele>415.0</ele><time>2026-04-25T08:55:18.531Z</time></trkpt><trkpt lat="43.6996983" lon="12.4935917"><ele>413.33333333333337</ele><time>2026-04-25T08:55:19.534Z</time></trkpt><trkpt lat="43.6995867" lon="12.493815"><ele>411.66666666666663</ele><time>2026-04-25T08:55:20.535Z</time></trkpt><trkpt lat="43.6994717" lon="12.4940333"><ele>410.0</ele><time>2026-04-25T08:55:21.535Z</time></trkpt><trkpt lat="43.699245" lon="12.494425"><ele>415.0</ele><time>2026-04-25T08:55:23.533Z</time></trkpt><trkpt lat="43.69915" lon="12.4946133"><ele>420.0</ele><time>2026-04-25T08:55:24.534Z</time></trkpt><trkpt lat="43.699065" lon="12.4948233"><ele>425.0</ele><time>2026-04-25T08:55:25.536Z</time></trkpt><trkpt lat="43.6989867" lon="12.4950617"><ele>425.0</ele><time>2026-04-25T08:55:26.534Z</time></trkpt><trkpt lat="43.698925" lon="12.49532"><ele>425.0</ele><time>2026-04-25T08:55:27.533Z</time></trkpt><trkpt lat="43.69887" lon="12.4955867"><ele>425.0</ele><time>2026-04-25T08:55:28.532Z</time></trkpt><trkpt lat="43.6988183" lon="12.4958517"><ele>423.66666666666663</ele><time>2026-04-25T08:55:29.531Z</time></trkpt><trkpt lat="43.698775" lon="12.4961017"><ele>422.33333333333337</ele><time>2026-04-25T08:55:30.532Z</time></trkpt><trkpt lat="43.698725" lon="12.49634"><ele>421.0</ele><time>2026-04-25T08:55:31.531Z</time></trkpt><trkpt lat="43.6986633" lon="12.4965683"><ele>426.0</ele><time>2026-04-25T08:55:32.532Z</time></trkpt><trkpt lat="43.6985783" lon="12.4967917"><ele>431.0</ele><time>2026-04-25T08:55:33.531Z</time></trkpt><trkpt lat="43.698475" lon="12.49701"><ele>436.0</ele><time>2026-04-25T08:55:34.532Z</time></trkpt><trkpt lat="43.6983633" lon="12.4972183"><ele>436.0</ele><time>2026-04-25T08:55:35.534Z</time></trkpt><trkpt lat="43.6982567" lon="12.4974217"><ele>436.0</ele><time>2026-04-25T08:55:36.53Z</time></trkpt><trkpt lat="43.6981533" lon="12.4976117"><ele>436.0</ele><time>2026-04-25T08:55:37.532Z</time></trkpt><trkpt lat="43.6980367" lon="12.4977767"><ele>436.0</ele><time>2026-04-25T08:55:38.534Z</time></trkpt><trkpt lat="43.6979" lon="12.4979117"><ele>436.0</ele><time>2026-04-25T08:55:39.531Z</time></trkpt><trkpt lat="43.6977483" lon="12.4980167"><ele>436.0</ele><time>2026-04-25T08:55:40.534Z</time></trkpt><trkpt lat="43.69759" lon="12.49811"><ele>440.0</ele><time>2026-04-25T08:55:41.534Z</time></trkpt><trkpt lat="43.697425" lon="12.4982"><ele>444.0</ele><time>2026-04-25T08:55:42.534Z</time></trkpt><trkpt lat="43.69714" lon="12.4983467"><ele>444.0</ele><time>2026-04-25T08:55:44.533Z</time></trkpt><trkpt lat="43.6970233" lon="12.49842"><ele>444.0</ele><time>2026-04-25T08:55:45.534Z</time></trkpt><trkpt lat="43.6969217" lon="12.498515"><ele>444.0</ele><time>2026-04-25T08:55:46.533Z</time></trkpt><trkpt lat="43.6968383" lon="12.49863"><ele>444.0</ele><time>2026-04-25T08:55:47.534Z</time></trkpt><trkpt lat="43.69677" lon="12.4987733"><ele>446.79999999999995</ele><time>2026-04-25T08:55:48.535Z</time></trkpt><trkpt lat="43.69671" lon="12.49893"><ele>449.59999999999997</ele><time>2026-04-25T08:55:49.534Z</time></trkpt><trkpt lat="43.6966567" lon="12.4990817"><ele>452.4</ele><time>2026-04-25T08:55:50.535Z</time></trkpt><trkpt lat="43.6966067" lon="12.4992083"><ele>455.2</ele><time>2026-04-25T08:55:51.534Z</time></trkpt><trkpt lat="43.69655" lon="12.4993033"><ele>458.0</ele><time>2026-04-25T08:55:52.534Z</time></trkpt><trkpt lat="43.6964783" lon="12.499365"><ele>457.99999999999994</ele><time>2026-04-25T08:55:53.534Z</time></trkpt><trkpt lat="43.6963917" lon="12.49939"><ele>458.0</ele><time>2026-04-25T08:55:54.534Z</time></trkpt><trkpt lat="43.696325" lon="12.4993467"><ele>458.0</ele><time>2026-04-25T08:55:55.534Z</time></trkpt><trkpt lat="43.69627" lon="12.4992983"><ele>458.0</ele><time>2026-04-25T08:55:56.534Z</time></trkpt><trkpt lat="43.6962033" lon="12.4992483"><ele>457.99999999999994</ele><time>2026-04-25T08:55:58.534Z</time></trkpt><trkpt lat="43.69613" lon="12.4993333"><ele>458.0</ele><time>2026-04-25T08:56:00.534Z</time></trkpt><trkpt lat="43.6960967" lon="12.4994217"><ele>458.0</ele><time>2026-04-25T08:56:01.535Z</time></trkpt><trkpt lat="43.6960567" lon="12.4995383"><ele>458.0</ele><time>2026-04-25T08:56:02.531Z</time></trkpt><trkpt lat="43.6959917" lon="12.499675"><ele>458.0</ele><time>2026-04-25T08:56:03.53Z</time></trkpt><trkpt lat="43.695895" lon="12.4999667"><ele>458.0</ele><time>2026-04-25T08:56:05.531Z</time></trkpt><trkpt lat="43.6958683" lon="12.5001217"><ele>458.25</ele><time>2026-04-25T08:56:06.534Z</time></trkpt><trkpt lat="43.695845" lon="12.500275"><ele>458.5</ele><time>2026-04-25T08:56:07.534Z</time></trkpt><trkpt lat="43.69581" lon="12.5004267"><ele>458.75</ele><time>2026-04-25T08:56:08.534Z</time></trkpt><trkpt lat="43.69576" lon="12.5005683"><ele>459.0</ele><time>2026-04-25T08:56:09.531Z</time></trkpt><trkpt lat="43.6957" lon="12.5007017"><ele>459.75</ele><time>2026-04-25T08:56:10.531Z</time></trkpt><trkpt lat="43.6956283" lon="12.5008183"><ele>460.5</ele><time>2026-04-25T08:56:11.532Z</time></trkpt><trkpt lat="43.69554" lon="12.5009183"><ele>461.25</ele><time>2026-04-25T08:56:12.535Z</time></trkpt><trkpt lat="43.6954383" lon="12.5010067"><ele>462.0</ele><time>2026-04-25T08:56:13.534Z</time></trkpt><trkpt lat="43.69532" lon="12.50109"><ele>461.33333333333337</ele><time>2026-04-25T08:56:14.534Z</time></trkpt><trkpt lat="43.6951817" lon="12.501165"><ele>460.6666666666667</ele><time>2026-04-25T08:56:15.535Z</time></trkpt><trkpt lat="43.6950367" lon="12.5012417"><ele>460.0</ele><time>2026-04-25T08:56:16.536Z</time></trkpt><trkpt lat="43.6948867" lon="12.5013283"><ele>460.0</ele><time>2026-04-25T08:56:17.534Z</time></trkpt><trkpt lat="43.6947533" lon="12.5014067"><ele>460.0</ele><time>2026-04-25T08:56:18.534Z</time></trkpt><trkpt lat="43.6946283" lon="12.5014883"><ele>460.0</ele><time>2026-04-25T08:56:19.531Z</time></trkpt><trkpt lat="43.69452" lon="12.50158"><ele>460.0</ele><time>2026-04-25T08:56:20.535Z</time></trkpt><trkpt lat="43.6944383" lon="12.5017"><ele>461.0</ele><time>2026-04-25T08:56:21.534Z</time></trkpt><trkpt lat="43.694385" lon="12.5018417"><ele>462.0</ele><time>2026-04-25T08:56:22.534Z</time></trkpt><trkpt lat="43.6943667" lon="12.5020133"><ele>463.0</ele><time>2026-04-25T08:56:23.535Z</time></trkpt><trkpt lat="43.694385" lon="12.502195"><ele>464.0</ele><time>2026-04-25T08:56:24.535Z</time></trkpt><trkpt lat="43.6944833" lon="12.50258"><ele>464.0</ele><time>2026-04-25T08:56:26.535Z</time></trkpt><trkpt lat="43.6945117" lon="12.5027683"><ele>464.0</ele><time>2026-04-25T08:56:27.534Z</time></trkpt><trkpt lat="43.694505" lon="12.502955"><ele>464.0</ele><time>2026-04-25T08:56:28.535Z</time></trkpt><trkpt lat="43.6944667" lon="12.50315"><ele>464.0</ele><time>2026-04-25T08:56:29.534Z</time></trkpt><trkpt lat="43.6944033" lon="12.50334"><ele>457.66666666666663</ele><time>2026-04-25T08:56:30.534Z</time></trkpt><trkpt lat="43.694325" lon="12.5035333"><ele>451.33333333333337</ele><time>2026-04-25T08:56:31.534Z</time></trkpt><trkpt lat="43.6942367" lon="12.5037367"><ele>445.0</ele><time>2026-04-25T08:56:32.535Z</time></trkpt><trkpt lat="43.694145" lon="12.50394"><ele>445.0</ele><time>2026-04-25T08:56:33.534Z</time></trkpt><trkpt lat="43.6940567" lon="12.5041333"><ele>445.0</ele><time>2026-04-25T08:56:34.534Z</time></trkpt><trkpt lat="43.6939733" lon="12.5043167"><ele>445.0</ele><time>2026-04-25T08:56:35.535Z</time></trkpt><trkpt lat="43.693885" lon="12.5044883"><ele>447.5</ele><time>2026-04-25T08:56:36.534Z</time></trkpt><trkpt lat="43.6937867" lon="12.5046283"><ele>450.0</ele><time>2026-04-25T08:56:37.534Z</time></trkpt><trkpt lat="43.693675" lon="12.5047433"><ele>452.5</ele><time>2026-04-25T08:56:38.534Z</time></trkpt><trkpt lat="43.6935383" lon="12.5048267"><ele>455.0</ele><time>2026-04-25T08:56:39.534Z</time></trkpt><trkpt lat="43.69338" lon="12.504885"><ele>448.3333333333333</ele><time>2026-04-25T08:56:40.534Z</time></trkpt><trkpt lat="43.6932167" lon="12.5049217"><ele>441.66666666666663</ele><time>2026-04-25T08:56:41.535Z</time></trkpt><trkpt lat="43.6930533" lon="12.504945"><ele>435.0</ele><time>2026-04-25T08:56:42.534Z</time></trkpt><trkpt lat="43.6929" lon="12.5049883"><ele>430.33333333333337</ele><time>2026-04-25T08:56:43.536Z</time></trkpt><trkpt lat="43.692745" lon="12.5050483"><ele>425.6666666666667</ele><time>2026-04-25T08:56:44.534Z</time></trkpt><trkpt lat="43.692585" lon="12.5051267"><ele>421.0</ele><time>2026-04-25T08:56:45.537Z</time></trkpt><trkpt lat="43.6922733" lon="12.5053233"><ele>420.6666666666667</ele><time>2026-04-25T08:56:47.534Z</time></trkpt><trkpt lat="43.692125" lon="12.505415"><ele>420.33333333333337</ele><time>2026-04-25T08:56:48.534Z</time></trkpt><trkpt lat="43.6919733" lon="12.5055083"><ele>420.0</ele><time>2026-04-25T08:56:49.535Z</time></trkpt><trkpt lat="43.6918217" lon="12.5055867"><ele>420.0</ele><time>2026-04-25T08:56:50.534Z</time></trkpt><trkpt lat="43.691675" lon="12.50563"><ele>420.0</ele><time>2026-04-25T08:56:51.534Z</time></trkpt><trkpt lat="43.6915433" lon="12.5056417"><ele>420.0</ele><time>2026-04-25T08:56:52.534Z</time></trkpt><trkpt lat="43.6914233" lon="12.5056167"><ele>420.0</ele><time>2026-04-25T08:56:53.534Z</time></trkpt><trkpt lat="43.6913067" lon="12.5055617"><ele>420.0</ele><time>2026-04-25T08:56:54.535Z</time></trkpt><trkpt lat="43.691205" lon="12.505475"><ele>420.0</ele><time>2026-04-25T08:56:55.534Z</time></trkpt><trkpt lat="43.69112" lon="12.5053433"><ele>420.0</ele><time>2026-04-25T08:56:56.534Z</time></trkpt><trkpt lat="43.6910417" lon="12.5052017"><ele>420.0</ele><time>2026-04-25T08:56:57.534Z</time></trkpt><trkpt lat="43.6909767" lon="12.5050467"><ele>417.4</ele><time>2026-04-25T08:56:58.532Z</time></trkpt><trkpt lat="43.6909117" lon="12.5048967"><ele>414.8</ele><time>2026-04-25T08:56:59.534Z</time></trkpt><trkpt lat="43.690845" lon="12.5047667"><ele>412.20000000000005</ele><time>2026-04-25T08:57:00.535Z</time></trkpt><trkpt lat="43.6907717" lon="12.504665"><ele>409.6</ele><time>2026-04-25T08:57:01.534Z</time></trkpt><trkpt lat="43.69068" lon="12.5046033"><ele>407.0</ele><time>2026-04-25T08:57:02.535Z</time></trkpt><trkpt lat="43.6905683" lon="12.50458"><ele>402.75</ele><time>2026-04-25T08:57:03.534Z</time></trkpt><trkpt lat="43.69044" lon="12.504575"><ele>398.5</ele><time>2026-04-25T08:57:04.534Z</time></trkpt><trkpt lat="43.6903067" lon="12.50457"><ele>394.25</ele><time>2026-04-25T08:57:05.533Z</time></trkpt><trkpt lat="43.6901733" lon="12.5045333"><ele>390.0</ele><time>2026-04-25T08:57:06.535Z</time></trkpt><trkpt lat="43.6899167" lon="12.50441"><ele>389.25</ele><time>2026-04-25T08:57:08.534Z</time></trkpt><trkpt lat="43.689795" lon="12.5043467"><ele>388.5</ele><time>2026-04-25T08:57:09.534Z</time></trkpt><trkpt lat="43.6896717" lon="12.5043283"><ele>387.75</ele><time>2026-04-25T08:57:10.535Z</time></trkpt><trkpt lat="43.6895583" lon="12.5043633"><ele>387.0</ele><time>2026-04-25T08:57:11.535Z</time></trkpt><trkpt lat="43.6894633" lon="12.5044483"><ele>383.0</ele><time>2026-04-25T08:57:12.534Z</time></trkpt><trkpt lat="43.6893933" lon="12.50457"><ele>379.0</ele><time>2026-04-25T08:57:13.534Z</time></trkpt><trkpt lat="43.6893567" lon="12.5047167"><ele>375.0</ele><time>2026-04-25T08:57:14.534Z</time></trkpt><trkpt lat="43.689355" lon="12.5048767"><ele>371.0</ele><time>2026-04-25T08:57:15.535Z</time></trkpt><trkpt lat="43.6894017" lon="12.5050217"><ele>373.5</ele><time>2026-04-25T08:57:16.534Z</time></trkpt><trkpt lat="43.68948" lon="12.505165"><ele>376.0</ele><time>2026-04-25T08:57:17.535Z</time></trkpt><trkpt lat="43.68957" lon="12.505305"><ele>378.5</ele><time>2026-04-25T08:57:18.535Z</time></trkpt><trkpt lat="43.6896517" lon="12.5054433"><ele>381.0</ele><time>2026-04-25T08:57:19.535Z</time></trkpt><trkpt lat="43.689725" lon="12.50559"><ele>381.0</ele><time>2026-04-25T08:57:20.534Z</time></trkpt><trkpt lat="43.68978" lon="12.5057483"><ele>381.0</ele><time>2026-04-25T08:57:21.534Z</time></trkpt><trkpt lat="43.6898" lon="12.505925"><ele>381.0</ele><time>2026-04-25T08:57:22.534Z</time></trkpt><trkpt lat="43.6897817" lon="12.5061067"><ele>381.0</ele><time>2026-04-25T08:57:23.531Z</time></trkpt><trkpt lat="43.68972" lon="12.5062967"><ele>382.0</ele><time>2026-04-25T08:57:24.534Z</time></trkpt><trkpt lat="43.6896283" lon="12.5064933"><ele>383.0</ele><time>2026-04-25T08:57:25.534Z</time></trkpt><trkpt lat="43.689525" lon="12.5066917"><ele>384.0</ele><time>2026-04-25T08:57:26.531Z</time></trkpt><trkpt lat="43.68942" lon="12.5068833"><ele>376.0</ele><time>2026-04-25T08:57:27.535Z</time></trkpt><trkpt lat="43.6891867" lon="12.5071917"><ele>368.0</ele><time>2026-04-25T08:57:29.535Z</time></trkpt><trkpt lat="43.6890483" lon="12.5072933"><ele>368.0</ele><time>2026-04-25T08:57:30.532Z</time></trkpt><trkpt lat="43.6888933" lon="12.5073583"><ele>368.0</ele><time>2026-04-25T08:57:31.534Z</time></trkpt><trkpt lat="43.688725" lon="12.50741"><ele>368.0</ele><time>2026-04-25T08:57:32.535Z</time></trkpt><trkpt lat="43.6885633" lon="12.5074583"><ele>364.5</ele><time>2026-04-25T08:57:33.534Z</time></trkpt><trkpt lat="43.6884117" lon="12.50747"><ele>361.0</ele><time>2026-04-25T08:57:34.534Z</time></trkpt><trkpt lat="43.68828" lon="12.50747"><ele>357.5</ele><time>2026-04-25T08:57:35.535Z</time></trkpt><trkpt lat="43.6881667" lon="12.5074567"><ele>354.0</ele><time>2026-04-25T08:57:36.535Z</time></trkpt><trkpt lat="43.6880817" lon="12.5074433"><ele>354.0</ele><time>2026-04-25T08:57:37.533Z</time></trkpt><trkpt lat="43.6880183" lon="12.5074383"><ele>354.0</ele><time>2026-04-25T08:57:38.534Z</time></trkpt><trkpt lat="43.687925" lon="12.50745"><ele>354.0</ele><time>2026-04-25T08:57:40.534Z</time></trkpt><trkpt lat="43.68785" lon="12.507495"><ele>354.0</ele><time>2026-04-25T08:57:42.535Z</time></trkpt><trkpt lat="43.6877933" lon="12.507535"><ele>354.0</ele><time>2026-04-25T08:57:44.531Z</time></trkpt><trkpt lat="43.68773" lon="12.507595"><ele>354.0</ele><time>2026-04-25T08:57:52.531Z</time></trkpt><trkpt lat="43.6875483" lon="12.5077983"><ele>352.0</ele><time>2026-04-25T08:57:55.534Z</time></trkpt><trkpt lat="43.6874867" lon="12.5078817"><ele>350.0</ele><time>2026-04-25T08:57:56.533Z</time></trkpt><trkpt lat="43.6874433" lon="12.507975"><ele>348.0</ele><time>2026-04-25T08:57:57.531Z</time></trkpt><trkpt lat="43.6874167" lon="12.50809"><ele>346.0</ele><time>2026-04-25T08:57:58.531Z</time></trkpt><trkpt lat="43.6874133" lon="12.5082117"><ele>344.0</ele><time>2026-04-25T08:57:59.534Z</time></trkpt><trkpt lat="43.6874217" lon="12.5083383"><ele>342.0</ele><time>2026-04-25T08:58:00.532Z</time></trkpt><trkpt lat="43.6874467" lon="12.5084883"><ele>342.0</ele><time>2026-04-25T08:58:01.535Z</time></trkpt><trkpt lat="43.6874417" lon="12.5086417"><ele>342.0</ele><time>2026-04-25T08:58:02.534Z</time></trkpt><trkpt lat="43.6874167" lon="12.50878"><ele>342.0</ele><time>2026-04-25T08:58:03.532Z</time></trkpt><trkpt lat="43.6873717" lon="12.5089117"><ele>342.0</ele><time>2026-04-25T08:58:04.534Z</time></trkpt><trkpt lat="43.6873017" lon="12.5089883"><ele>342.0</ele><time>2026-04-25T08:58:05.534Z</time></trkpt><trkpt lat="43.6872033" lon="12.5090283"><ele>341.5</ele><time>2026-04-25T08:58:06.534Z</time></trkpt><trkpt lat="43.687065" lon="12.5090367"><ele>341.0</ele><time>2026-04-25T08:58:07.535Z</time></trkpt><trkpt lat="43.68694" lon="12.5090767"><ele>340.5</ele><time>2026-04-25T08:58:08.534Z</time></trkpt><trkpt lat="43.686825" lon="12.509155"><ele>340.0</ele><time>2026-04-25T08:58:09.534Z</time></trkpt><trkpt lat="43.6867283" lon="12.5092767"><ele>335.0</ele><time>2026-04-25T08:58:10.533Z</time></trkpt><trkpt lat="43.6866417" lon="12.509435"><ele>330.0</ele><time>2026-04-25T08:58:11.534Z</time></trkpt><trkpt lat="43.68656" lon="12.50962"><ele>325.0</ele><time>2026-04-25T08:58:12.536Z</time></trkpt><trkpt lat="43.6864867" lon="12.5098067"><ele>325.0</ele><time>2026-04-25T08:58:13.533Z</time></trkpt><trkpt lat="43.6863267" lon="12.5101683"><ele>325.0</ele><time>2026-04-25T08:58:15.531Z</time></trkpt><trkpt lat="43.6862367" lon="12.51035"><ele>325.66666666666663</ele><time>2026-04-25T08:58:16.534Z</time></trkpt><trkpt lat="43.6861433" lon="12.5105317"><ele>326.3333333333333</ele><time>2026-04-25T08:58:17.532Z</time></trkpt><trkpt lat="43.686045" lon="12.510715"><ele>327.0</ele><time>2026-04-25T08:58:18.532Z</time></trkpt><trkpt lat="43.6859467" lon="12.5108967"><ele>320.3333333333333</ele><time>2026-04-25T08:58:19.531Z</time></trkpt><trkpt lat="43.6858483" lon="12.5110733"><ele>313.66666666666663</ele><time>2026-04-25T08:58:20.531Z</time></trkpt><trkpt lat="43.6857567" lon="12.5112433"><ele>307.0</ele><time>2026-04-25T08:58:21.531Z</time></trkpt><trkpt lat="43.6856683" lon="12.511405"><ele>307.0</ele><time>2026-04-25T08:58:22.531Z</time></trkpt><trkpt lat="43.6855867" lon="12.5115617"><ele>307.0</ele><time>2026-04-25T08:58:23.532Z</time></trkpt><trkpt lat="43.68552" lon="12.5117133"><ele>307.0</ele><time>2026-04-25T08:58:24.533Z</time></trkpt><trkpt lat="43.685485" lon="12.5118767"><ele>307.0</ele><time>2026-04-25T08:58:25.532Z</time></trkpt><trkpt lat="43.6854833" lon="12.5120517"><ele>305.25</ele><time>2026-04-25T08:58:26.536Z</time></trkpt><trkpt lat="43.6855017" lon="12.5122383"><ele>303.5</ele><time>2026-04-25T08:58:27.534Z</time></trkpt><trkpt lat="43.6855267" lon="12.5124283"><ele>301.75</ele><time>2026-04-25T08:58:28.536Z</time></trkpt><trkpt lat="43.6855483" lon="12.51262"><ele>300.0</ele><time>2026-04-25T08:58:29.535Z</time></trkpt><trkpt lat="43.68557" lon="12.512805"><ele>298.4</ele><time>2026-04-25T08:58:30.536Z</time></trkpt><trkpt lat="43.6855833" lon="12.5129617"><ele>296.8</ele><time>2026-04-25T08:58:31.534Z</time></trkpt><trkpt lat="43.6855817" lon="12.513085"><ele>295.2</ele><time>2026-04-25T08:58:32.534Z</time></trkpt><trkpt lat="43.68556" lon="12.513185"><ele>293.6</ele><time>2026-04-25T08:58:33.531Z</time></trkpt><trkpt lat="43.6855133" lon="12.5132567"><ele>292.0</ele><time>2026-04-25T08:58:34.534Z</time></trkpt><trkpt lat="43.6853533" lon="12.51332"><ele>289.66666666666663</ele><time>2026-04-25T08:58:36.533Z</time></trkpt><trkpt lat="43.6851917" lon="12.5132483"><ele>287.3333333333333</ele><time>2026-04-25T08:58:37.534Z</time></trkpt><trkpt lat="43.6850433" lon="12.5132233"><ele>285.0</ele><time>2026-04-25T08:58:38.532Z</time></trkpt><trkpt lat="43.6849033" lon="12.5132067"><ele>285.0</ele><time>2026-04-25T08:58:39.533Z</time></trkpt><trkpt lat="43.684775" lon="12.5132067"><ele>285.0</ele><time>2026-04-25T08:58:40.535Z</time></trkpt><trkpt lat="43.6846517" lon="12.5132267"><ele>285.0</ele><time>2026-04-25T08:58:41.535Z</time></trkpt><trkpt lat="43.6845383" lon="12.5132933"><ele>285.0</ele><time>2026-04-25T08:58:42.535Z</time></trkpt><trkpt lat="43.6844417" lon="12.5134117"><ele>285.25</ele><time>2026-04-25T08:58:43.534Z</time></trkpt><trkpt lat="43.6843567" lon="12.51356"><ele>285.5</ele><time>2026-04-25T08:58:44.535Z</time></trkpt><trkpt lat="43.6842767" lon="12.5137133"><ele>285.75</ele><time>2026-04-25T08:58:45.534Z</time></trkpt><trkpt lat="43.6841967" lon="12.5138667"><ele>286.0</ele><time>2026-04-25T08:58:46.532Z</time></trkpt><trkpt lat="43.6841117" lon="12.51402"><ele>286.0</ele><time>2026-04-25T08:58:47.533Z</time></trkpt><trkpt lat="43.6840283" lon="12.5141683"><ele>286.0</ele><time>2026-04-25T08:58:48.532Z</time></trkpt><trkpt lat="43.6839483" lon="12.5143117"><ele>286.0</ele><time>2026-04-25T08:58:49.535Z</time></trkpt><trkpt lat="43.683865" lon="12.5144533"><ele>286.0</ele><time>2026-04-25T08:58:50.531Z</time></trkpt><trkpt lat="43.683785" lon="12.5146"><ele>284.75</ele><time>2026-04-25T08:58:51.532Z</time></trkpt><trkpt lat="43.6837" lon="12.5147533"><ele>283.5</ele><time>2026-04-25T08:58:52.533Z</time></trkpt><trkpt lat="43.6836167" lon="12.5149183"><ele>282.25</ele><time>2026-04-25T08:58:53.534Z</time></trkpt><trkpt lat="43.6835417" lon="12.5151033"><ele>281.0</ele><time>2026-04-25T08:58:54.535Z</time></trkpt><trkpt lat="43.68348" lon="12.5153033"><ele>282.5</ele><time>2026-04-25T08:58:55.534Z</time></trkpt><trkpt lat="43.6833833" lon="12.5157267"><ele>284.0</ele><time>2026-04-25T08:58:57.533Z</time></trkpt><trkpt lat="43.683335" lon="12.515945"><ele>284.0</ele><time>2026-04-25T08:58:58.535Z</time></trkpt><trkpt lat="43.6832783" lon="12.5161567"><ele>284.0</ele><time>2026-04-25T08:58:59.535Z</time></trkpt><trkpt lat="43.6832083" lon="12.5163533"><ele>284.0</ele><time>2026-04-25T08:59:00.535Z</time></trkpt><trkpt lat="43.68312" lon="12.5165367"><ele>286.6666666666667</ele><time>2026-04-25T08:59:01.535Z</time></trkpt><trkpt lat="43.6830233" lon="12.5167017"><ele>289.3333333333333</ele><time>2026-04-25T08:59:02.53Z</time></trkpt><trkpt lat="43.6829217" lon="12.5168633"><ele>292.0</ele><time>2026-04-25T08:59:03.535Z</time></trkpt><trkpt lat="43.6828267" lon="12.5170317"><ele>287.66666666666663</ele><time>2026-04-25T08:59:04.531Z</time></trkpt><trkpt lat="43.6827383" lon="12.5172283"><ele>283.3333333333333</ele><time>2026-04-25T08:59:05.535Z</time></trkpt><trkpt lat="43.682655" lon="12.5174433"><ele>279.0</ele><time>2026-04-25T08:59:06.535Z</time></trkpt><trkpt lat="43.6825667" lon="12.5176717"><ele>283.3333333333333</ele><time>2026-04-25T08:59:07.535Z</time></trkpt><trkpt lat="43.6824733" lon="12.5179133"><ele>287.66666666666663</ele><time>2026-04-25T08:59:08.535Z</time></trkpt><trkpt lat="43.6823783" lon="12.5181467"><ele>292.0</ele><time>2026-04-25T08:59:09.535Z</time></trkpt><trkpt lat="43.6822767" lon="12.5183683"><ele>292.0</ele><time>2026-04-25T08:59:10.535Z</time></trkpt><trkpt lat="43.6821717" lon="12.51858"><ele>292.0</ele><time>2026-04-25T08:59:11.534Z</time></trkpt><trkpt lat="43.682055" lon="12.5187783"><ele>292.0</ele><time>2026-04-25T08:59:12.531Z</time></trkpt><trkpt lat="43.6819317" lon="12.51897"><ele>291.0</ele><time>2026-04-25T08:59:13.533Z</time></trkpt><trkpt lat="43.681805" lon="12.5191567"><ele>290.0</ele><time>2026-04-25T08:59:14.534Z</time></trkpt><trkpt lat="43.6816833" lon="12.51935"><ele>289.0</ele><time>2026-04-25T08:59:15.534Z</time></trkpt><trkpt lat="43.68157" lon="12.5195567"><ele>292.0</ele><time>2026-04-25T08:59:16.531Z</time></trkpt><trkpt lat="43.6813617" lon="12.519965"><ele>295.0</ele><time>2026-04-25T08:59:18.532Z</time></trkpt><trkpt lat="43.6812417" lon="12.52014"><ele>296.3333333333333</ele><time>2026-04-25T08:59:19.531Z</time></trkpt><trkpt lat="43.6810967" lon="12.5202717"><ele>297.6666666666667</ele><time>2026-04-25T08:59:20.531Z</time></trkpt><trkpt lat="43.6809317" lon="12.52038"><ele>299.0</ele><time>2026-04-25T08:59:21.532Z</time></trkpt><trkpt lat="43.6807567" lon="12.5204667"><ele>299.0</ele><time>2026-04-25T08:59:22.533Z</time></trkpt><trkpt lat="43.6805783" lon="12.520535"><ele>299.0</ele><time>2026-04-25T08:59:23.534Z</time></trkpt><trkpt lat="43.680395" lon="12.5205883"><ele>299.0</ele><time>2026-04-25T08:59:24.534Z</time></trkpt><trkpt lat="43.6802167" lon="12.5206367"><ele>297.0</ele><time>2026-04-25T08:59:25.536Z</time></trkpt><trkpt lat="43.6800467" lon="12.52068"><ele>295.0</ele><time>2026-04-25T08:59:26.535Z</time></trkpt><trkpt lat="43.6798883" lon="12.5207167"><ele>293.0</ele><time>2026-04-25T08:59:27.534Z</time></trkpt><trkpt lat="43.6797383" lon="12.5207533"><ele>293.0</ele><time>2026-04-25T08:59:28.535Z</time></trkpt><trkpt lat="43.6795983" lon="12.5207783"><ele>293.0</ele><time>2026-04-25T08:59:29.534Z</time></trkpt><trkpt lat="43.6794783" lon="12.5207883"><ele>293.0</ele><time>2026-04-25T08:59:30.534Z</time></trkpt><trkpt lat="43.6793733" lon="12.5207683"><ele>293.0</ele><time>2026-04-25T08:59:31.531Z</time></trkpt><trkpt lat="43.6792817" lon="12.5207467"><ele>291.4</ele><time>2026-04-25T08:59:32.532Z</time></trkpt><trkpt lat="43.6791983" lon="12.520755"><ele>289.8</ele><time>2026-04-25T08:59:33.531Z</time></trkpt><trkpt lat="43.679125" lon="12.5207917"><ele>288.2</ele><time>2026-04-25T08:59:34.531Z</time></trkpt><trkpt lat="43.6790667" lon="12.52086"><ele>286.6</ele><time>2026-04-25T08:59:35.531Z</time></trkpt><trkpt lat="43.6789933" lon="12.5209783"><ele>285.0</ele><time>2026-04-25T08:59:36.531Z</time></trkpt><trkpt lat="43.6788783" lon="12.5211117"><ele>287.0</ele><time>2026-04-25T08:59:37.535Z</time></trkpt><trkpt lat="43.6785667" lon="12.5213383"><ele>289.0</ele><time>2026-04-25T08:59:39.535Z</time></trkpt><trkpt lat="43.6783883" lon="12.5214517"><ele>289.0</ele><time>2026-04-25T08:59:40.534Z</time></trkpt><trkpt lat="43.6782067" lon="12.521565"><ele>289.0</ele><time>2026-04-25T08:59:41.535Z</time></trkpt><trkpt lat="43.67803" lon="12.5216717"><ele>289.0</ele><time>2026-04-25T08:59:42.534Z</time></trkpt><trkpt lat="43.67786" lon="12.5217783"><ele>287.66666666666663</ele><time>2026-04-25T08:59:43.534Z</time></trkpt><trkpt lat="43.6776983" lon="12.5218867"><ele>286.3333333333333</ele><time>2026-04-25T08:59:44.535Z</time></trkpt><trkpt lat="43.677545" lon="12.5220133"><ele>285.0</ele><time>2026-04-25T08:59:45.535Z</time></trkpt><trkpt lat="43.6774033" lon="12.5221483"><ele>287.6666666666667</ele><time>2026-04-25T08:59:46.534Z</time></trkpt><trkpt lat="43.6772683" lon="12.5222967"><ele>290.33333333333337</ele><time>2026-04-25T08:59:47.534Z</time></trkpt><trkpt lat="43.6771317" lon="12.5224483"><ele>293.0</ele><time>2026-04-25T08:59:48.534Z</time></trkpt><trkpt lat="43.676995" lon="12.5225983"><ele>293.0</ele><time>2026-04-25T08:59:49.532Z</time></trkpt><trkpt lat="43.6768567" lon="12.5227467"><ele>293.0</ele><time>2026-04-25T08:59:50.535Z</time></trkpt><trkpt lat="43.676725" lon="12.5229017"><ele>293.0</ele><time>2026-04-25T08:59:51.534Z</time></trkpt><trkpt lat="43.6765967" lon="12.5230717"><ele>293.0</ele><time>2026-04-25T08:59:52.534Z</time></trkpt><trkpt lat="43.676465" lon="12.52324"><ele>293.0</ele><time>2026-04-25T08:59:53.534Z</time></trkpt><trkpt lat="43.676345" lon="12.5234067"><ele>293.0</ele><time>2026-04-25T08:59:54.534Z</time></trkpt><trkpt lat="43.6762333" lon="12.523565"><ele>293.0</ele><time>2026-04-25T08:59:55.535Z</time></trkpt><trkpt lat="43.676125" lon="12.52371"><ele>293.0</ele><time>2026-04-25T08:59:56.534Z</time></trkpt><trkpt lat="43.6760267" lon="12.5238417"><ele>293.0</ele><time>2026-04-25T08:59:57.531Z</time></trkpt><trkpt lat="43.675925" lon="12.523955"><ele>293.0</ele><time>2026-04-25T08:59:58.534Z</time></trkpt><trkpt lat="43.67574" lon="12.524145"><ele>292.33333333333337</ele><time>2026-04-25T09:00:00.532Z</time></trkpt><trkpt lat="43.67566" lon="12.52422"><ele>291.6666666666667</ele><time>2026-04-25T09:00:01.533Z</time></trkpt><trkpt lat="43.675585" lon="12.524275"><ele>291.0</ele><time>2026-04-25T09:00:02.531Z</time></trkpt><trkpt lat="43.6755167" lon="12.5242933"><ele>290.3333333333333</ele><time>2026-04-25T09:00:03.534Z</time></trkpt><trkpt lat="43.67545" lon="12.52428"><ele>289.66666666666663</ele><time>2026-04-25T09:00:04.531Z</time></trkpt><trkpt lat="43.67539" lon="12.5242117"><ele>289.0</ele><time>2026-04-25T09:00:05.531Z</time></trkpt><trkpt lat="43.6753317" lon="12.5241083"><ele>289.0</ele><time>2026-04-25T09:00:06.532Z</time></trkpt><trkpt lat="43.6752717" lon="12.5240283"><ele>289.0</ele><time>2026-04-25T09:00:07.531Z</time></trkpt><trkpt lat="43.6752017" lon="12.52399"><ele>289.0</ele><time>2026-04-25T09:00:08.531Z</time></trkpt><trkpt lat="43.675135" lon="12.5239833"><ele>289.0</ele><time>2026-04-25T09:00:09.53Z</time></trkpt><trkpt lat="43.675065" lon="12.5240283"><ele>289.0</ele><time>2026-04-25T09:00:10.533Z</time></trkpt><trkpt lat="43.6749867" lon="12.5240883"><ele>289.0</ele><time>2026-04-25T09:00:11.534Z</time></trkpt><trkpt lat="43.6749033" lon="12.524145"><ele>288.0</ele><time>2026-04-25T09:00:12.533Z</time></trkpt><trkpt lat="43.6748067" lon="12.5241633"><ele>287.0</ele><time>2026-04-25T09:00:13.533Z</time></trkpt><trkpt lat="43.6746817" lon="12.5241217"><ele>286.0</ele><time>2026-04-25T09:00:14.534Z</time></trkpt><trkpt lat="43.674545" lon="12.52406"><ele>285.0</ele><time>2026-04-25T09:00:15.534Z</time></trkpt><trkpt lat="43.6744" lon="12.5239983"><ele>284.6666666666667</ele><time>2026-04-25T09:00:16.533Z</time></trkpt><trkpt lat="43.67426" lon="12.5239333"><ele>284.33333333333337</ele><time>2026-04-25T09:00:17.533Z</time></trkpt><trkpt lat="43.6741117" lon="12.5238683"><ele>284.0</ele><time>2026-04-25T09:00:18.535Z</time></trkpt><trkpt lat="43.673965" lon="12.5238017"><ele>283.0</ele><time>2026-04-25T09:00:19.534Z</time></trkpt><trkpt lat="43.6736467" lon="12.5236583"><ele>282.0</ele><time>2026-04-25T09:00:21.534Z</time></trkpt><trkpt lat="43.6735017" lon="12.5235867"><ele>281.25</ele><time>2026-04-25T09:00:22.534Z</time></trkpt><trkpt lat="43.6733617" lon="12.5235217"><ele>280.5</ele><time>2026-04-25T09:00:23.534Z</time></trkpt><trkpt lat="43.6732267" lon="12.5234617"><ele>279.75</ele><time>2026-04-25T09:00:24.53Z</time></trkpt><trkpt lat="43.6730967" lon="12.5234033"><ele>279.0</ele><time>2026-04-25T09:00:25.531Z</time></trkpt><trkpt lat="43.672975" lon="12.52335"><ele>279.0</ele><time>2026-04-25T09:00:26.53Z</time></trkpt><trkpt lat="43.6728583" lon="12.5232967"><ele>279.0</ele><time>2026-04-25T09:00:27.531Z</time></trkpt><trkpt lat="43.6727483" lon="12.523245"><ele>279.0</ele><time>2026-04-25T09:00:28.531Z</time></trkpt><trkpt lat="43.672645" lon="12.5231967"><ele>279.0</ele><time>2026-04-25T09:00:29.53Z</time></trkpt><trkpt lat="43.6725483" lon="12.5231467"><ele>278.8333333333333</ele><time>2026-04-25T09:00:30.531Z</time></trkpt><trkpt lat="43.6724533" lon="12.5230983"><ele>278.6666666666667</ele><time>2026-04-25T09:00:31.532Z</time></trkpt><trkpt lat="43.672365" lon="12.523055"><ele>278.5</ele><time>2026-04-25T09:00:32.531Z</time></trkpt><trkpt lat="43.6722867" lon="12.52301"><ele>278.33333333333337</ele><time>2026-04-25T09:00:33.531Z</time></trkpt><trkpt lat="43.672215" lon="12.5229633"><ele>278.1666666666667</ele><time>2026-04-25T09:00:34.531Z</time></trkpt><trkpt lat="43.6721567" lon="12.522905"><ele>278.0</ele><time>2026-04-25T09:00:35.53Z</time></trkpt><trkpt lat="43.672115" lon="12.522835"><ele>278.0</ele><time>2026-04-25T09:00:36.531Z</time></trkpt><trkpt lat="43.6721017" lon="12.5227483"><ele>278.0</ele><time>2026-04-25T09:00:37.531Z</time></trkpt><trkpt lat="43.6720767" lon="12.5226683"><ele>278.0</ele><time>2026-04-25T09:00:38.531Z</time></trkpt><trkpt lat="43.67198" lon="12.5225583"><ele>278.0</ele><time>2026-04-25T09:00:40.531Z</time></trkpt><trkpt lat="43.671835" lon="12.522495"><ele>278.0</ele><time>2026-04-25T09:00:42.533Z</time></trkpt><trkpt lat="43.6717633" lon="12.52245"><ele>277.83333333333337</ele><time>2026-04-25T09:00:43.535Z</time></trkpt><trkpt lat="43.671695" lon="12.5223933"><ele>277.6666666666667</ele><time>2026-04-25T09:00:44.531Z</time></trkpt><trkpt lat="43.6716283" lon="12.5223233"><ele>277.5</ele><time>2026-04-25T09:00:45.53Z</time></trkpt><trkpt lat="43.6715633" lon="12.52224"><ele>277.3333333333333</ele><time>2026-04-25T09:00:46.535Z</time></trkpt><trkpt lat="43.6715033" lon="12.5221433"><ele>277.16666666666663</ele><time>2026-04-25T09:00:47.533Z</time></trkpt><trkpt lat="43.6714517" lon="12.5220367"><ele>277.0</ele><time>2026-04-25T09:00:48.531Z</time></trkpt><trkpt lat="43.6714017" lon="12.521935"><ele>276.8</ele><time>2026-04-25T09:00:49.533Z</time></trkpt><trkpt lat="43.671355" lon="12.52183"><ele>276.6</ele><time>2026-04-25T09:00:50.533Z</time></trkpt><trkpt lat="43.6713183" lon="12.52172"><ele>276.40000000000003</ele><time>2026-04-25T09:00:51.534Z</time></trkpt><trkpt lat="43.6712883" lon="12.5215867"><ele>276.2</ele><time>2026-04-25T09:00:52.533Z</time></trkpt><trkpt lat="43.671255" lon="12.5214433"><ele>276.0</ele><time>2026-04-25T09:00:53.53Z</time></trkpt><trkpt lat="43.671225" lon="12.52128"><ele>275.5</ele><time>2026-04-25T09:00:54.531Z</time></trkpt><trkpt lat="43.671205" lon="12.521105"><ele>275.0</ele><time>2026-04-25T09:00:55.532Z</time></trkpt><trkpt lat="43.6711833" lon="12.5209217"><ele>274.5</ele><time>2026-04-25T09:00:56.53Z</time></trkpt><trkpt lat="43.67117" lon="12.5207467"><ele>274.0</ele><time>2026-04-25T09:00:57.533Z</time></trkpt><trkpt lat="43.6711717" lon="12.5205767"><ele>274.0</ele><time>2026-04-25T09:00:58.531Z</time></trkpt><trkpt lat="43.6711833" lon="12.52041"><ele>274.0</ele><time>2026-04-25T09:00:59.53Z</time></trkpt><trkpt lat="43.6711967" lon="12.5202433"><ele>274.0</ele><time>2026-04-25T09:01:00.53Z</time></trkpt><trkpt lat="43.67121" lon="12.520075"><ele>274.0</ele><time>2026-04-25T09:01:01.531Z</time></trkpt><trkpt lat="43.6712417" lon="12.51973"><ele>272.5</ele><time>2026-04-25T09:01:03.53Z</time></trkpt><trkpt lat="43.6712533" lon="12.5195717"><ele>271.0</ele><time>2026-04-25T09:01:04.531Z</time></trkpt><trkpt lat="43.671265" lon="12.5194183"><ele>269.5</ele><time>2026-04-25T09:01:05.532Z</time></trkpt><trkpt lat="43.6712783" lon="12.519265"><ele>268.0</ele><time>2026-04-25T09:01:06.53Z</time></trkpt><trkpt lat="43.6712917" lon="12.5191117"><ele>268.0</ele><time>2026-04-25T09:01:07.531Z</time></trkpt><trkpt lat="43.6713033" lon="12.518965"><ele>268.0</ele><time>2026-04-25T09:01:08.53Z</time></trkpt><trkpt lat="43.6713167" lon="12.5188233"><ele>268.0</ele><time>2026-04-25T09:01:09.531Z</time></trkpt><trkpt lat="43.6713283" lon="12.5186883"><ele>268.0</ele><time>2026-04-25T09:01:10.531Z</time></trkpt><trkpt lat="43.6713383" lon="12.51855"><ele>268.0</ele><time>2026-04-25T09:01:11.531Z</time></trkpt><trkpt lat="43.67135" lon="12.5184167"><ele>270.0</ele><time>2026-04-25T09:01:12.534Z</time></trkpt><trkpt lat="43.6713717" lon="12.5182817"><ele>272.0</ele><time>2026-04-25T09:01:13.537Z</time></trkpt><trkpt lat="43.6713967" lon="12.5181533"><ele>274.0</ele><time>2026-04-25T09:01:14.533Z</time></trkpt><trkpt lat="43.67143" lon="12.5180217"><ele>276.0</ele><time>2026-04-25T09:01:15.535Z</time></trkpt><trkpt lat="43.6714667" lon="12.51788"><ele>278.0</ele><time>2026-04-25T09:01:16.53Z</time></trkpt><trkpt lat="43.67151" lon="12.5177367"><ele>278.75</ele><time>2026-04-25T09:01:17.532Z</time></trkpt><trkpt lat="43.6715583" lon="12.5175917"><ele>279.5</ele><time>2026-04-25T09:01:18.534Z</time></trkpt><trkpt lat="43.67162" lon="12.5174483"><ele>280.25</ele><time>2026-04-25T09:01:19.531Z</time></trkpt><trkpt lat="43.6716967" lon="12.5173017"><ele>281.0</ele><time>2026-04-25T09:01:20.533Z</time></trkpt><trkpt lat="43.6717917" lon="12.517145"><ele>282.5</ele><time>2026-04-25T09:01:21.531Z</time></trkpt><trkpt lat="43.671905" lon="12.516985"><ele>284.0</ele><time>2026-04-25T09:01:22.534Z</time></trkpt><trkpt lat="43.6721683" lon="12.5166883"><ele>284.33333333333337</ele><time>2026-04-25T09:01:24.534Z</time></trkpt><trkpt lat="43.6722983" lon="12.516545"><ele>284.6666666666667</ele><time>2026-04-25T09:01:25.535Z</time></trkpt><trkpt lat="43.6724217" lon="12.516405"><ele>285.0</ele><time>2026-04-25T09:01:26.536Z</time></trkpt><trkpt lat="43.672545" lon="12.5162667"><ele>285.75</ele><time>2026-04-25T09:01:27.531Z</time></trkpt><trkpt lat="43.67266" lon="12.51613"><ele>286.5</ele><time>2026-04-25T09:01:28.532Z</time></trkpt><trkpt lat="43.67277" lon="12.5160017"><ele>287.25</ele><time>2026-04-25T09:01:29.531Z</time></trkpt><trkpt lat="43.6728733" lon="12.5158817"><ele>288.0</ele><time>2026-04-25T09:01:30.533Z</time></trkpt><trkpt lat="43.6729733" lon="12.515775"><ele>288.5</ele><time>2026-04-25T09:01:31.531Z</time></trkpt><trkpt lat="43.6730683" lon="12.5156767"><ele>289.0</ele><time>2026-04-25T09:01:32.534Z</time></trkpt><trkpt lat="43.673155" lon="12.5155833"><ele>289.5</ele><time>2026-04-25T09:01:33.531Z</time></trkpt><trkpt lat="43.673245" lon="12.5154883"><ele>290.0</ele><time>2026-04-25T09:01:34.531Z</time></trkpt><trkpt lat="43.6733383" lon="12.5153917"><ele>290.5</ele><time>2026-04-25T09:01:35.532Z</time></trkpt><trkpt lat="43.6734317" lon="12.51529"><ele>291.0</ele><time>2026-04-25T09:01:36.531Z</time></trkpt><trkpt lat="43.673525" lon="12.51519"><ele>291.5</ele><time>2026-04-25T09:01:37.531Z</time></trkpt><trkpt lat="43.67362" lon="12.5150967"><ele>292.0</ele><time>2026-04-25T09:01:38.531Z</time></trkpt><trkpt lat="43.6737167" lon="12.5150067"><ele>292.0</ele><time>2026-04-25T09:01:39.531Z</time></trkpt><trkpt lat="43.67381" lon="12.5149167"><ele>292.0</ele><time>2026-04-25T09:01:40.531Z</time></trkpt><trkpt lat="43.6738983" lon="12.5148317"><ele>292.0</ele><time>2026-04-25T09:01:41.535Z</time></trkpt><trkpt lat="43.6739817" lon="12.51475"><ele>292.0</ele><time>2026-04-25T09:01:42.533Z</time></trkpt><trkpt lat="43.674065" lon="12.5146717"><ele>292.0</ele><time>2026-04-25T09:01:43.534Z</time></trkpt><trkpt lat="43.6742367" lon="12.51451"><ele>292.0</ele><time>2026-04-25T09:01:45.534Z</time></trkpt><trkpt lat="43.6743233" lon="12.5144317"><ele>292.0</ele><time>2026-04-25T09:01:46.534Z</time></trkpt><trkpt lat="43.67441" lon="12.51435"><ele>292.0</ele><time>2026-04-25T09:01:47.534Z</time></trkpt><trkpt lat="43.674495" lon="12.5142633"><ele>292.0</ele><time>2026-04-25T09:01:48.533Z</time></trkpt><trkpt lat="43.67458" lon="12.5141817"><ele>292.0</ele><time>2026-04-25T09:01:49.534Z</time></trkpt><trkpt lat="43.6746617" lon="12.5141067"><ele>292.0</ele><time>2026-04-25T09:01:50.537Z</time></trkpt><trkpt lat="43.6747367" lon="12.5140333"><ele>292.0</ele><time>2026-04-25T09:01:51.531Z</time></trkpt><trkpt lat="43.6748033" lon="12.513965"><ele>292.0</ele><time>2026-04-25T09:01:52.531Z</time></trkpt><trkpt lat="43.674865" lon="12.5139067"><ele>292.0</ele><time>2026-04-25T09:01:53.534Z</time></trkpt><trkpt lat="43.6749183" lon="12.513845"><ele>292.0</ele><time>2026-04-25T09:01:54.534Z</time></trkpt><trkpt lat="43.6749467" lon="12.51376"><ele>292.0</ele><time>2026-04-25T09:01:55.535Z</time></trkpt><trkpt lat="43.6749033" lon="12.5135983"><ele>292.0</ele><time>2026-04-25T09:01:57.53Z</time></trkpt><trkpt lat="43.6748217" lon="12.51353"><ele>292.0</ele><time>2026-04-25T09:01:58.532Z</time></trkpt><trkpt lat="43.6747617" lon="12.513445"><ele>292.0</ele><time>2026-04-25T09:01:59.534Z</time></trkpt><trkpt lat="43.6747033" lon="12.5133533"><ele>292.0</ele><time>2026-04-25T09:02:00.532Z</time></trkpt><trkpt lat="43.67464" lon="12.5132567"><ele>292.0</ele><time>2026-04-25T09:02:01.534Z</time></trkpt><trkpt lat="43.6745817" lon="12.5131417"><ele>292.0</ele><time>2026-04-25T09:02:02.533Z</time></trkpt><trkpt lat="43.67453" lon="12.5130133"><ele>292.0</ele><time>2026-04-25T09:02:03.534Z</time></trkpt><trkpt lat="43.6744817" lon="12.51288"><ele>292.0</ele><time>2026-04-25T09:02:04.53Z</time></trkpt><trkpt lat="43.67439" lon="12.5126133"><ele>292.0</ele><time>2026-04-25T09:02:06.533Z</time></trkpt><trkpt lat="43.6743417" lon="12.5124783"><ele>292.4</ele><time>2026-04-25T09:02:07.534Z</time></trkpt><trkpt lat="43.6742917" lon="12.512345"><ele>292.79999999999995</ele><time>2026-04-25T09:02:08.534Z</time></trkpt><trkpt lat="43.6742483" lon="12.5122117"><ele>293.2</ele><time>2026-04-25T09:02:09.534Z</time></trkpt><trkpt lat="43.6742033" lon="12.51208"><ele>293.59999999999997</ele><time>2026-04-25T09:02:10.534Z</time></trkpt><trkpt lat="43.67416" lon="12.511945"><ele>294.0</ele><time>2026-04-25T09:02:11.534Z</time></trkpt><trkpt lat="43.6741217" lon="12.51181"><ele>294.0</ele><time>2026-04-25T09:02:12.533Z</time></trkpt><trkpt lat="43.6740867" lon="12.5116833"><ele>294.0</ele><time>2026-04-25T09:02:13.535Z</time></trkpt><trkpt lat="43.67405" lon="12.5115683"><ele>294.0</ele><time>2026-04-25T09:02:14.531Z</time></trkpt><trkpt lat="43.674015" lon="12.5114617"><ele>294.0</ele><time>2026-04-25T09:02:15.53Z</time></trkpt><trkpt lat="43.673975" lon="12.5113667"><ele>294.0</ele><time>2026-04-25T09:02:16.531Z</time></trkpt><trkpt lat="43.673925" lon="12.5112867"><ele>294.0</ele><time>2026-04-25T09:02:17.531Z</time></trkpt><trkpt lat="43.6738633" lon="12.51123"><ele>294.0</ele><time>2026-04-25T09:02:18.532Z</time></trkpt><trkpt lat="43.6737967" lon="12.5112033"><ele>294.0</ele><time>2026-04-25T09:02:19.534Z</time></trkpt><trkpt lat="43.673715" lon="12.511215"><ele>294.0</ele><time>2026-04-25T09:02:20.535Z</time></trkpt><trkpt lat="43.6736267" lon="12.5112433"><ele>294.0</ele><time>2026-04-25T09:02:21.532Z</time></trkpt><trkpt lat="43.673535" lon="12.5112683"><ele>294.0</ele><time>2026-04-25T09:02:22.535Z</time></trkpt><trkpt lat="43.6734267" lon="12.5112933"><ele>294.0</ele><time>2026-04-25T09:02:23.53Z</time></trkpt><trkpt lat="43.6733083" lon="12.5113217"><ele>296.0</ele><time>2026-04-25T09:02:24.531Z</time></trkpt><trkpt lat="43.6731833" lon="12.511355"><ele>298.0</ele><time>2026-04-25T09:02:25.531Z</time></trkpt><trkpt lat="43.6729383" lon="12.5114383"><ele>300.0</ele><time>2026-04-25T09:02:27.53Z</time></trkpt><trkpt lat="43.67283" lon="12.5114967"><ele>300.25</ele><time>2026-04-25T09:02:28.532Z</time></trkpt><trkpt lat="43.6727317" lon="12.5115683"><ele>300.5</ele><time>2026-04-25T09:02:29.531Z</time></trkpt><trkpt lat="43.67264" lon="12.51167"><ele>300.75</ele><time>2026-04-25T09:02:30.532Z</time></trkpt><trkpt lat="43.6725433" lon="12.5118017"><ele>301.0</ele><time>2026-04-25T09:02:31.531Z</time></trkpt><trkpt lat="43.6724467" lon="12.5119733"><ele>300.0</ele><time>2026-04-25T09:02:32.532Z</time></trkpt><trkpt lat="43.67235" lon="12.512165"><ele>299.0</ele><time>2026-04-25T09:02:33.532Z</time></trkpt><trkpt lat="43.672245" lon="12.5123667"><ele>298.0</ele><time>2026-04-25T09:02:34.533Z</time></trkpt><trkpt lat="43.6721383" lon="12.5125633"><ele>298.0</ele><time>2026-04-25T09:02:35.533Z</time></trkpt><trkpt lat="43.67203" lon="12.5127583"><ele>298.0</ele><time>2026-04-25T09:02:36.531Z</time></trkpt><trkpt lat="43.6719183" lon="12.5129533"><ele>298.0</ele><time>2026-04-25T09:02:37.534Z</time></trkpt><trkpt lat="43.6718117" lon="12.513145"><ele>297.0</ele><time>2026-04-25T09:02:38.532Z</time></trkpt><trkpt lat="43.6717117" lon="12.5133283"><ele>296.0</ele><time>2026-04-25T09:02:39.533Z</time></trkpt><trkpt lat="43.671615" lon="12.5134983"><ele>295.0</ele><time>2026-04-25T09:02:40.533Z</time></trkpt><trkpt lat="43.6715283" lon="12.513655"><ele>293.75</ele><time>2026-04-25T09:02:41.534Z</time></trkpt><trkpt lat="43.6714517" lon="12.5138017"><ele>292.5</ele><time>2026-04-25T09:02:42.533Z</time></trkpt><trkpt lat="43.67138" lon="12.5139383"><ele>291.25</ele><time>2026-04-25T09:02:43.531Z</time></trkpt><trkpt lat="43.6713117" lon="12.51407"><ele>290.0</ele><time>2026-04-25T09:02:44.533Z</time></trkpt><trkpt lat="43.6712517" lon="12.5141933"><ele>290.0</ele><time>2026-04-25T09:02:45.533Z</time></trkpt><trkpt lat="43.671195" lon="12.5143083"><ele>290.0</ele><time>2026-04-25T09:02:46.531Z</time></trkpt><trkpt lat="43.6710633" lon="12.5145683"><ele>290.0</ele><time>2026-04-25T09:02:48.532Z</time></trkpt><trkpt lat="43.67098" lon="12.5147233"><ele>290.5</ele><time>2026-04-25T09:02:49.532Z</time></trkpt><trkpt lat="43.6708933" lon="12.5148867"><ele>291.0</ele><time>2026-04-25T09:02:50.531Z</time></trkpt><trkpt lat="43.6708033" lon="12.5150467"><ele>291.5</ele><time>2026-04-25T09:02:51.535Z</time></trkpt><trkpt lat="43.6707033" lon="12.5152033"><ele>292.0</ele><time>2026-04-25T09:02:52.535Z</time></trkpt><trkpt lat="43.6705983" lon="12.51535"><ele>292.0</ele><time>2026-04-25T09:02:53.531Z</time></trkpt><trkpt lat="43.670485" lon="12.5154917"><ele>292.0</ele><time>2026-04-25T09:02:54.53Z</time></trkpt><trkpt lat="43.6703667" lon="12.5156317"><ele>292.0</ele><time>2026-04-25T09:02:55.534Z</time></trkpt><trkpt lat="43.6702483" lon="12.5157633"><ele>292.0</ele><time>2026-04-25T09:02:56.53Z</time></trkpt><trkpt lat="43.6701283" lon="12.5158933"><ele>292.0</ele><time>2026-04-25T09:02:57.534Z</time></trkpt><trkpt lat="43.67" lon="12.5160367"><ele>292.0</ele><time>2026-04-25T09:02:58.531Z</time></trkpt><trkpt lat="43.6698667" lon="12.5161817"><ele>290.66666666666663</ele><time>2026-04-25T09:02:59.534Z</time></trkpt><trkpt lat="43.6697233" lon="12.5163233"><ele>289.3333333333333</ele><time>2026-04-25T09:03:00.531Z</time></trkpt><trkpt lat="43.6695683" lon="12.51645"><ele>288.0</ele><time>2026-04-25T09:03:01.534Z</time></trkpt><trkpt lat="43.6694083" lon="12.5165583"><ele>288.0</ele><time>2026-04-25T09:03:02.535Z</time></trkpt><trkpt lat="43.669255" lon="12.51664"><ele>288.0</ele><time>2026-04-25T09:03:03.531Z</time></trkpt><trkpt lat="43.6691067" lon="12.5167083"><ele>288.0</ele><time>2026-04-25T09:03:04.531Z</time></trkpt><trkpt lat="43.6689667" lon="12.5167683"><ele>288.0</ele><time>2026-04-25T09:03:05.53Z</time></trkpt><trkpt lat="43.6688383" lon="12.5168167"><ele>288.0</ele><time>2026-04-25T09:03:06.534Z</time></trkpt><trkpt lat="43.66872" lon="12.5168633"><ele>288.0</ele><time>2026-04-25T09:03:07.531Z</time></trkpt><trkpt lat="43.6685467" lon="12.51694"><ele>288.0</ele><time>2026-04-25T09:03:09.53Z</time></trkpt><trkpt lat="43.6684417" lon="12.51698"><ele>287.6</ele><time>2026-04-25T09:03:11.53Z</time></trkpt><trkpt lat="43.66837" lon="12.5170033"><ele>287.20000000000005</ele><time>2026-04-25T09:03:13.532Z</time></trkpt><trkpt lat="43.668305" lon="12.5170167"><ele>286.8</ele><time>2026-04-25T09:03:26.531Z</time></trkpt><trkpt lat="43.6682133" lon="12.5170567"><ele>286.40000000000003</ele><time>2026-04-25T09:03:28.534Z</time></trkpt><trkpt lat="43.6680883" lon="12.5171083"><ele>286.0</ele><time>2026-04-25T09:03:30.531Z</time></trkpt><trkpt lat="43.66799" lon="12.5171533"><ele>286.0</ele><time>2026-04-25T09:03:32.532Z</time></trkpt><trkpt lat="43.66792" lon="12.5171783"><ele>286.0</ele><time>2026-04-25T09:03:34.534Z</time></trkpt><trkpt lat="43.6678117" lon="12.5171667"><ele>286.0</ele><time>2026-04-25T09:05:34.533Z</time></trkpt><trkpt lat="43.6676333" lon="12.5172583"><ele>286.0</ele><time>2026-04-25T09:05:37.534Z</time></trkpt><trkpt lat="43.667545" lon="12.5173"><ele>286.0</ele><time>2026-04-25T09:05:38.531Z</time></trkpt><trkpt lat="43.6674433" lon="12.5173433"><ele>286.0</ele><time>2026-04-25T09:05:39.535Z</time></trkpt><trkpt lat="43.66734" lon="12.5173917"><ele>286.0</ele><time>2026-04-25T09:05:40.531Z</time></trkpt><trkpt lat="43.6672467" lon="12.5174433"><ele>286.0</ele><time>2026-04-25T09:05:41.534Z</time></trkpt><trkpt lat="43.6671567" lon="12.5174967"><ele>286.0</ele><time>2026-04-25T09:05:42.532Z</time></trkpt><trkpt lat="43.6670667" lon="12.5175567"><ele>286.0</ele><time>2026-04-25T09:05:43.536Z</time></trkpt><trkpt lat="43.6669833" lon="12.5176183"><ele>286.0</ele><time>2026-04-25T09:05:44.534Z</time></trkpt><trkpt lat="43.6669133" lon="12.5176767"><ele>286.0</ele><time>2026-04-25T09:05:45.623Z</time></trkpt><trkpt lat="43.66685" lon="12.5177283"><ele>286.0</ele><time>2026-04-25T09:05:46.531Z</time></trkpt><trkpt lat="43.6667917" lon="12.5177667"><ele>286.0</ele><time>2026-04-25T09:05:47.531Z</time></trkpt><trkpt lat="43.6666833" lon="12.5177733"><ele>286.0</ele><time>2026-04-25T09:05:49.532Z</time></trkpt><trkpt lat="43.6666117" lon="12.517665"><ele>286.2</ele><time>2026-04-25T09:05:51.534Z</time></trkpt><trkpt lat="43.6665867" lon="12.5175767"><ele>286.40000000000003</ele><time>2026-04-25T09:05:52.532Z</time></trkpt><trkpt lat="43.66658" lon="12.5174233"><ele>286.6</ele><time>2026-04-25T09:05:53.534Z</time></trkpt><trkpt lat="43.6665767" lon="12.517265"><ele>286.8</ele><time>2026-04-25T09:05:54.531Z</time></trkpt><trkpt lat="43.6665667" lon="12.5171183"><ele>287.0</ele><time>2026-04-25T09:05:55.532Z</time></trkpt><trkpt lat="43.6665433" lon="12.5168183"><ele>287.25</ele><time>2026-04-25T09:05:57.532Z</time></trkpt><trkpt lat="43.6665183" lon="12.5166633"><ele>287.5</ele><time>2026-04-25T09:05:58.533Z</time></trkpt><trkpt lat="43.6664817" lon="12.516515"><ele>287.75</ele><time>2026-04-25T09:05:59.532Z</time></trkpt><trkpt lat="43.66643" lon="12.5163683"><ele>288.0</ele><time>2026-04-25T09:06:00.534Z</time></trkpt><trkpt lat="43.6663617" lon="12.5162317"><ele>291.25</ele><time>2026-04-25T09:06:01.535Z</time></trkpt><trkpt lat="43.6662883" lon="12.516105"><ele>294.5</ele><time>2026-04-25T09:06:02.531Z</time></trkpt><trkpt lat="43.6662217" lon="12.5159733"><ele>297.75</ele><time>2026-04-25T09:06:03.534Z</time></trkpt><trkpt lat="43.6661667" lon="12.5158383"><ele>301.0</ele><time>2026-04-25T09:06:04.531Z</time></trkpt><trkpt lat="43.6661217" lon="12.5157067"><ele>299.2</ele><time>2026-04-25T09:06:05.532Z</time></trkpt><trkpt lat="43.6660883" lon="12.5155833"><ele>297.40000000000003</ele><time>2026-04-25T09:06:06.534Z</time></trkpt><trkpt lat="43.666055" lon="12.515455"><ele>295.6</ele><time>2026-04-25T09:06:07.535Z</time></trkpt><trkpt lat="43.666025" lon="12.515295"><ele>293.8</ele><time>2026-04-25T09:06:08.535Z</time></trkpt><trkpt lat="43.6660117" lon="12.5151083"><ele>292.0</ele><time>2026-04-25T09:06:09.535Z</time></trkpt><trkpt lat="43.6660133" lon="12.5149133"><ele>292.0</ele><time>2026-04-25T09:06:10.531Z</time></trkpt><trkpt lat="43.6660217" lon="12.5147233"><ele>292.0</ele><time>2026-04-25T09:06:11.536Z</time></trkpt><trkpt lat="43.6660383" lon="12.514535"><ele>292.0</ele><time>2026-04-25T09:06:12.535Z</time></trkpt><trkpt lat="43.66606" lon="12.5143417"><ele>292.0</ele><time>2026-04-25T09:06:13.535Z</time></trkpt><trkpt lat="43.6660733" lon="12.5141567"><ele>293.66666666666663</ele><time>2026-04-25T09:06:14.533Z</time></trkpt><trkpt lat="43.6660717" lon="12.5139817"><ele>295.3333333333333</ele><time>2026-04-25T09:06:15.534Z</time></trkpt><trkpt lat="43.6660567" lon="12.5138067"><ele>297.0</ele><time>2026-04-25T09:06:16.535Z</time></trkpt><trkpt lat="43.666" lon="12.5134667"><ele>298.0</ele><time>2026-04-25T09:06:18.531Z</time></trkpt><trkpt lat="43.66597" lon="12.5133"><ele>299.0</ele><time>2026-04-25T09:06:19.536Z</time></trkpt><trkpt lat="43.6659217" lon="12.51314"><ele>300.0</ele><time>2026-04-25T09:06:20.534Z</time></trkpt><trkpt lat="43.665855" lon="12.51298"><ele>301.0</ele><time>2026-04-25T09:06:21.533Z</time></trkpt><trkpt lat="43.66578" lon="12.5128183"><ele>302.75</ele><time>2026-04-25T09:06:22.533Z</time></trkpt><trkpt lat="43.6657067" lon="12.51266"><ele>304.5</ele><time>2026-04-25T09:06:23.531Z</time></trkpt><trkpt lat="43.6656417" lon="12.5125083"><ele>306.25</ele><time>2026-04-25T09:06:24.531Z</time></trkpt><trkpt lat="43.6655933" lon="12.5123483"><ele>308.0</ele><time>2026-04-25T09:06:25.536Z</time></trkpt><trkpt lat="43.6655633" lon="12.51217"><ele>310.25</ele><time>2026-04-25T09:06:26.535Z</time></trkpt><trkpt lat="43.6655467" lon="12.5119817"><ele>312.5</ele><time>2026-04-25T09:06:27.534Z</time></trkpt><trkpt lat="43.66553" lon="12.5118033"><ele>314.75</ele><time>2026-04-25T09:06:28.535Z</time></trkpt><trkpt lat="43.6655033" lon="12.5116383"><ele>317.0</ele><time>2026-04-25T09:06:29.533Z</time></trkpt><trkpt lat="43.6654717" lon="12.5114867"><ele>317.0</ele><time>2026-04-25T09:06:30.531Z</time></trkpt><trkpt lat="43.6654367" lon="12.5113367"><ele>317.0</ele><time>2026-04-25T09:06:31.532Z</time></trkpt><trkpt lat="43.6653917" lon="12.51119"><ele>317.0</ele><time>2026-04-25T09:06:32.534Z</time></trkpt><trkpt lat="43.6653333" lon="12.51104"><ele>317.0</ele><time>2026-04-25T09:06:33.533Z</time></trkpt><trkpt lat="43.665265" lon="12.5108817"><ele>314.5</ele><time>2026-04-25T09:06:34.532Z</time></trkpt><trkpt lat="43.665195" lon="12.5107233"><ele>312.0</ele><time>2026-04-25T09:06:35.53Z</time></trkpt><trkpt lat="43.6651317" lon="12.5105533"><ele>309.5</ele><time>2026-04-25T09:06:36.53Z</time></trkpt><trkpt lat="43.6650817" lon="12.5103733"><ele>307.0</ele><time>2026-04-25T09:06:37.535Z</time></trkpt><trkpt lat="43.665005" lon="12.509995"><ele>307.0</ele><time>2026-04-25T09:06:39.53Z</time></trkpt><trkpt lat="43.6649617" lon="12.5098117"><ele>307.0</ele><time>2026-04-25T09:06:40.533Z</time></trkpt><trkpt lat="43.6649083" lon="12.5096467"><ele>307.0</ele><time>2026-04-25T09:06:41.534Z</time></trkpt><trkpt lat="43.6648333" lon="12.5094983"><ele>307.0</ele><time>2026-04-25T09:06:42.531Z</time></trkpt><trkpt lat="43.6647417" lon="12.5093667"><ele>306.5</ele><time>2026-04-25T09:06:43.535Z</time></trkpt><trkpt lat="43.6646433" lon="12.50924"><ele>306.0</ele><time>2026-04-25T09:06:44.533Z</time></trkpt><trkpt lat="43.6645417" lon="12.5091233"><ele>305.5</ele><time>2026-04-25T09:06:45.533Z</time></trkpt><trkpt lat="43.6644333" lon="12.5090167"><ele>305.0</ele><time>2026-04-25T09:06:46.533Z</time></trkpt><trkpt lat="43.6643233" lon="12.508915"><ele>305.0</ele><time>2026-04-25T09:06:47.53Z</time></trkpt><trkpt lat="43.6642083" lon="12.5088317"><ele>305.0</ele><time>2026-04-25T09:06:48.533Z</time></trkpt><trkpt lat="43.664105" lon="12.5087533"><ele>305.0</ele><time>2026-04-25T09:06:49.531Z</time></trkpt><trkpt lat="43.664015" lon="12.5086583"><ele>305.0</ele><time>2026-04-25T09:06:50.53Z</time></trkpt><trkpt lat="43.66393" lon="12.5085533"><ele>307.6</ele><time>2026-04-25T09:06:51.533Z</time></trkpt><trkpt lat="43.6638683" lon="12.50844"><ele>310.2</ele><time>2026-04-25T09:06:52.536Z</time></trkpt><trkpt lat="43.6638183" lon="12.50832"><ele>312.8</ele><time>2026-04-25T09:06:53.533Z</time></trkpt><trkpt lat="43.6637767" lon="12.5081967"><ele>315.4</ele><time>2026-04-25T09:06:54.533Z</time></trkpt><trkpt lat="43.6637367" lon="12.50807"><ele>318.0</ele><time>2026-04-25T09:06:55.534Z</time></trkpt><trkpt lat="43.6637017" lon="12.5079267"><ele>316.0</ele><time>2026-04-25T09:06:56.531Z</time></trkpt><trkpt lat="43.6636567" lon="12.5077783"><ele>314.0</ele><time>2026-04-25T09:06:57.531Z</time></trkpt><trkpt lat="43.6636017" lon="12.507635"><ele>312.0</ele><time>2026-04-25T09:06:58.532Z</time></trkpt><trkpt lat="43.6634783" lon="12.507345"><ele>312.0</ele><time>2026-04-25T09:07:00.531Z</time></trkpt><trkpt lat="43.6634167" lon="12.5072017"><ele>312.0</ele><time>2026-04-25T09:07:01.532Z</time></trkpt><trkpt lat="43.663355" lon="12.5070617"><ele>312.0</ele><time>2026-04-25T09:07:02.531Z</time></trkpt><trkpt lat="43.6632933" lon="12.5069233"><ele>312.0</ele><time>2026-04-25T09:07:03.533Z</time></trkpt><trkpt lat="43.6632283" lon="12.5067833"><ele>312.5</ele><time>2026-04-25T09:07:04.531Z</time></trkpt><trkpt lat="43.6631583" lon="12.50664"><ele>313.0</ele><time>2026-04-25T09:07:05.531Z</time></trkpt><trkpt lat="43.663095" lon="12.5064967"><ele>313.5</ele><time>2026-04-25T09:07:06.531Z</time></trkpt><trkpt lat="43.6630333" lon="12.5063517"><ele>314.0</ele><time>2026-04-25T09:07:07.532Z</time></trkpt><trkpt lat="43.6629767" lon="12.5062"><ele>314.25</ele><time>2026-04-25T09:07:08.531Z</time></trkpt><trkpt lat="43.662925" lon="12.506045"><ele>314.5</ele><time>2026-04-25T09:07:09.532Z</time></trkpt><trkpt lat="43.6628733" lon="12.5058967"><ele>314.75</ele><time>2026-04-25T09:07:10.532Z</time></trkpt><trkpt lat="43.6628217" lon="12.5057483"><ele>315.0</ele><time>2026-04-25T09:07:11.532Z</time></trkpt><trkpt lat="43.6627683" lon="12.5055983"><ele>315.75</ele><time>2026-04-25T09:07:12.531Z</time></trkpt><trkpt lat="43.662715" lon="12.50545"><ele>316.5</ele><time>2026-04-25T09:07:13.533Z</time></trkpt><trkpt lat="43.6626633" lon="12.5052967"><ele>317.25</ele><time>2026-04-25T09:07:14.533Z</time></trkpt><trkpt lat="43.6626" lon="12.5051417"><ele>318.0</ele><time>2026-04-25T09:07:15.535Z</time></trkpt><trkpt lat="43.662525" lon="12.5049983"><ele>318.0</ele><time>2026-04-25T09:07:16.532Z</time></trkpt><trkpt lat="43.6624417" lon="12.504855"><ele>318.0</ele><time>2026-04-25T09:07:17.533Z</time></trkpt><trkpt lat="43.6623467" lon="12.5047033"><ele>318.0</ele><time>2026-04-25T09:07:18.533Z</time></trkpt><trkpt lat="43.66224" lon="12.504535"><ele>318.0</ele><time>2026-04-25T09:07:19.535Z</time></trkpt><trkpt lat="43.6620017" lon="12.50417"><ele>320.0</ele><time>2026-04-25T09:07:21.534Z</time></trkpt><trkpt lat="43.6618817" lon="12.50398"><ele>322.0</ele><time>2026-04-25T09:07:22.533Z</time></trkpt><trkpt lat="43.6617633" lon="12.5037883"><ele>324.0</ele><time>2026-04-25T09:07:23.533Z</time></trkpt><trkpt lat="43.6616383" lon="12.5035933"><ele>326.3333333333333</ele><time>2026-04-25T09:07:24.533Z</time></trkpt><trkpt lat="43.6615067" lon="12.5033983"><ele>328.66666666666663</ele><time>2026-04-25T09:07:25.534Z</time></trkpt><trkpt lat="43.6613733" lon="12.5032117"><ele>331.0</ele><time>2026-04-25T09:07:26.53Z</time></trkpt><trkpt lat="43.66124" lon="12.5030317"><ele>334.3333333333333</ele><time>2026-04-25T09:07:27.534Z</time></trkpt><trkpt lat="43.6611033" lon="12.502865"><ele>337.6666666666667</ele><time>2026-04-25T09:07:28.534Z</time></trkpt><trkpt lat="43.66097" lon="12.5026983"><ele>341.0</ele><time>2026-04-25T09:07:29.53Z</time></trkpt><trkpt lat="43.6608483" lon="12.5025317"><ele>341.0</ele><time>2026-04-25T09:07:30.53Z</time></trkpt><trkpt lat="43.6607417" lon="12.50235"><ele>341.0</ele><time>2026-04-25T09:07:31.535Z</time></trkpt><trkpt lat="43.6606567" lon="12.5021517"><ele>341.0</ele><time>2026-04-25T09:07:32.533Z</time></trkpt><trkpt lat="43.6605867" lon="12.501935"><ele>342.6666666666667</ele><time>2026-04-25T09:07:33.533Z</time></trkpt><trkpt lat="43.66052" lon="12.501705"><ele>344.3333333333333</ele><time>2026-04-25T09:07:34.534Z</time></trkpt><trkpt lat="43.66045" lon="12.5014667"><ele>346.0</ele><time>2026-04-25T09:07:35.53Z</time></trkpt><trkpt lat="43.66038" lon="12.50122"><ele>349.3333333333333</ele><time>2026-04-25T09:07:36.532Z</time></trkpt><trkpt lat="43.66031" lon="12.500975"><ele>352.6666666666667</ele><time>2026-04-25T09:07:37.531Z</time></trkpt><trkpt lat="43.6602433" lon="12.50073"><ele>356.0</ele><time>2026-04-25T09:07:38.534Z</time></trkpt><trkpt lat="43.6601817" lon="12.50048"><ele>362.5</ele><time>2026-04-25T09:07:39.531Z</time></trkpt><trkpt lat="43.66013" lon="12.5002283"><ele>369.0</ele><time>2026-04-25T09:07:40.533Z</time></trkpt><trkpt lat="43.6600433" lon="12.4997383"><ele>373.0</ele><time>2026-04-25T09:07:42.534Z</time></trkpt><trkpt lat="43.6599983" lon="12.4995133"><ele>377.0</ele><time>2026-04-25T09:07:43.531Z</time></trkpt><trkpt lat="43.659945" lon="12.4993"><ele>381.0</ele><time>2026-04-25T09:07:44.53Z</time></trkpt><trkpt lat="43.659885" lon="12.4991"><ele>381.0</ele><time>2026-04-25T09:07:45.53Z</time></trkpt><trkpt lat="43.659845" lon="12.4989033"><ele>381.0</ele><time>2026-04-25T09:07:46.531Z</time></trkpt><trkpt lat="43.6598167" lon="12.4987233"><ele>381.0</ele><time>2026-04-25T09:07:47.534Z</time></trkpt><trkpt lat="43.65979" lon="12.4985767"><ele>381.0</ele><time>2026-04-25T09:07:48.533Z</time></trkpt><trkpt lat="43.65975" lon="12.4984667"><ele>380.25</ele><time>2026-04-25T09:07:49.534Z</time></trkpt><trkpt lat="43.6596833" lon="12.49837"><ele>379.5</ele><time>2026-04-25T09:07:50.533Z</time></trkpt><trkpt lat="43.6596083" lon="12.4982517"><ele>378.75</ele><time>2026-04-25T09:07:51.534Z</time></trkpt><trkpt lat="43.6595217" lon="12.4981183"><ele>378.0</ele><time>2026-04-25T09:07:52.53Z</time></trkpt><trkpt lat="43.65943" lon="12.49797"><ele>379.25</ele><time>2026-04-25T09:07:53.532Z</time></trkpt><trkpt lat="43.65934" lon="12.4978217"><ele>380.5</ele><time>2026-04-25T09:07:54.531Z</time></trkpt><trkpt lat="43.659255" lon="12.4976833"><ele>381.75</ele><time>2026-04-25T09:07:55.531Z</time></trkpt><trkpt lat="43.6591667" lon="12.497565"><ele>383.0</ele><time>2026-04-25T09:07:56.531Z</time></trkpt><trkpt lat="43.65908" lon="12.49746"><ele>383.0</ele><time>2026-04-25T09:07:57.533Z</time></trkpt><trkpt lat="43.6589833" lon="12.4973783"><ele>383.0</ele><time>2026-04-25T09:07:58.531Z</time></trkpt><trkpt lat="43.6588883" lon="12.497305"><ele>383.0</ele><time>2026-04-25T09:07:59.53Z</time></trkpt><trkpt lat="43.6587883" lon="12.4972417"><ele>383.0</ele><time>2026-04-25T09:08:00.533Z</time></trkpt><trkpt lat="43.658685" lon="12.4971817"><ele>383.0</ele><time>2026-04-25T09:08:01.535Z</time></trkpt><trkpt lat="43.6584767" lon="12.497075"><ele>381.59999999999997</ele><time>2026-04-25T09:08:03.531Z</time></trkpt><trkpt lat="43.65838" lon="12.4970283"><ele>380.2</ele><time>2026-04-25T09:08:04.533Z</time></trkpt><trkpt lat="43.6582833" lon="12.4969817"><ele>378.8</ele><time>2026-04-25T09:08:05.533Z</time></trkpt><trkpt lat="43.6581833" lon="12.49693"><ele>377.4</ele><time>2026-04-25T09:08:06.533Z</time></trkpt><trkpt lat="43.658075" lon="12.4968767"><ele>376.0</ele><time>2026-04-25T09:08:07.536Z</time></trkpt><trkpt lat="43.657975" lon="12.4968083"><ele>376.0</ele><time>2026-04-25T09:08:08.534Z</time></trkpt><trkpt lat="43.6578633" lon="12.4967417"><ele>376.0</ele><time>2026-04-25T09:08:09.535Z</time></trkpt><trkpt lat="43.6577517" lon="12.4966717"><ele>376.0</ele><time>2026-04-25T09:08:10.534Z</time></trkpt><trkpt lat="43.6576283" lon="12.49659"><ele>376.0</ele><time>2026-04-25T09:08:11.531Z</time></trkpt><trkpt lat="43.6575" lon="12.4965017"><ele>376.0</ele><time>2026-04-25T09:08:12.533Z</time></trkpt><trkpt lat="43.657365" lon="12.496405"><ele>376.0</ele><time>2026-04-25T09:08:13.534Z</time></trkpt><trkpt lat="43.6572367" lon="12.4963033"><ele>376.0</ele><time>2026-04-25T09:08:14.533Z</time></trkpt><trkpt lat="43.6571117" lon="12.496205"><ele>376.0</ele><time>2026-04-25T09:08:15.535Z</time></trkpt><trkpt lat="43.6569867" lon="12.4961117"><ele>380.75</ele><time>2026-04-25T09:08:16.536Z</time></trkpt><trkpt lat="43.6568717" lon="12.4960367"><ele>385.5</ele><time>2026-04-25T09:08:17.533Z</time></trkpt><trkpt lat="43.656755" lon="12.4959783"><ele>390.25</ele><time>2026-04-25T09:08:18.533Z</time></trkpt><trkpt lat="43.6566333" lon="12.4959467"><ele>395.0</ele><time>2026-04-25T09:08:19.534Z</time></trkpt><trkpt lat="43.6565117" lon="12.4959383"><ele>395.0</ele><time>2026-04-25T09:08:20.531Z</time></trkpt><trkpt lat="43.656385" lon="12.4959333"><ele>395.0</ele><time>2026-04-25T09:08:21.533Z</time></trkpt><trkpt lat="43.6562583" lon="12.4959133"><ele>395.0</ele><time>2026-04-25T09:08:22.535Z</time></trkpt><trkpt lat="43.6559683" lon="12.495865"><ele>397.5</ele><time>2026-04-25T09:08:24.533Z</time></trkpt><trkpt lat="43.6558233" lon="12.49583"><ele>400.0</ele><time>2026-04-25T09:08:25.531Z</time></trkpt><trkpt lat="43.655675" lon="12.4957883"><ele>402.5</ele><time>2026-04-25T09:08:26.532Z</time></trkpt><trkpt lat="43.6555317" lon="12.4957533"><ele>405.0</ele><time>2026-04-25T09:08:27.532Z</time></trkpt><trkpt lat="43.65539" lon="12.4957183"><ele>408.0</ele><time>2026-04-25T09:08:28.531Z</time></trkpt><trkpt lat="43.6552483" lon="12.49569"><ele>411.0</ele><time>2026-04-25T09:08:29.531Z</time></trkpt><trkpt lat="43.655105" lon="12.495675"><ele>414.0</ele><time>2026-04-25T09:08:30.535Z</time></trkpt><trkpt lat="43.6549583" lon="12.49567"><ele>417.0</ele><time>2026-04-25T09:08:31.531Z</time></trkpt><trkpt lat="43.6548217" lon="12.495665"><ele>417.0</ele><time>2026-04-25T09:08:32.531Z</time></trkpt><trkpt lat="43.6546883" lon="12.495655"><ele>417.0</ele><time>2026-04-25T09:08:33.533Z</time></trkpt><trkpt lat="43.6545667" lon="12.495635"><ele>417.0</ele><time>2026-04-25T09:08:34.533Z</time></trkpt><trkpt lat="43.65445" lon="12.4955967"><ele>417.0</ele><time>2026-04-25T09:08:35.534Z</time></trkpt><trkpt lat="43.6543533" lon="12.4955283"><ele>420.1666666666667</ele><time>2026-04-25T09:08:36.534Z</time></trkpt><trkpt lat="43.6542733" lon="12.4954483"><ele>423.33333333333337</ele><time>2026-04-25T09:08:37.534Z</time></trkpt><trkpt lat="43.6542" lon="12.4953917"><ele>426.5</ele><time>2026-04-25T09:08:38.533Z</time></trkpt><trkpt lat="43.6541267" lon="12.49537"><ele>429.6666666666667</ele><time>2026-04-25T09:08:39.532Z</time></trkpt><trkpt lat="43.65405" lon="12.4953783"><ele>432.83333333333337</ele><time>2026-04-25T09:08:40.531Z</time></trkpt><trkpt lat="43.6539667" lon="12.4954033"><ele>436.0</ele><time>2026-04-25T09:08:41.531Z</time></trkpt><trkpt lat="43.6538583" lon="12.4954317"><ele>437.0</ele><time>2026-04-25T09:08:42.534Z</time></trkpt><trkpt lat="43.65374" lon="12.495455"><ele>438.0</ele><time>2026-04-25T09:08:43.535Z</time></trkpt><trkpt lat="43.6535083" lon="12.4954817"><ele>439.0</ele><time>2026-04-25T09:08:45.531Z</time></trkpt><trkpt lat="43.65341" lon="12.495495"><ele>444.79999999999995</ele><time>2026-04-25T09:08:46.532Z</time></trkpt><trkpt lat="43.6533267" lon="12.4955067"><ele>450.59999999999997</ele><time>2026-04-25T09:08:47.53Z</time></trkpt><trkpt lat="43.6532267" lon="12.4955233"><ele>456.4</ele><time>2026-04-25T09:08:49.534Z</time></trkpt><trkpt lat="43.6532067" lon="12.49543"><ele>462.2</ele><time>2026-04-25T09:08:52.53Z</time></trkpt><trkpt lat="43.65325" lon="12.4953133"><ele>468.0</ele><time>2026-04-25T09:08:54.532Z</time></trkpt><trkpt lat="43.6532783" lon="12.495165"><ele>468.4</ele><time>2026-04-25T09:08:56.531Z</time></trkpt><trkpt lat="43.65327" lon="12.495"><ele>468.79999999999995</ele><time>2026-04-25T09:08:58.531Z</time></trkpt><trkpt lat="43.6532633" lon="12.4948367"><ele>469.2</ele><time>2026-04-25T09:09:00.53Z</time></trkpt><trkpt lat="43.653225" lon="12.4947217"><ele>469.6</ele><time>2026-04-25T09:09:02.53Z</time></trkpt><trkpt lat="43.65315" lon="12.4946333"><ele>470.0</ele><time>2026-04-25T09:09:04.532Z</time></trkpt><trkpt lat="43.6529633" lon="12.49456"><ele>471.8333333333333</ele><time>2026-04-25T09:09:07.534Z</time></trkpt><trkpt lat="43.6528983" lon="12.4945433"><ele>473.66666666666663</ele><time>2026-04-25T09:09:08.53Z</time></trkpt><trkpt lat="43.6528317" lon="12.4945283"><ele>475.5</ele><time>2026-04-25T09:09:09.53Z</time></trkpt><trkpt lat="43.6527317" lon="12.4944933"><ele>477.33333333333337</ele><time>2026-04-25T09:09:11.531Z</time></trkpt><trkpt lat="43.6526667" lon="12.49446"><ele>479.1666666666667</ele><time>2026-04-25T09:09:14.53Z</time></trkpt><trkpt lat="43.6525683" lon="12.4944683"><ele>481.0</ele><time>2026-04-25T09:10:09.531Z</time></trkpt><trkpt lat="43.6524283" lon="12.494465"><ele>481.00000000000006</ele><time>2026-04-25T09:10:13.532Z</time></trkpt><trkpt lat="43.6523683" lon="12.49442"><ele>481.0</ele><time>2026-04-25T09:10:15.533Z</time></trkpt><trkpt lat="43.6523083" lon="12.49428"><ele>481.0</ele><time>2026-04-25T09:10:17.531Z</time></trkpt><trkpt lat="43.6522783" lon="12.49418"><ele>481.0</ele><time>2026-04-25T09:10:18.533Z</time></trkpt><trkpt lat="43.65225" lon="12.494075"><ele>481.00000000000006</ele><time>2026-04-25T09:10:19.532Z</time></trkpt><trkpt lat="43.6522233" lon="12.4939633"><ele>481.0</ele><time>2026-04-25T09:10:20.531Z</time></trkpt><trkpt lat="43.652205" lon="12.4938467"><ele>480.1666666666667</ele><time>2026-04-25T09:10:21.531Z</time></trkpt><trkpt lat="43.6522083" lon="12.493735"><ele>479.33333333333337</ele><time>2026-04-25T09:10:22.533Z</time></trkpt><trkpt lat="43.6522117" lon="12.49363"><ele>478.5</ele><time>2026-04-25T09:10:23.531Z</time></trkpt><trkpt lat="43.6522117" lon="12.4935217"><ele>477.66666666666663</ele><time>2026-04-25T09:10:24.532Z</time></trkpt><trkpt lat="43.652205" lon="12.4934"><ele>476.8333333333333</ele><time>2026-04-25T09:10:25.533Z</time></trkpt><trkpt lat="43.65219" lon="12.4932683"><ele>476.0</ele><time>2026-04-25T09:10:26.531Z</time></trkpt><trkpt lat="43.6521717" lon="12.493145"><ele>476.0</ele><time>2026-04-25T09:10:27.532Z</time></trkpt><trkpt lat="43.6521467" lon="12.4930367"><ele>476.0</ele><time>2026-04-25T09:10:28.534Z</time></trkpt><trkpt lat="43.652135" lon="12.4929467"><ele>476.0</ele><time>2026-04-25T09:10:29.531Z</time></trkpt><trkpt lat="43.6521417" lon="12.4928067"><ele>476.0</ele><time>2026-04-25T09:10:31.532Z</time></trkpt><trkpt lat="43.6522867" lon="12.4926467"><ele>476.0</ele><time>2026-04-25T09:10:34.532Z</time></trkpt><trkpt lat="43.6523667" lon="12.4926217"><ele>476.8333333333333</ele><time>2026-04-25T09:10:35.531Z</time></trkpt><trkpt lat="43.65244" lon="12.4925967"><ele>477.66666666666663</ele><time>2026-04-25T09:10:36.534Z</time></trkpt><trkpt lat="43.652515" lon="12.492575"><ele>478.5</ele><time>2026-04-25T09:10:37.534Z</time></trkpt><trkpt lat="43.6525917" lon="12.4925383"><ele>479.33333333333337</ele><time>2026-04-25T09:10:38.534Z</time></trkpt><trkpt lat="43.6526633" lon="12.4924917"><ele>480.1666666666667</ele><time>2026-04-25T09:10:39.534Z</time></trkpt><trkpt lat="43.6527383" lon="12.4924383"><ele>481.0</ele><time>2026-04-25T09:10:40.534Z</time></trkpt><trkpt lat="43.6528083" lon="12.4923633"><ele>478.8</ele><time>2026-04-25T09:10:41.534Z</time></trkpt><trkpt lat="43.6528767" lon="12.4922717"><ele>476.6</ele><time>2026-04-25T09:10:42.535Z</time></trkpt><trkpt lat="43.65295" lon="12.492175"><ele>474.4</ele><time>2026-04-25T09:10:43.536Z</time></trkpt><trkpt lat="43.6530283" lon="12.49208"><ele>472.2</ele><time>2026-04-25T09:10:44.534Z</time></trkpt><trkpt lat="43.6531167" lon="12.4919917"><ele>470.0</ele><time>2026-04-25T09:10:45.533Z</time></trkpt><trkpt lat="43.653205" lon="12.491905"><ele>469.99999999999994</ele><time>2026-04-25T09:10:46.532Z</time></trkpt><trkpt lat="43.6532817" lon="12.491825"><ele>470.0</ele><time>2026-04-25T09:10:47.532Z</time></trkpt><trkpt lat="43.65335" lon="12.4917517"><ele>470.0</ele><time>2026-04-25T09:10:48.532Z</time></trkpt><trkpt lat="43.6534083" lon="12.4916833"><ele>470.0</ele><time>2026-04-25T09:10:49.532Z</time></trkpt><trkpt lat="43.6534617" lon="12.4916117"><ele>469.99999999999994</ele><time>2026-04-25T09:10:50.532Z</time></trkpt><trkpt lat="43.6535" lon="12.491535"><ele>470.0</ele><time>2026-04-25T09:10:51.531Z</time></trkpt><trkpt lat="43.653515" lon="12.4914467"><ele>470.0</ele><time>2026-04-25T09:10:52.532Z</time></trkpt><trkpt lat="43.6535717" lon="12.4912617"><ele>470.0</ele><time>2026-04-25T09:10:54.535Z</time></trkpt><trkpt lat="43.65362" lon="12.491175"><ele>470.0</ele><time>2026-04-25T09:10:55.536Z</time></trkpt><trkpt lat="43.6536833" lon="12.4910817"><ele>470.0</ele><time>2026-04-25T09:10:56.534Z</time></trkpt><trkpt lat="43.6537667" lon="12.4909833"><ele>470.0</ele><time>2026-04-25T09:10:57.535Z</time></trkpt><trkpt lat="43.6538583" lon="12.490895"><ele>468.0</ele><time>2026-04-25T09:10:58.534Z</time></trkpt><trkpt lat="43.6539533" lon="12.4908133"><ele>466.0</ele><time>2026-04-25T09:10:59.534Z</time></trkpt><trkpt lat="43.6540467" lon="12.490735"><ele>464.0</ele><time>2026-04-25T09:11:00.534Z</time></trkpt><trkpt lat="43.6541383" lon="12.4906617"><ele>462.0</ele><time>2026-04-25T09:11:01.534Z</time></trkpt><trkpt lat="43.6542317" lon="12.4905867"><ele>460.0</ele><time>2026-04-25T09:11:02.531Z</time></trkpt><trkpt lat="43.654325" lon="12.490505"><ele>462.2</ele><time>2026-04-25T09:11:03.535Z</time></trkpt><trkpt lat="43.6544083" lon="12.4904233"><ele>464.4</ele><time>2026-04-25T09:11:04.532Z</time></trkpt><trkpt lat="43.654475" lon="12.4903317"><ele>466.6</ele><time>2026-04-25T09:11:05.535Z</time></trkpt><trkpt lat="43.654515" lon="12.490225"><ele>468.8</ele><time>2026-04-25T09:11:06.534Z</time></trkpt><trkpt lat="43.6545417" lon="12.4900917"><ele>471.0</ele><time>2026-04-25T09:11:07.535Z</time></trkpt><trkpt lat="43.654565" lon="12.4899467"><ele>467.0</ele><time>2026-04-25T09:11:08.531Z</time></trkpt><trkpt lat="43.6545783" lon="12.489805"><ele>463.0</ele><time>2026-04-25T09:11:09.531Z</time></trkpt><trkpt lat="43.65459" lon="12.4896683"><ele>459.0</ele><time>2026-04-25T09:11:10.534Z</time></trkpt><trkpt lat="43.654605" lon="12.4895367"><ele>455.0</ele><time>2026-04-25T09:11:11.534Z</time></trkpt><trkpt lat="43.654615" lon="12.48942"><ele>451.0</ele><time>2026-04-25T09:11:12.534Z</time></trkpt><trkpt lat="43.654615" lon="12.4893167"><ele>451.0</ele><time>2026-04-25T09:11:13.533Z</time></trkpt><trkpt lat="43.65446" lon="12.4890817"><ele>451.0</ele><time>2026-04-25T09:11:17.532Z</time></trkpt><trkpt lat="43.6543867" lon="12.4890267"><ele>451.0</ele><time>2026-04-25T09:11:18.532Z</time></trkpt><trkpt lat="43.6543183" lon="12.48897"><ele>451.0</ele><time>2026-04-25T09:11:19.533Z</time></trkpt><trkpt lat="43.6542433" lon="12.48893"><ele>449.6</ele><time>2026-04-25T09:11:20.532Z</time></trkpt><trkpt lat="43.654165" lon="12.4888833"><ele>448.20000000000005</ele><time>2026-04-25T09:11:21.533Z</time></trkpt><trkpt lat="43.65408" lon="12.4888283"><ele>446.79999999999995</ele><time>2026-04-25T09:11:22.533Z</time></trkpt><trkpt lat="43.6539867" lon="12.4887667"><ele>445.4</ele><time>2026-04-25T09:11:23.536Z</time></trkpt><trkpt lat="43.6538817" lon="12.4887083"><ele>444.0</ele><time>2026-04-25T09:11:24.534Z</time></trkpt><trkpt lat="43.6537833" lon="12.4886383"><ele>444.0</ele><time>2026-04-25T09:11:25.536Z</time></trkpt><trkpt lat="43.6536833" lon="12.4885733"><ele>444.0</ele><time>2026-04-25T09:11:26.534Z</time></trkpt><trkpt lat="43.6535933" lon="12.4885067"><ele>444.0</ele><time>2026-04-25T09:11:27.535Z</time></trkpt><trkpt lat="43.653505" lon="12.4884283"><ele>444.0</ele><time>2026-04-25T09:11:28.533Z</time></trkpt><trkpt lat="43.653425" lon="12.4883267"><ele>444.0</ele><time>2026-04-25T09:11:29.532Z</time></trkpt><trkpt lat="43.6533667" lon="12.4882233"><ele>443.2</ele><time>2026-04-25T09:11:30.535Z</time></trkpt><trkpt lat="43.65332" lon="12.4881"><ele>442.4</ele><time>2026-04-25T09:11:31.532Z</time></trkpt><trkpt lat="43.65331" lon="12.4879967"><ele>441.6</ele><time>2026-04-25T09:11:32.532Z</time></trkpt><trkpt lat="43.653305" lon="12.48785"><ele>440.8</ele><time>2026-04-25T09:11:33.534Z</time></trkpt><trkpt lat="43.6533067" lon="12.4877033"><ele>440.0</ele><time>2026-04-25T09:11:34.534Z</time></trkpt><trkpt lat="43.6533017" lon="12.487435"><ele>440.0</ele><time>2026-04-25T09:11:36.534Z</time></trkpt><trkpt lat="43.6532967" lon="12.4873083"><ele>440.0</ele><time>2026-04-25T09:11:37.532Z</time></trkpt><trkpt lat="43.653285" lon="12.4871833"><ele>440.0</ele><time>2026-04-25T09:11:38.532Z</time></trkpt><trkpt lat="43.65327" lon="12.4870617"><ele>440.0</ele><time>2026-04-25T09:11:39.532Z</time></trkpt><trkpt lat="43.6532533" lon="12.4869333"><ele>440.0</ele><time>2026-04-25T09:11:40.534Z</time></trkpt><trkpt lat="43.6532383" lon="12.4868117"><ele>438.16666666666663</ele><time>2026-04-25T09:11:41.535Z</time></trkpt><trkpt lat="43.6532183" lon="12.4866967"><ele>436.3333333333333</ele><time>2026-04-25T09:11:42.532Z</time></trkpt><trkpt lat="43.6531933" lon="12.486595"><ele>434.5</ele><time>2026-04-25T09:11:43.536Z</time></trkpt><trkpt lat="43.6531583" lon="12.4865117"><ele>432.66666666666663</ele><time>2026-04-25T09:11:44.534Z</time></trkpt><trkpt lat="43.6531083" lon="12.4864567"><ele>430.8333333333333</ele><time>2026-04-25T09:11:45.535Z</time></trkpt><trkpt lat="43.65299" lon="12.486425"><ele>429.0</ele><time>2026-04-25T09:11:47.531Z</time></trkpt><trkpt lat="43.65288" lon="12.4865083"><ele>429.0</ele><time>2026-04-25T09:11:49.534Z</time></trkpt><trkpt lat="43.65284" lon="12.4866083"><ele>429.0</ele><time>2026-04-25T09:11:50.534Z</time></trkpt><trkpt lat="43.6527983" lon="12.4867133"><ele>429.0</ele><time>2026-04-25T09:11:51.534Z</time></trkpt><trkpt lat="43.6527583" lon="12.48681"><ele>429.0</ele><time>2026-04-25T09:11:52.534Z</time></trkpt><trkpt lat="43.65271" lon="12.486905"><ele>429.0</ele><time>2026-04-25T09:11:53.535Z</time></trkpt><trkpt lat="43.6526533" lon="12.4869817"><ele>429.0</ele><time>2026-04-25T09:11:54.536Z</time></trkpt><trkpt lat="43.65258" lon="12.487025"><ele>428.0</ele><time>2026-04-25T09:11:55.536Z</time></trkpt><trkpt lat="43.65238" lon="12.48702"><ele>427.0</ele><time>2026-04-25T09:11:57.534Z</time></trkpt><trkpt lat="43.6522483" lon="12.4869367"><ele>426.0</ele><time>2026-04-25T09:11:58.535Z</time></trkpt><trkpt lat="43.6521183" lon="12.4868517"><ele>426.0</ele><time>2026-04-25T09:11:59.534Z</time></trkpt><trkpt lat="43.6519983" lon="12.4867767"><ele>426.0</ele><time>2026-04-25T09:12:00.535Z</time></trkpt><trkpt lat="43.651895" lon="12.4867067"><ele>426.0</ele><time>2026-04-25T09:12:01.531Z</time></trkpt><trkpt lat="43.65181" lon="12.486645"><ele>426.0</ele><time>2026-04-25T09:12:02.531Z</time></trkpt><trkpt lat="43.651745" lon="12.4865833"><ele>426.0</ele><time>2026-04-25T09:12:03.532Z</time></trkpt><trkpt lat="43.6516917" lon="12.48647"><ele>426.0</ele><time>2026-04-25T09:12:05.535Z</time></trkpt><trkpt lat="43.6517517" lon="12.486375"><ele>426.0</ele><time>2026-04-25T09:12:07.535Z</time></trkpt><trkpt lat="43.6518433" lon="12.4863467"><ele>426.0</ele><time>2026-04-25T09:12:08.536Z</time></trkpt><trkpt lat="43.6519433" lon="12.4863167"><ele>426.0</ele><time>2026-04-25T09:12:09.534Z</time></trkpt><trkpt lat="43.6520667" lon="12.4862733"><ele>426.0</ele><time>2026-04-25T09:12:10.535Z</time></trkpt><trkpt lat="43.6521833" lon="12.486215"><ele>424.20000000000005</ele><time>2026-04-25T09:12:11.534Z</time></trkpt><trkpt lat="43.65229" lon="12.48614"><ele>422.40000000000003</ele><time>2026-04-25T09:12:12.535Z</time></trkpt><trkpt lat="43.6523783" lon="12.48606"><ele>420.6</ele><time>2026-04-25T09:12:13.535Z</time></trkpt><trkpt lat="43.6524667" lon="12.48597"><ele>418.8</ele><time>2026-04-25T09:12:14.534Z</time></trkpt><trkpt lat="43.6525383" lon="12.48587"><ele>417.0</ele><time>2026-04-25T09:12:15.533Z</time></trkpt><trkpt lat="43.6526" lon="12.4857617"><ele>417.0</ele><time>2026-04-25T09:12:16.534Z</time></trkpt><trkpt lat="43.6527" lon="12.4855417"><ele>417.0</ele><time>2026-04-25T09:12:18.533Z</time></trkpt><trkpt lat="43.6527433" lon="12.4854383"><ele>417.0</ele><time>2026-04-25T09:12:19.531Z</time></trkpt><trkpt lat="43.652805" lon="12.4853383"><ele>417.0</ele><time>2026-04-25T09:12:20.53Z</time></trkpt><trkpt lat="43.6528767" lon="12.4852433"><ele>413.40000000000003</ele><time>2026-04-25T09:12:21.531Z</time></trkpt><trkpt lat="43.652955" lon="12.4851583"><ele>409.8</ele><time>2026-04-25T09:12:22.531Z</time></trkpt><trkpt lat="43.6530383" lon="12.4850783"><ele>406.2</ele><time>2026-04-25T09:12:23.532Z</time></trkpt><trkpt lat="43.6531183" lon="12.485"><ele>402.6</ele><time>2026-04-25T09:12:24.532Z</time></trkpt><trkpt lat="43.6531933" lon="12.4849367"><ele>399.0</ele><time>2026-04-25T09:12:25.531Z</time></trkpt><trkpt lat="43.65326" lon="12.484875"><ele>399.0</ele><time>2026-04-25T09:12:26.531Z</time></trkpt><trkpt lat="43.653315" lon="12.4848"><ele>399.0</ele><time>2026-04-25T09:12:27.53Z</time></trkpt><trkpt lat="43.6533517" lon="12.4847217"><ele>399.0</ele><time>2026-04-25T09:12:28.531Z</time></trkpt><trkpt lat="43.6533867" lon="12.4846367"><ele>399.0</ele><time>2026-04-25T09:12:29.531Z</time></trkpt><trkpt lat="43.6534367" lon="12.4845567"><ele>399.0</ele><time>2026-04-25T09:12:30.534Z</time></trkpt><trkpt lat="43.6534883" lon="12.48448"><ele>399.0</ele><time>2026-04-25T09:12:31.534Z</time></trkpt><trkpt lat="43.65354" lon="12.4844067"><ele>399.0</ele><time>2026-04-25T09:12:32.533Z</time></trkpt><trkpt lat="43.653585" lon="12.4843267"><ele>400.79999999999995</ele><time>2026-04-25T09:12:33.534Z</time></trkpt><trkpt lat="43.6536267" lon="12.484235"><ele>402.59999999999997</ele><time>2026-04-25T09:12:34.534Z</time></trkpt><trkpt lat="43.653665" lon="12.4841383"><ele>404.4</ele><time>2026-04-25T09:12:35.534Z</time></trkpt><trkpt lat="43.6536917" lon="12.4840367"><ele>406.2</ele><time>2026-04-25T09:12:36.533Z</time></trkpt><trkpt lat="43.65371" lon="12.4839283"><ele>408.0</ele><time>2026-04-25T09:12:37.533Z</time></trkpt><trkpt lat="43.653725" lon="12.4837183"><ele>408.0</ele><time>2026-04-25T09:12:39.53Z</time></trkpt><trkpt lat="43.65373" lon="12.48363"><ele>408.0</ele><time>2026-04-25T09:12:40.534Z</time></trkpt><trkpt lat="43.6537583" lon="12.4835467"><ele>408.0</ele><time>2026-04-25T09:12:41.533Z</time></trkpt><trkpt lat="43.6538717" lon="12.4834683"><ele>408.0</ele><time>2026-04-25T09:12:43.534Z</time></trkpt><trkpt lat="43.6539417" lon="12.483465"><ele>408.0</ele><time>2026-04-25T09:12:44.533Z</time></trkpt><trkpt lat="43.65402" lon="12.4834933"><ele>408.0</ele><time>2026-04-25T09:12:45.533Z</time></trkpt><trkpt lat="43.6540867" lon="12.4835283"><ele>408.0</ele><time>2026-04-25T09:12:46.533Z</time></trkpt><trkpt lat="43.6541867" lon="12.4835883"><ele>408.0</ele><time>2026-04-25T09:12:48.534Z</time></trkpt><trkpt lat="43.6542483" lon="12.4836383"><ele>408.0</ele><time>2026-04-25T09:15:40.534Z</time></trkpt><trkpt lat="43.65444" lon="12.48376"><ele>408.0</ele><time>2026-04-25T09:15:43.535Z</time></trkpt><trkpt lat="43.654525" lon="12.4838417"><ele>405.75</ele><time>2026-04-25T09:15:44.534Z</time></trkpt><trkpt lat="43.6546117" lon="12.483935"><ele>403.5</ele><time>2026-04-25T09:15:45.535Z</time></trkpt><trkpt lat="43.6547033" lon="12.4840383"><ele>401.25</ele><time>2026-04-25T09:15:46.535Z</time></trkpt><trkpt lat="43.65479" lon="12.4841467"><ele>399.0</ele><time>2026-04-25T09:15:47.53Z</time></trkpt><trkpt lat="43.6548683" lon="12.48426"><ele>399.0</ele><time>2026-04-25T09:15:48.532Z</time></trkpt><trkpt lat="43.6549383" lon="12.4843683"><ele>399.0</ele><time>2026-04-25T09:15:49.532Z</time></trkpt><trkpt lat="43.6550067" lon="12.4844817"><ele>399.0</ele><time>2026-04-25T09:15:50.531Z</time></trkpt><trkpt lat="43.6550733" lon="12.4845933"><ele>399.0</ele><time>2026-04-25T09:15:51.532Z</time></trkpt><trkpt lat="43.6551367" lon="12.4847"><ele>399.0</ele><time>2026-04-25T09:15:52.531Z</time></trkpt><trkpt lat="43.6551967" lon="12.484795"><ele>399.1666666666667</ele><time>2026-04-25T09:15:53.531Z</time></trkpt><trkpt lat="43.6552533" lon="12.48488"><ele>399.33333333333337</ele><time>2026-04-25T09:15:54.531Z</time></trkpt><trkpt lat="43.6553117" lon="12.4849483"><ele>399.5</ele><time>2026-04-25T09:15:55.531Z</time></trkpt><trkpt lat="43.6553717" lon="12.485"><ele>399.6666666666667</ele><time>2026-04-25T09:15:56.531Z</time></trkpt><trkpt lat="43.655435" lon="12.485045"><ele>399.83333333333337</ele><time>2026-04-25T09:15:57.532Z</time></trkpt><trkpt lat="43.6554983" lon="12.4851033"><ele>400.0</ele><time>2026-04-25T09:15:58.534Z</time></trkpt><trkpt lat="43.6555583" lon="12.4851717"><ele>400.0</ele><time>2026-04-25T09:15:59.534Z</time></trkpt><trkpt lat="43.655625" lon="12.4852517"><ele>400.0</ele><time>2026-04-25T09:16:00.533Z</time></trkpt><trkpt lat="43.655705" lon="12.4853233"><ele>400.0</ele><time>2026-04-25T09:16:01.535Z</time></trkpt><trkpt lat="43.65592" lon="12.4854167"><ele>400.0</ele><time>2026-04-25T09:16:03.537Z</time></trkpt><trkpt lat="43.6560317" lon="12.48545"><ele>399.5</ele><time>2026-04-25T09:16:04.534Z</time></trkpt><trkpt lat="43.6561483" lon="12.4854817"><ele>399.0</ele><time>2026-04-25T09:16:05.531Z</time></trkpt><trkpt lat="43.6562633" lon="12.4855317"><ele>398.5</ele><time>2026-04-25T09:16:06.534Z</time></trkpt><trkpt lat="43.6563817" lon="12.4855783"><ele>398.0</ele><time>2026-04-25T09:16:07.535Z</time></trkpt><trkpt lat="43.6565" lon="12.4856267"><ele>398.0</ele><time>2026-04-25T09:16:08.535Z</time></trkpt><trkpt lat="43.6566217" lon="12.4856817"><ele>398.0</ele><time>2026-04-25T09:16:09.531Z</time></trkpt><trkpt lat="43.65674" lon="12.4857283"><ele>398.0</ele><time>2026-04-25T09:16:10.532Z</time></trkpt><trkpt lat="43.6568483" lon="12.48576"><ele>398.0</ele><time>2026-04-25T09:16:11.535Z</time></trkpt><trkpt lat="43.6569383" lon="12.4857833"><ele>398.79999999999995</ele><time>2026-04-25T09:16:12.534Z</time></trkpt><trkpt lat="43.6570367" lon="12.4857833"><ele>399.6</ele><time>2026-04-25T09:16:13.535Z</time></trkpt><trkpt lat="43.65714" lon="12.4857683"><ele>400.4</ele><time>2026-04-25T09:16:14.534Z</time></trkpt><trkpt lat="43.6572433" lon="12.4857283"><ele>401.20000000000005</ele><time>2026-04-25T09:16:15.534Z</time></trkpt><trkpt lat="43.6573483" lon="12.4856733"><ele>402.0</ele><time>2026-04-25T09:16:16.534Z</time></trkpt><trkpt lat="43.6574533" lon="12.4856083"><ele>402.0</ele><time>2026-04-25T09:16:17.534Z</time></trkpt><trkpt lat="43.65756" lon="12.485535"><ele>402.0</ele><time>2026-04-25T09:16:18.533Z</time></trkpt><trkpt lat="43.65766" lon="12.48545"><ele>402.0</ele><time>2026-04-25T09:16:19.532Z</time></trkpt><trkpt lat="43.657755" lon="12.4853633"><ele>402.0</ele><time>2026-04-25T09:16:20.531Z</time></trkpt><trkpt lat="43.65785" lon="12.4852783"><ele>405.25</ele><time>2026-04-25T09:16:21.53Z</time></trkpt><trkpt lat="43.6579433" lon="12.4851967"><ele>408.5</ele><time>2026-04-25T09:16:22.531Z</time></trkpt><trkpt lat="43.6580917" lon="12.4850433"><ele>411.75</ele><time>2026-04-25T09:16:24.531Z</time></trkpt><trkpt lat="43.6581433" lon="12.4849717"><ele>415.0</ele><time>2026-04-25T09:16:25.532Z</time></trkpt><trkpt lat="43.6581333" lon="12.4848417"><ele>415.0</ele><time>2026-04-25T09:16:27.532Z</time></trkpt><trkpt lat="43.65799" lon="12.4848283"><ele>415.0</ele><time>2026-04-25T09:16:29.532Z</time></trkpt><trkpt lat="43.6578717" lon="12.4848633"><ele>415.0</ele><time>2026-04-25T09:16:30.533Z</time></trkpt><trkpt lat="43.6577367" lon="12.4849117"><ele>415.0</ele><time>2026-04-25T09:16:31.532Z</time></trkpt><trkpt lat="43.657605" lon="12.4849567"><ele>416.0</ele><time>2026-04-25T09:16:32.531Z</time></trkpt><trkpt lat="43.6574633" lon="12.48502"><ele>417.0</ele><time>2026-04-25T09:16:33.532Z</time></trkpt><trkpt lat="43.6573417" lon="12.4850817"><ele>418.0</ele><time>2026-04-25T09:16:34.534Z</time></trkpt><trkpt lat="43.6572433" lon="12.485135"><ele>419.0</ele><time>2026-04-25T09:16:35.531Z</time></trkpt><trkpt lat="43.6571617" lon="12.4851633"><ele>418.99999999999994</ele><time>2026-04-25T09:16:36.531Z</time></trkpt><trkpt lat="43.6570967" lon="12.485175"><ele>419.0</ele><time>2026-04-25T09:16:37.534Z</time></trkpt><trkpt lat="43.657035" lon="12.4851317"><ele>419.0</ele><time>2026-04-25T09:16:39.534Z</time></trkpt><trkpt lat="43.6571217" lon="12.4850383"><ele>419.0</ele><time>2026-04-25T09:16:41.533Z</time></trkpt><trkpt lat="43.6571917" lon="12.4849767"><ele>418.99999999999994</ele><time>2026-04-25T09:16:42.534Z</time></trkpt><trkpt lat="43.6572683" lon="12.4848817"><ele>419.0</ele><time>2026-04-25T09:16:43.536Z</time></trkpt><trkpt lat="43.6574417" lon="12.4846517"><ele>421.75</ele><time>2026-04-25T09:16:45.532Z</time></trkpt><trkpt lat="43.6575417" lon="12.4845333"><ele>424.5</ele><time>2026-04-25T09:16:46.531Z</time></trkpt><trkpt lat="43.65766" lon="12.484425"><ele>427.25</ele><time>2026-04-25T09:16:47.532Z</time></trkpt><trkpt lat="43.6577717" lon="12.484345"><ele>430.0</ele><time>2026-04-25T09:16:48.531Z</time></trkpt><trkpt lat="43.65787" lon="12.4842883"><ele>430.0</ele><time>2026-04-25T09:16:49.532Z</time></trkpt><trkpt lat="43.657965" lon="12.4842167"><ele>430.0</ele><time>2026-04-25T09:16:50.531Z</time></trkpt><trkpt lat="43.6580567" lon="12.4841267"><ele>430.0</ele><time>2026-04-25T09:16:51.531Z</time></trkpt><trkpt lat="43.6581383" lon="12.484045"><ele>430.0</ele><time>2026-04-25T09:16:52.531Z</time></trkpt><trkpt lat="43.658205" lon="12.483975"><ele>430.0</ele><time>2026-04-25T09:16:53.532Z</time></trkpt><trkpt lat="43.6582533" lon="12.4839083"><ele>430.0</ele><time>2026-04-25T09:16:54.532Z</time></trkpt><trkpt lat="43.6582467" lon="12.483795"><ele>430.0</ele><time>2026-04-25T09:16:56.531Z</time></trkpt><trkpt lat="43.6581533" lon="12.483795"><ele>430.0</ele><time>2026-04-25T09:16:58.534Z</time></trkpt><trkpt lat="43.658085" lon="12.483835"><ele>430.0</ele><time>2026-04-25T09:16:59.532Z</time></trkpt><trkpt lat="43.658005" lon="12.4838833"><ele>430.0</ele><time>2026-04-25T09:17:00.532Z</time></trkpt><trkpt lat="43.65788" lon="12.48396"><ele>433.0</ele><time>2026-04-25T09:17:01.535Z</time></trkpt><trkpt lat="43.65774" lon="12.4840183"><ele>436.0</ele><time>2026-04-25T09:17:02.534Z</time></trkpt><trkpt lat="43.65759" lon="12.4840733"><ele>439.0</ele><time>2026-04-25T09:17:03.534Z</time></trkpt><trkpt lat="43.6574433" lon="12.4841267"><ele>439.0</ele><time>2026-04-25T09:17:04.534Z</time></trkpt><trkpt lat="43.657195" lon="12.4841933"><ele>439.0</ele><time>2026-04-25T09:17:06.532Z</time></trkpt><trkpt lat="43.6570967" lon="12.4841883"><ele>439.0</ele><time>2026-04-25T09:17:07.534Z</time></trkpt><trkpt lat="43.6570267" lon="12.4841667"><ele>439.0</ele><time>2026-04-25T09:17:08.535Z</time></trkpt><trkpt lat="43.6569867" lon="12.4840767"><ele>439.00000000000006</ele><time>2026-04-25T09:17:10.532Z</time></trkpt><trkpt lat="43.6570867" lon="12.4840483"><ele>439.0</ele><time>2026-04-25T09:17:12.534Z</time></trkpt><trkpt lat="43.6571533" lon="12.48403"><ele>439.0</ele><time>2026-04-25T09:17:13.536Z</time></trkpt><trkpt lat="43.6572267" lon="12.4839883"><ele>439.0</ele><time>2026-04-25T09:17:14.534Z</time></trkpt><trkpt lat="43.657305" lon="12.4839083"><ele>439.00000000000006</ele><time>2026-04-25T09:17:15.535Z</time></trkpt><trkpt lat="43.6573767" lon="12.483815"><ele>439.0</ele><time>2026-04-25T09:17:16.533Z</time></trkpt><trkpt lat="43.657485" lon="12.48367"><ele>441.6666666666667</ele><time>2026-04-25T09:17:17.532Z</time></trkpt><trkpt lat="43.6575983" lon="12.4835317"><ele>444.33333333333337</ele><time>2026-04-25T09:17:18.532Z</time></trkpt><trkpt lat="43.6577367" lon="12.4833817"><ele>447.0</ele><time>2026-04-25T09:17:19.532Z</time></trkpt><trkpt lat="43.6578717" lon="12.4832617"><ele>447.0</ele><time>2026-04-25T09:17:20.532Z</time></trkpt><trkpt lat="43.6579983" lon="12.483165"><ele>447.0</ele><time>2026-04-25T09:17:21.532Z</time></trkpt><trkpt lat="43.6581133" lon="12.483085"><ele>447.0</ele><time>2026-04-25T09:17:22.532Z</time></trkpt><trkpt lat="43.6582183" lon="12.48302"><ele>447.0</ele><time>2026-04-25T09:17:23.535Z</time></trkpt><trkpt lat="43.6583033" lon="12.482965"><ele>452.6</ele><time>2026-04-25T09:17:24.532Z</time></trkpt><trkpt lat="43.6583667" lon="12.4829117"><ele>458.20000000000005</ele><time>2026-04-25T09:17:25.535Z</time></trkpt><trkpt lat="43.6582883" lon="12.48278"><ele>463.8</ele><time>2026-04-25T09:17:29.534Z</time></trkpt><trkpt lat="43.6582117" lon="12.4828283"><ele>469.4</ele><time>2026-04-25T09:17:30.532Z</time></trkpt><trkpt lat="43.65811" lon="12.4828783"><ele>475.0</ele><time>2026-04-25T09:17:31.531Z</time></trkpt><trkpt lat="43.6579683" lon="12.4829233"><ele>470.6666666666667</ele><time>2026-04-25T09:17:32.533Z</time></trkpt><trkpt lat="43.6578017" lon="12.4829733"><ele>466.33333333333337</ele><time>2026-04-25T09:17:33.533Z</time></trkpt><trkpt lat="43.6576233" lon="12.4830417"><ele>462.0</ele><time>2026-04-25T09:17:34.531Z</time></trkpt><trkpt lat="43.6574683" lon="12.48311"><ele>462.0</ele><time>2026-04-25T09:17:35.53Z</time></trkpt><trkpt lat="43.6573367" lon="12.48317"><ele>462.00000000000006</ele><time>2026-04-25T09:17:36.536Z</time></trkpt><trkpt lat="43.657235" lon="12.4832067"><ele>462.00000000000006</ele><time>2026-04-25T09:17:37.531Z</time></trkpt><trkpt lat="43.65716" lon="12.4832133"><ele>462.0</ele><time>2026-04-25T09:17:38.533Z</time></trkpt><trkpt lat="43.6570783" lon="12.4831717"><ele>462.0</ele><time>2026-04-25T09:17:40.53Z</time></trkpt><trkpt lat="43.6571283" lon="12.4830933"><ele>462.0</ele><time>2026-04-25T09:17:42.533Z</time></trkpt><trkpt lat="43.6572567" lon="12.4830267"><ele>462.0</ele><time>2026-04-25T09:17:44.533Z</time></trkpt><trkpt lat="43.6573383" lon="12.482945"><ele>462.0</ele><time>2026-04-25T09:17:45.537Z</time></trkpt><trkpt lat="43.657445" lon="12.4828233"><ele>462.0</ele><time>2026-04-25T09:17:46.531Z</time></trkpt><trkpt lat="43.6577017" lon="12.4825733"><ele>465.25</ele><time>2026-04-25T09:17:48.533Z</time></trkpt><trkpt lat="43.6578083" lon="12.4824717"><ele>468.5</ele><time>2026-04-25T09:17:49.531Z</time></trkpt><trkpt lat="43.6579067" lon="12.4823583"><ele>471.75</ele><time>2026-04-25T09:17:50.53Z</time></trkpt><trkpt lat="43.65798" lon="12.48223"><ele>475.0</ele><time>2026-04-25T09:17:51.531Z</time></trkpt><trkpt lat="43.6580383" lon="12.48209"><ele>479.0</ele><time>2026-04-25T09:17:52.532Z</time></trkpt><trkpt lat="43.658095" lon="12.4819483"><ele>483.0</ele><time>2026-04-25T09:17:53.534Z</time></trkpt><trkpt lat="43.658175" lon="12.4818167"><ele>487.0</ele><time>2026-04-25T09:17:54.622Z</time></trkpt><trkpt lat="43.658275" lon="12.4816983"><ele>491.0</ele><time>2026-04-25T09:17:55.531Z</time></trkpt><trkpt lat="43.6583867" lon="12.4815833"><ele>491.0</ele><time>2026-04-25T09:17:56.534Z</time></trkpt><trkpt lat="43.6584933" lon="12.4814817"><ele>491.0</ele><time>2026-04-25T09:17:57.533Z</time></trkpt><trkpt lat="43.6585867" lon="12.4813983"><ele>491.0</ele><time>2026-04-25T09:17:58.533Z</time></trkpt><trkpt lat="43.6586633" lon="12.48133"><ele>491.0</ele><time>2026-04-25T09:17:59.533Z</time></trkpt><trkpt lat="43.6587167" lon="12.4812717"><ele>491.0</ele><time>2026-04-25T09:18:00.535Z</time></trkpt><trkpt lat="43.6587483" lon="12.4811883"><ele>495.0</ele><time>2026-04-25T09:18:01.534Z</time></trkpt><trkpt lat="43.6587183" lon="12.48107"><ele>499.0</ele><time>2026-04-25T09:18:03.533Z</time></trkpt><trkpt lat="43.6585633" lon="12.4810617"><ele>503.0</ele><time>2026-04-25T09:18:05.534Z</time></trkpt><trkpt lat="43.6584583" lon="12.481085"><ele>507.0</ele><time>2026-04-25T09:18:06.534Z</time></trkpt><trkpt lat="43.6582933" lon="12.4811483"><ele>507.0</ele><time>2026-04-25T09:18:07.535Z</time></trkpt><trkpt lat="43.65801" lon="12.4813133"><ele>507.0</ele><time>2026-04-25T09:18:09.531Z</time></trkpt><trkpt lat="43.6578983" lon="12.4814233"><ele>507.0</ele><time>2026-04-25T09:18:10.531Z</time></trkpt><trkpt lat="43.657775" lon="12.4815433"><ele>507.0</ele><time>2026-04-25T09:18:11.531Z</time></trkpt><trkpt lat="43.6576583" lon="12.4816467"><ele>507.0</ele><time>2026-04-25T09:18:12.534Z</time></trkpt><trkpt lat="43.6575433" lon="12.4817267"><ele>507.0</ele><time>2026-04-25T09:18:13.534Z</time></trkpt><trkpt lat="43.6574483" lon="12.4817733"><ele>507.0</ele><time>2026-04-25T09:18:14.53Z</time></trkpt><trkpt lat="43.6573633" lon="12.4817867"><ele>507.0</ele><time>2026-04-25T09:18:15.532Z</time></trkpt><trkpt lat="43.6572717" lon="12.4817767"><ele>507.00000000000006</ele><time>2026-04-25T09:18:16.531Z</time></trkpt><trkpt lat="43.657175" lon="12.4817283"><ele>507.00000000000006</ele><time>2026-04-25T09:18:17.534Z</time></trkpt><trkpt lat="43.657095" lon="12.4816383"><ele>507.0</ele><time>2026-04-25T09:18:18.534Z</time></trkpt><trkpt lat="43.6570317" lon="12.481545"><ele>507.0</ele><time>2026-04-25T09:18:19.534Z</time></trkpt><trkpt lat="43.6569967" lon="12.481455"><ele>507.0</ele><time>2026-04-25T09:18:20.53Z</time></trkpt><trkpt lat="43.6570317" lon="12.4812933"><ele>507.0</ele><time>2026-04-25T09:18:22.534Z</time></trkpt><trkpt lat="43.6572" lon="12.4812067"><ele>507.0</ele><time>2026-04-25T09:18:23.534Z</time></trkpt><trkpt lat="43.6573333" lon="12.481125"><ele>507.0</ele><time>2026-04-25T09:18:24.531Z</time></trkpt><trkpt lat="43.6574233" lon="12.48103"><ele>508.25</ele><time>2026-04-25T09:18:25.535Z</time></trkpt><trkpt lat="43.6574967" lon="12.4808917"><ele>509.5</ele><time>2026-04-25T09:18:26.535Z</time></trkpt><trkpt lat="43.65755" lon="12.480755"><ele>510.75</ele><time>2026-04-25T09:18:27.533Z</time></trkpt><trkpt lat="43.6576083" lon="12.480645"><ele>512.0</ele><time>2026-04-25T09:18:28.533Z</time></trkpt><trkpt lat="43.6577983" lon="12.48048"><ele>517.0</ele><time>2026-04-25T09:18:30.531Z</time></trkpt><trkpt lat="43.6579033" lon="12.48041"><ele>522.0</ele><time>2026-04-25T09:18:31.532Z</time></trkpt><trkpt lat="43.6579933" lon="12.480325"><ele>527.0</ele><time>2026-04-25T09:18:32.535Z</time></trkpt><trkpt lat="43.65807" lon="12.48021"><ele>532.0</ele><time>2026-04-25T09:18:33.534Z</time></trkpt><trkpt lat="43.6581467" lon="12.480065"><ele>532.0</ele><time>2026-04-25T09:18:34.533Z</time></trkpt><trkpt lat="43.658225" lon="12.4799133"><ele>532.0</ele><time>2026-04-25T09:18:35.53Z</time></trkpt><trkpt lat="43.658295" lon="12.4797867"><ele>532.0</ele><time>2026-04-25T09:18:36.531Z</time></trkpt><trkpt lat="43.65834" lon="12.479685"><ele>532.0</ele><time>2026-04-25T09:18:37.531Z</time></trkpt><trkpt lat="43.6583683" lon="12.4796"><ele>532.0</ele><time>2026-04-25T09:18:38.53Z</time></trkpt><trkpt lat="43.65837" lon="12.4794783"><ele>532.0</ele><time>2026-04-25T09:18:40.533Z</time></trkpt><trkpt lat="43.6582817" lon="12.4795083"><ele>532.0</ele><time>2026-04-25T09:18:42.623Z</time></trkpt><trkpt lat="43.6581683" lon="12.4796067"><ele>532.0</ele><time>2026-04-25T09:18:43.531Z</time></trkpt><trkpt lat="43.6580183" lon="12.47974"><ele>532.0</ele><time>2026-04-25T09:18:44.53Z</time></trkpt><trkpt lat="43.6578983" lon="12.4798467"><ele>534.6</ele><time>2026-04-25T09:18:45.531Z</time></trkpt><trkpt lat="43.6577817" lon="12.4799583"><ele>537.2</ele><time>2026-04-25T09:18:46.535Z</time></trkpt><trkpt lat="43.657695" lon="12.48004"><ele>539.8</ele><time>2026-04-25T09:18:47.533Z</time></trkpt><trkpt lat="43.657615" lon="12.480095"><ele>542.4</ele><time>2026-04-25T09:18:48.531Z</time></trkpt><trkpt lat="43.6575417" lon="12.4801233"><ele>545.0</ele><time>2026-04-25T09:18:49.534Z</time></trkpt><trkpt lat="43.65743" lon="12.4799783"><ele>545.0</ele><time>2026-04-25T09:18:51.535Z</time></trkpt><trkpt lat="43.6573983" lon="12.4798617"><ele>545.0</ele><time>2026-04-25T09:18:52.532Z</time></trkpt><trkpt lat="43.6574167" lon="12.4796767"><ele>545.0</ele><time>2026-04-25T09:18:53.534Z</time></trkpt><trkpt lat="43.657475" lon="12.479475"><ele>545.0</ele><time>2026-04-25T09:18:54.533Z</time></trkpt><trkpt lat="43.6575433" lon="12.4793033"><ele>545.0</ele><time>2026-04-25T09:18:55.532Z</time></trkpt><trkpt lat="43.6576167" lon="12.4791567"><ele>545.0</ele><time>2026-04-25T09:18:56.53Z</time></trkpt><trkpt lat="43.65773" lon="12.4790367"><ele>545.0</ele><time>2026-04-25T09:18:57.534Z</time></trkpt><trkpt lat="43.6578583" lon="12.4789033"><ele>545.0</ele><time>2026-04-25T09:18:58.534Z</time></trkpt><trkpt lat="43.6579717" lon="12.47876"><ele>552.0</ele><time>2026-04-25T09:18:59.534Z</time></trkpt><trkpt lat="43.6580917" lon="12.4786233"><ele>559.0</ele><time>2026-04-25T09:19:00.53Z</time></trkpt><trkpt lat="43.6582283" lon="12.478515"><ele>566.0</ele><time>2026-04-25T09:19:01.531Z</time></trkpt><trkpt lat="43.658355" lon="12.4784383"><ele>566.0</ele><time>2026-04-25T09:19:02.53Z</time></trkpt><trkpt lat="43.65849" lon="12.4784"><ele>566.0</ele><time>2026-04-25T09:19:03.534Z</time></trkpt><trkpt lat="43.6586333" lon="12.47838"><ele>566.0</ele><time>2026-04-25T09:19:04.534Z</time></trkpt><trkpt lat="43.6587633" lon="12.4783783"><ele>566.0</ele><time>2026-04-25T09:19:05.53Z</time></trkpt><trkpt lat="43.658875" lon="12.47838"><ele>565.25</ele><time>2026-04-25T09:19:06.533Z</time></trkpt><trkpt lat="43.658965" lon="12.4783867"><ele>564.5</ele><time>2026-04-25T09:19:07.531Z</time></trkpt><trkpt lat="43.659035" lon="12.4783917"><ele>563.75</ele><time>2026-04-25T09:19:08.53Z</time></trkpt><trkpt lat="43.6591067" lon="12.4783683"><ele>563.0</ele><time>2026-04-25T09:19:10.534Z</time></trkpt><trkpt lat="43.6589117" lon="12.4782383"><ele>563.0</ele><time>2026-04-25T09:19:15.53Z</time></trkpt><trkpt lat="43.6587967" lon="12.47821"><ele>563.0</ele><time>2026-04-25T09:19:16.534Z</time></trkpt><trkpt lat="43.6586883" lon="12.4781783"><ele>563.0</ele><time>2026-04-25T09:19:17.533Z</time></trkpt><trkpt lat="43.6585933" lon="12.47814"><ele>563.0</ele><time>2026-04-25T09:19:18.533Z</time></trkpt><trkpt lat="43.658525" lon="12.4780967"><ele>563.0</ele><time>2026-04-25T09:19:19.531Z</time></trkpt><trkpt lat="43.6584767" lon="12.4780317"><ele>564.1999999999999</ele><time>2026-04-25T09:19:20.533Z</time></trkpt><trkpt lat="43.6584433" lon="12.477935"><ele>565.4</ele><time>2026-04-25T09:19:21.533Z</time></trkpt><trkpt lat="43.6584117" lon="12.4778233"><ele>566.5999999999999</ele><time>2026-04-25T09:19:22.531Z</time></trkpt><trkpt lat="43.658365" lon="12.477715"><ele>567.8</ele><time>2026-04-25T09:19:23.531Z</time></trkpt><trkpt lat="43.6582983" lon="12.4776117"><ele>569.0</ele><time>2026-04-25T09:19:24.532Z</time></trkpt><trkpt lat="43.658235" lon="12.4775133"><ele>569.0</ele><time>2026-04-25T09:19:25.533Z</time></trkpt><trkpt lat="43.6581767" lon="12.4774367"><ele>569.0</ele><time>2026-04-25T09:19:26.531Z</time></trkpt><trkpt lat="43.6581183" lon="12.4773867"><ele>569.0</ele><time>2026-04-25T09:19:27.531Z</time></trkpt><trkpt lat="43.658005" lon="12.4773783"><ele>569.0</ele><time>2026-04-25T09:19:29.531Z</time></trkpt><trkpt lat="43.6579883" lon="12.4775783"><ele>569.0</ele><time>2026-04-25T09:19:31.532Z</time></trkpt><trkpt lat="43.6579667" lon="12.4778133"><ele>569.0</ele><time>2026-04-25T09:19:33.531Z</time></trkpt><trkpt lat="43.65794" lon="12.4779083"><ele>569.0</ele><time>2026-04-25T09:19:34.532Z</time></trkpt><trkpt lat="43.6578883" lon="12.4780083"><ele>569.0</ele><time>2026-04-25T09:19:35.531Z</time></trkpt><trkpt lat="43.6578167" lon="12.47812"><ele>569.0</ele><time>2026-04-25T09:19:36.533Z</time></trkpt><trkpt lat="43.6577517" lon="12.4782117"><ele>569.0</ele><time>2026-04-25T09:19:37.532Z</time></trkpt><trkpt lat="43.6576817" lon="12.4782833"><ele>570.6</ele><time>2026-04-25T09:19:38.531Z</time></trkpt><trkpt lat="43.657605" lon="12.4783417"><ele>572.2</ele><time>2026-04-25T09:19:39.53Z</time></trkpt><trkpt lat="43.6575233" lon="12.47838"><ele>573.8000000000001</ele><time>2026-04-25T09:19:40.532Z</time></trkpt><trkpt lat="43.657435" lon="12.4784067"><ele>575.4</ele><time>2026-04-25T09:19:41.531Z</time></trkpt><trkpt lat="43.6573383" lon="12.47841"><ele>577.0</ele><time>2026-04-25T09:19:42.531Z</time></trkpt><trkpt lat="43.65725" lon="12.4783917"><ele>577.0</ele><time>2026-04-25T09:19:43.532Z</time></trkpt><trkpt lat="43.65717" lon="12.478365"><ele>577.0</ele><time>2026-04-25T09:19:44.534Z</time></trkpt><trkpt lat="43.6570917" lon="12.4783267"><ele>577.0</ele><time>2026-04-25T09:19:45.534Z</time></trkpt><trkpt lat="43.6570217" lon="12.4782783"><ele>577.0</ele><time>2026-04-25T09:19:46.533Z</time></trkpt><trkpt lat="43.656955" lon="12.47821"><ele>577.0</ele><time>2026-04-25T09:19:47.534Z</time></trkpt><trkpt lat="43.65688" lon="12.478135"><ele>577.0</ele><time>2026-04-25T09:19:48.534Z</time></trkpt><trkpt lat="43.6567967" lon="12.4780533"><ele>578.0</ele><time>2026-04-25T09:19:49.531Z</time></trkpt><trkpt lat="43.6567117" lon="12.4779817"><ele>579.0</ele><time>2026-04-25T09:19:50.535Z</time></trkpt><trkpt lat="43.6566233" lon="12.4779083"><ele>580.0</ele><time>2026-04-25T09:19:51.53Z</time></trkpt><trkpt lat="43.65654" lon="12.477855"><ele>581.0</ele><time>2026-04-25T09:19:52.534Z</time></trkpt><trkpt lat="43.656375" lon="12.477795"><ele>583.2</ele><time>2026-04-25T09:19:54.534Z</time></trkpt><trkpt lat="43.656285" lon="12.4777867"><ele>585.4000000000001</ele><time>2026-04-25T09:19:55.534Z</time></trkpt><trkpt lat="43.6561933" lon="12.47778"><ele>587.6</ele><time>2026-04-25T09:19:56.534Z</time></trkpt><trkpt lat="43.6561017" lon="12.4777683"><ele>589.8000000000001</ele><time>2026-04-25T09:19:57.534Z</time></trkpt><trkpt lat="43.65601" lon="12.4777433"><ele>592.0</ele><time>2026-04-25T09:19:58.535Z</time></trkpt><trkpt lat="43.65592" lon="12.47771"><ele>592.0</ele><time>2026-04-25T09:19:59.533Z</time></trkpt><trkpt lat="43.6558233" lon="12.4776567"><ele>592.0</ele><time>2026-04-25T09:20:00.534Z</time></trkpt><trkpt lat="43.65573" lon="12.4775833"><ele>592.0</ele><time>2026-04-25T09:20:01.534Z</time></trkpt><trkpt lat="43.65564" lon="12.47751"><ele>592.0</ele><time>2026-04-25T09:20:02.533Z</time></trkpt><trkpt lat="43.6555667" lon="12.4774367"><ele>592.0</ele><time>2026-04-25T09:20:03.535Z</time></trkpt><trkpt lat="43.6554967" lon="12.4773633"><ele>592.0</ele><time>2026-04-25T09:20:04.534Z</time></trkpt><trkpt lat="43.65542" lon="12.4772883"><ele>592.0</ele><time>2026-04-25T09:20:05.534Z</time></trkpt><trkpt lat="43.6553417" lon="12.4772183"><ele>592.0</ele><time>2026-04-25T09:20:06.534Z</time></trkpt><trkpt lat="43.65527" lon="12.4771533"><ele>592.0</ele><time>2026-04-25T09:20:07.534Z</time></trkpt><trkpt lat="43.6552" lon="12.4770983"><ele>592.0</ele><time>2026-04-25T09:20:08.535Z</time></trkpt><trkpt lat="43.6551317" lon="12.4770517"><ele>592.0</ele><time>2026-04-25T09:20:09.534Z</time></trkpt><trkpt lat="43.655015" lon="12.4770517"><ele>592.0</ele><time>2026-04-25T09:20:11.534Z</time></trkpt><trkpt lat="43.6549567" lon="12.4771333"><ele>592.0</ele><time>2026-04-25T09:20:12.534Z</time></trkpt><trkpt lat="43.65488" lon="12.4771733"><ele>592.0</ele><time>2026-04-25T09:20:13.533Z</time></trkpt><trkpt lat="43.6547067" lon="12.47717"><ele>592.0</ele><time>2026-04-25T09:20:15.534Z</time></trkpt><trkpt lat="43.6546167" lon="12.4771667"><ele>592.0</ele><time>2026-04-25T09:20:16.535Z</time></trkpt><trkpt lat="43.65453" lon="12.4771383"><ele>593.8000000000001</ele><time>2026-04-25T09:20:17.534Z</time></trkpt><trkpt lat="43.6544567" lon="12.4770833"><ele>595.6</ele><time>2026-04-25T09:20:18.534Z</time></trkpt><trkpt lat="43.6544017" lon="12.4769983"><ele>597.4000000000001</ele><time>2026-04-25T09:20:19.535Z</time></trkpt><trkpt lat="43.654365" lon="12.47689"><ele>599.2</ele><time>2026-04-25T09:20:20.535Z</time></trkpt><trkpt lat="43.654365" lon="12.4767417"><ele>601.0</ele><time>2026-04-25T09:20:21.534Z</time></trkpt><trkpt lat="43.6543783" lon="12.4766017"><ele>601.0</ele><time>2026-04-25T09:20:22.533Z</time></trkpt><trkpt lat="43.6543983" lon="12.4764567"><ele>601.0</ele><time>2026-04-25T09:20:23.537Z</time></trkpt><trkpt lat="43.654415" lon="12.47631"><ele>601.0</ele><time>2026-04-25T09:20:24.534Z</time></trkpt><trkpt lat="43.6544133" lon="12.4761667"><ele>601.0</ele><time>2026-04-25T09:20:25.535Z</time></trkpt><trkpt lat="43.6544067" lon="12.4760133"><ele>601.0</ele><time>2026-04-25T09:20:26.534Z</time></trkpt><trkpt lat="43.6543783" lon="12.4758583"><ele>601.5</ele><time>2026-04-25T09:20:27.534Z</time></trkpt><trkpt lat="43.6543383" lon="12.4757"><ele>602.0</ele><time>2026-04-25T09:20:28.534Z</time></trkpt><trkpt lat="43.6542867" lon="12.4755483"><ele>602.5</ele><time>2026-04-25T09:20:29.534Z</time></trkpt><trkpt lat="43.65423" lon="12.4753967"><ele>603.0</ele><time>2026-04-25T09:20:30.534Z</time></trkpt><trkpt lat="43.6541617" lon="12.4752483"><ele>606.0</ele><time>2026-04-25T09:20:31.534Z</time></trkpt><trkpt lat="43.6540817" lon="12.4750983"><ele>609.0</ele><time>2026-04-25T09:20:32.534Z</time></trkpt><trkpt lat="43.6539983" lon="12.474955"><ele>612.0</ele><time>2026-04-25T09:20:33.534Z</time></trkpt><trkpt lat="43.6539167" lon="12.474815"><ele>615.0</ele><time>2026-04-25T09:20:34.533Z</time></trkpt><trkpt lat="43.6537617" lon="12.47455"><ele>614.6</ele><time>2026-04-25T09:20:36.534Z</time></trkpt><trkpt lat="43.6537" lon="12.4744317"><ele>614.2</ele><time>2026-04-25T09:20:37.534Z</time></trkpt><trkpt lat="43.653655" lon="12.4743183"><ele>613.8</ele><time>2026-04-25T09:20:38.535Z</time></trkpt><trkpt lat="43.6536317" lon="12.4742067"><ele>613.4</ele><time>2026-04-25T09:20:39.534Z</time></trkpt><trkpt lat="43.6536183" lon="12.4740917"><ele>613.0</ele><time>2026-04-25T09:20:40.535Z</time></trkpt><trkpt lat="43.6536233" lon="12.4739683"><ele>614.75</ele><time>2026-04-25T09:20:41.531Z</time></trkpt><trkpt lat="43.6536417" lon="12.473835"><ele>616.5</ele><time>2026-04-25T09:20:42.534Z</time></trkpt><trkpt lat="43.6536867" lon="12.4736733"><ele>618.25</ele><time>2026-04-25T09:20:43.535Z</time></trkpt><trkpt lat="43.6537133" lon="12.4735067"><ele>620.0</ele><time>2026-04-25T09:20:44.534Z</time></trkpt><trkpt lat="43.6537333" lon="12.473345"><ele>620.0</ele><time>2026-04-25T09:20:45.531Z</time></trkpt><trkpt lat="43.6537483" lon="12.4731867"><ele>620.0</ele><time>2026-04-25T09:20:46.531Z</time></trkpt><trkpt lat="43.6537717" lon="12.4730383"><ele>620.0</ele><time>2026-04-25T09:20:47.535Z</time></trkpt><trkpt lat="43.6538033" lon="12.4728933"><ele>620.0</ele><time>2026-04-25T09:20:48.534Z</time></trkpt><trkpt lat="43.6538517" lon="12.4727533"><ele>620.0</ele><time>2026-04-25T09:20:49.535Z</time></trkpt><trkpt lat="43.6539" lon="12.4726267"><ele>620.8</ele><time>2026-04-25T09:20:50.535Z</time></trkpt><trkpt lat="43.6539367" lon="12.4724967"><ele>621.6</ele><time>2026-04-25T09:20:51.534Z</time></trkpt><trkpt lat="43.6539567" lon="12.4723717"><ele>622.4</ele><time>2026-04-25T09:20:52.535Z</time></trkpt><trkpt lat="43.6539667" lon="12.472255"><ele>623.2</ele><time>2026-04-25T09:20:53.534Z</time></trkpt><trkpt lat="43.6539683" lon="12.4721367"><ele>624.0</ele><time>2026-04-25T09:20:54.532Z</time></trkpt><trkpt lat="43.6539717" lon="12.4720067"><ele>624.0</ele><time>2026-04-25T09:20:55.534Z</time></trkpt><trkpt lat="43.653955" lon="12.471695"><ele>624.0</ele><time>2026-04-25T09:20:57.531Z</time></trkpt><trkpt lat="43.6539483" lon="12.4715233"><ele>624.0</ele><time>2026-04-25T09:20:58.531Z</time></trkpt><trkpt lat="43.6539433" lon="12.4713433"><ele>623.0</ele><time>2026-04-25T09:20:59.532Z</time></trkpt><trkpt lat="43.6539367" lon="12.4711717"><ele>622.0</ele><time>2026-04-25T09:21:00.533Z</time></trkpt><trkpt lat="43.6539267" lon="12.4710017"><ele>621.0</ele><time>2026-04-25T09:21:01.532Z</time></trkpt><trkpt lat="43.6539133" lon="12.4708283"><ele>620.0</ele><time>2026-04-25T09:21:02.531Z</time></trkpt><trkpt lat="43.6538933" lon="12.4706533"><ele>620.0</ele><time>2026-04-25T09:21:03.531Z</time></trkpt><trkpt lat="43.6538733" lon="12.4704817"><ele>620.0</ele><time>2026-04-25T09:21:04.531Z</time></trkpt><trkpt lat="43.6538583" lon="12.4703167"><ele>620.0</ele><time>2026-04-25T09:21:05.532Z</time></trkpt><trkpt lat="43.65385" lon="12.4701517"><ele>620.0</ele><time>2026-04-25T09:21:06.531Z</time></trkpt><trkpt lat="43.6538483" lon="12.469985"><ele>619.8</ele><time>2026-04-25T09:21:07.531Z</time></trkpt><trkpt lat="43.6538533" lon="12.4698267"><ele>619.6</ele><time>2026-04-25T09:21:08.531Z</time></trkpt><trkpt lat="43.653865" lon="12.4696917"><ele>619.4</ele><time>2026-04-25T09:21:09.531Z</time></trkpt><trkpt lat="43.6538767" lon="12.469575"><ele>619.2</ele><time>2026-04-25T09:21:10.534Z</time></trkpt><trkpt lat="43.65389" lon="12.469465"><ele>619.0</ele><time>2026-04-25T09:21:11.535Z</time></trkpt><trkpt lat="43.6539067" lon="12.4693617"><ele>619.4</ele><time>2026-04-25T09:21:12.534Z</time></trkpt><trkpt lat="43.6539267" lon="12.4692633"><ele>619.8</ele><time>2026-04-25T09:21:13.535Z</time></trkpt><trkpt lat="43.6539483" lon="12.46915"><ele>620.2</ele><time>2026-04-25T09:21:14.534Z</time></trkpt><trkpt lat="43.6539817" lon="12.4690183"><ele>620.6</ele><time>2026-04-25T09:21:15.534Z</time></trkpt><trkpt lat="43.65402" lon="12.46887"><ele>621.0</ele><time>2026-04-25T09:21:16.534Z</time></trkpt><trkpt lat="43.6540867" lon="12.4685633"><ele>621.0</ele><time>2026-04-25T09:21:18.534Z</time></trkpt><trkpt lat="43.6541217" lon="12.468425"><ele>621.0</ele><time>2026-04-25T09:21:19.535Z</time></trkpt><trkpt lat="43.6541667" lon="12.4682933"><ele>621.0</ele><time>2026-04-25T09:21:20.532Z</time></trkpt><trkpt lat="43.654225" lon="12.468175"><ele>621.0</ele><time>2026-04-25T09:21:21.536Z</time></trkpt><trkpt lat="43.6542867" lon="12.468055"><ele>621.0</ele><time>2026-04-25T09:21:22.535Z</time></trkpt><trkpt lat="43.6543333" lon="12.467935"><ele>620.8</ele><time>2026-04-25T09:21:23.534Z</time></trkpt><trkpt lat="43.65436" lon="12.4678033"><ele>620.6</ele><time>2026-04-25T09:21:24.534Z</time></trkpt><trkpt lat="43.654365" lon="12.4676717"><ele>620.4</ele><time>2026-04-25T09:21:25.535Z</time></trkpt><trkpt lat="43.65436" lon="12.46754"><ele>620.2</ele><time>2026-04-25T09:21:26.534Z</time></trkpt><trkpt lat="43.65436" lon="12.4674067"><ele>620.0</ele><time>2026-04-25T09:21:27.534Z</time></trkpt><trkpt lat="43.654355" lon="12.467275"><ele>620.0</ele><time>2026-04-25T09:21:28.534Z</time></trkpt><trkpt lat="43.6543367" lon="12.4671583"><ele>620.0</ele><time>2026-04-25T09:21:29.534Z</time></trkpt><trkpt lat="43.6543083" lon="12.4670517"><ele>620.0</ele><time>2026-04-25T09:21:30.533Z</time></trkpt><trkpt lat="43.6542683" lon="12.46696"><ele>620.0</ele><time>2026-04-25T09:21:31.534Z</time></trkpt><trkpt lat="43.6542217" lon="12.4668683"><ele>620.0</ele><time>2026-04-25T09:21:32.534Z</time></trkpt><trkpt lat="43.6541683" lon="12.466775"><ele>620.0</ele><time>2026-04-25T09:21:33.534Z</time></trkpt><trkpt lat="43.6541117" lon="12.466695"><ele>621.25</ele><time>2026-04-25T09:21:34.531Z</time></trkpt><trkpt lat="43.6540417" lon="12.4666217"><ele>622.5</ele><time>2026-04-25T09:21:35.531Z</time></trkpt><trkpt lat="43.6539617" lon="12.46655"><ele>623.75</ele><time>2026-04-25T09:21:36.535Z</time></trkpt><trkpt lat="43.653865" lon="12.466485"><ele>625.0</ele><time>2026-04-25T09:21:37.534Z</time></trkpt><trkpt lat="43.6536317" lon="12.4663433"><ele>622.6</ele><time>2026-04-25T09:21:39.534Z</time></trkpt><trkpt lat="43.6535233" lon="12.4662817"><ele>620.2</ele><time>2026-04-25T09:21:40.534Z</time></trkpt><trkpt lat="43.6534233" lon="12.4662183"><ele>617.8</ele><time>2026-04-25T09:21:41.534Z</time></trkpt><trkpt lat="43.653325" lon="12.4661617"><ele>615.4</ele><time>2026-04-25T09:21:42.535Z</time></trkpt><trkpt lat="43.653225" lon="12.46611"><ele>613.0</ele><time>2026-04-25T09:21:43.535Z</time></trkpt><trkpt lat="43.6531183" lon="12.466055"><ele>613.0</ele><time>2026-04-25T09:21:44.534Z</time></trkpt><trkpt lat="43.65301" lon="12.46599"><ele>613.0</ele><time>2026-04-25T09:21:45.535Z</time></trkpt><trkpt lat="43.6529017" lon="12.4659133"><ele>613.0</ele><time>2026-04-25T09:21:46.531Z</time></trkpt><trkpt lat="43.652795" lon="12.465825"><ele>613.0</ele><time>2026-04-25T09:21:47.531Z</time></trkpt><trkpt lat="43.6526983" lon="12.4657417"><ele>613.6666666666667</ele><time>2026-04-25T09:21:48.532Z</time></trkpt><trkpt lat="43.6526083" lon="12.46567"><ele>614.3333333333334</ele><time>2026-04-25T09:21:49.532Z</time></trkpt><trkpt lat="43.6525283" lon="12.4656167"><ele>615.0</ele><time>2026-04-25T09:21:50.531Z</time></trkpt><trkpt lat="43.652455" lon="12.4655883"><ele>615.6666666666666</ele><time>2026-04-25T09:21:51.531Z</time></trkpt><trkpt lat="43.6523833" lon="12.4655933"><ele>616.3333333333333</ele><time>2026-04-25T09:21:52.531Z</time></trkpt><trkpt lat="43.6523017" lon="12.4656233"><ele>617.0</ele><time>2026-04-25T09:21:53.535Z</time></trkpt><trkpt lat="43.6522117" lon="12.465665"><ele>617.0</ele><time>2026-04-25T09:21:54.532Z</time></trkpt><trkpt lat="43.6521333" lon="12.46571"><ele>617.0</ele><time>2026-04-25T09:21:55.532Z</time></trkpt><trkpt lat="43.6520633" lon="12.4657417"><ele>617.0</ele><time>2026-04-25T09:21:56.531Z</time></trkpt><trkpt lat="43.652" lon="12.465775"><ele>617.0</ele><time>2026-04-25T09:21:57.532Z</time></trkpt><trkpt lat="43.6519333" lon="12.4657817"><ele>617.0</ele><time>2026-04-25T09:21:58.535Z</time></trkpt><trkpt lat="43.6517433" lon="12.4656783"><ele>618.7142857142858</ele><time>2026-04-25T09:22:01.534Z</time></trkpt><trkpt lat="43.65168" lon="12.4656317"><ele>620.4285714285713</ele><time>2026-04-25T09:22:02.535Z</time></trkpt><trkpt lat="43.6516267" lon="12.465575"><ele>622.1428571428571</ele><time>2026-04-25T09:22:03.531Z</time></trkpt><trkpt lat="43.6515883" lon="12.4655033"><ele>623.8571428571429</ele><time>2026-04-25T09:22:04.535Z</time></trkpt><trkpt lat="43.6515583" lon="12.4654267"><ele>625.5714285714287</ele><time>2026-04-25T09:22:05.534Z</time></trkpt><trkpt lat="43.6515317" lon="12.465345"><ele>627.2857142857142</ele><time>2026-04-25T09:22:06.534Z</time></trkpt><trkpt lat="43.6514833" lon="12.465205"><ele>629.0</ele><time>2026-04-25T09:22:08.535Z</time></trkpt><trkpt lat="43.6513883" lon="12.4651383"><ele>629.1666666666666</ele><time>2026-04-25T09:22:10.531Z</time></trkpt><trkpt lat="43.6513133" lon="12.4651367"><ele>629.3333333333333</ele><time>2026-04-25T09:22:11.532Z</time></trkpt><trkpt lat="43.6512333" lon="12.4651183"><ele>629.5</ele><time>2026-04-25T09:22:12.536Z</time></trkpt><trkpt lat="43.65115" lon="12.46509"><ele>629.6666666666666</ele><time>2026-04-25T09:22:13.534Z</time></trkpt><trkpt lat="43.65107" lon="12.4650417"><ele>629.8333333333334</ele><time>2026-04-25T09:22:14.536Z</time></trkpt><trkpt lat="43.651005" lon="12.4649717"><ele>630.0</ele><time>2026-04-25T09:22:15.534Z</time></trkpt><trkpt lat="43.6509417" lon="12.4648967"><ele>631.3333333333334</ele><time>2026-04-25T09:22:16.533Z</time></trkpt><trkpt lat="43.650885" lon="12.4648217"><ele>632.6666666666666</ele><time>2026-04-25T09:22:17.533Z</time></trkpt><trkpt lat="43.6508333" lon="12.4647633"><ele>634.0</ele><time>2026-04-25T09:22:18.533Z</time></trkpt><trkpt lat="43.65078" lon="12.464715"><ele>635.3333333333333</ele><time>2026-04-25T09:22:19.533Z</time></trkpt><trkpt lat="43.6506483" lon="12.4646067"><ele>636.6666666666666</ele><time>2026-04-25T09:22:21.533Z</time></trkpt><trkpt lat="43.65058" lon="12.4645567"><ele>638.0</ele><time>2026-04-25T09:22:22.533Z</time></trkpt><trkpt lat="43.6505217" lon="12.4645133"><ele>638.0</ele><time>2026-04-25T09:22:23.533Z</time></trkpt><trkpt lat="43.6504233" lon="12.46443"><ele>638.0</ele><time>2026-04-25T09:22:25.535Z</time></trkpt><trkpt lat="43.6503817" lon="12.4642917"><ele>638.0</ele><time>2026-04-25T09:22:27.531Z</time></trkpt><trkpt lat="43.650365" lon="12.464135"><ele>638.0</ele><time>2026-04-25T09:22:29.535Z</time></trkpt><trkpt lat="43.650335" lon="12.464025"><ele>638.0</ele><time>2026-04-25T09:22:31.532Z</time></trkpt><trkpt lat="43.6503" lon="12.46395"><ele>653.0</ele><time>2026-04-25T09:23:24.534Z</time></trkpt><trkpt lat="43.65027" lon="12.4637183"><ele>668.0</ele><time>2026-04-25T09:24:39.533Z</time></trkpt><trkpt lat="43.650255" lon="12.4633867"><ele>683.0</ele><time>2026-04-25T09:24:43.532Z</time></trkpt><trkpt lat="43.6502717" lon="12.4632433"><ele>683.0</ele><time>2026-04-25T09:24:45.531Z</time></trkpt><trkpt lat="43.65029" lon="12.463155"><ele>683.0</ele><time>2026-04-25T09:24:46.531Z</time></trkpt><trkpt lat="43.6503217" lon="12.4630033"><ele>683.0</ele><time>2026-04-25T09:24:48.531Z</time></trkpt><trkpt lat="43.6503533" lon="12.462855"><ele>683.0</ele><time>2026-04-25T09:24:50.531Z</time></trkpt><trkpt lat="43.650375" lon="12.462765"><ele>683.0</ele><time>2026-04-25T09:24:51.535Z</time></trkpt><trkpt lat="43.6504033" lon="12.4626667"><ele>683.0</ele><time>2026-04-25T09:24:52.531Z</time></trkpt><trkpt lat="43.6504283" lon="12.4625567"><ele>683.1666666666666</ele><time>2026-04-25T09:24:53.532Z</time></trkpt><trkpt lat="43.6504367" lon="12.4624617"><ele>683.3333333333333</ele><time>2026-04-25T09:24:54.532Z</time></trkpt><trkpt lat="43.6504367" lon="12.4623583"><ele>683.5</ele><time>2026-04-25T09:24:55.532Z</time></trkpt><trkpt lat="43.65043" lon="12.462265"><ele>683.6666666666666</ele><time>2026-04-25T09:24:56.534Z</time></trkpt><trkpt lat="43.6504167" lon="12.462105"><ele>683.8333333333334</ele><time>2026-04-25T09:24:58.531Z</time></trkpt><trkpt lat="43.650385" lon="12.4619783"><ele>684.0</ele><time>2026-04-25T09:25:00.534Z</time></trkpt><trkpt lat="43.6502133" lon="12.4618883"><ele>681.6666666666666</ele><time>2026-04-25T09:25:03.53Z</time></trkpt><trkpt lat="43.65014" lon="12.4618917"><ele>679.3333333333334</ele><time>2026-04-25T09:25:04.531Z</time></trkpt><trkpt lat="43.6500667" lon="12.4618967"><ele>677.0</ele><time>2026-04-25T09:25:05.531Z</time></trkpt><trkpt lat="43.6499917" lon="12.4618967"><ele>674.6666666666667</ele><time>2026-04-25T09:25:06.532Z</time></trkpt><trkpt lat="43.6499183" lon="12.4619017"><ele>672.3333333333334</ele><time>2026-04-25T09:25:07.531Z</time></trkpt><trkpt lat="43.64984" lon="12.4619033"><ele>670.0</ele><time>2026-04-25T09:25:08.532Z</time></trkpt><trkpt lat="43.64976" lon="12.461905"><ele>670.0</ele><time>2026-04-25T09:25:09.532Z</time></trkpt><trkpt lat="43.6496833" lon="12.4618983"><ele>670.0</ele><time>2026-04-25T09:25:10.532Z</time></trkpt><trkpt lat="43.6496117" lon="12.4618917"><ele>670.0</ele><time>2026-04-25T09:25:11.53Z</time></trkpt><trkpt lat="43.6495417" lon="12.4618867"><ele>670.0</ele><time>2026-04-25T09:25:12.531Z</time></trkpt><trkpt lat="43.6494733" lon="12.4618767"><ele>670.0</ele><time>2026-04-25T09:25:13.532Z</time></trkpt><trkpt lat="43.64941" lon="12.46186"><ele>670.0</ele><time>2026-04-25T09:25:14.53Z</time></trkpt><trkpt lat="43.6492983" lon="12.4618167"><ele>668.25</ele><time>2026-04-25T09:25:16.531Z</time></trkpt><trkpt lat="43.6492067" lon="12.4617417"><ele>666.5</ele><time>2026-04-25T09:25:18.533Z</time></trkpt><trkpt lat="43.64912" lon="12.4616717"><ele>664.75</ele><time>2026-04-25T09:25:20.531Z</time></trkpt><trkpt lat="43.6489983" lon="12.4616467"><ele>663.0</ele><time>2026-04-25T09:25:22.532Z</time></trkpt><trkpt lat="43.648745" lon="12.4616683"><ele>663.0</ele><time>2026-04-25T09:25:26.534Z</time></trkpt><trkpt lat="43.6486633" lon="12.461685"><ele>663.0</ele><time>2026-04-25T09:25:27.534Z</time></trkpt><trkpt lat="43.6485833" lon="12.4617167"><ele>663.0</ele><time>2026-04-25T09:25:28.536Z</time></trkpt><trkpt lat="43.6485" lon="12.4617517"><ele>663.0</ele><time>2026-04-25T09:25:29.534Z</time></trkpt><trkpt lat="43.6484167" lon="12.4618"><ele>663.0</ele><time>2026-04-25T09:25:30.534Z</time></trkpt><trkpt lat="43.6483267" lon="12.46185"><ele>663.0</ele><time>2026-04-25T09:25:31.534Z</time></trkpt><trkpt lat="43.6482433" lon="12.4619017"><ele>662.1666666666666</ele><time>2026-04-25T09:25:32.531Z</time></trkpt><trkpt lat="43.6481583" lon="12.461955"><ele>661.3333333333334</ele><time>2026-04-25T09:25:33.535Z</time></trkpt><trkpt lat="43.648075" lon="12.4619983"><ele>660.5</ele><time>2026-04-25T09:25:34.535Z</time></trkpt><trkpt lat="43.6479967" lon="12.46204"><ele>659.6666666666667</ele><time>2026-04-25T09:25:35.534Z</time></trkpt><trkpt lat="43.6479217" lon="12.4620833"><ele>658.8333333333334</ele><time>2026-04-25T09:25:36.534Z</time></trkpt><trkpt lat="43.6478483" lon="12.4621317"><ele>658.0</ele><time>2026-04-25T09:25:37.531Z</time></trkpt><trkpt lat="43.6477817" lon="12.4621817"><ele>653.3333333333334</ele><time>2026-04-25T09:25:38.537Z</time></trkpt><trkpt lat="43.6477183" lon="12.4622367"><ele>648.6666666666667</ele><time>2026-04-25T09:25:39.534Z</time></trkpt><trkpt lat="43.64766" lon="12.4623033"><ele>644.0</ele><time>2026-04-25T09:25:40.534Z</time></trkpt><trkpt lat="43.6476033" lon="12.4623833"><ele>639.3333333333334</ele><time>2026-04-25T09:25:41.534Z</time></trkpt><trkpt lat="43.6475483" lon="12.4624683"><ele>634.6666666666666</ele><time>2026-04-25T09:25:42.535Z</time></trkpt><trkpt lat="43.647485" lon="12.46256"><ele>630.0</ele><time>2026-04-25T09:25:43.533Z</time></trkpt><trkpt lat="43.6473483" lon="12.4627"><ele>630.0</ele><time>2026-04-25T09:25:45.532Z</time></trkpt><trkpt lat="43.6472783" lon="12.4627533"><ele>630.0</ele><time>2026-04-25T09:25:46.532Z</time></trkpt><trkpt lat="43.6472167" lon="12.4627967"><ele>630.0</ele><time>2026-04-25T09:25:47.531Z</time></trkpt><trkpt lat="43.6471333" lon="12.4628333"><ele>630.0</ele><time>2026-04-25T09:25:49.531Z</time></trkpt><trkpt lat="43.6470217" lon="12.4629033"><ele>630.0</ele><time>2026-04-25T09:26:14.532Z</time></trkpt><trkpt lat="43.6468433" lon="12.4629883"><ele>632.4</ele><time>2026-04-25T09:26:18.536Z</time></trkpt><trkpt lat="43.64676" lon="12.4630167"><ele>634.8</ele><time>2026-04-25T09:26:20.535Z</time></trkpt><trkpt lat="43.646665" lon="12.4630233"><ele>637.2</ele><time>2026-04-25T09:26:22.534Z</time></trkpt><trkpt lat="43.64655" lon="12.4629917"><ele>639.6</ele><time>2026-04-25T09:26:24.533Z</time></trkpt><trkpt lat="43.6464383" lon="12.4629633"><ele>642.0</ele><time>2026-04-25T09:26:26.534Z</time></trkpt><trkpt lat="43.6463117" lon="12.4629583"><ele>642.0</ele><time>2026-04-25T09:26:28.534Z</time></trkpt><trkpt lat="43.6462433" lon="12.4629617"><ele>642.0</ele><time>2026-04-25T09:26:29.53Z</time></trkpt><trkpt lat="43.6461667" lon="12.462975"><ele>642.0</ele><time>2026-04-25T09:26:30.532Z</time></trkpt><trkpt lat="43.6460917" lon="12.462995"><ele>642.0</ele><time>2026-04-25T09:26:31.538Z</time></trkpt><trkpt lat="43.6460167" lon="12.46302"><ele>642.0</ele><time>2026-04-25T09:26:32.532Z</time></trkpt><trkpt lat="43.6459517" lon="12.463045"><ele>642.0</ele><time>2026-04-25T09:26:33.535Z</time></trkpt><trkpt lat="43.6458283" lon="12.4630533"><ele>638.4</ele><time>2026-04-25T09:26:35.532Z</time></trkpt><trkpt lat="43.6456717" lon="12.4630217"><ele>634.8000000000001</ele><time>2026-04-25T09:26:37.534Z</time></trkpt><trkpt lat="43.64559" lon="12.4629883"><ele>631.2</ele><time>2026-04-25T09:26:38.535Z</time></trkpt><trkpt lat="43.6455133" lon="12.46295"><ele>627.6</ele><time>2026-04-25T09:26:39.534Z</time></trkpt><trkpt lat="43.6454367" lon="12.4629083"><ele>624.0</ele><time>2026-04-25T09:26:40.534Z</time></trkpt><trkpt lat="43.6453633" lon="12.462865"><ele>619.5714285714286</ele><time>2026-04-25T09:26:41.534Z</time></trkpt><trkpt lat="43.6452917" lon="12.4628217"><ele>615.1428571428571</ele><time>2026-04-25T09:26:42.532Z</time></trkpt><trkpt lat="43.6452183" lon="12.4627783"><ele>610.7142857142857</ele><time>2026-04-25T09:26:43.535Z</time></trkpt><trkpt lat="43.6451467" lon="12.462745"><ele>606.2857142857142</ele><time>2026-04-25T09:26:44.534Z</time></trkpt><trkpt lat="43.6450767" lon="12.46271"><ele>601.8571428571429</ele><time>2026-04-25T09:26:45.534Z</time></trkpt><trkpt lat="43.64502" lon="12.4626633"><ele>597.4285714285713</ele><time>2026-04-25T09:26:46.534Z</time></trkpt><trkpt lat="43.6449667" lon="12.4626017"><ele>593.0</ele><time>2026-04-25T09:26:47.534Z</time></trkpt><trkpt lat="43.6449133" lon="12.46253"><ele>593.0</ele><time>2026-04-25T09:26:48.535Z</time></trkpt><trkpt lat="43.64486" lon="12.4624667"><ele>593.0</ele><time>2026-04-25T09:26:49.536Z</time></trkpt><trkpt lat="43.6448083" lon="12.4624117"><ele>593.0</ele><time>2026-04-25T09:26:50.535Z</time></trkpt><trkpt lat="43.6447333" lon="12.4623683"><ele>593.0</ele><time>2026-04-25T09:26:52.534Z</time></trkpt><trkpt lat="43.6446617" lon="12.4624067"><ele>593.0</ele><time>2026-04-25T09:26:55.536Z</time></trkpt><trkpt lat="43.6445733" lon="12.4624583"><ele>593.0</ele><time>2026-04-25T09:26:57.534Z</time></trkpt><trkpt lat="43.6443617" lon="12.462465"><ele>593.0</ele><time>2026-04-25T09:27:01.532Z</time></trkpt><trkpt lat="43.6442767" lon="12.4625133"><ele>593.0</ele><time>2026-04-25T09:27:03.534Z</time></trkpt><trkpt lat="43.6442033" lon="12.46261"><ele>593.0</ele><time>2026-04-25T09:27:05.535Z</time></trkpt><trkpt lat="43.6442583" lon="12.4625433"><ele>593.0</ele><time>2026-04-25T09:27:42.531Z</time></trkpt><trkpt lat="43.6444167" lon="12.4624783"><ele>593.0</ele><time>2026-04-25T09:27:46.53Z</time></trkpt><trkpt lat="43.6444817" lon="12.462485"><ele>593.0</ele><time>2026-04-25T09:27:48.53Z</time></trkpt><trkpt lat="43.6445567" lon="12.4624817"><ele>593.0</ele><time>2026-04-25T09:27:50.53Z</time></trkpt><trkpt lat="43.644635" lon="12.4624483"><ele>593.0</ele><time>2026-04-25T09:27:52.532Z</time></trkpt><trkpt lat="43.644695" lon="12.4623733"><ele>593.0</ele><time>2026-04-25T09:27:55.531Z</time></trkpt><trkpt lat="43.6447383" lon="12.4623"><ele>593.0</ele><time>2026-04-25T09:28:15.53Z</time></trkpt><trkpt lat="43.6449" lon="12.462135"><ele>591.3333333333333</ele><time>2026-04-25T09:28:18.532Z</time></trkpt><trkpt lat="43.644965" lon="12.4620883"><ele>589.6666666666666</ele><time>2026-04-25T09:28:19.531Z</time></trkpt><trkpt lat="43.6450317" lon="12.462035"><ele>588.0</ele><time>2026-04-25T09:28:20.53Z</time></trkpt><trkpt lat="43.6450983" lon="12.461965"><ele>586.3333333333334</ele><time>2026-04-25T09:28:21.531Z</time></trkpt><trkpt lat="43.6451683" lon="12.4618717"><ele>584.6666666666667</ele><time>2026-04-25T09:28:22.531Z</time></trkpt><trkpt lat="43.64524" lon="12.4617733"><ele>583.0</ele><time>2026-04-25T09:28:23.532Z</time></trkpt><trkpt lat="43.6453083" lon="12.4616833"><ele>583.0</ele><time>2026-04-25T09:28:24.532Z</time></trkpt><trkpt lat="43.64537" lon="12.4616"><ele>583.0</ele><time>2026-04-25T09:28:25.532Z</time></trkpt><trkpt lat="43.6454283" lon="12.4615117"><ele>583.0</ele><time>2026-04-25T09:28:26.531Z</time></trkpt><trkpt lat="43.6454833" lon="12.4614183"><ele>583.0</ele><time>2026-04-25T09:28:27.532Z</time></trkpt><trkpt lat="43.6455333" lon="12.46133"><ele>583.0</ele><time>2026-04-25T09:28:28.534Z</time></trkpt><trkpt lat="43.6455833" lon="12.4612467"><ele>583.0</ele><time>2026-04-25T09:28:29.531Z</time></trkpt><trkpt lat="43.6456333" lon="12.4611767"><ele>581.1999999999999</ele><time>2026-04-25T09:28:30.531Z</time></trkpt><trkpt lat="43.6456817" lon="12.4611133"><ele>579.4</ele><time>2026-04-25T09:28:31.534Z</time></trkpt><trkpt lat="43.645725" lon="12.4609983"><ele>577.5999999999999</ele><time>2026-04-25T09:28:33.534Z</time></trkpt><trkpt lat="43.6456783" lon="12.4608517"><ele>575.8</ele><time>2026-04-25T09:28:35.533Z</time></trkpt><trkpt lat="43.64562" lon="12.4607767"><ele>574.0</ele><time>2026-04-25T09:28:36.533Z</time></trkpt><trkpt lat="43.6454817" lon="12.460655"><ele>574.0</ele><time>2026-04-25T09:28:38.534Z</time></trkpt><trkpt lat="43.64541" lon="12.4605833"><ele>574.0</ele><time>2026-04-25T09:28:39.53Z</time></trkpt><trkpt lat="43.6453417" lon="12.460505"><ele>574.0</ele><time>2026-04-25T09:28:40.531Z</time></trkpt><trkpt lat="43.645275" lon="12.460425"><ele>574.0</ele><time>2026-04-25T09:28:41.53Z</time></trkpt><trkpt lat="43.64521" lon="12.4603433"><ele>574.0</ele><time>2026-04-25T09:28:42.53Z</time></trkpt><trkpt lat="43.6451417" lon="12.4602667"><ele>574.0</ele><time>2026-04-25T09:28:43.53Z</time></trkpt><trkpt lat="43.645075" lon="12.46019"><ele>571.3333333333334</ele><time>2026-04-25T09:28:44.531Z</time></trkpt><trkpt lat="43.6449983" lon="12.4601217"><ele>568.6666666666667</ele><time>2026-04-25T09:28:45.531Z</time></trkpt><trkpt lat="43.644925" lon="12.460055"><ele>566.0</ele><time>2026-04-25T09:28:46.53Z</time></trkpt><trkpt lat="43.6448517" lon="12.4599867"><ele>563.3333333333334</ele><time>2026-04-25T09:28:47.531Z</time></trkpt><trkpt lat="43.6447767" lon="12.4599167"><ele>560.6666666666666</ele><time>2026-04-25T09:28:48.531Z</time></trkpt><trkpt lat="43.6447083" lon="12.4598517"><ele>558.0</ele><time>2026-04-25T09:28:49.531Z</time></trkpt><trkpt lat="43.644645" lon="12.4597867"><ele>558.0</ele><time>2026-04-25T09:28:50.53Z</time></trkpt><trkpt lat="43.6445917" lon="12.45972"><ele>558.0</ele><time>2026-04-25T09:28:51.532Z</time></trkpt><trkpt lat="43.644525" lon="12.4596217"><ele>558.0</ele><time>2026-04-25T09:28:53.532Z</time></trkpt><trkpt lat="43.6444367" lon="12.4596017"><ele>558.0</ele><time>2026-04-25T09:28:56.53Z</time></trkpt><trkpt lat="43.6443417" lon="12.45971"><ele>558.0</ele><time>2026-04-25T09:28:58.531Z</time></trkpt><trkpt lat="43.6441783" lon="12.4598883"><ele>555.75</ele><time>2026-04-25T09:29:00.534Z</time></trkpt><trkpt lat="43.6440817" lon="12.45999"><ele>553.5</ele><time>2026-04-25T09:29:01.535Z</time></trkpt><trkpt lat="43.643985" lon="12.460095"><ele>551.25</ele><time>2026-04-25T09:29:02.534Z</time></trkpt><trkpt lat="43.64389" lon="12.460195"><ele>549.0</ele><time>2026-04-25T09:29:03.534Z</time></trkpt><trkpt lat="43.6437917" lon="12.46029"><ele>549.0</ele><time>2026-04-25T09:29:04.533Z</time></trkpt><trkpt lat="43.6436883" lon="12.4603833"><ele>549.0</ele><time>2026-04-25T09:29:05.534Z</time></trkpt><trkpt lat="43.64358" lon="12.460475"><ele>549.0</ele><time>2026-04-25T09:29:06.533Z</time></trkpt><trkpt lat="43.6434783" lon="12.460555"><ele>549.0</ele><time>2026-04-25T09:29:07.534Z</time></trkpt><trkpt lat="43.643375" lon="12.4606317"><ele>549.6</ele><time>2026-04-25T09:29:08.534Z</time></trkpt><trkpt lat="43.6432767" lon="12.46071"><ele>550.2</ele><time>2026-04-25T09:29:09.53Z</time></trkpt><trkpt lat="43.6431783" lon="12.4607883"><ele>550.8000000000001</ele><time>2026-04-25T09:29:10.531Z</time></trkpt><trkpt lat="43.6430817" lon="12.460865"><ele>551.4</ele><time>2026-04-25T09:29:11.531Z</time></trkpt><trkpt lat="43.6429833" lon="12.4609333"><ele>552.0</ele><time>2026-04-25T09:29:12.532Z</time></trkpt><trkpt lat="43.6428833" lon="12.46099"><ele>550.6</ele><time>2026-04-25T09:29:13.532Z</time></trkpt><trkpt lat="43.6427817" lon="12.4610333"><ele>549.2</ele><time>2026-04-25T09:29:14.531Z</time></trkpt><trkpt lat="43.6426783" lon="12.4610617"><ele>547.8</ele><time>2026-04-25T09:29:15.531Z</time></trkpt><trkpt lat="43.642575" lon="12.4610733"><ele>546.4</ele><time>2026-04-25T09:29:16.531Z</time></trkpt><trkpt lat="43.6424667" lon="12.4610533"><ele>545.0</ele><time>2026-04-25T09:29:17.533Z</time></trkpt><trkpt lat="43.6423667" lon="12.4610183"><ele>545.0</ele><time>2026-04-25T09:29:18.531Z</time></trkpt><trkpt lat="43.6422683" lon="12.4609733"><ele>545.0</ele><time>2026-04-25T09:29:19.531Z</time></trkpt><trkpt lat="43.64211" lon="12.4608717"><ele>545.0</ele><time>2026-04-25T09:29:21.531Z</time></trkpt><trkpt lat="43.6420467" lon="12.4608167"><ele>545.0</ele><time>2026-04-25T09:29:22.531Z</time></trkpt><trkpt lat="43.6419833" lon="12.4607767"><ele>545.0</ele><time>2026-04-25T09:29:23.531Z</time></trkpt><trkpt lat="43.6419183" lon="12.4607667"><ele>544.8</ele><time>2026-04-25T09:29:24.531Z</time></trkpt><trkpt lat="43.6418483" lon="12.4607883"><ele>544.6</ele><time>2026-04-25T09:29:25.532Z</time></trkpt><trkpt lat="43.641765" lon="12.460855"><ele>544.4</ele><time>2026-04-25T09:29:26.531Z</time></trkpt><trkpt lat="43.6416867" lon="12.4609383"><ele>544.2</ele><time>2026-04-25T09:29:27.532Z</time></trkpt><trkpt lat="43.6416033" lon="12.4610417"><ele>544.0</ele><time>2026-04-25T09:29:28.531Z</time></trkpt><trkpt lat="43.6415167" lon="12.4611567"><ele>544.0</ele><time>2026-04-25T09:29:29.532Z</time></trkpt><trkpt lat="43.6414333" lon="12.4612717"><ele>544.0</ele><time>2026-04-25T09:29:30.534Z</time></trkpt><trkpt lat="43.641355" lon="12.461395"><ele>544.0</ele><time>2026-04-25T09:29:31.534Z</time></trkpt><trkpt lat="43.6412933" lon="12.4615233"><ele>544.0</ele><time>2026-04-25T09:29:32.534Z</time></trkpt><trkpt lat="43.64126" lon="12.4616467"><ele>544.0</ele><time>2026-04-25T09:29:33.533Z</time></trkpt><trkpt lat="43.6412417" lon="12.4617867"><ele>544.0</ele><time>2026-04-25T09:29:34.531Z</time></trkpt><trkpt lat="43.6412367" lon="12.4619567"><ele>544.0</ele><time>2026-04-25T09:29:35.53Z</time></trkpt><trkpt lat="43.64123" lon="12.46214"><ele>544.0</ele><time>2026-04-25T09:29:36.531Z</time></trkpt><trkpt lat="43.6412167" lon="12.4623367"><ele>544.0</ele><time>2026-04-25T09:29:37.531Z</time></trkpt><trkpt lat="43.641195" lon="12.4625333"><ele>544.0</ele><time>2026-04-25T09:29:38.531Z</time></trkpt><trkpt lat="43.6411717" lon="12.4627317"><ele>544.0</ele><time>2026-04-25T09:29:39.531Z</time></trkpt><trkpt lat="43.641145" lon="12.4629233"><ele>544.0</ele><time>2026-04-25T09:29:40.53Z</time></trkpt><trkpt lat="43.6411017" lon="12.46328"><ele>543.0</ele><time>2026-04-25T09:29:42.531Z</time></trkpt><trkpt lat="43.6410867" lon="12.4634467"><ele>542.0</ele><time>2026-04-25T09:29:43.531Z</time></trkpt><trkpt lat="43.64108" lon="12.4636017"><ele>541.0</ele><time>2026-04-25T09:29:44.53Z</time></trkpt><trkpt lat="43.641085" lon="12.4637333"><ele>540.0</ele><time>2026-04-25T09:29:45.532Z</time></trkpt><trkpt lat="43.64108" lon="12.46385"><ele>539.0</ele><time>2026-04-25T09:29:46.531Z</time></trkpt><trkpt lat="43.64106" lon="12.4639583"><ele>539.0</ele><time>2026-04-25T09:29:47.532Z</time></trkpt><trkpt lat="43.6410333" lon="12.4640683"><ele>539.0</ele><time>2026-04-25T09:29:48.531Z</time></trkpt><trkpt lat="43.641005" lon="12.4641917"><ele>539.0</ele><time>2026-04-25T09:29:49.531Z</time></trkpt><trkpt lat="43.64099" lon="12.46433"><ele>539.0</ele><time>2026-04-25T09:29:50.53Z</time></trkpt><trkpt lat="43.6409933" lon="12.46448"><ele>539.0</ele><time>2026-04-25T09:29:51.53Z</time></trkpt><trkpt lat="43.6410067" lon="12.4646417"><ele>539.6</ele><time>2026-04-25T09:29:52.531Z</time></trkpt><trkpt lat="43.6410233" lon="12.4648017"><ele>540.2</ele><time>2026-04-25T09:29:53.531Z</time></trkpt><trkpt lat="43.6410367" lon="12.4649533"><ele>540.8000000000001</ele><time>2026-04-25T09:29:54.531Z</time></trkpt><trkpt lat="43.6410483" lon="12.4650933"><ele>541.4</ele><time>2026-04-25T09:29:55.531Z</time></trkpt><trkpt lat="43.641055" lon="12.4652167"><ele>542.0</ele><time>2026-04-25T09:29:56.531Z</time></trkpt><trkpt lat="43.6410683" lon="12.465325"><ele>542.0</ele><time>2026-04-25T09:29:57.53Z</time></trkpt><trkpt lat="43.6410933" lon="12.46542"><ele>542.0</ele><time>2026-04-25T09:29:58.531Z</time></trkpt><trkpt lat="43.6411417" lon="12.4654933"><ele>542.0</ele><time>2026-04-25T09:29:59.531Z</time></trkpt><trkpt lat="43.6412017" lon="12.4655317"><ele>542.0</ele><time>2026-04-25T09:30:00.531Z</time></trkpt><trkpt lat="43.6412983" lon="12.46559"><ele>542.0</ele><time>2026-04-25T09:30:02.53Z</time></trkpt><trkpt lat="43.6414083" lon="12.4657683"><ele>543.4</ele><time>2026-04-25T09:30:06.531Z</time></trkpt><trkpt lat="43.6414717" lon="12.4659067"><ele>544.8000000000001</ele><time>2026-04-25T09:30:08.534Z</time></trkpt><trkpt lat="43.6415217" lon="12.4659867"><ele>546.2</ele><time>2026-04-25T09:30:09.531Z</time></trkpt><trkpt lat="43.6415783" lon="12.4660783"><ele>547.6</ele><time>2026-04-25T09:30:10.533Z</time></trkpt><trkpt lat="43.64164" lon="12.4661717"><ele>549.0</ele><time>2026-04-25T09:30:11.531Z</time></trkpt><trkpt lat="43.6417" lon="12.4662767"><ele>550.6</ele><time>2026-04-25T09:30:12.531Z</time></trkpt><trkpt lat="43.64175" lon="12.4663867"><ele>552.2</ele><time>2026-04-25T09:30:13.532Z</time></trkpt><trkpt lat="43.6417933" lon="12.46649"><ele>553.8000000000001</ele><time>2026-04-25T09:30:14.53Z</time></trkpt><trkpt lat="43.6418533" lon="12.4665783"><ele>555.4</ele><time>2026-04-25T09:30:15.53Z</time></trkpt><trkpt lat="43.641925" lon="12.4666567"><ele>557.0</ele><time>2026-04-25T09:30:16.531Z</time></trkpt><trkpt lat="43.6420133" lon="12.46673"><ele>557.0</ele><time>2026-04-25T09:30:17.531Z</time></trkpt><trkpt lat="43.6420917" lon="12.4668233"><ele>557.0</ele><time>2026-04-25T09:30:18.534Z</time></trkpt><trkpt lat="43.642155" lon="12.4669317"><ele>557.0</ele><time>2026-04-25T09:30:19.531Z</time></trkpt><trkpt lat="43.642205" lon="12.4670533"><ele>557.0</ele><time>2026-04-25T09:30:20.531Z</time></trkpt><trkpt lat="43.64225" lon="12.4671883"><ele>557.0</ele><time>2026-04-25T09:30:21.532Z</time></trkpt><trkpt lat="43.6422817" lon="12.4673183"><ele>553.75</ele><time>2026-04-25T09:30:22.532Z</time></trkpt><trkpt lat="43.6422933" lon="12.4674517"><ele>550.5</ele><time>2026-04-25T09:30:23.531Z</time></trkpt><trkpt lat="43.6422583" lon="12.4677267"><ele>547.25</ele><time>2026-04-25T09:30:25.538Z</time></trkpt><trkpt lat="43.6422117" lon="12.4678533"><ele>544.0</ele><time>2026-04-25T09:30:26.533Z</time></trkpt><trkpt lat="43.6421417" lon="12.4679617"><ele>544.0</ele><time>2026-04-25T09:30:27.531Z</time></trkpt><trkpt lat="43.6420483" lon="12.4680417"><ele>544.0</ele><time>2026-04-25T09:30:28.532Z</time></trkpt><trkpt lat="43.6419383" lon="12.46811"><ele>544.0</ele><time>2026-04-25T09:30:29.532Z</time></trkpt><trkpt lat="43.6418167" lon="12.4681717"><ele>544.0</ele><time>2026-04-25T09:30:30.531Z</time></trkpt><trkpt lat="43.6416883" lon="12.4682167"><ele>539.75</ele><time>2026-04-25T09:30:31.532Z</time></trkpt><trkpt lat="43.6415583" lon="12.4682667"><ele>535.5</ele><time>2026-04-25T09:30:32.535Z</time></trkpt><trkpt lat="43.6414217" lon="12.4683167"><ele>531.25</ele><time>2026-04-25T09:30:33.532Z</time></trkpt><trkpt lat="43.6412817" lon="12.4683717"><ele>527.0</ele><time>2026-04-25T09:30:34.532Z</time></trkpt><trkpt lat="43.6411383" lon="12.46843"><ele>523.3333333333333</ele><time>2026-04-25T09:30:35.532Z</time></trkpt><trkpt lat="43.64099" lon="12.4684983"><ele>519.6666666666666</ele><time>2026-04-25T09:30:36.531Z</time></trkpt><trkpt lat="43.6408367" lon="12.4685683"><ele>516.0</ele><time>2026-04-25T09:30:37.533Z</time></trkpt><trkpt lat="43.6406833" lon="12.4686383"><ele>516.0</ele><time>2026-04-25T09:30:38.53Z</time></trkpt><trkpt lat="43.6405367" lon="12.468705"><ele>516.0</ele><time>2026-04-25T09:30:39.531Z</time></trkpt><trkpt lat="43.640395" lon="12.4687733"><ele>516.0</ele><time>2026-04-25T09:30:40.532Z</time></trkpt><trkpt lat="43.6402633" lon="12.46884"><ele>516.0</ele><time>2026-04-25T09:30:41.531Z</time></trkpt><trkpt lat="43.6401383" lon="12.468905"><ele>512.0</ele><time>2026-04-25T09:30:42.532Z</time></trkpt><trkpt lat="43.6400233" lon="12.4689617"><ele>508.0</ele><time>2026-04-25T09:30:43.531Z</time></trkpt><trkpt lat="43.63991" lon="12.4689983"><ele>504.0</ele><time>2026-04-25T09:30:44.531Z</time></trkpt><trkpt lat="43.6396567" lon="12.4690083"><ele>504.0</ele><time>2026-04-25T09:30:46.533Z</time></trkpt><trkpt lat="43.6395267" lon="12.4689833"><ele>504.0</ele><time>2026-04-25T09:30:47.531Z</time></trkpt><trkpt lat="43.6394067" lon="12.4689517"><ele>504.0</ele><time>2026-04-25T09:30:48.531Z</time></trkpt><trkpt lat="43.6392967" lon="12.46892"><ele>504.0</ele><time>2026-04-25T09:30:49.531Z</time></trkpt><trkpt lat="43.639205" lon="12.468895"><ele>503.1666666666667</ele><time>2026-04-25T09:30:50.531Z</time></trkpt><trkpt lat="43.6391283" lon="12.4688867"><ele>502.33333333333337</ele><time>2026-04-25T09:30:51.533Z</time></trkpt><trkpt lat="43.6390633" lon="12.4688983"><ele>501.5</ele><time>2026-04-25T09:30:52.532Z</time></trkpt><trkpt lat="43.6390133" lon="12.4689533"><ele>500.6666666666667</ele><time>2026-04-25T09:30:53.532Z</time></trkpt><trkpt lat="43.6389833" lon="12.4690617"><ele>499.83333333333337</ele><time>2026-04-25T09:30:54.533Z</time></trkpt><trkpt lat="43.63897" lon="12.4692133"><ele>499.0</ele><time>2026-04-25T09:30:55.531Z</time></trkpt><trkpt lat="43.63899" lon="12.469425"><ele>496.25</ele><time>2026-04-25T09:30:56.53Z</time></trkpt><trkpt lat="43.6389933" lon="12.4696133"><ele>493.5</ele><time>2026-04-25T09:30:57.532Z</time></trkpt><trkpt lat="43.638995" lon="12.4698033"><ele>490.75</ele><time>2026-04-25T09:30:58.531Z</time></trkpt><trkpt lat="43.6389933" lon="12.4700033"><ele>488.0</ele><time>2026-04-25T09:30:59.532Z</time></trkpt><trkpt lat="43.63899" lon="12.4702117"><ele>488.0</ele><time>2026-04-25T09:31:00.531Z</time></trkpt><trkpt lat="43.6389917" lon="12.47042"><ele>488.0</ele><time>2026-04-25T09:31:01.531Z</time></trkpt><trkpt lat="43.6389933" lon="12.4706233"><ele>488.0</ele><time>2026-04-25T09:31:02.53Z</time></trkpt><trkpt lat="43.638995" lon="12.470825"><ele>488.0</ele><time>2026-04-25T09:31:03.531Z</time></trkpt><trkpt lat="43.6389983" lon="12.471015"><ele>484.3333333333333</ele><time>2026-04-25T09:31:04.536Z</time></trkpt><trkpt lat="43.6390067" lon="12.4711933"><ele>480.66666666666663</ele><time>2026-04-25T09:31:05.531Z</time></trkpt><trkpt lat="43.639015" lon="12.4715233"><ele>477.0</ele><time>2026-04-25T09:31:07.535Z</time></trkpt><trkpt lat="43.6390217" lon="12.47167"><ele>475.8</ele><time>2026-04-25T09:31:08.531Z</time></trkpt><trkpt lat="43.63904" lon="12.471805"><ele>474.6</ele><time>2026-04-25T09:31:09.531Z</time></trkpt><trkpt lat="43.6390767" lon="12.4719233"><ele>473.40000000000003</ele><time>2026-04-25T09:31:10.531Z</time></trkpt><trkpt lat="43.63913" lon="12.4720183"><ele>472.20000000000005</ele><time>2026-04-25T09:31:11.532Z</time></trkpt><trkpt lat="43.6391983" lon="12.4721017"><ele>471.0</ele><time>2026-04-25T09:31:12.534Z</time></trkpt><trkpt lat="43.6392783" lon="12.4721483"><ele>470.8</ele><time>2026-04-25T09:31:13.531Z</time></trkpt><trkpt lat="43.6393817" lon="12.4721667"><ele>470.6</ele><time>2026-04-25T09:31:14.531Z</time></trkpt><trkpt lat="43.6395" lon="12.4721417"><ele>470.4</ele><time>2026-04-25T09:31:15.531Z</time></trkpt><trkpt lat="43.63961" lon="12.47212"><ele>470.2</ele><time>2026-04-25T09:31:16.534Z</time></trkpt><trkpt lat="43.6397083" lon="12.472105"><ele>470.0</ele><time>2026-04-25T09:31:17.534Z</time></trkpt><trkpt lat="43.6397917" lon="12.4721067"><ele>468.0</ele><time>2026-04-25T09:31:18.532Z</time></trkpt><trkpt lat="43.63986" lon="12.4721267"><ele>466.0</ele><time>2026-04-25T09:31:19.532Z</time></trkpt><trkpt lat="43.6399183" lon="12.4721633"><ele>464.0</ele><time>2026-04-25T09:31:20.53Z</time></trkpt><trkpt lat="43.6399783" lon="12.4723367"><ele>462.0</ele><time>2026-04-25T09:31:22.532Z</time></trkpt><trkpt lat="43.6400133" lon="12.472465"><ele>460.0</ele><time>2026-04-25T09:31:23.531Z</time></trkpt><trkpt lat="43.6400683" lon="12.4726083"><ele>460.0</ele><time>2026-04-25T09:31:24.534Z</time></trkpt><trkpt lat="43.6401367" lon="12.47276"><ele>460.0</ele><time>2026-04-25T09:31:25.533Z</time></trkpt><trkpt lat="43.64021" lon="12.4729183"><ele>460.0</ele><time>2026-04-25T09:31:26.531Z</time></trkpt><trkpt lat="43.6403567" lon="12.47321"><ele>458.6</ele><time>2026-04-25T09:31:28.536Z</time></trkpt><trkpt lat="43.6404283" lon="12.4733233"><ele>457.2</ele><time>2026-04-25T09:31:29.531Z</time></trkpt><trkpt lat="43.6404833" lon="12.473415"><ele>455.79999999999995</ele><time>2026-04-25T09:31:30.531Z</time></trkpt><trkpt lat="43.6405283" lon="12.4735017"><ele>454.4</ele><time>2026-04-25T09:31:31.532Z</time></trkpt><trkpt lat="43.6405667" lon="12.473585"><ele>453.0</ele><time>2026-04-25T09:31:32.531Z</time></trkpt><trkpt lat="43.6406083" lon="12.4737217"><ele>453.0</ele><time>2026-04-25T09:31:34.532Z</time></trkpt><trkpt lat="43.6406117" lon="12.473815"><ele>453.0</ele><time>2026-04-25T09:31:36.532Z</time></trkpt><trkpt lat="43.6405183" lon="12.4737767"><ele>453.0</ele><time>2026-04-25T09:31:39.532Z</time></trkpt><trkpt lat="43.6404083" lon="12.4736117"><ele>453.0</ele><time>2026-04-25T09:31:41.534Z</time></trkpt><trkpt lat="43.6403083" lon="12.4734817"><ele>459.33333333333337</ele><time>2026-04-25T09:31:42.536Z</time></trkpt><trkpt lat="43.6401817" lon="12.473315"><ele>465.6666666666667</ele><time>2026-04-25T09:31:43.532Z</time></trkpt><trkpt lat="43.6400683" lon="12.4731767"><ele>472.0</ele><time>2026-04-25T09:31:44.532Z</time></trkpt><trkpt lat="43.6399467" lon="12.473055"><ele>472.0</ele><time>2026-04-25T09:31:45.534Z</time></trkpt><trkpt lat="43.63981" lon="12.47296"><ele>472.0</ele><time>2026-04-25T09:31:46.534Z</time></trkpt><trkpt lat="43.6396467" lon="12.4729117"><ele>472.0</ele><time>2026-04-25T09:31:47.534Z</time></trkpt><trkpt lat="43.639285" lon="12.4728667"><ele>471.33333333333337</ele><time>2026-04-25T09:31:49.535Z</time></trkpt><trkpt lat="43.6391033" lon="12.47285"><ele>470.66666666666663</ele><time>2026-04-25T09:31:50.532Z</time></trkpt><trkpt lat="43.63894" lon="12.4728367"><ele>470.0</ele><time>2026-04-25T09:31:51.534Z</time></trkpt><trkpt lat="43.6387983" lon="12.4727983"><ele>470.0</ele><time>2026-04-25T09:31:52.532Z</time></trkpt><trkpt lat="43.6386633" lon="12.4727233"><ele>470.0</ele><time>2026-04-25T09:31:53.531Z</time></trkpt><trkpt lat="43.6385383" lon="12.4726067"><ele>470.0</ele><time>2026-04-25T09:31:54.532Z</time></trkpt><trkpt lat="43.6384233" lon="12.4724583"><ele>472.66666666666663</ele><time>2026-04-25T09:31:55.532Z</time></trkpt><trkpt lat="43.6383117" lon="12.47231"><ele>475.33333333333337</ele><time>2026-04-25T09:31:56.531Z</time></trkpt><trkpt lat="43.6381933" lon="12.4721567"><ele>478.0</ele><time>2026-04-25T09:31:57.534Z</time></trkpt><trkpt lat="43.6380683" lon="12.4720083"><ele>478.0</ele><time>2026-04-25T09:31:58.533Z</time></trkpt><trkpt lat="43.63792" lon="12.471885"><ele>478.0</ele><time>2026-04-25T09:31:59.532Z</time></trkpt><trkpt lat="43.63775" lon="12.4717783"><ele>478.0</ele><time>2026-04-25T09:32:00.531Z</time></trkpt><trkpt lat="43.63757" lon="12.4716867"><ele>483.6666666666667</ele><time>2026-04-25T09:32:01.535Z</time></trkpt><trkpt lat="43.6374" lon="12.471605"><ele>489.33333333333337</ele><time>2026-04-25T09:32:02.532Z</time></trkpt><trkpt lat="43.6372433" lon="12.471525"><ele>495.0</ele><time>2026-04-25T09:32:03.533Z</time></trkpt><trkpt lat="43.6371033" lon="12.47143"><ele>495.0</ele><time>2026-04-25T09:32:04.532Z</time></trkpt><trkpt lat="43.6369817" lon="12.4712933"><ele>495.0</ele><time>2026-04-25T09:32:05.532Z</time></trkpt><trkpt lat="43.6368817" lon="12.4711117"><ele>495.0</ele><time>2026-04-25T09:32:06.533Z</time></trkpt><trkpt lat="43.6368233" lon="12.470895"><ele>497.5</ele><time>2026-04-25T09:32:07.536Z</time></trkpt><trkpt lat="43.6367983" lon="12.4706683"><ele>500.0</ele><time>2026-04-25T09:32:08.531Z</time></trkpt><trkpt lat="43.6367667" lon="12.4702733"><ele>500.0</ele><time>2026-04-25T09:32:10.532Z</time></trkpt><trkpt lat="43.6367217" lon="12.47012"><ele>500.0</ele><time>2026-04-25T09:32:11.531Z</time></trkpt><trkpt lat="43.6366517" lon="12.470005"><ele>500.0</ele><time>2026-04-25T09:32:12.535Z</time></trkpt><trkpt lat="43.6365517" lon="12.4699467"><ele>500.0</ele><time>2026-04-25T09:32:13.532Z</time></trkpt><trkpt lat="43.636445" lon="12.469955"><ele>500.0</ele><time>2026-04-25T09:32:14.534Z</time></trkpt><trkpt lat="43.6363217" lon="12.4700317"><ele>500.0</ele><time>2026-04-25T09:32:15.534Z</time></trkpt><trkpt lat="43.636195" lon="12.47016"><ele>500.0</ele><time>2026-04-25T09:32:16.531Z</time></trkpt><trkpt lat="43.6360733" lon="12.4703017"><ele>500.0</ele><time>2026-04-25T09:32:17.532Z</time></trkpt><trkpt lat="43.63595" lon="12.470425"><ele>502.75</ele><time>2026-04-25T09:32:18.533Z</time></trkpt><trkpt lat="43.635825" lon="12.4704933"><ele>505.5</ele><time>2026-04-25T09:32:19.532Z</time></trkpt><trkpt lat="43.6356883" lon="12.470495"><ele>508.25</ele><time>2026-04-25T09:32:20.531Z</time></trkpt><trkpt lat="43.63555" lon="12.470445"><ele>511.0</ele><time>2026-04-25T09:32:21.531Z</time></trkpt><trkpt lat="43.6354183" lon="12.4703767"><ele>511.75</ele><time>2026-04-25T09:32:22.534Z</time></trkpt><trkpt lat="43.6352933" lon="12.4703183"><ele>512.5</ele><time>2026-04-25T09:32:23.531Z</time></trkpt><trkpt lat="43.6351667" lon="12.4702883"><ele>513.25</ele><time>2026-04-25T09:32:24.532Z</time></trkpt><trkpt lat="43.63504" lon="12.4703117"><ele>514.0</ele><time>2026-04-25T09:32:25.534Z</time></trkpt><trkpt lat="43.634915" lon="12.4704"><ele>517.0</ele><time>2026-04-25T09:32:26.531Z</time></trkpt><trkpt lat="43.6347917" lon="12.470535"><ele>520.0</ele><time>2026-04-25T09:32:27.533Z</time></trkpt><trkpt lat="43.6346717" lon="12.4706967"><ele>523.0</ele><time>2026-04-25T09:32:28.531Z</time></trkpt><trkpt lat="43.634555" lon="12.4708583"><ele>521.5</ele><time>2026-04-25T09:32:29.532Z</time></trkpt><trkpt lat="43.634305" lon="12.47116"><ele>520.0</ele><time>2026-04-25T09:32:31.532Z</time></trkpt><trkpt lat="43.6341617" lon="12.4712717"><ele>525.3333333333334</ele><time>2026-04-25T09:32:32.531Z</time></trkpt><trkpt lat="43.634005" lon="12.471365"><ele>530.6666666666666</ele><time>2026-04-25T09:32:33.532Z</time></trkpt><trkpt lat="43.633845" lon="12.4714267"><ele>536.0</ele><time>2026-04-25T09:32:34.531Z</time></trkpt><trkpt lat="43.6336933" lon="12.4714567"><ele>535.5</ele><time>2026-04-25T09:32:35.53Z</time></trkpt><trkpt lat="43.6335483" lon="12.471485"><ele>535.0</ele><time>2026-04-25T09:32:36.532Z</time></trkpt><trkpt lat="43.63342" lon="12.4715333"><ele>534.5</ele><time>2026-04-25T09:32:37.532Z</time></trkpt><trkpt lat="43.6333033" lon="12.4716167"><ele>534.0</ele><time>2026-04-25T09:32:38.53Z</time></trkpt><trkpt lat="43.6332117" lon="12.4717267"><ele>534.0</ele><time>2026-04-25T09:32:39.531Z</time></trkpt><trkpt lat="43.6331333" lon="12.471845"><ele>534.0</ele><time>2026-04-25T09:32:40.532Z</time></trkpt><trkpt lat="43.6330567" lon="12.4719667"><ele>534.0</ele><time>2026-04-25T09:32:41.53Z</time></trkpt><trkpt lat="43.6329683" lon="12.4720683"><ele>534.0</ele><time>2026-04-25T09:32:42.531Z</time></trkpt><trkpt lat="43.6328633" lon="12.472135"><ele>533.5</ele><time>2026-04-25T09:32:43.532Z</time></trkpt><trkpt lat="43.632745" lon="12.4721367"><ele>533.0</ele><time>2026-04-25T09:32:44.53Z</time></trkpt><trkpt lat="43.6326333" lon="12.4720783"><ele>532.5</ele><time>2026-04-25T09:32:45.531Z</time></trkpt><trkpt lat="43.6325317" lon="12.4719867"><ele>532.0</ele><time>2026-04-25T09:32:46.53Z</time></trkpt><trkpt lat="43.6324367" lon="12.4718933"><ele>532.0</ele><time>2026-04-25T09:32:47.534Z</time></trkpt><trkpt lat="43.6323433" lon="12.4718167"><ele>532.0</ele><time>2026-04-25T09:32:48.534Z</time></trkpt><trkpt lat="43.6322483" lon="12.4717817"><ele>532.0</ele><time>2026-04-25T09:32:49.53Z</time></trkpt><trkpt lat="43.632155" lon="12.4717883"><ele>532.0</ele><time>2026-04-25T09:32:50.532Z</time></trkpt><trkpt lat="43.6319867" lon="12.471945"><ele>532.5</ele><time>2026-04-25T09:32:52.531Z</time></trkpt><trkpt lat="43.6319133" lon="12.4720817"><ele>533.0</ele><time>2026-04-25T09:32:53.53Z</time></trkpt><trkpt lat="43.631845" lon="12.47224"><ele>533.5</ele><time>2026-04-25T09:32:54.533Z</time></trkpt><trkpt lat="43.6317767" lon="12.472395"><ele>534.0</ele><time>2026-04-25T09:32:55.532Z</time></trkpt><trkpt lat="43.6317067" lon="12.4725433"><ele>534.0</ele><time>2026-04-25T09:32:56.531Z</time></trkpt><trkpt lat="43.6316333" lon="12.4726883"><ele>534.0</ele><time>2026-04-25T09:32:57.53Z</time></trkpt><trkpt lat="43.63156" lon="12.47283"><ele>534.0</ele><time>2026-04-25T09:32:58.531Z</time></trkpt><trkpt lat="43.6314783" lon="12.4729583"><ele>534.0</ele><time>2026-04-25T09:32:59.531Z</time></trkpt><trkpt lat="43.63139" lon="12.4730717"><ele>532.75</ele><time>2026-04-25T09:33:00.533Z</time></trkpt><trkpt lat="43.631295" lon="12.47318"><ele>531.5</ele><time>2026-04-25T09:33:01.535Z</time></trkpt><trkpt lat="43.6311917" lon="12.4732933"><ele>530.25</ele><time>2026-04-25T09:33:02.531Z</time></trkpt><trkpt lat="43.63108" lon="12.4734133"><ele>529.0</ele><time>2026-04-25T09:33:03.531Z</time></trkpt><trkpt lat="43.6309633" lon="12.47354"><ele>529.0</ele><time>2026-04-25T09:33:04.531Z</time></trkpt><trkpt lat="43.6308417" lon="12.4736683"><ele>529.0</ele><time>2026-04-25T09:33:05.531Z</time></trkpt><trkpt lat="43.6307167" lon="12.47379"><ele>529.0</ele><time>2026-04-25T09:33:06.533Z</time></trkpt><trkpt lat="43.630595" lon="12.4739117"><ele>527.25</ele><time>2026-04-25T09:33:07.531Z</time></trkpt><trkpt lat="43.63048" lon="12.474035"><ele>525.5</ele><time>2026-04-25T09:33:08.532Z</time></trkpt><trkpt lat="43.6303683" lon="12.47416"><ele>523.75</ele><time>2026-04-25T09:33:09.531Z</time></trkpt><trkpt lat="43.630265" lon="12.474305"><ele>522.0</ele><time>2026-04-25T09:33:10.532Z</time></trkpt><trkpt lat="43.63017" lon="12.4744567"><ele>525.0</ele><time>2026-04-25T09:33:11.53Z</time></trkpt><trkpt lat="43.629985" lon="12.47474"><ele>528.0</ele><time>2026-04-25T09:33:13.532Z</time></trkpt><trkpt lat="43.629875" lon="12.4748267"><ele>531.0</ele><time>2026-04-25T09:33:14.53Z</time></trkpt><trkpt lat="43.629745" lon="12.4748383"><ele>531.0</ele><time>2026-04-25T09:33:15.53Z</time></trkpt><trkpt lat="43.6296067" lon="12.4748083"><ele>531.0</ele><time>2026-04-25T09:33:16.531Z</time></trkpt><trkpt lat="43.629475" lon="12.4747783"><ele>531.0</ele><time>2026-04-25T09:33:17.531Z</time></trkpt><trkpt lat="43.6293483" lon="12.47475"><ele>531.0</ele><time>2026-04-25T09:33:18.533Z</time></trkpt><trkpt lat="43.6292233" lon="12.4747333"><ele>528.8</ele><time>2026-04-25T09:33:19.531Z</time></trkpt><trkpt lat="43.6291033" lon="12.474715"><ele>526.6</ele><time>2026-04-25T09:33:20.535Z</time></trkpt><trkpt lat="43.6289917" lon="12.474715"><ele>524.4</ele><time>2026-04-25T09:33:21.534Z</time></trkpt><trkpt lat="43.6288883" lon="12.4747433"><ele>522.2</ele><time>2026-04-25T09:33:22.53Z</time></trkpt><trkpt lat="43.628795" lon="12.4748067"><ele>520.0</ele><time>2026-04-25T09:33:23.531Z</time></trkpt><trkpt lat="43.6287133" lon="12.4749117"><ele>517.5</ele><time>2026-04-25T09:33:24.532Z</time></trkpt><trkpt lat="43.6286383" lon="12.4750367"><ele>515.0</ele><time>2026-04-25T09:33:25.531Z</time></trkpt><trkpt lat="43.6285733" lon="12.475165"><ele>512.5</ele><time>2026-04-25T09:33:26.53Z</time></trkpt><trkpt lat="43.6284983" lon="12.4752933"><ele>510.0</ele><time>2026-04-25T09:33:27.531Z</time></trkpt><trkpt lat="43.6284083" lon="12.4754083"><ele>511.75</ele><time>2026-04-25T09:33:28.53Z</time></trkpt><trkpt lat="43.6282983" lon="12.475495"><ele>513.5</ele><time>2026-04-25T09:33:29.532Z</time></trkpt><trkpt lat="43.6281667" lon="12.4755667"><ele>515.25</ele><time>2026-04-25T09:33:30.53Z</time></trkpt><trkpt lat="43.6280167" lon="12.4756283"><ele>517.0</ele><time>2026-04-25T09:33:31.534Z</time></trkpt><trkpt lat="43.6278433" lon="12.4757"><ele>511.0</ele><time>2026-04-25T09:33:32.53Z</time></trkpt><trkpt lat="43.62746" lon="12.4758417"><ele>505.0</ele><time>2026-04-25T09:33:34.534Z</time></trkpt><trkpt lat="43.6272683" lon="12.4759083"><ele>505.0</ele><time>2026-04-25T09:33:35.53Z</time></trkpt><trkpt lat="43.62709" lon="12.4759733"><ele>505.0</ele><time>2026-04-25T09:33:36.531Z</time></trkpt><trkpt lat="43.626915" lon="12.4760383"><ele>505.0</ele><time>2026-04-25T09:33:37.531Z</time></trkpt><trkpt lat="43.6267533" lon="12.4761"><ele>503.0</ele><time>2026-04-25T09:33:38.531Z</time></trkpt><trkpt lat="43.6266067" lon="12.4761483"><ele>501.0</ele><time>2026-04-25T09:33:39.531Z</time></trkpt><trkpt lat="43.6264717" lon="12.4761717"><ele>499.0</ele><time>2026-04-25T09:33:40.534Z</time></trkpt><trkpt lat="43.6263433" lon="12.4761417"><ele>497.0</ele><time>2026-04-25T09:33:41.534Z</time></trkpt><trkpt lat="43.62623" lon="12.4760533"><ele>494.0</ele><time>2026-04-25T09:33:42.533Z</time></trkpt><trkpt lat="43.62613" lon="12.4759217"><ele>491.0</ele><time>2026-04-25T09:33:43.534Z</time></trkpt><trkpt lat="43.6260433" lon="12.47577"><ele>488.0</ele><time>2026-04-25T09:33:44.53Z</time></trkpt><trkpt lat="43.6259733" lon="12.4756017"><ele>485.0</ele><time>2026-04-25T09:33:45.53Z</time></trkpt><trkpt lat="43.6259183" lon="12.47543"><ele>484.75</ele><time>2026-04-25T09:33:46.531Z</time></trkpt><trkpt lat="43.6258967" lon="12.4752517"><ele>484.5</ele><time>2026-04-25T09:33:47.531Z</time></trkpt><trkpt lat="43.625895" lon="12.4750783"><ele>484.25</ele><time>2026-04-25T09:33:48.532Z</time></trkpt><trkpt lat="43.6258867" lon="12.47493"><ele>484.0</ele><time>2026-04-25T09:33:49.532Z</time></trkpt><trkpt lat="43.6258617" lon="12.4748017"><ele>484.0</ele><time>2026-04-25T09:33:50.53Z</time></trkpt><trkpt lat="43.6257983" lon="12.474735"><ele>484.0</ele><time>2026-04-25T09:33:51.531Z</time></trkpt><trkpt lat="43.6257267" lon="12.4747"><ele>484.0</ele><time>2026-04-25T09:33:52.531Z</time></trkpt><trkpt lat="43.6256483" lon="12.4747217"><ele>484.0</ele><time>2026-04-25T09:33:53.53Z</time></trkpt><trkpt lat="43.62553" lon="12.474965"><ele>484.0</ele><time>2026-04-25T09:33:55.531Z</time></trkpt><trkpt lat="43.6254967" lon="12.4750733"><ele>484.0</ele><time>2026-04-25T09:33:56.532Z</time></trkpt><trkpt lat="43.6255767" lon="12.4753383"><ele>484.0</ele><time>2026-04-25T09:33:57.53Z</time></trkpt><trkpt lat="43.6256867" lon="12.4756267"><ele>484.0</ele><time>2026-04-25T09:33:58.531Z</time></trkpt><trkpt lat="43.6257533" lon="12.4758583"><ele>484.33333333333337</ele><time>2026-04-25T09:33:59.532Z</time></trkpt><trkpt lat="43.625825" lon="12.4760967"><ele>484.66666666666663</ele><time>2026-04-25T09:34:00.53Z</time></trkpt><trkpt lat="43.6258917" lon="12.476315"><ele>485.0</ele><time>2026-04-25T09:34:01.536Z</time></trkpt><trkpt lat="43.6259533" lon="12.476525"><ele>482.5</ele><time>2026-04-25T09:34:02.532Z</time></trkpt><trkpt lat="43.626005" lon="12.4767167"><ele>480.0</ele><time>2026-04-25T09:34:03.534Z</time></trkpt><trkpt lat="43.6260383" lon="12.4768883"><ele>477.5</ele><time>2026-04-25T09:34:04.533Z</time></trkpt><trkpt lat="43.6260433" lon="12.477035"><ele>475.0</ele><time>2026-04-25T09:34:05.53Z</time></trkpt><trkpt lat="43.6260167" lon="12.47713"><ele>475.0</ele><time>2026-04-25T09:34:06.535Z</time></trkpt><trkpt lat="43.6259817" lon="12.477215"><ele>475.0</ele><time>2026-04-25T09:34:07.534Z</time></trkpt><trkpt lat="43.6259" lon="12.4772383"><ele>475.0</ele><time>2026-04-25T09:34:08.53Z</time></trkpt><trkpt lat="43.6257883" lon="12.4771867"><ele>475.0</ele><time>2026-04-25T09:34:09.532Z</time></trkpt><trkpt lat="43.625685" lon="12.4769983"><ele>475.0</ele><time>2026-04-25T09:34:10.531Z</time></trkpt><trkpt lat="43.6256217" lon="12.47681"><ele>475.0</ele><time>2026-04-25T09:34:11.531Z</time></trkpt><trkpt lat="43.62558" lon="12.4765517"><ele>475.0</ele><time>2026-04-25T09:34:12.531Z</time></trkpt><trkpt lat="43.625545" lon="12.476265"><ele>475.0</ele><time>2026-04-25T09:34:13.533Z</time></trkpt><trkpt lat="43.62549" lon="12.476015"><ele>468.0</ele><time>2026-04-25T09:34:14.534Z</time></trkpt><trkpt lat="43.625305" lon="12.47559"><ele>461.0</ele><time>2026-04-25T09:34:16.534Z</time></trkpt><trkpt lat="43.6251917" lon="12.47542"><ele>461.0</ele><time>2026-04-25T09:34:17.532Z</time></trkpt><trkpt lat="43.625085" lon="12.4752517"><ele>461.0</ele><time>2026-04-25T09:34:18.531Z</time></trkpt><trkpt lat="43.6250083" lon="12.475065"><ele>461.0</ele><time>2026-04-25T09:34:19.533Z</time></trkpt><trkpt lat="43.6249767" lon="12.4748733"><ele>461.0</ele><time>2026-04-25T09:34:20.531Z</time></trkpt><trkpt lat="43.6249483" lon="12.4747033"><ele>461.0</ele><time>2026-04-25T09:34:21.532Z</time></trkpt><trkpt lat="43.6249033" lon="12.4745733"><ele>461.0</ele><time>2026-04-25T09:34:22.532Z</time></trkpt><trkpt lat="43.6248333" lon="12.4744967"><ele>461.0</ele><time>2026-04-25T09:34:23.531Z</time></trkpt><trkpt lat="43.6247517" lon="12.474465"><ele>461.0</ele><time>2026-04-25T09:34:24.532Z</time></trkpt><trkpt lat="43.624665" lon="12.4744917"><ele>461.0</ele><time>2026-04-25T09:34:25.534Z</time></trkpt><trkpt lat="43.624615" lon="12.4746283"><ele>461.0</ele><time>2026-04-25T09:34:26.532Z</time></trkpt><trkpt lat="43.6245767" lon="12.4747667"><ele>461.0</ele><time>2026-04-25T09:34:27.531Z</time></trkpt><trkpt lat="43.62463" lon="12.474985"><ele>461.0</ele><time>2026-04-25T09:34:28.531Z</time></trkpt><trkpt lat="43.6247417" lon="12.4752633"><ele>459.0</ele><time>2026-04-25T09:34:29.531Z</time></trkpt><trkpt lat="43.6248283" lon="12.475495"><ele>457.0</ele><time>2026-04-25T09:34:30.531Z</time></trkpt><trkpt lat="43.6249117" lon="12.475705"><ele>455.0</ele><time>2026-04-25T09:34:31.534Z</time></trkpt><trkpt lat="43.62497" lon="12.4758967"><ele>455.0</ele><time>2026-04-25T09:34:32.531Z</time></trkpt><trkpt lat="43.6249917" lon="12.47608"><ele>455.0</ele><time>2026-04-25T09:34:33.53Z</time></trkpt><trkpt lat="43.6249667" lon="12.476255"><ele>455.0</ele><time>2026-04-25T09:34:34.531Z</time></trkpt><trkpt lat="43.62489" lon="12.476395"><ele>455.0</ele><time>2026-04-25T09:34:35.536Z</time></trkpt><trkpt lat="43.6246683" lon="12.4765817"><ele>454.0</ele><time>2026-04-25T09:34:37.534Z</time></trkpt><trkpt lat="43.6245583" lon="12.4766617"><ele>453.0</ele><time>2026-04-25T09:34:38.536Z</time></trkpt><trkpt lat="43.62445" lon="12.4767183"><ele>452.0</ele><time>2026-04-25T09:34:39.533Z</time></trkpt><trkpt lat="43.62433" lon="12.4767317"><ele>451.0</ele><time>2026-04-25T09:34:40.534Z</time></trkpt><trkpt lat="43.6242133" lon="12.4766933"><ele>449.75</ele><time>2026-04-25T09:34:41.534Z</time></trkpt><trkpt lat="43.624105" lon="12.4766133"><ele>448.5</ele><time>2026-04-25T09:34:42.533Z</time></trkpt><trkpt lat="43.624015" lon="12.4764983"><ele>447.25</ele><time>2026-04-25T09:34:43.534Z</time></trkpt><trkpt lat="43.62393" lon="12.4763767"><ele>446.0</ele><time>2026-04-25T09:34:44.534Z</time></trkpt><trkpt lat="43.623845" lon="12.4762567"><ele>444.25</ele><time>2026-04-25T09:34:45.532Z</time></trkpt><trkpt lat="43.6237583" lon="12.47613"><ele>442.5</ele><time>2026-04-25T09:34:46.533Z</time></trkpt><trkpt lat="43.62367" lon="12.476015"><ele>440.75</ele><time>2026-04-25T09:34:47.534Z</time></trkpt><trkpt lat="43.62359" lon="12.4759067"><ele>439.0</ele><time>2026-04-25T09:34:48.534Z</time></trkpt><trkpt lat="43.6235133" lon="12.4758067"><ele>438.79999999999995</ele><time>2026-04-25T09:34:49.535Z</time></trkpt><trkpt lat="43.623435" lon="12.4757167"><ele>438.59999999999997</ele><time>2026-04-25T09:34:50.535Z</time></trkpt><trkpt lat="43.623355" lon="12.4756317"><ele>438.4</ele><time>2026-04-25T09:34:51.533Z</time></trkpt><trkpt lat="43.6232633" lon="12.475565"><ele>438.2</ele><time>2026-04-25T09:34:52.533Z</time></trkpt><trkpt lat="43.62316" lon="12.4755083"><ele>438.0</ele><time>2026-04-25T09:34:53.536Z</time></trkpt><trkpt lat="43.6230533" lon="12.4754533"><ele>434.66666666666663</ele><time>2026-04-25T09:34:54.53Z</time></trkpt><trkpt lat="43.62295" lon="12.4753967"><ele>431.3333333333333</ele><time>2026-04-25T09:34:55.532Z</time></trkpt><trkpt lat="43.622855" lon="12.47532"><ele>428.0</ele><time>2026-04-25T09:34:56.534Z</time></trkpt><trkpt lat="43.622675" lon="12.475125"><ele>427.25</ele><time>2026-04-25T09:34:58.534Z</time></trkpt><trkpt lat="43.62259" lon="12.47502"><ele>426.5</ele><time>2026-04-25T09:34:59.532Z</time></trkpt><trkpt lat="43.6224983" lon="12.4749317"><ele>425.75</ele><time>2026-04-25T09:35:00.532Z</time></trkpt><trkpt lat="43.6223967" lon="12.4748717"><ele>425.0</ele><time>2026-04-25T09:35:01.533Z</time></trkpt><trkpt lat="43.6222867" lon="12.4748333"><ele>425.0</ele><time>2026-04-25T09:35:02.532Z</time></trkpt><trkpt lat="43.622165" lon="12.4748133"><ele>425.0</ele><time>2026-04-25T09:35:03.535Z</time></trkpt><trkpt lat="43.6220367" lon="12.4748183"><ele>425.0</ele><time>2026-04-25T09:35:04.532Z</time></trkpt><trkpt lat="43.62191" lon="12.4748467"><ele>425.0</ele><time>2026-04-25T09:35:05.535Z</time></trkpt><trkpt lat="43.6217933" lon="12.4749067"><ele>422.0</ele><time>2026-04-25T09:35:06.534Z</time></trkpt><trkpt lat="43.6216867" lon="12.4749933"><ele>419.0</ele><time>2026-04-25T09:35:07.534Z</time></trkpt><trkpt lat="43.6215933" lon="12.4751017"><ele>416.0</ele><time>2026-04-25T09:35:08.534Z</time></trkpt><trkpt lat="43.6215067" lon="12.4752217"><ele>413.0</ele><time>2026-04-25T09:35:09.531Z</time></trkpt><trkpt lat="43.62143" lon="12.4753533"><ele>412.0</ele><time>2026-04-25T09:35:10.535Z</time></trkpt><trkpt lat="43.6213617" lon="12.4754983"><ele>411.0</ele><time>2026-04-25T09:35:11.535Z</time></trkpt><trkpt lat="43.62129" lon="12.4756433"><ele>410.0</ele><time>2026-04-25T09:35:12.533Z</time></trkpt><trkpt lat="43.6212133" lon="12.4757683"><ele>409.0</ele><time>2026-04-25T09:35:13.532Z</time></trkpt><trkpt lat="43.6211267" lon="12.4758583"><ele>409.0</ele><time>2026-04-25T09:35:14.531Z</time></trkpt><trkpt lat="43.62103" lon="12.47592"><ele>409.0</ele><time>2026-04-25T09:35:15.53Z</time></trkpt><trkpt lat="43.620925" lon="12.4759467"><ele>409.0</ele><time>2026-04-25T09:35:16.531Z</time></trkpt><trkpt lat="43.6208083" lon="12.4759417"><ele>409.0</ele><time>2026-04-25T09:35:17.53Z</time></trkpt><trkpt lat="43.6205717" lon="12.4758683"><ele>409.0</ele><time>2026-04-25T09:35:19.531Z</time></trkpt><trkpt lat="43.6204533" lon="12.4758133"><ele>409.0</ele><time>2026-04-25T09:35:20.532Z</time></trkpt><trkpt lat="43.6203383" lon="12.4757567"><ele>409.0</ele><time>2026-04-25T09:35:21.531Z</time></trkpt><trkpt lat="43.6202267" lon="12.475705"><ele>409.0</ele><time>2026-04-25T09:35:22.533Z</time></trkpt><trkpt lat="43.620115" lon="12.475655"><ele>409.25</ele><time>2026-04-25T09:35:23.53Z</time></trkpt><trkpt lat="43.6200067" lon="12.4756067"><ele>409.5</ele><time>2026-04-25T09:35:24.532Z</time></trkpt><trkpt lat="43.6199017" lon="12.475555"><ele>409.75</ele><time>2026-04-25T09:35:25.531Z</time></trkpt><trkpt lat="43.6197983" lon="12.4755033"><ele>410.0</ele><time>2026-04-25T09:35:26.532Z</time></trkpt><trkpt lat="43.6196817" lon="12.4754467"><ele>408.25</ele><time>2026-04-25T09:35:27.53Z</time></trkpt><trkpt lat="43.619555" lon="12.4753867"><ele>406.5</ele><time>2026-04-25T09:35:28.532Z</time></trkpt><trkpt lat="43.61942" lon="12.475325"><ele>404.75</ele><time>2026-04-25T09:35:29.531Z</time></trkpt><trkpt lat="43.619285" lon="12.4752517"><ele>403.0</ele><time>2026-04-25T09:35:30.534Z</time></trkpt><trkpt lat="43.6191533" lon="12.475155"><ele>402.25</ele><time>2026-04-25T09:35:31.531Z</time></trkpt><trkpt lat="43.6190317" lon="12.475035"><ele>401.5</ele><time>2026-04-25T09:35:32.531Z</time></trkpt><trkpt lat="43.6189167" lon="12.4749017"><ele>400.75</ele><time>2026-04-25T09:35:33.531Z</time></trkpt><trkpt lat="43.6188083" lon="12.4747667"><ele>400.0</ele><time>2026-04-25T09:35:34.533Z</time></trkpt><trkpt lat="43.6186967" lon="12.4746383"><ele>398.25</ele><time>2026-04-25T09:35:35.532Z</time></trkpt><trkpt lat="43.61859" lon="12.4745117"><ele>396.5</ele><time>2026-04-25T09:35:36.531Z</time></trkpt><trkpt lat="43.6184917" lon="12.4743867"><ele>394.75</ele><time>2026-04-25T09:35:37.532Z</time></trkpt><trkpt lat="43.6183917" lon="12.4742667"><ele>393.0</ele><time>2026-04-25T09:35:38.53Z</time></trkpt><trkpt lat="43.6181867" lon="12.4740217"><ele>393.0</ele><time>2026-04-25T09:35:40.534Z</time></trkpt><trkpt lat="43.61808" lon="12.4738933"><ele>393.0</ele><time>2026-04-25T09:35:41.534Z</time></trkpt><trkpt lat="43.6179667" lon="12.47377"><ele>393.0</ele><time>2026-04-25T09:35:42.534Z</time></trkpt><trkpt lat="43.61785" lon="12.473655"><ele>393.0</ele><time>2026-04-25T09:35:43.533Z</time></trkpt><trkpt lat="43.617735" lon="12.47355"><ele>391.75</ele><time>2026-04-25T09:35:44.53Z</time></trkpt><trkpt lat="43.61762" lon="12.4734583"><ele>390.5</ele><time>2026-04-25T09:35:45.532Z</time></trkpt><trkpt lat="43.617505" lon="12.47338"><ele>389.25</ele><time>2026-04-25T09:35:46.532Z</time></trkpt><trkpt lat="43.6173867" lon="12.47332"><ele>388.0</ele><time>2026-04-25T09:35:47.534Z</time></trkpt><trkpt lat="43.617265" lon="12.47328"><ele>388.0</ele><time>2026-04-25T09:35:48.534Z</time></trkpt><trkpt lat="43.6171417" lon="12.47326"><ele>388.0</ele><time>2026-04-25T09:35:49.536Z</time></trkpt><trkpt lat="43.6170083" lon="12.473255"><ele>388.0</ele><time>2026-04-25T09:35:50.53Z</time></trkpt><trkpt lat="43.6168633" lon="12.4732633"><ele>388.0</ele><time>2026-04-25T09:35:51.532Z</time></trkpt><trkpt lat="43.6167033" lon="12.4732933"><ele>387.0</ele><time>2026-04-25T09:35:52.532Z</time></trkpt><trkpt lat="43.6165233" lon="12.4733433"><ele>386.0</ele><time>2026-04-25T09:35:53.532Z</time></trkpt><trkpt lat="43.616325" lon="12.473405"><ele>385.0</ele><time>2026-04-25T09:35:54.531Z</time></trkpt><trkpt lat="43.61611" lon="12.473465"><ele>382.0</ele><time>2026-04-25T09:35:55.533Z</time></trkpt><trkpt lat="43.6158783" lon="12.47352"><ele>379.0</ele><time>2026-04-25T09:35:56.532Z</time></trkpt><trkpt lat="43.6156517" lon="12.47357"><ele>379.0</ele><time>2026-04-25T09:35:57.534Z</time></trkpt><trkpt lat="43.6154333" lon="12.4736233"><ele>379.0</ele><time>2026-04-25T09:35:58.532Z</time></trkpt><trkpt lat="43.6152283" lon="12.473675"><ele>379.0</ele><time>2026-04-25T09:35:59.533Z</time></trkpt><trkpt lat="43.6148517" lon="12.4737667"><ele>378.66666666666663</ele><time>2026-04-25T09:36:01.534Z</time></trkpt><trkpt lat="43.6146867" lon="12.4738233"><ele>378.3333333333333</ele><time>2026-04-25T09:36:02.532Z</time></trkpt><trkpt lat="43.6145367" lon="12.473905"><ele>378.0</ele><time>2026-04-25T09:36:03.532Z</time></trkpt><trkpt lat="43.6144033" lon="12.4740233"><ele>377.6666666666667</ele><time>2026-04-25T09:36:04.533Z</time></trkpt><trkpt lat="43.6142867" lon="12.4741933"><ele>377.33333333333337</ele><time>2026-04-25T09:36:05.535Z</time></trkpt><trkpt lat="43.6141833" lon="12.4744033"><ele>377.0</ele><time>2026-04-25T09:36:06.534Z</time></trkpt><trkpt lat="43.6140833" lon="12.47464"><ele>377.0</ele><time>2026-04-25T09:36:07.534Z</time></trkpt><trkpt lat="43.6139833" lon="12.4748867"><ele>377.0</ele><time>2026-04-25T09:36:08.535Z</time></trkpt><trkpt lat="43.6138817" lon="12.4751367"><ele>377.0</ele><time>2026-04-25T09:36:09.53Z</time></trkpt><trkpt lat="43.6137783" lon="12.4753883"><ele>376.33333333333337</ele><time>2026-04-25T09:36:10.532Z</time></trkpt><trkpt lat="43.6136733" lon="12.4756317"><ele>375.6666666666667</ele><time>2026-04-25T09:36:11.531Z</time></trkpt><trkpt lat="43.6135717" lon="12.4758667"><ele>375.0</ele><time>2026-04-25T09:36:12.532Z</time></trkpt><trkpt lat="43.613475" lon="12.4760917"><ele>374.6666666666667</ele><time>2026-04-25T09:36:13.531Z</time></trkpt><trkpt lat="43.6133783" lon="12.4763133"><ele>374.33333333333337</ele><time>2026-04-25T09:36:14.533Z</time></trkpt><trkpt lat="43.6132817" lon="12.4765333"><ele>374.0</ele><time>2026-04-25T09:36:15.531Z</time></trkpt><trkpt lat="43.6131817" lon="12.4767583"><ele>374.0</ele><time>2026-04-25T09:36:16.534Z</time></trkpt><trkpt lat="43.6130817" lon="12.4769867"><ele>374.0</ele><time>2026-04-25T09:36:17.531Z</time></trkpt><trkpt lat="43.612985" lon="12.4772233"><ele>374.0</ele><time>2026-04-25T09:36:18.532Z</time></trkpt><trkpt lat="43.6128933" lon="12.4774667"><ele>373.5</ele><time>2026-04-25T09:36:19.531Z</time></trkpt><trkpt lat="43.6128083" lon="12.4777183"><ele>373.0</ele><time>2026-04-25T09:36:20.531Z</time></trkpt><trkpt lat="43.612645" lon="12.478225"><ele>374.66666666666663</ele><time>2026-04-25T09:36:22.533Z</time></trkpt><trkpt lat="43.6125667" lon="12.4784783"><ele>376.3333333333333</ele><time>2026-04-25T09:36:23.537Z</time></trkpt><trkpt lat="43.6124883" lon="12.4787283"><ele>378.0</ele><time>2026-04-25T09:36:24.534Z</time></trkpt><trkpt lat="43.61241" lon="12.4789833"><ele>378.3333333333333</ele><time>2026-04-25T09:36:25.535Z</time></trkpt><trkpt lat="43.6123333" lon="12.4792333"><ele>378.66666666666663</ele><time>2026-04-25T09:36:26.534Z</time></trkpt><trkpt lat="43.612255" lon="12.4794767"><ele>379.0</ele><time>2026-04-25T09:36:27.534Z</time></trkpt><trkpt lat="43.6121717" lon="12.479715"><ele>380.66666666666663</ele><time>2026-04-25T09:36:28.532Z</time></trkpt><trkpt lat="43.6120817" lon="12.4799517"><ele>382.3333333333333</ele><time>2026-04-25T09:36:29.532Z</time></trkpt><trkpt lat="43.6119867" lon="12.4801767"><ele>384.0</ele><time>2026-04-25T09:36:30.533Z</time></trkpt><trkpt lat="43.6118867" lon="12.4803867"><ele>382.6666666666667</ele><time>2026-04-25T09:36:31.534Z</time></trkpt><trkpt lat="43.61178" lon="12.48059"><ele>381.33333333333337</ele><time>2026-04-25T09:36:32.531Z</time></trkpt><trkpt lat="43.6116733" lon="12.48078"><ele>380.0</ele><time>2026-04-25T09:36:33.533Z</time></trkpt><trkpt lat="43.6115683" lon="12.4809583"><ele>380.0</ele><time>2026-04-25T09:36:34.534Z</time></trkpt><trkpt lat="43.6114717" lon="12.481125"><ele>380.0</ele><time>2026-04-25T09:36:35.533Z</time></trkpt><trkpt lat="43.6113733" lon="12.4812817"><ele>380.0</ele><time>2026-04-25T09:36:36.536Z</time></trkpt><trkpt lat="43.611275" lon="12.48143"><ele>379.0</ele><time>2026-04-25T09:36:37.535Z</time></trkpt><trkpt lat="43.6111767" lon="12.4815683"><ele>378.0</ele><time>2026-04-25T09:36:38.534Z</time></trkpt><trkpt lat="43.6110833" lon="12.4817"><ele>377.0</ele><time>2026-04-25T09:36:39.531Z</time></trkpt><trkpt lat="43.610995" lon="12.4818267"><ele>376.0</ele><time>2026-04-25T09:36:40.531Z</time></trkpt><trkpt lat="43.6109133" lon="12.4819483"><ele>377.75</ele><time>2026-04-25T09:36:41.531Z</time></trkpt><trkpt lat="43.6107733" lon="12.4821867"><ele>379.5</ele><time>2026-04-25T09:36:43.531Z</time></trkpt><trkpt lat="43.61072" lon="12.48231"><ele>381.25</ele><time>2026-04-25T09:36:44.531Z</time></trkpt><trkpt lat="43.6106817" lon="12.482435"><ele>383.0</ele><time>2026-04-25T09:36:45.532Z</time></trkpt><trkpt lat="43.6106567" lon="12.4825583"><ele>383.0</ele><time>2026-04-25T09:36:46.533Z</time></trkpt><trkpt lat="43.61064" lon="12.48269"><ele>383.0</ele><time>2026-04-25T09:36:47.535Z</time></trkpt><trkpt lat="43.6106267" lon="12.4828333"><ele>383.0</ele><time>2026-04-25T09:36:48.531Z</time></trkpt><trkpt lat="43.6106117" lon="12.4829783"><ele>383.0</ele><time>2026-04-25T09:36:49.532Z</time></trkpt><trkpt lat="43.6105967" lon="12.4831367"><ele>383.0</ele><time>2026-04-25T09:36:50.532Z</time></trkpt><trkpt lat="43.61057" lon="12.4833017"><ele>382.5</ele><time>2026-04-25T09:36:51.534Z</time></trkpt><trkpt lat="43.6105233" lon="12.48347"><ele>382.0</ele><time>2026-04-25T09:36:52.532Z</time></trkpt><trkpt lat="43.6104583" lon="12.48363"><ele>381.5</ele><time>2026-04-25T09:36:53.532Z</time></trkpt><trkpt lat="43.6103767" lon="12.4837717"><ele>381.0</ele><time>2026-04-25T09:36:54.532Z</time></trkpt><trkpt lat="43.61029" lon="12.4838883"><ele>379.25</ele><time>2026-04-25T09:36:55.533Z</time></trkpt><trkpt lat="43.6101967" lon="12.484"><ele>377.5</ele><time>2026-04-25T09:36:56.532Z</time></trkpt><trkpt lat="43.6100967" lon="12.4841133"><ele>375.75</ele><time>2026-04-25T09:36:57.532Z</time></trkpt><trkpt lat="43.6099817" lon="12.4842433"><ele>374.0</ele><time>2026-04-25T09:36:58.532Z</time></trkpt><trkpt lat="43.6098483" lon="12.484385"><ele>374.0</ele><time>2026-04-25T09:36:59.533Z</time></trkpt><trkpt lat="43.609695" lon="12.4845283"><ele>374.0</ele><time>2026-04-25T09:37:00.535Z</time></trkpt><trkpt lat="43.60953" lon="12.4846767"><ele>374.0</ele><time>2026-04-25T09:37:01.535Z</time></trkpt><trkpt lat="43.6093633" lon="12.48484"><ele>375.5</ele><time>2026-04-25T09:37:02.535Z</time></trkpt><trkpt lat="43.609055" lon="12.4851767"><ele>377.0</ele><time>2026-04-25T09:37:04.534Z</time></trkpt><trkpt lat="43.608925" lon="12.4853633"><ele>375.33333333333337</ele><time>2026-04-25T09:37:05.535Z</time></trkpt><trkpt lat="43.608815" lon="12.4855667"><ele>373.6666666666667</ele><time>2026-04-25T09:37:06.534Z</time></trkpt><trkpt lat="43.60873" lon="12.485775"><ele>372.0</ele><time>2026-04-25T09:37:07.534Z</time></trkpt><trkpt lat="43.6086517" lon="12.4859817"><ele>372.0</ele><time>2026-04-25T09:37:08.535Z</time></trkpt><trkpt lat="43.6085717" lon="12.486185"><ele>372.0</ele><time>2026-04-25T09:37:09.535Z</time></trkpt><trkpt lat="43.6084783" lon="12.4863833"><ele>372.0</ele><time>2026-04-25T09:37:10.531Z</time></trkpt><trkpt lat="43.608365" lon="12.4865683"><ele>373.3333333333333</ele><time>2026-04-25T09:37:11.533Z</time></trkpt><trkpt lat="43.60824" lon="12.48675"><ele>374.66666666666663</ele><time>2026-04-25T09:37:12.531Z</time></trkpt><trkpt lat="43.60811" lon="12.4869383"><ele>376.0</ele><time>2026-04-25T09:37:13.532Z</time></trkpt><trkpt lat="43.6079767" lon="12.4871283"><ele>373.66666666666663</ele><time>2026-04-25T09:37:14.535Z</time></trkpt><trkpt lat="43.6078417" lon="12.48732"><ele>371.3333333333333</ele><time>2026-04-25T09:37:15.534Z</time></trkpt><trkpt lat="43.607705" lon="12.4875133"><ele>369.0</ele><time>2026-04-25T09:37:16.532Z</time></trkpt><trkpt lat="43.6075733" lon="12.487705"><ele>369.0</ele><time>2026-04-25T09:37:17.532Z</time></trkpt><trkpt lat="43.6074433" lon="12.4879"><ele>369.0</ele><time>2026-04-25T09:37:18.532Z</time></trkpt><trkpt lat="43.60731" lon="12.4881"><ele>369.0</ele><time>2026-04-25T09:37:19.535Z</time></trkpt><trkpt lat="43.607175" lon="12.4883"><ele>370.6666666666667</ele><time>2026-04-25T09:37:20.533Z</time></trkpt><trkpt lat="43.6070383" lon="12.4884983"><ele>372.33333333333337</ele><time>2026-04-25T09:37:21.534Z</time></trkpt><trkpt lat="43.6068983" lon="12.48869"><ele>374.0</ele><time>2026-04-25T09:37:22.534Z</time></trkpt><trkpt lat="43.60675" lon="12.4888717"><ele>374.0</ele><time>2026-04-25T09:37:23.532Z</time></trkpt><trkpt lat="43.6064233" lon="12.4891583"><ele>374.0</ele><time>2026-04-25T09:37:25.531Z</time></trkpt><trkpt lat="43.6062533" lon="12.4892633"><ele>370.6666666666667</ele><time>2026-04-25T09:37:26.531Z</time></trkpt><trkpt lat="43.6060817" lon="12.4893567"><ele>367.3333333333333</ele><time>2026-04-25T09:37:27.531Z</time></trkpt><trkpt lat="43.6059067" lon="12.4894417"><ele>364.0</ele><time>2026-04-25T09:37:28.534Z</time></trkpt><trkpt lat="43.605725" lon="12.48953"><ele>363.3333333333333</ele><time>2026-04-25T09:37:29.534Z</time></trkpt><trkpt lat="43.605545" lon="12.4896317"><ele>362.6666666666667</ele><time>2026-04-25T09:37:30.534Z</time></trkpt><trkpt lat="43.6053667" lon="12.4897417"><ele>362.0</ele><time>2026-04-25T09:37:31.535Z</time></trkpt><trkpt lat="43.6051967" lon="12.4898483"><ele>362.0</ele><time>2026-04-25T09:37:32.534Z</time></trkpt><trkpt lat="43.6050383" lon="12.4899583"><ele>362.0</ele><time>2026-04-25T09:37:33.532Z</time></trkpt><trkpt lat="43.604895" lon="12.4900933"><ele>362.0</ele><time>2026-04-25T09:37:34.533Z</time></trkpt><trkpt lat="43.6047667" lon="12.49026"><ele>363.6666666666667</ele><time>2026-04-25T09:37:35.535Z</time></trkpt><trkpt lat="43.6046583" lon="12.49045"><ele>365.3333333333333</ele><time>2026-04-25T09:37:36.534Z</time></trkpt><trkpt lat="43.6045567" lon="12.4906533"><ele>367.0</ele><time>2026-04-25T09:37:37.535Z</time></trkpt><trkpt lat="43.604455" lon="12.4908633"><ele>365.0</ele><time>2026-04-25T09:37:38.535Z</time></trkpt><trkpt lat="43.604355" lon="12.4910683"><ele>363.0</ele><time>2026-04-25T09:37:39.534Z</time></trkpt><trkpt lat="43.6042567" lon="12.4912767"><ele>361.0</ele><time>2026-04-25T09:37:40.534Z</time></trkpt><trkpt lat="43.6041567" lon="12.4914833"><ele>361.0</ele><time>2026-04-25T09:37:41.534Z</time></trkpt><trkpt lat="43.604055" lon="12.49169"><ele>361.0</ele><time>2026-04-25T09:37:42.534Z</time></trkpt><trkpt lat="43.6039517" lon="12.4918883"><ele>361.0</ele><time>2026-04-25T09:37:43.536Z</time></trkpt><trkpt lat="43.60385" lon="12.49207"><ele>360.5</ele><time>2026-04-25T09:37:44.536Z</time></trkpt><trkpt lat="43.603635" lon="12.49237"><ele>360.0</ele><time>2026-04-25T09:37:46.534Z</time></trkpt><trkpt lat="43.6035283" lon="12.4925067"><ele>360.0</ele><time>2026-04-25T09:37:47.534Z</time></trkpt><trkpt lat="43.603425" lon="12.492655"><ele>360.0</ele><time>2026-04-25T09:37:48.534Z</time></trkpt><trkpt lat="43.6033233" lon="12.4928217"><ele>360.0</ele><time>2026-04-25T09:37:49.534Z</time></trkpt><trkpt lat="43.60323" lon="12.4929833"><ele>360.4</ele><time>2026-04-25T09:37:50.532Z</time></trkpt><trkpt lat="43.60316" lon="12.4931217"><ele>360.8</ele><time>2026-04-25T09:37:51.534Z</time></trkpt><trkpt lat="43.603105" lon="12.4932317"><ele>361.20000000000005</ele><time>2026-04-25T09:37:52.531Z</time></trkpt><trkpt lat="43.6030667" lon="12.493315"><ele>361.6</ele><time>2026-04-25T09:37:53.535Z</time></trkpt><trkpt lat="43.6030067" lon="12.4934367"><ele>362.0</ele><time>2026-04-25T09:37:55.536Z</time></trkpt><trkpt lat="43.6029883" lon="12.4935233"><ele>362.0</ele><time>2026-04-25T09:37:58.535Z</time></trkpt><trkpt lat="43.6030433" lon="12.49347"><ele>362.0</ele><time>2026-04-25T09:38:01.531Z</time></trkpt><trkpt lat="43.6030767" lon="12.4933867"><ele>362.0</ele><time>2026-04-25T09:38:04.535Z</time></trkpt><trkpt lat="43.60313" lon="12.4932833"><ele>362.0</ele><time>2026-04-25T09:38:12.531Z</time></trkpt><trkpt lat="43.6032467" lon="12.4932333"><ele>362.0</ele><time>2026-04-25T09:38:16.531Z</time></trkpt><trkpt lat="43.6033133" lon="12.4933033"><ele>362.0</ele><time>2026-04-25T09:38:18.532Z</time></trkpt><trkpt lat="43.6034367" lon="12.4933867"><ele>362.0</ele><time>2026-04-25T09:38:20.531Z</time></trkpt><trkpt lat="43.6035233" lon="12.49344"><ele>362.0</ele><time>2026-04-25T09:38:21.532Z</time></trkpt><trkpt lat="43.6036217" lon="12.49349"><ele>362.0</ele><time>2026-04-25T09:38:22.531Z</time></trkpt><trkpt lat="43.6037233" lon="12.4935183"><ele>362.0</ele><time>2026-04-25T09:38:23.532Z</time></trkpt><trkpt lat="43.60382" lon="12.4935267"><ele>362.0</ele><time>2026-04-25T09:38:24.535Z</time></trkpt><trkpt lat="43.603915" lon="12.4935433"><ele>364.25</ele><time>2026-04-25T09:38:25.531Z</time></trkpt><trkpt lat="43.604005" lon="12.4935783"><ele>366.5</ele><time>2026-04-25T09:38:26.531Z</time></trkpt><trkpt lat="43.6040917" lon="12.4936517"><ele>368.75</ele><time>2026-04-25T09:38:27.532Z</time></trkpt><trkpt lat="43.6041833" lon="12.493765"><ele>371.0</ele><time>2026-04-25T09:38:28.533Z</time></trkpt><trkpt lat="43.6042783" lon="12.4938967"><ele>371.0</ele><time>2026-04-25T09:38:29.531Z</time></trkpt><trkpt lat="43.604385" lon="12.4940367"><ele>371.0</ele><time>2026-04-25T09:38:30.532Z</time></trkpt><trkpt lat="43.6044933" lon="12.4941783"><ele>371.0</ele><time>2026-04-25T09:38:31.532Z</time></trkpt><trkpt lat="43.604605" lon="12.4943217"><ele>371.0</ele><time>2026-04-25T09:38:32.535Z</time></trkpt><trkpt lat="43.6047167" lon="12.4944667"><ele>375.6666666666667</ele><time>2026-04-25T09:38:33.534Z</time></trkpt><trkpt lat="43.6049183" lon="12.494775"><ele>380.33333333333337</ele><time>2026-04-25T09:38:35.534Z</time></trkpt><trkpt lat="43.6050033" lon="12.4949117"><ele>385.0</ele><time>2026-04-25T09:38:36.534Z</time></trkpt><trkpt lat="43.60508" lon="12.495025"><ele>385.0</ele><time>2026-04-25T09:38:37.534Z</time></trkpt><trkpt lat="43.605145" lon="12.495135"><ele>385.0</ele><time>2026-04-25T09:38:38.534Z</time></trkpt><trkpt lat="43.605185" lon="12.4952517"><ele>385.0</ele><time>2026-04-25T09:38:39.532Z</time></trkpt><trkpt lat="43.6052033" lon="12.4953683"><ele>385.0</ele><time>2026-04-25T09:38:40.531Z</time></trkpt><trkpt lat="43.60521" lon="12.49549"><ele>385.0</ele><time>2026-04-25T09:38:41.534Z</time></trkpt><trkpt lat="43.6051833" lon="12.4956467"><ele>388.25</ele><time>2026-04-25T09:38:42.53Z</time></trkpt><trkpt lat="43.6051817" lon="12.495815"><ele>391.5</ele><time>2026-04-25T09:38:43.534Z</time></trkpt><trkpt lat="43.6051833" lon="12.49601"><ele>394.75</ele><time>2026-04-25T09:38:44.533Z</time></trkpt><trkpt lat="43.6052067" lon="12.4962033"><ele>398.0</ele><time>2026-04-25T09:38:45.535Z</time></trkpt><trkpt lat="43.6052467" lon="12.4964"><ele>401.66666666666663</ele><time>2026-04-25T09:38:46.534Z</time></trkpt><trkpt lat="43.6052983" lon="12.4966017"><ele>405.33333333333337</ele><time>2026-04-25T09:38:47.534Z</time></trkpt><trkpt lat="43.60536" lon="12.4968033"><ele>409.0</ele><time>2026-04-25T09:38:48.533Z</time></trkpt><trkpt lat="43.6054133" lon="12.4970083"><ele>409.0</ele><time>2026-04-25T09:38:49.535Z</time></trkpt><trkpt lat="43.6054733" lon="12.4972233"><ele>409.0</ele><time>2026-04-25T09:38:50.533Z</time></trkpt><trkpt lat="43.6055317" lon="12.49744"><ele>409.0</ele><time>2026-04-25T09:38:51.53Z</time></trkpt><trkpt lat="43.60559" lon="12.49765"><ele>409.0</ele><time>2026-04-25T09:38:52.53Z</time></trkpt><trkpt lat="43.605655" lon="12.4978433"><ele>409.0</ele><time>2026-04-25T09:38:53.53Z</time></trkpt><trkpt lat="43.6057233" lon="12.4980133"><ele>409.0</ele><time>2026-04-25T09:38:54.531Z</time></trkpt><trkpt lat="43.60583" lon="12.4983"><ele>411.4</ele><time>2026-04-25T09:38:56.53Z</time></trkpt><trkpt lat="43.6058617" lon="12.4984383"><ele>413.79999999999995</ele><time>2026-04-25T09:38:57.533Z</time></trkpt><trkpt lat="43.605875" lon="12.4985817"><ele>416.20000000000005</ele><time>2026-04-25T09:38:58.53Z</time></trkpt><trkpt lat="43.60587" lon="12.4987317"><ele>418.6</ele><time>2026-04-25T09:38:59.531Z</time></trkpt><trkpt lat="43.60588" lon="12.49887"><ele>421.0</ele><time>2026-04-25T09:39:00.53Z</time></trkpt><trkpt lat="43.6059017" lon="12.4990133"><ele>423.0</ele><time>2026-04-25T09:39:01.531Z</time></trkpt><trkpt lat="43.605945" lon="12.499145"><ele>425.0</ele><time>2026-04-25T09:39:02.532Z</time></trkpt><trkpt lat="43.6059817" lon="12.499275"><ele>427.0</ele><time>2026-04-25T09:39:03.534Z</time></trkpt><trkpt lat="43.6059967" lon="12.4994067"><ele>429.0</ele><time>2026-04-25T09:39:04.531Z</time></trkpt><trkpt lat="43.60599" lon="12.4995367"><ele>431.0</ele><time>2026-04-25T09:39:05.534Z</time></trkpt><trkpt lat="43.6059633" lon="12.49966"><ele>433.49999999999994</ele><time>2026-04-25T09:39:06.534Z</time></trkpt><trkpt lat="43.6059433" lon="12.4997633"><ele>436.0</ele><time>2026-04-25T09:39:07.534Z</time></trkpt><trkpt lat="43.6059317" lon="12.4998633"><ele>438.5</ele><time>2026-04-25T09:39:08.534Z</time></trkpt><trkpt lat="43.6059433" lon="12.49995"><ele>441.0</ele><time>2026-04-25T09:39:09.532Z</time></trkpt><trkpt lat="43.6059967" lon="12.5000817"><ele>443.49999999999994</ele><time>2026-04-25T09:39:11.533Z</time></trkpt><trkpt lat="43.6060133" lon="12.5001767"><ele>446.0</ele><time>2026-04-25T09:39:13.534Z</time></trkpt><trkpt lat="43.605945" lon="12.5002517"><ele>446.0</ele><time>2026-04-25T09:39:15.531Z</time></trkpt><trkpt lat="43.605765" lon="12.500345"><ele>446.0</ele><time>2026-04-25T09:39:17.532Z</time></trkpt><trkpt lat="43.6056367" lon="12.5004117"><ele>446.0</ele><time>2026-04-25T09:39:18.532Z</time></trkpt><trkpt lat="43.6055083" lon="12.5004933"><ele>449.0</ele><time>2026-04-25T09:39:19.531Z</time></trkpt><trkpt lat="43.6053783" lon="12.5006017"><ele>452.0</ele><time>2026-04-25T09:39:20.531Z</time></trkpt><trkpt lat="43.60528" lon="12.500725"><ele>455.0</ele><time>2026-04-25T09:39:21.531Z</time></trkpt><trkpt lat="43.60518" lon="12.50085"><ele>458.0</ele><time>2026-04-25T09:39:22.531Z</time></trkpt><trkpt lat="43.605075" lon="12.5009517"><ele>458.0</ele><time>2026-04-25T09:39:23.532Z</time></trkpt><trkpt lat="43.6049467" lon="12.50103"><ele>458.0</ele><time>2026-04-25T09:39:24.533Z</time></trkpt><trkpt lat="43.6048183" lon="12.501095"><ele>458.0</ele><time>2026-04-25T09:39:25.533Z</time></trkpt><trkpt lat="43.6047" lon="12.5011583"><ele>458.0</ele><time>2026-04-25T09:39:26.531Z</time></trkpt><trkpt lat="43.6045883" lon="12.5012183"><ele>461.5</ele><time>2026-04-25T09:39:27.534Z</time></trkpt><trkpt lat="43.6044717" lon="12.5012567"><ele>465.0</ele><time>2026-04-25T09:39:28.532Z</time></trkpt><trkpt lat="43.60435" lon="12.5012733"><ele>468.5</ele><time>2026-04-25T09:39:29.535Z</time></trkpt><trkpt lat="43.6042267" lon="12.5012717"><ele>472.0</ele><time>2026-04-25T09:39:30.533Z</time></trkpt><trkpt lat="43.60412" lon="12.5012633"><ele>472.0</ele><time>2026-04-25T09:39:31.534Z</time></trkpt><trkpt lat="43.6040267" lon="12.5012583"><ele>472.00000000000006</ele><time>2026-04-25T09:39:32.53Z</time></trkpt><trkpt lat="43.60395" lon="12.5012533"><ele>472.00000000000006</ele><time>2026-04-25T09:39:33.531Z</time></trkpt><trkpt lat="43.6038467" lon="12.501295"><ele>472.0</ele><time>2026-04-25T09:39:35.534Z</time></trkpt><trkpt lat="43.6038217" lon="12.5014517"><ele>472.0</ele><time>2026-04-25T09:39:37.534Z</time></trkpt><trkpt lat="43.6037817" lon="12.5016633"><ele>472.00000000000006</ele><time>2026-04-25T09:39:39.53Z</time></trkpt><trkpt lat="43.603765" lon="12.501775"><ele>472.0</ele><time>2026-04-25T09:39:40.531Z</time></trkpt><trkpt lat="43.6037567" lon="12.5018767"><ele>472.0</ele><time>2026-04-25T09:39:41.53Z</time></trkpt><trkpt lat="43.6037533" lon="12.5019767"><ele>472.0</ele><time>2026-04-25T09:39:42.532Z</time></trkpt><trkpt lat="43.6037517" lon="12.50208"><ele>472.00000000000006</ele><time>2026-04-25T09:39:43.532Z</time></trkpt><trkpt lat="43.6037383" lon="12.50219"><ele>472.0</ele><time>2026-04-25T09:39:44.531Z</time></trkpt><trkpt lat="43.6037133" lon="12.5023117"><ele>472.20000000000005</ele><time>2026-04-25T09:39:45.534Z</time></trkpt><trkpt lat="43.6036767" lon="12.5024417"><ele>472.40000000000003</ele><time>2026-04-25T09:39:46.532Z</time></trkpt><trkpt lat="43.6036383" lon="12.50257"><ele>472.59999999999997</ele><time>2026-04-25T09:39:47.53Z</time></trkpt><trkpt lat="43.6035967" lon="12.5026967"><ele>472.79999999999995</ele><time>2026-04-25T09:39:48.531Z</time></trkpt><trkpt lat="43.6035517" lon="12.50284"><ele>473.0</ele><time>2026-04-25T09:39:49.531Z</time></trkpt><trkpt lat="43.6035017" lon="12.50298"><ele>473.0</ele><time>2026-04-25T09:39:50.531Z</time></trkpt><trkpt lat="43.603445" lon="12.5031133"><ele>472.99999999999994</ele><time>2026-04-25T09:39:51.531Z</time></trkpt><trkpt lat="43.6033867" lon="12.5032467"><ele>472.99999999999994</ele><time>2026-04-25T09:39:52.531Z</time></trkpt><trkpt lat="43.6033283" lon="12.5033767"><ele>473.0</ele><time>2026-04-25T09:39:53.532Z</time></trkpt><trkpt lat="43.6032633" lon="12.5035017"><ele>473.0</ele><time>2026-04-25T09:39:54.531Z</time></trkpt><trkpt lat="43.6031883" lon="12.50361"><ele>473.0</ele><time>2026-04-25T09:39:55.53Z</time></trkpt><trkpt lat="43.6030967" lon="12.5037033"><ele>473.0</ele><time>2026-04-25T09:39:56.532Z</time></trkpt><trkpt lat="43.6029967" lon="12.5037717"><ele>473.0</ele><time>2026-04-25T09:39:57.531Z</time></trkpt><trkpt lat="43.6028883" lon="12.5038233"><ele>473.0</ele><time>2026-04-25T09:39:58.532Z</time></trkpt><trkpt lat="43.6026783" lon="12.5038817"><ele>472.0</ele><time>2026-04-25T09:40:00.535Z</time></trkpt><trkpt lat="43.6025817" lon="12.5039217"><ele>470.99999999999994</ele><time>2026-04-25T09:40:01.53Z</time></trkpt><trkpt lat="43.6024983" lon="12.5039817"><ele>469.99999999999994</ele><time>2026-04-25T09:40:02.531Z</time></trkpt><trkpt lat="43.6024217" lon="12.50407"><ele>469.0</ele><time>2026-04-25T09:40:03.536Z</time></trkpt><trkpt lat="43.60235" lon="12.5041817"><ele>468.0</ele><time>2026-04-25T09:40:04.533Z</time></trkpt><trkpt lat="43.6022783" lon="12.5043067"><ele>468.0</ele><time>2026-04-25T09:40:05.53Z</time></trkpt><trkpt lat="43.6022033" lon="12.5044317"><ele>468.0</ele><time>2026-04-25T09:40:06.531Z</time></trkpt><trkpt lat="43.602105" lon="12.50454"><ele>468.0</ele><time>2026-04-25T09:40:07.531Z</time></trkpt><trkpt lat="43.6020133" lon="12.5046283"><ele>468.0</ele><time>2026-04-25T09:40:08.534Z</time></trkpt><trkpt lat="43.601905" lon="12.5047183"><ele>468.2</ele><time>2026-04-25T09:40:09.531Z</time></trkpt><trkpt lat="43.6018" lon="12.50479"><ele>468.4</ele><time>2026-04-25T09:40:10.531Z</time></trkpt><trkpt lat="43.6017" lon="12.5048233"><ele>468.59999999999997</ele><time>2026-04-25T09:40:11.53Z</time></trkpt><trkpt lat="43.6016067" lon="12.5048333"><ele>468.79999999999995</ele><time>2026-04-25T09:40:12.531Z</time></trkpt><trkpt lat="43.6015267" lon="12.5048433"><ele>469.0</ele><time>2026-04-25T09:40:13.532Z</time></trkpt><trkpt lat="43.601465" lon="12.50487"><ele>469.0</ele><time>2026-04-25T09:40:14.53Z</time></trkpt><trkpt lat="43.6013933" lon="12.504985"><ele>469.0</ele><time>2026-04-25T09:40:16.533Z</time></trkpt><trkpt lat="43.6014133" lon="12.5050683"><ele>469.0</ele><time>2026-04-25T09:40:17.53Z</time></trkpt><trkpt lat="43.6014467" lon="12.505155"><ele>469.0</ele><time>2026-04-25T09:40:18.532Z</time></trkpt><trkpt lat="43.6014583" lon="12.5052517"><ele>469.0</ele><time>2026-04-25T09:40:19.533Z</time></trkpt><trkpt lat="43.601415" lon="12.5054417"><ele>468.6666666666667</ele><time>2026-04-25T09:40:21.532Z</time></trkpt><trkpt lat="43.6013683" lon="12.5055417"><ele>468.33333333333337</ele><time>2026-04-25T09:40:22.532Z</time></trkpt><trkpt lat="43.6013033" lon="12.5056383"><ele>468.0</ele><time>2026-04-25T09:40:23.533Z</time></trkpt><trkpt lat="43.60123" lon="12.5057"><ele>467.66666666666663</ele><time>2026-04-25T09:40:24.531Z</time></trkpt><trkpt lat="43.6011517" lon="12.505735"><ele>467.3333333333333</ele><time>2026-04-25T09:40:25.533Z</time></trkpt><trkpt lat="43.60106" lon="12.5057317"><ele>467.0</ele><time>2026-04-25T09:40:26.531Z</time></trkpt><trkpt lat="43.6009483" lon="12.5057067"><ele>467.0</ele><time>2026-04-25T09:40:27.532Z</time></trkpt><trkpt lat="43.6008317" lon="12.505665"><ele>467.00000000000006</ele><time>2026-04-25T09:40:28.532Z</time></trkpt><trkpt lat="43.6007267" lon="12.505635"><ele>467.00000000000006</ele><time>2026-04-25T09:40:29.535Z</time></trkpt><trkpt lat="43.60063" lon="12.50559"><ele>467.0</ele><time>2026-04-25T09:40:30.533Z</time></trkpt><trkpt lat="43.6005417" lon="12.5055333"><ele>467.0</ele><time>2026-04-25T09:40:31.534Z</time></trkpt><trkpt lat="43.60047" lon="12.5054767"><ele>467.0</ele><time>2026-04-25T09:40:32.53Z</time></trkpt><trkpt lat="43.6004033" lon="12.5054367"><ele>467.00000000000006</ele><time>2026-04-25T09:40:33.533Z</time></trkpt><trkpt lat="43.6003133" lon="12.5054033"><ele>467.00000000000006</ele><time>2026-04-25T09:40:35.533Z</time></trkpt><trkpt lat="43.6002483" lon="12.5054833"><ele>467.0</ele><time>2026-04-25T09:40:37.534Z</time></trkpt><trkpt lat="43.600175" lon="12.5056217"><ele>467.0</ele><time>2026-04-25T09:40:39.534Z</time></trkpt><trkpt lat="43.6001133" lon="12.5057167"><ele>462.5</ele><time>2026-04-25T09:40:40.533Z</time></trkpt><trkpt lat="43.5999817" lon="12.5059167"><ele>458.0</ele><time>2026-04-25T09:40:42.534Z</time></trkpt><trkpt lat="43.59991" lon="12.5060017"><ele>453.5</ele><time>2026-04-25T09:40:43.534Z</time></trkpt><trkpt lat="43.5998317" lon="12.5060933"><ele>449.0</ele><time>2026-04-25T09:40:44.534Z</time></trkpt><trkpt lat="43.5997517" lon="12.5061717"><ele>449.8333333333333</ele><time>2026-04-25T09:40:45.531Z</time></trkpt><trkpt lat="43.59967" lon="12.5062517"><ele>450.66666666666663</ele><time>2026-04-25T09:40:46.533Z</time></trkpt><trkpt lat="43.599595" lon="12.5063333"><ele>451.5</ele><time>2026-04-25T09:40:47.532Z</time></trkpt><trkpt lat="43.599535" lon="12.5064183"><ele>452.33333333333337</ele><time>2026-04-25T09:40:48.532Z</time></trkpt><trkpt lat="43.5994917" lon="12.5065117"><ele>453.1666666666667</ele><time>2026-04-25T09:40:49.533Z</time></trkpt><trkpt lat="43.5994617" lon="12.5066233"><ele>454.0</ele><time>2026-04-25T09:40:50.531Z</time></trkpt><trkpt lat="43.599445" lon="12.5067467"><ele>449.6</ele><time>2026-04-25T09:40:51.533Z</time></trkpt><trkpt lat="43.59944" lon="12.5068817"><ele>445.2</ele><time>2026-04-25T09:40:52.532Z</time></trkpt><trkpt lat="43.5994417" lon="12.5070267"><ele>440.80000000000007</ele><time>2026-04-25T09:40:53.531Z</time></trkpt><trkpt lat="43.59944" lon="12.507175"><ele>436.40000000000003</ele><time>2026-04-25T09:40:54.532Z</time></trkpt><trkpt lat="43.5994267" lon="12.50732"><ele>432.0</ele><time>2026-04-25T09:40:55.533Z</time></trkpt><trkpt lat="43.5994117" lon="12.507475"><ele>432.0</ele><time>2026-04-25T09:40:56.531Z</time></trkpt><trkpt lat="43.5994033" lon="12.5076317"><ele>432.00000000000006</ele><time>2026-04-25T09:40:57.532Z</time></trkpt><trkpt lat="43.5994" lon="12.507775"><ele>432.00000000000006</ele><time>2026-04-25T09:40:58.534Z</time></trkpt><trkpt lat="43.5994067" lon="12.5078983"><ele>432.0</ele><time>2026-04-25T09:40:59.534Z</time></trkpt><trkpt lat="43.599415" lon="12.5080017"><ele>432.0</ele><time>2026-04-25T09:41:00.534Z</time></trkpt><trkpt lat="43.5994617" lon="12.508125"><ele>437.0</ele><time>2026-04-25T09:41:02.534Z</time></trkpt><trkpt lat="43.59967" lon="12.5080833"><ele>442.0</ele><time>2026-04-25T09:41:05.534Z</time></trkpt><trkpt lat="43.5997883" lon="12.5080533"><ele>447.0</ele><time>2026-04-25T09:41:06.534Z</time></trkpt><trkpt lat="43.5999067" lon="12.5080567"><ele>452.0</ele><time>2026-04-25T09:41:07.535Z</time></trkpt><trkpt lat="43.6000283" lon="12.5080783"><ele>452.0</ele><time>2026-04-25T09:41:08.534Z</time></trkpt><trkpt lat="43.600145" lon="12.5081217"><ele>452.0</ele><time>2026-04-25T09:41:09.531Z</time></trkpt><trkpt lat="43.6002533" lon="12.5081783"><ele>452.0</ele><time>2026-04-25T09:41:10.536Z</time></trkpt><trkpt lat="43.6003433" lon="12.5082533"><ele>452.0</ele><time>2026-04-25T09:41:11.531Z</time></trkpt><trkpt lat="43.6004317" lon="12.5083567"><ele>456.25</ele><time>2026-04-25T09:41:12.533Z</time></trkpt><trkpt lat="43.6005133" lon="12.508485"><ele>460.5</ele><time>2026-04-25T09:41:13.532Z</time></trkpt><trkpt lat="43.6005867" lon="12.5086017"><ele>464.75</ele><time>2026-04-25T09:41:14.532Z</time></trkpt><trkpt lat="43.6006633" lon="12.5087067"><ele>469.0</ele><time>2026-04-25T09:41:15.532Z</time></trkpt><trkpt lat="43.6007467" lon="12.5087983"><ele>469.00000000000006</ele><time>2026-04-25T09:41:16.533Z</time></trkpt><trkpt lat="43.6008283" lon="12.5088933"><ele>469.0</ele><time>2026-04-25T09:41:17.531Z</time></trkpt><trkpt lat="43.6008983" lon="12.50898"><ele>469.0</ele><time>2026-04-25T09:41:18.532Z</time></trkpt><trkpt lat="43.6009583" lon="12.5090633"><ele>469.0</ele><time>2026-04-25T09:41:19.532Z</time></trkpt><trkpt lat="43.6010017" lon="12.509135"><ele>469.00000000000006</ele><time>2026-04-25T09:41:20.533Z</time></trkpt><trkpt lat="43.60103" lon="12.509215"><ele>469.0</ele><time>2026-04-25T09:41:21.532Z</time></trkpt><trkpt lat="43.6009933" lon="12.5093667"><ele>469.0</ele><time>2026-04-25T09:41:23.533Z</time></trkpt><trkpt lat="43.600775" lon="12.509435"><ele>469.0</ele><time>2026-04-25T09:41:25.533Z</time></trkpt><trkpt lat="43.6006717" lon="12.50946"><ele>469.0</ele><time>2026-04-25T09:41:26.533Z</time></trkpt><trkpt lat="43.6005817" lon="12.5094933"><ele>469.0</ele><time>2026-04-25T09:41:27.532Z</time></trkpt><trkpt lat="43.6004967" lon="12.5095217"><ele>469.00000000000006</ele><time>2026-04-25T09:41:28.532Z</time></trkpt><trkpt lat="43.6004017" lon="12.5095217"><ele>469.0</ele><time>2026-04-25T09:41:29.533Z</time></trkpt><trkpt lat="43.6003217" lon="12.5094867"><ele>469.0</ele><time>2026-04-25T09:41:30.534Z</time></trkpt><trkpt lat="43.6002467" lon="12.5094317"><ele>469.0</ele><time>2026-04-25T09:41:31.534Z</time></trkpt><trkpt lat="43.6001817" lon="12.5093633"><ele>469.00000000000006</ele><time>2026-04-25T09:41:32.536Z</time></trkpt><trkpt lat="43.60012" lon="12.5092983"><ele>469.0</ele><time>2026-04-25T09:41:33.531Z</time></trkpt><trkpt lat="43.6000517" lon="12.5092567"><ele>467.4</ele><time>2026-04-25T09:41:34.535Z</time></trkpt><trkpt lat="43.5999833" lon="12.509225"><ele>465.79999999999995</ele><time>2026-04-25T09:41:35.531Z</time></trkpt><trkpt lat="43.5999117" lon="12.509205"><ele>464.20000000000005</ele><time>2026-04-25T09:41:36.533Z</time></trkpt><trkpt lat="43.5998183" lon="12.509195"><ele>462.6</ele><time>2026-04-25T09:41:37.534Z</time></trkpt><trkpt lat="43.5997" lon="12.509195"><ele>461.0</ele><time>2026-04-25T09:41:38.535Z</time></trkpt><trkpt lat="43.5995733" lon="12.50921"><ele>462.25</ele><time>2026-04-25T09:41:39.534Z</time></trkpt><trkpt lat="43.5994417" lon="12.509235"><ele>463.5</ele><time>2026-04-25T09:41:40.531Z</time></trkpt><trkpt lat="43.5993083" lon="12.5092683"><ele>464.75</ele><time>2026-04-25T09:41:41.535Z</time></trkpt><trkpt lat="43.5991767" lon="12.5092967"><ele>466.0</ele><time>2026-04-25T09:41:42.534Z</time></trkpt><trkpt lat="43.5990533" lon="12.509315"><ele>466.0</ele><time>2026-04-25T09:41:43.535Z</time></trkpt><trkpt lat="43.598935" lon="12.5093067"><ele>466.0</ele><time>2026-04-25T09:41:44.533Z</time></trkpt><trkpt lat="43.5987583" lon="12.5092467"><ele>466.0</ele><time>2026-04-25T09:41:46.532Z</time></trkpt><trkpt lat="43.598695" lon="12.5092417"><ele>466.0</ele><time>2026-04-25T09:41:47.533Z</time></trkpt><trkpt lat="43.5986467" lon="12.5093083"><ele>466.0</ele><time>2026-04-25T09:41:49.533Z</time></trkpt><trkpt lat="43.5986967" lon="12.5094"><ele>466.0</ele><time>2026-04-25T09:41:51.533Z</time></trkpt><trkpt lat="43.5987583" lon="12.5094333"><ele>466.0</ele><time>2026-04-25T09:41:52.532Z</time></trkpt><trkpt lat="43.5988433" lon="12.5094667"><ele>466.0</ele><time>2026-04-25T09:41:53.534Z</time></trkpt><trkpt lat="43.5989767" lon="12.5094867"><ele>466.0</ele><time>2026-04-25T09:41:54.534Z</time></trkpt><trkpt lat="43.599095" lon="12.5095117"><ele>466.0</ele><time>2026-04-25T09:41:55.535Z</time></trkpt><trkpt lat="43.599225" lon="12.5095283"><ele>466.0</ele><time>2026-04-25T09:41:56.534Z</time></trkpt><trkpt lat="43.5993433" lon="12.509545"><ele>466.0</ele><time>2026-04-25T09:41:57.537Z</time></trkpt><trkpt lat="43.599455" lon="12.509575"><ele>466.0</ele><time>2026-04-25T09:41:58.535Z</time></trkpt><trkpt lat="43.5995633" lon="12.5096233"><ele>466.0</ele><time>2026-04-25T09:41:59.534Z</time></trkpt><trkpt lat="43.5996683" lon="12.50969"><ele>470.20000000000005</ele><time>2026-04-25T09:42:00.535Z</time></trkpt><trkpt lat="43.59977" lon="12.5097533"><ele>474.40000000000003</ele><time>2026-04-25T09:42:01.535Z</time></trkpt><trkpt lat="43.5998683" lon="12.5098217"><ele>478.6</ele><time>2026-04-25T09:42:02.534Z</time></trkpt><trkpt lat="43.599955" lon="12.509915"><ele>482.8</ele><time>2026-04-25T09:42:03.534Z</time></trkpt><trkpt lat="43.60003" lon="12.510035"><ele>487.0</ele><time>2026-04-25T09:42:04.534Z</time></trkpt><trkpt lat="43.6001033" lon="12.5101533"><ele>487.0</ele><time>2026-04-25T09:42:05.534Z</time></trkpt><trkpt lat="43.6002783" lon="12.5103383"><ele>487.0</ele><time>2026-04-25T09:42:07.535Z</time></trkpt><trkpt lat="43.6003817" lon="12.5104033"><ele>487.0</ele><time>2026-04-25T09:42:08.533Z</time></trkpt><trkpt lat="43.6004883" lon="12.5104433"><ele>487.0</ele><time>2026-04-25T09:42:09.535Z</time></trkpt><trkpt lat="43.6005917" lon="12.51046"><ele>486.0</ele><time>2026-04-25T09:42:10.534Z</time></trkpt><trkpt lat="43.6007033" lon="12.51045"><ele>485.0</ele><time>2026-04-25T09:42:11.533Z</time></trkpt><trkpt lat="43.600825" lon="12.5104217"><ele>484.0</ele><time>2026-04-25T09:42:12.535Z</time></trkpt><trkpt lat="43.60095" lon="12.5103967"><ele>483.0</ele><time>2026-04-25T09:42:13.534Z</time></trkpt><trkpt lat="43.6010733" lon="12.5103867"><ele>486.25</ele><time>2026-04-25T09:42:14.534Z</time></trkpt><trkpt lat="43.6012017" lon="12.5103983"><ele>489.5</ele><time>2026-04-25T09:42:15.534Z</time></trkpt><trkpt lat="43.6013317" lon="12.5104117"><ele>492.75</ele><time>2026-04-25T09:42:16.535Z</time></trkpt><trkpt lat="43.6014617" lon="12.5104283"><ele>496.0</ele><time>2026-04-25T09:42:17.534Z</time></trkpt><trkpt lat="43.6015833" lon="12.5104433"><ele>501.20000000000005</ele><time>2026-04-25T09:42:18.534Z</time></trkpt><trkpt lat="43.6016867" lon="12.5104533"><ele>506.40000000000003</ele><time>2026-04-25T09:42:19.535Z</time></trkpt><trkpt lat="43.6017733" lon="12.510455"><ele>511.6</ele><time>2026-04-25T09:42:20.534Z</time></trkpt><trkpt lat="43.6018467" lon="12.51046"><ele>516.8000000000001</ele><time>2026-04-25T09:42:21.533Z</time></trkpt><trkpt lat="43.60193" lon="12.5105183"><ele>522.0</ele><time>2026-04-25T09:42:23.534Z</time></trkpt><trkpt lat="43.60191" lon="12.510645"><ele>522.0</ele><time>2026-04-25T09:42:25.534Z</time></trkpt><trkpt lat="43.601825" lon="12.51072"><ele>522.0</ele><time>2026-04-25T09:42:27.535Z</time></trkpt><trkpt lat="43.6015417" lon="12.510735"><ele>522.0</ele><time>2026-04-25T09:42:29.532Z</time></trkpt><trkpt lat="43.60139" lon="12.5107317"><ele>522.0</ele><time>2026-04-25T09:42:30.532Z</time></trkpt><trkpt lat="43.60123" lon="12.5107467"><ele>522.0</ele><time>2026-04-25T09:42:31.531Z</time></trkpt><trkpt lat="43.6011083" lon="12.5107633"><ele>522.0</ele><time>2026-04-25T09:42:32.536Z</time></trkpt><trkpt lat="43.6010067" lon="12.5107883"><ele>522.0</ele><time>2026-04-25T09:42:33.535Z</time></trkpt><trkpt lat="43.6009233" lon="12.510825"><ele>521.1666666666666</ele><time>2026-04-25T09:42:34.535Z</time></trkpt><trkpt lat="43.6008533" lon="12.510895"><ele>520.3333333333334</ele><time>2026-04-25T09:42:35.535Z</time></trkpt><trkpt lat="43.60078" lon="12.5109667"><ele>519.5</ele><time>2026-04-25T09:42:36.534Z</time></trkpt><trkpt lat="43.60071" lon="12.5110283"><ele>518.6666666666667</ele><time>2026-04-25T09:42:37.535Z</time></trkpt><trkpt lat="43.6006283" lon="12.5110717"><ele>517.8333333333334</ele><time>2026-04-25T09:42:38.533Z</time></trkpt><trkpt lat="43.6005467" lon="12.5110867"><ele>517.0</ele><time>2026-04-25T09:42:39.534Z</time></trkpt><trkpt lat="43.6004633" lon="12.5110733"><ele>517.0</ele><time>2026-04-25T09:42:40.532Z</time></trkpt><trkpt lat="43.6003967" lon="12.5110433"><ele>517.0</ele><time>2026-04-25T09:42:41.534Z</time></trkpt><trkpt lat="43.60031" lon="12.511015"><ele>517.0</ele><time>2026-04-25T09:42:43.535Z</time></trkpt><trkpt lat="43.6003283" lon="12.5111"><ele>517.0</ele><time>2026-04-25T09:42:46.534Z</time></trkpt><trkpt lat="43.6003867" lon="12.5111467"><ele>517.0</ele><time>2026-04-25T09:42:47.533Z</time></trkpt><trkpt lat="43.6004617" lon="12.5112033"><ele>517.0</ele><time>2026-04-25T09:42:48.534Z</time></trkpt><trkpt lat="43.6006467" lon="12.5113033"><ele>523.8000000000001</ele><time>2026-04-25T09:42:50.533Z</time></trkpt><trkpt lat="43.6007417" lon="12.5113433"><ele>530.6</ele><time>2026-04-25T09:42:51.535Z</time></trkpt><trkpt lat="43.6008333" lon="12.5113667"><ele>537.4000000000001</ele><time>2026-04-25T09:42:52.534Z</time></trkpt><trkpt lat="43.600925" lon="12.511355"><ele>544.2</ele><time>2026-04-25T09:42:53.534Z</time></trkpt><trkpt lat="43.6010117" lon="12.5113133"><ele>551.0</ele><time>2026-04-25T09:42:54.535Z</time></trkpt><trkpt lat="43.6010767" lon="12.5112567"><ele>551.8333333333333</ele><time>2026-04-25T09:42:55.532Z</time></trkpt><trkpt lat="43.6011417" lon="12.5112317"><ele>552.6666666666666</ele><time>2026-04-25T09:42:56.531Z</time></trkpt><trkpt lat="43.6012117" lon="12.5112217"><ele>553.5</ele><time>2026-04-25T09:42:57.532Z</time></trkpt><trkpt lat="43.6012967" lon="12.51124"><ele>554.3333333333334</ele><time>2026-04-25T09:42:58.535Z</time></trkpt><trkpt lat="43.6013917" lon="12.511265"><ele>555.1666666666667</ele><time>2026-04-25T09:42:59.534Z</time></trkpt><trkpt lat="43.6014967" lon="12.5112967"><ele>556.0</ele><time>2026-04-25T09:43:00.535Z</time></trkpt><trkpt lat="43.6016" lon="12.51133"><ele>556.0</ele><time>2026-04-25T09:43:01.535Z</time></trkpt><trkpt lat="43.6017017" lon="12.511395"><ele>556.0</ele><time>2026-04-25T09:43:02.531Z</time></trkpt><trkpt lat="43.6017967" lon="12.51147"><ele>556.0</ele><time>2026-04-25T09:43:03.534Z</time></trkpt><trkpt lat="43.6018933" lon="12.5115633"><ele>556.0</ele><time>2026-04-25T09:43:04.532Z</time></trkpt><trkpt lat="43.60198" lon="12.511655"><ele>556.0</ele><time>2026-04-25T09:43:05.533Z</time></trkpt><trkpt lat="43.6020583" lon="12.511755"><ele>555.5</ele><time>2026-04-25T09:43:06.535Z</time></trkpt><trkpt lat="43.602115" lon="12.511865"><ele>555.0</ele><time>2026-04-25T09:43:07.536Z</time></trkpt><trkpt lat="43.60216" lon="12.5119867"><ele>554.5</ele><time>2026-04-25T09:43:08.538Z</time></trkpt><trkpt lat="43.602195" lon="12.5121117"><ele>554.0</ele><time>2026-04-25T09:43:09.534Z</time></trkpt><trkpt lat="43.6022433" lon="12.5123433"><ele>557.3333333333333</ele><time>2026-04-25T09:43:11.533Z</time></trkpt><trkpt lat="43.602275" lon="12.5124367"><ele>560.6666666666666</ele><time>2026-04-25T09:43:12.534Z</time></trkpt><trkpt lat="43.6023617" lon="12.5124983"><ele>564.0</ele><time>2026-04-25T09:43:14.532Z</time></trkpt><trkpt lat="43.6024583" lon="12.512435"><ele>567.3333333333334</ele><time>2026-04-25T09:43:15.534Z</time></trkpt><trkpt lat="43.6025317" lon="12.5124333"><ele>570.6666666666667</ele><time>2026-04-25T09:43:16.534Z</time></trkpt><trkpt lat="43.6025967" lon="12.5124467"><ele>574.0</ele><time>2026-04-25T09:43:17.533Z</time></trkpt><trkpt lat="43.6026517" lon="12.5124983"><ele>574.0</ele><time>2026-04-25T09:43:18.535Z</time></trkpt><trkpt lat="43.6026817" lon="12.5125767"><ele>574.0</ele><time>2026-04-25T09:43:19.534Z</time></trkpt><trkpt lat="43.6026883" lon="12.5126633"><ele>574.0</ele><time>2026-04-25T09:43:20.534Z</time></trkpt><trkpt lat="43.6026567" lon="12.5127583"><ele>574.0</ele><time>2026-04-25T09:43:21.534Z</time></trkpt><trkpt lat="43.6025933" lon="12.5128317"><ele>574.0</ele><time>2026-04-25T09:43:22.533Z</time></trkpt><trkpt lat="43.6024817" lon="12.5128683"><ele>574.0</ele><time>2026-04-25T09:43:23.534Z</time></trkpt><trkpt lat="43.6024017" lon="12.5129267"><ele>577.4</ele><time>2026-04-25T09:43:24.535Z</time></trkpt><trkpt lat="43.6023517" lon="12.5130017"><ele>580.8</ele><time>2026-04-25T09:43:25.535Z</time></trkpt><trkpt lat="43.602335" lon="12.5131317"><ele>584.2</ele><time>2026-04-25T09:43:27.535Z</time></trkpt><trkpt lat="43.60243" lon="12.513215"><ele>587.6</ele><time>2026-04-25T09:43:29.536Z</time></trkpt><trkpt lat="43.602535" lon="12.5132633"><ele>591.0</ele><time>2026-04-25T09:43:30.534Z</time></trkpt><trkpt lat="43.602735" lon="12.5133483"><ele>596.0</ele><time>2026-04-25T09:43:32.535Z</time></trkpt><trkpt lat="43.6028317" lon="12.5133517"><ele>601.0</ele><time>2026-04-25T09:43:33.535Z</time></trkpt><trkpt lat="43.60291" lon="12.51332"><ele>606.0</ele><time>2026-04-25T09:43:34.534Z</time></trkpt><trkpt lat="43.6029833" lon="12.51323"><ele>611.0</ele><time>2026-04-25T09:43:35.534Z</time></trkpt><trkpt lat="43.6030533" lon="12.51308"><ele>616.0</ele><time>2026-04-25T09:43:36.535Z</time></trkpt><trkpt lat="43.6031167" lon="12.5129167"><ele>611.0</ele><time>2026-04-25T09:43:37.534Z</time></trkpt><trkpt lat="43.603175" lon="12.51273"><ele>606.0</ele><time>2026-04-25T09:43:38.533Z</time></trkpt><trkpt lat="43.6032333" lon="12.5125883"><ele>601.0</ele><time>2026-04-25T09:43:39.535Z</time></trkpt><trkpt lat="43.6032917" lon="12.51247"><ele>596.0</ele><time>2026-04-25T09:43:40.535Z</time></trkpt><trkpt lat="43.60336" lon="12.5123683"><ele>596.0</ele><time>2026-04-25T09:43:41.534Z</time></trkpt><trkpt lat="43.6034483" lon="12.5122867"><ele>596.0</ele><time>2026-04-25T09:43:42.532Z</time></trkpt><trkpt lat="43.603555" lon="12.51221"><ele>596.0</ele><time>2026-04-25T09:43:43.533Z</time></trkpt><trkpt lat="43.6036683" lon="12.5121417"><ele>596.0</ele><time>2026-04-25T09:43:44.531Z</time></trkpt><trkpt lat="43.6037917" lon="12.5120817"><ele>597.25</ele><time>2026-04-25T09:43:45.534Z</time></trkpt><trkpt lat="43.6039217" lon="12.5120217"><ele>598.5</ele><time>2026-04-25T09:43:46.531Z</time></trkpt><trkpt lat="43.6040467" lon="12.5119667"><ele>599.75</ele><time>2026-04-25T09:43:47.533Z</time></trkpt><trkpt lat="43.6041633" lon="12.511925"><ele>601.0</ele><time>2026-04-25T09:43:48.534Z</time></trkpt><trkpt lat="43.6042817" lon="12.5118917"><ele>601.0</ele><time>2026-04-25T09:43:49.535Z</time></trkpt><trkpt lat="43.6044033" lon="12.5118683"><ele>601.0</ele><time>2026-04-25T09:43:50.532Z</time></trkpt><trkpt lat="43.6045367" lon="12.51186"><ele>601.0</ele><time>2026-04-25T09:43:51.535Z</time></trkpt><trkpt lat="43.6048167" lon="12.51188"><ele>603.0</ele><time>2026-04-25T09:43:53.535Z</time></trkpt><trkpt lat="43.6049483" lon="12.5118983"><ele>605.0</ele><time>2026-04-25T09:43:54.534Z</time></trkpt><trkpt lat="43.605075" lon="12.5119183"><ele>607.0</ele><time>2026-04-25T09:43:55.531Z</time></trkpt><trkpt lat="43.6052033" lon="12.5119433"><ele>609.0</ele><time>2026-04-25T09:43:56.536Z</time></trkpt><trkpt lat="43.6053267" lon="12.5119867"><ele>608.25</ele><time>2026-04-25T09:43:57.533Z</time></trkpt><trkpt lat="43.6054533" lon="12.5120433"><ele>607.5</ele><time>2026-04-25T09:43:58.534Z</time></trkpt><trkpt lat="43.605585" lon="12.5121067"><ele>606.75</ele><time>2026-04-25T09:43:59.535Z</time></trkpt><trkpt lat="43.6057167" lon="12.5121783"><ele>606.0</ele><time>2026-04-25T09:44:00.534Z</time></trkpt><trkpt lat="43.605845" lon="12.5122517"><ele>613.25</ele><time>2026-04-25T09:44:01.534Z</time></trkpt><trkpt lat="43.605965" lon="12.512315"><ele>620.5</ele><time>2026-04-25T09:44:02.535Z</time></trkpt><trkpt lat="43.6060767" lon="12.5123633"><ele>627.75</ele><time>2026-04-25T09:44:03.531Z</time></trkpt><trkpt lat="43.6061767" lon="12.51241"><ele>635.0</ele><time>2026-04-25T09:44:04.535Z</time></trkpt><trkpt lat="43.6062667" lon="12.5124783"><ele>635.0</ele><time>2026-04-25T09:44:05.534Z</time></trkpt><trkpt lat="43.606345" lon="12.5125683"><ele>635.0</ele><time>2026-04-25T09:44:06.531Z</time></trkpt><trkpt lat="43.606395" lon="12.5126867"><ele>635.0</ele><time>2026-04-25T09:44:07.533Z</time></trkpt><trkpt lat="43.60645" lon="12.51281"><ele>635.0</ele><time>2026-04-25T09:44:08.532Z</time></trkpt><trkpt lat="43.606515" lon="12.512915"><ele>635.0</ele><time>2026-04-25T09:44:09.533Z</time></trkpt><trkpt lat="43.6065933" lon="12.512985"><ele>644.6666666666666</ele><time>2026-04-25T09:44:10.533Z</time></trkpt><trkpt lat="43.6066867" lon="12.5130333"><ele>654.3333333333334</ele><time>2026-04-25T09:44:11.535Z</time></trkpt><trkpt lat="43.6067917" lon="12.5130617"><ele>664.0</ele><time>2026-04-25T09:44:12.533Z</time></trkpt><trkpt lat="43.607055" lon="12.5130583"><ele>665.75</ele><time>2026-04-25T09:44:14.532Z</time></trkpt><trkpt lat="43.6071917" lon="12.51306"><ele>667.5</ele><time>2026-04-25T09:44:15.532Z</time></trkpt><trkpt lat="43.6073283" lon="12.51308"><ele>669.25</ele><time>2026-04-25T09:44:16.534Z</time></trkpt><trkpt lat="43.6074683" lon="12.5131017"><ele>671.0</ele><time>2026-04-25T09:44:17.532Z</time></trkpt><trkpt lat="43.6076083" lon="12.5131417"><ele>671.0</ele><time>2026-04-25T09:44:18.533Z</time></trkpt><trkpt lat="43.6077367" lon="12.513175"><ele>671.0</ele><time>2026-04-25T09:44:19.533Z</time></trkpt><trkpt lat="43.60785" lon="12.5132117"><ele>671.0</ele><time>2026-04-25T09:44:20.534Z</time></trkpt><trkpt lat="43.60796" lon="12.513265"><ele>671.0</ele><time>2026-04-25T09:44:21.533Z</time></trkpt><trkpt lat="43.6080583" lon="12.5133617"><ele>670.25</ele><time>2026-04-25T09:44:22.534Z</time></trkpt><trkpt lat="43.608165" lon="12.513465"><ele>669.5</ele><time>2026-04-25T09:44:23.531Z</time></trkpt><trkpt lat="43.608275" lon="12.51359"><ele>668.75</ele><time>2026-04-25T09:44:24.534Z</time></trkpt><trkpt lat="43.60839" lon="12.5137067"><ele>668.0</ele><time>2026-04-25T09:44:25.535Z</time></trkpt><trkpt lat="43.60851" lon="12.51382"><ele>672.25</ele><time>2026-04-25T09:44:26.531Z</time></trkpt><trkpt lat="43.6086333" lon="12.5139233"><ele>676.5</ele><time>2026-04-25T09:44:27.533Z</time></trkpt><trkpt lat="43.608745" lon="12.5140317"><ele>680.75</ele><time>2026-04-25T09:44:28.533Z</time></trkpt><trkpt lat="43.6088467" lon="12.5141233"><ele>685.0</ele><time>2026-04-25T09:44:29.533Z</time></trkpt><trkpt lat="43.608925" lon="12.5141917"><ele>685.0</ele><time>2026-04-25T09:44:30.534Z</time></trkpt><trkpt lat="43.6089967" lon="12.51423"><ele>685.0</ele><time>2026-04-25T09:44:31.532Z</time></trkpt><trkpt lat="43.6090717" lon="12.5142383"><ele>685.0</ele><time>2026-04-25T09:44:32.531Z</time></trkpt><trkpt lat="43.6091517" lon="12.514225"><ele>685.0</ele><time>2026-04-25T09:44:33.532Z</time></trkpt><trkpt lat="43.60932" lon="12.514205"><ele>685.0</ele><time>2026-04-25T09:44:35.533Z</time></trkpt><trkpt lat="43.6094167" lon="12.5141883"><ele>684.2</ele><time>2026-04-25T09:44:36.532Z</time></trkpt><trkpt lat="43.6095217" lon="12.51415"><ele>683.4</ele><time>2026-04-25T09:44:37.531Z</time></trkpt><trkpt lat="43.609615" lon="12.5140983"><ele>682.5999999999999</ele><time>2026-04-25T09:44:38.531Z</time></trkpt><trkpt lat="43.6097083" lon="12.5140317"><ele>681.8</ele><time>2026-04-25T09:44:39.531Z</time></trkpt><trkpt lat="43.6098" lon="12.5139533"><ele>681.0</ele><time>2026-04-25T09:44:40.531Z</time></trkpt><trkpt lat="43.60989" lon="12.5138667"><ele>681.0</ele><time>2026-04-25T09:44:41.532Z</time></trkpt><trkpt lat="43.6099783" lon="12.51379"><ele>681.0</ele><time>2026-04-25T09:44:42.532Z</time></trkpt><trkpt lat="43.6100667" lon="12.513735"><ele>681.0</ele><time>2026-04-25T09:44:43.532Z</time></trkpt><trkpt lat="43.610165" lon="12.5136933"><ele>681.0</ele><time>2026-04-25T09:44:44.533Z</time></trkpt><trkpt lat="43.610285" lon="12.5136767"><ele>681.0</ele><time>2026-04-25T09:44:45.531Z</time></trkpt><trkpt lat="43.6104017" lon="12.513685"><ele>681.0</ele><time>2026-04-25T09:44:46.533Z</time></trkpt><trkpt lat="43.6105233" lon="12.5137083"><ele>681.0</ele><time>2026-04-25T09:44:47.533Z</time></trkpt><trkpt lat="43.610645" lon="12.5137417"><ele>681.0</ele><time>2026-04-25T09:44:48.535Z</time></trkpt><trkpt lat="43.610765" lon="12.5137683"><ele>681.0</ele><time>2026-04-25T09:44:49.534Z</time></trkpt><trkpt lat="43.6108783" lon="12.5137933"><ele>681.5</ele><time>2026-04-25T09:44:50.53Z</time></trkpt><trkpt lat="43.610995" lon="12.5138167"><ele>682.0</ele><time>2026-04-25T09:44:51.533Z</time></trkpt><trkpt lat="43.6111217" lon="12.5138367"><ele>682.5</ele><time>2026-04-25T09:44:52.534Z</time></trkpt><trkpt lat="43.6112517" lon="12.5138517"><ele>683.0</ele><time>2026-04-25T09:44:53.534Z</time></trkpt><trkpt lat="43.6113717" lon="12.5138683"><ele>683.0</ele><time>2026-04-25T09:44:54.534Z</time></trkpt><trkpt lat="43.6116183" lon="12.513895"><ele>683.0</ele><time>2026-04-25T09:44:56.533Z</time></trkpt><trkpt lat="43.6117417" lon="12.513925"><ele>683.0</ele><time>2026-04-25T09:44:57.533Z</time></trkpt><trkpt lat="43.6118683" lon="12.5139683"><ele>685.75</ele><time>2026-04-25T09:44:58.531Z</time></trkpt><trkpt lat="43.611995" lon="12.5140133"><ele>688.5</ele><time>2026-04-25T09:44:59.532Z</time></trkpt><trkpt lat="43.6121167" lon="12.5140533"><ele>691.25</ele><time>2026-04-25T09:45:00.534Z</time></trkpt><trkpt lat="43.6122317" lon="12.514095"><ele>694.0</ele><time>2026-04-25T09:45:01.534Z</time></trkpt><trkpt lat="43.6123467" lon="12.514125"><ele>694.0</ele><time>2026-04-25T09:45:02.534Z</time></trkpt><trkpt lat="43.6124617" lon="12.514145"><ele>694.0</ele><time>2026-04-25T09:45:03.534Z</time></trkpt><trkpt lat="43.61258" lon="12.5141567"><ele>694.0</ele><time>2026-04-25T09:45:04.534Z</time></trkpt><trkpt lat="43.6127017" lon="12.514155"><ele>694.0</ele><time>2026-04-25T09:45:05.53Z</time></trkpt><trkpt lat="43.612825" lon="12.5141433"><ele>696.25</ele><time>2026-04-25T09:45:06.534Z</time></trkpt><trkpt lat="43.612955" lon="12.5141433"><ele>698.5</ele><time>2026-04-25T09:45:07.535Z</time></trkpt><trkpt lat="43.6130867" lon="12.5141433"><ele>700.75</ele><time>2026-04-25T09:45:08.534Z</time></trkpt><trkpt lat="43.613215" lon="12.5141483"><ele>703.0</ele><time>2026-04-25T09:45:09.534Z</time></trkpt><trkpt lat="43.613335" lon="12.5141517"><ele>703.0</ele><time>2026-04-25T09:45:10.533Z</time></trkpt><trkpt lat="43.6134517" lon="12.514145"><ele>703.0</ele><time>2026-04-25T09:45:11.53Z</time></trkpt><trkpt lat="43.6135633" lon="12.514135"><ele>703.0</ele><time>2026-04-25T09:45:12.533Z</time></trkpt><trkpt lat="43.6136767" lon="12.5141083"><ele>703.0</ele><time>2026-04-25T09:45:13.535Z</time></trkpt><trkpt lat="43.6137833" lon="12.5140733"><ele>704.75</ele><time>2026-04-25T09:45:14.531Z</time></trkpt><trkpt lat="43.6138917" lon="12.5140267"><ele>706.5</ele><time>2026-04-25T09:45:15.532Z</time></trkpt><trkpt lat="43.61411" lon="12.5139467"><ele>708.25</ele><time>2026-04-25T09:45:17.53Z</time></trkpt><trkpt lat="43.6142183" lon="12.51392"><ele>710.0</ele><time>2026-04-25T09:45:18.531Z</time></trkpt><trkpt lat="43.6143133" lon="12.5139033"><ele>710.0</ele><time>2026-04-25T09:45:19.532Z</time></trkpt><trkpt lat="43.6144" lon="12.5138917"><ele>710.0</ele><time>2026-04-25T09:45:20.534Z</time></trkpt><trkpt lat="43.6144783" lon="12.5138767"><ele>710.0</ele><time>2026-04-25T09:45:21.532Z</time></trkpt><trkpt lat="43.61455" lon="12.5138483"><ele>710.0</ele><time>2026-04-25T09:45:22.531Z</time></trkpt><trkpt lat="43.6146183" lon="12.5138033"><ele>710.0</ele><time>2026-04-25T09:45:23.532Z</time></trkpt><trkpt lat="43.6147117" lon="12.5136883"><ele>710.0</ele><time>2026-04-25T09:45:25.533Z</time></trkpt><trkpt lat="43.6147433" lon="12.513595"><ele>707.0</ele><time>2026-04-25T09:45:26.531Z</time></trkpt><trkpt lat="43.6147567" lon="12.5134933"><ele>704.0</ele><time>2026-04-25T09:45:27.532Z</time></trkpt><trkpt lat="43.6147533" lon="12.5133933"><ele>701.0</ele><time>2026-04-25T09:45:28.532Z</time></trkpt><trkpt lat="43.6147333" lon="12.5132917"><ele>698.0</ele><time>2026-04-25T09:45:29.532Z</time></trkpt><trkpt lat="43.6147183" lon="12.513195"><ele>695.0</ele><time>2026-04-25T09:45:30.534Z</time></trkpt><trkpt lat="43.6147083" lon="12.5131033"><ele>692.0</ele><time>2026-04-25T09:45:31.531Z</time></trkpt><trkpt lat="43.6147" lon="12.513015"><ele>689.0</ele><time>2026-04-25T09:45:32.53Z</time></trkpt><trkpt lat="43.6146833" lon="12.5129233"><ele>685.8333333333333</ele><time>2026-04-25T09:45:33.531Z</time></trkpt><trkpt lat="43.614655" lon="12.5128333"><ele>682.6666666666666</ele><time>2026-04-25T09:45:34.531Z</time></trkpt><trkpt lat="43.6146217" lon="12.51275"><ele>679.5</ele><time>2026-04-25T09:45:35.53Z</time></trkpt><trkpt lat="43.6145917" lon="12.5126633"><ele>676.3333333333334</ele><time>2026-04-25T09:45:36.53Z</time></trkpt><trkpt lat="43.6145517" lon="12.51248"><ele>673.1666666666667</ele><time>2026-04-25T09:45:38.53Z</time></trkpt><trkpt lat="43.6145367" lon="12.5123817"><ele>670.0</ele><time>2026-04-25T09:45:39.532Z</time></trkpt><trkpt lat="43.6145183" lon="12.5122867"><ele>670.0</ele><time>2026-04-25T09:45:40.533Z</time></trkpt><trkpt lat="43.614505" lon="12.512185"><ele>670.0</ele><time>2026-04-25T09:45:41.531Z</time></trkpt><trkpt lat="43.6144817" lon="12.5120817"><ele>670.0</ele><time>2026-04-25T09:45:42.53Z</time></trkpt><trkpt lat="43.6144617" lon="12.511965"><ele>670.0</ele><time>2026-04-25T09:45:43.532Z</time></trkpt><trkpt lat="43.6144333" lon="12.5118417"><ele>670.0</ele><time>2026-04-25T09:45:44.534Z</time></trkpt><trkpt lat="43.6144033" lon="12.5117067"><ele>670.0</ele><time>2026-04-25T09:45:45.532Z</time></trkpt><trkpt lat="43.6143817" lon="12.5115633"><ele>672.2</ele><time>2026-04-25T09:45:46.533Z</time></trkpt><trkpt lat="43.6143633" lon="12.5114133"><ele>674.4</ele><time>2026-04-25T09:45:47.533Z</time></trkpt><trkpt lat="43.6143483" lon="12.5112683"><ele>676.5999999999999</ele><time>2026-04-25T09:45:48.532Z</time></trkpt><trkpt lat="43.61432" lon="12.5111367"><ele>678.8</ele><time>2026-04-25T09:45:49.534Z</time></trkpt><trkpt lat="43.61429" lon="12.5110033"><ele>681.0</ele><time>2026-04-25T09:45:50.532Z</time></trkpt><trkpt lat="43.614265" lon="12.5108717"><ele>681.0</ele><time>2026-04-25T09:45:51.533Z</time></trkpt><trkpt lat="43.6142383" lon="12.510735"><ele>681.0</ele><time>2026-04-25T09:45:52.533Z</time></trkpt><trkpt lat="43.6142117" lon="12.510595"><ele>681.0</ele><time>2026-04-25T09:45:53.534Z</time></trkpt><trkpt lat="43.6141833" lon="12.51045"><ele>681.0</ele><time>2026-04-25T09:45:54.537Z</time></trkpt><trkpt lat="43.6141483" lon="12.510315"><ele>681.0</ele><time>2026-04-25T09:45:55.534Z</time></trkpt><trkpt lat="43.6141217" lon="12.510185"><ele>677.25</ele><time>2026-04-25T09:45:56.53Z</time></trkpt><trkpt lat="43.6140833" lon="12.5100617"><ele>673.5</ele><time>2026-04-25T09:45:57.535Z</time></trkpt><trkpt lat="43.6140083" lon="12.50981"><ele>669.75</ele><time>2026-04-25T09:45:59.532Z</time></trkpt><trkpt lat="43.6139667" lon="12.5096933"><ele>666.0</ele><time>2026-04-25T09:46:00.534Z</time></trkpt><trkpt lat="43.6139283" lon="12.5095733"><ele>664.8333333333334</ele><time>2026-04-25T09:46:01.532Z</time></trkpt><trkpt lat="43.61389" lon="12.50946"><ele>663.6666666666666</ele><time>2026-04-25T09:46:02.532Z</time></trkpt><trkpt lat="43.6138533" lon="12.5093483"><ele>662.5</ele><time>2026-04-25T09:46:03.533Z</time></trkpt><trkpt lat="43.6138167" lon="12.509235"><ele>661.3333333333333</ele><time>2026-04-25T09:46:04.534Z</time></trkpt><trkpt lat="43.6137917" lon="12.5091267"><ele>660.1666666666666</ele><time>2026-04-25T09:46:05.534Z</time></trkpt><trkpt lat="43.6137683" lon="12.509025"><ele>659.0</ele><time>2026-04-25T09:46:06.533Z</time></trkpt><trkpt lat="43.6137667" lon="12.5089283"><ele>659.0</ele><time>2026-04-25T09:46:07.532Z</time></trkpt><trkpt lat="43.6137983" lon="12.5087583"><ele>659.0</ele><time>2026-04-25T09:46:09.533Z</time></trkpt><trkpt lat="43.61381" lon="12.5086583"><ele>659.0</ele><time>2026-04-25T09:46:10.531Z</time></trkpt><trkpt lat="43.6138183" lon="12.5085617"><ele>659.0</ele><time>2026-04-25T09:46:11.534Z</time></trkpt><trkpt lat="43.6138167" lon="12.5084667"><ele>659.0</ele><time>2026-04-25T09:46:12.534Z</time></trkpt><trkpt lat="43.6138133" lon="12.50836"><ele>659.0</ele><time>2026-04-25T09:46:13.531Z</time></trkpt><trkpt lat="43.6138067" lon="12.5082483"><ele>658.4000000000001</ele><time>2026-04-25T09:46:14.534Z</time></trkpt><trkpt lat="43.6138017" lon="12.508145"><ele>657.8</ele><time>2026-04-25T09:46:15.535Z</time></trkpt><trkpt lat="43.6138067" lon="12.5080433"><ele>657.2</ele><time>2026-04-25T09:46:16.532Z</time></trkpt><trkpt lat="43.613815" lon="12.5079483"><ele>656.5999999999999</ele><time>2026-04-25T09:46:17.532Z</time></trkpt><trkpt lat="43.6138317" lon="12.5078617"><ele>656.0</ele><time>2026-04-25T09:46:18.533Z</time></trkpt><trkpt lat="43.6138767" lon="12.50756"><ele>657.5</ele><time>2026-04-25T09:46:22.532Z</time></trkpt><trkpt lat="43.61394" lon="12.5074267"><ele>659.0</ele><time>2026-04-25T09:46:24.532Z</time></trkpt><trkpt lat="43.6139933" lon="12.5073783"><ele>660.5</ele><time>2026-04-25T09:46:25.532Z</time></trkpt><trkpt lat="43.6140567" lon="12.5073383"><ele>662.0</ele><time>2026-04-25T09:46:26.533Z</time></trkpt><trkpt lat="43.6141317" lon="12.50731"><ele>663.5</ele><time>2026-04-25T09:46:27.532Z</time></trkpt><trkpt lat="43.614205" lon="12.5073017"><ele>665.0</ele><time>2026-04-25T09:46:28.533Z</time></trkpt><trkpt lat="43.6142833" lon="12.5073033"><ele>665.0</ele><time>2026-04-25T09:46:29.535Z</time></trkpt><trkpt lat="43.61436" lon="12.5073033"><ele>665.0</ele><time>2026-04-25T09:46:30.535Z</time></trkpt><trkpt lat="43.6144433" lon="12.507315"><ele>665.0</ele><time>2026-04-25T09:46:31.536Z</time></trkpt><trkpt lat="43.614525" lon="12.5073267"><ele>665.0</ele><time>2026-04-25T09:46:32.532Z</time></trkpt><trkpt lat="43.61461" lon="12.50735"><ele>665.0</ele><time>2026-04-25T09:46:33.534Z</time></trkpt><trkpt lat="43.6147033" lon="12.5073717"><ele>665.0</ele><time>2026-04-25T09:46:34.531Z</time></trkpt><trkpt lat="43.6147883" lon="12.5073883"><ele>662.8333333333333</ele><time>2026-04-25T09:46:35.53Z</time></trkpt><trkpt lat="43.6148683" lon="12.507415"><ele>660.6666666666666</ele><time>2026-04-25T09:46:36.531Z</time></trkpt><trkpt lat="43.6149433" lon="12.50743"><ele>658.5</ele><time>2026-04-25T09:46:37.531Z</time></trkpt><trkpt lat="43.6150267" lon="12.5074283"><ele>656.3333333333334</ele><time>2026-04-25T09:46:38.532Z</time></trkpt><trkpt lat="43.615095" lon="12.50743"><ele>654.1666666666667</ele><time>2026-04-25T09:46:39.531Z</time></trkpt><trkpt lat="43.6152267" lon="12.5073733"><ele>652.0</ele><time>2026-04-25T09:46:41.533Z</time></trkpt><trkpt lat="43.6152733" lon="12.50731"><ele>652.0</ele><time>2026-04-25T09:46:42.536Z</time></trkpt><trkpt lat="43.6153017" lon="12.50723"><ele>652.0</ele><time>2026-04-25T09:46:43.534Z</time></trkpt><trkpt lat="43.61533" lon="12.507055"><ele>652.0</ele><time>2026-04-25T09:46:45.534Z</time></trkpt><trkpt lat="43.61535" lon="12.5069617"><ele>652.0</ele><time>2026-04-25T09:46:46.532Z</time></trkpt><trkpt lat="43.6153717" lon="12.5068733"><ele>652.0</ele><time>2026-04-25T09:46:47.532Z</time></trkpt><trkpt lat="43.6154233" lon="12.5067333"><ele>652.0</ele><time>2026-04-25T09:46:49.533Z</time></trkpt><trkpt lat="43.61549" lon="12.506785"><ele>654.6</ele><time>2026-04-25T09:46:52.534Z</time></trkpt><trkpt lat="43.6154717" lon="12.50692"><ele>657.2</ele><time>2026-04-25T09:46:54.532Z</time></trkpt><trkpt lat="43.61545" lon="12.5070167"><ele>659.8</ele><time>2026-04-25T09:46:55.532Z</time></trkpt><trkpt lat="43.61542" lon="12.507155"><ele>662.4</ele><time>2026-04-25T09:46:56.535Z</time></trkpt><trkpt lat="43.6154183" lon="12.5072783"><ele>665.0</ele><time>2026-04-25T09:46:57.534Z</time></trkpt><trkpt lat="43.6154117" lon="12.5074067"><ele>661.75</ele><time>2026-04-25T09:46:58.534Z</time></trkpt><trkpt lat="43.6154217" lon="12.507525"><ele>658.5</ele><time>2026-04-25T09:46:59.53Z</time></trkpt><trkpt lat="43.6154283" lon="12.5076283"><ele>655.25</ele><time>2026-04-25T09:47:00.534Z</time></trkpt><trkpt lat="43.61534" lon="12.5078517"><ele>652.0</ele><time>2026-04-25T09:47:04.532Z</time></trkpt><trkpt lat="43.6152167" lon="12.5078667"><ele>652.0</ele><time>2026-04-25T09:47:06.536Z</time></trkpt><trkpt lat="43.6151417" lon="12.507855"><ele>652.0</ele><time>2026-04-25T09:47:07.531Z</time></trkpt><trkpt lat="43.6150617" lon="12.5078367"><ele>652.0</ele><time>2026-04-25T09:47:08.531Z</time></trkpt><trkpt lat="43.614975" lon="12.5078183"><ele>652.0</ele><time>2026-04-25T09:47:09.534Z</time></trkpt><trkpt lat="43.6148867" lon="12.507795"><ele>652.0</ele><time>2026-04-25T09:47:10.533Z</time></trkpt><trkpt lat="43.6147983" lon="12.5077767"><ele>652.0</ele><time>2026-04-25T09:47:11.532Z</time></trkpt><trkpt lat="43.6147167" lon="12.5077617"><ele>652.0</ele><time>2026-04-25T09:47:12.534Z</time></trkpt><trkpt lat="43.6146433" lon="12.507755"><ele>652.0</ele><time>2026-04-25T09:47:13.535Z</time></trkpt><trkpt lat="43.6145383" lon="12.5077733"><ele>652.0</ele><time>2026-04-25T09:47:15.534Z</time></trkpt><trkpt lat="43.6144917" lon="12.5078383"><ele>652.0</ele><time>2026-04-25T09:47:17.531Z</time></trkpt><trkpt lat="43.6144867" lon="12.507965"><ele>652.0</ele><time>2026-04-25T09:47:19.534Z</time></trkpt><trkpt lat="43.6144983" lon="12.5080567"><ele>652.0</ele><time>2026-04-25T09:47:20.531Z</time></trkpt><trkpt lat="43.614525" lon="12.5081683"><ele>646.4</ele><time>2026-04-25T09:47:21.531Z</time></trkpt><trkpt lat="43.6145817" lon="12.5083933"><ele>640.8000000000001</ele><time>2026-04-25T09:47:23.532Z</time></trkpt><trkpt lat="43.6145967" lon="12.50848"><ele>635.2</ele><time>2026-04-25T09:47:24.532Z</time></trkpt><trkpt lat="43.6146" lon="12.508635"><ele>629.6</ele><time>2026-04-25T09:47:26.531Z</time></trkpt><trkpt lat="43.6145717" lon="12.50873"><ele>624.0</ele><time>2026-04-25T09:47:28.532Z</time></trkpt><trkpt lat="43.614495" lon="12.5087983"><ele>621.0</ele><time>2026-04-25T09:47:30.531Z</time></trkpt><trkpt lat="43.6144667" lon="12.5088933"><ele>618.0</ele><time>2026-04-25T09:47:32.531Z</time></trkpt><trkpt lat="43.6144883" lon="12.5090367"><ele>615.0</ele><time>2026-04-25T09:47:34.536Z</time></trkpt><trkpt lat="43.6145483" lon="12.5091817"><ele>612.0</ele><time>2026-04-25T09:47:36.532Z</time></trkpt><trkpt lat="43.614615" lon="12.5093233"><ele>609.0</ele><time>2026-04-25T09:47:38.53Z</time></trkpt><trkpt lat="43.6146683" lon="12.509415"><ele>609.0</ele><time>2026-04-25T09:47:39.535Z</time></trkpt><trkpt lat="43.6147117" lon="12.5095267"><ele>609.0</ele><time>2026-04-25T09:47:40.534Z</time></trkpt><trkpt lat="43.61476" lon="12.5096433"><ele>609.0</ele><time>2026-04-25T09:47:41.532Z</time></trkpt><trkpt lat="43.6148033" lon="12.5097683"><ele>609.0</ele><time>2026-04-25T09:47:42.533Z</time></trkpt><trkpt lat="43.6149133" lon="12.50998"><ele>610.6666666666666</ele><time>2026-04-25T09:47:44.533Z</time></trkpt><trkpt lat="43.6149667" lon="12.5100783"><ele>612.3333333333334</ele><time>2026-04-25T09:47:45.533Z</time></trkpt><trkpt lat="43.615015" lon="12.51017"><ele>614.0</ele><time>2026-04-25T09:47:46.536Z</time></trkpt><trkpt lat="43.6150717" lon="12.5102633"><ele>615.6666666666667</ele><time>2026-04-25T09:47:47.535Z</time></trkpt><trkpt lat="43.61513" lon="12.5103533"><ele>617.3333333333334</ele><time>2026-04-25T09:47:48.536Z</time></trkpt><trkpt lat="43.615185" lon="12.5104433"><ele>619.0</ele><time>2026-04-25T09:47:49.534Z</time></trkpt><trkpt lat="43.615245" lon="12.510525"><ele>622.0</ele><time>2026-04-25T09:47:50.534Z</time></trkpt><trkpt lat="43.6152983" lon="12.51061"><ele>625.0</ele><time>2026-04-25T09:47:51.533Z</time></trkpt><trkpt lat="43.61535" lon="12.51069"><ele>628.0</ele><time>2026-04-25T09:47:52.535Z</time></trkpt><trkpt lat="43.615405" lon="12.510765"><ele>631.0</ele><time>2026-04-25T09:47:53.533Z</time></trkpt><trkpt lat="43.6154567" lon="12.5108467"><ele>634.0</ele><time>2026-04-25T09:47:54.533Z</time></trkpt><trkpt lat="43.6155117" lon="12.5109267"><ele>637.0</ele><time>2026-04-25T09:47:55.534Z</time></trkpt><trkpt lat="43.6155667" lon="12.51101"><ele>630.3333333333334</ele><time>2026-04-25T09:47:56.534Z</time></trkpt><trkpt lat="43.6156183" lon="12.5110933"><ele>623.6666666666667</ele><time>2026-04-25T09:47:57.535Z</time></trkpt><trkpt lat="43.615665" lon="12.51118"><ele>617.0</ele><time>2026-04-25T09:47:58.534Z</time></trkpt><trkpt lat="43.615705" lon="12.5112683"><ele>610.3333333333334</ele><time>2026-04-25T09:47:59.533Z</time></trkpt><trkpt lat="43.6157367" lon="12.5113533"><ele>603.6666666666666</ele><time>2026-04-25T09:48:00.535Z</time></trkpt><trkpt lat="43.615755" lon="12.511485"><ele>597.0</ele><time>2026-04-25T09:48:02.534Z</time></trkpt><trkpt lat="43.6157367" lon="12.511585"><ele>597.0</ele><time>2026-04-25T09:48:04.533Z</time></trkpt><trkpt lat="43.61574" lon="12.5118417"><ele>597.0</ele><time>2026-04-25T09:48:08.533Z</time></trkpt><trkpt lat="43.6157867" lon="12.5119583"><ele>597.0</ele><time>2026-04-25T09:48:10.534Z</time></trkpt><trkpt lat="43.6158467" lon="12.512065"><ele>597.0</ele><time>2026-04-25T09:48:12.534Z</time></trkpt><trkpt lat="43.615885" lon="12.5121367"><ele>597.0</ele><time>2026-04-25T09:48:13.534Z</time></trkpt><trkpt lat="43.615925" lon="12.512235"><ele>600.2</ele><time>2026-04-25T09:48:14.533Z</time></trkpt><trkpt lat="43.6159867" lon="12.5123567"><ele>603.4000000000001</ele><time>2026-04-25T09:48:15.534Z</time></trkpt><trkpt lat="43.6160333" lon="12.5124783"><ele>606.5999999999999</ele><time>2026-04-25T09:48:16.534Z</time></trkpt><trkpt lat="43.6160817" lon="12.5126083"><ele>609.8</ele><time>2026-04-25T09:48:17.534Z</time></trkpt><trkpt lat="43.6161383" lon="12.5127283"><ele>613.0</ele><time>2026-04-25T09:48:18.533Z</time></trkpt><trkpt lat="43.6161983" lon="12.5128433"><ele>607.5</ele><time>2026-04-25T09:48:19.533Z</time></trkpt><trkpt lat="43.6162533" lon="12.5129517"><ele>602.0</ele><time>2026-04-25T09:48:20.532Z</time></trkpt><trkpt lat="43.6163" lon="12.5130467"><ele>596.5</ele><time>2026-04-25T09:48:21.533Z</time></trkpt><trkpt lat="43.6163417" lon="12.51314"><ele>591.0</ele><time>2026-04-25T09:48:22.532Z</time></trkpt><trkpt lat="43.6163833" lon="12.5132233"><ele>585.5</ele><time>2026-04-25T09:48:23.532Z</time></trkpt><trkpt lat="43.61643" lon="12.5133"><ele>580.0</ele><time>2026-04-25T09:48:24.534Z</time></trkpt><trkpt lat="43.616465" lon="12.5133833"><ele>580.0</ele><time>2026-04-25T09:48:25.534Z</time></trkpt><trkpt lat="43.6165383" lon="12.51362"><ele>580.0</ele><time>2026-04-25T09:48:28.533Z</time></trkpt><trkpt lat="43.6166017" lon="12.513735"><ele>580.0</ele><time>2026-04-25T09:48:30.533Z</time></trkpt><trkpt lat="43.616675" lon="12.5138533"><ele>580.0</ele><time>2026-04-25T09:48:32.533Z</time></trkpt><trkpt lat="43.6167267" lon="12.51393"><ele>583.5</ele><time>2026-04-25T09:48:33.534Z</time></trkpt><trkpt lat="43.61678" lon="12.5140133"><ele>587.0</ele><time>2026-04-25T09:48:34.535Z</time></trkpt><trkpt lat="43.6168383" lon="12.514105"><ele>590.5</ele><time>2026-04-25T09:48:35.533Z</time></trkpt><trkpt lat="43.6169" lon="12.5142"><ele>594.0</ele><time>2026-04-25T09:48:36.533Z</time></trkpt><trkpt lat="43.6169567" lon="12.5142983"><ele>597.5</ele><time>2026-04-25T09:48:37.534Z</time></trkpt><trkpt lat="43.6170183" lon="12.5144017"><ele>601.0</ele><time>2026-04-25T09:48:38.533Z</time></trkpt><trkpt lat="43.61709" lon="12.514505"><ele>595.2</ele><time>2026-04-25T09:48:39.534Z</time></trkpt><trkpt lat="43.617155" lon="12.51461"><ele>589.4000000000001</ele><time>2026-04-25T09:48:40.535Z</time></trkpt><trkpt lat="43.6172267" lon="12.5147083"><ele>583.6</ele><time>2026-04-25T09:48:41.533Z</time></trkpt><trkpt lat="43.6172883" lon="12.514815"><ele>577.8000000000001</ele><time>2026-04-25T09:48:42.535Z</time></trkpt><trkpt lat="43.6173517" lon="12.5149233"><ele>572.0</ele><time>2026-04-25T09:48:43.534Z</time></trkpt><trkpt lat="43.61742" lon="12.515035"><ele>572.0</ele><time>2026-04-25T09:48:44.533Z</time></trkpt><trkpt lat="43.6175017" lon="12.5151317"><ele>572.0</ele><time>2026-04-25T09:48:45.534Z</time></trkpt><trkpt lat="43.61757" lon="12.5152367"><ele>572.0</ele><time>2026-04-25T09:48:46.534Z</time></trkpt><trkpt lat="43.617695" lon="12.5154517"><ele>572.0</ele><time>2026-04-25T09:48:48.535Z</time></trkpt><trkpt lat="43.617765" lon="12.5155517"><ele>565.5</ele><time>2026-04-25T09:48:49.534Z</time></trkpt><trkpt lat="43.6178217" lon="12.5156517"><ele>559.0</ele><time>2026-04-25T09:48:50.534Z</time></trkpt><trkpt lat="43.6178667" lon="12.515745"><ele>552.5</ele><time>2026-04-25T09:48:51.533Z</time></trkpt><trkpt lat="43.6179067" lon="12.51583"><ele>546.0</ele><time>2026-04-25T09:48:52.534Z</time></trkpt><trkpt lat="43.6179283" lon="12.51592"><ele>539.5</ele><time>2026-04-25T09:48:53.532Z</time></trkpt><trkpt lat="43.6179767" lon="12.51608"><ele>533.0</ele><time>2026-04-25T09:48:55.534Z</time></trkpt><trkpt lat="43.61799" lon="12.51617"><ele>535.3333333333333</ele><time>2026-04-25T09:48:56.535Z</time></trkpt><trkpt lat="43.618045" lon="12.516255"><ele>537.6666666666666</ele><time>2026-04-25T09:48:57.534Z</time></trkpt><trkpt lat="43.6181117" lon="12.5163467"><ele>540.0</ele><time>2026-04-25T09:48:58.535Z</time></trkpt><trkpt lat="43.6181817" lon="12.5164383"><ele>542.3333333333334</ele><time>2026-04-25T09:48:59.531Z</time></trkpt><trkpt lat="43.6182283" lon="12.5165417"><ele>544.6666666666667</ele><time>2026-04-25T09:49:00.535Z</time></trkpt><trkpt lat="43.6182683" lon="12.51665"><ele>547.0</ele><time>2026-04-25T09:49:01.533Z</time></trkpt><trkpt lat="43.6183083" lon="12.5167633"><ele>547.0</ele><time>2026-04-25T09:49:02.533Z</time></trkpt><trkpt lat="43.6183433" lon="12.5168733"><ele>547.0</ele><time>2026-04-25T09:49:03.533Z</time></trkpt><trkpt lat="43.618375" lon="12.5169783"><ele>547.0</ele><time>2026-04-25T09:49:04.533Z</time></trkpt><trkpt lat="43.6184017" lon="12.5170817"><ele>547.0</ele><time>2026-04-25T09:49:05.532Z</time></trkpt><trkpt lat="43.6184183" lon="12.5171817"><ele>547.0</ele><time>2026-04-25T09:49:06.533Z</time></trkpt><trkpt lat="43.61843" lon="12.5172683"><ele>547.0</ele><time>2026-04-25T09:49:07.533Z</time></trkpt><trkpt lat="43.6183533" lon="12.5174517"><ele>544.6</ele><time>2026-04-25T09:49:11.532Z</time></trkpt><trkpt lat="43.618205" lon="12.5174333"><ele>542.2</ele><time>2026-04-25T09:49:13.533Z</time></trkpt><trkpt lat="43.61812" lon="12.51741"><ele>539.8</ele><time>2026-04-25T09:49:14.534Z</time></trkpt><trkpt lat="43.618035" lon="12.5173933"><ele>537.4</ele><time>2026-04-25T09:49:15.534Z</time></trkpt><trkpt lat="43.61796" lon="12.51739"><ele>535.0</ele><time>2026-04-25T09:49:16.533Z</time></trkpt><trkpt lat="43.6178783" lon="12.5173767"><ele>536.6666666666667</ele><time>2026-04-25T09:49:17.532Z</time></trkpt><trkpt lat="43.6177983" lon="12.5173583"><ele>538.3333333333334</ele><time>2026-04-25T09:49:18.535Z</time></trkpt><trkpt lat="43.6177283" lon="12.517335"><ele>540.0</ele><time>2026-04-25T09:49:19.534Z</time></trkpt><trkpt lat="43.6176633" lon="12.5173183"><ele>541.6666666666666</ele><time>2026-04-25T09:49:20.533Z</time></trkpt><trkpt lat="43.617565" lon="12.5173383"><ele>543.3333333333333</ele><time>2026-04-25T09:49:22.534Z</time></trkpt><trkpt lat="43.6174783" lon="12.5174483"><ele>545.0</ele><time>2026-04-25T09:49:24.534Z</time></trkpt><trkpt lat="43.6174233" lon="12.5175133"><ele>545.0</ele><time>2026-04-25T09:49:25.532Z</time></trkpt><trkpt lat="43.6173667" lon="12.5175833"><ele>545.0</ele><time>2026-04-25T09:49:26.535Z</time></trkpt><trkpt lat="43.6173167" lon="12.5176567"><ele>545.0</ele><time>2026-04-25T09:49:27.535Z</time></trkpt><trkpt lat="43.617285" lon="12.51775"><ele>545.0</ele><time>2026-04-25T09:49:28.534Z</time></trkpt><trkpt lat="43.6172533" lon="12.5179717"><ele>545.0</ele><time>2026-04-25T09:49:30.535Z</time></trkpt><trkpt lat="43.61724" lon="12.5180667"><ele>539.6666666666666</ele><time>2026-04-25T09:49:31.535Z</time></trkpt><trkpt lat="43.6172267" lon="12.5181567"><ele>534.3333333333333</ele><time>2026-04-25T09:49:32.534Z</time></trkpt><trkpt lat="43.6172167" lon="12.5182867"><ele>529.0</ele><time>2026-04-25T09:49:34.534Z</time></trkpt><trkpt lat="43.6172967" lon="12.5182783"><ele>523.6666666666666</ele><time>2026-04-25T09:49:38.536Z</time></trkpt><trkpt lat="43.6173333" lon="12.5181383"><ele>518.3333333333334</ele><time>2026-04-25T09:49:40.535Z</time></trkpt><trkpt lat="43.6173383" lon="12.5180317"><ele>513.0</ele><time>2026-04-25T09:49:41.536Z</time></trkpt><trkpt lat="43.6173517" lon="12.5179267"><ele>518.3333333333334</ele><time>2026-04-25T09:49:42.534Z</time></trkpt><trkpt lat="43.6173767" lon="12.5178383"><ele>523.6666666666666</ele><time>2026-04-25T09:49:43.533Z</time></trkpt><trkpt lat="43.6174183" lon="12.51777"><ele>529.0</ele><time>2026-04-25T09:49:44.535Z</time></trkpt><trkpt lat="43.617475" lon="12.517715"><ele>534.3333333333333</ele><time>2026-04-25T09:49:45.535Z</time></trkpt><trkpt lat="43.6175383" lon="12.5176683"><ele>539.6666666666666</ele><time>2026-04-25T09:49:46.534Z</time></trkpt><trkpt lat="43.6175983" lon="12.5176317"><ele>545.0</ele><time>2026-04-25T09:49:47.535Z</time></trkpt><trkpt lat="43.6177133" lon="12.517625"><ele>543.0</ele><time>2026-04-25T09:49:49.535Z</time></trkpt><trkpt lat="43.6178483" lon="12.51772"><ele>541.0</ele><time>2026-04-25T09:49:51.535Z</time></trkpt><trkpt lat="43.617935" lon="12.517775"><ele>539.0</ele><time>2026-04-25T09:49:52.535Z</time></trkpt><trkpt lat="43.6180217" lon="12.5178283"><ele>537.0</ele><time>2026-04-25T09:49:53.531Z</time></trkpt><trkpt lat="43.618105" lon="12.5178917"><ele>535.0</ele><time>2026-04-25T09:49:54.533Z</time></trkpt><trkpt lat="43.6181783" lon="12.5179517"><ele>529.6666666666667</ele><time>2026-04-25T09:49:55.534Z</time></trkpt><trkpt lat="43.6182467" lon="12.518015"><ele>524.3333333333334</ele><time>2026-04-25T09:49:56.532Z</time></trkpt><trkpt lat="43.6183133" lon="12.5180767"><ele>519.0</ele><time>2026-04-25T09:49:57.533Z</time></trkpt><trkpt lat="43.6183817" lon="12.5181267"><ele>513.6666666666666</ele><time>2026-04-25T09:49:58.532Z</time></trkpt><trkpt lat="43.618455" lon="12.5181683"><ele>508.3333333333333</ele><time>2026-04-25T09:49:59.533Z</time></trkpt><trkpt lat="43.6185333" lon="12.5182033"><ele>503.0</ele><time>2026-04-25T09:50:00.534Z</time></trkpt><trkpt lat="43.6186117" lon="12.5182383"><ele>501.49999999999994</ele><time>2026-04-25T09:50:01.535Z</time></trkpt><trkpt lat="43.6186933" lon="12.518275"><ele>500.0</ele><time>2026-04-25T09:50:02.534Z</time></trkpt><trkpt lat="43.6187733" lon="12.5183183"><ele>498.5</ele><time>2026-04-25T09:50:03.534Z</time></trkpt><trkpt lat="43.6188517" lon="12.5183767"><ele>497.0</ele><time>2026-04-25T09:50:04.535Z</time></trkpt><trkpt lat="43.61892" lon="12.51845"><ele>495.49999999999994</ele><time>2026-04-25T09:50:05.534Z</time></trkpt><trkpt lat="43.6189783" lon="12.518515"><ele>494.0</ele><time>2026-04-25T09:50:06.534Z</time></trkpt><trkpt lat="43.6190317" lon="12.5185767"><ele>494.0</ele><time>2026-04-25T09:50:07.535Z</time></trkpt><trkpt lat="43.619085" lon="12.51863"><ele>494.0</ele><time>2026-04-25T09:50:08.534Z</time></trkpt><trkpt lat="43.6191883" lon="12.5186683"><ele>494.0</ele><time>2026-04-25T09:50:10.531Z</time></trkpt><trkpt lat="43.6193133" lon="12.5185317"><ele>494.0</ele><time>2026-04-25T09:50:14.532Z</time></trkpt><trkpt lat="43.6193367" lon="12.518365"><ele>493.99999999999994</ele><time>2026-04-25T09:50:16.532Z</time></trkpt><trkpt lat="43.61935" lon="12.5182567"><ele>494.0</ele><time>2026-04-25T09:50:17.534Z</time></trkpt><trkpt lat="43.6193633" lon="12.51814"><ele>494.0</ele><time>2026-04-25T09:50:18.534Z</time></trkpt><trkpt lat="43.61937" lon="12.5180267"><ele>494.0</ele><time>2026-04-25T09:50:19.532Z</time></trkpt><trkpt lat="43.6193717" lon="12.5179183"><ele>493.99999999999994</ele><time>2026-04-25T09:50:20.536Z</time></trkpt><trkpt lat="43.6193717" lon="12.517815"><ele>494.0</ele><time>2026-04-25T09:50:21.533Z</time></trkpt><trkpt lat="43.619365" lon="12.5177217"><ele>494.14285714285717</ele><time>2026-04-25T09:50:22.536Z</time></trkpt><trkpt lat="43.6193533" lon="12.5176333"><ele>494.2857142857142</ele><time>2026-04-25T09:50:23.534Z</time></trkpt><trkpt lat="43.6193417" lon="12.517535"><ele>494.4285714285714</ele><time>2026-04-25T09:50:24.535Z</time></trkpt><trkpt lat="43.6193333" lon="12.51743"><ele>494.57142857142856</ele><time>2026-04-25T09:50:25.534Z</time></trkpt><trkpt lat="43.6193217" lon="12.5173283"><ele>494.71428571428567</ele><time>2026-04-25T09:50:26.531Z</time></trkpt><trkpt lat="43.6193083" lon="12.51724"><ele>494.8571428571428</ele><time>2026-04-25T09:50:27.532Z</time></trkpt><trkpt lat="43.619295" lon="12.51711"><ele>494.99999999999994</ele><time>2026-04-25T09:50:29.531Z</time></trkpt><trkpt lat="43.6193633" lon="12.5171517"><ele>495.0</ele><time>2026-04-25T09:50:33.531Z</time></trkpt><trkpt lat="43.6194633" lon="12.5174517"><ele>495.0</ele><time>2026-04-25T09:50:37.531Z</time></trkpt><trkpt lat="43.619495" lon="12.51753"><ele>495.0</ele><time>2026-04-25T09:50:38.531Z</time></trkpt><trkpt lat="43.61953" lon="12.517615"><ele>495.0</ele><time>2026-04-25T09:50:39.531Z</time></trkpt><trkpt lat="43.619565" lon="12.5177117"><ele>488.0</ele><time>2026-04-25T09:50:40.532Z</time></trkpt><trkpt lat="43.6195983" lon="12.5178117"><ele>481.0</ele><time>2026-04-25T09:50:41.533Z</time></trkpt><trkpt lat="43.61963" lon="12.5179183"><ele>474.0</ele><time>2026-04-25T09:50:42.532Z</time></trkpt><trkpt lat="43.6196583" lon="12.5180233"><ele>467.0</ele><time>2026-04-25T09:50:43.532Z</time></trkpt><trkpt lat="43.6196817" lon="12.51812"><ele>460.0</ele><time>2026-04-25T09:50:44.531Z</time></trkpt><trkpt lat="43.619705" lon="12.5182167"><ele>453.0</ele><time>2026-04-25T09:50:45.531Z</time></trkpt><trkpt lat="43.6197383" lon="12.5183083"><ele>452.0</ele><time>2026-04-25T09:50:46.531Z</time></trkpt><trkpt lat="43.6197817" lon="12.5184"><ele>451.0</ele><time>2026-04-25T09:50:47.531Z</time></trkpt><trkpt lat="43.6198333" lon="12.518485"><ele>450.0</ele><time>2026-04-25T09:50:48.532Z</time></trkpt><trkpt lat="43.6198867" lon="12.5185717"><ele>449.0</ele><time>2026-04-25T09:50:49.531Z</time></trkpt><trkpt lat="43.619935" lon="12.5186667"><ele>448.0</ele><time>2026-04-25T09:50:50.532Z</time></trkpt><trkpt lat="43.6199867" lon="12.518755"><ele>447.0</ele><time>2026-04-25T09:50:51.531Z</time></trkpt><trkpt lat="43.6200333" lon="12.5188417"><ele>447.0</ele><time>2026-04-25T09:50:52.535Z</time></trkpt><trkpt lat="43.6200617" lon="12.51899"><ele>447.00000000000006</ele><time>2026-04-25T09:50:54.536Z</time></trkpt><trkpt lat="43.6200733" lon="12.5191783"><ele>447.00000000000006</ele><time>2026-04-25T09:50:56.536Z</time></trkpt><trkpt lat="43.6200767" lon="12.5192883"><ele>447.0</ele><time>2026-04-25T09:50:57.534Z</time></trkpt><trkpt lat="43.6200867" lon="12.5193933"><ele>447.0</ele><time>2026-04-25T09:50:58.535Z</time></trkpt><trkpt lat="43.62009" lon="12.5194867"><ele>447.0</ele><time>2026-04-25T09:50:59.532Z</time></trkpt><trkpt lat="43.62011" lon="12.51962"><ele>447.0</ele><time>2026-04-25T09:51:01.534Z</time></trkpt><trkpt lat="43.6201617" lon="12.5196783"><ele>447.0</ele><time>2026-04-25T09:51:03.534Z</time></trkpt><trkpt lat="43.620225" lon="12.51963"><ele>447.0</ele><time>2026-04-25T09:51:05.534Z</time></trkpt><trkpt lat="43.6202883" lon="12.51954"><ele>447.0</ele><time>2026-04-25T09:51:07.535Z</time></trkpt><trkpt lat="43.6203667" lon="12.51956"><ele>447.0</ele><time>2026-04-25T09:51:09.535Z</time></trkpt><trkpt lat="43.62045" lon="12.519665"><ele>446.25</ele><time>2026-04-25T09:51:11.535Z</time></trkpt><trkpt lat="43.6205267" lon="12.5197917"><ele>445.5</ele><time>2026-04-25T09:51:13.534Z</time></trkpt><trkpt lat="43.620575" lon="12.5199383"><ele>444.75</ele><time>2026-04-25T09:51:15.534Z</time></trkpt><trkpt lat="43.6206883" lon="12.520175"><ele>444.0</ele><time>2026-04-25T09:51:19.531Z</time></trkpt><trkpt lat="43.62074" lon="12.5202683"><ele>444.0</ele><time>2026-04-25T09:51:21.531Z</time></trkpt><trkpt lat="43.6207783" lon="12.52035"><ele>444.0</ele><time>2026-04-25T09:51:23.531Z</time></trkpt><trkpt lat="43.62082" lon="12.5204417"><ele>444.0</ele><time>2026-04-25T09:51:26.531Z</time></trkpt><trkpt lat="43.6208833" lon="12.5205483"><ele>444.0</ele><time>2026-04-25T09:51:30.531Z</time></trkpt><trkpt lat="43.62097" lon="12.520695"><ele>444.0</ele><time>2026-04-25T09:51:32.535Z</time></trkpt><trkpt lat="43.62102" lon="12.5207917"><ele>441.79999999999995</ele><time>2026-04-25T09:51:33.533Z</time></trkpt><trkpt lat="43.621065" lon="12.5208967"><ele>439.59999999999997</ele><time>2026-04-25T09:51:34.536Z</time></trkpt><trkpt lat="43.6211017" lon="12.521"><ele>437.4</ele><time>2026-04-25T09:51:35.536Z</time></trkpt><trkpt lat="43.6211417" lon="12.5210917"><ele>435.2</ele><time>2026-04-25T09:51:36.532Z</time></trkpt><trkpt lat="43.6212333" lon="12.5212733"><ele>433.0</ele><time>2026-04-25T09:51:38.531Z</time></trkpt><trkpt lat="43.6212833" lon="12.5213633"><ele>432.33333333333337</ele><time>2026-04-25T09:51:39.531Z</time></trkpt><trkpt lat="43.6213333" lon="12.52145"><ele>431.6666666666667</ele><time>2026-04-25T09:51:40.532Z</time></trkpt><trkpt lat="43.6213783" lon="12.5215333"><ele>431.0</ele><time>2026-04-25T09:51:41.531Z</time></trkpt><trkpt lat="43.6214233" lon="12.5216117"><ele>430.33333333333337</ele><time>2026-04-25T09:51:42.535Z</time></trkpt><trkpt lat="43.6214717" lon="12.5216933"><ele>429.6666666666667</ele><time>2026-04-25T09:51:43.532Z</time></trkpt><trkpt lat="43.6215283" lon="12.5217783"><ele>429.0</ele><time>2026-04-25T09:51:44.531Z</time></trkpt><trkpt lat="43.6215883" lon="12.5218583"><ele>429.0</ele><time>2026-04-25T09:51:45.535Z</time></trkpt><trkpt lat="43.6216467" lon="12.5219333"><ele>429.0</ele><time>2026-04-25T09:51:46.535Z</time></trkpt><trkpt lat="43.6216917" lon="12.5220167"><ele>429.0</ele><time>2026-04-25T09:51:47.531Z</time></trkpt><trkpt lat="43.6217217" lon="12.5221133"><ele>429.0</ele><time>2026-04-25T09:51:48.534Z</time></trkpt><trkpt lat="43.62174" lon="12.5222183"><ele>429.0</ele><time>2026-04-25T09:51:49.534Z</time></trkpt><trkpt lat="43.6217583" lon="12.5223217"><ele>429.0</ele><time>2026-04-25T09:51:50.534Z</time></trkpt><trkpt lat="43.621785" lon="12.5224217"><ele>427.6666666666667</ele><time>2026-04-25T09:51:51.532Z</time></trkpt><trkpt lat="43.6218217" lon="12.52252"><ele>426.33333333333337</ele><time>2026-04-25T09:51:52.533Z</time></trkpt><trkpt lat="43.6218667" lon="12.5226217"><ele>425.0</ele><time>2026-04-25T09:51:53.532Z</time></trkpt><trkpt lat="43.621915" lon="12.5227267"><ele>423.6666666666667</ele><time>2026-04-25T09:51:54.534Z</time></trkpt><trkpt lat="43.6219633" lon="12.5228283"><ele>422.33333333333337</ele><time>2026-04-25T09:51:55.533Z</time></trkpt><trkpt lat="43.6220133" lon="12.5229233"><ele>421.0</ele><time>2026-04-25T09:51:56.533Z</time></trkpt><trkpt lat="43.6220633" lon="12.5230133"><ele>419.0</ele><time>2026-04-25T09:51:57.533Z</time></trkpt><trkpt lat="43.62218" lon="12.5231567"><ele>417.0</ele><time>2026-04-25T09:51:59.533Z</time></trkpt><trkpt lat="43.6222567" lon="12.5232083"><ele>415.0</ele><time>2026-04-25T09:52:00.536Z</time></trkpt><trkpt lat="43.6223467" lon="12.5232367"><ele>413.0</ele><time>2026-04-25T09:52:01.534Z</time></trkpt><trkpt lat="43.6224467" lon="12.5232467"><ele>411.0</ele><time>2026-04-25T09:52:02.533Z</time></trkpt><trkpt lat="43.62255" lon="12.5232417"><ele>411.0</ele><time>2026-04-25T09:52:03.534Z</time></trkpt><trkpt lat="43.62266" lon="12.52323"><ele>411.0</ele><time>2026-04-25T09:52:04.533Z</time></trkpt><trkpt lat="43.6227767" lon="12.52322"><ele>411.0</ele><time>2026-04-25T09:52:05.533Z</time></trkpt><trkpt lat="43.6228967" lon="12.5232183"><ele>411.0</ele><time>2026-04-25T09:52:06.534Z</time></trkpt><trkpt lat="43.6230117" lon="12.5232233"><ele>412.0</ele><time>2026-04-25T09:52:07.534Z</time></trkpt><trkpt lat="43.623135" lon="12.5232317"><ele>413.0</ele><time>2026-04-25T09:52:08.531Z</time></trkpt><trkpt lat="43.62325" lon="12.523245"><ele>414.0</ele><time>2026-04-25T09:52:09.534Z</time></trkpt><trkpt lat="43.6233483" lon="12.52326"><ele>415.0</ele><time>2026-04-25T09:52:10.534Z</time></trkpt><trkpt lat="43.6234433" lon="12.52328"><ele>416.0</ele><time>2026-04-25T09:52:11.531Z</time></trkpt><trkpt lat="43.6235333" lon="12.5233083"><ele>416.0</ele><time>2026-04-25T09:52:12.534Z</time></trkpt><trkpt lat="43.623615" lon="12.5233567"><ele>416.0</ele><time>2026-04-25T09:52:13.535Z</time></trkpt><trkpt lat="43.623695" lon="12.52343"><ele>416.0</ele><time>2026-04-25T09:52:14.53Z</time></trkpt><trkpt lat="43.6237733" lon="12.523525"><ele>416.0</ele><time>2026-04-25T09:52:15.532Z</time></trkpt><trkpt lat="43.623855" lon="12.5236417"><ele>416.0</ele><time>2026-04-25T09:52:16.53Z</time></trkpt><trkpt lat="43.6239367" lon="12.5237683"><ele>415.25</ele><time>2026-04-25T09:52:17.53Z</time></trkpt><trkpt lat="43.624015" lon="12.5239"><ele>414.5</ele><time>2026-04-25T09:52:18.531Z</time></trkpt><trkpt lat="43.6241667" lon="12.5241167"><ele>413.75</ele><time>2026-04-25T09:52:20.53Z</time></trkpt><trkpt lat="43.6242467" lon="12.524205"><ele>413.0</ele><time>2026-04-25T09:52:21.531Z</time></trkpt><trkpt lat="43.6243317" lon="12.52428"><ele>413.0</ele><time>2026-04-25T09:52:22.53Z</time></trkpt><trkpt lat="43.6244167" lon="12.5243383"><ele>413.0</ele><time>2026-04-25T09:52:23.531Z</time></trkpt><trkpt lat="43.6245117" lon="12.5243817"><ele>413.0</ele><time>2026-04-25T09:52:24.531Z</time></trkpt><trkpt lat="43.6246167" lon="12.5244267"><ele>413.0</ele><time>2026-04-25T09:52:25.531Z</time></trkpt><trkpt lat="43.624725" lon="12.5244817"><ele>413.0</ele><time>2026-04-25T09:52:26.53Z</time></trkpt><trkpt lat="43.6248367" lon="12.524545"><ele>410.0</ele><time>2026-04-25T09:52:27.531Z</time></trkpt><trkpt lat="43.6249433" lon="12.5246167"><ele>407.0</ele><time>2026-04-25T09:52:28.531Z</time></trkpt><trkpt lat="43.6250467" lon="12.5246867"><ele>404.0</ele><time>2026-04-25T09:52:29.531Z</time></trkpt><trkpt lat="43.6251517" lon="12.5247467"><ele>401.0</ele><time>2026-04-25T09:52:30.533Z</time></trkpt><trkpt lat="43.6252583" lon="12.5247933"><ele>400.4</ele><time>2026-04-25T09:52:31.531Z</time></trkpt><trkpt lat="43.6253633" lon="12.5248333"><ele>399.8</ele><time>2026-04-25T09:52:32.535Z</time></trkpt><trkpt lat="43.6254667" lon="12.524875"><ele>399.2</ele><time>2026-04-25T09:52:33.531Z</time></trkpt><trkpt lat="43.6255683" lon="12.5249333"><ele>398.59999999999997</ele><time>2026-04-25T09:52:34.53Z</time></trkpt><trkpt lat="43.6256783" lon="12.5250033"><ele>398.0</ele><time>2026-04-25T09:52:35.532Z</time></trkpt><trkpt lat="43.625785" lon="12.5250783"><ele>398.0</ele><time>2026-04-25T09:52:36.534Z</time></trkpt><trkpt lat="43.6258917" lon="12.5251433"><ele>398.0</ele><time>2026-04-25T09:52:37.534Z</time></trkpt><trkpt lat="43.626" lon="12.5251867"><ele>398.0</ele><time>2026-04-25T09:52:38.534Z</time></trkpt><trkpt lat="43.6261133" lon="12.5252267"><ele>398.0</ele><time>2026-04-25T09:52:39.531Z</time></trkpt><trkpt lat="43.6263567" lon="12.5252733"><ele>399.5</ele><time>2026-04-25T09:52:41.533Z</time></trkpt><trkpt lat="43.6264783" lon="12.5252917"><ele>401.0</ele><time>2026-04-25T09:52:42.534Z</time></trkpt><trkpt lat="43.6265983" lon="12.5253033"><ele>402.5</ele><time>2026-04-25T09:52:43.534Z</time></trkpt><trkpt lat="43.62672" lon="12.52531"><ele>404.0</ele><time>2026-04-25T09:52:44.533Z</time></trkpt><trkpt lat="43.6268417" lon="12.5253117"><ele>404.0</ele><time>2026-04-25T09:52:45.536Z</time></trkpt><trkpt lat="43.626965" lon="12.5253067"><ele>404.0</ele><time>2026-04-25T09:52:46.531Z</time></trkpt><trkpt lat="43.62709" lon="12.5253"><ele>404.0</ele><time>2026-04-25T09:52:47.53Z</time></trkpt><trkpt lat="43.6272183" lon="12.5252883"><ele>404.0</ele><time>2026-04-25T09:52:48.531Z</time></trkpt><trkpt lat="43.62734" lon="12.5252767"><ele>404.0</ele><time>2026-04-25T09:52:49.531Z</time></trkpt><trkpt lat="43.627455" lon="12.525265"><ele>404.0</ele><time>2026-04-25T09:52:50.53Z</time></trkpt><trkpt lat="43.62757" lon="12.5252633"><ele>404.0</ele><time>2026-04-25T09:52:51.531Z</time></trkpt><trkpt lat="43.627685" lon="12.525275"><ele>404.0</ele><time>2026-04-25T09:52:52.532Z</time></trkpt><trkpt lat="43.627795" lon="12.5252983"><ele>403.0</ele><time>2026-04-25T09:52:53.531Z</time></trkpt><trkpt lat="43.6278983" lon="12.5253233"><ele>402.0</ele><time>2026-04-25T09:52:54.531Z</time></trkpt><trkpt lat="43.6279883" lon="12.525345"><ele>401.0</ele><time>2026-04-25T09:52:55.531Z</time></trkpt><trkpt lat="43.628075" lon="12.52537"><ele>400.0</ele><time>2026-04-25T09:52:56.531Z</time></trkpt><trkpt lat="43.6281617" lon="12.525415"><ele>399.0</ele><time>2026-04-25T09:52:57.531Z</time></trkpt><trkpt lat="43.6282483" lon="12.525465"><ele>399.0</ele><time>2026-04-25T09:52:58.531Z</time></trkpt><trkpt lat="43.6283333" lon="12.5255117"><ele>399.0</ele><time>2026-04-25T09:52:59.531Z</time></trkpt><trkpt lat="43.6284133" lon="12.5255567"><ele>399.0</ele><time>2026-04-25T09:53:00.534Z</time></trkpt><trkpt lat="43.6285517" lon="12.5256767"><ele>399.0</ele><time>2026-04-25T09:53:02.533Z</time></trkpt><trkpt lat="43.6286033" lon="12.5257567"><ele>399.0</ele><time>2026-04-25T09:53:03.534Z</time></trkpt><trkpt lat="43.6286217" lon="12.52586"><ele>399.0</ele><time>2026-04-25T09:53:04.53Z</time></trkpt><trkpt lat="43.62862" lon="12.5259617"><ele>399.0</ele><time>2026-04-25T09:53:05.531Z</time></trkpt><trkpt lat="43.62859" lon="12.5260667"><ele>399.0</ele><time>2026-04-25T09:53:06.534Z</time></trkpt><trkpt lat="43.62851" lon="12.52614"><ele>399.0</ele><time>2026-04-25T09:53:07.531Z</time></trkpt><trkpt lat="43.6284033" lon="12.5262033"><ele>399.0</ele><time>2026-04-25T09:53:08.53Z</time></trkpt><trkpt lat="43.6283" lon="12.52627"><ele>397.4</ele><time>2026-04-25T09:53:09.531Z</time></trkpt><trkpt lat="43.62817" lon="12.5263133"><ele>395.79999999999995</ele><time>2026-04-25T09:53:10.53Z</time></trkpt><trkpt lat="43.62807" lon="12.5263483"><ele>394.20000000000005</ele><time>2026-04-25T09:53:11.531Z</time></trkpt><trkpt lat="43.627985" lon="12.5263783"><ele>392.6</ele><time>2026-04-25T09:53:12.534Z</time></trkpt><trkpt lat="43.6279133" lon="12.5264467"><ele>391.0</ele><time>2026-04-25T09:53:13.534Z</time></trkpt><trkpt lat="43.6278583" lon="12.5265367"><ele>391.0</ele><time>2026-04-25T09:53:14.531Z</time></trkpt><trkpt lat="43.6278217" lon="12.5266517"><ele>391.0</ele><time>2026-04-25T09:53:15.532Z</time></trkpt><trkpt lat="43.6278067" lon="12.526825"><ele>391.0</ele><time>2026-04-25T09:53:16.533Z</time></trkpt><trkpt lat="43.6277983" lon="12.5270267"><ele>391.0</ele><time>2026-04-25T09:53:17.532Z</time></trkpt><trkpt lat="43.6277883" lon="12.5272267"><ele>388.5</ele><time>2026-04-25T09:53:18.533Z</time></trkpt><trkpt lat="43.6277783" lon="12.52741"><ele>386.0</ele><time>2026-04-25T09:53:19.533Z</time></trkpt><trkpt lat="43.6277717" lon="12.5275717"><ele>383.5</ele><time>2026-04-25T09:53:20.532Z</time></trkpt><trkpt lat="43.6277667" lon="12.5277183"><ele>381.0</ele><time>2026-04-25T09:53:21.531Z</time></trkpt><trkpt lat="43.6277933" lon="12.527955"><ele>380.8333333333333</ele><time>2026-04-25T09:53:23.532Z</time></trkpt><trkpt lat="43.6278367" lon="12.5280483"><ele>380.6666666666667</ele><time>2026-04-25T09:53:24.531Z</time></trkpt><trkpt lat="43.627895" lon="12.5281217"><ele>380.5</ele><time>2026-04-25T09:53:25.532Z</time></trkpt><trkpt lat="43.6279717" lon="12.5281783"><ele>380.33333333333337</ele><time>2026-04-25T09:53:26.532Z</time></trkpt><trkpt lat="43.62805" lon="12.528225"><ele>380.1666666666667</ele><time>2026-04-25T09:53:27.534Z</time></trkpt><trkpt lat="43.62813" lon="12.5282633"><ele>380.0</ele><time>2026-04-25T09:53:28.534Z</time></trkpt><trkpt lat="43.62821" lon="12.5283033"><ele>380.0</ele><time>2026-04-25T09:53:29.535Z</time></trkpt><trkpt lat="43.6282917" lon="12.5283517"><ele>380.0</ele><time>2026-04-25T09:53:30.534Z</time></trkpt><trkpt lat="43.6283617" lon="12.5284167"><ele>380.0</ele><time>2026-04-25T09:53:31.532Z</time></trkpt><trkpt lat="43.6284217" lon="12.5285033"><ele>380.0</ele><time>2026-04-25T09:53:32.534Z</time></trkpt><trkpt lat="43.6284717" lon="12.528615"><ele>380.0</ele><time>2026-04-25T09:53:33.53Z</time></trkpt><trkpt lat="43.6284833" lon="12.5287567"><ele>378.75</ele><time>2026-04-25T09:53:34.534Z</time></trkpt><trkpt lat="43.6284683" lon="12.528905"><ele>377.5</ele><time>2026-04-25T09:53:35.533Z</time></trkpt><trkpt lat="43.6284433" lon="12.5290667"><ele>376.25</ele><time>2026-04-25T09:53:36.533Z</time></trkpt><trkpt lat="43.6284217" lon="12.529235"><ele>375.0</ele><time>2026-04-25T09:53:37.532Z</time></trkpt><trkpt lat="43.6283983" lon="12.5294217"><ele>375.75</ele><time>2026-04-25T09:53:38.534Z</time></trkpt><trkpt lat="43.6284083" lon="12.5296067"><ele>376.5</ele><time>2026-04-25T09:53:39.533Z</time></trkpt><trkpt lat="43.6284417" lon="12.529795"><ele>377.25</ele><time>2026-04-25T09:53:40.532Z</time></trkpt><trkpt lat="43.6284933" lon="12.52997"><ele>378.0</ele><time>2026-04-25T09:53:41.534Z</time></trkpt><trkpt lat="43.628545" lon="12.5301483"><ele>373.6666666666667</ele><time>2026-04-25T09:53:42.534Z</time></trkpt><trkpt lat="43.62866" lon="12.5305167"><ele>369.33333333333337</ele><time>2026-04-25T09:53:44.534Z</time></trkpt><trkpt lat="43.6287167" lon="12.5307117"><ele>365.0</ele><time>2026-04-25T09:53:45.534Z</time></trkpt><trkpt lat="43.628765" lon="12.5308933"><ele>365.0</ele><time>2026-04-25T09:53:46.531Z</time></trkpt><trkpt lat="43.6288083" lon="12.5310617"><ele>365.0</ele><time>2026-04-25T09:53:47.533Z</time></trkpt><trkpt lat="43.6288467" lon="12.5311983"><ele>365.0</ele><time>2026-04-25T09:53:48.533Z</time></trkpt><trkpt lat="43.6288783" lon="12.531305"><ele>365.0</ele><time>2026-04-25T09:53:49.534Z</time></trkpt><trkpt lat="43.62891" lon="12.5313917"><ele>365.0</ele><time>2026-04-25T09:53:50.532Z</time></trkpt><trkpt lat="43.62896" lon="12.5315167"><ele>367.6666666666667</ele><time>2026-04-25T09:53:52.533Z</time></trkpt><trkpt lat="43.6290133" lon="12.5316417"><ele>370.33333333333337</ele><time>2026-04-25T09:53:54.534Z</time></trkpt><trkpt lat="43.62907" lon="12.5317033"><ele>373.0</ele><time>2026-04-25T09:53:55.533Z</time></trkpt><trkpt lat="43.6291367" lon="12.5317683"><ele>375.6666666666667</ele><time>2026-04-25T09:53:56.535Z</time></trkpt><trkpt lat="43.6292083" lon="12.5318317"><ele>378.3333333333333</ele><time>2026-04-25T09:53:57.531Z</time></trkpt><trkpt lat="43.6292883" lon="12.5319067"><ele>381.0</ele><time>2026-04-25T09:53:58.531Z</time></trkpt><trkpt lat="43.629365" lon="12.53198"><ele>381.6</ele><time>2026-04-25T09:53:59.532Z</time></trkpt><trkpt lat="43.62943" lon="12.5320567"><ele>382.20000000000005</ele><time>2026-04-25T09:54:00.531Z</time></trkpt><trkpt lat="43.6294833" lon="12.5321467"><ele>382.79999999999995</ele><time>2026-04-25T09:54:01.534Z</time></trkpt><trkpt lat="43.629525" lon="12.5322567"><ele>383.4</ele><time>2026-04-25T09:54:02.531Z</time></trkpt><trkpt lat="43.629545" lon="12.5323917"><ele>384.0</ele><time>2026-04-25T09:54:03.534Z</time></trkpt><trkpt lat="43.6295483" lon="12.5326267"><ele>384.0</ele><time>2026-04-25T09:54:05.534Z</time></trkpt><trkpt lat="43.6295267" lon="12.5327383"><ele>384.0</ele><time>2026-04-25T09:54:06.531Z</time></trkpt><trkpt lat="43.6294817" lon="12.5328417"><ele>384.0</ele><time>2026-04-25T09:54:07.532Z</time></trkpt><trkpt lat="43.6294217" lon="12.5329217"><ele>384.0</ele><time>2026-04-25T09:54:08.531Z</time></trkpt><trkpt lat="43.62936" lon="12.5329817"><ele>384.0</ele><time>2026-04-25T09:54:09.531Z</time></trkpt><trkpt lat="43.6292967" lon="12.5330317"><ele>384.0</ele><time>2026-04-25T09:54:10.532Z</time></trkpt><trkpt lat="43.629225" lon="12.5331"><ele>385.75</ele><time>2026-04-25T09:54:11.534Z</time></trkpt><trkpt lat="43.62913" lon="12.5331633"><ele>387.5</ele><time>2026-04-25T09:54:12.533Z</time></trkpt><trkpt lat="43.62902" lon="12.53322"><ele>389.25</ele><time>2026-04-25T09:54:13.531Z</time></trkpt><trkpt lat="43.6289083" lon="12.533275"><ele>391.0</ele><time>2026-04-25T09:54:14.534Z</time></trkpt><trkpt lat="43.6288" lon="12.5333267"><ele>391.0</ele><time>2026-04-25T09:54:15.532Z</time></trkpt><trkpt lat="43.6286883" lon="12.53338"><ele>391.0</ele><time>2026-04-25T09:54:16.531Z</time></trkpt><trkpt lat="43.6285833" lon="12.5334483"><ele>391.0</ele><time>2026-04-25T09:54:17.534Z</time></trkpt><trkpt lat="43.6284933" lon="12.5335333"><ele>391.0</ele><time>2026-04-25T09:54:18.532Z</time></trkpt><trkpt lat="43.6284183" lon="12.53364"><ele>386.8</ele><time>2026-04-25T09:54:19.531Z</time></trkpt><trkpt lat="43.6283617" lon="12.53376"><ele>382.6</ele><time>2026-04-25T09:54:20.535Z</time></trkpt><trkpt lat="43.6283133" lon="12.5338817"><ele>378.4</ele><time>2026-04-25T09:54:21.531Z</time></trkpt><trkpt lat="43.6282633" lon="12.5339983"><ele>374.2</ele><time>2026-04-25T09:54:22.533Z</time></trkpt><trkpt lat="43.6282017" lon="12.5341017"><ele>370.0</ele><time>2026-04-25T09:54:23.532Z</time></trkpt><trkpt lat="43.6281317" lon="12.5341833"><ele>370.0</ele><time>2026-04-25T09:54:24.534Z</time></trkpt><trkpt lat="43.6279917" lon="12.5343033"><ele>370.0</ele><time>2026-04-25T09:54:26.535Z</time></trkpt><trkpt lat="43.6279367" lon="12.5343667"><ele>370.0</ele><time>2026-04-25T09:54:27.534Z</time></trkpt><trkpt lat="43.6279" lon="12.5345117"><ele>370.0</ele><time>2026-04-25T09:54:29.534Z</time></trkpt><trkpt lat="43.6279283" lon="12.5346133"><ele>370.0</ele><time>2026-04-25T09:54:30.53Z</time></trkpt><trkpt lat="43.6279883" lon="12.53472"><ele>367.75</ele><time>2026-04-25T09:54:31.531Z</time></trkpt><trkpt lat="43.62806" lon="12.5348333"><ele>365.5</ele><time>2026-04-25T09:54:32.534Z</time></trkpt><trkpt lat="43.6281533" lon="12.53495"><ele>363.25</ele><time>2026-04-25T09:54:33.534Z</time></trkpt><trkpt lat="43.6282483" lon="12.5350667"><ele>361.0</ele><time>2026-04-25T09:54:34.532Z</time></trkpt><trkpt lat="43.6283417" lon="12.5351767"><ele>361.0</ele><time>2026-04-25T09:54:35.53Z</time></trkpt><trkpt lat="43.628435" lon="12.535275"><ele>361.0</ele><time>2026-04-25T09:54:36.531Z</time></trkpt><trkpt lat="43.62851" lon="12.535355"><ele>361.0</ele><time>2026-04-25T09:54:37.531Z</time></trkpt><trkpt lat="43.6285683" lon="12.535425"><ele>361.0</ele><time>2026-04-25T09:54:38.53Z</time></trkpt><trkpt lat="43.6286317" lon="12.535535"><ele>361.0</ele><time>2026-04-25T09:54:40.531Z</time></trkpt><trkpt lat="43.628555" lon="12.5356133"><ele>361.4</ele><time>2026-04-25T09:54:43.533Z</time></trkpt><trkpt lat="43.628495" lon="12.5356467"><ele>361.8</ele><time>2026-04-25T09:54:44.53Z</time></trkpt><trkpt lat="43.6284267" lon="12.535695"><ele>362.2</ele><time>2026-04-25T09:54:45.532Z</time></trkpt><trkpt lat="43.6282883" lon="12.535835"><ele>362.59999999999997</ele><time>2026-04-25T09:54:47.531Z</time></trkpt><trkpt lat="43.6282117" lon="12.535915"><ele>363.0</ele><time>2026-04-25T09:54:48.531Z</time></trkpt><trkpt lat="43.6281317" lon="12.5360183"><ele>363.0</ele><time>2026-04-25T09:54:49.532Z</time></trkpt><trkpt lat="43.628055" lon="12.5361233"><ele>363.0</ele><time>2026-04-25T09:54:50.53Z</time></trkpt><trkpt lat="43.6279767" lon="12.5362383"><ele>363.0</ele><time>2026-04-25T09:54:51.535Z</time></trkpt><trkpt lat="43.6278983" lon="12.53637"><ele>363.0</ele><time>2026-04-25T09:54:52.535Z</time></trkpt><trkpt lat="43.6278117" lon="12.5365167"><ele>366.0</ele><time>2026-04-25T09:54:53.531Z</time></trkpt><trkpt lat="43.6277433" lon="12.5366733"><ele>369.0</ele><time>2026-04-25T09:54:54.535Z</time></trkpt><trkpt lat="43.6276717" lon="12.5368367"><ele>372.0</ele><time>2026-04-25T09:54:55.534Z</time></trkpt><trkpt lat="43.627595" lon="12.53699"><ele>375.0</ele><time>2026-04-25T09:54:56.622Z</time></trkpt><trkpt lat="43.6275117" lon="12.5371567"><ele>377.25</ele><time>2026-04-25T09:54:57.531Z</time></trkpt><trkpt lat="43.62743" lon="12.5373167"><ele>379.5</ele><time>2026-04-25T09:54:58.534Z</time></trkpt><trkpt lat="43.6273517" lon="12.5374783"><ele>381.75</ele><time>2026-04-25T09:54:59.531Z</time></trkpt><trkpt lat="43.62728" lon="12.5376517"><ele>384.0</ele><time>2026-04-25T09:55:00.534Z</time></trkpt><trkpt lat="43.6272133" lon="12.537835"><ele>383.75</ele><time>2026-04-25T09:55:01.535Z</time></trkpt><trkpt lat="43.6271467" lon="12.538025"><ele>383.5</ele><time>2026-04-25T09:55:02.534Z</time></trkpt><trkpt lat="43.6270867" lon="12.538205"><ele>383.25</ele><time>2026-04-25T09:55:03.531Z</time></trkpt><trkpt lat="43.6270333" lon="12.53838"><ele>383.0</ele><time>2026-04-25T09:55:04.533Z</time></trkpt><trkpt lat="43.6269833" lon="12.538545"><ele>384.25</ele><time>2026-04-25T09:55:05.531Z</time></trkpt><trkpt lat="43.6269383" lon="12.5386917"><ele>385.5</ele><time>2026-04-25T09:55:06.534Z</time></trkpt><trkpt lat="43.6268267" lon="12.5389267"><ele>386.75</ele><time>2026-04-25T09:55:08.531Z</time></trkpt><trkpt lat="43.6267567" lon="12.5390117"><ele>388.0</ele><time>2026-04-25T09:55:09.531Z</time></trkpt><trkpt lat="43.6266783" lon="12.5390883"><ele>389.4</ele><time>2026-04-25T09:55:10.531Z</time></trkpt><trkpt lat="43.626585" lon="12.5391583"><ele>390.79999999999995</ele><time>2026-04-25T09:55:11.531Z</time></trkpt><trkpt lat="43.6264933" lon="12.53923"><ele>392.2</ele><time>2026-04-25T09:55:12.532Z</time></trkpt><trkpt lat="43.6264033" lon="12.5393083"><ele>393.6</ele><time>2026-04-25T09:55:13.533Z</time></trkpt><trkpt lat="43.62632" lon="12.5393933"><ele>395.0</ele><time>2026-04-25T09:55:14.53Z</time></trkpt><trkpt lat="43.6262417" lon="12.5394967"><ele>395.25</ele><time>2026-04-25T09:55:15.531Z</time></trkpt><trkpt lat="43.6261633" lon="12.5396017"><ele>395.5</ele><time>2026-04-25T09:55:16.531Z</time></trkpt><trkpt lat="43.62608" lon="12.53971"><ele>395.75</ele><time>2026-04-25T09:55:17.531Z</time></trkpt><trkpt lat="43.62599" lon="12.5398183"><ele>396.0</ele><time>2026-04-25T09:55:18.531Z</time></trkpt><trkpt lat="43.6258933" lon="12.53993"><ele>398.75</ele><time>2026-04-25T09:55:19.532Z</time></trkpt><trkpt lat="43.6257967" lon="12.5400417"><ele>401.5</ele><time>2026-04-25T09:55:20.531Z</time></trkpt><trkpt lat="43.625705" lon="12.5401483"><ele>404.25</ele><time>2026-04-25T09:55:21.533Z</time></trkpt><trkpt lat="43.625615" lon="12.5402433"><ele>407.0</ele><time>2026-04-25T09:55:22.531Z</time></trkpt><trkpt lat="43.6255233" lon="12.54032"><ele>408.6</ele><time>2026-04-25T09:55:23.531Z</time></trkpt><trkpt lat="43.6254367" lon="12.54039"><ele>410.20000000000005</ele><time>2026-04-25T09:55:24.534Z</time></trkpt><trkpt lat="43.6253567" lon="12.540465"><ele>411.8</ele><time>2026-04-25T09:55:25.623Z</time></trkpt><trkpt lat="43.6252883" lon="12.5405667"><ele>413.4</ele><time>2026-04-25T09:55:26.531Z</time></trkpt><trkpt lat="43.6252317" lon="12.5406917"><ele>415.0</ele><time>2026-04-25T09:55:27.531Z</time></trkpt><trkpt lat="43.6251167" lon="12.5409883"><ele>418.75</ele><time>2026-04-25T09:55:29.532Z</time></trkpt><trkpt lat="43.6250517" lon="12.541145"><ele>422.5</ele><time>2026-04-25T09:55:30.532Z</time></trkpt><trkpt lat="43.6249833" lon="12.541305"><ele>426.25</ele><time>2026-04-25T09:55:31.531Z</time></trkpt><trkpt lat="43.624905" lon="12.5414633"><ele>430.0</ele><time>2026-04-25T09:55:32.531Z</time></trkpt><trkpt lat="43.6248167" lon="12.5416183"><ele>433.0</ele><time>2026-04-25T09:55:33.531Z</time></trkpt><trkpt lat="43.62472" lon="12.541765"><ele>436.0</ele><time>2026-04-25T09:55:34.532Z</time></trkpt><trkpt lat="43.6246167" lon="12.5419133"><ele>439.0</ele><time>2026-04-25T09:55:35.531Z</time></trkpt><trkpt lat="43.624505" lon="12.5420567"><ele>442.0</ele><time>2026-04-25T09:55:36.531Z</time></trkpt><trkpt lat="43.6244033" lon="12.542185"><ele>445.5</ele><time>2026-04-25T09:55:37.531Z</time></trkpt><trkpt lat="43.6243" lon="12.542305"><ele>449.0</ele><time>2026-04-25T09:55:38.531Z</time></trkpt><trkpt lat="43.6242" lon="12.5424133"><ele>452.5</ele><time>2026-04-25T09:55:39.531Z</time></trkpt><trkpt lat="43.6240967" lon="12.542505"><ele>456.0</ele><time>2026-04-25T09:55:40.531Z</time></trkpt><trkpt lat="43.6239917" lon="12.542565"><ele>456.0</ele><time>2026-04-25T09:55:41.531Z</time></trkpt><trkpt lat="43.62389" lon="12.542595"><ele>456.0</ele><time>2026-04-25T09:55:42.533Z</time></trkpt><trkpt lat="43.62379" lon="12.5426067"><ele>456.0</ele><time>2026-04-25T09:55:43.532Z</time></trkpt><trkpt lat="43.623705" lon="12.5426217"><ele>456.0</ele><time>2026-04-25T09:55:44.532Z</time></trkpt><trkpt lat="43.623625" lon="12.5426317"><ele>456.0</ele><time>2026-04-25T09:55:45.531Z</time></trkpt><trkpt lat="43.6235567" lon="12.5426567"><ele>456.0</ele><time>2026-04-25T09:55:46.531Z</time></trkpt><trkpt lat="43.6235067" lon="12.54274"><ele>456.66666666666663</ele><time>2026-04-25T09:55:47.531Z</time></trkpt><trkpt lat="43.6234633" lon="12.5428683"><ele>457.3333333333333</ele><time>2026-04-25T09:55:48.534Z</time></trkpt><trkpt lat="43.6233583" lon="12.54319"><ele>458.0</ele><time>2026-04-25T09:55:50.531Z</time></trkpt><trkpt lat="43.6232983" lon="12.5433517"><ele>458.0</ele><time>2026-04-25T09:55:51.534Z</time></trkpt><trkpt lat="43.6232267" lon="12.5435283"><ele>458.0</ele><time>2026-04-25T09:55:52.534Z</time></trkpt><trkpt lat="43.6231483" lon="12.5437"><ele>458.0</ele><time>2026-04-25T09:55:53.532Z</time></trkpt><trkpt lat="43.6230683" lon="12.543875"><ele>458.0</ele><time>2026-04-25T09:55:54.532Z</time></trkpt><trkpt lat="43.62299" lon="12.5440467"><ele>457.0</ele><time>2026-04-25T09:55:55.532Z</time></trkpt><trkpt lat="43.6229133" lon="12.54422"><ele>456.0</ele><time>2026-04-25T09:55:56.535Z</time></trkpt><trkpt lat="43.6228367" lon="12.5443933"><ele>455.0</ele><time>2026-04-25T09:55:57.532Z</time></trkpt><trkpt lat="43.6227583" lon="12.5445633"><ele>454.0</ele><time>2026-04-25T09:55:58.533Z</time></trkpt><trkpt lat="43.6226817" lon="12.5447317"><ele>450.75</ele><time>2026-04-25T09:55:59.532Z</time></trkpt><trkpt lat="43.6226083" lon="12.5449"><ele>447.5</ele><time>2026-04-25T09:56:00.533Z</time></trkpt><trkpt lat="43.6225367" lon="12.5450633"><ele>444.25</ele><time>2026-04-25T09:56:01.534Z</time></trkpt><trkpt lat="43.622465" lon="12.5452233"><ele>441.0</ele><time>2026-04-25T09:56:02.536Z</time></trkpt><trkpt lat="43.6223867" lon="12.5453733"><ele>439.0</ele><time>2026-04-25T09:56:03.532Z</time></trkpt><trkpt lat="43.6223" lon="12.5455017"><ele>437.0</ele><time>2026-04-25T09:56:04.531Z</time></trkpt><trkpt lat="43.6221983" lon="12.5456067"><ele>435.0</ele><time>2026-04-25T09:56:05.531Z</time></trkpt><trkpt lat="43.6220833" lon="12.54569"><ele>433.0</ele><time>2026-04-25T09:56:06.534Z</time></trkpt><trkpt lat="43.62197" lon="12.54576"><ele>428.6666666666667</ele><time>2026-04-25T09:56:07.531Z</time></trkpt><trkpt lat="43.6218583" lon="12.5458267"><ele>424.33333333333337</ele><time>2026-04-25T09:56:08.532Z</time></trkpt><trkpt lat="43.6217567" lon="12.5459083"><ele>420.0</ele><time>2026-04-25T09:56:09.531Z</time></trkpt><trkpt lat="43.6215583" lon="12.546115"><ele>419.4</ele><time>2026-04-25T09:56:11.532Z</time></trkpt><trkpt lat="43.6214667" lon="12.54622"><ele>418.8</ele><time>2026-04-25T09:56:12.534Z</time></trkpt><trkpt lat="43.62138" lon="12.54631"><ele>418.20000000000005</ele><time>2026-04-25T09:56:13.532Z</time></trkpt><trkpt lat="43.621295" lon="12.546385"><ele>417.6</ele><time>2026-04-25T09:56:14.535Z</time></trkpt><trkpt lat="43.6212083" lon="12.5464367"><ele>417.0</ele><time>2026-04-25T09:56:15.531Z</time></trkpt><trkpt lat="43.6211183" lon="12.546445"><ele>415.5</ele><time>2026-04-25T09:56:16.534Z</time></trkpt><trkpt lat="43.621015" lon="12.5463967"><ele>414.0</ele><time>2026-04-25T09:56:17.534Z</time></trkpt><trkpt lat="43.6209067" lon="12.5462883"><ele>412.5</ele><time>2026-04-25T09:56:18.535Z</time></trkpt><trkpt lat="43.62079" lon="12.5461583"><ele>411.0</ele><time>2026-04-25T09:56:19.536Z</time></trkpt><trkpt lat="43.6206783" lon="12.5460233"><ele>411.0</ele><time>2026-04-25T09:56:20.53Z</time></trkpt><trkpt lat="43.6205617" lon="12.5458983"><ele>411.0</ele><time>2026-04-25T09:56:21.531Z</time></trkpt><trkpt lat="43.6204517" lon="12.545775"><ele>411.0</ele><time>2026-04-25T09:56:22.533Z</time></trkpt><trkpt lat="43.6203467" lon="12.54566"><ele>411.0</ele><time>2026-04-25T09:56:23.531Z</time></trkpt><trkpt lat="43.6202583" lon="12.545555"><ele>410.6</ele><time>2026-04-25T09:56:24.531Z</time></trkpt><trkpt lat="43.6201683" lon="12.5454783"><ele>410.20000000000005</ele><time>2026-04-25T09:56:25.532Z</time></trkpt><trkpt lat="43.62007" lon="12.5454333"><ele>409.79999999999995</ele><time>2026-04-25T09:56:26.531Z</time></trkpt><trkpt lat="43.6199583" lon="12.54542"><ele>409.4</ele><time>2026-04-25T09:56:27.532Z</time></trkpt><trkpt lat="43.6198483" lon="12.5454333"><ele>409.0</ele><time>2026-04-25T09:56:28.535Z</time></trkpt><trkpt lat="43.619725" lon="12.5454667"><ele>409.0</ele><time>2026-04-25T09:56:29.531Z</time></trkpt><trkpt lat="43.61959" lon="12.54553"><ele>409.0</ele><time>2026-04-25T09:56:30.532Z</time></trkpt><trkpt lat="43.6193083" lon="12.54572"><ele>411.0</ele><time>2026-04-25T09:56:32.532Z</time></trkpt><trkpt lat="43.6191683" lon="12.5458283"><ele>413.0</ele><time>2026-04-25T09:56:33.534Z</time></trkpt><trkpt lat="43.619035" lon="12.54594"><ele>415.0</ele><time>2026-04-25T09:56:34.531Z</time></trkpt><trkpt lat="43.6189033" lon="12.5460567"><ele>415.0</ele><time>2026-04-25T09:56:35.532Z</time></trkpt><trkpt lat="43.618775" lon="12.5461833"><ele>415.0</ele><time>2026-04-25T09:56:36.532Z</time></trkpt><trkpt lat="43.6186517" lon="12.5463133"><ele>415.0</ele><time>2026-04-25T09:56:37.533Z</time></trkpt><trkpt lat="43.618535" lon="12.5464467"><ele>411.6666666666667</ele><time>2026-04-25T09:56:38.532Z</time></trkpt><trkpt lat="43.618415" lon="12.5465883"><ele>408.33333333333337</ele><time>2026-04-25T09:56:39.534Z</time></trkpt><trkpt lat="43.618305" lon="12.5467383"><ele>405.0</ele><time>2026-04-25T09:56:40.531Z</time></trkpt><trkpt lat="43.618205" lon="12.54689"><ele>405.0</ele><time>2026-04-25T09:56:41.532Z</time></trkpt><trkpt lat="43.618115" lon="12.54704"><ele>405.0</ele><time>2026-04-25T09:56:42.532Z</time></trkpt><trkpt lat="43.6180483" lon="12.5471833"><ele>405.0</ele><time>2026-04-25T09:56:43.531Z</time></trkpt><trkpt lat="43.618005" lon="12.54732"><ele>405.0</ele><time>2026-04-25T09:56:44.532Z</time></trkpt><trkpt lat="43.6179667" lon="12.5474433"><ele>403.5</ele><time>2026-04-25T09:56:45.535Z</time></trkpt><trkpt lat="43.6179333" lon="12.5475567"><ele>402.0</ele><time>2026-04-25T09:56:46.531Z</time></trkpt><trkpt lat="43.617895" lon="12.547655"><ele>400.5</ele><time>2026-04-25T09:56:47.531Z</time></trkpt><trkpt lat="43.6178583" lon="12.5477417"><ele>399.0</ele><time>2026-04-25T09:56:48.532Z</time></trkpt><trkpt lat="43.617815" lon="12.5478117"><ele>397.5</ele><time>2026-04-25T09:56:49.531Z</time></trkpt><trkpt lat="43.6177283" lon="12.5479033"><ele>396.0</ele><time>2026-04-25T09:56:51.535Z</time></trkpt><trkpt lat="43.6175517" lon="12.5477983"><ele>396.0</ele><time>2026-04-25T09:56:54.535Z</time></trkpt><trkpt lat="43.617485" lon="12.5477717"><ele>396.0</ele><time>2026-04-25T09:56:55.534Z</time></trkpt><trkpt lat="43.6173967" lon="12.5477367"><ele>396.0</ele><time>2026-04-25T09:56:56.531Z</time></trkpt><trkpt lat="43.6173183" lon="12.5477033"><ele>396.0</ele><time>2026-04-25T09:56:57.531Z</time></trkpt><trkpt lat="43.6172417" lon="12.547655"><ele>396.0</ele><time>2026-04-25T09:56:58.532Z</time></trkpt><trkpt lat="43.6171733" lon="12.5475983"><ele>396.0</ele><time>2026-04-25T09:56:59.531Z</time></trkpt><trkpt lat="43.6171167" lon="12.5475483"><ele>396.0</ele><time>2026-04-25T09:57:00.533Z</time></trkpt><trkpt lat="43.6170333" lon="12.547465"><ele>396.0</ele><time>2026-04-25T09:57:02.531Z</time></trkpt><trkpt lat="43.61697" lon="12.54748"><ele>396.0</ele><time>2026-04-25T09:57:04.531Z</time></trkpt><trkpt lat="43.616945" lon="12.5475817"><ele>396.0</ele><time>2026-04-25T09:57:06.534Z</time></trkpt><trkpt lat="43.6169633" lon="12.5476867"><ele>396.0</ele><time>2026-04-25T09:57:07.531Z</time></trkpt><trkpt lat="43.6169833" lon="12.5478067"><ele>396.0</ele><time>2026-04-25T09:57:08.531Z</time></trkpt><trkpt lat="43.6170183" lon="12.5479717"><ele>393.0</ele><time>2026-04-25T09:57:09.532Z</time></trkpt><trkpt lat="43.617055" lon="12.5481433"><ele>390.0</ele><time>2026-04-25T09:57:10.531Z</time></trkpt><trkpt lat="43.6170833" lon="12.548325"><ele>387.0</ele><time>2026-04-25T09:57:11.532Z</time></trkpt><trkpt lat="43.6171017" lon="12.54851"><ele>384.0</ele><time>2026-04-25T09:57:12.534Z</time></trkpt><trkpt lat="43.617105" lon="12.54887"><ele>381.75</ele><time>2026-04-25T09:57:14.532Z</time></trkpt><trkpt lat="43.6171017" lon="12.5490433"><ele>379.5</ele><time>2026-04-25T09:57:15.532Z</time></trkpt><trkpt lat="43.61709" lon="12.5492133"><ele>377.25</ele><time>2026-04-25T09:57:16.533Z</time></trkpt><trkpt lat="43.6170867" lon="12.54938"><ele>375.0</ele><time>2026-04-25T09:57:17.532Z</time></trkpt><trkpt lat="43.6170867" lon="12.549545"><ele>373.0</ele><time>2026-04-25T09:57:18.532Z</time></trkpt><trkpt lat="43.6170867" lon="12.5497083"><ele>371.0</ele><time>2026-04-25T09:57:19.531Z</time></trkpt><trkpt lat="43.6170833" lon="12.549875"><ele>369.0</ele><time>2026-04-25T09:57:20.532Z</time></trkpt><trkpt lat="43.6170833" lon="12.5500383"><ele>367.0</ele><time>2026-04-25T09:57:21.531Z</time></trkpt><trkpt lat="43.6170883" lon="12.5501917"><ele>367.0</ele><time>2026-04-25T09:57:22.533Z</time></trkpt><trkpt lat="43.6170933" lon="12.5503367"><ele>367.0</ele><time>2026-04-25T09:57:23.532Z</time></trkpt><trkpt lat="43.6171" lon="12.5504817"><ele>367.0</ele><time>2026-04-25T09:57:24.532Z</time></trkpt><trkpt lat="43.6171133" lon="12.550625"><ele>367.0</ele><time>2026-04-25T09:57:25.533Z</time></trkpt><trkpt lat="43.6171317" lon="12.5507483"><ele>367.0</ele><time>2026-04-25T09:57:26.531Z</time></trkpt><trkpt lat="43.6171533" lon="12.5508683"><ele>364.20000000000005</ele><time>2026-04-25T09:57:27.531Z</time></trkpt><trkpt lat="43.617185" lon="12.55099"><ele>361.4</ele><time>2026-04-25T09:57:28.532Z</time></trkpt><trkpt lat="43.6172133" lon="12.5511183"><ele>358.6</ele><time>2026-04-25T09:57:29.532Z</time></trkpt><trkpt lat="43.61725" lon="12.5512483"><ele>355.79999999999995</ele><time>2026-04-25T09:57:30.533Z</time></trkpt><trkpt lat="43.6172833" lon="12.5513817"><ele>353.0</ele><time>2026-04-25T09:57:31.531Z</time></trkpt><trkpt lat="43.6173167" lon="12.55153"><ele>352.0</ele><time>2026-04-25T09:57:32.531Z</time></trkpt><trkpt lat="43.6173383" lon="12.5516983"><ele>351.0</ele><time>2026-04-25T09:57:33.531Z</time></trkpt><trkpt lat="43.61737" lon="12.5520617"><ele>350.0</ele><time>2026-04-25T09:57:35.532Z</time></trkpt><trkpt lat="43.6173867" lon="12.5522367"><ele>350.0</ele><time>2026-04-25T09:57:36.533Z</time></trkpt><trkpt lat="43.617405" lon="12.552395"><ele>350.0</ele><time>2026-04-25T09:57:37.532Z</time></trkpt><trkpt lat="43.6174217" lon="12.5525383"><ele>350.0</ele><time>2026-04-25T09:57:38.532Z</time></trkpt><trkpt lat="43.6174367" lon="12.552665"><ele>350.0</ele><time>2026-04-25T09:57:39.532Z</time></trkpt><trkpt lat="43.6174583" lon="12.5527717"><ele>350.0</ele><time>2026-04-25T09:57:40.535Z</time></trkpt><trkpt lat="43.6174867" lon="12.5528583"><ele>350.83333333333337</ele><time>2026-04-25T09:57:41.531Z</time></trkpt><trkpt lat="43.61753" lon="12.5529333"><ele>351.6666666666667</ele><time>2026-04-25T09:57:42.532Z</time></trkpt><trkpt lat="43.6175833" lon="12.552995"><ele>352.5</ele><time>2026-04-25T09:57:43.533Z</time></trkpt><trkpt lat="43.6176517" lon="12.5530383"><ele>353.3333333333333</ele><time>2026-04-25T09:57:44.531Z</time></trkpt><trkpt lat="43.6177267" lon="12.553075"><ele>354.16666666666663</ele><time>2026-04-25T09:57:45.535Z</time></trkpt><trkpt lat="43.6178267" lon="12.5531"><ele>355.0</ele><time>2026-04-25T09:57:46.531Z</time></trkpt><trkpt lat="43.6179717" lon="12.5531017"><ele>356.0</ele><time>2026-04-25T09:57:47.531Z</time></trkpt><trkpt lat="43.6181183" lon="12.5531317"><ele>357.0</ele><time>2026-04-25T09:57:48.532Z</time></trkpt><trkpt lat="43.618275" lon="12.5531817"><ele>358.0</ele><time>2026-04-25T09:57:49.533Z</time></trkpt><trkpt lat="43.618415" lon="12.5532517"><ele>358.0</ele><time>2026-04-25T09:57:50.531Z</time></trkpt><trkpt lat="43.6185433" lon="12.55332"><ele>358.0</ele><time>2026-04-25T09:57:51.535Z</time></trkpt><trkpt lat="43.6186717" lon="12.5533817"><ele>358.0</ele><time>2026-04-25T09:57:52.536Z</time></trkpt><trkpt lat="43.6187883" lon="12.5534533"><ele>358.0</ele><time>2026-04-25T09:57:53.536Z</time></trkpt><trkpt lat="43.6188933" lon="12.5535483"><ele>360.25</ele><time>2026-04-25T09:57:54.532Z</time></trkpt><trkpt lat="43.6190633" lon="12.5537617"><ele>362.5</ele><time>2026-04-25T09:57:56.531Z</time></trkpt><trkpt lat="43.619115" lon="12.5538833"><ele>364.75</ele><time>2026-04-25T09:57:57.532Z</time></trkpt><trkpt lat="43.6191467" lon="12.554025"><ele>367.0</ele><time>2026-04-25T09:57:58.532Z</time></trkpt><trkpt lat="43.6191783" lon="12.5541733"><ele>367.0</ele><time>2026-04-25T09:57:59.533Z</time></trkpt><trkpt lat="43.6192017" lon="12.5543033"><ele>367.0</ele><time>2026-04-25T09:58:00.532Z</time></trkpt><trkpt lat="43.619215" lon="12.5544183"><ele>367.0</ele><time>2026-04-25T09:58:01.532Z</time></trkpt><trkpt lat="43.61922" lon="12.5545233"><ele>367.0</ele><time>2026-04-25T09:58:02.531Z</time></trkpt><trkpt lat="43.619205" lon="12.5546267"><ele>367.0</ele><time>2026-04-25T09:58:03.536Z</time></trkpt><trkpt lat="43.6191567" lon="12.5547217"><ele>367.0</ele><time>2026-04-25T09:58:04.535Z</time></trkpt><trkpt lat="43.6190783" lon="12.554815"><ele>366.5</ele><time>2026-04-25T09:58:05.537Z</time></trkpt><trkpt lat="43.6189667" lon="12.5549117"><ele>366.0</ele><time>2026-04-25T09:58:06.532Z</time></trkpt><trkpt lat="43.618855" lon="12.5550133"><ele>365.5</ele><time>2026-04-25T09:58:07.531Z</time></trkpt><trkpt lat="43.6187433" lon="12.555125"><ele>365.0</ele><time>2026-04-25T09:58:08.531Z</time></trkpt><trkpt lat="43.61863" lon="12.555265"><ele>365.6666666666667</ele><time>2026-04-25T09:58:09.531Z</time></trkpt><trkpt lat="43.6185217" lon="12.5554283"><ele>366.3333333333333</ele><time>2026-04-25T09:58:10.534Z</time></trkpt><trkpt lat="43.61842" lon="12.555605"><ele>367.0</ele><time>2026-04-25T09:58:11.531Z</time></trkpt><trkpt lat="43.6183183" lon="12.55579"><ele>367.0</ele><time>2026-04-25T09:58:12.631Z</time></trkpt><trkpt lat="43.6182267" lon="12.55598"><ele>367.0</ele><time>2026-04-25T09:58:13.532Z</time></trkpt><trkpt lat="43.61815" lon="12.5561683"><ele>367.0</ele><time>2026-04-25T09:58:14.531Z</time></trkpt><trkpt lat="43.6180867" lon="12.5563417"><ele>368.3333333333333</ele><time>2026-04-25T09:58:15.531Z</time></trkpt><trkpt lat="43.61796" lon="12.5566267"><ele>369.6666666666667</ele><time>2026-04-25T09:58:17.531Z</time></trkpt><trkpt lat="43.617885" lon="12.556745"><ele>371.0</ele><time>2026-04-25T09:58:18.534Z</time></trkpt><trkpt lat="43.617815" lon="12.5568433"><ele>371.0</ele><time>2026-04-25T09:58:19.531Z</time></trkpt><trkpt lat="43.6177467" lon="12.5569217"><ele>371.0</ele><time>2026-04-25T09:58:20.534Z</time></trkpt><trkpt lat="43.617675" lon="12.5569867"><ele>371.0</ele><time>2026-04-25T09:58:21.531Z</time></trkpt><trkpt lat="43.61759" lon="12.5570183"><ele>371.0</ele><time>2026-04-25T09:58:22.531Z</time></trkpt><trkpt lat="43.61748" lon="12.55699"><ele>371.0</ele><time>2026-04-25T09:58:23.535Z</time></trkpt><trkpt lat="43.6173517" lon="12.55695"><ele>371.0</ele><time>2026-04-25T09:58:24.532Z</time></trkpt><trkpt lat="43.6172133" lon="12.556925"><ele>371.0</ele><time>2026-04-25T09:58:25.532Z</time></trkpt><trkpt lat="43.6170733" lon="12.5569133"><ele>371.0</ele><time>2026-04-25T09:58:26.532Z</time></trkpt><trkpt lat="43.61694" lon="12.556935"><ele>371.0</ele><time>2026-04-25T09:58:27.532Z</time></trkpt><trkpt lat="43.61682" lon="12.55701"><ele>368.0</ele><time>2026-04-25T09:58:28.533Z</time></trkpt><trkpt lat="43.6167" lon="12.5571317"><ele>365.0</ele><time>2026-04-25T09:58:29.532Z</time></trkpt><trkpt lat="43.616575" lon="12.5572883"><ele>362.0</ele><time>2026-04-25T09:58:30.534Z</time></trkpt><trkpt lat="43.6164617" lon="12.5574533"><ele>362.0</ele><time>2026-04-25T09:58:31.534Z</time></trkpt><trkpt lat="43.6163617" lon="12.5576083"><ele>362.0</ele><time>2026-04-25T09:58:32.532Z</time></trkpt><trkpt lat="43.616275" lon="12.5577583"><ele>362.0</ele><time>2026-04-25T09:58:33.531Z</time></trkpt><trkpt lat="43.6161933" lon="12.5579017"><ele>362.0</ele><time>2026-04-25T09:58:34.533Z</time></trkpt><trkpt lat="43.6161117" lon="12.5580317"><ele>359.5</ele><time>2026-04-25T09:58:35.532Z</time></trkpt><trkpt lat="43.6160317" lon="12.55814"><ele>357.0</ele><time>2026-04-25T09:58:36.533Z</time></trkpt><trkpt lat="43.615895" lon="12.558355"><ele>354.5</ele><time>2026-04-25T09:58:38.532Z</time></trkpt><trkpt lat="43.6158467" lon="12.5584783"><ele>352.0</ele><time>2026-04-25T09:58:39.532Z</time></trkpt><trkpt lat="43.6158083" lon="12.5586117"><ele>352.40000000000003</ele><time>2026-04-25T09:58:40.532Z</time></trkpt><trkpt lat="43.6157783" lon="12.55874"><ele>352.8</ele><time>2026-04-25T09:58:41.534Z</time></trkpt><trkpt lat="43.61575" lon="12.5588683"><ele>353.2</ele><time>2026-04-25T09:58:42.533Z</time></trkpt><trkpt lat="43.61572" lon="12.5590017"><ele>353.6</ele><time>2026-04-25T09:58:43.533Z</time></trkpt><trkpt lat="43.6156883" lon="12.559145"><ele>354.0</ele><time>2026-04-25T09:58:44.531Z</time></trkpt><trkpt lat="43.6156567" lon="12.559295"><ele>354.0</ele><time>2026-04-25T09:58:45.534Z</time></trkpt><trkpt lat="43.6156217" lon="12.5594533"><ele>354.0</ele><time>2026-04-25T09:58:46.533Z</time></trkpt><trkpt lat="43.615585" lon="12.5596117"><ele>354.0</ele><time>2026-04-25T09:58:47.532Z</time></trkpt><trkpt lat="43.6155467" lon="12.5597667"><ele>354.0</ele><time>2026-04-25T09:58:48.532Z</time></trkpt><trkpt lat="43.615505" lon="12.5599167"><ele>352.25</ele><time>2026-04-25T09:58:49.532Z</time></trkpt><trkpt lat="43.6154533" lon="12.5600567"><ele>350.5</ele><time>2026-04-25T09:58:50.532Z</time></trkpt><trkpt lat="43.61539" lon="12.5601933"><ele>348.75</ele><time>2026-04-25T09:58:51.531Z</time></trkpt><trkpt lat="43.6153117" lon="12.560315"><ele>347.0</ele><time>2026-04-25T09:58:52.532Z</time></trkpt><trkpt lat="43.6152183" lon="12.56042"><ele>343.5</ele><time>2026-04-25T09:58:53.532Z</time></trkpt><trkpt lat="43.6151083" lon="12.5605017"><ele>340.0</ele><time>2026-04-25T09:58:54.532Z</time></trkpt><trkpt lat="43.614985" lon="12.5605633"><ele>336.5</ele><time>2026-04-25T09:58:55.533Z</time></trkpt><trkpt lat="43.6148533" lon="12.5606033"><ele>333.0</ele><time>2026-04-25T09:58:56.533Z</time></trkpt><trkpt lat="43.61472" lon="12.5606367"><ele>330.0</ele><time>2026-04-25T09:58:57.534Z</time></trkpt><trkpt lat="43.6144517" lon="12.5607017"><ele>327.0</ele><time>2026-04-25T09:58:59.532Z</time></trkpt><trkpt lat="43.6143217" lon="12.560735"><ele>324.0</ele><time>2026-04-25T09:59:00.531Z</time></trkpt><trkpt lat="43.614195" lon="12.5607667"><ele>324.0</ele><time>2026-04-25T09:59:01.533Z</time></trkpt><trkpt lat="43.6140633" lon="12.5608033"><ele>324.0</ele><time>2026-04-25T09:59:02.534Z</time></trkpt><trkpt lat="43.61393" lon="12.5608533"><ele>324.0</ele><time>2026-04-25T09:59:03.536Z</time></trkpt><trkpt lat="43.6137967" lon="12.5609133"><ele>324.0</ele><time>2026-04-25T09:59:04.533Z</time></trkpt><trkpt lat="43.6136667" lon="12.5609767"><ele>323.25</ele><time>2026-04-25T09:59:05.532Z</time></trkpt><trkpt lat="43.6135417" lon="12.561045"><ele>322.5</ele><time>2026-04-25T09:59:06.533Z</time></trkpt><trkpt lat="43.6134217" lon="12.5611133"><ele>321.75</ele><time>2026-04-25T09:59:07.533Z</time></trkpt><trkpt lat="43.6133083" lon="12.561175"><ele>321.0</ele><time>2026-04-25T09:59:08.533Z</time></trkpt><trkpt lat="43.613205" lon="12.5612283"><ele>321.0</ele><time>2026-04-25T09:59:09.532Z</time></trkpt><trkpt lat="43.61311" lon="12.56127"><ele>321.0</ele><time>2026-04-25T09:59:10.534Z</time></trkpt><trkpt lat="43.6130233" lon="12.5612933"><ele>321.0</ele><time>2026-04-25T09:59:11.535Z</time></trkpt><trkpt lat="43.612945" lon="12.5612967"><ele>321.0</ele><time>2026-04-25T09:59:12.53Z</time></trkpt><trkpt lat="43.6128667" lon="12.56128"><ele>321.0</ele><time>2026-04-25T09:59:13.532Z</time></trkpt><trkpt lat="43.6128117" lon="12.5612217"><ele>321.0</ele><time>2026-04-25T09:59:14.534Z</time></trkpt><trkpt lat="43.61277" lon="12.5611367"><ele>317.0</ele><time>2026-04-25T09:59:15.531Z</time></trkpt><trkpt lat="43.61275" lon="12.561035"><ele>313.0</ele><time>2026-04-25T09:59:16.531Z</time></trkpt><trkpt lat="43.6127183" lon="12.56094"><ele>309.0</ele><time>2026-04-25T09:59:17.53Z</time></trkpt><trkpt lat="43.61268" lon="12.5608583"><ele>305.0</ele><time>2026-04-25T09:59:18.53Z</time></trkpt><trkpt lat="43.6124767" lon="12.5607933"><ele>301.0</ele><time>2026-04-25T09:59:21.532Z</time></trkpt><trkpt lat="43.6123733" lon="12.5608317"><ele>301.0</ele><time>2026-04-25T09:59:22.531Z</time></trkpt><trkpt lat="43.6122583" lon="12.5608767"><ele>301.0</ele><time>2026-04-25T09:59:23.534Z</time></trkpt><trkpt lat="43.6121433" lon="12.5609133"><ele>301.0</ele><time>2026-04-25T09:59:24.534Z</time></trkpt><trkpt lat="43.6120283" lon="12.56094"><ele>301.0</ele><time>2026-04-25T09:59:25.531Z</time></trkpt><trkpt lat="43.6119167" lon="12.5609533"><ele>301.0</ele><time>2026-04-25T09:59:26.53Z</time></trkpt><trkpt lat="43.611805" lon="12.560955"><ele>301.0</ele><time>2026-04-25T09:59:27.53Z</time></trkpt><trkpt lat="43.61169" lon="12.56096"><ele>301.0</ele><time>2026-04-25T09:59:28.531Z</time></trkpt><trkpt lat="43.6115767" lon="12.5609817"><ele>301.0</ele><time>2026-04-25T09:59:29.532Z</time></trkpt><trkpt lat="43.6114567" lon="12.5610233"><ele>301.0</ele><time>2026-04-25T09:59:30.531Z</time></trkpt><trkpt lat="43.61133" lon="12.5610983"><ele>301.0</ele><time>2026-04-25T09:59:31.533Z</time></trkpt><trkpt lat="43.6112" lon="12.5611983"><ele>301.0</ele><time>2026-04-25T09:59:32.534Z</time></trkpt><trkpt lat="43.6110767" lon="12.561295"><ele>301.0</ele><time>2026-04-25T09:59:33.532Z</time></trkpt><trkpt lat="43.6109583" lon="12.56138"><ele>297.40000000000003</ele><time>2026-04-25T09:59:34.535Z</time></trkpt><trkpt lat="43.61085" lon="12.5614583"><ele>293.8</ele><time>2026-04-25T09:59:35.531Z</time></trkpt><trkpt lat="43.6107583" lon="12.56153"><ele>290.20000000000005</ele><time>2026-04-25T09:59:36.532Z</time></trkpt><trkpt lat="43.610685" lon="12.5615983"><ele>286.6</ele><time>2026-04-25T09:59:37.532Z</time></trkpt><trkpt lat="43.6106267" lon="12.5616767"><ele>283.0</ele><time>2026-04-25T09:59:38.534Z</time></trkpt><trkpt lat="43.6105867" lon="12.5617683"><ele>283.0</ele><time>2026-04-25T09:59:39.531Z</time></trkpt><trkpt lat="43.610595" lon="12.5620267"><ele>283.0</ele><time>2026-04-25T09:59:41.534Z</time></trkpt><trkpt lat="43.6106167" lon="12.5621583"><ele>283.0</ele><time>2026-04-25T09:59:42.531Z</time></trkpt><trkpt lat="43.6106733" lon="12.5623"><ele>283.0</ele><time>2026-04-25T09:59:43.532Z</time></trkpt><trkpt lat="43.610775" lon="12.5624533"><ele>283.0</ele><time>2026-04-25T09:59:44.532Z</time></trkpt><trkpt lat="43.61087" lon="12.5625867"><ele>283.0</ele><time>2026-04-25T09:59:45.532Z</time></trkpt><trkpt lat="43.610965" lon="12.5627033"><ele>283.0</ele><time>2026-04-25T09:59:46.535Z</time></trkpt><trkpt lat="43.611065" lon="12.5628033"><ele>283.0</ele><time>2026-04-25T09:59:47.533Z</time></trkpt><trkpt lat="43.6111633" lon="12.5629017"><ele>284.75</ele><time>2026-04-25T09:59:48.534Z</time></trkpt><trkpt lat="43.6113467" lon="12.5630683"><ele>286.5</ele><time>2026-04-25T09:59:50.531Z</time></trkpt><trkpt lat="43.6114333" lon="12.5631483"><ele>288.25</ele><time>2026-04-25T09:59:51.53Z</time></trkpt><trkpt lat="43.611525" lon="12.56323"><ele>290.0</ele><time>2026-04-25T09:59:52.531Z</time></trkpt><trkpt lat="43.611625" lon="12.56332"><ele>290.0</ele><time>2026-04-25T09:59:53.531Z</time></trkpt><trkpt lat="43.6117317" lon="12.5634117"><ele>290.0</ele><time>2026-04-25T09:59:54.531Z</time></trkpt><trkpt lat="43.6118483" lon="12.563485"><ele>290.0</ele><time>2026-04-25T09:59:55.531Z</time></trkpt><trkpt lat="43.6119683" lon="12.5635433"><ele>290.0</ele><time>2026-04-25T09:59:56.531Z</time></trkpt><trkpt lat="43.6120867" lon="12.5635883"><ele>290.75</ele><time>2026-04-25T09:59:57.53Z</time></trkpt><trkpt lat="43.61221" lon="12.5636333"><ele>291.5</ele><time>2026-04-25T09:59:58.533Z</time></trkpt><trkpt lat="43.6123383" lon="12.5636667"><ele>292.25</ele><time>2026-04-25T09:59:59.531Z</time></trkpt><trkpt lat="43.6124733" lon="12.5636717"><ele>293.0</ele><time>2026-04-25T10:00:00.531Z</time></trkpt><trkpt lat="43.61274" lon="12.5636017"><ele>294.75</ele><time>2026-04-25T10:00:02.531Z</time></trkpt><trkpt lat="43.6128667" lon="12.5635467"><ele>296.5</ele><time>2026-04-25T10:00:03.531Z</time></trkpt><trkpt lat="43.6129883" lon="12.5634967"><ele>298.25</ele><time>2026-04-25T10:00:04.531Z</time></trkpt><trkpt lat="43.6131083" lon="12.563455"><ele>300.0</ele><time>2026-04-25T10:00:05.531Z</time></trkpt><trkpt lat="43.6132217" lon="12.5634267"><ele>300.0</ele><time>2026-04-25T10:00:06.531Z</time></trkpt><trkpt lat="43.6133183" lon="12.563405"><ele>300.0</ele><time>2026-04-25T10:00:07.531Z</time></trkpt><trkpt lat="43.6134017" lon="12.5633917"><ele>300.0</ele><time>2026-04-25T10:00:08.53Z</time></trkpt><trkpt lat="43.613475" lon="12.5633967"><ele>300.0</ele><time>2026-04-25T10:00:09.531Z</time></trkpt><trkpt lat="43.6135367" lon="12.5634217"><ele>300.0</ele><time>2026-04-25T10:00:10.531Z</time></trkpt><trkpt lat="43.6136067" lon="12.56357"><ele>300.0</ele><time>2026-04-25T10:00:12.535Z</time></trkpt><trkpt lat="43.6136" lon="12.563675"><ele>302.0</ele><time>2026-04-25T10:00:13.531Z</time></trkpt><trkpt lat="43.6135567" lon="12.5637967"><ele>304.0</ele><time>2026-04-25T10:00:14.534Z</time></trkpt><trkpt lat="43.6135" lon="12.5638983"><ele>306.0</ele><time>2026-04-25T10:00:15.533Z</time></trkpt><trkpt lat="43.6133933" lon="12.5639883"><ele>308.0</ele><time>2026-04-25T10:00:16.533Z</time></trkpt><trkpt lat="43.6132817" lon="12.5641233"><ele>308.0</ele><time>2026-04-25T10:00:17.533Z</time></trkpt><trkpt lat="43.6131683" lon="12.56427"><ele>308.0</ele><time>2026-04-25T10:00:18.533Z</time></trkpt><trkpt lat="43.6130617" lon="12.5644283"><ele>308.0</ele><time>2026-04-25T10:00:19.534Z</time></trkpt><trkpt lat="43.6129783" lon="12.56458"><ele>303.6666666666667</ele><time>2026-04-25T10:00:20.535Z</time></trkpt><trkpt lat="43.612915" lon="12.5647383"><ele>299.3333333333333</ele><time>2026-04-25T10:00:21.534Z</time></trkpt><trkpt lat="43.61282" lon="12.56509"><ele>295.0</ele><time>2026-04-25T10:00:23.532Z</time></trkpt><trkpt lat="43.6127833" lon="12.5652733"><ele>295.75</ele><time>2026-04-25T10:00:24.534Z</time></trkpt><trkpt lat="43.612755" lon="12.5654567"><ele>296.5</ele><time>2026-04-25T10:00:25.531Z</time></trkpt><trkpt lat="43.61274" lon="12.5656383"><ele>297.25</ele><time>2026-04-25T10:00:26.535Z</time></trkpt><trkpt lat="43.6127383" lon="12.56582"><ele>298.0</ele><time>2026-04-25T10:00:27.531Z</time></trkpt><trkpt lat="43.61274" lon="12.5659983"><ele>298.0</ele><time>2026-04-25T10:00:28.531Z</time></trkpt><trkpt lat="43.6127283" lon="12.56618"><ele>298.0</ele><time>2026-04-25T10:00:29.531Z</time></trkpt><trkpt lat="43.6127" lon="12.5663617"><ele>298.0</ele><time>2026-04-25T10:00:30.531Z</time></trkpt><trkpt lat="43.612655" lon="12.5665383"><ele>298.0</ele><time>2026-04-25T10:00:31.531Z</time></trkpt><trkpt lat="43.61259" lon="12.566705"><ele>297.75</ele><time>2026-04-25T10:00:32.532Z</time></trkpt><trkpt lat="43.6125167" lon="12.5668533"><ele>297.5</ele><time>2026-04-25T10:00:33.531Z</time></trkpt><trkpt lat="43.612445" lon="12.5669983"><ele>297.25</ele><time>2026-04-25T10:00:34.532Z</time></trkpt><trkpt lat="43.612385" lon="12.5671567"><ele>297.0</ele><time>2026-04-25T10:00:35.531Z</time></trkpt><trkpt lat="43.612335" lon="12.5673133"><ele>299.5</ele><time>2026-04-25T10:00:36.532Z</time></trkpt><trkpt lat="43.6122783" lon="12.5674683"><ele>302.0</ele><time>2026-04-25T10:00:37.531Z</time></trkpt><trkpt lat="43.6122033" lon="12.5676117"><ele>304.5</ele><time>2026-04-25T10:00:38.532Z</time></trkpt><trkpt lat="43.61211" lon="12.5677483"><ele>307.0</ele><time>2026-04-25T10:00:39.532Z</time></trkpt><trkpt lat="43.6119967" lon="12.5678833"><ele>305.66666666666663</ele><time>2026-04-25T10:00:40.531Z</time></trkpt><trkpt lat="43.6118783" lon="12.5680183"><ele>304.3333333333333</ele><time>2026-04-25T10:00:41.536Z</time></trkpt><trkpt lat="43.6117533" lon="12.5681567"><ele>303.0</ele><time>2026-04-25T10:00:42.534Z</time></trkpt><trkpt lat="43.611515" lon="12.56841"><ele>303.0</ele><time>2026-04-25T10:00:44.534Z</time></trkpt><trkpt lat="43.6114183" lon="12.568555"><ele>303.0</ele><time>2026-04-25T10:00:45.534Z</time></trkpt><trkpt lat="43.6113383" lon="12.5687083"><ele>303.0</ele><time>2026-04-25T10:00:46.534Z</time></trkpt><trkpt lat="43.6112733" lon="12.5688583"><ele>303.0</ele><time>2026-04-25T10:00:47.531Z</time></trkpt><trkpt lat="43.6112267" lon="12.569005"><ele>299.75</ele><time>2026-04-25T10:00:48.534Z</time></trkpt><trkpt lat="43.6111933" lon="12.5691533"><ele>296.5</ele><time>2026-04-25T10:00:49.531Z</time></trkpt><trkpt lat="43.61117" lon="12.5693183"><ele>293.25</ele><time>2026-04-25T10:00:50.537Z</time></trkpt><trkpt lat="43.6111533" lon="12.569495"><ele>290.0</ele><time>2026-04-25T10:00:51.53Z</time></trkpt><trkpt lat="43.61113" lon="12.5696817"><ele>290.0</ele><time>2026-04-25T10:00:52.532Z</time></trkpt><trkpt lat="43.6110917" lon="12.5698783"><ele>290.0</ele><time>2026-04-25T10:00:53.534Z</time></trkpt><trkpt lat="43.611055" lon="12.570085"><ele>290.0</ele><time>2026-04-25T10:00:54.534Z</time></trkpt><trkpt lat="43.61102" lon="12.5703033"><ele>291.0</ele><time>2026-04-25T10:00:55.534Z</time></trkpt><trkpt lat="43.6109983" lon="12.5705467"><ele>292.0</ele><time>2026-04-25T10:00:56.534Z</time></trkpt><trkpt lat="43.6109883" lon="12.5707933"><ele>293.0</ele><time>2026-04-25T10:00:57.531Z</time></trkpt><trkpt lat="43.6109817" lon="12.571025"><ele>291.5</ele><time>2026-04-25T10:00:58.532Z</time></trkpt><trkpt lat="43.6109767" lon="12.5712383"><ele>290.0</ele><time>2026-04-25T10:00:59.535Z</time></trkpt><trkpt lat="43.610965" lon="12.5714383"><ele>288.5</ele><time>2026-04-25T10:01:00.533Z</time></trkpt><trkpt lat="43.61094" lon="12.5716317"><ele>287.0</ele><time>2026-04-25T10:01:01.532Z</time></trkpt><trkpt lat="43.6109017" lon="12.5718267"><ele>286.6666666666667</ele><time>2026-04-25T10:01:02.532Z</time></trkpt><trkpt lat="43.610865" lon="12.5720333"><ele>286.3333333333333</ele><time>2026-04-25T10:01:03.532Z</time></trkpt><trkpt lat="43.6108067" lon="12.57241"><ele>286.0</ele><time>2026-04-25T10:01:05.533Z</time></trkpt><trkpt lat="43.6107883" lon="12.5725817"><ele>286.0</ele><time>2026-04-25T10:01:06.533Z</time></trkpt><trkpt lat="43.61078" lon="12.5727233"><ele>286.0</ele><time>2026-04-25T10:01:07.532Z</time></trkpt><trkpt lat="43.610775" lon="12.5728467"><ele>286.0</ele><time>2026-04-25T10:01:08.534Z</time></trkpt><trkpt lat="43.610775" lon="12.572955"><ele>286.0</ele><time>2026-04-25T10:01:09.532Z</time></trkpt><trkpt lat="43.6107917" lon="12.57307"><ele>286.0</ele><time>2026-04-25T10:01:10.533Z</time></trkpt><trkpt lat="43.6108367" lon="12.573185"><ele>284.75</ele><time>2026-04-25T10:01:11.533Z</time></trkpt><trkpt lat="43.6108917" lon="12.5733233"><ele>283.5</ele><time>2026-04-25T10:01:12.532Z</time></trkpt><trkpt lat="43.6109283" lon="12.5734683"><ele>282.25</ele><time>2026-04-25T10:01:13.533Z</time></trkpt><trkpt lat="43.6109733" lon="12.5736083"><ele>281.0</ele><time>2026-04-25T10:01:14.534Z</time></trkpt><trkpt lat="43.6110433" lon="12.5737483"><ele>279.0</ele><time>2026-04-25T10:01:15.532Z</time></trkpt><trkpt lat="43.6111267" lon="12.5738817"><ele>277.0</ele><time>2026-04-25T10:01:16.532Z</time></trkpt><trkpt lat="43.6112167" lon="12.5740083"><ele>275.0</ele><time>2026-04-25T10:01:17.531Z</time></trkpt><trkpt lat="43.6113067" lon="12.57414"><ele>273.0</ele><time>2026-04-25T10:01:18.531Z</time></trkpt><trkpt lat="43.611395" lon="12.5742717"><ele>275.0</ele><time>2026-04-25T10:01:19.531Z</time></trkpt><trkpt lat="43.61148" lon="12.5743933"><ele>277.0</ele><time>2026-04-25T10:01:20.531Z</time></trkpt><trkpt lat="43.61156" lon="12.5745017"><ele>279.0</ele><time>2026-04-25T10:01:21.532Z</time></trkpt><trkpt lat="43.6116333" lon="12.5746083"><ele>281.0</ele><time>2026-04-25T10:01:22.532Z</time></trkpt><trkpt lat="43.611695" lon="12.57472"><ele>283.0</ele><time>2026-04-25T10:01:23.533Z</time></trkpt><trkpt lat="43.6117283" lon="12.5748383"><ele>283.0</ele><time>2026-04-25T10:01:24.533Z</time></trkpt><trkpt lat="43.6117217" lon="12.5750767"><ele>283.0</ele><time>2026-04-25T10:01:26.532Z</time></trkpt><trkpt lat="43.6117083" lon="12.5752017"><ele>283.0</ele><time>2026-04-25T10:01:27.532Z</time></trkpt><trkpt lat="43.6117133" lon="12.575345"><ele>283.0</ele><time>2026-04-25T10:01:28.533Z</time></trkpt><trkpt lat="43.6117417" lon="12.57552"><ele>281.66666666666663</ele><time>2026-04-25T10:01:29.532Z</time></trkpt><trkpt lat="43.611785" lon="12.57572"><ele>280.3333333333333</ele><time>2026-04-25T10:01:30.531Z</time></trkpt><trkpt lat="43.6118333" lon="12.5759233"><ele>279.0</ele><time>2026-04-25T10:01:31.533Z</time></trkpt><trkpt lat="43.6118867" lon="12.5761217"><ele>279.59999999999997</ele><time>2026-04-25T10:01:32.531Z</time></trkpt><trkpt lat="43.6119433" lon="12.5762833"><ele>280.2</ele><time>2026-04-25T10:01:33.531Z</time></trkpt><trkpt lat="43.6119883" lon="12.5764183"><ele>280.79999999999995</ele><time>2026-04-25T10:01:34.535Z</time></trkpt><trkpt lat="43.6120217" lon="12.5765417"><ele>281.4</ele><time>2026-04-25T10:01:35.533Z</time></trkpt><trkpt lat="43.6120417" lon="12.5766783"><ele>282.0</ele><time>2026-04-25T10:01:36.535Z</time></trkpt><trkpt lat="43.61205" lon="12.5768283"><ele>288.5</ele><time>2026-04-25T10:01:37.533Z</time></trkpt><trkpt lat="43.6120583" lon="12.5769917"><ele>295.0</ele><time>2026-04-25T10:01:38.533Z</time></trkpt><trkpt lat="43.6120733" lon="12.5771683"><ele>301.5</ele><time>2026-04-25T10:01:39.533Z</time></trkpt><trkpt lat="43.6120967" lon="12.5773483"><ele>308.0</ele><time>2026-04-25T10:01:40.537Z</time></trkpt><trkpt lat="43.6121167" lon="12.5775317"><ele>308.0</ele><time>2026-04-25T10:01:41.533Z</time></trkpt><trkpt lat="43.612135" lon="12.57771"><ele>308.0</ele><time>2026-04-25T10:01:42.531Z</time></trkpt><trkpt lat="43.61215" lon="12.5778917"><ele>308.0</ele><time>2026-04-25T10:01:43.532Z</time></trkpt><trkpt lat="43.6121617" lon="12.5780767"><ele>308.0</ele><time>2026-04-25T10:01:44.533Z</time></trkpt><trkpt lat="43.6121667" lon="12.5782583"><ele>305.75</ele><time>2026-04-25T10:01:45.533Z</time></trkpt><trkpt lat="43.6121617" lon="12.5785817"><ele>303.5</ele><time>2026-04-25T10:01:47.533Z</time></trkpt><trkpt lat="43.612155" lon="12.578715"><ele>301.25</ele><time>2026-04-25T10:01:48.531Z</time></trkpt><trkpt lat="43.6121317" lon="12.5788317"><ele>299.0</ele><time>2026-04-25T10:01:49.534Z</time></trkpt><trkpt lat="43.6120967" lon="12.5789367"><ele>296.8</ele><time>2026-04-25T10:01:50.531Z</time></trkpt><trkpt lat="43.61204" lon="12.5790283"><ele>294.59999999999997</ele><time>2026-04-25T10:01:51.531Z</time></trkpt><trkpt lat="43.611965" lon="12.5790783"><ele>292.4</ele><time>2026-04-25T10:01:52.531Z</time></trkpt><trkpt lat="43.6118633" lon="12.5791067"><ele>290.2</ele><time>2026-04-25T10:01:53.535Z</time></trkpt><trkpt lat="43.6117617" lon="12.579135"><ele>288.0</ele><time>2026-04-25T10:01:54.534Z</time></trkpt><trkpt lat="43.611645" lon="12.579155"><ele>286.1666666666667</ele><time>2026-04-25T10:01:55.538Z</time></trkpt><trkpt lat="43.6115383" lon="12.5791583"><ele>284.3333333333333</ele><time>2026-04-25T10:01:56.534Z</time></trkpt><trkpt lat="43.6114367" lon="12.579155"><ele>282.5</ele><time>2026-04-25T10:01:57.532Z</time></trkpt><trkpt lat="43.61136" lon="12.57915"><ele>280.66666666666663</ele><time>2026-04-25T10:01:58.535Z</time></trkpt><trkpt lat="43.61129" lon="12.5791483"><ele>278.8333333333333</ele><time>2026-04-25T10:01:59.534Z</time></trkpt><trkpt lat="43.611215" lon="12.579195"><ele>277.0</ele><time>2026-04-25T10:02:01.533Z</time></trkpt><trkpt lat="43.6112767" lon="12.5792267"><ele>277.0</ele><time>2026-04-25T10:02:04.534Z</time></trkpt><trkpt lat="43.6113717" lon="12.579245"><ele>277.0</ele><time>2026-04-25T10:02:15.534Z</time></trkpt><trkpt lat="43.61158" lon="12.579335"><ele>277.0</ele><time>2026-04-25T10:02:18.532Z</time></trkpt><trkpt lat="43.611685" lon="12.5794033"><ele>277.0</ele><time>2026-04-25T10:02:19.533Z</time></trkpt><trkpt lat="43.6118017" lon="12.5794767"><ele>277.66666666666663</ele><time>2026-04-25T10:02:20.532Z</time></trkpt><trkpt lat="43.6119383" lon="12.5795433"><ele>278.3333333333333</ele><time>2026-04-25T10:02:21.531Z</time></trkpt><trkpt lat="43.612085" lon="12.5796017"><ele>279.0</ele><time>2026-04-25T10:02:22.532Z</time></trkpt><trkpt lat="43.612235" lon="12.5796583"><ele>281.0</ele><time>2026-04-25T10:02:23.532Z</time></trkpt><trkpt lat="43.6123817" lon="12.5797117"><ele>283.0</ele><time>2026-04-25T10:02:24.534Z</time></trkpt><trkpt lat="43.6125233" lon="12.5797683"><ele>285.0</ele><time>2026-04-25T10:02:25.531Z</time></trkpt><trkpt lat="43.6126667" lon="12.5798133"><ele>287.0</ele><time>2026-04-25T10:02:26.532Z</time></trkpt><trkpt lat="43.61281" lon="12.5798483"><ele>289.5</ele><time>2026-04-25T10:02:27.533Z</time></trkpt><trkpt lat="43.61295" lon="12.5798633"><ele>292.0</ele><time>2026-04-25T10:02:28.534Z</time></trkpt><trkpt lat="43.6130867" lon="12.57986"><ele>294.5</ele><time>2026-04-25T10:02:29.533Z</time></trkpt><trkpt lat="43.61321" lon="12.5798467"><ele>297.0</ele><time>2026-04-25T10:02:30.534Z</time></trkpt><trkpt lat="43.6133283" lon="12.57982"><ele>297.0</ele><time>2026-04-25T10:02:31.537Z</time></trkpt><trkpt lat="43.6134417" lon="12.579765"><ele>297.0</ele><time>2026-04-25T10:02:32.533Z</time></trkpt><trkpt lat="43.6135533" lon="12.5796783"><ele>297.0</ele><time>2026-04-25T10:02:33.533Z</time></trkpt><trkpt lat="43.613665" lon="12.5795883"><ele>297.0</ele><time>2026-04-25T10:02:34.533Z</time></trkpt><trkpt lat="43.6137817" lon="12.5795183"><ele>297.6666666666667</ele><time>2026-04-25T10:02:35.533Z</time></trkpt><trkpt lat="43.613905" lon="12.5794767"><ele>298.33333333333337</ele><time>2026-04-25T10:02:36.536Z</time></trkpt><trkpt lat="43.614145" lon="12.57946"><ele>299.0</ele><time>2026-04-25T10:02:38.532Z</time></trkpt><trkpt lat="43.6142483" lon="12.5794683"><ele>299.0</ele><time>2026-04-25T10:02:39.532Z</time></trkpt><trkpt lat="43.6143383" lon="12.5795133"><ele>299.0</ele><time>2026-04-25T10:02:40.534Z</time></trkpt><trkpt lat="43.614415" lon="12.579605"><ele>299.0</ele><time>2026-04-25T10:02:41.533Z</time></trkpt><trkpt lat="43.6144867" lon="12.579745"><ele>299.0</ele><time>2026-04-25T10:02:42.534Z</time></trkpt><trkpt lat="43.6145567" lon="12.5798833"><ele>299.0</ele><time>2026-04-25T10:02:43.531Z</time></trkpt><trkpt lat="43.6146333" lon="12.5800033"><ele>300.75</ele><time>2026-04-25T10:02:44.531Z</time></trkpt><trkpt lat="43.61473" lon="12.580095"><ele>302.5</ele><time>2026-04-25T10:02:45.531Z</time></trkpt><trkpt lat="43.61485" lon="12.58015"><ele>304.25</ele><time>2026-04-25T10:02:46.532Z</time></trkpt><trkpt lat="43.614965" lon="12.5802183"><ele>306.0</ele><time>2026-04-25T10:02:47.531Z</time></trkpt><trkpt lat="43.6150633" lon="12.580315"><ele>307.5</ele><time>2026-04-25T10:02:48.533Z</time></trkpt><trkpt lat="43.61514" lon="12.5804667"><ele>309.0</ele><time>2026-04-25T10:02:49.531Z</time></trkpt><trkpt lat="43.6152083" lon="12.58064"><ele>310.5</ele><time>2026-04-25T10:02:50.531Z</time></trkpt><trkpt lat="43.6152783" lon="12.5808133"><ele>312.0</ele><time>2026-04-25T10:02:51.531Z</time></trkpt><trkpt lat="43.61536" lon="12.5809733"><ele>314.0</ele><time>2026-04-25T10:02:52.534Z</time></trkpt><trkpt lat="43.6154517" lon="12.5811167"><ele>316.0</ele><time>2026-04-25T10:02:53.532Z</time></trkpt><trkpt lat="43.6155483" lon="12.58125"><ele>318.0</ele><time>2026-04-25T10:02:54.533Z</time></trkpt><trkpt lat="43.6156433" lon="12.5813567"><ele>320.0</ele><time>2026-04-25T10:02:55.531Z</time></trkpt><trkpt lat="43.6157483" lon="12.5814317"><ele>322.0</ele><time>2026-04-25T10:02:56.531Z</time></trkpt><trkpt lat="43.615865" lon="12.5814533"><ele>324.0</ele><time>2026-04-25T10:02:57.532Z</time></trkpt><trkpt lat="43.6160933" lon="12.5814817"><ele>326.0</ele><time>2026-04-25T10:02:59.534Z</time></trkpt><trkpt lat="43.6161917" lon="12.5815383"><ele>328.6</ele><time>2026-04-25T10:03:00.532Z</time></trkpt><trkpt lat="43.616285" lon="12.581605"><ele>331.20000000000005</ele><time>2026-04-25T10:03:01.531Z</time></trkpt><trkpt lat="43.61639" lon="12.5816517"><ele>333.79999999999995</ele><time>2026-04-25T10:03:02.533Z</time></trkpt><trkpt lat="43.6165033" lon="12.581665"><ele>336.4</ele><time>2026-04-25T10:03:03.531Z</time></trkpt><trkpt lat="43.6166167" lon="12.5816317"><ele>339.0</ele><time>2026-04-25T10:03:04.533Z</time></trkpt><trkpt lat="43.6167467" lon="12.581565"><ele>339.0</ele><time>2026-04-25T10:03:05.531Z</time></trkpt><trkpt lat="43.61689" lon="12.5815017"><ele>339.0</ele><time>2026-04-25T10:03:06.533Z</time></trkpt><trkpt lat="43.6170433" lon="12.5814483"><ele>339.0</ele><time>2026-04-25T10:03:07.532Z</time></trkpt><trkpt lat="43.6172" lon="12.5813967"><ele>342.3333333333333</ele><time>2026-04-25T10:03:08.531Z</time></trkpt><trkpt lat="43.6173483" lon="12.5813517"><ele>345.66666666666663</ele><time>2026-04-25T10:03:09.532Z</time></trkpt><trkpt lat="43.617495" lon="12.5813117"><ele>349.0</ele><time>2026-04-25T10:03:10.534Z</time></trkpt><trkpt lat="43.617645" lon="12.5812917"><ele>349.0</ele><time>2026-04-25T10:03:11.531Z</time></trkpt><trkpt lat="43.6177967" lon="12.5812917"><ele>349.0</ele><time>2026-04-25T10:03:12.535Z</time></trkpt><trkpt lat="43.617955" lon="12.5813"><ele>349.0</ele><time>2026-04-25T10:03:13.532Z</time></trkpt><trkpt lat="43.618115" lon="12.5813167"><ele>353.0</ele><time>2026-04-25T10:03:14.531Z</time></trkpt><trkpt lat="43.6182783" lon="12.5813233"><ele>357.0</ele><time>2026-04-25T10:03:15.533Z</time></trkpt><trkpt lat="43.6184383" lon="12.581325"><ele>361.0</ele><time>2026-04-25T10:03:16.535Z</time></trkpt><trkpt lat="43.6185867" lon="12.581325"><ele>364.20000000000005</ele><time>2026-04-25T10:03:17.537Z</time></trkpt><trkpt lat="43.6187067" lon="12.581325"><ele>367.40000000000003</ele><time>2026-04-25T10:03:18.534Z</time></trkpt><trkpt lat="43.6188817" lon="12.5813133"><ele>370.6</ele><time>2026-04-25T10:03:20.533Z</time></trkpt><trkpt lat="43.618945" lon="12.581325"><ele>373.8</ele><time>2026-04-25T10:03:21.533Z</time></trkpt><trkpt lat="43.6189933" lon="12.5814217"><ele>377.0</ele><time>2026-04-25T10:03:23.531Z</time></trkpt><trkpt lat="43.6189417" lon="12.5816017"><ele>377.0</ele><time>2026-04-25T10:03:25.531Z</time></trkpt><trkpt lat="43.618895" lon="12.5817233"><ele>377.0</ele><time>2026-04-25T10:03:26.532Z</time></trkpt><trkpt lat="43.6188717" lon="12.5818417"><ele>377.0</ele><time>2026-04-25T10:03:27.531Z</time></trkpt><trkpt lat="43.61887" lon="12.5819667"><ele>377.0</ele><time>2026-04-25T10:03:28.531Z</time></trkpt><trkpt lat="43.61891" lon="12.5820667"><ele>377.0</ele><time>2026-04-25T10:03:29.531Z</time></trkpt><trkpt lat="43.6189417" lon="12.5821567"><ele>377.0</ele><time>2026-04-25T10:03:30.532Z</time></trkpt><trkpt lat="43.6190217" lon="12.5821583"><ele>377.0</ele><time>2026-04-25T10:03:32.537Z</time></trkpt><trkpt lat="43.61912" lon="12.5820483"><ele>377.0</ele><time>2026-04-25T10:03:34.532Z</time></trkpt><trkpt lat="43.6191883" lon="12.5819983"><ele>377.0</ele><time>2026-04-25T10:03:35.532Z</time></trkpt><trkpt lat="43.61926" lon="12.5819783"><ele>377.0</ele><time>2026-04-25T10:03:36.531Z</time></trkpt><trkpt lat="43.619375" lon="12.5819233"><ele>377.0</ele><time>2026-04-25T10:03:38.533Z</time></trkpt><trkpt lat="43.61942" lon="12.5820583"><ele>381.33333333333337</ele><time>2026-04-25T10:03:40.535Z</time></trkpt><trkpt lat="43.6194067" lon="12.5824383"><ele>385.6666666666667</ele><time>2026-04-25T10:03:42.533Z</time></trkpt><trkpt lat="43.6194" lon="12.5826417"><ele>390.0</ele><time>2026-04-25T10:03:43.533Z</time></trkpt><trkpt lat="43.6193983" lon="12.5828483"><ele>391.75</ele><time>2026-04-25T10:03:44.534Z</time></trkpt><trkpt lat="43.61941" lon="12.583025"><ele>393.5</ele><time>2026-04-25T10:03:45.532Z</time></trkpt><trkpt lat="43.6194317" lon="12.5832017"><ele>395.25</ele><time>2026-04-25T10:03:46.533Z</time></trkpt><trkpt lat="43.6194633" lon="12.5833817"><ele>397.0</ele><time>2026-04-25T10:03:47.533Z</time></trkpt><trkpt lat="43.6195117" lon="12.5835483"><ele>399.0</ele><time>2026-04-25T10:03:48.532Z</time></trkpt><trkpt lat="43.6195633" lon="12.583725"><ele>401.0</ele><time>2026-04-25T10:03:49.532Z</time></trkpt><trkpt lat="43.6196133" lon="12.5838967"><ele>403.0</ele><time>2026-04-25T10:03:50.531Z</time></trkpt><trkpt lat="43.6196467" lon="12.5840633"><ele>405.0</ele><time>2026-04-25T10:03:51.531Z</time></trkpt><trkpt lat="43.619655" lon="12.58422"><ele>405.0</ele><time>2026-04-25T10:03:52.533Z</time></trkpt><trkpt lat="43.6196383" lon="12.5843633"><ele>405.0</ele><time>2026-04-25T10:03:53.532Z</time></trkpt><trkpt lat="43.619595" lon="12.5845017"><ele>405.0</ele><time>2026-04-25T10:03:54.534Z</time></trkpt><trkpt lat="43.61952" lon="12.58464"><ele>405.0</ele><time>2026-04-25T10:03:55.531Z</time></trkpt><trkpt lat="43.6194233" lon="12.5847817"><ele>406.25</ele><time>2026-04-25T10:03:56.532Z</time></trkpt><trkpt lat="43.6193217" lon="12.5849233"><ele>407.5</ele><time>2026-04-25T10:03:57.531Z</time></trkpt><trkpt lat="43.6192267" lon="12.5850583"><ele>408.75</ele><time>2026-04-25T10:03:58.532Z</time></trkpt><trkpt lat="43.619145" lon="12.5851883"><ele>410.0</ele><time>2026-04-25T10:03:59.532Z</time></trkpt><trkpt lat="43.6190817" lon="12.5853217"><ele>413.0</ele><time>2026-04-25T10:04:00.532Z</time></trkpt><trkpt lat="43.6190517" lon="12.5854467"><ele>416.0</ele><time>2026-04-25T10:04:01.533Z</time></trkpt><trkpt lat="43.619075" lon="12.5857217"><ele>419.0</ele><time>2026-04-25T10:04:03.532Z</time></trkpt><trkpt lat="43.6191417" lon="12.5858833"><ele>422.0</ele><time>2026-04-25T10:04:04.532Z</time></trkpt><trkpt lat="43.6192067" lon="12.5860533"><ele>424.25</ele><time>2026-04-25T10:04:05.533Z</time></trkpt><trkpt lat="43.6192683" lon="12.5862367"><ele>426.5</ele><time>2026-04-25T10:04:06.532Z</time></trkpt><trkpt lat="43.6193333" lon="12.5864133"><ele>428.75</ele><time>2026-04-25T10:04:07.532Z</time></trkpt><trkpt lat="43.6194017" lon="12.5865833"><ele>431.0</ele><time>2026-04-25T10:04:08.531Z</time></trkpt><trkpt lat="43.6194683" lon="12.5867383"><ele>428.25</ele><time>2026-04-25T10:04:09.532Z</time></trkpt><trkpt lat="43.6195317" lon="12.5868967"><ele>425.5</ele><time>2026-04-25T10:04:10.532Z</time></trkpt><trkpt lat="43.6196083" lon="12.5870483"><ele>422.75</ele><time>2026-04-25T10:04:11.531Z</time></trkpt><trkpt lat="43.619695" lon="12.5872017"><ele>420.0</ele><time>2026-04-25T10:04:12.531Z</time></trkpt><trkpt lat="43.6197883" lon="12.5873617"><ele>420.0</ele><time>2026-04-25T10:04:13.532Z</time></trkpt><trkpt lat="43.6198883" lon="12.5875167"><ele>420.0</ele><time>2026-04-25T10:04:14.532Z</time></trkpt><trkpt lat="43.6199883" lon="12.5876683"><ele>420.0</ele><time>2026-04-25T10:04:15.531Z</time></trkpt><trkpt lat="43.6200967" lon="12.5878117"><ele>420.0</ele><time>2026-04-25T10:04:16.531Z</time></trkpt><trkpt lat="43.6202083" lon="12.58795"><ele>419.0</ele><time>2026-04-25T10:04:17.531Z</time></trkpt><trkpt lat="43.6203117" lon="12.5880883"><ele>418.0</ele><time>2026-04-25T10:04:18.532Z</time></trkpt><trkpt lat="43.6204" lon="12.5882317"><ele>417.0</ele><time>2026-04-25T10:04:19.532Z</time></trkpt><trkpt lat="43.6204767" lon="12.5883733"><ele>416.0</ele><time>2026-04-25T10:04:20.532Z</time></trkpt><trkpt lat="43.6205433" lon="12.5884967"><ele>415.25</ele><time>2026-04-25T10:04:21.53Z</time></trkpt><trkpt lat="43.6206" lon="12.5886067"><ele>414.5</ele><time>2026-04-25T10:04:22.533Z</time></trkpt><trkpt lat="43.620675" lon="12.5888117"><ele>413.75</ele><time>2026-04-25T10:04:24.531Z</time></trkpt><trkpt lat="43.62068" lon="12.5889033"><ele>413.0</ele><time>2026-04-25T10:04:25.532Z</time></trkpt><trkpt lat="43.6205667" lon="12.589005"><ele>411.25</ele><time>2026-04-25T10:04:27.53Z</time></trkpt><trkpt lat="43.6204517" lon="12.5890167"><ele>409.5</ele><time>2026-04-25T10:04:28.531Z</time></trkpt><trkpt lat="43.62033" lon="12.5890267"><ele>407.75</ele><time>2026-04-25T10:04:29.532Z</time></trkpt><trkpt lat="43.6201783" lon="12.5890533"><ele>406.0</ele><time>2026-04-25T10:04:30.532Z</time></trkpt><trkpt lat="43.6200083" lon="12.5890767"><ele>406.25</ele><time>2026-04-25T10:04:31.531Z</time></trkpt><trkpt lat="43.619845" lon="12.589105"><ele>406.5</ele><time>2026-04-25T10:04:32.533Z</time></trkpt><trkpt lat="43.6197067" lon="12.589145"><ele>406.75</ele><time>2026-04-25T10:04:33.53Z</time></trkpt><trkpt lat="43.6195817" lon="12.5892033"><ele>407.0</ele><time>2026-04-25T10:04:34.531Z</time></trkpt><trkpt lat="43.6194717" lon="12.5892783"><ele>407.0</ele><time>2026-04-25T10:04:35.531Z</time></trkpt><trkpt lat="43.6193767" lon="12.5893767"><ele>407.0</ele><time>2026-04-25T10:04:36.532Z</time></trkpt><trkpt lat="43.6193" lon="12.5895033"><ele>407.0</ele><time>2026-04-25T10:04:37.531Z</time></trkpt><trkpt lat="43.61923" lon="12.5896467"><ele>407.0</ele><time>2026-04-25T10:04:38.534Z</time></trkpt><trkpt lat="43.6191617" lon="12.5897983"><ele>403.25</ele><time>2026-04-25T10:04:39.532Z</time></trkpt><trkpt lat="43.6190917" lon="12.589955"><ele>399.5</ele><time>2026-04-25T10:04:40.531Z</time></trkpt><trkpt lat="43.61903" lon="12.590105"><ele>395.75</ele><time>2026-04-25T10:04:41.539Z</time></trkpt><trkpt lat="43.6189783" lon="12.5902617"><ele>392.0</ele><time>2026-04-25T10:04:42.532Z</time></trkpt><trkpt lat="43.6189367" lon="12.5904217"><ele>389.3333333333333</ele><time>2026-04-25T10:04:43.53Z</time></trkpt><trkpt lat="43.6189417" lon="12.5907583"><ele>386.66666666666663</ele><time>2026-04-25T10:04:45.532Z</time></trkpt><trkpt lat="43.6189917" lon="12.5909217"><ele>384.0</ele><time>2026-04-25T10:04:46.531Z</time></trkpt><trkpt lat="43.6190517" lon="12.5910767"><ele>385.75</ele><time>2026-04-25T10:04:47.532Z</time></trkpt><trkpt lat="43.6191167" lon="12.59122"><ele>387.5</ele><time>2026-04-25T10:04:48.532Z</time></trkpt><trkpt lat="43.6191933" lon="12.5913433"><ele>389.25</ele><time>2026-04-25T10:04:49.533Z</time></trkpt><trkpt lat="43.6192917" lon="12.5914267"><ele>391.0</ele><time>2026-04-25T10:04:50.532Z</time></trkpt><trkpt lat="43.6194" lon="12.591465"><ele>391.0</ele><time>2026-04-25T10:04:51.531Z</time></trkpt><trkpt lat="43.6195133" lon="12.5914583"><ele>391.0</ele><time>2026-04-25T10:04:52.531Z</time></trkpt><trkpt lat="43.6196267" lon="12.59144"><ele>391.0</ele><time>2026-04-25T10:04:53.533Z</time></trkpt><trkpt lat="43.6197367" lon="12.591425"><ele>391.0</ele><time>2026-04-25T10:04:54.531Z</time></trkpt><trkpt lat="43.6198333" lon="12.5914283"><ele>391.0</ele><time>2026-04-25T10:04:55.533Z</time></trkpt><trkpt lat="43.6199067" lon="12.5914517"><ele>391.0</ele><time>2026-04-25T10:04:56.532Z</time></trkpt><trkpt lat="43.61994" lon="12.5915583"><ele>391.0</ele><time>2026-04-25T10:04:58.531Z</time></trkpt><trkpt lat="43.6198683" lon="12.5916433"><ele>391.0</ele><time>2026-04-25T10:04:59.531Z</time></trkpt><trkpt lat="43.61976" lon="12.591785"><ele>391.0</ele><time>2026-04-25T10:05:00.532Z</time></trkpt><trkpt lat="43.6196467" lon="12.5919233"><ele>391.0</ele><time>2026-04-25T10:05:01.531Z</time></trkpt><trkpt lat="43.619545" lon="12.5920733"><ele>391.0</ele><time>2026-04-25T10:05:02.531Z</time></trkpt><trkpt lat="43.6194767" lon="12.5922017"><ele>391.0</ele><time>2026-04-25T10:05:03.531Z</time></trkpt><trkpt lat="43.6194367" lon="12.59234"><ele>391.0</ele><time>2026-04-25T10:05:04.531Z</time></trkpt><trkpt lat="43.6194483" lon="12.5926433"><ele>391.5</ele><time>2026-04-25T10:05:06.531Z</time></trkpt><trkpt lat="43.61948" lon="12.5928167"><ele>392.0</ele><time>2026-04-25T10:05:07.532Z</time></trkpt><trkpt lat="43.6195317" lon="12.592985"><ele>392.5</ele><time>2026-04-25T10:05:08.531Z</time></trkpt><trkpt lat="43.619585" lon="12.5931367"><ele>393.0</ele><time>2026-04-25T10:05:09.531Z</time></trkpt><trkpt lat="43.619625" lon="12.5932833"><ele>393.0</ele><time>2026-04-25T10:05:10.531Z</time></trkpt><trkpt lat="43.6196367" lon="12.5934367"><ele>393.0</ele><time>2026-04-25T10:05:11.531Z</time></trkpt><trkpt lat="43.619645" lon="12.5935967"><ele>393.0</ele><time>2026-04-25T10:05:12.531Z</time></trkpt><trkpt lat="43.619635" lon="12.5937767"><ele>393.0</ele><time>2026-04-25T10:05:13.532Z</time></trkpt><trkpt lat="43.6196167" lon="12.5939567"><ele>392.5</ele><time>2026-04-25T10:05:14.532Z</time></trkpt><trkpt lat="43.619595" lon="12.594125"><ele>392.0</ele><time>2026-04-25T10:05:15.531Z</time></trkpt><trkpt lat="43.6195733" lon="12.594285"><ele>391.5</ele><time>2026-04-25T10:05:16.535Z</time></trkpt><trkpt lat="43.6195717" lon="12.594445"><ele>391.0</ele><time>2026-04-25T10:05:17.531Z</time></trkpt><trkpt lat="43.6195833" lon="12.5946033"><ele>391.0</ele><time>2026-04-25T10:05:18.531Z</time></trkpt><trkpt lat="43.6196" lon="12.5947583"><ele>391.0</ele><time>2026-04-25T10:05:19.532Z</time></trkpt><trkpt lat="43.6196367" lon="12.5949167"><ele>391.0</ele><time>2026-04-25T10:05:20.53Z</time></trkpt><trkpt lat="43.6196767" lon="12.5950733"><ele>391.0</ele><time>2026-04-25T10:05:21.53Z</time></trkpt><trkpt lat="43.6197183" lon="12.5952267"><ele>390.0</ele><time>2026-04-25T10:05:22.534Z</time></trkpt><trkpt lat="43.6197633" lon="12.59537"><ele>389.0</ele><time>2026-04-25T10:05:23.531Z</time></trkpt><trkpt lat="43.619805" lon="12.5955017"><ele>388.0</ele><time>2026-04-25T10:05:24.532Z</time></trkpt><trkpt lat="43.6198433" lon="12.59562"><ele>387.0</ele><time>2026-04-25T10:05:25.534Z</time></trkpt><trkpt lat="43.6198933" lon="12.5958033"><ele>387.0</ele><time>2026-04-25T10:05:27.531Z</time></trkpt><trkpt lat="43.6199383" lon="12.5958983"><ele>387.0</ele><time>2026-04-25T10:05:29.533Z</time></trkpt><trkpt lat="43.6200133" lon="12.5959383"><ele>387.0</ele><time>2026-04-25T10:05:31.533Z</time></trkpt><trkpt lat="43.6201133" lon="12.5959583"><ele>387.0</ele><time>2026-04-25T10:05:33.532Z</time></trkpt><trkpt lat="43.62022" lon="12.59598"><ele>387.0</ele><time>2026-04-25T10:05:35.533Z</time></trkpt><trkpt lat="43.6203383" lon="12.595995"><ele>386.25</ele><time>2026-04-25T10:05:37.534Z</time></trkpt><trkpt lat="43.620455" lon="12.5959917"><ele>385.5</ele><time>2026-04-25T10:05:39.531Z</time></trkpt><trkpt lat="43.6205683" lon="12.5959867"><ele>384.75</ele><time>2026-04-25T10:05:41.531Z</time></trkpt><trkpt lat="43.6206783" lon="12.5959917"><ele>384.0</ele><time>2026-04-25T10:05:43.532Z</time></trkpt><trkpt lat="43.62079" lon="12.596025"><ele>384.0</ele><time>2026-04-25T10:05:45.532Z</time></trkpt><trkpt lat="43.6208983" lon="12.596105"><ele>384.0</ele><time>2026-04-25T10:05:47.532Z</time></trkpt><trkpt lat="43.6210033" lon="12.5962283"><ele>384.0</ele><time>2026-04-25T10:05:49.531Z</time></trkpt><trkpt lat="43.62106" lon="12.59631"><ele>384.0</ele><time>2026-04-25T10:05:50.531Z</time></trkpt><trkpt lat="43.6211217" lon="12.596405"><ele>384.0</ele><time>2026-04-25T10:05:51.531Z</time></trkpt><trkpt lat="43.6211867" lon="12.5965067"><ele>384.0</ele><time>2026-04-25T10:05:52.532Z</time></trkpt><trkpt lat="43.6212583" lon="12.5966083"><ele>384.0</ele><time>2026-04-25T10:05:53.531Z</time></trkpt><trkpt lat="43.6213367" lon="12.5967033"><ele>384.0</ele><time>2026-04-25T10:05:54.531Z</time></trkpt><trkpt lat="43.6214233" lon="12.5967933"><ele>384.0</ele><time>2026-04-25T10:05:55.531Z</time></trkpt><trkpt lat="43.6215167" lon="12.5968933"><ele>384.0</ele><time>2026-04-25T10:05:56.531Z</time></trkpt><trkpt lat="43.6216083" lon="12.5969967"><ele>384.2</ele><time>2026-04-25T10:05:57.531Z</time></trkpt><trkpt lat="43.6216833" lon="12.5971"><ele>384.4</ele><time>2026-04-25T10:05:58.531Z</time></trkpt><trkpt lat="43.6217483" lon="12.5972083"><ele>384.6</ele><time>2026-04-25T10:05:59.532Z</time></trkpt><trkpt lat="43.621805" lon="12.597325"><ele>384.8</ele><time>2026-04-25T10:06:00.532Z</time></trkpt><trkpt lat="43.6218533" lon="12.5974383"><ele>385.0</ele><time>2026-04-25T10:06:01.532Z</time></trkpt><trkpt lat="43.6219017" lon="12.59755"><ele>385.0</ele><time>2026-04-25T10:06:02.531Z</time></trkpt><trkpt lat="43.6219483" lon="12.5976617"><ele>385.0</ele><time>2026-04-25T10:06:03.532Z</time></trkpt><trkpt lat="43.6219967" lon="12.59777"><ele>385.0</ele><time>2026-04-25T10:06:04.532Z</time></trkpt><trkpt lat="43.62205" lon="12.597875"><ele>385.0</ele><time>2026-04-25T10:06:05.531Z</time></trkpt><trkpt lat="43.6221083" lon="12.5979767"><ele>385.0</ele><time>2026-04-25T10:06:06.532Z</time></trkpt><trkpt lat="43.62217" lon="12.59807"><ele>385.0</ele><time>2026-04-25T10:06:07.532Z</time></trkpt><trkpt lat="43.622235" lon="12.598145"><ele>385.0</ele><time>2026-04-25T10:06:08.531Z</time></trkpt><trkpt lat="43.6223883" lon="12.5982483"><ele>385.0</ele><time>2026-04-25T10:06:10.532Z</time></trkpt><trkpt lat="43.6224767" lon="12.5982617"><ele>385.0</ele><time>2026-04-25T10:06:11.532Z</time></trkpt><trkpt lat="43.6225783" lon="12.5982417"><ele>385.0</ele><time>2026-04-25T10:06:12.533Z</time></trkpt><trkpt lat="43.62268" lon="12.5982117"><ele>385.0</ele><time>2026-04-25T10:06:13.531Z</time></trkpt><trkpt lat="43.622785" lon="12.5981683"><ele>385.0</ele><time>2026-04-25T10:06:14.534Z</time></trkpt><trkpt lat="43.6228917" lon="12.5981233"><ele>385.0</ele><time>2026-04-25T10:06:15.531Z</time></trkpt><trkpt lat="43.6229933" lon="12.598075"><ele>385.0</ele><time>2026-04-25T10:06:16.532Z</time></trkpt><trkpt lat="43.62309" lon="12.59801"><ele>385.0</ele><time>2026-04-25T10:06:17.534Z</time></trkpt><trkpt lat="43.6231867" lon="12.59792"><ele>381.0</ele><time>2026-04-25T10:06:18.534Z</time></trkpt><trkpt lat="43.6232833" lon="12.5978167"><ele>377.0</ele><time>2026-04-25T10:06:19.531Z</time></trkpt><trkpt lat="43.623375" lon="12.5977083"><ele>373.0</ele><time>2026-04-25T10:06:20.532Z</time></trkpt><trkpt lat="43.6234583" lon="12.5976017"><ele>369.0</ele><time>2026-04-25T10:06:21.532Z</time></trkpt><trkpt lat="43.6235367" lon="12.5975"><ele>369.0</ele><time>2026-04-25T10:06:22.532Z</time></trkpt><trkpt lat="43.62361" lon="12.5974067"><ele>369.0</ele><time>2026-04-25T10:06:23.532Z</time></trkpt><trkpt lat="43.6236767" lon="12.5973167"><ele>369.0</ele><time>2026-04-25T10:06:24.531Z</time></trkpt><trkpt lat="43.6237433" lon="12.5972417"><ele>369.0</ele><time>2026-04-25T10:06:25.531Z</time></trkpt><trkpt lat="43.6238067" lon="12.5971833"><ele>369.0</ele><time>2026-04-25T10:06:26.531Z</time></trkpt><trkpt lat="43.62387" lon="12.59714"><ele>369.0</ele><time>2026-04-25T10:06:27.531Z</time></trkpt><trkpt lat="43.6239317" lon="12.5971117"><ele>367.25</ele><time>2026-04-25T10:06:28.534Z</time></trkpt><trkpt lat="43.6240483" lon="12.5971333"><ele>365.5</ele><time>2026-04-25T10:06:30.532Z</time></trkpt><trkpt lat="43.6241267" lon="12.5973483"><ele>363.75</ele><time>2026-04-25T10:06:34.531Z</time></trkpt><trkpt lat="43.6241183" lon="12.597445"><ele>362.0</ele><time>2026-04-25T10:06:35.533Z</time></trkpt><trkpt lat="43.6240983" lon="12.597565"><ele>362.0</ele><time>2026-04-25T10:06:36.533Z</time></trkpt><trkpt lat="43.6240733" lon="12.5977083"><ele>362.0</ele><time>2026-04-25T10:06:37.534Z</time></trkpt><trkpt lat="43.6240417" lon="12.59787"><ele>362.0</ele><time>2026-04-25T10:06:38.531Z</time></trkpt><trkpt lat="43.62402" lon="12.5980333"><ele>362.0</ele><time>2026-04-25T10:06:39.531Z</time></trkpt><trkpt lat="43.6240167" lon="12.5981933"><ele>364.0</ele><time>2026-04-25T10:06:40.531Z</time></trkpt><trkpt lat="43.62403" lon="12.5983417"><ele>366.0</ele><time>2026-04-25T10:06:41.532Z</time></trkpt><trkpt lat="43.6240617" lon="12.59848"><ele>368.0</ele><time>2026-04-25T10:06:42.531Z</time></trkpt><trkpt lat="43.6241083" lon="12.5986183"><ele>370.0</ele><time>2026-04-25T10:06:43.532Z</time></trkpt><trkpt lat="43.624185" lon="12.5987567"><ele>371.0</ele><time>2026-04-25T10:06:44.532Z</time></trkpt><trkpt lat="43.6242633" lon="12.5989"><ele>372.0</ele><time>2026-04-25T10:06:45.531Z</time></trkpt><trkpt lat="43.62434" lon="12.5990417"><ele>373.0</ele><time>2026-04-25T10:06:46.535Z</time></trkpt><trkpt lat="43.6244167" lon="12.5991817"><ele>374.0</ele><time>2026-04-25T10:06:47.534Z</time></trkpt><trkpt lat="43.6244867" lon="12.5993317"><ele>370.25</ele><time>2026-04-25T10:06:48.532Z</time></trkpt><trkpt lat="43.6245583" lon="12.5994833"><ele>366.5</ele><time>2026-04-25T10:06:49.532Z</time></trkpt><trkpt lat="43.624625" lon="12.5996333"><ele>362.75</ele><time>2026-04-25T10:06:50.534Z</time></trkpt><trkpt lat="43.6246817" lon="12.5997817"><ele>359.0</ele><time>2026-04-25T10:06:51.532Z</time></trkpt><trkpt lat="43.6247633" lon="12.600125"><ele>359.0</ele><time>2026-04-25T10:06:53.532Z</time></trkpt><trkpt lat="43.6247917" lon="12.6003"><ele>359.0</ele><time>2026-04-25T10:06:54.531Z</time></trkpt><trkpt lat="43.6248133" lon="12.6004633"><ele>359.0</ele><time>2026-04-25T10:06:55.531Z</time></trkpt><trkpt lat="43.6248333" lon="12.60061"><ele>359.0</ele><time>2026-04-25T10:06:56.532Z</time></trkpt><trkpt lat="43.62485" lon="12.600745"><ele>359.5</ele><time>2026-04-25T10:06:57.531Z</time></trkpt><trkpt lat="43.6248733" lon="12.6008633"><ele>360.0</ele><time>2026-04-25T10:06:58.534Z</time></trkpt><trkpt lat="43.6249067" lon="12.6009633"><ele>360.5</ele><time>2026-04-25T10:06:59.533Z</time></trkpt><trkpt lat="43.6249567" lon="12.60104"><ele>361.0</ele><time>2026-04-25T10:07:00.532Z</time></trkpt><trkpt lat="43.6250267" lon="12.6010933"><ele>361.5</ele><time>2026-04-25T10:07:01.532Z</time></trkpt><trkpt lat="43.6251117" lon="12.6011167"><ele>362.0</ele><time>2026-04-25T10:07:02.532Z</time></trkpt><trkpt lat="43.6252017" lon="12.60112"><ele>362.0</ele><time>2026-04-25T10:07:03.532Z</time></trkpt><trkpt lat="43.6252867" lon="12.6011233"><ele>362.0</ele><time>2026-04-25T10:07:04.532Z</time></trkpt><trkpt lat="43.62537" lon="12.6011433"><ele>362.0</ele><time>2026-04-25T10:07:05.532Z</time></trkpt><trkpt lat="43.6254417" lon="12.6012033"><ele>362.0</ele><time>2026-04-25T10:07:06.532Z</time></trkpt><trkpt lat="43.625505" lon="12.6012983"><ele>362.0</ele><time>2026-04-25T10:07:07.532Z</time></trkpt><trkpt lat="43.6255583" lon="12.60144"><ele>361.5</ele><time>2026-04-25T10:07:08.532Z</time></trkpt><trkpt lat="43.6256083" lon="12.6016117"><ele>361.0</ele><time>2026-04-25T10:07:09.532Z</time></trkpt><trkpt lat="43.62566" lon="12.60178"><ele>360.5</ele><time>2026-04-25T10:07:10.532Z</time></trkpt><trkpt lat="43.6257183" lon="12.6019217"><ele>360.0</ele><time>2026-04-25T10:07:11.533Z</time></trkpt><trkpt lat="43.6257867" lon="12.6020333"><ele>359.0</ele><time>2026-04-25T10:07:12.531Z</time></trkpt><trkpt lat="43.625965" lon="12.602175"><ele>358.0</ele><time>2026-04-25T10:07:14.533Z</time></trkpt><trkpt lat="43.6260483" lon="12.6022417"><ele>357.0</ele><time>2026-04-25T10:07:15.533Z</time></trkpt><trkpt lat="43.6261333" lon="12.6023133"><ele>356.0</ele><time>2026-04-25T10:07:16.532Z</time></trkpt><trkpt lat="43.6262217" lon="12.602385"><ele>355.8</ele><time>2026-04-25T10:07:17.532Z</time></trkpt><trkpt lat="43.6263067" lon="12.6024617"><ele>355.6</ele><time>2026-04-25T10:07:18.531Z</time></trkpt><trkpt lat="43.626385" lon="12.602565"><ele>355.4</ele><time>2026-04-25T10:07:19.533Z</time></trkpt><trkpt lat="43.6264667" lon="12.6026767"><ele>355.2</ele><time>2026-04-25T10:07:20.533Z</time></trkpt><trkpt lat="43.6265583" lon="12.6027817"><ele>355.0</ele><time>2026-04-25T10:07:21.531Z</time></trkpt><trkpt lat="43.6266617" lon="12.6028767"><ele>352.75</ele><time>2026-04-25T10:07:22.533Z</time></trkpt><trkpt lat="43.62677" lon="12.602955"><ele>350.5</ele><time>2026-04-25T10:07:23.533Z</time></trkpt><trkpt lat="43.6268817" lon="12.6030217"><ele>348.25</ele><time>2026-04-25T10:07:24.531Z</time></trkpt><trkpt lat="43.6269967" lon="12.6030717"><ele>346.0</ele><time>2026-04-25T10:07:25.532Z</time></trkpt><trkpt lat="43.627115" lon="12.6031033"><ele>345.75</ele><time>2026-04-25T10:07:26.533Z</time></trkpt><trkpt lat="43.627235" lon="12.603125"><ele>345.5</ele><time>2026-04-25T10:07:27.532Z</time></trkpt><trkpt lat="43.6273483" lon="12.6031483"><ele>345.25</ele><time>2026-04-25T10:07:28.532Z</time></trkpt><trkpt lat="43.627455" lon="12.6031883"><ele>345.0</ele><time>2026-04-25T10:07:29.532Z</time></trkpt><trkpt lat="43.6275533" lon="12.6032517"><ele>345.0</ele><time>2026-04-25T10:07:30.532Z</time></trkpt><trkpt lat="43.6276433" lon="12.6033617"><ele>345.0</ele><time>2026-04-25T10:07:31.531Z</time></trkpt><trkpt lat="43.6277317" lon="12.6035"><ele>345.0</ele><time>2026-04-25T10:07:32.532Z</time></trkpt><trkpt lat="43.6278117" lon="12.6036583"><ele>345.0</ele><time>2026-04-25T10:07:33.532Z</time></trkpt><trkpt lat="43.62794" lon="12.60401"><ele>342.25</ele><time>2026-04-25T10:07:35.532Z</time></trkpt><trkpt lat="43.6279783" lon="12.6042"><ele>339.5</ele><time>2026-04-25T10:07:36.531Z</time></trkpt><trkpt lat="43.6279933" lon="12.604405"><ele>336.75</ele><time>2026-04-25T10:07:37.536Z</time></trkpt><trkpt lat="43.6279867" lon="12.6046183"><ele>334.0</ele><time>2026-04-25T10:07:38.532Z</time></trkpt><trkpt lat="43.6279617" lon="12.60483"><ele>334.0</ele><time>2026-04-25T10:07:39.532Z</time></trkpt><trkpt lat="43.6279283" lon="12.6050217"><ele>334.0</ele><time>2026-04-25T10:07:40.531Z</time></trkpt><trkpt lat="43.627905" lon="12.6051817"><ele>334.0</ele><time>2026-04-25T10:07:41.531Z</time></trkpt><trkpt lat="43.6279067" lon="12.605315"><ele>334.0</ele><time>2026-04-25T10:07:42.531Z</time></trkpt><trkpt lat="43.6279317" lon="12.605445"><ele>332.75</ele><time>2026-04-25T10:07:43.532Z</time></trkpt><trkpt lat="43.6279883" lon="12.6055817"><ele>331.5</ele><time>2026-04-25T10:07:44.534Z</time></trkpt><trkpt lat="43.6280683" lon="12.6057333"><ele>330.25</ele><time>2026-04-25T10:07:45.532Z</time></trkpt><trkpt lat="43.6281583" lon="12.6058817"><ele>329.0</ele><time>2026-04-25T10:07:46.532Z</time></trkpt><trkpt lat="43.6282483" lon="12.606025"><ele>329.0</ele><time>2026-04-25T10:07:47.535Z</time></trkpt><trkpt lat="43.6283383" lon="12.6061517"><ele>329.0</ele><time>2026-04-25T10:07:48.531Z</time></trkpt><trkpt lat="43.628425" lon="12.6062617"><ele>329.0</ele><time>2026-04-25T10:07:49.534Z</time></trkpt><trkpt lat="43.628505" lon="12.60635"><ele>329.0</ele><time>2026-04-25T10:07:50.53Z</time></trkpt><trkpt lat="43.628575" lon="12.606415"><ele>329.0</ele><time>2026-04-25T10:07:51.532Z</time></trkpt><trkpt lat="43.628635" lon="12.6064583"><ele>328.75</ele><time>2026-04-25T10:07:52.532Z</time></trkpt><trkpt lat="43.6287117" lon="12.6064783"><ele>328.5</ele><time>2026-04-25T10:07:54.532Z</time></trkpt><trkpt lat="43.6288483" lon="12.6063"><ele>328.25</ele><time>2026-04-25T10:07:57.531Z</time></trkpt><trkpt lat="43.628915" lon="12.60616"><ele>328.0</ele><time>2026-04-25T10:07:58.532Z</time></trkpt><trkpt lat="43.6289933" lon="12.605985"><ele>328.0</ele><time>2026-04-25T10:07:59.532Z</time></trkpt><trkpt lat="43.6290633" lon="12.605825"><ele>328.0</ele><time>2026-04-25T10:08:00.534Z</time></trkpt><trkpt lat="43.629125" lon="12.6056667"><ele>328.0</ele><time>2026-04-25T10:08:01.532Z</time></trkpt><trkpt lat="43.6291733" lon="12.60553"><ele>328.0</ele><time>2026-04-25T10:08:02.534Z</time></trkpt><trkpt lat="43.6292267" lon="12.605405"><ele>326.25</ele><time>2026-04-25T10:08:03.531Z</time></trkpt><trkpt lat="43.6293" lon="12.6053167"><ele>324.5</ele><time>2026-04-25T10:08:04.532Z</time></trkpt><trkpt lat="43.6293917" lon="12.6052633"><ele>322.75</ele><time>2026-04-25T10:08:05.531Z</time></trkpt><trkpt lat="43.6295117" lon="12.60525"><ele>321.0</ele><time>2026-04-25T10:08:06.532Z</time></trkpt><trkpt lat="43.6296533" lon="12.6052667"><ele>319.6666666666667</ele><time>2026-04-25T10:08:07.532Z</time></trkpt><trkpt lat="43.62981" lon="12.6053067"><ele>318.33333333333337</ele><time>2026-04-25T10:08:08.532Z</time></trkpt><trkpt lat="43.6299867" lon="12.6053583"><ele>317.0</ele><time>2026-04-25T10:08:09.531Z</time></trkpt><trkpt lat="43.6301617" lon="12.6054067"><ele>318.33333333333337</ele><time>2026-04-25T10:08:10.531Z</time></trkpt><trkpt lat="43.630325" lon="12.6054617"><ele>319.6666666666667</ele><time>2026-04-25T10:08:11.533Z</time></trkpt><trkpt lat="43.63049" lon="12.6055283"><ele>321.0</ele><time>2026-04-25T10:08:12.532Z</time></trkpt><trkpt lat="43.6306533" lon="12.6055967"><ele>321.0</ele><time>2026-04-25T10:08:13.534Z</time></trkpt><trkpt lat="43.6308183" lon="12.6056617"><ele>321.0</ele><time>2026-04-25T10:08:14.532Z</time></trkpt><trkpt lat="43.630975" lon="12.605725"><ele>321.0</ele><time>2026-04-25T10:08:15.531Z</time></trkpt><trkpt lat="43.631255" lon="12.605825"><ele>321.3333333333333</ele><time>2026-04-25T10:08:17.531Z</time></trkpt><trkpt lat="43.63136" lon="12.605865"><ele>321.6666666666667</ele><time>2026-04-25T10:08:18.532Z</time></trkpt><trkpt lat="43.6314417" lon="12.605895"><ele>322.0</ele><time>2026-04-25T10:08:19.532Z</time></trkpt><trkpt lat="43.6315067" lon="12.605935"><ele>322.33333333333337</ele><time>2026-04-25T10:08:20.533Z</time></trkpt><trkpt lat="43.63156" lon="12.6060433"><ele>322.6666666666667</ele><time>2026-04-25T10:08:22.532Z</time></trkpt><trkpt lat="43.6315383" lon="12.6061383"><ele>323.0</ele><time>2026-04-25T10:08:23.533Z</time></trkpt><trkpt lat="43.6314933" lon="12.60625"><ele>323.0</ele><time>2026-04-25T10:08:24.533Z</time></trkpt><trkpt lat="43.6314467" lon="12.6063717"><ele>323.0</ele><time>2026-04-25T10:08:25.533Z</time></trkpt><trkpt lat="43.6313867" lon="12.6065283"><ele>323.0</ele><time>2026-04-25T10:08:26.533Z</time></trkpt><trkpt lat="43.6313267" lon="12.6066917"><ele>323.0</ele><time>2026-04-25T10:08:27.533Z</time></trkpt><trkpt lat="43.63127" lon="12.6068533"><ele>325.75</ele><time>2026-04-25T10:08:28.533Z</time></trkpt><trkpt lat="43.6312083" lon="12.6070183"><ele>328.5</ele><time>2026-04-25T10:08:29.532Z</time></trkpt><trkpt lat="43.6311467" lon="12.6071833"><ele>331.25</ele><time>2026-04-25T10:08:30.533Z</time></trkpt><trkpt lat="43.6310833" lon="12.6073367"><ele>334.0</ele><time>2026-04-25T10:08:31.532Z</time></trkpt><trkpt lat="43.63101" lon="12.607465"><ele>335.75</ele><time>2026-04-25T10:08:32.533Z</time></trkpt><trkpt lat="43.6309167" lon="12.6075683"><ele>337.5</ele><time>2026-04-25T10:08:33.533Z</time></trkpt><trkpt lat="43.630805" lon="12.6076483"><ele>339.25</ele><time>2026-04-25T10:08:34.533Z</time></trkpt><trkpt lat="43.63069" lon="12.6077283"><ele>341.0</ele><time>2026-04-25T10:08:35.534Z</time></trkpt><trkpt lat="43.63059" lon="12.6078033"><ele>343.0</ele><time>2026-04-25T10:08:36.534Z</time></trkpt><trkpt lat="43.6304167" lon="12.6079767"><ele>345.0</ele><time>2026-04-25T10:08:38.532Z</time></trkpt><trkpt lat="43.63033" lon="12.6081"><ele>347.0</ele><time>2026-04-25T10:08:39.534Z</time></trkpt><trkpt lat="43.6302433" lon="12.6082367"><ele>347.0</ele><time>2026-04-25T10:08:40.533Z</time></trkpt><trkpt lat="43.63016" lon="12.6083733"><ele>347.0</ele><time>2026-04-25T10:08:41.534Z</time></trkpt><trkpt lat="43.6300867" lon="12.6085017"><ele>347.0</ele><time>2026-04-25T10:08:42.533Z</time></trkpt><trkpt lat="43.6300317" lon="12.6086267"><ele>347.0</ele><time>2026-04-25T10:08:43.532Z</time></trkpt><trkpt lat="43.62999" lon="12.6087533"><ele>349.6</ele><time>2026-04-25T10:08:44.533Z</time></trkpt><trkpt lat="43.6299833" lon="12.6088767"><ele>352.20000000000005</ele><time>2026-04-25T10:08:45.534Z</time></trkpt><trkpt lat="43.630005" lon="12.6089933"><ele>354.8</ele><time>2026-04-25T10:08:46.535Z</time></trkpt><trkpt lat="43.6300633" lon="12.6091133"><ele>357.4</ele><time>2026-04-25T10:08:47.534Z</time></trkpt><trkpt lat="43.63014" lon="12.60925"><ele>360.0</ele><time>2026-04-25T10:08:48.532Z</time></trkpt><trkpt lat="43.6302267" lon="12.6093967"><ele>362.25</ele><time>2026-04-25T10:08:49.536Z</time></trkpt><trkpt lat="43.6303117" lon="12.609545"><ele>364.5</ele><time>2026-04-25T10:08:50.532Z</time></trkpt><trkpt lat="43.6303917" lon="12.6096867"><ele>366.75</ele><time>2026-04-25T10:08:51.531Z</time></trkpt><trkpt lat="43.6304767" lon="12.609825"><ele>369.0</ele><time>2026-04-25T10:08:52.532Z</time></trkpt><trkpt lat="43.63056" lon="12.6099467"><ele>369.0</ele><time>2026-04-25T10:08:53.532Z</time></trkpt><trkpt lat="43.630655" lon="12.6100433"><ele>369.0</ele><time>2026-04-25T10:08:54.533Z</time></trkpt><trkpt lat="43.6307533" lon="12.61011"><ele>369.0</ele><time>2026-04-25T10:08:55.532Z</time></trkpt><trkpt lat="43.6308433" lon="12.61014"><ele>369.0</ele><time>2026-04-25T10:08:56.533Z</time></trkpt><trkpt lat="43.6309217" lon="12.6101683"><ele>369.0</ele><time>2026-04-25T10:08:57.536Z</time></trkpt><trkpt lat="43.6310183" lon="12.61032"><ele>368.4</ele><time>2026-04-25T10:09:02.532Z</time></trkpt><trkpt lat="43.6310533" lon="12.6104233"><ele>367.79999999999995</ele><time>2026-04-25T10:09:04.533Z</time></trkpt><trkpt lat="43.631115" lon="12.6105833"><ele>367.20000000000005</ele><time>2026-04-25T10:09:06.532Z</time></trkpt><trkpt lat="43.6311583" lon="12.61069"><ele>366.6</ele><time>2026-04-25T10:09:07.533Z</time></trkpt><trkpt lat="43.6312067" lon="12.6108133"><ele>366.0</ele><time>2026-04-25T10:09:08.532Z</time></trkpt><trkpt lat="43.6312583" lon="12.6109367"><ele>366.0</ele><time>2026-04-25T10:09:09.532Z</time></trkpt><trkpt lat="43.6313067" lon="12.6110583"><ele>366.0</ele><time>2026-04-25T10:09:10.532Z</time></trkpt><trkpt lat="43.6313533" lon="12.6111783"><ele>366.0</ele><time>2026-04-25T10:09:11.532Z</time></trkpt><trkpt lat="43.6313983" lon="12.6113"><ele>366.0</ele><time>2026-04-25T10:09:12.531Z</time></trkpt><trkpt lat="43.6314417" lon="12.61142"><ele>366.0</ele><time>2026-04-25T10:09:13.533Z</time></trkpt><trkpt lat="43.6314833" lon="12.6115417"><ele>364.8</ele><time>2026-04-25T10:09:14.533Z</time></trkpt><trkpt lat="43.6315233" lon="12.6116583"><ele>363.6</ele><time>2026-04-25T10:09:15.533Z</time></trkpt><trkpt lat="43.6315633" lon="12.611775"><ele>362.4</ele><time>2026-04-25T10:09:16.533Z</time></trkpt><trkpt lat="43.6316" lon="12.61189"><ele>361.2</ele><time>2026-04-25T10:09:17.532Z</time></trkpt><trkpt lat="43.6316367" lon="12.6120017"><ele>360.0</ele><time>2026-04-25T10:09:18.535Z</time></trkpt><trkpt lat="43.631715" lon="12.6122083"><ele>360.0</ele><time>2026-04-25T10:09:20.534Z</time></trkpt><trkpt lat="43.6317533" lon="12.612315"><ele>360.0</ele><time>2026-04-25T10:09:21.534Z</time></trkpt><trkpt lat="43.6317917" lon="12.61243"><ele>360.0</ele><time>2026-04-25T10:09:22.534Z</time></trkpt><trkpt lat="43.6318317" lon="12.6125483"><ele>360.0</ele><time>2026-04-25T10:09:23.531Z</time></trkpt><trkpt lat="43.6318817" lon="12.61267"><ele>360.0</ele><time>2026-04-25T10:09:24.533Z</time></trkpt><trkpt lat="43.63194" lon="12.6128033"><ele>355.75</ele><time>2026-04-25T10:09:25.534Z</time></trkpt><trkpt lat="43.6320017" lon="12.6129483"><ele>351.5</ele><time>2026-04-25T10:09:26.531Z</time></trkpt><trkpt lat="43.6320683" lon="12.6131017"><ele>347.25</ele><time>2026-04-25T10:09:27.531Z</time></trkpt><trkpt lat="43.6321367" lon="12.6132567"><ele>343.0</ele><time>2026-04-25T10:09:28.531Z</time></trkpt><trkpt lat="43.6322033" lon="12.6134033"><ele>343.0</ele><time>2026-04-25T10:09:29.534Z</time></trkpt><trkpt lat="43.6322733" lon="12.613545"><ele>343.0</ele><time>2026-04-25T10:09:30.532Z</time></trkpt><trkpt lat="43.6323467" lon="12.61368"><ele>343.0</ele><time>2026-04-25T10:09:31.531Z</time></trkpt><trkpt lat="43.6324217" lon="12.6138217"><ele>343.0</ele><time>2026-04-25T10:09:32.53Z</time></trkpt><trkpt lat="43.6324983" lon="12.6139633"><ele>344.75</ele><time>2026-04-25T10:09:33.53Z</time></trkpt><trkpt lat="43.6325883" lon="12.614095"><ele>346.5</ele><time>2026-04-25T10:09:34.531Z</time></trkpt><trkpt lat="43.6326817" lon="12.61422"><ele>348.25</ele><time>2026-04-25T10:09:35.531Z</time></trkpt><trkpt lat="43.6327667" lon="12.6143417"><ele>350.0</ele><time>2026-04-25T10:09:36.531Z</time></trkpt><trkpt lat="43.63284" lon="12.6144633"><ele>347.25</ele><time>2026-04-25T10:09:37.532Z</time></trkpt><trkpt lat="43.632895" lon="12.6146033"><ele>344.5</ele><time>2026-04-25T10:09:38.531Z</time></trkpt><trkpt lat="43.6329333" lon="12.6147467"><ele>341.75</ele><time>2026-04-25T10:09:39.53Z</time></trkpt><trkpt lat="43.6330133" lon="12.61499"><ele>339.0</ele><time>2026-04-25T10:09:41.531Z</time></trkpt><trkpt lat="43.6330783" lon="12.6150633"><ele>339.0</ele><time>2026-04-25T10:09:42.536Z</time></trkpt><trkpt lat="43.63316" lon="12.6151"><ele>339.0</ele><time>2026-04-25T10:09:43.532Z</time></trkpt><trkpt lat="43.63325" lon="12.6151167"><ele>339.0</ele><time>2026-04-25T10:09:44.532Z</time></trkpt><trkpt lat="43.63334" lon="12.6151433"><ele>339.0</ele><time>2026-04-25T10:09:45.53Z</time></trkpt><trkpt lat="43.6334267" lon="12.6152"><ele>339.0</ele><time>2026-04-25T10:09:46.531Z</time></trkpt><trkpt lat="43.6335083" lon="12.615275"><ele>340.5</ele><time>2026-04-25T10:09:47.532Z</time></trkpt><trkpt lat="43.6335833" lon="12.61539"><ele>342.0</ele><time>2026-04-25T10:09:48.532Z</time></trkpt><trkpt lat="43.63366" lon="12.61555"><ele>343.5</ele><time>2026-04-25T10:09:49.531Z</time></trkpt><trkpt lat="43.6337367" lon="12.6157383"><ele>345.0</ele><time>2026-04-25T10:09:50.531Z</time></trkpt><trkpt lat="43.63382" lon="12.6159317"><ele>341.0</ele><time>2026-04-25T10:09:51.53Z</time></trkpt><trkpt lat="43.6338967" lon="12.616125"><ele>337.0</ele><time>2026-04-25T10:09:52.531Z</time></trkpt><trkpt lat="43.6339617" lon="12.6163133"><ele>333.0</ele><time>2026-04-25T10:09:53.531Z</time></trkpt><trkpt lat="43.6340283" lon="12.6164967"><ele>333.0</ele><time>2026-04-25T10:09:54.531Z</time></trkpt><trkpt lat="43.6341033" lon="12.61668"><ele>333.0</ele><time>2026-04-25T10:09:55.532Z</time></trkpt><trkpt lat="43.634195" lon="12.616855"><ele>333.0</ele><time>2026-04-25T10:09:56.53Z</time></trkpt><trkpt lat="43.63431" lon="12.6170217"><ele>332.6666666666667</ele><time>2026-04-25T10:09:57.53Z</time></trkpt><trkpt lat="43.6344517" lon="12.6171883"><ele>332.33333333333337</ele><time>2026-04-25T10:09:58.531Z</time></trkpt><trkpt lat="43.63461" lon="12.6173617"><ele>332.0</ele><time>2026-04-25T10:09:59.532Z</time></trkpt><trkpt lat="43.6347833" lon="12.6175483"><ele>340.0</ele><time>2026-04-25T10:10:00.531Z</time></trkpt><trkpt lat="43.63513" lon="12.6179533"><ele>340.0</ele><time>2026-04-25T10:10:02.531Z</time></trkpt><trkpt lat="43.6352867" lon="12.6181467"><ele>340.0</ele><time>2026-04-25T10:10:03.532Z</time></trkpt><trkpt lat="43.6354333" lon="12.6183367"><ele>340.0</ele><time>2026-04-25T10:10:04.531Z</time></trkpt><trkpt lat="43.6355783" lon="12.6185283"><ele>341.3333333333333</ele><time>2026-04-25T10:10:05.533Z</time></trkpt><trkpt lat="43.6357217" lon="12.6187183"><ele>342.6666666666667</ele><time>2026-04-25T10:10:06.533Z</time></trkpt><trkpt lat="43.6358617" lon="12.6189067"><ele>344.0</ele><time>2026-04-25T10:10:07.532Z</time></trkpt><trkpt lat="43.6359833" lon="12.6190917"><ele>344.0</ele><time>2026-04-25T10:10:08.53Z</time></trkpt><trkpt lat="43.6360983" lon="12.61927"><ele>344.0</ele><time>2026-04-25T10:10:09.531Z</time></trkpt><trkpt lat="43.636215" lon="12.61943"><ele>344.0</ele><time>2026-04-25T10:10:10.534Z</time></trkpt><trkpt lat="43.6363367" lon="12.619565"><ele>343.5</ele><time>2026-04-25T10:10:11.532Z</time></trkpt><trkpt lat="43.6364683" lon="12.61968"><ele>343.0</ele><time>2026-04-25T10:10:12.533Z</time></trkpt><trkpt lat="43.6366017" lon="12.61978"><ele>342.5</ele><time>2026-04-25T10:10:13.532Z</time></trkpt><trkpt lat="43.6367233" lon="12.619875"><ele>342.0</ele><time>2026-04-25T10:10:14.533Z</time></trkpt><trkpt lat="43.6368317" lon="12.61997"><ele>342.0</ele><time>2026-04-25T10:10:15.53Z</time></trkpt><trkpt lat="43.6369317" lon="12.6200683"><ele>342.0</ele><time>2026-04-25T10:10:16.531Z</time></trkpt><trkpt lat="43.6370217" lon="12.6201817"><ele>342.0</ele><time>2026-04-25T10:10:17.532Z</time></trkpt><trkpt lat="43.6371033" lon="12.6203267"><ele>342.0</ele><time>2026-04-25T10:10:18.531Z</time></trkpt><trkpt lat="43.6371733" lon="12.6205017"><ele>339.6666666666667</ele><time>2026-04-25T10:10:19.532Z</time></trkpt><trkpt lat="43.63723" lon="12.6206933"><ele>337.33333333333337</ele><time>2026-04-25T10:10:20.532Z</time></trkpt><trkpt lat="43.6372717" lon="12.6208917"><ele>335.0</ele><time>2026-04-25T10:10:21.531Z</time></trkpt><trkpt lat="43.6373" lon="12.6213133"><ele>334.6666666666667</ele><time>2026-04-25T10:10:23.531Z</time></trkpt><trkpt lat="43.63729" lon="12.6215333"><ele>334.3333333333333</ele><time>2026-04-25T10:10:24.533Z</time></trkpt><trkpt lat="43.6372833" lon="12.6217483"><ele>334.0</ele><time>2026-04-25T10:10:25.531Z</time></trkpt><trkpt lat="43.6372833" lon="12.6219517"><ele>334.75</ele><time>2026-04-25T10:10:26.534Z</time></trkpt><trkpt lat="43.637295" lon="12.6221367"><ele>335.5</ele><time>2026-04-25T10:10:27.531Z</time></trkpt><trkpt lat="43.637315" lon="12.62232"><ele>336.25</ele><time>2026-04-25T10:10:28.531Z</time></trkpt><trkpt lat="43.637355" lon="12.6224967"><ele>337.0</ele><time>2026-04-25T10:10:29.531Z</time></trkpt><trkpt lat="43.637415" lon="12.6226867"><ele>337.3333333333333</ele><time>2026-04-25T10:10:30.532Z</time></trkpt><trkpt lat="43.637495" lon="12.6228917"><ele>337.6666666666667</ele><time>2026-04-25T10:10:31.531Z</time></trkpt><trkpt lat="43.637585" lon="12.6230917"><ele>338.0</ele><time>2026-04-25T10:10:32.531Z</time></trkpt><trkpt lat="43.6376733" lon="12.6232767"><ele>338.0</ele><time>2026-04-25T10:10:33.531Z</time></trkpt><trkpt lat="43.6377533" lon="12.623445"><ele>338.0</ele><time>2026-04-25T10:10:34.53Z</time></trkpt><trkpt lat="43.6378267" lon="12.62361"><ele>338.0</ele><time>2026-04-25T10:10:35.532Z</time></trkpt><trkpt lat="43.6378867" lon="12.6237867"><ele>338.0</ele><time>2026-04-25T10:10:36.531Z</time></trkpt><trkpt lat="43.637925" lon="12.623975"><ele>339.75</ele><time>2026-04-25T10:10:37.534Z</time></trkpt><trkpt lat="43.63794" lon="12.6241733"><ele>341.5</ele><time>2026-04-25T10:10:38.531Z</time></trkpt><trkpt lat="43.637935" lon="12.6243783"><ele>343.25</ele><time>2026-04-25T10:10:39.531Z</time></trkpt><trkpt lat="43.63792" lon="12.6245783"><ele>345.0</ele><time>2026-04-25T10:10:40.531Z</time></trkpt><trkpt lat="43.6379033" lon="12.6247767"><ele>344.0</ele><time>2026-04-25T10:10:41.532Z</time></trkpt><trkpt lat="43.6378983" lon="12.6249633"><ele>343.0</ele><time>2026-04-25T10:10:42.532Z</time></trkpt><trkpt lat="43.6379317" lon="12.6253217"><ele>342.0</ele><time>2026-04-25T10:10:44.531Z</time></trkpt><trkpt lat="43.6379633" lon="12.625485"><ele>342.0</ele><time>2026-04-25T10:10:45.531Z</time></trkpt><trkpt lat="43.6380067" lon="12.625645"><ele>342.0</ele><time>2026-04-25T10:10:46.531Z</time></trkpt><trkpt lat="43.6380617" lon="12.625815"><ele>342.0</ele><time>2026-04-25T10:10:47.531Z</time></trkpt><trkpt lat="43.6381267" lon="12.626005"><ele>342.0</ele><time>2026-04-25T10:10:48.531Z</time></trkpt><trkpt lat="43.638205" lon="12.626205"><ele>339.6666666666667</ele><time>2026-04-25T10:10:49.532Z</time></trkpt><trkpt lat="43.6382917" lon="12.6264133"><ele>337.33333333333337</ele><time>2026-04-25T10:10:50.533Z</time></trkpt><trkpt lat="43.6383817" lon="12.6266217"><ele>335.0</ele><time>2026-04-25T10:10:51.532Z</time></trkpt><trkpt lat="43.6384733" lon="12.6268133"><ele>335.0</ele><time>2026-04-25T10:10:52.534Z</time></trkpt><trkpt lat="43.63856" lon="12.6269917"><ele>335.0</ele><time>2026-04-25T10:10:53.532Z</time></trkpt><trkpt lat="43.638625" lon="12.6271783"><ele>335.0</ele><time>2026-04-25T10:10:54.531Z</time></trkpt><trkpt lat="43.638665" lon="12.62739"><ele>335.33333333333337</ele><time>2026-04-25T10:10:55.532Z</time></trkpt><trkpt lat="43.6386833" lon="12.6276133"><ele>335.6666666666667</ele><time>2026-04-25T10:10:56.532Z</time></trkpt><trkpt lat="43.638675" lon="12.627865"><ele>336.0</ele><time>2026-04-25T10:10:57.531Z</time></trkpt><trkpt lat="43.6386483" lon="12.6281383"><ele>338.0</ele><time>2026-04-25T10:10:58.533Z</time></trkpt><trkpt lat="43.63862" lon="12.628415"><ele>340.0</ele><time>2026-04-25T10:10:59.531Z</time></trkpt><trkpt lat="43.6386033" lon="12.6286767"><ele>342.0</ele><time>2026-04-25T10:11:00.532Z</time></trkpt><trkpt lat="43.638605" lon="12.62893"><ele>343.3333333333333</ele><time>2026-04-25T10:11:01.531Z</time></trkpt><trkpt lat="43.6386317" lon="12.629195"><ele>344.66666666666663</ele><time>2026-04-25T10:11:02.531Z</time></trkpt><trkpt lat="43.6386783" lon="12.6294617"><ele>346.0</ele><time>2026-04-25T10:11:03.533Z</time></trkpt><trkpt lat="43.63877" lon="12.6299417"><ele>347.66666666666663</ele><time>2026-04-25T10:11:05.532Z</time></trkpt><trkpt lat="43.6387967" lon="12.6301583"><ele>349.3333333333333</ele><time>2026-04-25T10:11:06.534Z</time></trkpt><trkpt lat="43.638805" lon="12.63037"><ele>351.0</ele><time>2026-04-25T10:11:07.532Z</time></trkpt><trkpt lat="43.6387967" lon="12.630595"><ele>352.6666666666667</ele><time>2026-04-25T10:11:08.532Z</time></trkpt><trkpt lat="43.6387683" lon="12.6308367"><ele>354.33333333333337</ele><time>2026-04-25T10:11:09.531Z</time></trkpt><trkpt lat="43.638725" lon="12.631095"><ele>356.0</ele><time>2026-04-25T10:11:10.531Z</time></trkpt><trkpt lat="43.638675" lon="12.631345"><ele>358.6666666666667</ele><time>2026-04-25T10:11:11.532Z</time></trkpt><trkpt lat="43.63863" lon="12.6315717"><ele>361.3333333333333</ele><time>2026-04-25T10:11:12.532Z</time></trkpt><trkpt lat="43.63859" lon="12.63178"><ele>364.0</ele><time>2026-04-25T10:11:13.536Z</time></trkpt><trkpt lat="43.6385483" lon="12.6319767"><ele>365.5</ele><time>2026-04-25T10:11:14.532Z</time></trkpt><trkpt lat="43.6385083" lon="12.6321633"><ele>367.0</ele><time>2026-04-25T10:11:15.531Z</time></trkpt><trkpt lat="43.6384733" lon="12.6323483"><ele>368.5</ele><time>2026-04-25T10:11:16.531Z</time></trkpt><trkpt lat="43.638445" lon="12.6325333"><ele>370.0</ele><time>2026-04-25T10:11:17.532Z</time></trkpt><trkpt lat="43.638425" lon="12.6327117"><ele>370.75</ele><time>2026-04-25T10:11:18.534Z</time></trkpt><trkpt lat="43.6384033" lon="12.632885"><ele>371.5</ele><time>2026-04-25T10:11:19.532Z</time></trkpt><trkpt lat="43.6383767" lon="12.6330633"><ele>372.25</ele><time>2026-04-25T10:11:20.532Z</time></trkpt><trkpt lat="43.6383483" lon="12.6332533"><ele>373.0</ele><time>2026-04-25T10:11:21.531Z</time></trkpt><trkpt lat="43.6383233" lon="12.6334667"><ele>373.66666666666663</ele><time>2026-04-25T10:11:22.531Z</time></trkpt><trkpt lat="43.638285" lon="12.633705"><ele>374.3333333333333</ele><time>2026-04-25T10:11:23.534Z</time></trkpt><trkpt lat="43.6382317" lon="12.6339583"><ele>375.0</ele><time>2026-04-25T10:11:24.531Z</time></trkpt><trkpt lat="43.638115" lon="12.6344767"><ele>376.0</ele><time>2026-04-25T10:11:26.534Z</time></trkpt><trkpt lat="43.6380583" lon="12.63471"><ele>377.0</ele><time>2026-04-25T10:11:27.532Z</time></trkpt><trkpt lat="43.638005" lon="12.63493"><ele>378.0</ele><time>2026-04-25T10:11:28.531Z</time></trkpt><trkpt lat="43.637955" lon="12.6351317"><ele>379.5</ele><time>2026-04-25T10:11:29.532Z</time></trkpt><trkpt lat="43.6379067" lon="12.63532"><ele>381.0</ele><time>2026-04-25T10:11:30.532Z</time></trkpt><trkpt lat="43.637865" lon="12.6355"><ele>382.5</ele><time>2026-04-25T10:11:31.532Z</time></trkpt><trkpt lat="43.6378233" lon="12.6356717"><ele>384.0</ele><time>2026-04-25T10:11:32.531Z</time></trkpt><trkpt lat="43.63778" lon="12.63584"><ele>384.0</ele><time>2026-04-25T10:11:33.532Z</time></trkpt><trkpt lat="43.6377283" lon="12.6360133"><ele>384.0</ele><time>2026-04-25T10:11:34.534Z</time></trkpt><trkpt lat="43.6376717" lon="12.6361933"><ele>384.0</ele><time>2026-04-25T10:11:35.533Z</time></trkpt><trkpt lat="43.637615" lon="12.6363683"><ele>384.0</ele><time>2026-04-25T10:11:36.531Z</time></trkpt><trkpt lat="43.6375633" lon="12.6365217"><ele>385.8333333333333</ele><time>2026-04-25T10:11:37.532Z</time></trkpt><trkpt lat="43.6375233" lon="12.6366433"><ele>387.66666666666663</ele><time>2026-04-25T10:11:38.532Z</time></trkpt><trkpt lat="43.6374933" lon="12.6367467"><ele>389.5</ele><time>2026-04-25T10:11:39.532Z</time></trkpt><trkpt lat="43.63748" lon="12.636845"><ele>391.3333333333333</ele><time>2026-04-25T10:11:40.531Z</time></trkpt><trkpt lat="43.6375367" lon="12.6369933"><ele>393.16666666666663</ele><time>2026-04-25T10:11:42.532Z</time></trkpt><trkpt lat="43.6376" lon="12.6370417"><ele>395.0</ele><time>2026-04-25T10:11:43.532Z</time></trkpt><trkpt lat="43.6376817" lon="12.6370783"><ele>400.25</ele><time>2026-04-25T10:11:44.531Z</time></trkpt><trkpt lat="43.6377733" lon="12.637115"><ele>405.5</ele><time>2026-04-25T10:11:45.53Z</time></trkpt><trkpt lat="43.63799" lon="12.63719"><ele>410.75</ele><time>2026-04-25T10:11:47.531Z</time></trkpt><trkpt lat="43.6380967" lon="12.6372367"><ele>416.0</ele><time>2026-04-25T10:11:48.532Z</time></trkpt><trkpt lat="43.6381933" lon="12.6373"><ele>417.0</ele><time>2026-04-25T10:11:49.531Z</time></trkpt><trkpt lat="43.6382783" lon="12.6373833"><ele>418.0</ele><time>2026-04-25T10:11:50.534Z</time></trkpt><trkpt lat="43.6383583" lon="12.63748"><ele>419.0</ele><time>2026-04-25T10:11:51.532Z</time></trkpt><trkpt lat="43.6384267" lon="12.637585"><ele>420.0</ele><time>2026-04-25T10:11:52.531Z</time></trkpt><trkpt lat="43.638485" lon="12.6376817"><ele>421.0</ele><time>2026-04-25T10:11:53.533Z</time></trkpt><trkpt lat="43.6385483" lon="12.63776"><ele>425.4</ele><time>2026-04-25T10:11:54.534Z</time></trkpt><trkpt lat="43.6386233" lon="12.6378283"><ele>429.8</ele><time>2026-04-25T10:11:55.532Z</time></trkpt><trkpt lat="43.6387133" lon="12.6378783"><ele>434.19999999999993</ele><time>2026-04-25T10:11:56.532Z</time></trkpt><trkpt lat="43.638835" lon="12.637875"><ele>438.59999999999997</ele><time>2026-04-25T10:11:57.531Z</time></trkpt><trkpt lat="43.6389717" lon="12.637865"><ele>443.0</ele><time>2026-04-25T10:11:58.531Z</time></trkpt><trkpt lat="43.6391167" lon="12.637845"><ele>444.3333333333333</ele><time>2026-04-25T10:11:59.531Z</time></trkpt><trkpt lat="43.63927" lon="12.6378183"><ele>445.66666666666663</ele><time>2026-04-25T10:12:00.532Z</time></trkpt><trkpt lat="43.6394217" lon="12.63778"><ele>447.0</ele><time>2026-04-25T10:12:01.534Z</time></trkpt><trkpt lat="43.6395683" lon="12.637735"><ele>441.75</ele><time>2026-04-25T10:12:02.533Z</time></trkpt><trkpt lat="43.639705" lon="12.6376867"><ele>436.5</ele><time>2026-04-25T10:12:03.531Z</time></trkpt><trkpt lat="43.6398367" lon="12.63765"><ele>431.25</ele><time>2026-04-25T10:12:04.532Z</time></trkpt><trkpt lat="43.639975" lon="12.63762"><ele>426.0</ele><time>2026-04-25T10:12:05.531Z</time></trkpt><trkpt lat="43.64011" lon="12.6376083"><ele>425.25</ele><time>2026-04-25T10:12:06.533Z</time></trkpt><trkpt lat="43.6403367" lon="12.6376033"><ele>424.5</ele><time>2026-04-25T10:12:08.534Z</time></trkpt><trkpt lat="43.6404183" lon="12.637605"><ele>423.75</ele><time>2026-04-25T10:12:09.532Z</time></trkpt><trkpt lat="43.6405183" lon="12.637655"><ele>423.0</ele><time>2026-04-25T10:12:11.531Z</time></trkpt><trkpt lat="43.6405" lon="12.637765"><ele>423.0</ele><time>2026-04-25T10:12:13.531Z</time></trkpt><trkpt lat="43.64036" lon="12.6377967"><ele>423.0</ele><time>2026-04-25T10:12:15.534Z</time></trkpt><trkpt lat="43.6402533" lon="12.6378133"><ele>423.0</ele><time>2026-04-25T10:12:16.532Z</time></trkpt><trkpt lat="43.6401233" lon="12.6378367"><ele>423.0</ele><time>2026-04-25T10:12:17.535Z</time></trkpt><trkpt lat="43.6399833" lon="12.6378567"><ele>430.0</ele><time>2026-04-25T10:12:18.534Z</time></trkpt><trkpt lat="43.6398633" lon="12.6378917"><ele>437.0</ele><time>2026-04-25T10:12:19.533Z</time></trkpt><trkpt lat="43.6397567" lon="12.63793"><ele>444.0</ele><time>2026-04-25T10:12:20.533Z</time></trkpt><trkpt lat="43.6396617" lon="12.6379933"><ele>451.0</ele><time>2026-04-25T10:12:21.533Z</time></trkpt><trkpt lat="43.6395683" lon="12.6380867"><ele>450.0</ele><time>2026-04-25T10:12:22.534Z</time></trkpt><trkpt lat="43.6394617" lon="12.6382067"><ele>449.0</ele><time>2026-04-25T10:12:23.53Z</time></trkpt><trkpt lat="43.6393483" lon="12.6383483"><ele>448.0</ele><time>2026-04-25T10:12:24.532Z</time></trkpt><trkpt lat="43.6392383" lon="12.6384883"><ele>447.0</ele><time>2026-04-25T10:12:25.531Z</time></trkpt><trkpt lat="43.639125" lon="12.6386117"><ele>453.0</ele><time>2026-04-25T10:12:26.531Z</time></trkpt><trkpt lat="43.6390133" lon="12.6387083"><ele>459.0</ele><time>2026-04-25T10:12:27.532Z</time></trkpt><trkpt lat="43.6387583" lon="12.6388383"><ele>465.0</ele><time>2026-04-25T10:12:29.533Z</time></trkpt><trkpt lat="43.6386133" lon="12.6388917"><ele>465.0</ele><time>2026-04-25T10:12:30.532Z</time></trkpt><trkpt lat="43.6384683" lon="12.6389517"><ele>465.0</ele><time>2026-04-25T10:12:31.531Z</time></trkpt><trkpt lat="43.63833" lon="12.6390267"><ele>465.0</ele><time>2026-04-25T10:12:32.535Z</time></trkpt><trkpt lat="43.6382033" lon="12.639115"><ele>465.0</ele><time>2026-04-25T10:12:33.53Z</time></trkpt><trkpt lat="43.6380883" lon="12.6392233"><ele>465.0</ele><time>2026-04-25T10:12:34.534Z</time></trkpt><trkpt lat="43.6379733" lon="12.6393483"><ele>465.0</ele><time>2026-04-25T10:12:35.533Z</time></trkpt><trkpt lat="43.6378683" lon="12.6394833"><ele>465.0</ele><time>2026-04-25T10:12:36.531Z</time></trkpt><trkpt lat="43.63777" lon="12.6396433"><ele>465.0</ele><time>2026-04-25T10:12:37.531Z</time></trkpt><trkpt lat="43.6376717" lon="12.6398083"><ele>464.66666666666663</ele><time>2026-04-25T10:12:38.531Z</time></trkpt><trkpt lat="43.6375633" lon="12.6399783"><ele>464.3333333333333</ele><time>2026-04-25T10:12:39.531Z</time></trkpt><trkpt lat="43.6374533" lon="12.6401333"><ele>464.0</ele><time>2026-04-25T10:12:40.532Z</time></trkpt><trkpt lat="43.637345" lon="12.6402667"><ele>464.5</ele><time>2026-04-25T10:12:41.536Z</time></trkpt><trkpt lat="43.6372367" lon="12.640375"><ele>465.0</ele><time>2026-04-25T10:12:42.531Z</time></trkpt><trkpt lat="43.6371167" lon="12.6404617"><ele>465.5</ele><time>2026-04-25T10:12:43.536Z</time></trkpt><trkpt lat="43.63698" lon="12.6405367"><ele>466.0</ele><time>2026-04-25T10:12:44.534Z</time></trkpt><trkpt lat="43.6368317" lon="12.64059"><ele>468.5</ele><time>2026-04-25T10:12:45.534Z</time></trkpt><trkpt lat="43.6366817" lon="12.64063"><ele>471.0</ele><time>2026-04-25T10:12:46.531Z</time></trkpt><trkpt lat="43.6365383" lon="12.6406633"><ele>473.5</ele><time>2026-04-25T10:12:47.536Z</time></trkpt><trkpt lat="43.636405" lon="12.6407017"><ele>476.0</ele><time>2026-04-25T10:12:48.533Z</time></trkpt><trkpt lat="43.6361633" lon="12.6408183"><ele>474.75</ele><time>2026-04-25T10:12:50.535Z</time></trkpt><trkpt lat="43.6360467" lon="12.6409117"><ele>473.5</ele><time>2026-04-25T10:12:51.535Z</time></trkpt><trkpt lat="43.635925" lon="12.6410267"><ele>472.25</ele><time>2026-04-25T10:12:52.531Z</time></trkpt><trkpt lat="43.63581" lon="12.6411467"><ele>471.0</ele><time>2026-04-25T10:12:53.532Z</time></trkpt><trkpt lat="43.6357017" lon="12.6412633"><ele>474.25</ele><time>2026-04-25T10:12:54.532Z</time></trkpt><trkpt lat="43.6355967" lon="12.6413583"><ele>477.5</ele><time>2026-04-25T10:12:55.532Z</time></trkpt><trkpt lat="43.6354833" lon="12.64144"><ele>480.75</ele><time>2026-04-25T10:12:56.533Z</time></trkpt><trkpt lat="43.63535" lon="12.6415017"><ele>484.0</ele><time>2026-04-25T10:12:57.531Z</time></trkpt><trkpt lat="43.63521" lon="12.64154"><ele>485.25</ele><time>2026-04-25T10:12:58.531Z</time></trkpt><trkpt lat="43.63508" lon="12.6415717"><ele>486.5</ele><time>2026-04-25T10:12:59.534Z</time></trkpt><trkpt lat="43.6349567" lon="12.64161"><ele>487.75</ele><time>2026-04-25T10:13:00.534Z</time></trkpt><trkpt lat="43.6348367" lon="12.6416533"><ele>489.0</ele><time>2026-04-25T10:13:01.533Z</time></trkpt><trkpt lat="43.63474" lon="12.641705"><ele>489.0</ele><time>2026-04-25T10:13:02.534Z</time></trkpt><trkpt lat="43.6346567" lon="12.641775"><ele>489.0</ele><time>2026-04-25T10:13:03.534Z</time></trkpt><trkpt lat="43.63459" lon="12.6418767"><ele>489.0</ele><time>2026-04-25T10:13:04.532Z</time></trkpt><trkpt lat="43.6345383" lon="12.64202"><ele>489.0</ele><time>2026-04-25T10:13:05.531Z</time></trkpt><trkpt lat="43.634505" lon="12.642205"><ele>489.25</ele><time>2026-04-25T10:13:06.532Z</time></trkpt><trkpt lat="43.6344833" lon="12.642415"><ele>489.5</ele><time>2026-04-25T10:13:07.531Z</time></trkpt><trkpt lat="43.6344667" lon="12.642615"><ele>489.75</ele><time>2026-04-25T10:13:08.535Z</time></trkpt><trkpt lat="43.6344533" lon="12.6428067"><ele>490.0</ele><time>2026-04-25T10:13:09.533Z</time></trkpt><trkpt lat="43.6344033" lon="12.6431867"><ele>493.6666666666667</ele><time>2026-04-25T10:13:11.531Z</time></trkpt><trkpt lat="43.63436" lon="12.6433817"><ele>497.33333333333337</ele><time>2026-04-25T10:13:12.531Z</time></trkpt><trkpt lat="43.6343033" lon="12.6435817"><ele>501.0</ele><time>2026-04-25T10:13:13.532Z</time></trkpt><trkpt lat="43.634235" lon="12.64378"><ele>501.0</ele><time>2026-04-25T10:13:14.531Z</time></trkpt><trkpt lat="43.6341533" lon="12.6439767"><ele>501.0</ele><time>2026-04-25T10:13:15.534Z</time></trkpt><trkpt lat="43.6340617" lon="12.6441683"><ele>501.0</ele><time>2026-04-25T10:13:16.533Z</time></trkpt><trkpt lat="43.6339717" lon="12.6443517"><ele>499.33333333333337</ele><time>2026-04-25T10:13:17.536Z</time></trkpt><trkpt lat="43.6338883" lon="12.6445267"><ele>497.6666666666667</ele><time>2026-04-25T10:13:18.533Z</time></trkpt><trkpt lat="43.6338167" lon="12.644715"><ele>496.0</ele><time>2026-04-25T10:13:19.533Z</time></trkpt><trkpt lat="43.6337617" lon="12.6449267"><ele>496.0</ele><time>2026-04-25T10:13:20.532Z</time></trkpt><trkpt lat="43.6337233" lon="12.645145"><ele>496.0</ele><time>2026-04-25T10:13:21.531Z</time></trkpt><trkpt lat="43.6336883" lon="12.6453517"><ele>496.0</ele><time>2026-04-25T10:13:22.533Z</time></trkpt><trkpt lat="43.6336633" lon="12.6455517"><ele>497.25</ele><time>2026-04-25T10:13:23.536Z</time></trkpt><trkpt lat="43.6336633" lon="12.6457417"><ele>498.5</ele><time>2026-04-25T10:13:24.535Z</time></trkpt><trkpt lat="43.63369" lon="12.6459267"><ele>499.75</ele><time>2026-04-25T10:13:25.532Z</time></trkpt><trkpt lat="43.6337517" lon="12.6461017"><ele>501.0</ele><time>2026-04-25T10:13:26.534Z</time></trkpt><trkpt lat="43.6338383" lon="12.6462867"><ele>501.75</ele><time>2026-04-25T10:13:27.532Z</time></trkpt><trkpt lat="43.6339333" lon="12.6464617"><ele>502.5</ele><time>2026-04-25T10:13:28.532Z</time></trkpt><trkpt lat="43.634015" lon="12.6466283"><ele>503.25</ele><time>2026-04-25T10:13:29.532Z</time></trkpt><trkpt lat="43.6340733" lon="12.64679"><ele>504.0</ele><time>2026-04-25T10:13:30.532Z</time></trkpt><trkpt lat="43.6341283" lon="12.6471567"><ele>504.0</ele><time>2026-04-25T10:13:32.532Z</time></trkpt><trkpt lat="43.6341317" lon="12.64736"><ele>504.0</ele><time>2026-04-25T10:13:33.533Z</time></trkpt><trkpt lat="43.634135" lon="12.6475767"><ele>504.0</ele><time>2026-04-25T10:13:34.533Z</time></trkpt><trkpt lat="43.63414" lon="12.6478"><ele>503.0</ele><time>2026-04-25T10:13:35.533Z</time></trkpt><trkpt lat="43.6341483" lon="12.648035"><ele>502.0</ele><time>2026-04-25T10:13:36.534Z</time></trkpt><trkpt lat="43.6341617" lon="12.6482833"><ele>501.0</ele><time>2026-04-25T10:13:37.533Z</time></trkpt><trkpt lat="43.634175" lon="12.6485433"><ele>501.0</ele><time>2026-04-25T10:13:38.533Z</time></trkpt><trkpt lat="43.634185" lon="12.6487917"><ele>501.0</ele><time>2026-04-25T10:13:39.531Z</time></trkpt><trkpt lat="43.6341883" lon="12.6490233"><ele>501.0</ele><time>2026-04-25T10:13:40.534Z</time></trkpt><trkpt lat="43.6341883" lon="12.6492367"><ele>501.0</ele><time>2026-04-25T10:13:41.533Z</time></trkpt><trkpt lat="43.6341917" lon="12.64944"><ele>501.0</ele><time>2026-04-25T10:13:42.532Z</time></trkpt><trkpt lat="43.63421" lon="12.6496467"><ele>501.0</ele><time>2026-04-25T10:13:43.533Z</time></trkpt><trkpt lat="43.6342383" lon="12.6498633"><ele>502.0</ele><time>2026-04-25T10:13:44.534Z</time></trkpt><trkpt lat="43.6342783" lon="12.6500933"><ele>503.0</ele><time>2026-04-25T10:13:45.532Z</time></trkpt><trkpt lat="43.634325" lon="12.6503267"><ele>504.0</ele><time>2026-04-25T10:13:46.535Z</time></trkpt><trkpt lat="43.63437" lon="12.6505583"><ele>504.33333333333337</ele><time>2026-04-25T10:13:47.531Z</time></trkpt><trkpt lat="43.6344117" lon="12.65079"><ele>504.6666666666667</ele><time>2026-04-25T10:13:48.532Z</time></trkpt><trkpt lat="43.63445" lon="12.6510167"><ele>505.0</ele><time>2026-04-25T10:13:49.532Z</time></trkpt><trkpt lat="43.6344817" lon="12.6512433"><ele>509.0</ele><time>2026-04-25T10:13:50.532Z</time></trkpt><trkpt lat="43.6345117" lon="12.6514683"><ele>513.0</ele><time>2026-04-25T10:13:51.534Z</time></trkpt><trkpt lat="43.6345967" lon="12.6519117"><ele>511.5</ele><time>2026-04-25T10:13:53.532Z</time></trkpt><trkpt lat="43.63465" lon="12.6521133"><ele>510.0</ele><time>2026-04-25T10:13:54.531Z</time></trkpt><trkpt lat="43.6347067" lon="12.6523"><ele>508.5</ele><time>2026-04-25T10:13:55.533Z</time></trkpt><trkpt lat="43.6347567" lon="12.6524833"><ele>507.0</ele><time>2026-04-25T10:13:56.532Z</time></trkpt><trkpt lat="43.6348" lon="12.652665"><ele>507.25</ele><time>2026-04-25T10:13:57.531Z</time></trkpt><trkpt lat="43.6348367" lon="12.65285"><ele>507.5</ele><time>2026-04-25T10:13:58.531Z</time></trkpt><trkpt lat="43.63487" lon="12.6530383"><ele>507.75</ele><time>2026-04-25T10:13:59.533Z</time></trkpt><trkpt lat="43.6349" lon="12.6532183"><ele>508.0</ele><time>2026-04-25T10:14:00.531Z</time></trkpt><trkpt lat="43.63492" lon="12.6533883"><ele>508.0</ele><time>2026-04-25T10:14:01.531Z</time></trkpt><trkpt lat="43.6349233" lon="12.6535617"><ele>508.0</ele><time>2026-04-25T10:14:02.533Z</time></trkpt><trkpt lat="43.6349" lon="12.65373"><ele>508.0</ele><time>2026-04-25T10:14:03.531Z</time></trkpt><trkpt lat="43.6348433" lon="12.65389"><ele>508.0</ele><time>2026-04-25T10:14:04.531Z</time></trkpt><trkpt lat="43.6347533" lon="12.6540483"><ele>507.4</ele><time>2026-04-25T10:14:05.534Z</time></trkpt><trkpt lat="43.6346483" lon="12.6541783"><ele>506.79999999999995</ele><time>2026-04-25T10:14:06.532Z</time></trkpt><trkpt lat="43.6345533" lon="12.6542833"><ele>506.2</ele><time>2026-04-25T10:14:07.534Z</time></trkpt><trkpt lat="43.6344833" lon="12.6543717"><ele>505.6</ele><time>2026-04-25T10:14:08.531Z</time></trkpt><trkpt lat="43.6344333" lon="12.6544667"><ele>505.0</ele><time>2026-04-25T10:14:09.532Z</time></trkpt><trkpt lat="43.6344117" lon="12.6545683"><ele>505.0</ele><time>2026-04-25T10:14:10.531Z</time></trkpt><trkpt lat="43.63439" lon="12.65466"><ele>505.0</ele><time>2026-04-25T10:14:11.532Z</time></trkpt><trkpt lat="43.6343567" lon="12.654735"><ele>505.0</ele><time>2026-04-25T10:14:12.534Z</time></trkpt><trkpt lat="43.634235" lon="12.6548517"><ele>505.0</ele><time>2026-04-25T10:14:14.535Z</time></trkpt><trkpt lat="43.6341167" lon="12.65486"><ele>505.0</ele><time>2026-04-25T10:14:15.532Z</time></trkpt><trkpt lat="43.633975" lon="12.6548467"><ele>505.0</ele><time>2026-04-25T10:14:16.534Z</time></trkpt><trkpt lat="43.6338583" lon="12.6548483"><ele>505.0</ele><time>2026-04-25T10:14:17.532Z</time></trkpt><trkpt lat="43.6337583" lon="12.6548467"><ele>505.0</ele><time>2026-04-25T10:14:18.532Z</time></trkpt><trkpt lat="43.6336683" lon="12.6548433"><ele>505.0</ele><time>2026-04-25T10:14:19.534Z</time></trkpt><trkpt lat="43.6335917" lon="12.6548333"><ele>505.0</ele><time>2026-04-25T10:14:20.532Z</time></trkpt><trkpt lat="43.6335267" lon="12.6547933"><ele>503.6666666666667</ele><time>2026-04-25T10:14:21.533Z</time></trkpt><trkpt lat="43.6334783" lon="12.6547267"><ele>502.33333333333337</ele><time>2026-04-25T10:14:22.535Z</time></trkpt><trkpt lat="43.6334467" lon="12.6546433"><ele>501.0</ele><time>2026-04-25T10:14:23.533Z</time></trkpt><trkpt lat="43.63343" lon="12.6545583"><ele>499.66666666666663</ele><time>2026-04-25T10:14:24.532Z</time></trkpt><trkpt lat="43.6334567" lon="12.654465"><ele>498.3333333333333</ele><time>2026-04-25T10:14:25.534Z</time></trkpt><trkpt lat="43.6335217" lon="12.6543683"><ele>497.0</ele><time>2026-04-25T10:14:26.533Z</time></trkpt><trkpt lat="43.633605" lon="12.654275"><ele>499.75</ele><time>2026-04-25T10:14:27.532Z</time></trkpt><trkpt lat="43.633705" lon="12.654185"><ele>502.5</ele><time>2026-04-25T10:14:28.531Z</time></trkpt><trkpt lat="43.633815" lon="12.6541083"><ele>505.25</ele><time>2026-04-25T10:14:29.535Z</time></trkpt><trkpt lat="43.633925" lon="12.6540467"><ele>508.0</ele><time>2026-04-25T10:14:30.535Z</time></trkpt><trkpt lat="43.6340233" lon="12.6539867"><ele>508.0</ele><time>2026-04-25T10:14:31.533Z</time></trkpt><trkpt lat="43.6341117" lon="12.6539233"><ele>507.99999999999994</ele><time>2026-04-25T10:14:32.534Z</time></trkpt><trkpt lat="43.6341883" lon="12.6538417"><ele>507.99999999999994</ele><time>2026-04-25T10:14:33.535Z</time></trkpt><trkpt lat="43.6342917" lon="12.6536533"><ele>508.0</ele><time>2026-04-25T10:14:35.532Z</time></trkpt><trkpt lat="43.634315" lon="12.653565"><ele>508.0</ele><time>2026-04-25T10:14:36.531Z</time></trkpt><trkpt lat="43.6343183" lon="12.65347"><ele>506.0</ele><time>2026-04-25T10:14:37.532Z</time></trkpt><trkpt lat="43.6343033" lon="12.6533667"><ele>503.99999999999994</ele><time>2026-04-25T10:14:38.533Z</time></trkpt><trkpt lat="43.6342683" lon="12.6532583"><ele>501.99999999999994</ele><time>2026-04-25T10:14:39.535Z</time></trkpt><trkpt lat="43.634215" lon="12.65314"><ele>500.0</ele><time>2026-04-25T10:14:40.532Z</time></trkpt><trkpt lat="43.6341367" lon="12.6530117"><ele>498.0</ele><time>2026-04-25T10:14:41.532Z</time></trkpt><trkpt lat="43.6340683" lon="12.65287"><ele>498.5</ele><time>2026-04-25T10:14:42.532Z</time></trkpt><trkpt lat="43.6340033" lon="12.6527133"><ele>499.0</ele><time>2026-04-25T10:14:43.535Z</time></trkpt><trkpt lat="43.6339417" lon="12.6525667"><ele>499.5</ele><time>2026-04-25T10:14:44.532Z</time></trkpt><trkpt lat="43.6338783" lon="12.65243"><ele>500.0</ele><time>2026-04-25T10:14:45.534Z</time></trkpt><trkpt lat="43.6338183" lon="12.6523017"><ele>499.99999999999994</ele><time>2026-04-25T10:14:46.532Z</time></trkpt><trkpt lat="43.6337667" lon="12.6521883"><ele>500.0</ele><time>2026-04-25T10:14:47.532Z</time></trkpt><trkpt lat="43.633725" lon="12.652095"><ele>500.0</ele><time>2026-04-25T10:14:48.532Z</time></trkpt><trkpt lat="43.6336867" lon="12.65202"><ele>500.0</ele><time>2026-04-25T10:14:49.535Z</time></trkpt><trkpt lat="43.6335967" lon="12.6519517"><ele>499.99999999999994</ele><time>2026-04-25T10:14:51.532Z</time></trkpt><trkpt lat="43.633515" lon="12.65199"><ele>500.0</ele><time>2026-04-25T10:14:53.532Z</time></trkpt><trkpt lat="43.6334933" lon="12.6522133"><ele>496.75</ele><time>2026-04-25T10:14:55.532Z</time></trkpt><trkpt lat="43.6334883" lon="12.6524033"><ele>493.5</ele><time>2026-04-25T10:14:56.531Z</time></trkpt><trkpt lat="43.63346" lon="12.6526083"><ele>490.25</ele><time>2026-04-25T10:14:57.532Z</time></trkpt><trkpt lat="43.633405" lon="12.6528"><ele>487.0</ele><time>2026-04-25T10:14:58.532Z</time></trkpt><trkpt lat="43.6333317" lon="12.6529817"><ele>487.0</ele><time>2026-04-25T10:14:59.534Z</time></trkpt><trkpt lat="43.63325" lon="12.6531417"><ele>487.0</ele><time>2026-04-25T10:15:00.531Z</time></trkpt><trkpt lat="43.6331567" lon="12.6532833"><ele>487.0</ele><time>2026-04-25T10:15:01.532Z</time></trkpt><trkpt lat="43.633045" lon="12.65341"><ele>487.0</ele><time>2026-04-25T10:15:02.534Z</time></trkpt><trkpt lat="43.6329217" lon="12.65352"><ele>485.75</ele><time>2026-04-25T10:15:03.534Z</time></trkpt><trkpt lat="43.6328017" lon="12.6536183"><ele>484.5</ele><time>2026-04-25T10:15:04.532Z</time></trkpt><trkpt lat="43.6326867" lon="12.6537117"><ele>483.25</ele><time>2026-04-25T10:15:05.533Z</time></trkpt><trkpt lat="43.6325733" lon="12.653805"><ele>482.0</ele><time>2026-04-25T10:15:06.533Z</time></trkpt><trkpt lat="43.6324617" lon="12.653885"><ele>482.0</ele><time>2026-04-25T10:15:07.535Z</time></trkpt><trkpt lat="43.6323483" lon="12.6539483"><ele>482.0</ele><time>2026-04-25T10:15:08.537Z</time></trkpt><trkpt lat="43.63223" lon="12.6539883"><ele>482.0</ele><time>2026-04-25T10:15:09.532Z</time></trkpt><trkpt lat="43.6321033" lon="12.65399"><ele>482.0</ele><time>2026-04-25T10:15:10.534Z</time></trkpt><trkpt lat="43.6319583" lon="12.6539667"><ele>479.0</ele><time>2026-04-25T10:15:11.534Z</time></trkpt><trkpt lat="43.6318133" lon="12.653925"><ele>476.0</ele><time>2026-04-25T10:15:12.532Z</time></trkpt><trkpt lat="43.6316767" lon="12.6538683"><ele>473.0</ele><time>2026-04-25T10:15:13.534Z</time></trkpt><trkpt lat="43.6315433" lon="12.6538"><ele>470.0</ele><time>2026-04-25T10:15:14.533Z</time></trkpt><trkpt lat="43.6313017" lon="12.6536983"><ele>470.0</ele><time>2026-04-25T10:15:16.532Z</time></trkpt><trkpt lat="43.63119" lon="12.6536783"><ele>470.0</ele><time>2026-04-25T10:15:17.531Z</time></trkpt><trkpt lat="43.6310733" lon="12.653675"><ele>470.0</ele><time>2026-04-25T10:15:18.53Z</time></trkpt><trkpt lat="43.6309433" lon="12.6536883"><ele>470.0</ele><time>2026-04-25T10:15:19.532Z</time></trkpt><trkpt lat="43.6308083" lon="12.6537033"><ele>470.75</ele><time>2026-04-25T10:15:20.531Z</time></trkpt><trkpt lat="43.630675" lon="12.653725"><ele>471.5</ele><time>2026-04-25T10:15:21.531Z</time></trkpt><trkpt lat="43.63054" lon="12.6537567"><ele>472.25</ele><time>2026-04-25T10:15:22.531Z</time></trkpt><trkpt lat="43.63041" lon="12.6537933"><ele>473.0</ele><time>2026-04-25T10:15:23.531Z</time></trkpt><trkpt lat="43.6302767" lon="12.65382"><ele>475.0</ele><time>2026-04-25T10:15:24.532Z</time></trkpt><trkpt lat="43.6301417" lon="12.6538417"><ele>477.0</ele><time>2026-04-25T10:15:25.531Z</time></trkpt><trkpt lat="43.6300083" lon="12.6538533"><ele>479.0</ele><time>2026-04-25T10:15:26.532Z</time></trkpt><trkpt lat="43.62988" lon="12.65386"><ele>481.0</ele><time>2026-04-25T10:15:27.531Z</time></trkpt><trkpt lat="43.6297583" lon="12.6538567"><ele>481.0</ele><time>2026-04-25T10:15:28.533Z</time></trkpt><trkpt lat="43.629645" lon="12.6538483"><ele>481.0</ele><time>2026-04-25T10:15:29.531Z</time></trkpt><trkpt lat="43.629545" lon="12.653845"><ele>481.0</ele><time>2026-04-25T10:15:30.531Z</time></trkpt><trkpt lat="43.629455" lon="12.653845"><ele>481.0</ele><time>2026-04-25T10:15:31.534Z</time></trkpt><trkpt lat="43.6293717" lon="12.6538517"><ele>481.0</ele><time>2026-04-25T10:15:32.535Z</time></trkpt><trkpt lat="43.6293" lon="12.6538733"><ele>478.6</ele><time>2026-04-25T10:15:33.534Z</time></trkpt><trkpt lat="43.6292417" lon="12.6539183"><ele>476.20000000000005</ele><time>2026-04-25T10:15:34.533Z</time></trkpt><trkpt lat="43.6291967" lon="12.65399"><ele>473.79999999999995</ele><time>2026-04-25T10:15:35.53Z</time></trkpt><trkpt lat="43.6291883" lon="12.6542517"><ele>471.4</ele><time>2026-04-25T10:15:37.535Z</time></trkpt><trkpt lat="43.6292033" lon="12.6544183"><ele>469.0</ele><time>2026-04-25T10:15:38.534Z</time></trkpt><trkpt lat="43.6292017" lon="12.65458"><ele>468.75</ele><time>2026-04-25T10:15:39.531Z</time></trkpt><trkpt lat="43.629185" lon="12.6547417"><ele>468.5</ele><time>2026-04-25T10:15:40.535Z</time></trkpt><trkpt lat="43.6291567" lon="12.6549033"><ele>468.25</ele><time>2026-04-25T10:15:41.532Z</time></trkpt><trkpt lat="43.6291183" lon="12.6550783"><ele>468.0</ele><time>2026-04-25T10:15:42.53Z</time></trkpt><trkpt lat="43.6290683" lon="12.6552683"><ele>467.33333333333337</ele><time>2026-04-25T10:15:43.531Z</time></trkpt><trkpt lat="43.6290067" lon="12.6554733"><ele>466.6666666666667</ele><time>2026-04-25T10:15:44.535Z</time></trkpt><trkpt lat="43.6289367" lon="12.6556883"><ele>466.0</ele><time>2026-04-25T10:15:45.532Z</time></trkpt><trkpt lat="43.6288633" lon="12.6559033"><ele>466.0</ele><time>2026-04-25T10:15:46.531Z</time></trkpt><trkpt lat="43.6287917" lon="12.6561117"><ele>466.0</ele><time>2026-04-25T10:15:47.531Z</time></trkpt><trkpt lat="43.628725" lon="12.6563067"><ele>466.0</ele><time>2026-04-25T10:15:48.53Z</time></trkpt><trkpt lat="43.6286633" lon="12.656485"><ele>465.25</ele><time>2026-04-25T10:15:49.532Z</time></trkpt><trkpt lat="43.628605" lon="12.656645"><ele>464.5</ele><time>2026-04-25T10:15:50.531Z</time></trkpt><trkpt lat="43.6285433" lon="12.6567983"><ele>463.75</ele><time>2026-04-25T10:15:51.53Z</time></trkpt><trkpt lat="43.6284767" lon="12.6569517"><ele>463.0</ele><time>2026-04-25T10:15:52.532Z</time></trkpt><trkpt lat="43.6284017" lon="12.6571033"><ele>463.0</ele><time>2026-04-25T10:15:53.536Z</time></trkpt><trkpt lat="43.62831" lon="12.6572667"><ele>463.0</ele><time>2026-04-25T10:15:54.532Z</time></trkpt><trkpt lat="43.62821" lon="12.65744"><ele>463.0</ele><time>2026-04-25T10:15:55.532Z</time></trkpt><trkpt lat="43.6281083" lon="12.65762"><ele>458.5</ele><time>2026-04-25T10:15:56.53Z</time></trkpt><trkpt lat="43.627915" lon="12.657975"><ele>454.0</ele><time>2026-04-25T10:15:58.532Z</time></trkpt><trkpt lat="43.6278217" lon="12.6581417"><ele>456.0</ele><time>2026-04-25T10:15:59.531Z</time></trkpt><trkpt lat="43.6277217" lon="12.658305"><ele>458.0</ele><time>2026-04-25T10:16:00.532Z</time></trkpt><trkpt lat="43.6276" lon="12.658465"><ele>460.0</ele><time>2026-04-25T10:16:01.533Z</time></trkpt><trkpt lat="43.62746" lon="12.6586267"><ele>460.0</ele><time>2026-04-25T10:16:02.532Z</time></trkpt><trkpt lat="43.62732" lon="12.6587833"><ele>460.0</ele><time>2026-04-25T10:16:03.53Z</time></trkpt><trkpt lat="43.6271883" lon="12.6589383"><ele>460.0</ele><time>2026-04-25T10:16:04.532Z</time></trkpt><trkpt lat="43.62706" lon="12.6590833"><ele>462.33333333333337</ele><time>2026-04-25T10:16:05.531Z</time></trkpt><trkpt lat="43.6269283" lon="12.6592133"><ele>464.66666666666663</ele><time>2026-04-25T10:16:06.532Z</time></trkpt><trkpt lat="43.6267917" lon="12.6593317"><ele>467.0</ele><time>2026-04-25T10:16:07.531Z</time></trkpt><trkpt lat="43.626645" lon="12.6594583"><ele>467.0</ele><time>2026-04-25T10:16:08.532Z</time></trkpt><trkpt lat="43.6264917" lon="12.65959"><ele>467.0</ele><time>2026-04-25T10:16:09.533Z</time></trkpt><trkpt lat="43.6263433" lon="12.65972"><ele>467.0</ele><time>2026-04-25T10:16:10.531Z</time></trkpt><trkpt lat="43.6262" lon="12.65984"><ele>465.0</ele><time>2026-04-25T10:16:11.532Z</time></trkpt><trkpt lat="43.62606" lon="12.6599467"><ele>463.0</ele><time>2026-04-25T10:16:12.531Z</time></trkpt><trkpt lat="43.6259233" lon="12.66003"><ele>461.0</ele><time>2026-04-25T10:16:13.531Z</time></trkpt><trkpt lat="43.6257917" lon="12.6600967"><ele>459.0</ele><time>2026-04-25T10:16:14.532Z</time></trkpt><trkpt lat="43.6256633" lon="12.6601667"><ele>459.0</ele><time>2026-04-25T10:16:15.53Z</time></trkpt><trkpt lat="43.6255383" lon="12.6602583"><ele>459.0</ele><time>2026-04-25T10:16:16.532Z</time></trkpt><trkpt lat="43.6254183" lon="12.6603717"><ele>459.0</ele><time>2026-04-25T10:16:17.532Z</time></trkpt><trkpt lat="43.625205" lon="12.6606033"><ele>458.2</ele><time>2026-04-25T10:16:19.532Z</time></trkpt><trkpt lat="43.6251233" lon="12.6607033"><ele>457.4</ele><time>2026-04-25T10:16:20.531Z</time></trkpt><trkpt lat="43.6250533" lon="12.660795"><ele>456.6</ele><time>2026-04-25T10:16:21.531Z</time></trkpt><trkpt lat="43.6249933" lon="12.6608817"><ele>455.8</ele><time>2026-04-25T10:16:22.531Z</time></trkpt><trkpt lat="43.62495" lon="12.6609617"><ele>455.0</ele><time>2026-04-25T10:16:23.533Z</time></trkpt><trkpt lat="43.6249517" lon="12.6611183"><ele>454.0</ele><time>2026-04-25T10:16:25.532Z</time></trkpt><trkpt lat="43.625015" lon="12.6611917"><ele>453.0</ele><time>2026-04-25T10:16:26.532Z</time></trkpt><trkpt lat="43.6250967" lon="12.6612633"><ele>452.0</ele><time>2026-04-25T10:16:27.53Z</time></trkpt><trkpt lat="43.6252133" lon="12.66134"><ele>451.0</ele><time>2026-04-25T10:16:28.532Z</time></trkpt><trkpt lat="43.6253667" lon="12.66142"><ele>450.6666666666667</ele><time>2026-04-25T10:16:29.533Z</time></trkpt><trkpt lat="43.625515" lon="12.66151"><ele>450.33333333333337</ele><time>2026-04-25T10:16:30.531Z</time></trkpt><trkpt lat="43.6256467" lon="12.6616033"><ele>450.0</ele><time>2026-04-25T10:16:31.531Z</time></trkpt><trkpt lat="43.62578" lon="12.6616983"><ele>450.0</ele><time>2026-04-25T10:16:32.532Z</time></trkpt><trkpt lat="43.6259117" lon="12.6617917"><ele>450.0</ele><time>2026-04-25T10:16:33.531Z</time></trkpt><trkpt lat="43.6260433" lon="12.6618817"><ele>450.0</ele><time>2026-04-25T10:16:34.531Z</time></trkpt><trkpt lat="43.6261683" lon="12.66197"><ele>450.0</ele><time>2026-04-25T10:16:35.535Z</time></trkpt><trkpt lat="43.6262917" lon="12.6620583"><ele>445.33333333333337</ele><time>2026-04-25T10:16:36.534Z</time></trkpt><trkpt lat="43.6264083" lon="12.6621433"><ele>440.6666666666667</ele><time>2026-04-25T10:16:37.534Z</time></trkpt><trkpt lat="43.6265217" lon="12.662215"><ele>436.0</ele><time>2026-04-25T10:16:38.53Z</time></trkpt><trkpt lat="43.626745" lon="12.6622867"><ele>436.0</ele><time>2026-04-25T10:16:40.532Z</time></trkpt><trkpt lat="43.6268517" lon="12.6622733"><ele>436.0</ele><time>2026-04-25T10:16:41.531Z</time></trkpt><trkpt lat="43.6269483" lon="12.6622267"><ele>436.0</ele><time>2026-04-25T10:16:42.531Z</time></trkpt><trkpt lat="43.6270417" lon="12.6621517"><ele>436.0</ele><time>2026-04-25T10:16:43.533Z</time></trkpt><trkpt lat="43.6271283" lon="12.6620467"><ele>436.0</ele><time>2026-04-25T10:16:44.532Z</time></trkpt><trkpt lat="43.6272183" lon="12.6619133"><ele>434.5</ele><time>2026-04-25T10:16:45.531Z</time></trkpt><trkpt lat="43.6273067" lon="12.66176"><ele>433.0</ele><time>2026-04-25T10:16:46.531Z</time></trkpt><trkpt lat="43.6273917" lon="12.661605"><ele>431.5</ele><time>2026-04-25T10:16:47.532Z</time></trkpt><trkpt lat="43.6274733" lon="12.6614633"><ele>430.0</ele><time>2026-04-25T10:16:48.534Z</time></trkpt><trkpt lat="43.6275483" lon="12.6613367"><ele>430.0</ele><time>2026-04-25T10:16:49.534Z</time></trkpt><trkpt lat="43.6276183" lon="12.6612267"><ele>430.0</ele><time>2026-04-25T10:16:50.533Z</time></trkpt><trkpt lat="43.6276817" lon="12.6611367"><ele>430.0</ele><time>2026-04-25T10:16:51.532Z</time></trkpt><trkpt lat="43.6277417" lon="12.661065"><ele>430.0</ele><time>2026-04-25T10:16:52.534Z</time></trkpt><trkpt lat="43.6278017" lon="12.6610217"><ele>430.0</ele><time>2026-04-25T10:16:53.531Z</time></trkpt><trkpt lat="43.6279083" lon="12.6610117"><ele>430.0</ele><time>2026-04-25T10:16:55.536Z</time></trkpt><trkpt lat="43.6279367" lon="12.6611233"><ele>430.0</ele><time>2026-04-25T10:16:57.532Z</time></trkpt><trkpt lat="43.6279317" lon="12.66121"><ele>430.0</ele><time>2026-04-25T10:16:58.533Z</time></trkpt><trkpt lat="43.62787" lon="12.6613733"><ele>430.0</ele><time>2026-04-25T10:16:59.531Z</time></trkpt><trkpt lat="43.6277583" lon="12.661715"><ele>430.0</ele><time>2026-04-25T10:17:01.531Z</time></trkpt><trkpt lat="43.627735" lon="12.6618667"><ele>430.0</ele><time>2026-04-25T10:17:02.532Z</time></trkpt><trkpt lat="43.6277117" lon="12.662005"><ele>430.0</ele><time>2026-04-25T10:17:03.532Z</time></trkpt><trkpt lat="43.6276667" lon="12.6621217"><ele>430.0</ele><time>2026-04-25T10:17:04.533Z</time></trkpt><trkpt lat="43.627605" lon="12.6622233"><ele>430.0</ele><time>2026-04-25T10:17:05.534Z</time></trkpt><trkpt lat="43.6275133" lon="12.66231"><ele>426.25</ele><time>2026-04-25T10:17:06.531Z</time></trkpt><trkpt lat="43.627415" lon="12.6624"><ele>422.5</ele><time>2026-04-25T10:17:07.535Z</time></trkpt><trkpt lat="43.62733" lon="12.6625"><ele>418.75</ele><time>2026-04-25T10:17:08.534Z</time></trkpt><trkpt lat="43.6272467" lon="12.6626317"><ele>415.0</ele><time>2026-04-25T10:17:09.533Z</time></trkpt><trkpt lat="43.6271717" lon="12.6627883"><ele>413.0</ele><time>2026-04-25T10:17:10.531Z</time></trkpt><trkpt lat="43.62711" lon="12.6629467"><ele>411.0</ele><time>2026-04-25T10:17:11.534Z</time></trkpt><trkpt lat="43.627045" lon="12.663095"><ele>409.0</ele><time>2026-04-25T10:17:12.531Z</time></trkpt><trkpt lat="43.6269817" lon="12.6632233"><ele>407.0</ele><time>2026-04-25T10:17:13.531Z</time></trkpt><trkpt lat="43.626905" lon="12.663325"><ele>407.0</ele><time>2026-04-25T10:17:14.534Z</time></trkpt><trkpt lat="43.6268083" lon="12.6633933"><ele>407.0</ele><time>2026-04-25T10:17:15.532Z</time></trkpt><trkpt lat="43.6266983" lon="12.66343"><ele>407.0</ele><time>2026-04-25T10:17:16.534Z</time></trkpt><trkpt lat="43.6265817" lon="12.663445"><ele>407.0</ele><time>2026-04-25T10:17:17.532Z</time></trkpt><trkpt lat="43.6264633" lon="12.66345"><ele>407.0</ele><time>2026-04-25T10:17:18.536Z</time></trkpt><trkpt lat="43.6263517" lon="12.66345"><ele>407.0</ele><time>2026-04-25T10:17:19.531Z</time></trkpt><trkpt lat="43.6262417" lon="12.6634483"><ele>407.0</ele><time>2026-04-25T10:17:20.533Z</time></trkpt><trkpt lat="43.6260367" lon="12.6633817"><ele>407.0</ele><time>2026-04-25T10:17:22.532Z</time></trkpt><trkpt lat="43.6259433" lon="12.6633367"><ele>406.20000000000005</ele><time>2026-04-25T10:17:23.534Z</time></trkpt><trkpt lat="43.62585" lon="12.663315"><ele>405.4</ele><time>2026-04-25T10:17:24.532Z</time></trkpt><trkpt lat="43.6257583" lon="12.66332"><ele>404.6</ele><time>2026-04-25T10:17:25.531Z</time></trkpt><trkpt lat="43.625665" lon="12.6633617"><ele>403.79999999999995</ele><time>2026-04-25T10:17:26.531Z</time></trkpt><trkpt lat="43.6255733" lon="12.6634217"><ele>403.0</ele><time>2026-04-25T10:17:27.531Z</time></trkpt><trkpt lat="43.6254867" lon="12.6634983"><ele>403.0</ele><time>2026-04-25T10:17:28.532Z</time></trkpt><trkpt lat="43.6254033" lon="12.6635967"><ele>403.0</ele><time>2026-04-25T10:17:29.531Z</time></trkpt><trkpt lat="43.6253283" lon="12.6637183"><ele>403.0</ele><time>2026-04-25T10:17:30.534Z</time></trkpt><trkpt lat="43.6252617" lon="12.663855"><ele>403.0</ele><time>2026-04-25T10:17:31.532Z</time></trkpt><trkpt lat="43.6252017" lon="12.6639933"><ele>400.5</ele><time>2026-04-25T10:17:32.531Z</time></trkpt><trkpt lat="43.6251333" lon="12.6641267"><ele>398.0</ele><time>2026-04-25T10:17:33.532Z</time></trkpt><trkpt lat="43.62505" lon="12.66426"><ele>395.5</ele><time>2026-04-25T10:17:34.532Z</time></trkpt><trkpt lat="43.6249567" lon="12.66439"><ele>393.0</ele><time>2026-04-25T10:17:35.531Z</time></trkpt><trkpt lat="43.62487" lon="12.6645267"><ele>387.0</ele><time>2026-04-25T10:17:36.532Z</time></trkpt><trkpt lat="43.62479" lon="12.6646783"><ele>381.0</ele><time>2026-04-25T10:17:37.532Z</time></trkpt><trkpt lat="43.624715" lon="12.66485"><ele>375.0</ele><time>2026-04-25T10:17:38.531Z</time></trkpt><trkpt lat="43.6246483" lon="12.665035"><ele>369.0</ele><time>2026-04-25T10:17:39.531Z</time></trkpt><trkpt lat="43.6245883" lon="12.665215"><ele>369.6666666666667</ele><time>2026-04-25T10:17:40.531Z</time></trkpt><trkpt lat="43.624525" lon="12.665395"><ele>370.33333333333337</ele><time>2026-04-25T10:17:41.534Z</time></trkpt><trkpt lat="43.6244" lon="12.6657533"><ele>371.0</ele><time>2026-04-25T10:17:43.533Z</time></trkpt><trkpt lat="43.6243367" lon="12.6659167"><ele>371.0</ele><time>2026-04-25T10:17:44.534Z</time></trkpt><trkpt lat="43.624275" lon="12.6660733"><ele>371.0</ele><time>2026-04-25T10:17:45.531Z</time></trkpt><trkpt lat="43.62421" lon="12.66622"><ele>371.0</ele><time>2026-04-25T10:17:46.531Z</time></trkpt><trkpt lat="43.624145" lon="12.6663517"><ele>371.0</ele><time>2026-04-25T10:17:47.535Z</time></trkpt><trkpt lat="43.62407" lon="12.6664483"><ele>368.4</ele><time>2026-04-25T10:17:48.532Z</time></trkpt><trkpt lat="43.623985" lon="12.66651"><ele>365.8</ele><time>2026-04-25T10:17:49.531Z</time></trkpt><trkpt lat="43.62389" lon="12.666535"><ele>363.2</ele><time>2026-04-25T10:17:50.53Z</time></trkpt><trkpt lat="43.623785" lon="12.6665217"><ele>360.59999999999997</ele><time>2026-04-25T10:17:51.532Z</time></trkpt><trkpt lat="43.623675" lon="12.666485"><ele>358.0</ele><time>2026-04-25T10:17:52.532Z</time></trkpt><trkpt lat="43.6235667" lon="12.666445"><ele>356.59999999999997</ele><time>2026-04-25T10:17:53.532Z</time></trkpt><trkpt lat="43.6234633" lon="12.6664067"><ele>355.2</ele><time>2026-04-25T10:17:54.532Z</time></trkpt><trkpt lat="43.6233617" lon="12.666375"><ele>353.8</ele><time>2026-04-25T10:17:55.531Z</time></trkpt><trkpt lat="43.6232567" lon="12.6663583"><ele>352.4</ele><time>2026-04-25T10:17:56.531Z</time></trkpt><trkpt lat="43.6231517" lon="12.6663633"><ele>351.0</ele><time>2026-04-25T10:17:57.533Z</time></trkpt><trkpt lat="43.62305" lon="12.66638"><ele>351.0</ele><time>2026-04-25T10:17:58.533Z</time></trkpt><trkpt lat="43.622955" lon="12.6664017"><ele>351.0</ele><time>2026-04-25T10:17:59.534Z</time></trkpt><trkpt lat="43.6228733" lon="12.6664233"><ele>351.0</ele><time>2026-04-25T10:18:00.535Z</time></trkpt><trkpt lat="43.6228033" lon="12.66644"><ele>351.0</ele><time>2026-04-25T10:18:01.532Z</time></trkpt><trkpt lat="43.62269" lon="12.66645"><ele>351.0</ele><time>2026-04-25T10:18:03.532Z</time></trkpt><trkpt lat="43.6227667" lon="12.666245"><ele>351.0</ele><time>2026-04-25T10:18:08.531Z</time></trkpt><trkpt lat="43.62282" lon="12.66619"><ele>351.0</ele><time>2026-04-25T10:18:09.532Z</time></trkpt><trkpt lat="43.62289" lon="12.6660783"><ele>351.0</ele><time>2026-04-25T10:18:11.534Z</time></trkpt><trkpt lat="43.6228917" lon="12.6659867"><ele>351.0</ele><time>2026-04-25T10:18:13.531Z</time></trkpt><trkpt lat="43.6227967" lon="12.6659917"><ele>351.0</ele><time>2026-04-25T10:18:15.531Z</time></trkpt><trkpt lat="43.6227117" lon="12.6660283"><ele>351.0</ele><time>2026-04-25T10:18:16.531Z</time></trkpt><trkpt lat="43.6226017" lon="12.6660883"><ele>349.0</ele><time>2026-04-25T10:18:17.531Z</time></trkpt><trkpt lat="43.6224867" lon="12.6661533"><ele>347.0</ele><time>2026-04-25T10:18:18.531Z</time></trkpt><trkpt lat="43.622365" lon="12.6662217"><ele>345.0</ele><time>2026-04-25T10:18:19.531Z</time></trkpt><trkpt lat="43.6222483" lon="12.6663083"><ele>343.0</ele><time>2026-04-25T10:18:20.533Z</time></trkpt><trkpt lat="43.6221383" lon="12.6664033"><ele>343.0</ele><time>2026-04-25T10:18:21.533Z</time></trkpt><trkpt lat="43.6220267" lon="12.6665183"><ele>343.0</ele><time>2026-04-25T10:18:22.531Z</time></trkpt><trkpt lat="43.6219233" lon="12.6666317"><ele>343.0</ele><time>2026-04-25T10:18:23.531Z</time></trkpt><trkpt lat="43.6218167" lon="12.666745"><ele>343.0</ele><time>2026-04-25T10:18:24.531Z</time></trkpt><trkpt lat="43.6216133" lon="12.6669767"><ele>339.0</ele><time>2026-04-25T10:18:26.534Z</time></trkpt><trkpt lat="43.6215167" lon="12.6670983"><ele>335.0</ele><time>2026-04-25T10:18:27.533Z</time></trkpt><trkpt lat="43.62143" lon="12.6672233"><ele>331.0</ele><time>2026-04-25T10:18:28.531Z</time></trkpt><trkpt lat="43.6213517" lon="12.667355"><ele>327.0</ele><time>2026-04-25T10:18:29.535Z</time></trkpt><trkpt lat="43.6212733" lon="12.6675"><ele>327.0</ele><time>2026-04-25T10:18:30.534Z</time></trkpt><trkpt lat="43.6211967" lon="12.6676467"><ele>327.0</ele><time>2026-04-25T10:18:31.534Z</time></trkpt><trkpt lat="43.62113" lon="12.667805"><ele>327.0</ele><time>2026-04-25T10:18:32.534Z</time></trkpt><trkpt lat="43.62106" lon="12.6679783"><ele>327.0</ele><time>2026-04-25T10:18:33.536Z</time></trkpt><trkpt lat="43.6209867" lon="12.6681633"><ele>313.6666666666667</ele><time>2026-04-25T10:18:34.534Z</time></trkpt><trkpt lat="43.620915" lon="12.6683483"><ele>300.33333333333337</ele><time>2026-04-25T10:18:35.532Z</time></trkpt><trkpt lat="43.6208483" lon="12.6685383"><ele>287.0</ele><time>2026-04-25T10:18:36.534Z</time></trkpt><trkpt lat="43.6207867" lon="12.668725"><ele>286.5</ele><time>2026-04-25T10:18:37.534Z</time></trkpt><trkpt lat="43.62072" lon="12.668915"><ele>286.0</ele><time>2026-04-25T10:18:38.535Z</time></trkpt><trkpt lat="43.6206517" lon="12.6690817"><ele>285.5</ele><time>2026-04-25T10:18:39.532Z</time></trkpt><trkpt lat="43.6205817" lon="12.6692333"><ele>285.0</ele><time>2026-04-25T10:18:40.533Z</time></trkpt><trkpt lat="43.6205183" lon="12.6693783"><ele>283.2</ele><time>2026-04-25T10:18:41.533Z</time></trkpt><trkpt lat="43.620455" lon="12.6695117"><ele>281.4</ele><time>2026-04-25T10:18:42.533Z</time></trkpt><trkpt lat="43.6204" lon="12.66964"><ele>279.6</ele><time>2026-04-25T10:18:43.531Z</time></trkpt><trkpt lat="43.6203467" lon="12.6697517"><ele>277.8</ele><time>2026-04-25T10:18:44.531Z</time></trkpt><trkpt lat="43.6203033" lon="12.6698533"><ele>276.0</ele><time>2026-04-25T10:18:45.532Z</time></trkpt><trkpt lat="43.6202317" lon="12.6700283"><ele>271.0</ele><time>2026-04-25T10:18:47.532Z</time></trkpt><trkpt lat="43.62016" lon="12.67013"><ele>266.0</ele><time>2026-04-25T10:18:49.532Z</time></trkpt><trkpt lat="43.6200967" lon="12.670065"><ele>261.0</ele><time>2026-04-25T10:18:52.531Z</time></trkpt><trkpt lat="43.6201033" lon="12.6699733"><ele>256.0</ele><time>2026-04-25T10:18:53.531Z</time></trkpt><trkpt lat="43.6201133" lon="12.66985"><ele>251.0</ele><time>2026-04-25T10:18:54.534Z</time></trkpt><trkpt lat="43.6201683" lon="12.6695083"><ele>253.66666666666669</ele><time>2026-04-25T10:18:55.532Z</time></trkpt><trkpt lat="43.6202167" lon="12.6692717"><ele>256.3333333333333</ele><time>2026-04-25T10:18:56.531Z</time></trkpt><trkpt lat="43.6202417" lon="12.6690967"><ele>259.0</ele><time>2026-04-25T10:18:57.531Z</time></trkpt><trkpt lat="43.620285" lon="12.6688783"><ele>259.0</ele><time>2026-04-25T10:18:58.532Z</time></trkpt><trkpt lat="43.6202983" lon="12.6687417"><ele>259.0</ele><time>2026-04-25T10:18:59.534Z</time></trkpt><trkpt lat="43.6202817" lon="12.66864"><ele>259.0</ele><time>2026-04-25T10:19:00.531Z</time></trkpt><trkpt lat="43.6201933" lon="12.6685767"><ele>259.0</ele><time>2026-04-25T10:19:02.533Z</time></trkpt><trkpt lat="43.620095" lon="12.6686717"><ele>259.0</ele><time>2026-04-25T10:19:04.532Z</time></trkpt><trkpt lat="43.6200333" lon="12.66879"><ele>259.0</ele><time>2026-04-25T10:19:05.532Z</time></trkpt><trkpt lat="43.6199433" lon="12.669025"><ele>259.0</ele><time>2026-04-25T10:19:06.531Z</time></trkpt><trkpt lat="43.6197867" lon="12.6693983"><ele>257.0</ele><time>2026-04-25T10:19:08.534Z</time></trkpt><trkpt lat="43.61973" lon="12.66957"><ele>255.0</ele><time>2026-04-25T10:19:09.531Z</time></trkpt><trkpt lat="43.619685" lon="12.66974"><ele>253.0</ele><time>2026-04-25T10:19:10.532Z</time></trkpt><trkpt lat="43.6196667" lon="12.6699083"><ele>251.0</ele><time>2026-04-25T10:19:11.532Z</time></trkpt><trkpt lat="43.6196683" lon="12.67007"><ele>251.0</ele><time>2026-04-25T10:19:12.535Z</time></trkpt><trkpt lat="43.619705" lon="12.670235"><ele>251.0</ele><time>2026-04-25T10:19:13.533Z</time></trkpt><trkpt lat="43.6197683" lon="12.6703983"><ele>251.0</ele><time>2026-04-25T10:19:14.535Z</time></trkpt><trkpt lat="43.619855" lon="12.670535"><ele>251.0</ele><time>2026-04-25T10:19:15.531Z</time></trkpt><trkpt lat="43.6199467" lon="12.6706567"><ele>248.20000000000002</ele><time>2026-04-25T10:19:16.532Z</time></trkpt><trkpt lat="43.6200217" lon="12.6707783"><ele>245.40000000000003</ele><time>2026-04-25T10:19:17.531Z</time></trkpt><trkpt lat="43.6200683" lon="12.670895"><ele>242.6</ele><time>2026-04-25T10:19:18.531Z</time></trkpt><trkpt lat="43.6200817" lon="12.6710217"><ele>239.8</ele><time>2026-04-25T10:19:19.532Z</time></trkpt><trkpt lat="43.6200583" lon="12.6711283"><ele>237.0</ele><time>2026-04-25T10:19:20.531Z</time></trkpt><trkpt lat="43.6199517" lon="12.6712167"><ele>237.0</ele><time>2026-04-25T10:19:22.532Z</time></trkpt><trkpt lat="43.619735" lon="12.6710833"><ele>237.0</ele><time>2026-04-25T10:19:23.533Z</time></trkpt><trkpt lat="43.6195933" lon="12.671065"><ele>237.0</ele><time>2026-04-25T10:19:24.533Z</time></trkpt><trkpt lat="43.619435" lon="12.6710683"><ele>228.0</ele><time>2026-04-25T10:19:25.533Z</time></trkpt><trkpt lat="43.6192833" lon="12.67111"><ele>219.0</ele><time>2026-04-25T10:19:26.532Z</time></trkpt><trkpt lat="43.61913" lon="12.6711567"><ele>210.0</ele><time>2026-04-25T10:19:27.532Z</time></trkpt><trkpt lat="43.6188283" lon="12.6711967"><ele>210.0</ele><time>2026-04-25T10:19:29.532Z</time></trkpt><trkpt lat="43.6186967" lon="12.6711983"><ele>210.0</ele><time>2026-04-25T10:19:30.534Z</time></trkpt><trkpt lat="43.6185817" lon="12.6711967"><ele>210.0</ele><time>2026-04-25T10:19:31.534Z</time></trkpt><trkpt lat="43.6184783" lon="12.6711933"><ele>210.0</ele><time>2026-04-25T10:19:32.535Z</time></trkpt><trkpt lat="43.6183883" lon="12.6712"><ele>210.0</ele><time>2026-04-25T10:19:33.536Z</time></trkpt><trkpt lat="43.6183017" lon="12.6712117"><ele>209.2</ele><time>2026-04-25T10:19:34.536Z</time></trkpt><trkpt lat="43.6182133" lon="12.6712233"><ele>208.4</ele><time>2026-04-25T10:19:35.534Z</time></trkpt><trkpt lat="43.61812" lon="12.67123"><ele>207.60000000000002</ele><time>2026-04-25T10:19:36.535Z</time></trkpt><trkpt lat="43.6180283" lon="12.6712417"><ele>206.8</ele><time>2026-04-25T10:19:37.534Z</time></trkpt><trkpt lat="43.6179367" lon="12.6712567"><ele>206.0</ele><time>2026-04-25T10:19:38.535Z</time></trkpt><trkpt lat="43.6178483" lon="12.6712783"><ele>205.66666666666669</ele><time>2026-04-25T10:19:39.531Z</time></trkpt><trkpt lat="43.6177683" lon="12.6713"><ele>205.33333333333334</ele><time>2026-04-25T10:19:40.532Z</time></trkpt><trkpt lat="43.6177033" lon="12.6713183"><ele>205.0</ele><time>2026-04-25T10:19:41.531Z</time></trkpt><trkpt lat="43.6176167" lon="12.671335"><ele>204.66666666666669</ele><time>2026-04-25T10:19:43.532Z</time></trkpt><trkpt lat="43.6175417" lon="12.671315"><ele>204.33333333333334</ele><time>2026-04-25T10:19:46.533Z</time></trkpt><trkpt lat="43.6174633" lon="12.6712467"><ele>204.0</ele><time>2026-04-25T10:20:04.534Z</time></trkpt><trkpt lat="43.617305" lon="12.671255"><ele>204.0</ele><time>2026-04-25T10:20:08.532Z</time></trkpt><trkpt lat="43.6171983" lon="12.6712267"><ele>204.0</ele><time>2026-04-25T10:20:10.536Z</time></trkpt><trkpt lat="43.6170867" lon="12.6711983"><ele>204.0</ele><time>2026-04-25T10:20:12.535Z</time></trkpt><trkpt lat="43.6169783" lon="12.67118"><ele>204.0</ele><time>2026-04-25T10:20:14.533Z</time></trkpt><trkpt lat="43.6169067" lon="12.671155"><ele>204.0</ele><time>2026-04-25T10:20:16.533Z</time></trkpt><trkpt lat="43.6168317" lon="12.6711267"><ele>204.0</ele><time>2026-04-25T10:20:31.532Z</time></trkpt><trkpt lat="43.6166667" lon="12.6711083"><ele>204.0</ele><time>2026-04-25T10:20:53.531Z</time></trkpt></trkseg><trkseg><trkpt lat="43.6165917" lon="12.6710283"><ele>205.0</ele><time>2026-04-25T11:52:51.536Z</time></trkpt><trkpt lat="43.6166617" lon="12.67103"><ele>205.0</ele><time>2026-04-25T11:56:02.532Z</time></trkpt><trkpt lat="43.6167983" lon="12.6710233"><ele>205.0</ele><time>2026-04-25T11:56:10.534Z</time></trkpt><trkpt lat="43.61686" lon="12.6710033"><ele>205.0</ele><time>2026-04-25T11:56:31.534Z</time></trkpt><trkpt lat="43.6168517" lon="12.6707333"><ele>204.99999999999997</ele><time>2026-04-25T11:56:35.537Z</time></trkpt><trkpt lat="43.61686" lon="12.6705983"><ele>205.0</ele><time>2026-04-25T11:56:37.534Z</time></trkpt><trkpt lat="43.6168817" lon="12.6704783"><ele>205.0</ele><time>2026-04-25T11:56:39.534Z</time></trkpt><trkpt lat="43.6169017" lon="12.6703767"><ele>205.0</ele><time>2026-04-25T11:56:41.531Z</time></trkpt><trkpt lat="43.6169667" lon="12.67042"><ele>204.99999999999997</ele><time>2026-04-25T11:56:45.531Z</time></trkpt><trkpt lat="43.6170167" lon="12.6705067"><ele>205.0</ele><time>2026-04-25T11:56:46.532Z</time></trkpt><trkpt lat="43.6170717" lon="12.6706183"><ele>204.8</ele><time>2026-04-25T11:56:47.532Z</time></trkpt><trkpt lat="43.61714" lon="12.6707367"><ele>204.6</ele><time>2026-04-25T11:56:48.532Z</time></trkpt><trkpt lat="43.6172067" lon="12.6708517"><ele>204.39999999999998</ele><time>2026-04-25T11:56:49.531Z</time></trkpt><trkpt lat="43.6172683" lon="12.6709567"><ele>204.2</ele><time>2026-04-25T11:56:50.53Z</time></trkpt><trkpt lat="43.617325" lon="12.67105"><ele>204.0</ele><time>2026-04-25T11:56:51.534Z</time></trkpt><trkpt lat="43.61737" lon="12.671135"><ele>204.0</ele><time>2026-04-25T11:56:52.536Z</time></trkpt><trkpt lat="43.61745" lon="12.6712867"><ele>204.0</ele><time>2026-04-25T11:56:54.534Z</time></trkpt><trkpt lat="43.6175083" lon="12.671415"><ele>204.0</ele><time>2026-04-25T11:56:56.534Z</time></trkpt><trkpt lat="43.61754" lon="12.6715483"><ele>204.0</ele><time>2026-04-25T11:56:58.532Z</time></trkpt><trkpt lat="43.6175717" lon="12.6716767"><ele>204.0</ele><time>2026-04-25T11:57:00.532Z</time></trkpt><trkpt lat="43.6175917" lon="12.67178"><ele>204.0</ele><time>2026-04-25T11:57:02.532Z</time></trkpt><trkpt lat="43.617635" lon="12.671685"><ele>204.0</ele><time>2026-04-25T11:57:35.536Z</time></trkpt><trkpt lat="43.6176033" lon="12.6714483"><ele>204.0</ele><time>2026-04-25T11:57:38.532Z</time></trkpt><trkpt lat="43.6176267" lon="12.6713567"><ele>204.0</ele><time>2026-04-25T11:57:40.533Z</time></trkpt><trkpt lat="43.61771" lon="12.67132"><ele>204.0</ele><time>2026-04-25T11:57:42.534Z</time></trkpt><trkpt lat="43.61782" lon="12.6712617"><ele>204.28571428571428</ele><time>2026-04-25T11:57:44.535Z</time></trkpt><trkpt lat="43.617895" lon="12.6712367"><ele>204.57142857142858</ele><time>2026-04-25T11:57:45.537Z</time></trkpt><trkpt lat="43.6179717" lon="12.6712183"><ele>204.85714285714283</ele><time>2026-04-25T11:57:46.532Z</time></trkpt><trkpt lat="43.6180417" lon="12.67121"><ele>205.14285714285714</ele><time>2026-04-25T11:57:47.532Z</time></trkpt><trkpt lat="43.618105" lon="12.6712"><ele>205.42857142857142</ele><time>2026-04-25T11:57:48.533Z</time></trkpt><trkpt lat="43.6181683" lon="12.6711917"><ele>205.7142857142857</ele><time>2026-04-25T11:57:49.534Z</time></trkpt><trkpt lat="43.6182567" lon="12.6711767"><ele>206.0</ele><time>2026-04-25T11:57:51.531Z</time></trkpt><trkpt lat="43.61832" lon="12.671185"><ele>206.0</ele><time>2026-04-25T11:57:54.534Z</time></trkpt><trkpt lat="43.618445" lon="12.671175"><ele>206.0</ele><time>2026-04-25T11:58:02.532Z</time></trkpt><trkpt lat="43.6186383" lon="12.671175"><ele>206.0</ele><time>2026-04-25T11:58:04.534Z</time></trkpt><trkpt lat="43.6187433" lon="12.6711717"><ele>206.0</ele><time>2026-04-25T11:58:05.535Z</time></trkpt><trkpt lat="43.61885" lon="12.671165"><ele>207.0</ele><time>2026-04-25T11:58:06.535Z</time></trkpt><trkpt lat="43.6189633" lon="12.6711467"><ele>208.0</ele><time>2026-04-25T11:58:07.535Z</time></trkpt><trkpt lat="43.6190833" lon="12.6711167"><ele>209.0</ele><time>2026-04-25T11:58:08.535Z</time></trkpt><trkpt lat="43.6192117" lon="12.6710883"><ele>210.0</ele><time>2026-04-25T11:58:09.535Z</time></trkpt><trkpt lat="43.6193483" lon="12.6710567"><ele>216.75</ele><time>2026-04-25T11:58:10.534Z</time></trkpt><trkpt lat="43.6194867" lon="12.6710267"><ele>223.5</ele><time>2026-04-25T11:58:11.533Z</time></trkpt><trkpt lat="43.619615" lon="12.6710183"><ele>230.25</ele><time>2026-04-25T11:58:12.531Z</time></trkpt><trkpt lat="43.6197283" lon="12.6710367"><ele>237.0</ele><time>2026-04-25T11:58:13.533Z</time></trkpt><trkpt lat="43.6198283" lon="12.6710667"><ele>237.0</ele><time>2026-04-25T11:58:14.533Z</time></trkpt><trkpt lat="43.619925" lon="12.671095"><ele>237.0</ele><time>2026-04-25T11:58:15.532Z</time></trkpt><trkpt lat="43.6200117" lon="12.6710867"><ele>237.0</ele><time>2026-04-25T11:58:16.531Z</time></trkpt><trkpt lat="43.62009" lon="12.6710533"><ele>237.0</ele><time>2026-04-25T11:58:17.532Z</time></trkpt><trkpt lat="43.620145" lon="12.6709933"><ele>237.0</ele><time>2026-04-25T11:58:18.532Z</time></trkpt><trkpt lat="43.6201633" lon="12.670895"><ele>237.0</ele><time>2026-04-25T11:58:19.532Z</time></trkpt><trkpt lat="43.6201783" lon="12.6707917"><ele>237.0</ele><time>2026-04-25T11:58:20.533Z</time></trkpt><trkpt lat="43.620125" lon="12.6706767"><ele>237.0</ele><time>2026-04-25T11:58:21.532Z</time></trkpt><trkpt lat="43.6200733" lon="12.67053"><ele>237.0</ele><time>2026-04-25T11:58:22.532Z</time></trkpt><trkpt lat="43.61998" lon="12.670365"><ele>237.0</ele><time>2026-04-25T11:58:23.532Z</time></trkpt><trkpt lat="43.619905" lon="12.670025"><ele>240.5</ele><time>2026-04-25T11:58:25.532Z</time></trkpt><trkpt lat="43.6199017" lon="12.669835"><ele>244.0</ele><time>2026-04-25T11:58:26.534Z</time></trkpt><trkpt lat="43.6199067" lon="12.6696383"><ele>247.5</ele><time>2026-04-25T11:58:27.532Z</time></trkpt><trkpt lat="43.6199" lon="12.6694267"><ele>251.0</ele><time>2026-04-25T11:58:28.536Z</time></trkpt><trkpt lat="43.6199433" lon="12.6692417"><ele>253.0</ele><time>2026-04-25T11:58:29.532Z</time></trkpt><trkpt lat="43.619995" lon="12.6690667"><ele>255.0</ele><time>2026-04-25T11:58:30.532Z</time></trkpt><trkpt lat="43.62005" lon="12.668905"><ele>257.0</ele><time>2026-04-25T11:58:31.532Z</time></trkpt><trkpt lat="43.6201017" lon="12.6687617"><ele>259.0</ele><time>2026-04-25T11:58:32.532Z</time></trkpt><trkpt lat="43.62014" lon="12.668645"><ele>262.3333333333333</ele><time>2026-04-25T11:58:33.537Z</time></trkpt><trkpt lat="43.620175" lon="12.6685517"><ele>265.66666666666663</ele><time>2026-04-25T11:58:34.533Z</time></trkpt><trkpt lat="43.6202217" lon="12.66848"><ele>269.0</ele><time>2026-04-25T11:58:35.532Z</time></trkpt><trkpt lat="43.6202867" lon="12.6685017"><ele>272.3333333333333</ele><time>2026-04-25T11:58:37.54Z</time></trkpt><trkpt lat="43.62034" lon="12.6685983"><ele>275.6666666666667</ele><time>2026-04-25T11:58:39.536Z</time></trkpt><trkpt lat="43.6203817" lon="12.6687417"><ele>279.0</ele><time>2026-04-25T11:58:40.531Z</time></trkpt><trkpt lat="43.6203417" lon="12.6689533"><ele>281.0</ele><time>2026-04-25T11:58:41.534Z</time></trkpt><trkpt lat="43.6203183" lon="12.66914"><ele>283.0</ele><time>2026-04-25T11:58:42.533Z</time></trkpt><trkpt lat="43.6202733" lon="12.669365"><ele>285.0</ele><time>2026-04-25T11:58:43.536Z</time></trkpt><trkpt lat="43.6202433" lon="12.669575"><ele>276.5</ele><time>2026-04-25T11:58:44.532Z</time></trkpt><trkpt lat="43.620205" lon="12.6699"><ele>268.0</ele><time>2026-04-25T11:58:46.532Z</time></trkpt><trkpt lat="43.6201683" lon="12.6700183"><ele>259.5</ele><time>2026-04-25T11:58:47.531Z</time></trkpt><trkpt lat="43.6201517" lon="12.670135"><ele>251.0</ele><time>2026-04-25T11:58:49.532Z</time></trkpt><trkpt lat="43.620225" lon="12.6700217"><ele>251.0</ele><time>2026-04-25T11:58:52.532Z</time></trkpt><trkpt lat="43.6202583" lon="12.66994"><ele>251.00000000000003</ele><time>2026-04-25T11:58:53.531Z</time></trkpt><trkpt lat="43.62031" lon="12.6698183"><ele>251.00000000000003</ele><time>2026-04-25T11:58:54.531Z</time></trkpt><trkpt lat="43.6203833" lon="12.669675"><ele>251.0</ele><time>2026-04-25T11:58:55.533Z</time></trkpt><trkpt lat="43.6204667" lon="12.6695017"><ele>251.0</ele><time>2026-04-25T11:58:56.532Z</time></trkpt><trkpt lat="43.6205683" lon="12.6692883"><ele>262.33333333333337</ele><time>2026-04-25T11:58:57.531Z</time></trkpt><trkpt lat="43.6206533" lon="12.6690983"><ele>273.6666666666667</ele><time>2026-04-25T11:58:58.532Z</time></trkpt><trkpt lat="43.6207333" lon="12.6689"><ele>285.0</ele><time>2026-04-25T11:58:59.532Z</time></trkpt><trkpt lat="43.62081" lon="12.6686983"><ele>285.6666666666667</ele><time>2026-04-25T11:59:00.531Z</time></trkpt><trkpt lat="43.6208883" lon="12.6685"><ele>286.33333333333337</ele><time>2026-04-25T11:59:01.533Z</time></trkpt><trkpt lat="43.620965" lon="12.6682967"><ele>287.0</ele><time>2026-04-25T11:59:02.532Z</time></trkpt><trkpt lat="43.6210433" lon="12.6680883"><ele>287.0</ele><time>2026-04-25T11:59:03.531Z</time></trkpt><trkpt lat="43.621125" lon="12.6678867"><ele>287.0</ele><time>2026-04-25T11:59:04.532Z</time></trkpt><trkpt lat="43.6212017" lon="12.6676967"><ele>287.0</ele><time>2026-04-25T11:59:05.533Z</time></trkpt><trkpt lat="43.62139" lon="12.6673567"><ele>295.0</ele><time>2026-04-25T11:59:07.531Z</time></trkpt><trkpt lat="43.6214867" lon="12.667195"><ele>303.0</ele><time>2026-04-25T11:59:08.532Z</time></trkpt><trkpt lat="43.621585" lon="12.6670383"><ele>311.0</ele><time>2026-04-25T11:59:09.531Z</time></trkpt><trkpt lat="43.6216767" lon="12.6668917"><ele>319.0</ele><time>2026-04-25T11:59:10.531Z</time></trkpt><trkpt lat="43.621795" lon="12.6667583"><ele>319.0</ele><time>2026-04-25T11:59:11.532Z</time></trkpt><trkpt lat="43.6219067" lon="12.6666183"><ele>319.0</ele><time>2026-04-25T11:59:12.532Z</time></trkpt><trkpt lat="43.6220317" lon="12.6664867"><ele>319.0</ele><time>2026-04-25T11:59:13.532Z</time></trkpt><trkpt lat="43.6221433" lon="12.6663633"><ele>325.0</ele><time>2026-04-25T11:59:14.532Z</time></trkpt><trkpt lat="43.6222583" lon="12.66625"><ele>331.0</ele><time>2026-04-25T11:59:15.535Z</time></trkpt><trkpt lat="43.6223933" lon="12.6661517"><ele>337.0</ele><time>2026-04-25T11:59:16.532Z</time></trkpt><trkpt lat="43.622535" lon="12.6660783"><ele>343.0</ele><time>2026-04-25T11:59:17.531Z</time></trkpt><trkpt lat="43.6226633" lon="12.6660133"><ele>343.16666666666663</ele><time>2026-04-25T11:59:18.533Z</time></trkpt><trkpt lat="43.6227517" lon="12.6659617"><ele>343.3333333333333</ele><time>2026-04-25T11:59:19.532Z</time></trkpt><trkpt lat="43.6228383" lon="12.6659183"><ele>343.5</ele><time>2026-04-25T11:59:20.531Z</time></trkpt><trkpt lat="43.6229083" lon="12.66589"><ele>343.6666666666667</ele><time>2026-04-25T11:59:21.532Z</time></trkpt><trkpt lat="43.6230133" lon="12.6659017"><ele>343.83333333333337</ele><time>2026-04-25T11:59:23.532Z</time></trkpt><trkpt lat="43.6230267" lon="12.66599"><ele>344.0</ele><time>2026-04-25T11:59:25.534Z</time></trkpt><trkpt lat="43.622985" lon="12.66607"><ele>343.79999999999995</ele><time>2026-04-25T11:59:26.531Z</time></trkpt><trkpt lat="43.6228567" lon="12.6662383"><ele>343.59999999999997</ele><time>2026-04-25T11:59:28.534Z</time></trkpt><trkpt lat="43.6228017" lon="12.6663"><ele>343.4</ele><time>2026-04-25T11:59:29.534Z</time></trkpt><trkpt lat="43.622745" lon="12.6664"><ele>343.2</ele><time>2026-04-25T11:59:31.532Z</time></trkpt><trkpt lat="43.6228333" lon="12.6664433"><ele>343.0</ele><time>2026-04-25T11:59:34.531Z</time></trkpt><trkpt lat="43.6229217" lon="12.66641"><ele>344.59999999999997</ele><time>2026-04-25T11:59:35.533Z</time></trkpt><trkpt lat="43.6230233" lon="12.66638"><ele>346.2</ele><time>2026-04-25T11:59:36.534Z</time></trkpt><trkpt lat="43.623125" lon="12.666355"><ele>347.8</ele><time>2026-04-25T11:59:37.532Z</time></trkpt><trkpt lat="43.6232267" lon="12.66635"><ele>349.4</ele><time>2026-04-25T11:59:38.534Z</time></trkpt><trkpt lat="43.6233333" lon="12.666365"><ele>351.0</ele><time>2026-04-25T11:59:39.535Z</time></trkpt><trkpt lat="43.623445" lon="12.6664"><ele>351.0</ele><time>2026-04-25T11:59:40.531Z</time></trkpt><trkpt lat="43.6235617" lon="12.6664417"><ele>351.0</ele><time>2026-04-25T11:59:41.534Z</time></trkpt><trkpt lat="43.623675" lon="12.6664867"><ele>351.0</ele><time>2026-04-25T11:59:42.535Z</time></trkpt><trkpt lat="43.6237783" lon="12.66652"><ele>351.0</ele><time>2026-04-25T11:59:43.534Z</time></trkpt><trkpt lat="43.6238717" lon="12.666525"><ele>351.0</ele><time>2026-04-25T11:59:44.534Z</time></trkpt><trkpt lat="43.62396" lon="12.6665033"><ele>352.4</ele><time>2026-04-25T11:59:45.532Z</time></trkpt><trkpt lat="43.6240367" lon="12.6664533"><ele>353.8</ele><time>2026-04-25T11:59:46.531Z</time></trkpt><trkpt lat="43.6241017" lon="12.6663917"><ele>355.2</ele><time>2026-04-25T11:59:47.531Z</time></trkpt><trkpt lat="43.624215" lon="12.6661833"><ele>356.59999999999997</ele><time>2026-04-25T11:59:50.532Z</time></trkpt><trkpt lat="43.624245" lon="12.6661067"><ele>358.0</ele><time>2026-04-25T11:59:51.531Z</time></trkpt><trkpt lat="43.624285" lon="12.6660167"><ele>356.59999999999997</ele><time>2026-04-25T11:59:52.532Z</time></trkpt><trkpt lat="43.6243217" lon="12.6659133"><ele>355.2</ele><time>2026-04-25T11:59:53.534Z</time></trkpt><trkpt lat="43.6243667" lon="12.6657967"><ele>353.8</ele><time>2026-04-25T11:59:54.536Z</time></trkpt><trkpt lat="43.6244167" lon="12.6656667"><ele>352.4</ele><time>2026-04-25T11:59:55.532Z</time></trkpt><trkpt lat="43.6244667" lon="12.6655333"><ele>351.0</ele><time>2026-04-25T11:59:56.532Z</time></trkpt><trkpt lat="43.624515" lon="12.6653933"><ele>355.5</ele><time>2026-04-25T11:59:57.531Z</time></trkpt><trkpt lat="43.62457" lon="12.6652433"><ele>360.0</ele><time>2026-04-25T11:59:58.531Z</time></trkpt><trkpt lat="43.6246217" lon="12.665085"><ele>364.5</ele><time>2026-04-25T11:59:59.532Z</time></trkpt><trkpt lat="43.6246783" lon="12.664925"><ele>369.0</ele><time>2026-04-25T12:00:00.532Z</time></trkpt><trkpt lat="43.6247383" lon="12.6647633"><ele>369.0</ele><time>2026-04-25T12:00:01.532Z</time></trkpt><trkpt lat="43.6248033" lon="12.66461"><ele>369.0</ele><time>2026-04-25T12:00:02.531Z</time></trkpt><trkpt lat="43.6248683" lon="12.66446"><ele>369.0</ele><time>2026-04-25T12:00:03.532Z</time></trkpt><trkpt lat="43.6249433" lon="12.6643233"><ele>369.0</ele><time>2026-04-25T12:00:04.532Z</time></trkpt><trkpt lat="43.625025" lon="12.6642067"><ele>371.0</ele><time>2026-04-25T12:00:05.533Z</time></trkpt><trkpt lat="43.625095" lon="12.6641017"><ele>373.0</ele><time>2026-04-25T12:00:06.531Z</time></trkpt><trkpt lat="43.6251517" lon="12.6639917"><ele>375.0</ele><time>2026-04-25T12:00:07.532Z</time></trkpt><trkpt lat="43.6252083" lon="12.6638667"><ele>377.0</ele><time>2026-04-25T12:00:08.532Z</time></trkpt><trkpt lat="43.6253483" lon="12.6636183"><ele>382.20000000000005</ele><time>2026-04-25T12:00:10.532Z</time></trkpt><trkpt lat="43.6254367" lon="12.6635033"><ele>387.4</ele><time>2026-04-25T12:00:11.532Z</time></trkpt><trkpt lat="43.625535" lon="12.6634067"><ele>392.6</ele><time>2026-04-25T12:00:12.532Z</time></trkpt><trkpt lat="43.6256283" lon="12.663325"><ele>397.79999999999995</ele><time>2026-04-25T12:00:13.531Z</time></trkpt><trkpt lat="43.6257117" lon="12.6632733"><ele>403.0</ele><time>2026-04-25T12:00:14.533Z</time></trkpt><trkpt lat="43.6257917" lon="12.6632467"><ele>403.0</ele><time>2026-04-25T12:00:15.532Z</time></trkpt><trkpt lat="43.6258733" lon="12.66325"><ele>403.0</ele><time>2026-04-25T12:00:16.534Z</time></trkpt><trkpt lat="43.6259517" lon="12.6632717"><ele>403.0</ele><time>2026-04-25T12:00:17.533Z</time></trkpt><trkpt lat="43.6260333" lon="12.6633217"><ele>403.0</ele><time>2026-04-25T12:00:18.531Z</time></trkpt><trkpt lat="43.6261283" lon="12.663375"><ele>403.0</ele><time>2026-04-25T12:00:19.532Z</time></trkpt><trkpt lat="43.6262383" lon="12.6634033"><ele>404.0</ele><time>2026-04-25T12:00:20.531Z</time></trkpt><trkpt lat="43.6263583" lon="12.6634183"><ele>405.0</ele><time>2026-04-25T12:00:21.533Z</time></trkpt><trkpt lat="43.6264867" lon="12.66342"><ele>406.0</ele><time>2026-04-25T12:00:22.532Z</time></trkpt><trkpt lat="43.626605" lon="12.6634183"><ele>407.0</ele><time>2026-04-25T12:00:23.532Z</time></trkpt><trkpt lat="43.6267133" lon="12.6634133"><ele>407.0</ele><time>2026-04-25T12:00:24.531Z</time></trkpt><trkpt lat="43.626815" lon="12.6633883"><ele>407.0</ele><time>2026-04-25T12:00:25.531Z</time></trkpt><trkpt lat="43.626905" lon="12.6633233"><ele>407.0</ele><time>2026-04-25T12:00:26.532Z</time></trkpt><trkpt lat="43.626985" lon="12.6632133"><ele>407.0</ele><time>2026-04-25T12:00:27.531Z</time></trkpt><trkpt lat="43.6270433" lon="12.663075"><ele>407.0</ele><time>2026-04-25T12:00:28.533Z</time></trkpt><trkpt lat="43.6271017" lon="12.6629183"><ele>409.66666666666663</ele><time>2026-04-25T12:00:29.532Z</time></trkpt><trkpt lat="43.6272317" lon="12.6625867"><ele>412.33333333333337</ele><time>2026-04-25T12:00:31.534Z</time></trkpt><trkpt lat="43.627305" lon="12.6624483"><ele>415.0</ele><time>2026-04-25T12:00:32.533Z</time></trkpt><trkpt lat="43.627385" lon="12.6623367"><ele>415.0</ele><time>2026-04-25T12:00:33.532Z</time></trkpt><trkpt lat="43.62747" lon="12.6622583"><ele>415.0</ele><time>2026-04-25T12:00:34.532Z</time></trkpt><trkpt lat="43.627555" lon="12.662185"><ele>415.0</ele><time>2026-04-25T12:00:35.533Z</time></trkpt><trkpt lat="43.62763" lon="12.662105"><ele>415.0</ele><time>2026-04-25T12:00:36.532Z</time></trkpt><trkpt lat="43.627675" lon="12.6619983"><ele>415.0</ele><time>2026-04-25T12:00:37.533Z</time></trkpt><trkpt lat="43.6277067" lon="12.6618683"><ele>411.75</ele><time>2026-04-25T12:00:38.533Z</time></trkpt><trkpt lat="43.6277283" lon="12.661715"><ele>408.5</ele><time>2026-04-25T12:00:39.532Z</time></trkpt><trkpt lat="43.62776" lon="12.6615483"><ele>405.25</ele><time>2026-04-25T12:00:40.535Z</time></trkpt><trkpt lat="43.6278017" lon="12.6613883"><ele>402.0</ele><time>2026-04-25T12:00:41.532Z</time></trkpt><trkpt lat="43.627845" lon="12.661255"><ele>402.0</ele><time>2026-04-25T12:00:42.535Z</time></trkpt><trkpt lat="43.6278833" lon="12.6611433"><ele>402.0</ele><time>2026-04-25T12:00:43.533Z</time></trkpt><trkpt lat="43.6279117" lon="12.6610533"><ele>402.0</ele><time>2026-04-25T12:00:44.532Z</time></trkpt><trkpt lat="43.62789" lon="12.660925"><ele>402.0</ele><time>2026-04-25T12:00:46.533Z</time></trkpt><trkpt lat="43.627795" lon="12.66092"><ele>402.0</ele><time>2026-04-25T12:00:48.532Z</time></trkpt><trkpt lat="43.6276483" lon="12.6610767"><ele>416.0</ele><time>2026-04-25T12:00:50.532Z</time></trkpt><trkpt lat="43.6274333" lon="12.6614533"><ele>430.0</ele><time>2026-04-25T12:00:52.532Z</time></trkpt><trkpt lat="43.6273367" lon="12.661625"><ele>430.0</ele><time>2026-04-25T12:00:53.532Z</time></trkpt><trkpt lat="43.627235" lon="12.6617983"><ele>430.0</ele><time>2026-04-25T12:00:54.532Z</time></trkpt><trkpt lat="43.6271433" lon="12.6619583"><ele>430.0</ele><time>2026-04-25T12:00:55.533Z</time></trkpt><trkpt lat="43.6270517" lon="12.66209"><ele>430.0</ele><time>2026-04-25T12:00:56.536Z</time></trkpt><trkpt lat="43.6269633" lon="12.6621833"><ele>431.5</ele><time>2026-04-25T12:00:57.532Z</time></trkpt><trkpt lat="43.6268667" lon="12.6622533"><ele>433.0</ele><time>2026-04-25T12:00:58.532Z</time></trkpt><trkpt lat="43.6267567" lon="12.66229"><ele>434.5</ele><time>2026-04-25T12:00:59.533Z</time></trkpt><trkpt lat="43.6266433" lon="12.662295"><ele>436.0</ele><time>2026-04-25T12:01:00.532Z</time></trkpt><trkpt lat="43.626525" lon="12.6622567"><ele>436.0</ele><time>2026-04-25T12:01:01.532Z</time></trkpt><trkpt lat="43.6264033" lon="12.662185"><ele>436.0</ele><time>2026-04-25T12:01:02.533Z</time></trkpt><trkpt lat="43.6262717" lon="12.662085"><ele>436.0</ele><time>2026-04-25T12:01:03.532Z</time></trkpt><trkpt lat="43.62613" lon="12.66197"><ele>436.0</ele><time>2026-04-25T12:01:04.532Z</time></trkpt><trkpt lat="43.6259783" lon="12.6618483"><ele>440.6666666666667</ele><time>2026-04-25T12:01:05.533Z</time></trkpt><trkpt lat="43.6258183" lon="12.6617317"><ele>445.33333333333337</ele><time>2026-04-25T12:01:06.533Z</time></trkpt><trkpt lat="43.6256567" lon="12.66162"><ele>450.0</ele><time>2026-04-25T12:01:07.532Z</time></trkpt><trkpt lat="43.6255083" lon="12.6615167"><ele>450.0</ele><time>2026-04-25T12:01:08.533Z</time></trkpt><trkpt lat="43.6253733" lon="12.661425"><ele>450.0</ele><time>2026-04-25T12:01:09.532Z</time></trkpt><trkpt lat="43.6252583" lon="12.6613533"><ele>450.0</ele><time>2026-04-25T12:01:10.535Z</time></trkpt><trkpt lat="43.6251583" lon="12.6613017"><ele>450.0</ele><time>2026-04-25T12:01:11.534Z</time></trkpt><trkpt lat="43.6249967" lon="12.661205"><ele>450.2</ele><time>2026-04-25T12:01:13.535Z</time></trkpt><trkpt lat="43.62495" lon="12.6611433"><ele>450.4</ele><time>2026-04-25T12:01:14.534Z</time></trkpt><trkpt lat="43.6249183" lon="12.6609917"><ele>450.6</ele><time>2026-04-25T12:01:16.535Z</time></trkpt><trkpt lat="43.6249433" lon="12.6609"><ele>450.8</ele><time>2026-04-25T12:01:17.533Z</time></trkpt><trkpt lat="43.6250117" lon="12.6607983"><ele>451.0</ele><time>2026-04-25T12:01:18.534Z</time></trkpt><trkpt lat="43.6251133" lon="12.6606683"><ele>452.33333333333337</ele><time>2026-04-25T12:01:19.532Z</time></trkpt><trkpt lat="43.625275" lon="12.660515"><ele>453.66666666666663</ele><time>2026-04-25T12:01:20.533Z</time></trkpt><trkpt lat="43.62541" lon="12.660375"><ele>455.0</ele><time>2026-04-25T12:01:21.534Z</time></trkpt><trkpt lat="43.6255383" lon="12.66026"><ele>456.3333333333333</ele><time>2026-04-25T12:01:22.533Z</time></trkpt><trkpt lat="43.6256783" lon="12.6601667"><ele>457.66666666666663</ele><time>2026-04-25T12:01:23.537Z</time></trkpt><trkpt lat="43.6258367" lon="12.6600817"><ele>459.0</ele><time>2026-04-25T12:01:24.535Z</time></trkpt><trkpt lat="43.6260017" lon="12.6599817"><ele>461.66666666666663</ele><time>2026-04-25T12:01:25.536Z</time></trkpt><trkpt lat="43.6261617" lon="12.6598617"><ele>464.3333333333333</ele><time>2026-04-25T12:01:26.534Z</time></trkpt><trkpt lat="43.6263133" lon="12.65974"><ele>467.0</ele><time>2026-04-25T12:01:27.534Z</time></trkpt><trkpt lat="43.62645" lon="12.659625"><ele>467.0</ele><time>2026-04-25T12:01:28.535Z</time></trkpt><trkpt lat="43.62658" lon="12.6595167"><ele>467.0</ele><time>2026-04-25T12:01:29.533Z</time></trkpt><trkpt lat="43.626705" lon="12.6594117"><ele>467.0</ele><time>2026-04-25T12:01:30.535Z</time></trkpt><trkpt lat="43.6268317" lon="12.659305"><ele>467.0</ele><time>2026-04-25T12:01:31.534Z</time></trkpt><trkpt lat="43.6269617" lon="12.6591883"><ele>463.5</ele><time>2026-04-25T12:01:32.533Z</time></trkpt><trkpt lat="43.627215" lon="12.6589233"><ele>460.0</ele><time>2026-04-25T12:01:34.539Z</time></trkpt><trkpt lat="43.6273383" lon="12.658785"><ele>460.0</ele><time>2026-04-25T12:01:35.532Z</time></trkpt><trkpt lat="43.6274583" lon="12.658645"><ele>460.0</ele><time>2026-04-25T12:01:36.533Z</time></trkpt><trkpt lat="43.6275733" lon="12.6585133"><ele>460.0</ele><time>2026-04-25T12:01:37.533Z</time></trkpt><trkpt lat="43.62769" lon="12.658375"><ele>458.0</ele><time>2026-04-25T12:01:38.532Z</time></trkpt><trkpt lat="43.6277967" lon="12.6582167"><ele>456.0</ele><time>2026-04-25T12:01:39.536Z</time></trkpt><trkpt lat="43.6279" lon="12.658045"><ele>454.0</ele><time>2026-04-25T12:01:40.533Z</time></trkpt><trkpt lat="43.627995" lon="12.6578733"><ele>456.25</ele><time>2026-04-25T12:01:41.535Z</time></trkpt><trkpt lat="43.6280817" lon="12.6577067"><ele>458.5</ele><time>2026-04-25T12:01:42.532Z</time></trkpt><trkpt lat="43.6281667" lon="12.6575417"><ele>460.75</ele><time>2026-04-25T12:01:43.535Z</time></trkpt><trkpt lat="43.6282467" lon="12.657385"><ele>463.0</ele><time>2026-04-25T12:01:44.541Z</time></trkpt><trkpt lat="43.6283217" lon="12.65724"><ele>463.0</ele><time>2026-04-25T12:01:45.535Z</time></trkpt><trkpt lat="43.628395" lon="12.6571033"><ele>463.0</ele><time>2026-04-25T12:01:46.533Z</time></trkpt><trkpt lat="43.628465" lon="12.6569617"><ele>463.0</ele><time>2026-04-25T12:01:47.534Z</time></trkpt><trkpt lat="43.62853" lon="12.6568067"><ele>463.0</ele><time>2026-04-25T12:01:48.535Z</time></trkpt><trkpt lat="43.628595" lon="12.6566317"><ele>462.6666666666667</ele><time>2026-04-25T12:01:49.536Z</time></trkpt><trkpt lat="43.6286617" lon="12.6564417"><ele>462.33333333333337</ele><time>2026-04-25T12:01:50.533Z</time></trkpt><trkpt lat="43.6287317" lon="12.65624"><ele>462.0</ele><time>2026-04-25T12:01:51.532Z</time></trkpt><trkpt lat="43.6288017" lon="12.65603"><ele>464.0</ele><time>2026-04-25T12:01:52.533Z</time></trkpt><trkpt lat="43.62887" lon="12.6558217"><ele>466.0</ele><time>2026-04-25T12:01:53.533Z</time></trkpt><trkpt lat="43.6289983" lon="12.65542"><ele>466.6666666666667</ele><time>2026-04-25T12:01:55.534Z</time></trkpt><trkpt lat="43.62906" lon="12.6552233"><ele>467.33333333333337</ele><time>2026-04-25T12:01:56.533Z</time></trkpt><trkpt lat="43.6291117" lon="12.655025"><ele>468.0</ele><time>2026-04-25T12:01:57.532Z</time></trkpt><trkpt lat="43.6291567" lon="12.6548333"><ele>468.0</ele><time>2026-04-25T12:01:58.531Z</time></trkpt><trkpt lat="43.6291933" lon="12.654655"><ele>468.0</ele><time>2026-04-25T12:01:59.531Z</time></trkpt><trkpt lat="43.6292167" lon="12.65449"><ele>468.0</ele><time>2026-04-25T12:02:00.531Z</time></trkpt><trkpt lat="43.6292217" lon="12.6543267"><ele>468.0</ele><time>2026-04-25T12:02:01.531Z</time></trkpt><trkpt lat="43.62922" lon="12.654175"><ele>468.2</ele><time>2026-04-25T12:02:02.531Z</time></trkpt><trkpt lat="43.6292167" lon="12.654045"><ele>468.4</ele><time>2026-04-25T12:02:03.531Z</time></trkpt><trkpt lat="43.62923" lon="12.653935"><ele>468.59999999999997</ele><time>2026-04-25T12:02:04.532Z</time></trkpt><trkpt lat="43.62926" lon="12.65384"><ele>468.79999999999995</ele><time>2026-04-25T12:02:05.532Z</time></trkpt><trkpt lat="43.6293633" lon="12.6537433"><ele>469.0</ele><time>2026-04-25T12:02:07.531Z</time></trkpt><trkpt lat="43.6294567" lon="12.65375"><ele>472.0</ele><time>2026-04-25T12:02:08.533Z</time></trkpt><trkpt lat="43.6295533" lon="12.65377"><ele>475.0</ele><time>2026-04-25T12:02:09.534Z</time></trkpt><trkpt lat="43.629685" lon="12.6538"><ele>478.0</ele><time>2026-04-25T12:02:10.532Z</time></trkpt><trkpt lat="43.6298217" lon="12.6538133"><ele>481.0</ele><time>2026-04-25T12:02:11.531Z</time></trkpt><trkpt lat="43.6299633" lon="12.6538233"><ele>481.0</ele><time>2026-04-25T12:02:12.533Z</time></trkpt><trkpt lat="43.630105" lon="12.65382"><ele>481.0</ele><time>2026-04-25T12:02:13.532Z</time></trkpt><trkpt lat="43.6302483" lon="12.6538017"><ele>481.0</ele><time>2026-04-25T12:02:14.532Z</time></trkpt><trkpt lat="43.63052" lon="12.6537383"><ele>479.0</ele><time>2026-04-25T12:02:16.532Z</time></trkpt><trkpt lat="43.6306517" lon="12.6537083"><ele>477.0</ele><time>2026-04-25T12:02:17.532Z</time></trkpt><trkpt lat="43.63078" lon="12.6536883"><ele>475.0</ele><time>2026-04-25T12:02:18.532Z</time></trkpt><trkpt lat="43.6309067" lon="12.6536667"><ele>473.0</ele><time>2026-04-25T12:02:19.532Z</time></trkpt><trkpt lat="43.6310283" lon="12.6536533"><ele>472.25</ele><time>2026-04-25T12:02:20.532Z</time></trkpt><trkpt lat="43.6311467" lon="12.6536483"><ele>471.5</ele><time>2026-04-25T12:02:21.532Z</time></trkpt><trkpt lat="43.6312683" lon="12.65367"><ele>470.75</ele><time>2026-04-25T12:02:22.533Z</time></trkpt><trkpt lat="43.6313867" lon="12.6537167"><ele>470.0</ele><time>2026-04-25T12:02:23.534Z</time></trkpt><trkpt lat="43.6315167" lon="12.6537867"><ele>470.0</ele><time>2026-04-25T12:02:24.532Z</time></trkpt><trkpt lat="43.6316583" lon="12.653855"><ele>470.0</ele><time>2026-04-25T12:02:25.535Z</time></trkpt><trkpt lat="43.6318083" lon="12.6539133"><ele>470.0</ele><time>2026-04-25T12:02:26.535Z</time></trkpt><trkpt lat="43.6319567" lon="12.653955"><ele>473.0</ele><time>2026-04-25T12:02:27.531Z</time></trkpt><trkpt lat="43.6320983" lon="12.65397"><ele>476.0</ele><time>2026-04-25T12:02:28.532Z</time></trkpt><trkpt lat="43.6322367" lon="12.653955"><ele>479.0</ele><time>2026-04-25T12:02:29.532Z</time></trkpt><trkpt lat="43.6323717" lon="12.6539033"><ele>482.0</ele><time>2026-04-25T12:02:30.533Z</time></trkpt><trkpt lat="43.6325033" lon="12.6538217"><ele>482.0</ele><time>2026-04-25T12:02:31.532Z</time></trkpt><trkpt lat="43.6326333" lon="12.6537267"><ele>482.0</ele><time>2026-04-25T12:02:32.533Z</time></trkpt><trkpt lat="43.6327583" lon="12.653635"><ele>482.0</ele><time>2026-04-25T12:02:33.531Z</time></trkpt><trkpt lat="43.632885" lon="12.653545"><ele>482.0</ele><time>2026-04-25T12:02:34.532Z</time></trkpt><trkpt lat="43.6330083" lon="12.65345"><ele>483.66666666666663</ele><time>2026-04-25T12:02:35.535Z</time></trkpt><trkpt lat="43.63323" lon="12.6531917"><ele>485.33333333333337</ele><time>2026-04-25T12:02:37.532Z</time></trkpt><trkpt lat="43.6333217" lon="12.6530233"><ele>487.0</ele><time>2026-04-25T12:02:38.532Z</time></trkpt><trkpt lat="43.6334033" lon="12.6528517"><ele>485.25</ele><time>2026-04-25T12:02:39.531Z</time></trkpt><trkpt lat="43.633465" lon="12.6526783"><ele>483.5</ele><time>2026-04-25T12:02:40.532Z</time></trkpt><trkpt lat="43.6334983" lon="12.6525017"><ele>481.75</ele><time>2026-04-25T12:02:41.533Z</time></trkpt><trkpt lat="43.6335167" lon="12.6523333"><ele>480.0</ele><time>2026-04-25T12:02:42.532Z</time></trkpt><trkpt lat="43.6335167" lon="12.6521833"><ele>480.0</ele><time>2026-04-25T12:02:43.532Z</time></trkpt><trkpt lat="43.6335233" lon="12.65207"><ele>480.0</ele><time>2026-04-25T12:02:44.532Z</time></trkpt><trkpt lat="43.633535" lon="12.65198"><ele>480.0</ele><time>2026-04-25T12:02:45.534Z</time></trkpt><trkpt lat="43.6335867" lon="12.6519"><ele>480.0</ele><time>2026-04-25T12:02:47.531Z</time></trkpt><trkpt lat="43.6336633" lon="12.65193"><ele>480.0</ele><time>2026-04-25T12:02:49.532Z</time></trkpt><trkpt lat="43.6337683" lon="12.6521517"><ele>486.66666666666663</ele><time>2026-04-25T12:02:51.531Z</time></trkpt><trkpt lat="43.6338333" lon="12.6522817"><ele>493.3333333333333</ele><time>2026-04-25T12:02:52.534Z</time></trkpt><trkpt lat="43.6339017" lon="12.6525417"><ele>500.0</ele><time>2026-04-25T12:02:53.532Z</time></trkpt><trkpt lat="43.63397" lon="12.6527183"><ele>499.3333333333333</ele><time>2026-04-25T12:02:54.531Z</time></trkpt><trkpt lat="43.6340533" lon="12.6528967"><ele>498.66666666666663</ele><time>2026-04-25T12:02:55.535Z</time></trkpt><trkpt lat="43.6341383" lon="12.6530533"><ele>498.0</ele><time>2026-04-25T12:02:56.533Z</time></trkpt><trkpt lat="43.6342783" lon="12.6533217"><ele>498.0</ele><time>2026-04-25T12:02:58.532Z</time></trkpt><trkpt lat="43.63431" lon="12.6534467"><ele>497.99999999999994</ele><time>2026-04-25T12:02:59.531Z</time></trkpt><trkpt lat="43.634325" lon="12.6535783"><ele>497.99999999999994</ele><time>2026-04-25T12:03:00.532Z</time></trkpt><trkpt lat="43.6343017" lon="12.653705"><ele>498.0</ele><time>2026-04-25T12:03:01.533Z</time></trkpt><trkpt lat="43.634235" lon="12.6538283"><ele>498.0</ele><time>2026-04-25T12:03:02.535Z</time></trkpt><trkpt lat="43.6341717" lon="12.653935"><ele>500.5</ele><time>2026-04-25T12:03:03.532Z</time></trkpt><trkpt lat="43.6340567" lon="12.6540133"><ele>503.0</ele><time>2026-04-25T12:03:04.532Z</time></trkpt><trkpt lat="43.6339133" lon="12.6540717"><ele>505.5</ele><time>2026-04-25T12:03:05.532Z</time></trkpt><trkpt lat="43.6337917" lon="12.6541383"><ele>508.0</ele><time>2026-04-25T12:03:06.532Z</time></trkpt><trkpt lat="43.633685" lon="12.654225"><ele>506.1666666666667</ele><time>2026-04-25T12:03:07.532Z</time></trkpt><trkpt lat="43.633595" lon="12.6543183"><ele>504.33333333333337</ele><time>2026-04-25T12:03:08.535Z</time></trkpt><trkpt lat="43.6335233" lon="12.6544067"><ele>502.5</ele><time>2026-04-25T12:03:09.531Z</time></trkpt><trkpt lat="43.63347" lon="12.6544967"><ele>500.66666666666663</ele><time>2026-04-25T12:03:10.531Z</time></trkpt><trkpt lat="43.63344" lon="12.6545883"><ele>498.8333333333333</ele><time>2026-04-25T12:03:11.533Z</time></trkpt><trkpt lat="43.6334333" lon="12.6546817"><ele>497.0</ele><time>2026-04-25T12:03:12.532Z</time></trkpt><trkpt lat="43.6334617" lon="12.6547683"><ele>497.0</ele><time>2026-04-25T12:03:13.54Z</time></trkpt><trkpt lat="43.6335617" lon="12.65487"><ele>497.0</ele><time>2026-04-25T12:03:15.534Z</time></trkpt><trkpt lat="43.6336783" lon="12.654865"><ele>497.0</ele><time>2026-04-25T12:03:16.532Z</time></trkpt><trkpt lat="43.6338333" lon="12.6548283"><ele>497.0</ele><time>2026-04-25T12:03:17.532Z</time></trkpt><trkpt lat="43.6341033" lon="12.6547817"><ele>499.0</ele><time>2026-04-25T12:03:19.532Z</time></trkpt><trkpt lat="43.6342367" lon="12.6547683"><ele>501.0</ele><time>2026-04-25T12:03:20.532Z</time></trkpt><trkpt lat="43.6343767" lon="12.6547533"><ele>503.0</ele><time>2026-04-25T12:03:21.532Z</time></trkpt><trkpt lat="43.63452" lon="12.6547483"><ele>505.0</ele><time>2026-04-25T12:03:22.533Z</time></trkpt><trkpt lat="43.6346617" lon="12.6547633"><ele>507.25</ele><time>2026-04-25T12:03:23.533Z</time></trkpt><trkpt lat="43.6347983" lon="12.6547933"><ele>509.5</ele><time>2026-04-25T12:03:24.533Z</time></trkpt><trkpt lat="43.6349367" lon="12.6548283"><ele>511.75</ele><time>2026-04-25T12:03:25.532Z</time></trkpt><trkpt lat="43.63508" lon="12.6548533"><ele>514.0</ele><time>2026-04-25T12:03:26.531Z</time></trkpt><trkpt lat="43.63522" lon="12.654865"><ele>513.6</ele><time>2026-04-25T12:03:27.533Z</time></trkpt><trkpt lat="43.63535" lon="12.65486"><ele>513.2</ele><time>2026-04-25T12:03:28.531Z</time></trkpt><trkpt lat="43.6354633" lon="12.6548417"><ele>512.8000000000001</ele><time>2026-04-25T12:03:29.533Z</time></trkpt><trkpt lat="43.6355567" lon="12.6548317"><ele>512.4</ele><time>2026-04-25T12:03:30.532Z</time></trkpt><trkpt lat="43.63564" lon="12.6548467"><ele>512.0</ele><time>2026-04-25T12:03:31.532Z</time></trkpt><trkpt lat="43.63572" lon="12.65489"><ele>512.0</ele><time>2026-04-25T12:03:32.534Z</time></trkpt><trkpt lat="43.6358183" lon="12.6549717"><ele>512.0</ele><time>2026-04-25T12:03:33.533Z</time></trkpt><trkpt lat="43.6359417" lon="12.6550917"><ele>512.0</ele><time>2026-04-25T12:03:34.531Z</time></trkpt><trkpt lat="43.6360667" lon="12.655185"><ele>512.0</ele><time>2026-04-25T12:03:35.532Z</time></trkpt><trkpt lat="43.6361867" lon="12.6552633"><ele>514.25</ele><time>2026-04-25T12:03:36.534Z</time></trkpt><trkpt lat="43.6363033" lon="12.6553233"><ele>516.5</ele><time>2026-04-25T12:03:37.534Z</time></trkpt><trkpt lat="43.6364067" lon="12.655365"><ele>518.75</ele><time>2026-04-25T12:03:38.533Z</time></trkpt><trkpt lat="43.6366133" lon="12.65536"><ele>521.0</ele><time>2026-04-25T12:03:40.533Z</time></trkpt><trkpt lat="43.6367233" lon="12.6553183"><ele>517.2</ele><time>2026-04-25T12:03:41.532Z</time></trkpt><trkpt lat="43.6368283" lon="12.6552733"><ele>513.4000000000001</ele><time>2026-04-25T12:03:42.532Z</time></trkpt><trkpt lat="43.6369283" lon="12.6552367"><ele>509.6</ele><time>2026-04-25T12:03:43.532Z</time></trkpt><trkpt lat="43.6370383" lon="12.6552217"><ele>505.8</ele><time>2026-04-25T12:03:44.532Z</time></trkpt><trkpt lat="43.6371517" lon="12.655235"><ele>502.0</ele><time>2026-04-25T12:03:45.532Z</time></trkpt><trkpt lat="43.6372633" lon="12.655255"><ele>502.0</ele><time>2026-04-25T12:03:46.534Z</time></trkpt><trkpt lat="43.6373633" lon="12.6552767"><ele>502.00000000000006</ele><time>2026-04-25T12:03:47.535Z</time></trkpt><trkpt lat="43.6374567" lon="12.65529"><ele>502.00000000000006</ele><time>2026-04-25T12:03:48.532Z</time></trkpt><trkpt lat="43.6375433" lon="12.65528"><ele>502.0</ele><time>2026-04-25T12:03:49.532Z</time></trkpt><trkpt lat="43.637625" lon="12.65524"><ele>502.0</ele><time>2026-04-25T12:03:50.532Z</time></trkpt><trkpt lat="43.6377183" lon="12.6551817"><ele>503.75</ele><time>2026-04-25T12:03:51.532Z</time></trkpt><trkpt lat="43.63782" lon="12.6551"><ele>505.5</ele><time>2026-04-25T12:03:52.532Z</time></trkpt><trkpt lat="43.6379267" lon="12.6550067"><ele>507.25</ele><time>2026-04-25T12:03:53.532Z</time></trkpt><trkpt lat="43.6380333" lon="12.654915"><ele>509.0</ele><time>2026-04-25T12:03:54.533Z</time></trkpt><trkpt lat="43.6381383" lon="12.654825"><ele>509.0</ele><time>2026-04-25T12:03:55.532Z</time></trkpt><trkpt lat="43.63823" lon="12.654745"><ele>509.0</ele><time>2026-04-25T12:03:56.532Z</time></trkpt><trkpt lat="43.638325" lon="12.6546633"><ele>509.0</ele><time>2026-04-25T12:03:57.532Z</time></trkpt><trkpt lat="43.638415" lon="12.6545767"><ele>509.0</ele><time>2026-04-25T12:03:58.532Z</time></trkpt><trkpt lat="43.6385083" lon="12.65449"><ele>509.0</ele><time>2026-04-25T12:03:59.533Z</time></trkpt><trkpt lat="43.6387233" lon="12.6543567"><ele>505.25</ele><time>2026-04-25T12:04:01.532Z</time></trkpt><trkpt lat="43.63886" lon="12.6543067"><ele>501.5</ele><time>2026-04-25T12:04:02.532Z</time></trkpt><trkpt lat="43.6389917" lon="12.654265"><ele>497.75</ele><time>2026-04-25T12:04:03.532Z</time></trkpt><trkpt lat="43.63913" lon="12.6542317"><ele>494.0</ele><time>2026-04-25T12:04:04.532Z</time></trkpt><trkpt lat="43.639275" lon="12.6542083"><ele>494.0</ele><time>2026-04-25T12:04:05.533Z</time></trkpt><trkpt lat="43.63942" lon="12.6541883"><ele>494.0</ele><time>2026-04-25T12:04:06.534Z</time></trkpt><trkpt lat="43.6395733" lon="12.6541733"><ele>494.0</ele><time>2026-04-25T12:04:07.533Z</time></trkpt><trkpt lat="43.6397183" lon="12.6541733"><ele>494.0</ele><time>2026-04-25T12:04:08.532Z</time></trkpt><trkpt lat="43.639865" lon="12.6541983"><ele>495.25</ele><time>2026-04-25T12:04:09.532Z</time></trkpt><trkpt lat="43.6400033" lon="12.6542167"><ele>496.5</ele><time>2026-04-25T12:04:10.532Z</time></trkpt><trkpt lat="43.6401367" lon="12.6542117"><ele>497.75</ele><time>2026-04-25T12:04:11.532Z</time></trkpt><trkpt lat="43.6402717" lon="12.6541883"><ele>499.0</ele><time>2026-04-25T12:04:12.532Z</time></trkpt><trkpt lat="43.6404133" lon="12.6541583"><ele>499.75</ele><time>2026-04-25T12:04:13.536Z</time></trkpt><trkpt lat="43.640555" lon="12.65412"><ele>500.5</ele><time>2026-04-25T12:04:14.532Z</time></trkpt><trkpt lat="43.6406917" lon="12.65408"><ele>501.25</ele><time>2026-04-25T12:04:15.533Z</time></trkpt><trkpt lat="43.6408267" lon="12.6540417"><ele>502.0</ele><time>2026-04-25T12:04:16.533Z</time></trkpt><trkpt lat="43.6409433" lon="12.654025"><ele>502.0</ele><time>2026-04-25T12:04:17.534Z</time></trkpt><trkpt lat="43.6410283" lon="12.65403"><ele>502.00000000000006</ele><time>2026-04-25T12:04:18.534Z</time></trkpt><trkpt lat="43.6411067" lon="12.65407"><ele>502.00000000000006</ele><time>2026-04-25T12:04:19.532Z</time></trkpt><trkpt lat="43.6411583" lon="12.6541267"><ele>502.0</ele><time>2026-04-25T12:04:20.533Z</time></trkpt><trkpt lat="43.6411317" lon="12.6544083"><ele>502.0</ele><time>2026-04-25T12:04:23.532Z</time></trkpt><trkpt lat="43.64107" lon="12.6545467"><ele>501.75</ele><time>2026-04-25T12:04:24.532Z</time></trkpt><trkpt lat="43.6410117" lon="12.6547133"><ele>501.5</ele><time>2026-04-25T12:04:25.532Z</time></trkpt><trkpt lat="43.6409467" lon="12.65491"><ele>501.25</ele><time>2026-04-25T12:04:26.532Z</time></trkpt><trkpt lat="43.64089" lon="12.6550983"><ele>501.0</ele><time>2026-04-25T12:04:27.531Z</time></trkpt><trkpt lat="43.6408533" lon="12.655275"><ele>500.0</ele><time>2026-04-25T12:04:28.532Z</time></trkpt><trkpt lat="43.6408083" lon="12.6554533"><ele>499.0</ele><time>2026-04-25T12:04:29.533Z</time></trkpt><trkpt lat="43.6408017" lon="12.6556183"><ele>498.0</ele><time>2026-04-25T12:04:30.532Z</time></trkpt><trkpt lat="43.6408" lon="12.6558017"><ele>497.0</ele><time>2026-04-25T12:04:31.532Z</time></trkpt><trkpt lat="43.6407917" lon="12.6559633"><ele>494.6</ele><time>2026-04-25T12:04:32.535Z</time></trkpt><trkpt lat="43.6407683" lon="12.6561317"><ele>492.20000000000005</ele><time>2026-04-25T12:04:33.533Z</time></trkpt><trkpt lat="43.6407233" lon="12.6562917"><ele>489.8</ele><time>2026-04-25T12:04:34.534Z</time></trkpt><trkpt lat="43.6406667" lon="12.656405"><ele>487.4</ele><time>2026-04-25T12:04:35.534Z</time></trkpt><trkpt lat="43.640595" lon="12.6565033"><ele>485.0</ele><time>2026-04-25T12:04:36.532Z</time></trkpt><trkpt lat="43.640525" lon="12.6565917"><ele>485.0</ele><time>2026-04-25T12:04:37.532Z</time></trkpt><trkpt lat="43.6404733" lon="12.6566917"><ele>485.0</ele><time>2026-04-25T12:04:38.532Z</time></trkpt><trkpt lat="43.6404317" lon="12.6568033"><ele>485.0</ele><time>2026-04-25T12:04:39.532Z</time></trkpt><trkpt lat="43.64041" lon="12.6569467"><ele>485.0</ele><time>2026-04-25T12:04:40.534Z</time></trkpt><trkpt lat="43.6404133" lon="12.6570983"><ele>485.0</ele><time>2026-04-25T12:04:41.532Z</time></trkpt><trkpt lat="43.6404267" lon="12.6573983"><ele>482.5</ele><time>2026-04-25T12:04:43.532Z</time></trkpt><trkpt lat="43.6404183" lon="12.657555"><ele>480.0</ele><time>2026-04-25T12:04:44.532Z</time></trkpt><trkpt lat="43.6404067" lon="12.657725"><ele>477.5</ele><time>2026-04-25T12:04:45.532Z</time></trkpt><trkpt lat="43.6403967" lon="12.6578933"><ele>475.0</ele><time>2026-04-25T12:04:46.533Z</time></trkpt><trkpt lat="43.6403967" lon="12.6580667"><ele>473.5</ele><time>2026-04-25T12:04:47.533Z</time></trkpt><trkpt lat="43.640415" lon="12.6582417"><ele>472.0</ele><time>2026-04-25T12:04:48.532Z</time></trkpt><trkpt lat="43.6404367" lon="12.6584117"><ele>470.5</ele><time>2026-04-25T12:04:49.534Z</time></trkpt><trkpt lat="43.6404567" lon="12.6585733"><ele>469.0</ele><time>2026-04-25T12:04:50.532Z</time></trkpt><trkpt lat="43.6404733" lon="12.6587317"><ele>468.5</ele><time>2026-04-25T12:04:51.532Z</time></trkpt><trkpt lat="43.640495" lon="12.6588933"><ele>468.0</ele><time>2026-04-25T12:04:52.533Z</time></trkpt><trkpt lat="43.6405217" lon="12.6590533"><ele>467.5</ele><time>2026-04-25T12:04:53.532Z</time></trkpt><trkpt lat="43.640555" lon="12.65921"><ele>467.0</ele><time>2026-04-25T12:04:54.533Z</time></trkpt><trkpt lat="43.6405967" lon="12.65936"><ele>466.75</ele><time>2026-04-25T12:04:55.533Z</time></trkpt><trkpt lat="43.6406467" lon="12.6595"><ele>466.5</ele><time>2026-04-25T12:04:56.533Z</time></trkpt><trkpt lat="43.640725" lon="12.6596267"><ele>466.25</ele><time>2026-04-25T12:04:57.533Z</time></trkpt><trkpt lat="43.640835" lon="12.6597367"><ele>466.0</ele><time>2026-04-25T12:04:58.532Z</time></trkpt><trkpt lat="43.6409583" lon="12.6598233"><ele>466.0</ele><time>2026-04-25T12:04:59.532Z</time></trkpt><trkpt lat="43.6410967" lon="12.65989"><ele>466.0</ele><time>2026-04-25T12:05:00.532Z</time></trkpt><trkpt lat="43.641245" lon="12.6599467"><ele>466.0</ele><time>2026-04-25T12:05:01.532Z</time></trkpt><trkpt lat="43.641395" lon="12.6600067"><ele>468.0</ele><time>2026-04-25T12:05:02.533Z</time></trkpt><trkpt lat="43.6416717" lon="12.660145"><ele>470.0</ele><time>2026-04-25T12:05:04.533Z</time></trkpt><trkpt lat="43.6418017" lon="12.6602117"><ele>472.0</ele><time>2026-04-25T12:05:05.533Z</time></trkpt><trkpt lat="43.6419317" lon="12.6602617"><ele>475.25</ele><time>2026-04-25T12:05:06.532Z</time></trkpt><trkpt lat="43.6420683" lon="12.6602917"><ele>478.5</ele><time>2026-04-25T12:05:07.536Z</time></trkpt><trkpt lat="43.6422" lon="12.660315"><ele>481.75</ele><time>2026-04-25T12:05:08.533Z</time></trkpt><trkpt lat="43.6423233" lon="12.660335"><ele>485.0</ele><time>2026-04-25T12:05:09.532Z</time></trkpt><trkpt lat="43.6424317" lon="12.6603383"><ele>485.0</ele><time>2026-04-25T12:05:10.533Z</time></trkpt><trkpt lat="43.6425333" lon="12.6603233"><ele>485.0</ele><time>2026-04-25T12:05:11.532Z</time></trkpt><trkpt lat="43.6426233" lon="12.6602833"><ele>485.0</ele><time>2026-04-25T12:05:12.532Z</time></trkpt><trkpt lat="43.6427083" lon="12.6602267"><ele>485.0</ele><time>2026-04-25T12:05:13.532Z</time></trkpt><trkpt lat="43.6428" lon="12.6601567"><ele>485.0</ele><time>2026-04-25T12:05:14.531Z</time></trkpt><trkpt lat="43.6428933" lon="12.6600833"><ele>484.6</ele><time>2026-04-25T12:05:15.532Z</time></trkpt><trkpt lat="43.64299" lon="12.660015"><ele>484.2</ele><time>2026-04-25T12:05:16.532Z</time></trkpt><trkpt lat="43.64309" lon="12.6599517"><ele>483.79999999999995</ele><time>2026-04-25T12:05:17.532Z</time></trkpt><trkpt lat="43.643195" lon="12.6598917"><ele>483.4</ele><time>2026-04-25T12:05:18.532Z</time></trkpt><trkpt lat="43.6433033" lon="12.6598367"><ele>483.0</ele><time>2026-04-25T12:05:19.536Z</time></trkpt><trkpt lat="43.6434133" lon="12.6597967"><ele>483.0</ele><time>2026-04-25T12:05:20.54Z</time></trkpt><trkpt lat="43.6435317" lon="12.65979"><ele>483.0</ele><time>2026-04-25T12:05:21.534Z</time></trkpt><trkpt lat="43.64364" lon="12.659815"><ele>483.0</ele><time>2026-04-25T12:05:22.534Z</time></trkpt><trkpt lat="43.643755" lon="12.6598517"><ele>483.0</ele><time>2026-04-25T12:05:23.532Z</time></trkpt><trkpt lat="43.643985" lon="12.65986"><ele>482.59999999999997</ele><time>2026-04-25T12:05:25.534Z</time></trkpt><trkpt lat="43.644085" lon="12.6598083"><ele>482.19999999999993</ele><time>2026-04-25T12:05:26.532Z</time></trkpt><trkpt lat="43.6441783" lon="12.65973"><ele>481.8</ele><time>2026-04-25T12:05:27.53Z</time></trkpt><trkpt lat="43.64427" lon="12.6596467"><ele>481.4</ele><time>2026-04-25T12:05:28.531Z</time></trkpt><trkpt lat="43.6443783" lon="12.6595783"><ele>481.0</ele><time>2026-04-25T12:05:29.533Z</time></trkpt><trkpt lat="43.64449" lon="12.6595383"><ele>480.20000000000005</ele><time>2026-04-25T12:05:30.535Z</time></trkpt><trkpt lat="43.6445783" lon="12.6595467"><ele>479.40000000000003</ele><time>2026-04-25T12:05:31.532Z</time></trkpt><trkpt lat="43.6446567" lon="12.6595817"><ele>478.6</ele><time>2026-04-25T12:05:32.532Z</time></trkpt><trkpt lat="43.6447233" lon="12.65966"><ele>477.8</ele><time>2026-04-25T12:05:33.531Z</time></trkpt><trkpt lat="43.6447717" lon="12.6597917"><ele>477.0</ele><time>2026-04-25T12:05:34.531Z</time></trkpt><trkpt lat="43.6448117" lon="12.6599383"><ele>477.0</ele><time>2026-04-25T12:05:35.533Z</time></trkpt><trkpt lat="43.6448517" lon="12.6600767"><ele>477.0</ele><time>2026-04-25T12:05:36.534Z</time></trkpt><trkpt lat="43.6448867" lon="12.6602067"><ele>477.0</ele><time>2026-04-25T12:05:37.533Z</time></trkpt><trkpt lat="43.6449333" lon="12.66031"><ele>477.0</ele><time>2026-04-25T12:05:38.531Z</time></trkpt><trkpt lat="43.644985" lon="12.6603883"><ele>477.0</ele><time>2026-04-25T12:05:39.532Z</time></trkpt><trkpt lat="43.6450567" lon="12.6604217"><ele>477.0</ele><time>2026-04-25T12:05:40.532Z</time></trkpt><trkpt lat="43.64514" lon="12.660395"><ele>477.25</ele><time>2026-04-25T12:05:41.533Z</time></trkpt><trkpt lat="43.64522" lon="12.6603283"><ele>477.5</ele><time>2026-04-25T12:05:42.533Z</time></trkpt><trkpt lat="43.6453017" lon="12.6602133"><ele>477.75</ele><time>2026-04-25T12:05:43.532Z</time></trkpt><trkpt lat="43.6453717" lon="12.6600683"><ele>478.0</ele><time>2026-04-25T12:05:44.534Z</time></trkpt><trkpt lat="43.6455" lon="12.65973"><ele>476.75</ele><time>2026-04-25T12:05:46.533Z</time></trkpt><trkpt lat="43.6455583" lon="12.6595683"><ele>475.5</ele><time>2026-04-25T12:05:47.532Z</time></trkpt><trkpt lat="43.6456183" lon="12.6594233"><ele>474.25</ele><time>2026-04-25T12:05:48.531Z</time></trkpt><trkpt lat="43.6456817" lon="12.6592883"><ele>473.0</ele><time>2026-04-25T12:05:49.533Z</time></trkpt><trkpt lat="43.645755" lon="12.65917"><ele>473.0</ele><time>2026-04-25T12:05:50.532Z</time></trkpt><trkpt lat="43.6458467" lon="12.6590817"><ele>473.0</ele><time>2026-04-25T12:05:51.532Z</time></trkpt><trkpt lat="43.645955" lon="12.6590183"><ele>473.0</ele><time>2026-04-25T12:05:52.532Z</time></trkpt><trkpt lat="43.646075" lon="12.658955"><ele>473.0</ele><time>2026-04-25T12:05:53.532Z</time></trkpt><trkpt lat="43.6462017" lon="12.658875"><ele>472.75</ele><time>2026-04-25T12:05:54.531Z</time></trkpt><trkpt lat="43.64632" lon="12.658775"><ele>472.5</ele><time>2026-04-25T12:05:55.532Z</time></trkpt><trkpt lat="43.646425" lon="12.65867"><ele>472.25</ele><time>2026-04-25T12:05:56.532Z</time></trkpt><trkpt lat="43.6465133" lon="12.658555"><ele>472.0</ele><time>2026-04-25T12:05:57.531Z</time></trkpt><trkpt lat="43.6465833" lon="12.6584283"><ele>472.0</ele><time>2026-04-25T12:05:58.532Z</time></trkpt><trkpt lat="43.646635" lon="12.6582917"><ele>472.00000000000006</ele><time>2026-04-25T12:05:59.532Z</time></trkpt><trkpt lat="43.6466683" lon="12.6581433"><ele>472.00000000000006</ele><time>2026-04-25T12:06:00.532Z</time></trkpt><trkpt lat="43.64671" lon="12.6580017"><ele>472.0</ele><time>2026-04-25T12:06:01.532Z</time></trkpt><trkpt lat="43.6467517" lon="12.657865"><ele>472.0</ele><time>2026-04-25T12:06:02.532Z</time></trkpt><trkpt lat="43.6468133" lon="12.657735"><ele>474.0</ele><time>2026-04-25T12:06:03.533Z</time></trkpt><trkpt lat="43.64689" lon="12.657605"><ele>476.0</ele><time>2026-04-25T12:06:04.532Z</time></trkpt><trkpt lat="43.6469683" lon="12.65747"><ele>478.0</ele><time>2026-04-25T12:06:05.532Z</time></trkpt><trkpt lat="43.64712" lon="12.657245"><ele>478.00000000000006</ele><time>2026-04-25T12:06:07.532Z</time></trkpt><trkpt lat="43.6471983" lon="12.6571767"><ele>478.0</ele><time>2026-04-25T12:06:08.531Z</time></trkpt><trkpt lat="43.64728" lon="12.6571367"><ele>478.0</ele><time>2026-04-25T12:06:09.531Z</time></trkpt><trkpt lat="43.647355" lon="12.6571267"><ele>478.0</ele><time>2026-04-25T12:06:10.531Z</time></trkpt><trkpt lat="43.6474367" lon="12.6571233"><ele>478.00000000000006</ele><time>2026-04-25T12:06:11.532Z</time></trkpt><trkpt lat="43.64753" lon="12.6571217"><ele>478.0</ele><time>2026-04-25T12:06:12.531Z</time></trkpt><trkpt lat="43.6476333" lon="12.6570983"><ele>478.0</ele><time>2026-04-25T12:06:13.532Z</time></trkpt><trkpt lat="43.6477467" lon="12.6570483"><ele>478.0</ele><time>2026-04-25T12:06:14.533Z</time></trkpt><trkpt lat="43.64786" lon="12.6569933"><ele>478.0</ele><time>2026-04-25T12:06:15.533Z</time></trkpt><trkpt lat="43.6479733" lon="12.6569317"><ele>478.0</ele><time>2026-04-25T12:06:16.533Z</time></trkpt><trkpt lat="43.648085" lon="12.6568717"><ele>474.5</ele><time>2026-04-25T12:06:17.532Z</time></trkpt><trkpt lat="43.6481967" lon="12.6567983"><ele>471.0</ele><time>2026-04-25T12:06:18.532Z</time></trkpt><trkpt lat="43.6483167" lon="12.6567083"><ele>467.5</ele><time>2026-04-25T12:06:19.532Z</time></trkpt><trkpt lat="43.648435" lon="12.6566167"><ele>464.0</ele><time>2026-04-25T12:06:20.533Z</time></trkpt><trkpt lat="43.6485383" lon="12.6565317"><ele>467.25</ele><time>2026-04-25T12:06:21.533Z</time></trkpt><trkpt lat="43.64864" lon="12.6564533"><ele>470.5</ele><time>2026-04-25T12:06:22.531Z</time></trkpt><trkpt lat="43.6487467" lon="12.6563917"><ele>473.75</ele><time>2026-04-25T12:06:23.533Z</time></trkpt><trkpt lat="43.64886" lon="12.6563533"><ele>477.0</ele><time>2026-04-25T12:06:24.533Z</time></trkpt><trkpt lat="43.6489733" lon="12.6563333"><ele>477.0</ele><time>2026-04-25T12:06:25.532Z</time></trkpt><trkpt lat="43.6490883" lon="12.6563283"><ele>477.0</ele><time>2026-04-25T12:06:26.533Z</time></trkpt><trkpt lat="43.6493433" lon="12.6563167"><ele>477.0</ele><time>2026-04-25T12:06:28.531Z</time></trkpt><trkpt lat="43.64947" lon="12.6562917"><ele>473.5</ele><time>2026-04-25T12:06:29.532Z</time></trkpt><trkpt lat="43.64959" lon="12.6562483"><ele>470.0</ele><time>2026-04-25T12:06:30.533Z</time></trkpt><trkpt lat="43.6497117" lon="12.6562017"><ele>466.5</ele><time>2026-04-25T12:06:31.534Z</time></trkpt><trkpt lat="43.649825" lon="12.6561517"><ele>463.0</ele><time>2026-04-25T12:06:32.533Z</time></trkpt><trkpt lat="43.649935" lon="12.6561017"><ele>461.0</ele><time>2026-04-25T12:06:33.532Z</time></trkpt><trkpt lat="43.6500367" lon="12.656055"><ele>458.99999999999994</ele><time>2026-04-25T12:06:34.533Z</time></trkpt><trkpt lat="43.65013" lon="12.6560183"><ele>456.99999999999994</ele><time>2026-04-25T12:06:35.533Z</time></trkpt><trkpt lat="43.6502" lon="12.6559867"><ele>455.0</ele><time>2026-04-25T12:06:36.532Z</time></trkpt><trkpt lat="43.6502583" lon="12.65595"><ele>453.0</ele><time>2026-04-25T12:06:37.532Z</time></trkpt><trkpt lat="43.6503483" lon="12.65583"><ele>452.4</ele><time>2026-04-25T12:06:39.535Z</time></trkpt><trkpt lat="43.6503833" lon="12.65574"><ele>451.79999999999995</ele><time>2026-04-25T12:06:40.534Z</time></trkpt><trkpt lat="43.6504217" lon="12.65562"><ele>451.2</ele><time>2026-04-25T12:06:41.532Z</time></trkpt><trkpt lat="43.650475" lon="12.6554767"><ele>450.6</ele><time>2026-04-25T12:06:42.533Z</time></trkpt><trkpt lat="43.6505583" lon="12.6552967"><ele>450.0</ele><time>2026-04-25T12:06:43.536Z</time></trkpt><trkpt lat="43.6506517" lon="12.6551217"><ele>450.0</ele><time>2026-04-25T12:06:44.533Z</time></trkpt><trkpt lat="43.650735" lon="12.6549383"><ele>450.0</ele><time>2026-04-25T12:06:45.534Z</time></trkpt><trkpt lat="43.650815" lon="12.6547367"><ele>450.0</ele><time>2026-04-25T12:06:46.532Z</time></trkpt><trkpt lat="43.650895" lon="12.654535"><ele>445.5</ele><time>2026-04-25T12:06:47.532Z</time></trkpt><trkpt lat="43.651045" lon="12.65412"><ele>441.0</ele><time>2026-04-25T12:06:49.532Z</time></trkpt><trkpt lat="43.6511167" lon="12.6539117"><ele>447.66666666666663</ele><time>2026-04-25T12:06:50.533Z</time></trkpt><trkpt lat="43.6511883" lon="12.6537133"><ele>454.3333333333333</ele><time>2026-04-25T12:06:51.533Z</time></trkpt><trkpt lat="43.6512667" lon="12.653535"><ele>461.0</ele><time>2026-04-25T12:06:52.532Z</time></trkpt><trkpt lat="43.6513333" lon="12.6533567"><ele>462.0</ele><time>2026-04-25T12:06:53.532Z</time></trkpt><trkpt lat="43.6513917" lon="12.6531767"><ele>463.0</ele><time>2026-04-25T12:06:54.532Z</time></trkpt><trkpt lat="43.651445" lon="12.653005"><ele>464.0</ele><time>2026-04-25T12:06:55.533Z</time></trkpt><trkpt lat="43.6515033" lon="12.6528367"><ele>465.0</ele><time>2026-04-25T12:06:56.532Z</time></trkpt><trkpt lat="43.65157" lon="12.6526733"><ele>461.25</ele><time>2026-04-25T12:06:57.532Z</time></trkpt><trkpt lat="43.651645" lon="12.652505"><ele>457.5</ele><time>2026-04-25T12:06:58.532Z</time></trkpt><trkpt lat="43.65173" lon="12.652335"><ele>453.75</ele><time>2026-04-25T12:06:59.534Z</time></trkpt><trkpt lat="43.651825" lon="12.6521633"><ele>450.0</ele><time>2026-04-25T12:07:00.532Z</time></trkpt><trkpt lat="43.65192" lon="12.65198"><ele>452.66666666666663</ele><time>2026-04-25T12:07:01.532Z</time></trkpt><trkpt lat="43.6520133" lon="12.6518017"><ele>455.3333333333333</ele><time>2026-04-25T12:07:02.532Z</time></trkpt><trkpt lat="43.6520933" lon="12.6516267"><ele>458.0</ele><time>2026-04-25T12:07:03.533Z</time></trkpt><trkpt lat="43.6521667" lon="12.6514583"><ele>458.0</ele><time>2026-04-25T12:07:04.533Z</time></trkpt><trkpt lat="43.6522233" lon="12.6513083"><ele>457.99999999999994</ele><time>2026-04-25T12:07:05.532Z</time></trkpt><trkpt lat="43.6522767" lon="12.651175"><ele>457.99999999999994</ele><time>2026-04-25T12:07:06.533Z</time></trkpt><trkpt lat="43.6523367" lon="12.651065"><ele>458.0</ele><time>2026-04-25T12:07:07.532Z</time></trkpt><trkpt lat="43.65238" lon="12.6509733"><ele>458.0</ele><time>2026-04-25T12:07:08.533Z</time></trkpt><trkpt lat="43.65248" lon="12.6508433"><ele>455.59999999999997</ele><time>2026-04-25T12:07:10.532Z</time></trkpt><trkpt lat="43.6525483" lon="12.6508017"><ele>453.19999999999993</ele><time>2026-04-25T12:07:11.532Z</time></trkpt><trkpt lat="43.6526383" lon="12.6507783"><ele>450.8</ele><time>2026-04-25T12:07:12.532Z</time></trkpt><trkpt lat="43.6527233" lon="12.65076"><ele>448.4</ele><time>2026-04-25T12:07:13.534Z</time></trkpt><trkpt lat="43.6528367" lon="12.6507717"><ele>446.0</ele><time>2026-04-25T12:07:14.532Z</time></trkpt><trkpt lat="43.6529867" lon="12.6507917"><ele>443.4</ele><time>2026-04-25T12:07:15.533Z</time></trkpt><trkpt lat="43.6531183" lon="12.6507967"><ele>440.8</ele><time>2026-04-25T12:07:16.533Z</time></trkpt><trkpt lat="43.653225" lon="12.6507783"><ele>438.19999999999993</ele><time>2026-04-25T12:07:17.534Z</time></trkpt><trkpt lat="43.653315" lon="12.6507467"><ele>435.59999999999997</ele><time>2026-04-25T12:07:18.532Z</time></trkpt><trkpt lat="43.6533983" lon="12.6507"><ele>433.0</ele><time>2026-04-25T12:07:19.532Z</time></trkpt><trkpt lat="43.653475" lon="12.6506483"><ele>433.0</ele><time>2026-04-25T12:07:20.532Z</time></trkpt><trkpt lat="43.6535717" lon="12.6505817"><ele>433.0</ele><time>2026-04-25T12:07:21.532Z</time></trkpt><trkpt lat="43.6536833" lon="12.650505"><ele>433.0</ele><time>2026-04-25T12:07:22.533Z</time></trkpt><trkpt lat="43.6537983" lon="12.6504133"><ele>433.0</ele><time>2026-04-25T12:07:23.532Z</time></trkpt><trkpt lat="43.653925" lon="12.650305"><ele>430.75</ele><time>2026-04-25T12:07:24.532Z</time></trkpt><trkpt lat="43.65404" lon="12.65019"><ele>428.5</ele><time>2026-04-25T12:07:25.532Z</time></trkpt><trkpt lat="43.6541483" lon="12.65007"><ele>426.25</ele><time>2026-04-25T12:07:26.532Z</time></trkpt><trkpt lat="43.654245" lon="12.6499533"><ele>424.0</ele><time>2026-04-25T12:07:27.533Z</time></trkpt><trkpt lat="43.654335" lon="12.6498433"><ele>424.0</ele><time>2026-04-25T12:07:28.533Z</time></trkpt><trkpt lat="43.654435" lon="12.6497317"><ele>424.0</ele><time>2026-04-25T12:07:29.533Z</time></trkpt><trkpt lat="43.6546317" lon="12.6495233"><ele>424.0</ele><time>2026-04-25T12:07:31.532Z</time></trkpt><trkpt lat="43.654725" lon="12.6494333"><ele>421.25</ele><time>2026-04-25T12:07:32.533Z</time></trkpt><trkpt lat="43.6548283" lon="12.6493517"><ele>418.5</ele><time>2026-04-25T12:07:33.532Z</time></trkpt><trkpt lat="43.654935" lon="12.6492833"><ele>415.75</ele><time>2026-04-25T12:07:34.532Z</time></trkpt><trkpt lat="43.6550483" lon="12.6492167"><ele>413.0</ele><time>2026-04-25T12:07:35.533Z</time></trkpt><trkpt lat="43.655165" lon="12.6491533"><ele>413.0</ele><time>2026-04-25T12:07:36.533Z</time></trkpt><trkpt lat="43.6552867" lon="12.6490833"><ele>413.0</ele><time>2026-04-25T12:07:37.532Z</time></trkpt><trkpt lat="43.65541" lon="12.6490117"><ele>413.0</ele><time>2026-04-25T12:07:38.532Z</time></trkpt><trkpt lat="43.6555333" lon="12.6489433"><ele>413.0</ele><time>2026-04-25T12:07:39.532Z</time></trkpt><trkpt lat="43.6556483" lon="12.64889"><ele>412.0</ele><time>2026-04-25T12:07:40.533Z</time></trkpt><trkpt lat="43.6557533" lon="12.6488567"><ele>411.0</ele><time>2026-04-25T12:07:41.533Z</time></trkpt><trkpt lat="43.65586" lon="12.6488383"><ele>410.0</ele><time>2026-04-25T12:07:42.532Z</time></trkpt><trkpt lat="43.6559617" lon="12.6488183"><ele>409.0</ele><time>2026-04-25T12:07:43.532Z</time></trkpt><trkpt lat="43.65607" lon="12.6487867"><ele>408.0</ele><time>2026-04-25T12:07:44.532Z</time></trkpt><trkpt lat="43.6561767" lon="12.64873"><ele>406.4</ele><time>2026-04-25T12:07:45.532Z</time></trkpt><trkpt lat="43.6562817" lon="12.6486583"><ele>404.79999999999995</ele><time>2026-04-25T12:07:46.532Z</time></trkpt><trkpt lat="43.6563817" lon="12.6485817"><ele>403.2</ele><time>2026-04-25T12:07:47.532Z</time></trkpt><trkpt lat="43.6564883" lon="12.6485183"><ele>401.6</ele><time>2026-04-25T12:07:48.532Z</time></trkpt><trkpt lat="43.6565767" lon="12.648455"><ele>400.0</ele><time>2026-04-25T12:07:49.532Z</time></trkpt><trkpt lat="43.6566567" lon="12.6483767"><ele>400.0</ele><time>2026-04-25T12:07:50.534Z</time></trkpt><trkpt lat="43.656785" lon="12.6481817"><ele>400.0</ele><time>2026-04-25T12:07:52.532Z</time></trkpt><trkpt lat="43.6568367" lon="12.6480783"><ele>400.0</ele><time>2026-04-25T12:07:53.533Z</time></trkpt><trkpt lat="43.6568833" lon="12.647965"><ele>400.0</ele><time>2026-04-25T12:07:54.534Z</time></trkpt><trkpt lat="43.656935" lon="12.6478517"><ele>395.8</ele><time>2026-04-25T12:07:55.533Z</time></trkpt><trkpt lat="43.6569867" lon="12.647735"><ele>391.6</ele><time>2026-04-25T12:07:56.534Z</time></trkpt><trkpt lat="43.6570433" lon="12.6476167"><ele>387.4</ele><time>2026-04-25T12:07:57.532Z</time></trkpt><trkpt lat="43.6571" lon="12.6474967"><ele>383.2</ele><time>2026-04-25T12:07:58.533Z</time></trkpt><trkpt lat="43.65715" lon="12.6473783"><ele>379.0</ele><time>2026-04-25T12:07:59.534Z</time></trkpt><trkpt lat="43.6572017" lon="12.6472583"><ele>379.0</ele><time>2026-04-25T12:08:00.534Z</time></trkpt><trkpt lat="43.6572533" lon="12.64714"><ele>379.0</ele><time>2026-04-25T12:08:01.533Z</time></trkpt><trkpt lat="43.657305" lon="12.64702"><ele>379.0</ele><time>2026-04-25T12:08:02.534Z</time></trkpt><trkpt lat="43.65737" lon="12.6469067"><ele>379.0</ele><time>2026-04-25T12:08:03.533Z</time></trkpt><trkpt lat="43.6574367" lon="12.6467983"><ele>379.0</ele><time>2026-04-25T12:08:04.533Z</time></trkpt><trkpt lat="43.6575033" lon="12.64669"><ele>378.4</ele><time>2026-04-25T12:08:05.534Z</time></trkpt><trkpt lat="43.6575733" lon="12.64658"><ele>377.79999999999995</ele><time>2026-04-25T12:08:06.534Z</time></trkpt><trkpt lat="43.6576417" lon="12.646475"><ele>377.20000000000005</ele><time>2026-04-25T12:08:07.534Z</time></trkpt><trkpt lat="43.65771" lon="12.6463667"><ele>376.6</ele><time>2026-04-25T12:08:08.534Z</time></trkpt><trkpt lat="43.6577867" lon="12.6462533"><ele>376.0</ele><time>2026-04-25T12:08:09.535Z</time></trkpt><trkpt lat="43.6578683" lon="12.6461267"><ele>373.66666666666663</ele><time>2026-04-25T12:08:10.538Z</time></trkpt><trkpt lat="43.657955" lon="12.6459883"><ele>371.3333333333333</ele><time>2026-04-25T12:08:11.533Z</time></trkpt><trkpt lat="43.6581533" lon="12.6457083"><ele>369.0</ele><time>2026-04-25T12:08:13.533Z</time></trkpt><trkpt lat="43.658255" lon="12.6455767"><ele>369.0</ele><time>2026-04-25T12:08:14.533Z</time></trkpt><trkpt lat="43.6583567" lon="12.6454433"><ele>369.0</ele><time>2026-04-25T12:08:15.533Z</time></trkpt><trkpt lat="43.658465" lon="12.645315"><ele>369.0</ele><time>2026-04-25T12:08:16.535Z</time></trkpt><trkpt lat="43.65858" lon="12.645195"><ele>369.0</ele><time>2026-04-25T12:08:17.533Z</time></trkpt><trkpt lat="43.6587017" lon="12.6450733"><ele>366.6666666666667</ele><time>2026-04-25T12:08:18.533Z</time></trkpt><trkpt lat="43.6588317" lon="12.6449517"><ele>364.33333333333337</ele><time>2026-04-25T12:08:19.535Z</time></trkpt><trkpt lat="43.6589633" lon="12.64483"><ele>362.0</ele><time>2026-04-25T12:08:20.533Z</time></trkpt><trkpt lat="43.6590917" lon="12.6447"><ele>362.0</ele><time>2026-04-25T12:08:21.535Z</time></trkpt><trkpt lat="43.6592117" lon="12.6445683"><ele>362.0</ele><time>2026-04-25T12:08:22.532Z</time></trkpt><trkpt lat="43.65932" lon="12.6444267"><ele>362.0</ele><time>2026-04-25T12:08:23.533Z</time></trkpt><trkpt lat="43.65943" lon="12.6442833"><ele>359.5</ele><time>2026-04-25T12:08:24.531Z</time></trkpt><trkpt lat="43.659535" lon="12.6441467"><ele>357.0</ele><time>2026-04-25T12:08:25.532Z</time></trkpt><trkpt lat="43.6596383" lon="12.6440033"><ele>354.5</ele><time>2026-04-25T12:08:26.533Z</time></trkpt><trkpt lat="43.6597517" lon="12.643855"><ele>352.0</ele><time>2026-04-25T12:08:27.534Z</time></trkpt><trkpt lat="43.659865" lon="12.643695"><ele>349.66666666666663</ele><time>2026-04-25T12:08:28.534Z</time></trkpt><trkpt lat="43.659975" lon="12.64353"><ele>347.3333333333333</ele><time>2026-04-25T12:08:29.533Z</time></trkpt><trkpt lat="43.6600733" lon="12.6433583"><ele>345.0</ele><time>2026-04-25T12:08:30.531Z</time></trkpt><trkpt lat="43.660165" lon="12.643195"><ele>345.0</ele><time>2026-04-25T12:08:31.536Z</time></trkpt><trkpt lat="43.6602567" lon="12.6430417"><ele>345.0</ele><time>2026-04-25T12:08:32.531Z</time></trkpt><trkpt lat="43.6604767" lon="12.6428183"><ele>345.0</ele><time>2026-04-25T12:08:34.531Z</time></trkpt><trkpt lat="43.6605867" lon="12.6427833"><ele>343.8</ele><time>2026-04-25T12:08:35.533Z</time></trkpt><trkpt lat="43.6606833" lon="12.6428083"><ele>342.6</ele><time>2026-04-25T12:08:36.533Z</time></trkpt><trkpt lat="43.660785" lon="12.6428333"><ele>341.4</ele><time>2026-04-25T12:08:38.534Z</time></trkpt><trkpt lat="43.660845" lon="12.6427533"><ele>340.2</ele><time>2026-04-25T12:08:40.534Z</time></trkpt><trkpt lat="43.6609033" lon="12.6425967"><ele>339.0</ele><time>2026-04-25T12:08:42.531Z</time></trkpt><trkpt lat="43.6609483" lon="12.6425267"><ele>339.0</ele><time>2026-04-25T12:08:43.532Z</time></trkpt><trkpt lat="43.6610033" lon="12.6424533"><ele>339.0</ele><time>2026-04-25T12:08:44.533Z</time></trkpt><trkpt lat="43.6610617" lon="12.642375"><ele>339.0</ele><time>2026-04-25T12:08:45.531Z</time></trkpt><trkpt lat="43.6611233" lon="12.6422883"><ele>339.0</ele><time>2026-04-25T12:08:46.532Z</time></trkpt><trkpt lat="43.6611833" lon="12.6421967"><ele>339.0</ele><time>2026-04-25T12:08:47.538Z</time></trkpt><trkpt lat="43.6612433" lon="12.6420983"><ele>339.0</ele><time>2026-04-25T12:08:48.532Z</time></trkpt><trkpt lat="43.6613033" lon="12.6419867"><ele>337.4</ele><time>2026-04-25T12:08:49.533Z</time></trkpt><trkpt lat="43.6613633" lon="12.641865"><ele>335.79999999999995</ele><time>2026-04-25T12:08:50.531Z</time></trkpt><trkpt lat="43.6614183" lon="12.6417383"><ele>334.20000000000005</ele><time>2026-04-25T12:08:51.531Z</time></trkpt><trkpt lat="43.6614717" lon="12.641615"><ele>332.6</ele><time>2026-04-25T12:08:52.531Z</time></trkpt><trkpt lat="43.6615183" lon="12.6415033"><ele>331.0</ele><time>2026-04-25T12:08:53.536Z</time></trkpt><trkpt lat="43.6615917" lon="12.6413333"><ele>331.0</ele><time>2026-04-25T12:08:55.535Z</time></trkpt><trkpt lat="43.661635" lon="12.6412367"><ele>331.0</ele><time>2026-04-25T12:08:57.532Z</time></trkpt><trkpt lat="43.6616533" lon="12.6411533"><ele>331.0</ele><time>2026-04-25T12:09:01.532Z</time></trkpt><trkpt lat="43.6617183" lon="12.6410983"><ele>331.0</ele><time>2026-04-25T12:09:04.531Z</time></trkpt><trkpt lat="43.6617833" lon="12.6410317"><ele>331.0</ele><time>2026-04-25T12:09:06.531Z</time></trkpt><trkpt lat="43.6618483" lon="12.640965"><ele>331.0</ele><time>2026-04-25T12:09:08.532Z</time></trkpt><trkpt lat="43.6619217" lon="12.6408933"><ele>329.66666666666663</ele><time>2026-04-25T12:09:10.533Z</time></trkpt><trkpt lat="43.6619717" lon="12.6408267"><ele>328.3333333333333</ele><time>2026-04-25T12:09:12.537Z</time></trkpt><trkpt lat="43.662025" lon="12.6407583"><ele>327.0</ele><time>2026-04-25T12:09:14.532Z</time></trkpt><trkpt lat="43.6621317" lon="12.640635"><ele>325.6666666666667</ele><time>2026-04-25T12:09:18.532Z</time></trkpt><trkpt lat="43.662185" lon="12.640575"><ele>324.33333333333337</ele><time>2026-04-25T12:09:20.532Z</time></trkpt><trkpt lat="43.662245" lon="12.6405117"><ele>323.0</ele><time>2026-04-25T12:09:22.533Z</time></trkpt><trkpt lat="43.6622967" lon="12.64043"><ele>323.0</ele><time>2026-04-25T12:09:24.532Z</time></trkpt><trkpt lat="43.66234" lon="12.6403483"><ele>323.0</ele><time>2026-04-25T12:09:26.531Z</time></trkpt><trkpt lat="43.6624" lon="12.6402683"><ele>323.0</ele><time>2026-04-25T12:09:28.531Z</time></trkpt><trkpt lat="43.6624567" lon="12.6401983"><ele>323.0</ele><time>2026-04-25T12:09:30.532Z</time></trkpt><trkpt lat="43.66253" lon="12.6401183"><ele>323.0</ele><time>2026-04-25T12:09:32.532Z</time></trkpt><trkpt lat="43.66259" lon="12.64007"><ele>323.0</ele><time>2026-04-25T12:09:34.531Z</time></trkpt><trkpt lat="43.6626667" lon="12.6400217"><ele>317.4</ele><time>2026-04-25T12:09:36.531Z</time></trkpt><trkpt lat="43.6628083" lon="12.6399567"><ele>311.79999999999995</ele><time>2026-04-25T12:09:40.534Z</time></trkpt><trkpt lat="43.662885" lon="12.6399333"><ele>306.2</ele><time>2026-04-25T12:09:42.535Z</time></trkpt><trkpt lat="43.6629667" lon="12.639935"><ele>300.6</ele><time>2026-04-25T12:09:44.531Z</time></trkpt><trkpt lat="43.6630567" lon="12.63995"><ele>295.0</ele><time>2026-04-25T12:09:46.531Z</time></trkpt><trkpt lat="43.663135" lon="12.639975"><ele>295.0</ele><time>2026-04-25T12:09:48.534Z</time></trkpt><trkpt lat="43.66321" lon="12.64"><ele>295.0</ele><time>2026-04-25T12:09:50.532Z</time></trkpt><trkpt lat="43.66329" lon="12.6400133"><ele>295.0</ele><time>2026-04-25T12:09:52.532Z</time></trkpt><trkpt lat="43.663375" lon="12.6399933"><ele>295.0</ele><time>2026-04-25T12:10:00.532Z</time></trkpt><trkpt lat="43.6633667" lon="12.6398017"><ele>295.0</ele><time>2026-04-25T12:10:05.533Z</time></trkpt><trkpt lat="43.6633417" lon="12.6397183"><ele>295.0</ele><time>2026-04-25T12:10:07.534Z</time></trkpt><trkpt lat="43.6633133" lon="12.6396267"><ele>295.0</ele><time>2026-04-25T12:10:09.533Z</time></trkpt><trkpt lat="43.6632867" lon="12.639525"><ele>295.0</ele><time>2026-04-25T12:10:11.531Z</time></trkpt><trkpt lat="43.6632533" lon="12.6394233"><ele>295.0</ele><time>2026-04-25T12:10:13.534Z</time></trkpt><trkpt lat="43.663215" lon="12.6393233"><ele>295.0</ele><time>2026-04-25T12:10:15.537Z</time></trkpt><trkpt lat="43.663165" lon="12.6392167"><ele>295.0</ele><time>2026-04-25T12:10:17.534Z</time></trkpt><trkpt lat="43.6631017" lon="12.6391167"><ele>295.0</ele><time>2026-04-25T12:10:19.533Z</time></trkpt><trkpt lat="43.66304" lon="12.6390283"><ele>292.0</ele><time>2026-04-25T12:10:21.532Z</time></trkpt><trkpt lat="43.6629483" lon="12.63888"><ele>289.0</ele><time>2026-04-25T12:10:25.538Z</time></trkpt><trkpt lat="43.6629983" lon="12.6388217"><ele>286.0</ele><time>2026-04-25T12:10:33.532Z</time></trkpt><trkpt lat="43.6630617" lon="12.6388567"><ele>283.0</ele><time>2026-04-25T12:10:36.532Z</time></trkpt><trkpt lat="43.66314" lon="12.6389267"><ele>280.0</ele><time>2026-04-25T12:10:38.533Z</time></trkpt><trkpt lat="43.6632033" lon="12.63898"><ele>277.0</ele><time>2026-04-25T12:10:39.532Z</time></trkpt><trkpt lat="43.66327" lon="12.6390367"><ele>277.0</ele><time>2026-04-25T12:10:40.534Z</time></trkpt><trkpt lat="43.663345" lon="12.6390967"><ele>277.0</ele><time>2026-04-25T12:10:41.534Z</time></trkpt><trkpt lat="43.6634167" lon="12.6391533"><ele>277.0</ele><time>2026-04-25T12:10:42.533Z</time></trkpt><trkpt lat="43.663555" lon="12.639265"><ele>277.0</ele><time>2026-04-25T12:10:44.533Z</time></trkpt><trkpt lat="43.6636283" lon="12.6393267"><ele>277.0</ele><time>2026-04-25T12:10:45.533Z</time></trkpt><trkpt lat="43.6637033" lon="12.6393867"><ele>274.5</ele><time>2026-04-25T12:10:46.534Z</time></trkpt><trkpt lat="43.6637783" lon="12.639445"><ele>272.0</ele><time>2026-04-25T12:10:47.533Z</time></trkpt><trkpt lat="43.6638483" lon="12.6395033"><ele>269.5</ele><time>2026-04-25T12:10:48.533Z</time></trkpt><trkpt lat="43.66392" lon="12.6395617"><ele>267.0</ele><time>2026-04-25T12:10:49.534Z</time></trkpt><trkpt lat="43.66398" lon="12.639625"><ele>264.5</ele><time>2026-04-25T12:10:50.533Z</time></trkpt><trkpt lat="43.6640367" lon="12.6396867"><ele>262.0</ele><time>2026-04-25T12:10:51.533Z</time></trkpt><trkpt lat="43.6640917" lon="12.639755"><ele>262.0</ele><time>2026-04-25T12:10:52.533Z</time></trkpt><trkpt lat="43.6641383" lon="12.639835"><ele>262.0</ele><time>2026-04-25T12:10:53.533Z</time></trkpt><trkpt lat="43.6641733" lon="12.63993"><ele>262.0</ele><time>2026-04-25T12:10:54.532Z</time></trkpt><trkpt lat="43.6641933" lon="12.6400317"><ele>262.0</ele><time>2026-04-25T12:10:55.533Z</time></trkpt><trkpt lat="43.6642067" lon="12.640135"><ele>262.0</ele><time>2026-04-25T12:10:56.534Z</time></trkpt><trkpt lat="43.6642133" lon="12.6402467"><ele>262.0</ele><time>2026-04-25T12:10:57.532Z</time></trkpt><trkpt lat="43.6642167" lon="12.6403717"><ele>262.0</ele><time>2026-04-25T12:10:58.533Z</time></trkpt><trkpt lat="43.6642167" lon="12.6405"><ele>262.0</ele><time>2026-04-25T12:10:59.534Z</time></trkpt><trkpt lat="43.66422" lon="12.64063"><ele>262.0</ele><time>2026-04-25T12:11:00.534Z</time></trkpt><trkpt lat="43.66422" lon="12.6407467"><ele>262.0</ele><time>2026-04-25T12:11:01.533Z</time></trkpt><trkpt lat="43.664225" lon="12.640855"><ele>262.0</ele><time>2026-04-25T12:11:02.533Z</time></trkpt><trkpt lat="43.664235" lon="12.64096"><ele>262.0</ele><time>2026-04-25T12:11:03.533Z</time></trkpt><trkpt lat="43.664285" lon="12.6411433"><ele>262.0</ele><time>2026-04-25T12:11:05.534Z</time></trkpt><trkpt lat="43.664325" lon="12.6412217"><ele>262.0</ele><time>2026-04-25T12:11:06.533Z</time></trkpt><trkpt lat="43.6643683" lon="12.64129"><ele>262.0</ele><time>2026-04-25T12:11:07.533Z</time></trkpt><trkpt lat="43.6644283" lon="12.64134"><ele>262.0</ele><time>2026-04-25T12:11:08.533Z</time></trkpt><trkpt lat="43.664495" lon="12.6413917"><ele>262.0</ele><time>2026-04-25T12:11:09.534Z</time></trkpt><trkpt lat="43.664565" lon="12.6414583"><ele>262.0</ele><time>2026-04-25T12:11:10.533Z</time></trkpt><trkpt lat="43.6646333" lon="12.6415367"><ele>259.0</ele><time>2026-04-25T12:11:11.534Z</time></trkpt><trkpt lat="43.664695" lon="12.6416283"><ele>256.0</ele><time>2026-04-25T12:11:12.535Z</time></trkpt><trkpt lat="43.6647517" lon="12.6417283"><ele>253.0</ele><time>2026-04-25T12:11:13.535Z</time></trkpt><trkpt lat="43.664795" lon="12.6418367"><ele>250.0</ele><time>2026-04-25T12:11:14.534Z</time></trkpt><trkpt lat="43.6648333" lon="12.6419467"><ele>246.99999999999997</ele><time>2026-04-25T12:11:15.533Z</time></trkpt><trkpt lat="43.6648617" lon="12.64205"><ele>244.0</ele><time>2026-04-25T12:11:16.534Z</time></trkpt><trkpt lat="43.66488" lon="12.6421583"><ele>243.99999999999997</ele><time>2026-04-25T12:11:17.534Z</time></trkpt><trkpt lat="43.6648917" lon="12.64228"><ele>244.0</ele><time>2026-04-25T12:11:18.533Z</time></trkpt><trkpt lat="43.66491" lon="12.6423983"><ele>244.0</ele><time>2026-04-25T12:11:19.535Z</time></trkpt><trkpt lat="43.664925" lon="12.6425133"><ele>244.0</ele><time>2026-04-25T12:11:20.533Z</time></trkpt><trkpt lat="43.6649383" lon="12.6426217"><ele>243.99999999999997</ele><time>2026-04-25T12:11:21.536Z</time></trkpt><trkpt lat="43.6649517" lon="12.64272"><ele>244.0</ele><time>2026-04-25T12:11:22.533Z</time></trkpt><trkpt lat="43.6649717" lon="12.6428083"><ele>244.0</ele><time>2026-04-25T12:11:23.533Z</time></trkpt><trkpt lat="43.6650267" lon="12.642935"><ele>244.0</ele><time>2026-04-25T12:11:25.536Z</time></trkpt><trkpt lat="43.6652083" lon="12.6428433"><ele>244.0</ele><time>2026-04-25T12:11:29.534Z</time></trkpt><trkpt lat="43.6652683" lon="12.6427533"><ele>244.0</ele><time>2026-04-25T12:11:30.534Z</time></trkpt><trkpt lat="43.6653367" lon="12.642665"><ele>240.99999999999997</ele><time>2026-04-25T12:11:31.533Z</time></trkpt><trkpt lat="43.6654067" lon="12.6425833"><ele>238.0</ele><time>2026-04-25T12:11:32.534Z</time></trkpt><trkpt lat="43.6654717" lon="12.642505"><ele>235.0</ele><time>2026-04-25T12:11:33.533Z</time></trkpt><trkpt lat="43.665535" lon="12.6424333"><ele>232.0</ele><time>2026-04-25T12:11:34.533Z</time></trkpt><trkpt lat="43.6655917" lon="12.642395"><ele>228.99999999999997</ele><time>2026-04-25T12:11:35.534Z</time></trkpt><trkpt lat="43.6656817" lon="12.64242"><ele>226.0</ele><time>2026-04-25T12:11:37.533Z</time></trkpt><trkpt lat="43.665765" lon="12.64256"><ele>225.99999999999997</ele><time>2026-04-25T12:11:39.532Z</time></trkpt><trkpt lat="43.6658217" lon="12.642645"><ele>226.0</ele><time>2026-04-25T12:11:40.532Z</time></trkpt><trkpt lat="43.665885" lon="12.6427233"><ele>226.0</ele><time>2026-04-25T12:11:41.532Z</time></trkpt><trkpt lat="43.6659533" lon="12.6428"><ele>226.0</ele><time>2026-04-25T12:11:42.534Z</time></trkpt><trkpt lat="43.6660233" lon="12.6428683"><ele>225.99999999999997</ele><time>2026-04-25T12:11:43.533Z</time></trkpt><trkpt lat="43.6660983" lon="12.64293"><ele>226.0</ele><time>2026-04-25T12:11:44.531Z</time></trkpt><trkpt lat="43.6661783" lon="12.642975"><ele>222.25</ele><time>2026-04-25T12:11:45.534Z</time></trkpt><trkpt lat="43.6662583" lon="12.643015"><ele>218.5</ele><time>2026-04-25T12:11:46.533Z</time></trkpt><trkpt lat="43.666425" lon="12.64308"><ele>214.75</ele><time>2026-04-25T12:11:48.531Z</time></trkpt><trkpt lat="43.6665217" lon="12.6431"><ele>211.0</ele><time>2026-04-25T12:11:49.533Z</time></trkpt><trkpt lat="43.6666217" lon="12.643115"><ele>211.0</ele><time>2026-04-25T12:11:50.531Z</time></trkpt><trkpt lat="43.6667217" lon="12.6431317"><ele>211.0</ele><time>2026-04-25T12:11:51.532Z</time></trkpt><trkpt lat="43.6668217" lon="12.6431467"><ele>211.0</ele><time>2026-04-25T12:11:52.531Z</time></trkpt><trkpt lat="43.6669167" lon="12.6431683"><ele>211.0</ele><time>2026-04-25T12:11:53.532Z</time></trkpt><trkpt lat="43.6670133" lon="12.6432033"><ele>211.0</ele><time>2026-04-25T12:11:54.534Z</time></trkpt><trkpt lat="43.6671133" lon="12.6432533"><ele>209.60000000000002</ele><time>2026-04-25T12:11:55.532Z</time></trkpt><trkpt lat="43.6672083" lon="12.6433117"><ele>208.2</ele><time>2026-04-25T12:11:56.531Z</time></trkpt><trkpt lat="43.6673017" lon="12.64338"><ele>206.8</ele><time>2026-04-25T12:11:57.536Z</time></trkpt><trkpt lat="43.6673883" lon="12.643455"><ele>205.39999999999998</ele><time>2026-04-25T12:11:58.532Z</time></trkpt><trkpt lat="43.6674667" lon="12.64353"><ele>204.0</ele><time>2026-04-25T12:11:59.532Z</time></trkpt><trkpt lat="43.6675417" lon="12.6435983"><ele>204.5</ele><time>2026-04-25T12:12:00.533Z</time></trkpt><trkpt lat="43.6676083" lon="12.6436583"><ele>205.0</ele><time>2026-04-25T12:12:01.532Z</time></trkpt><trkpt lat="43.66768" lon="12.643725"><ele>205.5</ele><time>2026-04-25T12:12:02.532Z</time></trkpt><trkpt lat="43.6677567" lon="12.643785"><ele>206.0</ele><time>2026-04-25T12:12:03.537Z</time></trkpt><trkpt lat="43.667825" lon="12.6438417"><ele>206.5</ele><time>2026-04-25T12:12:04.534Z</time></trkpt><trkpt lat="43.6678833" lon="12.643905"><ele>207.0</ele><time>2026-04-25T12:12:05.53Z</time></trkpt><trkpt lat="43.6679317" lon="12.6439867"><ele>207.0</ele><time>2026-04-25T12:12:06.537Z</time></trkpt><trkpt lat="43.66797" lon="12.6440917"><ele>207.0</ele><time>2026-04-25T12:12:07.533Z</time></trkpt><trkpt lat="43.6679983" lon="12.64429"><ele>207.0</ele><time>2026-04-25T12:12:09.531Z</time></trkpt><trkpt lat="43.668015" lon="12.6444133"><ele>207.0</ele><time>2026-04-25T12:12:11.532Z</time></trkpt><trkpt lat="43.6680933" lon="12.6444683"><ele>207.0</ele><time>2026-04-25T12:12:14.538Z</time></trkpt><trkpt lat="43.6682383" lon="12.644425"><ele>207.0</ele><time>2026-04-25T12:12:16.531Z</time></trkpt><trkpt lat="43.6683333" lon="12.6443883"><ele>207.0</ele><time>2026-04-25T12:12:17.531Z</time></trkpt><trkpt lat="43.6684467" lon="12.64435"><ele>207.0</ele><time>2026-04-25T12:12:18.531Z</time></trkpt><trkpt lat="43.66856" lon="12.6443117"><ele>207.0</ele><time>2026-04-25T12:12:19.533Z</time></trkpt><trkpt lat="43.66866" lon="12.6442783"><ele>207.0</ele><time>2026-04-25T12:12:20.53Z</time></trkpt><trkpt lat="43.6687567" lon="12.6442433"><ele>207.0</ele><time>2026-04-25T12:12:21.531Z</time></trkpt><trkpt lat="43.668845" lon="12.6442133"><ele>207.0</ele><time>2026-04-25T12:12:22.533Z</time></trkpt><trkpt lat="43.6689233" lon="12.6441867"><ele>207.0</ele><time>2026-04-25T12:12:23.531Z</time></trkpt><trkpt lat="43.6690067" lon="12.6441617"><ele>207.0</ele><time>2026-04-25T12:12:24.532Z</time></trkpt><trkpt lat="43.6691283" lon="12.6441367"><ele>207.0</ele><time>2026-04-25T12:12:26.531Z</time></trkpt><trkpt lat="43.6692383" lon="12.6441683"><ele>207.0</ele><time>2026-04-25T12:12:28.531Z</time></trkpt><trkpt lat="43.669295" lon="12.6443533"><ele>207.0</ele><time>2026-04-25T12:12:30.531Z</time></trkpt><trkpt lat="43.669285" lon="12.644525"><ele>207.0</ele><time>2026-04-25T12:12:31.532Z</time></trkpt><trkpt lat="43.66926" lon="12.64473"><ele>207.0</ele><time>2026-04-25T12:12:32.531Z</time></trkpt><trkpt lat="43.6692267" lon="12.6449717"><ele>207.66666666666669</ele><time>2026-04-25T12:12:33.532Z</time></trkpt><trkpt lat="43.6692033" lon="12.6452017"><ele>208.33333333333334</ele><time>2026-04-25T12:12:34.531Z</time></trkpt><trkpt lat="43.6691767" lon="12.64543"><ele>209.0</ele><time>2026-04-25T12:12:35.531Z</time></trkpt><trkpt lat="43.6691683" lon="12.6456283"><ele>209.25</ele><time>2026-04-25T12:12:36.531Z</time></trkpt><trkpt lat="43.6691617" lon="12.6458267"><ele>209.5</ele><time>2026-04-25T12:12:37.532Z</time></trkpt><trkpt lat="43.6691533" lon="12.6460183"><ele>209.75</ele><time>2026-04-25T12:12:38.535Z</time></trkpt><trkpt lat="43.6691417" lon="12.6461883"><ele>210.0</ele><time>2026-04-25T12:12:39.534Z</time></trkpt><trkpt lat="43.6691333" lon="12.64635"><ele>210.16666666666666</ele><time>2026-04-25T12:12:40.532Z</time></trkpt><trkpt lat="43.669125" lon="12.6465"><ele>210.33333333333331</ele><time>2026-04-25T12:12:41.533Z</time></trkpt><trkpt lat="43.66912" lon="12.6466383"><ele>210.5</ele><time>2026-04-25T12:12:42.531Z</time></trkpt><trkpt lat="43.6691133" lon="12.6467633"><ele>210.66666666666666</ele><time>2026-04-25T12:12:43.536Z</time></trkpt><trkpt lat="43.6691133" lon="12.6468717"><ele>210.83333333333331</ele><time>2026-04-25T12:12:44.534Z</time></trkpt><trkpt lat="43.669125" lon="12.64696"><ele>211.0</ele><time>2026-04-25T12:12:45.535Z</time></trkpt><trkpt lat="43.66916" lon="12.64704"><ele>211.0</ele><time>2026-04-25T12:12:46.534Z</time></trkpt><trkpt lat="43.6692167" lon="12.6471067"><ele>211.0</ele><time>2026-04-25T12:12:47.531Z</time></trkpt><trkpt lat="43.669285" lon="12.6471667"><ele>211.0</ele><time>2026-04-25T12:12:48.535Z</time></trkpt><trkpt lat="43.66936" lon="12.64723"><ele>211.0</ele><time>2026-04-25T12:12:49.533Z</time></trkpt><trkpt lat="43.6695133" lon="12.6473117"><ele>211.0</ele><time>2026-04-25T12:12:51.531Z</time></trkpt><trkpt lat="43.6695967" lon="12.64732"><ele>211.4</ele><time>2026-04-25T12:12:52.533Z</time></trkpt><trkpt lat="43.6696933" lon="12.6473133"><ele>211.8</ele><time>2026-04-25T12:12:53.531Z</time></trkpt><trkpt lat="43.6697983" lon="12.6473267"><ele>212.20000000000002</ele><time>2026-04-25T12:12:54.533Z</time></trkpt><trkpt lat="43.6699" lon="12.6473533"><ele>212.60000000000002</ele><time>2026-04-25T12:12:55.534Z</time></trkpt><trkpt lat="43.6699867" lon="12.6473833"><ele>213.0</ele><time>2026-04-25T12:12:56.535Z</time></trkpt><trkpt lat="43.67007" lon="12.64742"><ele>213.0</ele><time>2026-04-25T12:12:57.532Z</time></trkpt><trkpt lat="43.6701483" lon="12.6474617"><ele>213.0</ele><time>2026-04-25T12:12:58.533Z</time></trkpt><trkpt lat="43.6702267" lon="12.647505"><ele>213.0</ele><time>2026-04-25T12:12:59.532Z</time></trkpt><trkpt lat="43.6702983" lon="12.6475467"><ele>213.0</ele><time>2026-04-25T12:13:00.533Z</time></trkpt><trkpt lat="43.6703733" lon="12.6475783"><ele>213.0</ele><time>2026-04-25T12:13:01.532Z</time></trkpt><trkpt lat="43.6704617" lon="12.647615"><ele>213.0</ele><time>2026-04-25T12:13:02.533Z</time></trkpt><trkpt lat="43.670565" lon="12.6476483"><ele>211.75</ele><time>2026-04-25T12:13:03.534Z</time></trkpt><trkpt lat="43.6706833" lon="12.6476667"><ele>210.5</ele><time>2026-04-25T12:13:04.535Z</time></trkpt><trkpt lat="43.6708117" lon="12.64767"><ele>209.25</ele><time>2026-04-25T12:13:05.534Z</time></trkpt><trkpt lat="43.670945" lon="12.6476567"><ele>208.0</ele><time>2026-04-25T12:13:06.534Z</time></trkpt><trkpt lat="43.67108" lon="12.6476467"><ele>207.5</ele><time>2026-04-25T12:13:07.532Z</time></trkpt><trkpt lat="43.67122" lon="12.6476367"><ele>207.0</ele><time>2026-04-25T12:13:08.534Z</time></trkpt><trkpt lat="43.6713533" lon="12.6476233"><ele>206.5</ele><time>2026-04-25T12:13:09.531Z</time></trkpt><trkpt lat="43.671475" lon="12.6476217"><ele>206.0</ele><time>2026-04-25T12:13:10.532Z</time></trkpt><trkpt lat="43.6716833" lon="12.64771"><ele>208.0</ele><time>2026-04-25T12:13:12.532Z</time></trkpt><trkpt lat="43.6717717" lon="12.6478133"><ele>210.0</ele><time>2026-04-25T12:13:13.532Z</time></trkpt><trkpt lat="43.671845" lon="12.6479317"><ele>212.00000000000003</ele><time>2026-04-25T12:13:14.539Z</time></trkpt><trkpt lat="43.67191" lon="12.648045"><ele>214.0</ele><time>2026-04-25T12:13:15.532Z</time></trkpt><trkpt lat="43.671965" lon="12.648145"><ele>216.0</ele><time>2026-04-25T12:13:16.531Z</time></trkpt><trkpt lat="43.6720083" lon="12.6482183"><ele>216.20000000000002</ele><time>2026-04-25T12:13:17.532Z</time></trkpt><trkpt lat="43.6720683" lon="12.6482883"><ele>216.40000000000003</ele><time>2026-04-25T12:13:19.538Z</time></trkpt><trkpt lat="43.6721583" lon="12.6483"><ele>216.6</ele><time>2026-04-25T12:13:21.533Z</time></trkpt><trkpt lat="43.6722317" lon="12.6482683"><ele>216.8</ele><time>2026-04-25T12:13:22.532Z</time></trkpt><trkpt lat="43.6723217" lon="12.6482183"><ele>217.0</ele><time>2026-04-25T12:13:23.532Z</time></trkpt><trkpt lat="43.6724367" lon="12.6481617"><ele>217.0</ele><time>2026-04-25T12:13:24.531Z</time></trkpt><trkpt lat="43.6725633" lon="12.6480967"><ele>217.0</ele><time>2026-04-25T12:13:25.533Z</time></trkpt><trkpt lat="43.6726883" lon="12.6480367"><ele>217.0</ele><time>2026-04-25T12:13:26.539Z</time></trkpt><trkpt lat="43.6728033" lon="12.6479817"><ele>217.0</ele><time>2026-04-25T12:13:27.535Z</time></trkpt><trkpt lat="43.6729117" lon="12.6479233"><ele>216.25</ele><time>2026-04-25T12:13:28.531Z</time></trkpt><trkpt lat="43.6730167" lon="12.6478683"><ele>215.5</ele><time>2026-04-25T12:13:29.534Z</time></trkpt><trkpt lat="43.6731233" lon="12.647825"><ele>214.75</ele><time>2026-04-25T12:13:30.532Z</time></trkpt><trkpt lat="43.6732367" lon="12.6478083"><ele>214.0</ele><time>2026-04-25T12:13:31.534Z</time></trkpt><trkpt lat="43.6734517" lon="12.6478367"><ele>214.0</ele><time>2026-04-25T12:13:33.534Z</time></trkpt><trkpt lat="43.6735467" lon="12.6478467"><ele>213.99999999999997</ele><time>2026-04-25T12:13:34.534Z</time></trkpt><trkpt lat="43.6736267" lon="12.6478583"><ele>213.99999999999997</ele><time>2026-04-25T12:13:35.532Z</time></trkpt><trkpt lat="43.6736917" lon="12.6478783"><ele>214.0</ele><time>2026-04-25T12:13:36.531Z</time></trkpt><trkpt lat="43.6737633" lon="12.6479833"><ele>214.0</ele><time>2026-04-25T12:13:38.533Z</time></trkpt><trkpt lat="43.6737517" lon="12.6481367"><ele>214.0</ele><time>2026-04-25T12:13:40.532Z</time></trkpt><trkpt lat="43.673725" lon="12.6482233"><ele>213.99999999999997</ele><time>2026-04-25T12:13:41.532Z</time></trkpt><trkpt lat="43.6736767" lon="12.64832"><ele>213.99999999999997</ele><time>2026-04-25T12:13:42.532Z</time></trkpt><trkpt lat="43.6735917" lon="12.6484333"><ele>214.0</ele><time>2026-04-25T12:13:43.533Z</time></trkpt><trkpt lat="43.6735333" lon="12.6485567"><ele>214.0</ele><time>2026-04-25T12:13:44.533Z</time></trkpt><trkpt lat="43.673485" lon="12.6486867"><ele>216.0</ele><time>2026-04-25T12:13:45.531Z</time></trkpt><trkpt lat="43.6734533" lon="12.6488233"><ele>218.0</ele><time>2026-04-25T12:13:46.532Z</time></trkpt><trkpt lat="43.6734483" lon="12.6489683"><ele>220.0</ele><time>2026-04-25T12:13:47.533Z</time></trkpt><trkpt lat="43.6734767" lon="12.6491233"><ele>222.0</ele><time>2026-04-25T12:13:48.532Z</time></trkpt><trkpt lat="43.6735167" lon="12.6492883"><ele>223.75</ele><time>2026-04-25T12:13:49.533Z</time></trkpt><trkpt lat="43.67357" lon="12.6494633"><ele>225.5</ele><time>2026-04-25T12:13:50.533Z</time></trkpt><trkpt lat="43.6736017" lon="12.6496367"><ele>227.25</ele><time>2026-04-25T12:13:51.531Z</time></trkpt><trkpt lat="43.6736333" lon="12.6498117"><ele>229.0</ele><time>2026-04-25T12:13:52.532Z</time></trkpt><trkpt lat="43.6736867" lon="12.6501067"><ele>229.6</ele><time>2026-04-25T12:13:54.538Z</time></trkpt><trkpt lat="43.6737133" lon="12.65022"><ele>230.2</ele><time>2026-04-25T12:13:55.533Z</time></trkpt><trkpt lat="43.6737467" lon="12.6503183"><ele>230.79999999999998</ele><time>2026-04-25T12:13:56.54Z</time></trkpt><trkpt lat="43.6737933" lon="12.650385"><ele>231.39999999999998</ele><time>2026-04-25T12:13:57.532Z</time></trkpt><trkpt lat="43.673885" lon="12.6502833"><ele>232.0</ele><time>2026-04-25T12:13:59.534Z</time></trkpt><trkpt lat="43.6739783" lon="12.65015"><ele>231.99999999999997</ele><time>2026-04-25T12:14:01.532Z</time></trkpt><trkpt lat="43.6740283" lon="12.6500867"><ele>232.0</ele><time>2026-04-25T12:14:02.533Z</time></trkpt><trkpt lat="43.674085" lon="12.65003"><ele>232.0</ele><time>2026-04-25T12:14:03.532Z</time></trkpt><trkpt lat="43.6741683" lon="12.6499983"><ele>232.0</ele><time>2026-04-25T12:14:04.535Z</time></trkpt><trkpt lat="43.674235" lon="12.6499883"><ele>231.99999999999997</ele><time>2026-04-25T12:14:05.532Z</time></trkpt><trkpt lat="43.6743333" lon="12.6500317"><ele>232.0</ele><time>2026-04-25T12:14:06.532Z</time></trkpt><trkpt lat="43.6744717" lon="12.65014"><ele>232.0</ele><time>2026-04-25T12:14:07.533Z</time></trkpt><trkpt lat="43.6746167" lon="12.6502617"><ele>232.0</ele><time>2026-04-25T12:14:08.539Z</time></trkpt><trkpt lat="43.67474" lon="12.6503617"><ele>232.0</ele><time>2026-04-25T12:14:09.534Z</time></trkpt><trkpt lat="43.6748633" lon="12.6504333"><ele>232.0</ele><time>2026-04-25T12:14:10.546Z</time></trkpt><trkpt lat="43.6749833" lon="12.650465"><ele>236.25</ele><time>2026-04-25T12:14:11.533Z</time></trkpt><trkpt lat="43.6750917" lon="12.6504617"><ele>240.5</ele><time>2026-04-25T12:14:12.539Z</time></trkpt><trkpt lat="43.67519" lon="12.650455"><ele>244.75</ele><time>2026-04-25T12:14:13.532Z</time></trkpt><trkpt lat="43.6753817" lon="12.650495"><ele>249.0</ele><time>2026-04-25T12:14:15.533Z</time></trkpt><trkpt lat="43.6754817" lon="12.6505567"><ele>249.75</ele><time>2026-04-25T12:14:16.533Z</time></trkpt><trkpt lat="43.6755767" lon="12.6506217"><ele>250.5</ele><time>2026-04-25T12:14:17.532Z</time></trkpt><trkpt lat="43.6756917" lon="12.6507"><ele>251.25</ele><time>2026-04-25T12:14:18.532Z</time></trkpt><trkpt lat="43.675815" lon="12.6507817"><ele>252.0</ele><time>2026-04-25T12:14:19.532Z</time></trkpt><trkpt lat="43.675925" lon="12.6508567"><ele>252.0</ele><time>2026-04-25T12:14:20.533Z</time></trkpt><trkpt lat="43.67603" lon="12.65092"><ele>252.0</ele><time>2026-04-25T12:14:21.532Z</time></trkpt><trkpt lat="43.6761367" lon="12.650965"><ele>252.0</ele><time>2026-04-25T12:14:22.532Z</time></trkpt><trkpt lat="43.6762583" lon="12.65097"><ele>252.0</ele><time>2026-04-25T12:14:23.533Z</time></trkpt><trkpt lat="43.6763933" lon="12.65093"><ele>253.25</ele><time>2026-04-25T12:14:24.533Z</time></trkpt><trkpt lat="43.6765283" lon="12.6508917"><ele>254.5</ele><time>2026-04-25T12:14:25.533Z</time></trkpt><trkpt lat="43.67666" lon="12.6508567"><ele>255.75</ele><time>2026-04-25T12:14:26.532Z</time></trkpt><trkpt lat="43.6768033" lon="12.6508267"><ele>257.0</ele><time>2026-04-25T12:14:27.532Z</time></trkpt><trkpt lat="43.676945" lon="12.6507833"><ele>259.0</ele><time>2026-04-25T12:14:28.532Z</time></trkpt><trkpt lat="43.677075" lon="12.650725"><ele>261.0</ele><time>2026-04-25T12:14:29.532Z</time></trkpt><trkpt lat="43.6771867" lon="12.6506583"><ele>263.0</ele><time>2026-04-25T12:14:30.533Z</time></trkpt><trkpt lat="43.6772883" lon="12.6506083"><ele>265.0</ele><time>2026-04-25T12:14:31.533Z</time></trkpt><trkpt lat="43.6773633" lon="12.6505833"><ele>267.0</ele><time>2026-04-25T12:14:32.532Z</time></trkpt><trkpt lat="43.6774317" lon="12.6505933"><ele>267.0</ele><time>2026-04-25T12:14:33.532Z</time></trkpt><trkpt lat="43.6775117" lon="12.650665"><ele>267.0</ele><time>2026-04-25T12:14:35.533Z</time></trkpt><trkpt lat="43.6774767" lon="12.6510167"><ele>267.0</ele><time>2026-04-25T12:14:39.531Z</time></trkpt><trkpt lat="43.6773817" lon="12.6511667"><ele>268.6666666666667</ele><time>2026-04-25T12:14:40.533Z</time></trkpt><trkpt lat="43.6772867" lon="12.6513067"><ele>270.33333333333337</ele><time>2026-04-25T12:14:41.532Z</time></trkpt><trkpt lat="43.6770617" lon="12.65143"><ele>272.0</ele><time>2026-04-25T12:14:42.533Z</time></trkpt><trkpt lat="43.67694" lon="12.6515433"><ele>273.6666666666667</ele><time>2026-04-25T12:14:43.533Z</time></trkpt><trkpt lat="43.6767667" lon="12.6516583"><ele>275.3333333333333</ele><time>2026-04-25T12:14:44.533Z</time></trkpt><trkpt lat="43.6765933" lon="12.65175"><ele>277.0</ele><time>2026-04-25T12:14:45.532Z</time></trkpt><trkpt lat="43.6764683" lon="12.6518167"><ele>277.0</ele><time>2026-04-25T12:14:46.532Z</time></trkpt><trkpt lat="43.676355" lon="12.6518483"><ele>277.0</ele><time>2026-04-25T12:14:47.532Z</time></trkpt><trkpt lat="43.6762367" lon="12.6518717"><ele>277.0</ele><time>2026-04-25T12:14:48.532Z</time></trkpt><trkpt lat="43.6760833" lon="12.6518983"><ele>277.0</ele><time>2026-04-25T12:14:49.533Z</time></trkpt><trkpt lat="43.6759533" lon="12.6519283"><ele>276.3333333333333</ele><time>2026-04-25T12:14:50.532Z</time></trkpt><trkpt lat="43.6757983" lon="12.6519483"><ele>275.6666666666667</ele><time>2026-04-25T12:14:51.532Z</time></trkpt><trkpt lat="43.67565" lon="12.6519783"><ele>275.0</ele><time>2026-04-25T12:14:52.532Z</time></trkpt><trkpt lat="43.675475" lon="12.6520083"><ele>278.0</ele><time>2026-04-25T12:14:53.531Z</time></trkpt><trkpt lat="43.6753033" lon="12.6520417"><ele>281.0</ele><time>2026-04-25T12:14:54.531Z</time></trkpt><trkpt lat="43.6751283" lon="12.6520717"><ele>284.0</ele><time>2026-04-25T12:14:55.532Z</time></trkpt><trkpt lat="43.6749683" lon="12.6521033"><ele>284.0</ele><time>2026-04-25T12:14:56.532Z</time></trkpt><trkpt lat="43.674695" lon="12.65215"><ele>284.0</ele><time>2026-04-25T12:14:58.532Z</time></trkpt><trkpt lat="43.67459" lon="12.6521833"><ele>284.0</ele><time>2026-04-25T12:14:59.532Z</time></trkpt><trkpt lat="43.674495" lon="12.6522317"><ele>284.0</ele><time>2026-04-25T12:15:00.531Z</time></trkpt><trkpt lat="43.6744317" lon="12.652315"><ele>284.0</ele><time>2026-04-25T12:15:01.532Z</time></trkpt><trkpt lat="43.6743783" lon="12.652425"><ele>284.0</ele><time>2026-04-25T12:15:02.531Z</time></trkpt><trkpt lat="43.6743483" lon="12.6525783"><ele>284.0</ele><time>2026-04-25T12:15:03.532Z</time></trkpt><trkpt lat="43.67435" lon="12.652755"><ele>284.0</ele><time>2026-04-25T12:15:04.532Z</time></trkpt><trkpt lat="43.674325" lon="12.6528917"><ele>284.0</ele><time>2026-04-25T12:15:05.531Z</time></trkpt><trkpt lat="43.67429" lon="12.6530183"><ele>284.0</ele><time>2026-04-25T12:15:06.532Z</time></trkpt><trkpt lat="43.67426" lon="12.6531217"><ele>284.0</ele><time>2026-04-25T12:15:07.531Z</time></trkpt><trkpt lat="43.67423" lon="12.6532133"><ele>284.0</ele><time>2026-04-25T12:15:08.532Z</time></trkpt><trkpt lat="43.6741833" lon="12.6532733"><ele>284.0</ele><time>2026-04-25T12:15:09.531Z</time></trkpt><trkpt lat="43.6740833" lon="12.6533533"><ele>284.0</ele><time>2026-04-25T12:15:11.531Z</time></trkpt><trkpt lat="43.6740217" lon="12.6534333"><ele>284.0</ele><time>2026-04-25T12:15:12.532Z</time></trkpt><trkpt lat="43.6739717" lon="12.6535183"><ele>284.0</ele><time>2026-04-25T12:15:13.533Z</time></trkpt><trkpt lat="43.673935" lon="12.6536117"><ele>284.0</ele><time>2026-04-25T12:15:14.531Z</time></trkpt><trkpt lat="43.6739067" lon="12.6536983"><ele>284.0</ele><time>2026-04-25T12:15:15.531Z</time></trkpt><trkpt lat="43.6738867" lon="12.65379"><ele>284.0</ele><time>2026-04-25T12:15:16.532Z</time></trkpt><trkpt lat="43.6739217" lon="12.65394"><ele>284.0</ele><time>2026-04-25T12:15:18.532Z</time></trkpt><trkpt lat="43.6741083" lon="12.6539667"><ele>286.33333333333337</ele><time>2026-04-25T12:15:20.531Z</time></trkpt><trkpt lat="43.6742367" lon="12.6539483"><ele>288.6666666666667</ele><time>2026-04-25T12:15:21.533Z</time></trkpt><trkpt lat="43.67441" lon="12.6539067"><ele>291.0</ele><time>2026-04-25T12:15:22.531Z</time></trkpt><trkpt lat="43.674555" lon="12.6538433"><ele>293.6666666666667</ele><time>2026-04-25T12:15:23.533Z</time></trkpt><trkpt lat="43.67473" lon="12.6537833"><ele>296.33333333333337</ele><time>2026-04-25T12:15:24.532Z</time></trkpt><trkpt lat="43.674905" lon="12.65373"><ele>299.0</ele><time>2026-04-25T12:15:25.531Z</time></trkpt><trkpt lat="43.675065" lon="12.6536933"><ele>299.0</ele><time>2026-04-25T12:15:26.533Z</time></trkpt><trkpt lat="43.6752" lon="12.6536667"><ele>299.0</ele><time>2026-04-25T12:15:27.532Z</time></trkpt><trkpt lat="43.6753133" lon="12.6536667"><ele>299.0</ele><time>2026-04-25T12:15:28.531Z</time></trkpt><trkpt lat="43.6754017" lon="12.6537"><ele>299.0</ele><time>2026-04-25T12:15:29.532Z</time></trkpt><trkpt lat="43.675475" lon="12.653755"><ele>299.0</ele><time>2026-04-25T12:15:30.534Z</time></trkpt><trkpt lat="43.6755383" lon="12.6538417"><ele>299.4</ele><time>2026-04-25T12:15:31.531Z</time></trkpt><trkpt lat="43.6755667" lon="12.65395"><ele>299.79999999999995</ele><time>2026-04-25T12:15:32.534Z</time></trkpt><trkpt lat="43.67557" lon="12.6540883"><ele>300.20000000000005</ele><time>2026-04-25T12:15:33.531Z</time></trkpt><trkpt lat="43.6755383" lon="12.6542617"><ele>300.6</ele><time>2026-04-25T12:15:34.531Z</time></trkpt><trkpt lat="43.6755183" lon="12.6544483"><ele>301.0</ele><time>2026-04-25T12:15:35.531Z</time></trkpt><trkpt lat="43.6755067" lon="12.65463"><ele>301.25</ele><time>2026-04-25T12:15:36.534Z</time></trkpt><trkpt lat="43.67548" lon="12.6548033"><ele>301.5</ele><time>2026-04-25T12:15:37.533Z</time></trkpt><trkpt lat="43.6754567" lon="12.65495"><ele>301.75</ele><time>2026-04-25T12:15:38.534Z</time></trkpt><trkpt lat="43.6754283" lon="12.6550733"><ele>302.0</ele><time>2026-04-25T12:15:39.536Z</time></trkpt><trkpt lat="43.6753783" lon="12.6552617"><ele>301.0</ele><time>2026-04-25T12:15:41.532Z</time></trkpt><trkpt lat="43.675415" lon="12.6553533"><ele>300.0</ele><time>2026-04-25T12:15:43.534Z</time></trkpt><trkpt lat="43.675535" lon="12.6554433"><ele>299.0</ele><time>2026-04-25T12:15:45.532Z</time></trkpt><trkpt lat="43.675635" lon="12.655515"><ele>298.0</ele><time>2026-04-25T12:15:46.532Z</time></trkpt><trkpt lat="43.6757267" lon="12.6555817"><ele>297.0</ele><time>2026-04-25T12:15:47.531Z</time></trkpt><trkpt lat="43.6758183" lon="12.655625"><ele>297.0</ele><time>2026-04-25T12:15:48.531Z</time></trkpt><trkpt lat="43.675915" lon="12.65564"><ele>297.0</ele><time>2026-04-25T12:15:49.532Z</time></trkpt><trkpt lat="43.6760067" lon="12.655635"><ele>297.0</ele><time>2026-04-25T12:15:50.532Z</time></trkpt><trkpt lat="43.67609" lon="12.655625"><ele>297.0</ele><time>2026-04-25T12:15:51.533Z</time></trkpt><trkpt lat="43.6761617" lon="12.655625"><ele>297.0</ele><time>2026-04-25T12:15:52.531Z</time></trkpt><trkpt lat="43.67623" lon="12.6556917"><ele>297.0</ele><time>2026-04-25T12:15:54.532Z</time></trkpt><trkpt lat="43.67619" lon="12.6558233"><ele>297.0</ele><time>2026-04-25T12:15:56.533Z</time></trkpt><trkpt lat="43.6761167" lon="12.6559017"><ele>297.0</ele><time>2026-04-25T12:15:57.533Z</time></trkpt><trkpt lat="43.67601" lon="12.6559883"><ele>297.0</ele><time>2026-04-25T12:15:58.532Z</time></trkpt><trkpt lat="43.6759317" lon="12.65608"><ele>297.0</ele><time>2026-04-25T12:15:59.533Z</time></trkpt><trkpt lat="43.6758683" lon="12.6561733"><ele>297.0</ele><time>2026-04-25T12:16:00.532Z</time></trkpt><trkpt lat="43.6757433" lon="12.6563667"><ele>295.1666666666667</ele><time>2026-04-25T12:16:02.533Z</time></trkpt><trkpt lat="43.6756833" lon="12.656455"><ele>293.3333333333333</ele><time>2026-04-25T12:16:03.532Z</time></trkpt><trkpt lat="43.6756333" lon="12.6565883"><ele>291.5</ele><time>2026-04-25T12:16:05.532Z</time></trkpt><trkpt lat="43.6756717" lon="12.6566783"><ele>289.66666666666663</ele><time>2026-04-25T12:16:08.532Z</time></trkpt><trkpt lat="43.6757417" lon="12.65661"><ele>287.8333333333333</ele><time>2026-04-25T12:16:10.532Z</time></trkpt><trkpt lat="43.6758083" lon="12.65653"><ele>286.0</ele><time>2026-04-25T12:16:11.533Z</time></trkpt><trkpt lat="43.6758883" lon="12.6564433"><ele>286.0</ele><time>2026-04-25T12:16:12.535Z</time></trkpt><trkpt lat="43.67598" lon="12.6563833"><ele>286.0</ele><time>2026-04-25T12:16:13.534Z</time></trkpt><trkpt lat="43.67608" lon="12.65634"><ele>286.0</ele><time>2026-04-25T12:16:14.533Z</time></trkpt><trkpt lat="43.67618" lon="12.656315"><ele>286.0</ele><time>2026-04-25T12:16:15.533Z</time></trkpt><trkpt lat="43.6762667" lon="12.6562883"><ele>286.0</ele><time>2026-04-25T12:16:16.534Z</time></trkpt><trkpt lat="43.6763383" lon="12.6562633"><ele>284.2</ele><time>2026-04-25T12:16:17.534Z</time></trkpt><trkpt lat="43.6764617" lon="12.6562483"><ele>282.40000000000003</ele><time>2026-04-25T12:16:19.533Z</time></trkpt><trkpt lat="43.6765483" lon="12.6563333"><ele>280.6</ele><time>2026-04-25T12:16:21.533Z</time></trkpt><trkpt lat="43.67663" lon="12.656485"><ele>278.8</ele><time>2026-04-25T12:16:23.534Z</time></trkpt><trkpt lat="43.67668" lon="12.6565633"><ele>277.0</ele><time>2026-04-25T12:16:24.532Z</time></trkpt><trkpt lat="43.6767217" lon="12.6566317"><ele>277.0</ele><time>2026-04-25T12:16:25.533Z</time></trkpt><trkpt lat="43.6767667" lon="12.65677"><ele>277.0</ele><time>2026-04-25T12:16:27.534Z</time></trkpt><trkpt lat="43.6767483" lon="12.6569417"><ele>277.0</ele><time>2026-04-25T12:16:29.534Z</time></trkpt><trkpt lat="43.6767533" lon="12.657045"><ele>277.0</ele><time>2026-04-25T12:16:30.533Z</time></trkpt><trkpt lat="43.67677" lon="12.657155"><ele>277.0</ele><time>2026-04-25T12:16:31.535Z</time></trkpt><trkpt lat="43.6768083" lon="12.6572733"><ele>274.6</ele><time>2026-04-25T12:16:32.531Z</time></trkpt><trkpt lat="43.6768683" lon="12.6573967"><ele>272.2</ele><time>2026-04-25T12:16:33.534Z</time></trkpt><trkpt lat="43.6769333" lon="12.657525"><ele>269.8</ele><time>2026-04-25T12:16:34.535Z</time></trkpt><trkpt lat="43.6769967" lon="12.6576467"><ele>267.4</ele><time>2026-04-25T12:16:35.534Z</time></trkpt><trkpt lat="43.6770633" lon="12.65777"><ele>265.0</ele><time>2026-04-25T12:16:36.532Z</time></trkpt><trkpt lat="43.6771317" lon="12.657875"><ele>261.8</ele><time>2026-04-25T12:16:37.534Z</time></trkpt><trkpt lat="43.6772017" lon="12.6579683"><ele>258.6</ele><time>2026-04-25T12:16:38.535Z</time></trkpt><trkpt lat="43.6772867" lon="12.6580367"><ele>255.39999999999998</ele><time>2026-04-25T12:16:39.534Z</time></trkpt><trkpt lat="43.6773817" lon="12.65808"><ele>252.2</ele><time>2026-04-25T12:16:40.534Z</time></trkpt><trkpt lat="43.6774867" lon="12.6581067"><ele>249.0</ele><time>2026-04-25T12:16:41.534Z</time></trkpt><trkpt lat="43.6775933" lon="12.6581267"><ele>248.0</ele><time>2026-04-25T12:16:42.535Z</time></trkpt><trkpt lat="43.67782" lon="12.6581333"><ele>247.0</ele><time>2026-04-25T12:16:44.535Z</time></trkpt><trkpt lat="43.6779467" lon="12.6581317"><ele>246.0</ele><time>2026-04-25T12:16:45.531Z</time></trkpt><trkpt lat="43.6780733" lon="12.6581367"><ele>246.0</ele><time>2026-04-25T12:16:46.533Z</time></trkpt><trkpt lat="43.678195" lon="12.658145"><ele>246.00000000000003</ele><time>2026-04-25T12:16:47.532Z</time></trkpt><trkpt lat="43.678305" lon="12.65815"><ele>246.00000000000003</ele><time>2026-04-25T12:16:48.534Z</time></trkpt><trkpt lat="43.678415" lon="12.6581583"><ele>246.0</ele><time>2026-04-25T12:16:49.536Z</time></trkpt><trkpt lat="43.67852" lon="12.658165"><ele>246.0</ele><time>2026-04-25T12:16:50.533Z</time></trkpt><trkpt lat="43.678615" lon="12.6581633"><ele>246.0</ele><time>2026-04-25T12:16:51.533Z</time></trkpt><trkpt lat="43.6786983" lon="12.658135"><ele>246.00000000000003</ele><time>2026-04-25T12:16:52.533Z</time></trkpt><trkpt lat="43.6787783" lon="12.6580617"><ele>246.00000000000003</ele><time>2026-04-25T12:16:53.532Z</time></trkpt><trkpt lat="43.6788433" lon="12.6579417"><ele>246.0</ele><time>2026-04-25T12:16:54.534Z</time></trkpt><trkpt lat="43.6789" lon="12.657795"><ele>246.0</ele><time>2026-04-25T12:16:55.532Z</time></trkpt><trkpt lat="43.678945" lon="12.6576467"><ele>246.0</ele><time>2026-04-25T12:16:56.533Z</time></trkpt><trkpt lat="43.6790017" lon="12.6575267"><ele>246.00000000000003</ele><time>2026-04-25T12:16:57.533Z</time></trkpt><trkpt lat="43.6790667" lon="12.657435"><ele>246.00000000000003</ele><time>2026-04-25T12:16:58.532Z</time></trkpt><trkpt lat="43.6791333" lon="12.6573567"><ele>246.0</ele><time>2026-04-25T12:16:59.532Z</time></trkpt><trkpt lat="43.6791933" lon="12.657265"><ele>246.0</ele><time>2026-04-25T12:17:00.536Z</time></trkpt><trkpt lat="43.679245" lon="12.6571567"><ele>246.0</ele><time>2026-04-25T12:17:01.535Z</time></trkpt><trkpt lat="43.679295" lon="12.6570183"><ele>246.0</ele><time>2026-04-25T12:17:02.531Z</time></trkpt><trkpt lat="43.6793317" lon="12.6568317"><ele>246.0</ele><time>2026-04-25T12:17:03.531Z</time></trkpt><trkpt lat="43.6793933" lon="12.6564183"><ele>244.66666666666669</ele><time>2026-04-25T12:17:05.532Z</time></trkpt><trkpt lat="43.6794283" lon="12.6562"><ele>243.33333333333334</ele><time>2026-04-25T12:17:06.532Z</time></trkpt><trkpt lat="43.67947" lon="12.65598"><ele>242.0</ele><time>2026-04-25T12:17:07.535Z</time></trkpt><trkpt lat="43.6795167" lon="12.6557567"><ele>240.66666666666669</ele><time>2026-04-25T12:17:08.535Z</time></trkpt><trkpt lat="43.6795633" lon="12.655535"><ele>239.33333333333331</ele><time>2026-04-25T12:17:09.533Z</time></trkpt><trkpt lat="43.679605" lon="12.655325"><ele>238.0</ele><time>2026-04-25T12:17:10.532Z</time></trkpt><trkpt lat="43.67964" lon="12.6551333"><ele>238.0</ele><time>2026-04-25T12:17:11.533Z</time></trkpt><trkpt lat="43.6796667" lon="12.654985"><ele>238.0</ele><time>2026-04-25T12:17:12.534Z</time></trkpt><trkpt lat="43.6796933" lon="12.6548683"><ele>238.0</ele><time>2026-04-25T12:17:13.533Z</time></trkpt><trkpt lat="43.6797183" lon="12.654775"><ele>238.0</ele><time>2026-04-25T12:17:14.532Z</time></trkpt><trkpt lat="43.6797883" lon="12.654655"><ele>238.0</ele><time>2026-04-25T12:17:16.532Z</time></trkpt><trkpt lat="43.679855" lon="12.6546367"><ele>238.0</ele><time>2026-04-25T12:17:17.532Z</time></trkpt><trkpt lat="43.679925" lon="12.6546017"><ele>238.0</ele><time>2026-04-25T12:17:18.533Z</time></trkpt><trkpt lat="43.680045" lon="12.65457"><ele>238.0</ele><time>2026-04-25T12:17:19.533Z</time></trkpt><trkpt lat="43.6802283" lon="12.65454"><ele>238.0</ele><time>2026-04-25T12:17:20.532Z</time></trkpt><trkpt lat="43.6804017" lon="12.6545"><ele>237.25</ele><time>2026-04-25T12:17:21.539Z</time></trkpt><trkpt lat="43.6805567" lon="12.654455"><ele>236.5</ele><time>2026-04-25T12:17:22.532Z</time></trkpt><trkpt lat="43.6807017" lon="12.654415"><ele>235.75</ele><time>2026-04-25T12:17:23.532Z</time></trkpt><trkpt lat="43.68084" lon="12.6543817"><ele>235.0</ele><time>2026-04-25T12:17:24.532Z</time></trkpt><trkpt lat="43.6811233" lon="12.6543883"><ele>238.25</ele><time>2026-04-25T12:17:26.532Z</time></trkpt><trkpt lat="43.6812433" lon="12.6544067"><ele>241.5</ele><time>2026-04-25T12:17:27.532Z</time></trkpt><trkpt lat="43.6813667" lon="12.6544067"><ele>244.75</ele><time>2026-04-25T12:17:28.533Z</time></trkpt><trkpt lat="43.6814733" lon="12.6543883"><ele>248.0</ele><time>2026-04-25T12:17:29.534Z</time></trkpt><trkpt lat="43.68157" lon="12.65436"><ele>248.0</ele><time>2026-04-25T12:17:30.537Z</time></trkpt><trkpt lat="43.6816517" lon="12.6543467"><ele>248.0</ele><time>2026-04-25T12:17:31.534Z</time></trkpt><trkpt lat="43.681725" lon="12.6543483"><ele>248.0</ele><time>2026-04-25T12:17:32.532Z</time></trkpt><trkpt lat="43.6818333" lon="12.654435"><ele>248.0</ele><time>2026-04-25T12:17:34.533Z</time></trkpt><trkpt lat="43.68187" lon="12.654545"><ele>248.0</ele><time>2026-04-25T12:17:35.534Z</time></trkpt><trkpt lat="43.6819217" lon="12.654665"><ele>245.0</ele><time>2026-04-25T12:17:36.532Z</time></trkpt><trkpt lat="43.68199" lon="12.65481"><ele>242.0</ele><time>2026-04-25T12:17:37.534Z</time></trkpt><trkpt lat="43.6820417" lon="12.655"><ele>239.0</ele><time>2026-04-25T12:17:38.533Z</time></trkpt><trkpt lat="43.6821233" lon="12.6551433"><ele>236.0</ele><time>2026-04-25T12:17:39.533Z</time></trkpt><trkpt lat="43.6822217" lon="12.655295"><ele>236.0</ele><time>2026-04-25T12:17:40.535Z</time></trkpt><trkpt lat="43.6823283" lon="12.655455"><ele>236.0</ele><time>2026-04-25T12:17:41.533Z</time></trkpt><trkpt lat="43.68245" lon="12.65562"><ele>236.0</ele><time>2026-04-25T12:17:42.533Z</time></trkpt><trkpt lat="43.6825767" lon="12.65578"><ele>236.0</ele><time>2026-04-25T12:17:43.533Z</time></trkpt><trkpt lat="43.6826967" lon="12.65594"><ele>236.0</ele><time>2026-04-25T12:17:44.533Z</time></trkpt><trkpt lat="43.68281" lon="12.6560867"><ele>236.0</ele><time>2026-04-25T12:17:45.533Z</time></trkpt><trkpt lat="43.6829917" lon="12.65636"><ele>235.4</ele><time>2026-04-25T12:17:47.533Z</time></trkpt><trkpt lat="43.6830517" lon="12.6565033"><ele>234.8</ele><time>2026-04-25T12:17:48.534Z</time></trkpt><trkpt lat="43.6830883" lon="12.6566483"><ele>234.20000000000002</ele><time>2026-04-25T12:17:49.533Z</time></trkpt><trkpt lat="43.68311" lon="12.6567817"><ele>233.60000000000002</ele><time>2026-04-25T12:17:50.533Z</time></trkpt><trkpt lat="43.6831333" lon="12.6568833"><ele>233.0</ele><time>2026-04-25T12:17:51.533Z</time></trkpt><trkpt lat="43.683175" lon="12.65696"><ele>233.0</ele><time>2026-04-25T12:17:52.534Z</time></trkpt><trkpt lat="43.6832283" lon="12.657015"><ele>233.0</ele><time>2026-04-25T12:17:53.533Z</time></trkpt><trkpt lat="43.6832967" lon="12.657045"><ele>233.0</ele><time>2026-04-25T12:17:54.535Z</time></trkpt><trkpt lat="43.6834067" lon="12.6570583"><ele>233.0</ele><time>2026-04-25T12:17:55.533Z</time></trkpt><trkpt lat="43.68351" lon="12.6571033"><ele>233.0</ele><time>2026-04-25T12:17:56.535Z</time></trkpt><trkpt lat="43.6836217" lon="12.6571767"><ele>234.25</ele><time>2026-04-25T12:17:57.534Z</time></trkpt><trkpt lat="43.6837267" lon="12.6572733"><ele>235.5</ele><time>2026-04-25T12:17:58.533Z</time></trkpt><trkpt lat="43.6838267" lon="12.65739"><ele>236.75</ele><time>2026-04-25T12:17:59.534Z</time></trkpt><trkpt lat="43.6839183" lon="12.65753"><ele>238.0</ele><time>2026-04-25T12:18:00.533Z</time></trkpt><trkpt lat="43.6839883" lon="12.6576867"><ele>238.25</ele><time>2026-04-25T12:18:01.534Z</time></trkpt><trkpt lat="43.684035" lon="12.6578433"><ele>238.5</ele><time>2026-04-25T12:18:02.534Z</time></trkpt><trkpt lat="43.6840683" lon="12.6580167"><ele>238.75</ele><time>2026-04-25T12:18:03.533Z</time></trkpt><trkpt lat="43.6841" lon="12.6582017"><ele>239.0</ele><time>2026-04-25T12:18:04.534Z</time></trkpt><trkpt lat="43.6841367" lon="12.65839"><ele>239.0</ele><time>2026-04-25T12:18:05.536Z</time></trkpt><trkpt lat="43.6841783" lon="12.658565"><ele>239.0</ele><time>2026-04-25T12:18:06.532Z</time></trkpt><trkpt lat="43.68424" lon="12.6588117"><ele>239.0</ele><time>2026-04-25T12:18:08.533Z</time></trkpt><trkpt lat="43.6842633" lon="12.65894"><ele>239.0</ele><time>2026-04-25T12:18:10.534Z</time></trkpt><trkpt lat="43.68427" lon="12.6588317"><ele>238.50000000000003</ele><time>2026-04-25T12:18:18.531Z</time></trkpt><trkpt lat="43.6843267" lon="12.6587867"><ele>238.0</ele><time>2026-04-25T12:18:21.532Z</time></trkpt><trkpt lat="43.684385" lon="12.6588383"><ele>237.5</ele><time>2026-04-25T12:18:22.531Z</time></trkpt><trkpt lat="43.68446" lon="12.6589067"><ele>237.0</ele><time>2026-04-25T12:18:23.534Z</time></trkpt><trkpt lat="43.6845367" lon="12.6589717"><ele>236.50000000000003</ele><time>2026-04-25T12:18:24.531Z</time></trkpt><trkpt lat="43.6846117" lon="12.659035"><ele>236.0</ele><time>2026-04-25T12:18:25.532Z</time></trkpt><trkpt lat="43.68468" lon="12.6590917"><ele>236.0</ele><time>2026-04-25T12:18:26.531Z</time></trkpt><trkpt lat="43.6847383" lon="12.6591383"><ele>236.0</ele><time>2026-04-25T12:18:27.531Z</time></trkpt><trkpt lat="43.684915" lon="12.6592433"><ele>236.0</ele><time>2026-04-25T12:18:30.532Z</time></trkpt><trkpt lat="43.685" lon="12.6592833"><ele>236.0</ele><time>2026-04-25T12:18:31.532Z</time></trkpt><trkpt lat="43.6850983" lon="12.6593333"><ele>236.0</ele><time>2026-04-25T12:18:32.531Z</time></trkpt><trkpt lat="43.6851967" lon="12.659385"><ele>236.00000000000003</ele><time>2026-04-25T12:18:33.534Z</time></trkpt><trkpt lat="43.6853" lon="12.6594367"><ele>236.00000000000003</ele><time>2026-04-25T12:18:34.532Z</time></trkpt><trkpt lat="43.685405" lon="12.6594817"><ele>236.0</ele><time>2026-04-25T12:18:35.532Z</time></trkpt><trkpt lat="43.68551" lon="12.6595317"><ele>236.0</ele><time>2026-04-25T12:18:36.531Z</time></trkpt><trkpt lat="43.685615" lon="12.65959"><ele>234.4</ele><time>2026-04-25T12:18:37.532Z</time></trkpt><trkpt lat="43.68571" lon="12.659665"><ele>232.8</ele><time>2026-04-25T12:18:38.531Z</time></trkpt><trkpt lat="43.6857917" lon="12.659755"><ele>231.20000000000002</ele><time>2026-04-25T12:18:39.532Z</time></trkpt><trkpt lat="43.68586" lon="12.6598533"><ele>229.60000000000002</ele><time>2026-04-25T12:18:40.531Z</time></trkpt><trkpt lat="43.6859133" lon="12.6599483"><ele>228.0</ele><time>2026-04-25T12:18:41.531Z</time></trkpt><trkpt lat="43.685955" lon="12.660035"><ele>228.0</ele><time>2026-04-25T12:18:42.532Z</time></trkpt><trkpt lat="43.6860317" lon="12.6601367"><ele>228.0</ele><time>2026-04-25T12:18:44.534Z</time></trkpt><trkpt lat="43.6861083" lon="12.6600983"><ele>228.0</ele><time>2026-04-25T12:18:46.531Z</time></trkpt><trkpt lat="43.68614" lon="12.6599233"><ele>228.0</ele><time>2026-04-25T12:18:48.531Z</time></trkpt><trkpt lat="43.6862033" lon="12.6597667"><ele>228.0</ele><time>2026-04-25T12:18:50.532Z</time></trkpt><trkpt lat="43.6863233" lon="12.6597167"><ele>225.5</ele><time>2026-04-25T12:18:52.532Z</time></trkpt><trkpt lat="43.6863867" lon="12.6597217"><ele>223.0</ele><time>2026-04-25T12:18:53.532Z</time></trkpt><trkpt lat="43.686465" lon="12.6597967"><ele>220.5</ele><time>2026-04-25T12:18:54.532Z</time></trkpt><trkpt lat="43.68656" lon="12.6599267"><ele>218.0</ele><time>2026-04-25T12:18:55.532Z</time></trkpt><trkpt lat="43.6866583" lon="12.6601"><ele>218.0</ele><time>2026-04-25T12:18:56.531Z</time></trkpt><trkpt lat="43.6867467" lon="12.6602433"><ele>218.0</ele><time>2026-04-25T12:18:57.532Z</time></trkpt><trkpt lat="43.6868317" lon="12.6603717"><ele>218.0</ele><time>2026-04-25T12:18:58.533Z</time></trkpt><trkpt lat="43.6869" lon="12.66049"><ele>218.0</ele><time>2026-04-25T12:18:59.532Z</time></trkpt><trkpt lat="43.6869583" lon="12.660595"><ele>216.50000000000003</ele><time>2026-04-25T12:19:00.532Z</time></trkpt><trkpt lat="43.68701" lon="12.6606833"><ele>215.0</ele><time>2026-04-25T12:19:01.532Z</time></trkpt><trkpt lat="43.68707" lon="12.66075"><ele>213.5</ele><time>2026-04-25T12:19:02.531Z</time></trkpt><trkpt lat="43.687125" lon="12.6608"><ele>212.0</ele><time>2026-04-25T12:19:03.531Z</time></trkpt><trkpt lat="43.6871917" lon="12.66081"><ele>210.50000000000003</ele><time>2026-04-25T12:19:04.531Z</time></trkpt><trkpt lat="43.6872717" lon="12.6607767"><ele>209.0</ele><time>2026-04-25T12:19:05.535Z</time></trkpt><trkpt lat="43.6873667" lon="12.6607167"><ele>209.0</ele><time>2026-04-25T12:19:06.534Z</time></trkpt><trkpt lat="43.6874583" lon="12.660665"><ele>209.0</ele><time>2026-04-25T12:19:07.531Z</time></trkpt><trkpt lat="43.6875633" lon="12.66065"><ele>209.0</ele><time>2026-04-25T12:19:08.534Z</time></trkpt><trkpt lat="43.6876767" lon="12.66068"><ele>209.0</ele><time>2026-04-25T12:19:09.533Z</time></trkpt><trkpt lat="43.6879383" lon="12.6607917"><ele>205.33333333333334</ele><time>2026-04-25T12:19:11.533Z</time></trkpt><trkpt lat="43.6880867" lon="12.6608467"><ele>201.66666666666669</ele><time>2026-04-25T12:19:12.534Z</time></trkpt><trkpt lat="43.6882367" lon="12.6608917"><ele>198.0</ele><time>2026-04-25T12:19:13.533Z</time></trkpt><trkpt lat="43.68839" lon="12.660925"><ele>198.0</ele><time>2026-04-25T12:19:14.534Z</time></trkpt><trkpt lat="43.6885417" lon="12.6609583"><ele>198.0</ele><time>2026-04-25T12:19:15.533Z</time></trkpt><trkpt lat="43.68868" lon="12.6609917"><ele>198.0</ele><time>2026-04-25T12:19:16.535Z</time></trkpt><trkpt lat="43.6888033" lon="12.6610367"><ele>198.0</ele><time>2026-04-25T12:19:17.534Z</time></trkpt><trkpt lat="43.68891" lon="12.6610883"><ele>197.60000000000002</ele><time>2026-04-25T12:19:18.532Z</time></trkpt><trkpt lat="43.68901" lon="12.6611433"><ele>197.20000000000002</ele><time>2026-04-25T12:19:19.534Z</time></trkpt><trkpt lat="43.6890983" lon="12.6611917"><ele>196.8</ele><time>2026-04-25T12:19:20.536Z</time></trkpt><trkpt lat="43.68918" lon="12.6612267"><ele>196.4</ele><time>2026-04-25T12:19:21.533Z</time></trkpt><trkpt lat="43.6892683" lon="12.6612383"><ele>196.0</ele><time>2026-04-25T12:19:22.534Z</time></trkpt><trkpt lat="43.6893567" lon="12.6612367"><ele>194.20000000000002</ele><time>2026-04-25T12:19:23.534Z</time></trkpt><trkpt lat="43.68944" lon="12.6612417"><ele>192.4</ele><time>2026-04-25T12:19:24.532Z</time></trkpt><trkpt lat="43.6895217" lon="12.6612683"><ele>190.6</ele><time>2026-04-25T12:19:25.533Z</time></trkpt><trkpt lat="43.689615" lon="12.6613167"><ele>188.8</ele><time>2026-04-25T12:19:26.534Z</time></trkpt><trkpt lat="43.6897183" lon="12.6613883"><ele>187.0</ele><time>2026-04-25T12:19:27.532Z</time></trkpt><trkpt lat="43.6898333" lon="12.6614817"><ele>187.0</ele><time>2026-04-25T12:19:28.534Z</time></trkpt><trkpt lat="43.68995" lon="12.6615767"><ele>187.0</ele><time>2026-04-25T12:19:29.533Z</time></trkpt><trkpt lat="43.6900633" lon="12.66167"><ele>187.0</ele><time>2026-04-25T12:19:30.532Z</time></trkpt><trkpt lat="43.69025" lon="12.6618883"><ele>183.25</ele><time>2026-04-25T12:19:32.533Z</time></trkpt><trkpt lat="43.690315" lon="12.662035"><ele>179.5</ele><time>2026-04-25T12:19:33.533Z</time></trkpt><trkpt lat="43.6903583" lon="12.6622067"><ele>175.75</ele><time>2026-04-25T12:19:34.533Z</time></trkpt><trkpt lat="43.6903833" lon="12.662405"><ele>172.0</ele><time>2026-04-25T12:19:35.534Z</time></trkpt><trkpt lat="43.6904067" lon="12.6626233"><ele>172.66666666666669</ele><time>2026-04-25T12:19:36.534Z</time></trkpt><trkpt lat="43.690445" lon="12.6628567"><ele>173.33333333333334</ele><time>2026-04-25T12:19:37.533Z</time></trkpt><trkpt lat="43.6905" lon="12.663105"><ele>174.0</ele><time>2026-04-25T12:19:38.533Z</time></trkpt><trkpt lat="43.6905617" lon="12.66336"><ele>174.0</ele><time>2026-04-25T12:19:39.534Z</time></trkpt><trkpt lat="43.6906133" lon="12.6636133"><ele>174.0</ele><time>2026-04-25T12:19:40.534Z</time></trkpt><trkpt lat="43.6906467" lon="12.6638633"><ele>174.0</ele><time>2026-04-25T12:19:41.532Z</time></trkpt><trkpt lat="43.690655" lon="12.6641083"><ele>174.5</ele><time>2026-04-25T12:19:42.533Z</time></trkpt><trkpt lat="43.6906467" lon="12.6643383"><ele>175.0</ele><time>2026-04-25T12:19:43.533Z</time></trkpt><trkpt lat="43.69063" lon="12.664545"><ele>175.5</ele><time>2026-04-25T12:19:44.534Z</time></trkpt><trkpt lat="43.69062" lon="12.6647233"><ele>176.0</ele><time>2026-04-25T12:19:45.531Z</time></trkpt><trkpt lat="43.690635" lon="12.6648967"><ele>176.0</ele><time>2026-04-25T12:19:46.533Z</time></trkpt><trkpt lat="43.6906717" lon="12.665085"><ele>176.0</ele><time>2026-04-25T12:19:47.533Z</time></trkpt><trkpt lat="43.6907267" lon="12.6652983"><ele>176.0</ele><time>2026-04-25T12:19:48.533Z</time></trkpt><trkpt lat="43.6907917" lon="12.6655367"><ele>176.0</ele><time>2026-04-25T12:19:49.536Z</time></trkpt><trkpt lat="43.6908567" lon="12.6657967"><ele>176.0</ele><time>2026-04-25T12:19:50.535Z</time></trkpt><trkpt lat="43.69092" lon="12.6660733"><ele>176.0</ele><time>2026-04-25T12:19:51.535Z</time></trkpt><trkpt lat="43.6910233" lon="12.666645"><ele>176.0</ele><time>2026-04-25T12:19:53.533Z</time></trkpt><trkpt lat="43.6910667" lon="12.6669133"><ele>176.0</ele><time>2026-04-25T12:19:54.534Z</time></trkpt><trkpt lat="43.691105" lon="12.66715"><ele>176.0</ele><time>2026-04-25T12:19:55.536Z</time></trkpt><trkpt lat="43.6911267" lon="12.6673483"><ele>176.0</ele><time>2026-04-25T12:19:56.533Z</time></trkpt><trkpt lat="43.6911217" lon="12.6675183"><ele>176.0</ele><time>2026-04-25T12:19:57.533Z</time></trkpt><trkpt lat="43.69109" lon="12.6676517"><ele>176.0</ele><time>2026-04-25T12:19:58.534Z</time></trkpt><trkpt lat="43.69102" lon="12.6677483"><ele>176.0</ele><time>2026-04-25T12:19:59.534Z</time></trkpt><trkpt lat="43.6909267" lon="12.667835"><ele>176.0</ele><time>2026-04-25T12:20:00.534Z</time></trkpt><trkpt lat="43.69082" lon="12.6679117"><ele>177.25</ele><time>2026-04-25T12:20:01.533Z</time></trkpt><trkpt lat="43.6907217" lon="12.6679967"><ele>178.5</ele><time>2026-04-25T12:20:02.534Z</time></trkpt><trkpt lat="43.690645" lon="12.6681"><ele>179.75</ele><time>2026-04-25T12:20:03.534Z</time></trkpt><trkpt lat="43.69058" lon="12.6682367"><ele>181.0</ele><time>2026-04-25T12:20:04.533Z</time></trkpt><trkpt lat="43.69052" lon="12.6684083"><ele>183.66666666666669</ele><time>2026-04-25T12:20:05.533Z</time></trkpt><trkpt lat="43.690455" lon="12.66861"><ele>186.33333333333334</ele><time>2026-04-25T12:20:06.533Z</time></trkpt><trkpt lat="43.6903917" lon="12.6688233"><ele>189.0</ele><time>2026-04-25T12:20:07.534Z</time></trkpt><trkpt lat="43.690325" lon="12.669035"><ele>191.33333333333331</ele><time>2026-04-25T12:20:08.533Z</time></trkpt><trkpt lat="43.6902533" lon="12.6692417"><ele>193.66666666666666</ele><time>2026-04-25T12:20:09.534Z</time></trkpt><trkpt lat="43.69018" lon="12.6694333"><ele>196.0</ele><time>2026-04-25T12:20:10.533Z</time></trkpt><trkpt lat="43.6901" lon="12.669605"><ele>196.0</ele><time>2026-04-25T12:20:11.533Z</time></trkpt><trkpt lat="43.6900133" lon="12.669765"><ele>196.0</ele><time>2026-04-25T12:20:12.533Z</time></trkpt><trkpt lat="43.6898367" lon="12.670035"><ele>196.0</ele><time>2026-04-25T12:20:14.533Z</time></trkpt><trkpt lat="43.6897483" lon="12.67012"><ele>195.99999999999997</ele><time>2026-04-25T12:20:15.534Z</time></trkpt><trkpt lat="43.6896733" lon="12.6702"><ele>196.0</ele><time>2026-04-25T12:20:16.533Z</time></trkpt><trkpt lat="43.6896283" lon="12.6702883"><ele>196.0</ele><time>2026-04-25T12:20:17.538Z</time></trkpt><trkpt lat="43.689595" lon="12.6703717"><ele>196.0</ele><time>2026-04-25T12:20:18.533Z</time></trkpt><trkpt lat="43.6896483" lon="12.6704783"><ele>195.99999999999997</ele><time>2026-04-25T12:20:20.533Z</time></trkpt><trkpt lat="43.689725" lon="12.6704883"><ele>196.0</ele><time>2026-04-25T12:20:21.533Z</time></trkpt><trkpt lat="43.6897983" lon="12.6705067"><ele>196.75</ele><time>2026-04-25T12:20:22.533Z</time></trkpt><trkpt lat="43.689905" lon="12.6704817"><ele>197.5</ele><time>2026-04-25T12:20:23.534Z</time></trkpt><trkpt lat="43.69004" lon="12.670485"><ele>198.25</ele><time>2026-04-25T12:20:24.535Z</time></trkpt><trkpt lat="43.6901383" lon="12.67051"><ele>199.0</ele><time>2026-04-25T12:20:25.533Z</time></trkpt><trkpt lat="43.69025" lon="12.6705533"><ele>198.75</ele><time>2026-04-25T12:20:26.533Z</time></trkpt><trkpt lat="43.6903717" lon="12.6706483"><ele>198.5</ele><time>2026-04-25T12:20:27.534Z</time></trkpt><trkpt lat="43.6904933" lon="12.6707767"><ele>198.25</ele><time>2026-04-25T12:20:28.533Z</time></trkpt><trkpt lat="43.6905967" lon="12.6709217"><ele>198.0</ele><time>2026-04-25T12:20:29.533Z</time></trkpt><trkpt lat="43.690685" lon="12.6710917"><ele>199.66666666666669</ele><time>2026-04-25T12:20:30.534Z</time></trkpt><trkpt lat="43.6907567" lon="12.6712783"><ele>201.33333333333334</ele><time>2026-04-25T12:20:31.534Z</time></trkpt><trkpt lat="43.69082" lon="12.671475"><ele>203.0</ele><time>2026-04-25T12:20:32.534Z</time></trkpt><trkpt lat="43.690875" lon="12.6716767"><ele>205.0</ele><time>2026-04-25T12:20:33.534Z</time></trkpt><trkpt lat="43.690955" lon="12.672065"><ele>207.0</ele><time>2026-04-25T12:20:35.533Z</time></trkpt><trkpt lat="43.6909717" lon="12.6722533"><ele>209.0</ele><time>2026-04-25T12:20:36.533Z</time></trkpt><trkpt lat="43.6909667" lon="12.67244"><ele>209.0</ele><time>2026-04-25T12:20:37.534Z</time></trkpt><trkpt lat="43.69095" lon="12.67263"><ele>209.0</ele><time>2026-04-25T12:20:38.533Z</time></trkpt><trkpt lat="43.690925" lon="12.6728133"><ele>209.0</ele><time>2026-04-25T12:20:39.534Z</time></trkpt><trkpt lat="43.6909133" lon="12.6729867"><ele>209.0</ele><time>2026-04-25T12:20:40.533Z</time></trkpt><trkpt lat="43.6909133" lon="12.67316"><ele>210.25</ele><time>2026-04-25T12:20:41.534Z</time></trkpt><trkpt lat="43.6909083" lon="12.673335"><ele>211.5</ele><time>2026-04-25T12:20:42.533Z</time></trkpt><trkpt lat="43.6908983" lon="12.6735133"><ele>212.75</ele><time>2026-04-25T12:20:43.534Z</time></trkpt><trkpt lat="43.6908833" lon="12.6736933"><ele>214.0</ele><time>2026-04-25T12:20:44.533Z</time></trkpt><trkpt lat="43.6908767" lon="12.673865"><ele>214.49999999999997</ele><time>2026-04-25T12:20:45.533Z</time></trkpt><trkpt lat="43.69087" lon="12.6740217"><ele>215.0</ele><time>2026-04-25T12:20:46.533Z</time></trkpt><trkpt lat="43.6908733" lon="12.674155"><ele>215.5</ele><time>2026-04-25T12:20:47.534Z</time></trkpt><trkpt lat="43.6908767" lon="12.6742667"><ele>216.0</ele><time>2026-04-25T12:20:48.533Z</time></trkpt><trkpt lat="43.690885" lon="12.674365"><ele>216.49999999999997</ele><time>2026-04-25T12:20:49.535Z</time></trkpt><trkpt lat="43.6909033" lon="12.674465"><ele>217.0</ele><time>2026-04-25T12:20:50.533Z</time></trkpt><trkpt lat="43.6909533" lon="12.67457"><ele>219.0</ele><time>2026-04-25T12:20:51.533Z</time></trkpt><trkpt lat="43.6910133" lon="12.6746983"><ele>221.0</ele><time>2026-04-25T12:20:52.534Z</time></trkpt><trkpt lat="43.6911017" lon="12.6748333"><ele>223.0</ele><time>2026-04-25T12:20:53.534Z</time></trkpt><trkpt lat="43.6911767" lon="12.6749617"><ele>225.0</ele><time>2026-04-25T12:20:54.539Z</time></trkpt><trkpt lat="43.6913433" lon="12.6751583"><ele>222.0</ele><time>2026-04-25T12:20:56.533Z</time></trkpt><trkpt lat="43.6914417" lon="12.675205"><ele>219.0</ele><time>2026-04-25T12:20:57.534Z</time></trkpt><trkpt lat="43.6915417" lon="12.6752517"><ele>216.0</ele><time>2026-04-25T12:20:58.534Z</time></trkpt><trkpt lat="43.6916383" lon="12.6753017"><ele>213.0</ele><time>2026-04-25T12:20:59.535Z</time></trkpt><trkpt lat="43.69173" lon="12.67534"><ele>210.0</ele><time>2026-04-25T12:21:00.536Z</time></trkpt><trkpt lat="43.691825" lon="12.6753567"><ele>210.0</ele><time>2026-04-25T12:21:01.534Z</time></trkpt><trkpt lat="43.6919233" lon="12.6753517"><ele>210.0</ele><time>2026-04-25T12:21:02.534Z</time></trkpt><trkpt lat="43.6920233" lon="12.6753383"><ele>210.0</ele><time>2026-04-25T12:21:03.534Z</time></trkpt><trkpt lat="43.6921233" lon="12.6753033"><ele>210.0</ele><time>2026-04-25T12:21:04.533Z</time></trkpt><trkpt lat="43.6922283" lon="12.6752633"><ele>210.0</ele><time>2026-04-25T12:21:05.532Z</time></trkpt><trkpt lat="43.6923333" lon="12.675215"><ele>205.2</ele><time>2026-04-25T12:21:06.536Z</time></trkpt><trkpt lat="43.692435" lon="12.675155"><ele>200.4</ele><time>2026-04-25T12:21:07.532Z</time></trkpt><trkpt lat="43.6925333" lon="12.6750933"><ele>195.60000000000002</ele><time>2026-04-25T12:21:08.532Z</time></trkpt><trkpt lat="43.69263" lon="12.67503"><ele>190.8</ele><time>2026-04-25T12:21:09.533Z</time></trkpt><trkpt lat="43.6927217" lon="12.6749917"><ele>186.0</ele><time>2026-04-25T12:21:10.533Z</time></trkpt><trkpt lat="43.6928167" lon="12.6749683"><ele>186.20000000000002</ele><time>2026-04-25T12:21:11.533Z</time></trkpt><trkpt lat="43.692915" lon="12.674975"><ele>186.4</ele><time>2026-04-25T12:21:12.533Z</time></trkpt><trkpt lat="43.693015" lon="12.675005"><ele>186.6</ele><time>2026-04-25T12:21:13.535Z</time></trkpt><trkpt lat="43.69312" lon="12.6750617"><ele>186.8</ele><time>2026-04-25T12:21:14.534Z</time></trkpt><trkpt lat="43.6932183" lon="12.675145"><ele>187.0</ele><time>2026-04-25T12:21:15.533Z</time></trkpt><trkpt lat="43.6934283" lon="12.6752967"><ele>187.0</ele><time>2026-04-25T12:21:17.534Z</time></trkpt><trkpt lat="43.6935333" lon="12.67534"><ele>187.0</ele><time>2026-04-25T12:21:18.535Z</time></trkpt><trkpt lat="43.6936383" lon="12.6753683"><ele>187.0</ele><time>2026-04-25T12:21:19.535Z</time></trkpt><trkpt lat="43.6937333" lon="12.6754033"><ele>187.0</ele><time>2026-04-25T12:21:20.534Z</time></trkpt><trkpt lat="43.6938233" lon="12.675465"><ele>187.0</ele><time>2026-04-25T12:21:21.533Z</time></trkpt><trkpt lat="43.693905" lon="12.67555"><ele>185.8</ele><time>2026-04-25T12:21:22.535Z</time></trkpt><trkpt lat="43.69399" lon="12.6756317"><ele>184.6</ele><time>2026-04-25T12:21:23.534Z</time></trkpt><trkpt lat="43.6940733" lon="12.6756983"><ele>183.4</ele><time>2026-04-25T12:21:24.535Z</time></trkpt><trkpt lat="43.69416" lon="12.675745"><ele>182.20000000000002</ele><time>2026-04-25T12:21:25.532Z</time></trkpt><trkpt lat="43.6942667" lon="12.6757767"><ele>181.0</ele><time>2026-04-25T12:21:26.532Z</time></trkpt><trkpt lat="43.6943783" lon="12.675795"><ele>179.25</ele><time>2026-04-25T12:21:27.531Z</time></trkpt><trkpt lat="43.6945" lon="12.6758067"><ele>177.5</ele><time>2026-04-25T12:21:28.532Z</time></trkpt><trkpt lat="43.69463" lon="12.6758283"><ele>175.75</ele><time>2026-04-25T12:21:29.534Z</time></trkpt><trkpt lat="43.69477" lon="12.6758717"><ele>174.0</ele><time>2026-04-25T12:21:30.531Z</time></trkpt><trkpt lat="43.6949" lon="12.6759333"><ele>174.0</ele><time>2026-04-25T12:21:31.532Z</time></trkpt><trkpt lat="43.6950317" lon="12.676005"><ele>174.0</ele><time>2026-04-25T12:21:32.531Z</time></trkpt><trkpt lat="43.6951367" lon="12.6760683"><ele>174.0</ele><time>2026-04-25T12:21:33.534Z</time></trkpt><trkpt lat="43.6952217" lon="12.6761367"><ele>174.0</ele><time>2026-04-25T12:21:34.535Z</time></trkpt><trkpt lat="43.695295" lon="12.6762283"><ele>173.66666666666666</ele><time>2026-04-25T12:21:35.531Z</time></trkpt><trkpt lat="43.6953667" lon="12.6763467"><ele>173.33333333333331</ele><time>2026-04-25T12:21:36.531Z</time></trkpt><trkpt lat="43.6955233" lon="12.6765767"><ele>173.0</ele><time>2026-04-25T12:21:38.535Z</time></trkpt><trkpt lat="43.6956167" lon="12.67667"><ele>173.0</ele><time>2026-04-25T12:21:39.537Z</time></trkpt><trkpt lat="43.69571" lon="12.6767517"><ele>173.0</ele><time>2026-04-25T12:21:40.531Z</time></trkpt><trkpt lat="43.6958033" lon="12.6768183"><ele>173.0</ele><time>2026-04-25T12:21:41.534Z</time></trkpt><trkpt lat="43.695885" lon="12.6768617"><ele>173.0</ele><time>2026-04-25T12:21:42.531Z</time></trkpt><trkpt lat="43.6959567" lon="12.6768833"><ele>173.0</ele><time>2026-04-25T12:21:43.534Z</time></trkpt><trkpt lat="43.6960683" lon="12.6768483"><ele>170.8</ele><time>2026-04-25T12:21:45.532Z</time></trkpt><trkpt lat="43.6961283" lon="12.6767167"><ele>168.60000000000002</ele><time>2026-04-25T12:21:47.532Z</time></trkpt><trkpt lat="43.6961433" lon="12.6766317"><ele>166.39999999999998</ele><time>2026-04-25T12:21:48.532Z</time></trkpt><trkpt lat="43.696195" lon="12.67651"><ele>164.2</ele><time>2026-04-25T12:21:50.534Z</time></trkpt><trkpt lat="43.69627" lon="12.676485"><ele>162.0</ele><time>2026-04-25T12:21:52.531Z</time></trkpt><trkpt lat="43.6963467" lon="12.676575"><ele>162.0</ele><time>2026-04-25T12:21:54.531Z</time></trkpt><trkpt lat="43.6963733" lon="12.6766683"><ele>162.0</ele><time>2026-04-25T12:21:55.531Z</time></trkpt><trkpt lat="43.6964067" lon="12.6767467"><ele>162.0</ele><time>2026-04-25T12:21:56.531Z</time></trkpt><trkpt lat="43.6964967" lon="12.67685"><ele>162.0</ele><time>2026-04-25T12:21:58.535Z</time></trkpt><trkpt lat="43.69665" lon="12.6768267"><ele>162.0</ele><time>2026-04-25T12:22:00.535Z</time></trkpt><trkpt lat="43.69674" lon="12.67678"><ele>162.0</ele><time>2026-04-25T12:22:01.531Z</time></trkpt><trkpt lat="43.69682" lon="12.6767333"><ele>162.0</ele><time>2026-04-25T12:22:02.536Z</time></trkpt><trkpt lat="43.696895" lon="12.6766967"><ele>162.0</ele><time>2026-04-25T12:22:03.533Z</time></trkpt><trkpt lat="43.6969583" lon="12.6766833"><ele>162.0</ele><time>2026-04-25T12:22:04.535Z</time></trkpt><trkpt lat="43.6970283" lon="12.6766967"><ele>162.0</ele><time>2026-04-25T12:22:05.532Z</time></trkpt><trkpt lat="43.6970933" lon="12.6767383"><ele>162.0</ele><time>2026-04-25T12:22:06.531Z</time></trkpt><trkpt lat="43.6971583" lon="12.676825"><ele>162.6</ele><time>2026-04-25T12:22:07.532Z</time></trkpt><trkpt lat="43.6972217" lon="12.6769633"><ele>163.2</ele><time>2026-04-25T12:22:08.534Z</time></trkpt><trkpt lat="43.6972817" lon="12.6770733"><ele>163.8</ele><time>2026-04-25T12:22:09.53Z</time></trkpt><trkpt lat="43.697335" lon="12.67717"><ele>164.4</ele><time>2026-04-25T12:22:10.531Z</time></trkpt><trkpt lat="43.6973817" lon="12.6772483"><ele>165.0</ele><time>2026-04-25T12:22:11.534Z</time></trkpt><trkpt lat="43.69743" lon="12.6773283"><ele>165.0</ele><time>2026-04-25T12:22:12.532Z</time></trkpt><trkpt lat="43.6974867" lon="12.6774183"><ele>165.0</ele><time>2026-04-25T12:22:13.535Z</time></trkpt><trkpt lat="43.6975633" lon="12.67752"><ele>165.0</ele><time>2026-04-25T12:22:14.531Z</time></trkpt><trkpt lat="43.697675" lon="12.67763"><ele>165.0</ele><time>2026-04-25T12:22:15.534Z</time></trkpt><trkpt lat="43.697815" lon="12.6777283"><ele>163.66666666666666</ele><time>2026-04-25T12:22:16.531Z</time></trkpt><trkpt lat="43.6979733" lon="12.6778067"><ele>162.33333333333331</ele><time>2026-04-25T12:22:17.533Z</time></trkpt><trkpt lat="43.6981467" lon="12.677885"><ele>161.0</ele><time>2026-04-25T12:22:18.536Z</time></trkpt><trkpt lat="43.69833" lon="12.677965"><ele>166.5</ele><time>2026-04-25T12:22:19.534Z</time></trkpt><trkpt lat="43.6986867" lon="12.6781133"><ele>172.0</ele><time>2026-04-25T12:22:21.532Z</time></trkpt><trkpt lat="43.698865" lon="12.6781917"><ele>172.0</ele><time>2026-04-25T12:22:22.533Z</time></trkpt><trkpt lat="43.69904" lon="12.67827"><ele>172.0</ele><time>2026-04-25T12:22:23.533Z</time></trkpt><trkpt lat="43.699205" lon="12.6783517"><ele>172.0</ele><time>2026-04-25T12:22:24.532Z</time></trkpt><trkpt lat="43.6993667" lon="12.6784433"><ele>170.66666666666669</ele><time>2026-04-25T12:22:25.535Z</time></trkpt><trkpt lat="43.6995283" lon="12.6785583"><ele>169.33333333333334</ele><time>2026-04-25T12:22:26.532Z</time></trkpt><trkpt lat="43.69969" lon="12.678695"><ele>168.0</ele><time>2026-04-25T12:22:27.533Z</time></trkpt><trkpt lat="43.6998483" lon="12.6788467"><ele>168.0</ele><time>2026-04-25T12:22:28.533Z</time></trkpt><trkpt lat="43.6999833" lon="12.6790083"><ele>168.0</ele><time>2026-04-25T12:22:29.533Z</time></trkpt><trkpt lat="43.7001033" lon="12.679195"><ele>168.0</ele><time>2026-04-25T12:22:30.537Z</time></trkpt><trkpt lat="43.7002033" lon="12.6793967"><ele>167.0</ele><time>2026-04-25T12:22:31.533Z</time></trkpt><trkpt lat="43.70029" lon="12.6796117"><ele>166.0</ele><time>2026-04-25T12:22:32.534Z</time></trkpt><trkpt lat="43.700395" lon="12.67981"><ele>165.0</ele><time>2026-04-25T12:22:33.532Z</time></trkpt><trkpt lat="43.7005183" lon="12.6799833"><ele>165.0</ele><time>2026-04-25T12:22:34.532Z</time></trkpt><trkpt lat="43.7006567" lon="12.6801283"><ele>165.0</ele><time>2026-04-25T12:22:35.533Z</time></trkpt><trkpt lat="43.70081" lon="12.6802367"><ele>165.0</ele><time>2026-04-25T12:22:36.532Z</time></trkpt><trkpt lat="43.7009567" lon="12.6803183"><ele>166.5</ele><time>2026-04-25T12:22:37.532Z</time></trkpt><trkpt lat="43.7010933" lon="12.6803917"><ele>168.0</ele><time>2026-04-25T12:22:38.532Z</time></trkpt><trkpt lat="43.7012067" lon="12.6804917"><ele>169.5</ele><time>2026-04-25T12:22:39.532Z</time></trkpt><trkpt lat="43.701295" lon="12.6806283"><ele>171.0</ele><time>2026-04-25T12:22:40.533Z</time></trkpt><trkpt lat="43.7013833" lon="12.6810317"><ele>170.0</ele><time>2026-04-25T12:22:42.533Z</time></trkpt><trkpt lat="43.7014233" lon="12.6812817"><ele>169.0</ele><time>2026-04-25T12:22:43.533Z</time></trkpt><trkpt lat="43.7014683" lon="12.6815433"><ele>168.0</ele><time>2026-04-25T12:22:44.532Z</time></trkpt><trkpt lat="43.701515" lon="12.6818083"><ele>167.0</ele><time>2026-04-25T12:22:45.534Z</time></trkpt><trkpt lat="43.701565" lon="12.6820717"><ele>166.0</ele><time>2026-04-25T12:22:46.533Z</time></trkpt><trkpt lat="43.70161" lon="12.682335"><ele>165.0</ele><time>2026-04-25T12:22:47.533Z</time></trkpt><trkpt lat="43.7016633" lon="12.6825883"><ele>165.0</ele><time>2026-04-25T12:22:48.534Z</time></trkpt><trkpt lat="43.7017117" lon="12.6828267"><ele>165.0</ele><time>2026-04-25T12:22:49.535Z</time></trkpt><trkpt lat="43.7017417" lon="12.6830533"><ele>165.0</ele><time>2026-04-25T12:22:50.532Z</time></trkpt><trkpt lat="43.7017467" lon="12.68328"><ele>165.0</ele><time>2026-04-25T12:22:51.533Z</time></trkpt><trkpt lat="43.7016983" lon="12.6834933"><ele>165.0</ele><time>2026-04-25T12:22:52.532Z</time></trkpt><trkpt lat="43.7016033" lon="12.6837083"><ele>165.0</ele><time>2026-04-25T12:22:53.532Z</time></trkpt><trkpt lat="43.7015067" lon="12.6839183"><ele>166.33333333333334</ele><time>2026-04-25T12:22:54.533Z</time></trkpt><trkpt lat="43.701415" lon="12.6841183"><ele>167.66666666666669</ele><time>2026-04-25T12:22:55.533Z</time></trkpt><trkpt lat="43.70133" lon="12.6843133"><ele>169.0</ele><time>2026-04-25T12:22:56.533Z</time></trkpt><trkpt lat="43.7012517" lon="12.6845033"><ele>170.0</ele><time>2026-04-25T12:22:57.533Z</time></trkpt><trkpt lat="43.7011817" lon="12.6846833"><ele>171.0</ele><time>2026-04-25T12:22:58.532Z</time></trkpt><trkpt lat="43.70112" lon="12.68485"><ele>172.0</ele><time>2026-04-25T12:22:59.532Z</time></trkpt><trkpt lat="43.7010483" lon="12.685"><ele>173.0</ele><time>2026-04-25T12:23:00.533Z</time></trkpt><trkpt lat="43.7009617" lon="12.6851317"><ele>177.33333333333331</ele><time>2026-04-25T12:23:01.534Z</time></trkpt><trkpt lat="43.700735" lon="12.68532"><ele>181.66666666666666</ele><time>2026-04-25T12:23:03.533Z</time></trkpt><trkpt lat="43.7005983" lon="12.68536"><ele>186.0</ele><time>2026-04-25T12:23:04.533Z</time></trkpt><trkpt lat="43.7004633" lon="12.6853633"><ele>186.0</ele><time>2026-04-25T12:23:05.535Z</time></trkpt><trkpt lat="43.7003417" lon="12.6853517"><ele>186.0</ele><time>2026-04-25T12:23:06.536Z</time></trkpt><trkpt lat="43.7002283" lon="12.6853183"><ele>186.0</ele><time>2026-04-25T12:23:07.532Z</time></trkpt><trkpt lat="43.7001233" lon="12.6852867"><ele>186.0</ele><time>2026-04-25T12:23:08.532Z</time></trkpt><trkpt lat="43.70003" lon="12.6852583"><ele>186.0</ele><time>2026-04-25T12:23:09.534Z</time></trkpt><trkpt lat="43.6999367" lon="12.6852517"><ele>185.20000000000002</ele><time>2026-04-25T12:23:10.532Z</time></trkpt><trkpt lat="43.6998467" lon="12.6852817"><ele>184.4</ele><time>2026-04-25T12:23:11.532Z</time></trkpt><trkpt lat="43.69976" lon="12.6853517"><ele>183.6</ele><time>2026-04-25T12:23:12.536Z</time></trkpt><trkpt lat="43.6996867" lon="12.685455"><ele>182.8</ele><time>2026-04-25T12:23:13.533Z</time></trkpt><trkpt lat="43.6996317" lon="12.6855817"><ele>182.0</ele><time>2026-04-25T12:23:14.532Z</time></trkpt><trkpt lat="43.6995817" lon="12.6857283"><ele>182.0</ele><time>2026-04-25T12:23:15.533Z</time></trkpt><trkpt lat="43.6995317" lon="12.685885"><ele>182.0</ele><time>2026-04-25T12:23:16.533Z</time></trkpt><trkpt lat="43.6994783" lon="12.686045"><ele>182.0</ele><time>2026-04-25T12:23:17.534Z</time></trkpt><trkpt lat="43.6994267" lon="12.6862017"><ele>182.0</ele><time>2026-04-25T12:23:18.532Z</time></trkpt><trkpt lat="43.6993733" lon="12.6863533"><ele>181.0</ele><time>2026-04-25T12:23:19.534Z</time></trkpt><trkpt lat="43.6993117" lon="12.6865"><ele>180.0</ele><time>2026-04-25T12:23:20.532Z</time></trkpt><trkpt lat="43.69925" lon="12.686645"><ele>179.0</ele><time>2026-04-25T12:23:21.534Z</time></trkpt><trkpt lat="43.699185" lon="12.6867917"><ele>178.0</ele><time>2026-04-25T12:23:22.534Z</time></trkpt><trkpt lat="43.6990633" lon="12.6871283"><ele>178.0</ele><time>2026-04-25T12:23:24.534Z</time></trkpt><trkpt lat="43.6990033" lon="12.6873133"><ele>178.0</ele><time>2026-04-25T12:23:25.534Z</time></trkpt><trkpt lat="43.6989533" lon="12.6874967"><ele>178.0</ele><time>2026-04-25T12:23:26.533Z</time></trkpt><trkpt lat="43.6989017" lon="12.68767"><ele>178.0</ele><time>2026-04-25T12:23:27.533Z</time></trkpt><trkpt lat="43.698845" lon="12.6878367"><ele>177.25</ele><time>2026-04-25T12:23:28.533Z</time></trkpt><trkpt lat="43.698775" lon="12.687985"><ele>176.5</ele><time>2026-04-25T12:23:29.533Z</time></trkpt><trkpt lat="43.69869" lon="12.6880983"><ele>175.75</ele><time>2026-04-25T12:23:30.534Z</time></trkpt><trkpt lat="43.69858" lon="12.6881567"><ele>175.0</ele><time>2026-04-25T12:23:31.534Z</time></trkpt><trkpt lat="43.698455" lon="12.6881633"><ele>173.75</ele><time>2026-04-25T12:23:32.533Z</time></trkpt><trkpt lat="43.69832" lon="12.6881467"><ele>172.5</ele><time>2026-04-25T12:23:33.533Z</time></trkpt><trkpt lat="43.69817" lon="12.6881183"><ele>171.25</ele><time>2026-04-25T12:23:34.534Z</time></trkpt><trkpt lat="43.6980217" lon="12.6880967"><ele>170.0</ele><time>2026-04-25T12:23:35.535Z</time></trkpt><trkpt lat="43.6978833" lon="12.6880733"><ele>168.75</ele><time>2026-04-25T12:23:36.534Z</time></trkpt><trkpt lat="43.6977483" lon="12.6880683"><ele>167.5</ele><time>2026-04-25T12:23:37.533Z</time></trkpt><trkpt lat="43.6976183" lon="12.6881"><ele>166.25</ele><time>2026-04-25T12:23:38.533Z</time></trkpt><trkpt lat="43.6974917" lon="12.6881717"><ele>165.0</ele><time>2026-04-25T12:23:39.533Z</time></trkpt><trkpt lat="43.6973867" lon="12.6882833"><ele>165.0</ele><time>2026-04-25T12:23:40.534Z</time></trkpt><trkpt lat="43.6973067" lon="12.6884267"><ele>165.0</ele><time>2026-04-25T12:23:41.532Z</time></trkpt><trkpt lat="43.697255" lon="12.6885967"><ele>165.0</ele><time>2026-04-25T12:23:42.534Z</time></trkpt><trkpt lat="43.6972367" lon="12.688785"><ele>165.0</ele><time>2026-04-25T12:23:43.534Z</time></trkpt><trkpt lat="43.697335" lon="12.68918"><ele>164.33333333333334</ele><time>2026-04-25T12:23:45.533Z</time></trkpt><trkpt lat="43.697415" lon="12.68939"><ele>163.66666666666669</ele><time>2026-04-25T12:23:46.535Z</time></trkpt><trkpt lat="43.697485" lon="12.6896183"><ele>163.0</ele><time>2026-04-25T12:23:47.532Z</time></trkpt><trkpt lat="43.69753" lon="12.6898667"><ele>162.66666666666669</ele><time>2026-04-25T12:23:48.533Z</time></trkpt><trkpt lat="43.69755" lon="12.690125"><ele>162.33333333333334</ele><time>2026-04-25T12:23:49.533Z</time></trkpt><trkpt lat="43.6975517" lon="12.6903917"><ele>162.0</ele><time>2026-04-25T12:23:50.532Z</time></trkpt><trkpt lat="43.69754" lon="12.6906633"><ele>162.66666666666666</ele><time>2026-04-25T12:23:51.533Z</time></trkpt><trkpt lat="43.69752" lon="12.69094"><ele>163.33333333333331</ele><time>2026-04-25T12:23:52.534Z</time></trkpt><trkpt lat="43.6974883" lon="12.6912183"><ele>164.0</ele><time>2026-04-25T12:23:53.533Z</time></trkpt><trkpt lat="43.6974383" lon="12.6914917"><ele>164.0</ele><time>2026-04-25T12:23:54.534Z</time></trkpt><trkpt lat="43.69736" lon="12.6917617"><ele>164.0</ele><time>2026-04-25T12:23:55.539Z</time></trkpt><trkpt lat="43.69726" lon="12.692025"><ele>164.0</ele><time>2026-04-25T12:23:56.533Z</time></trkpt><trkpt lat="43.6971533" lon="12.6922817"><ele>164.0</ele><time>2026-04-25T12:23:57.533Z</time></trkpt><trkpt lat="43.69705" lon="12.6925367"><ele>164.0</ele><time>2026-04-25T12:23:58.534Z</time></trkpt><trkpt lat="43.6969333" lon="12.6927883"><ele>164.0</ele><time>2026-04-25T12:23:59.532Z</time></trkpt><trkpt lat="43.6968117" lon="12.6930367"><ele>163.66666666666666</ele><time>2026-04-25T12:24:00.532Z</time></trkpt><trkpt lat="43.6966833" lon="12.6932767"><ele>163.33333333333334</ele><time>2026-04-25T12:24:01.534Z</time></trkpt><trkpt lat="43.6965483" lon="12.6935167"><ele>163.0</ele><time>2026-04-25T12:24:02.533Z</time></trkpt><trkpt lat="43.6964133" lon="12.6937617"><ele>163.0</ele><time>2026-04-25T12:24:03.533Z</time></trkpt><trkpt lat="43.6962767" lon="12.6940117"><ele>163.0</ele><time>2026-04-25T12:24:04.534Z</time></trkpt><trkpt lat="43.6959967" lon="12.6945117"><ele>163.0</ele><time>2026-04-25T12:24:06.533Z</time></trkpt><trkpt lat="43.6958633" lon="12.694755"><ele>163.0</ele><time>2026-04-25T12:24:07.533Z</time></trkpt><trkpt lat="43.69573" lon="12.6949933"><ele>163.0</ele><time>2026-04-25T12:24:08.533Z</time></trkpt><trkpt lat="43.6956" lon="12.695225"><ele>163.0</ele><time>2026-04-25T12:24:09.532Z</time></trkpt><trkpt lat="43.69547" lon="12.695455"><ele>163.0</ele><time>2026-04-25T12:24:10.532Z</time></trkpt><trkpt lat="43.6953333" lon="12.6956733"><ele>163.0</ele><time>2026-04-25T12:24:11.533Z</time></trkpt><trkpt lat="43.69519" lon="12.695875"><ele>163.0</ele><time>2026-04-25T12:24:12.532Z</time></trkpt><trkpt lat="43.695035" lon="12.69606"><ele>163.0</ele><time>2026-04-25T12:24:13.532Z</time></trkpt><trkpt lat="43.69487" lon="12.6962283"><ele>163.0</ele><time>2026-04-25T12:24:14.532Z</time></trkpt><trkpt lat="43.6946967" lon="12.6963867"><ele>163.66666666666669</ele><time>2026-04-25T12:24:15.532Z</time></trkpt><trkpt lat="43.6945233" lon="12.69654"><ele>164.33333333333334</ele><time>2026-04-25T12:24:16.532Z</time></trkpt><trkpt lat="43.69435" lon="12.696695"><ele>165.0</ele><time>2026-04-25T12:24:17.533Z</time></trkpt><trkpt lat="43.6941833" lon="12.6968417"><ele>165.66666666666666</ele><time>2026-04-25T12:24:18.533Z</time></trkpt><trkpt lat="43.6940267" lon="12.6969783"><ele>166.33333333333331</ele><time>2026-04-25T12:24:19.532Z</time></trkpt><trkpt lat="43.6938783" lon="12.6971067"><ele>167.0</ele><time>2026-04-25T12:24:20.533Z</time></trkpt><trkpt lat="43.6937317" lon="12.6972317"><ele>166.66666666666666</ele><time>2026-04-25T12:24:21.531Z</time></trkpt><trkpt lat="43.6935767" lon="12.6973633"><ele>166.33333333333334</ele><time>2026-04-25T12:24:22.533Z</time></trkpt><trkpt lat="43.69343" lon="12.6975067"><ele>166.0</ele><time>2026-04-25T12:24:23.536Z</time></trkpt><trkpt lat="43.69329" lon="12.6976617"><ele>168.0</ele><time>2026-04-25T12:24:24.532Z</time></trkpt><trkpt lat="43.69316" lon="12.6978267"><ele>170.0</ele><time>2026-04-25T12:24:25.533Z</time></trkpt><trkpt lat="43.6929367" lon="12.69814"><ele>170.0</ele><time>2026-04-25T12:24:27.532Z</time></trkpt><trkpt lat="43.6928367" lon="12.6982817"><ele>170.0</ele><time>2026-04-25T12:24:28.538Z</time></trkpt><trkpt lat="43.6927517" lon="12.69841"><ele>170.0</ele><time>2026-04-25T12:24:29.533Z</time></trkpt><trkpt lat="43.6926833" lon="12.6985133"><ele>170.0</ele><time>2026-04-25T12:24:30.532Z</time></trkpt><trkpt lat="43.6926267" lon="12.698595"><ele>170.2</ele><time>2026-04-25T12:24:31.532Z</time></trkpt><trkpt lat="43.6925617" lon="12.69872"><ele>170.4</ele><time>2026-04-25T12:24:33.532Z</time></trkpt><trkpt lat="43.6926333" lon="12.6988433"><ele>170.60000000000002</ele><time>2026-04-25T12:24:35.532Z</time></trkpt><trkpt lat="43.6927017" lon="12.69891"><ele>170.8</ele><time>2026-04-25T12:24:36.532Z</time></trkpt><trkpt lat="43.6927883" lon="12.698975"><ele>171.0</ele><time>2026-04-25T12:24:37.533Z</time></trkpt><trkpt lat="43.6928983" lon="12.69905"><ele>171.0</ele><time>2026-04-25T12:24:38.532Z</time></trkpt><trkpt lat="43.6930117" lon="12.699135"><ele>171.0</ele><time>2026-04-25T12:24:39.533Z</time></trkpt><trkpt lat="43.69314" lon="12.6992267"><ele>171.0</ele><time>2026-04-25T12:24:40.532Z</time></trkpt><trkpt lat="43.6932933" lon="12.699335"><ele>171.0</ele><time>2026-04-25T12:24:41.532Z</time></trkpt><trkpt lat="43.6934333" lon="12.6994383"><ele>171.66666666666666</ele><time>2026-04-25T12:24:42.532Z</time></trkpt><trkpt lat="43.693575" lon="12.6995467"><ele>172.33333333333331</ele><time>2026-04-25T12:24:43.533Z</time></trkpt><trkpt lat="43.6937167" lon="12.69966"><ele>173.0</ele><time>2026-04-25T12:24:44.532Z</time></trkpt><trkpt lat="43.693845" lon="12.6997667"><ele>173.0</ele><time>2026-04-25T12:24:45.534Z</time></trkpt><trkpt lat="43.6939567" lon="12.6998633"><ele>173.0</ele><time>2026-04-25T12:24:46.532Z</time></trkpt><trkpt lat="43.6941017" lon="12.6999583"><ele>173.0</ele><time>2026-04-25T12:24:48.531Z</time></trkpt><trkpt lat="43.6941833" lon="12.70001"><ele>173.0</ele><time>2026-04-25T12:24:51.533Z</time></trkpt><trkpt lat="43.6942633" lon="12.7000833"><ele>173.0</ele><time>2026-04-25T12:24:53.531Z</time></trkpt><trkpt lat="43.694325" lon="12.7001317"><ele>173.0</ele><time>2026-04-25T12:24:54.531Z</time></trkpt><trkpt lat="43.6943883" lon="12.7001933"><ele>173.0</ele><time>2026-04-25T12:24:55.531Z</time></trkpt><trkpt lat="43.6944817" lon="12.7002783"><ele>173.0</ele><time>2026-04-25T12:24:56.531Z</time></trkpt><trkpt lat="43.69459" lon="12.700375"><ele>173.0</ele><time>2026-04-25T12:24:57.53Z</time></trkpt><trkpt lat="43.6947183" lon="12.7004717"><ele>174.25</ele><time>2026-04-25T12:24:58.531Z</time></trkpt><trkpt lat="43.6948517" lon="12.7005667"><ele>175.5</ele><time>2026-04-25T12:24:59.531Z</time></trkpt><trkpt lat="43.6949833" lon="12.7006533"><ele>176.75</ele><time>2026-04-25T12:25:00.531Z</time></trkpt><trkpt lat="43.6951133" lon="12.7007417"><ele>178.0</ele><time>2026-04-25T12:25:01.532Z</time></trkpt><trkpt lat="43.6952417" lon="12.7008317"><ele>179.25</ele><time>2026-04-25T12:25:02.532Z</time></trkpt><trkpt lat="43.695365" lon="12.7009233"><ele>180.5</ele><time>2026-04-25T12:25:03.532Z</time></trkpt><trkpt lat="43.6954817" lon="12.7010133"><ele>181.75</ele><time>2026-04-25T12:25:04.531Z</time></trkpt><trkpt lat="43.6955933" lon="12.7011"><ele>183.0</ele><time>2026-04-25T12:25:05.532Z</time></trkpt><trkpt lat="43.6957017" lon="12.7011817"><ele>183.33333333333334</ele><time>2026-04-25T12:25:06.531Z</time></trkpt><trkpt lat="43.69581" lon="12.7012633"><ele>183.66666666666669</ele><time>2026-04-25T12:25:07.532Z</time></trkpt><trkpt lat="43.6960333" lon="12.70143"><ele>184.0</ele><time>2026-04-25T12:25:09.531Z</time></trkpt><trkpt lat="43.6961283" lon="12.7015083"><ele>184.6</ele><time>2026-04-25T12:25:10.531Z</time></trkpt><trkpt lat="43.696205" lon="12.70159"><ele>185.2</ele><time>2026-04-25T12:25:11.532Z</time></trkpt><trkpt lat="43.696265" lon="12.7016733"><ele>185.79999999999998</ele><time>2026-04-25T12:25:12.531Z</time></trkpt><trkpt lat="43.696315" lon="12.701775"><ele>186.39999999999998</ele><time>2026-04-25T12:25:13.531Z</time></trkpt><trkpt lat="43.6963633" lon="12.7018917"><ele>187.0</ele><time>2026-04-25T12:25:14.535Z</time></trkpt><trkpt lat="43.6964167" lon="12.7020367"><ele>187.75</ele><time>2026-04-25T12:25:15.535Z</time></trkpt><trkpt lat="43.6964733" lon="12.70219"><ele>188.5</ele><time>2026-04-25T12:25:16.531Z</time></trkpt><trkpt lat="43.6965383" lon="12.7023483"><ele>189.25</ele><time>2026-04-25T12:25:17.532Z</time></trkpt><trkpt lat="43.6966067" lon="12.702515"><ele>190.0</ele><time>2026-04-25T12:25:18.533Z</time></trkpt><trkpt lat="43.6966683" lon="12.70268"><ele>190.4</ele><time>2026-04-25T12:25:19.533Z</time></trkpt><trkpt lat="43.69673" lon="12.7028317"><ele>190.8</ele><time>2026-04-25T12:25:20.532Z</time></trkpt><trkpt lat="43.6967717" lon="12.7029683"><ele>191.2</ele><time>2026-04-25T12:25:21.532Z</time></trkpt><trkpt lat="43.6968033" lon="12.7030867"><ele>191.6</ele><time>2026-04-25T12:25:22.532Z</time></trkpt><trkpt lat="43.6968183" lon="12.7031883"><ele>192.0</ele><time>2026-04-25T12:25:23.535Z</time></trkpt><trkpt lat="43.6968033" lon="12.7032733"><ele>192.0</ele><time>2026-04-25T12:25:24.534Z</time></trkpt><trkpt lat="43.6967333" lon="12.7033717"><ele>192.0</ele><time>2026-04-25T12:25:26.533Z</time></trkpt><trkpt lat="43.6966567" lon="12.7035183"><ele>192.0</ele><time>2026-04-25T12:25:28.533Z</time></trkpt><trkpt lat="43.6965333" lon="12.703765"><ele>192.0</ele><time>2026-04-25T12:25:30.534Z</time></trkpt><trkpt lat="43.69647" lon="12.70393"><ele>192.75</ele><time>2026-04-25T12:25:31.535Z</time></trkpt><trkpt lat="43.6964067" lon="12.7040933"><ele>193.5</ele><time>2026-04-25T12:25:32.532Z</time></trkpt><trkpt lat="43.6963733" lon="12.704265"><ele>194.25</ele><time>2026-04-25T12:25:33.533Z</time></trkpt><trkpt lat="43.6963583" lon="12.704445"><ele>195.0</ele><time>2026-04-25T12:25:34.532Z</time></trkpt><trkpt lat="43.696355" lon="12.7046233"><ele>196.0</ele><time>2026-04-25T12:25:35.534Z</time></trkpt><trkpt lat="43.69636" lon="12.70479"><ele>197.0</ele><time>2026-04-25T12:25:36.533Z</time></trkpt><trkpt lat="43.6963733" lon="12.7049583"><ele>198.0</ele><time>2026-04-25T12:25:37.533Z</time></trkpt><trkpt lat="43.6963983" lon="12.7051183"><ele>199.0</ele><time>2026-04-25T12:25:38.533Z</time></trkpt><trkpt lat="43.696425" lon="12.705275"><ele>199.0</ele><time>2026-04-25T12:25:39.532Z</time></trkpt><trkpt lat="43.6964617" lon="12.7054217"><ele>199.0</ele><time>2026-04-25T12:25:40.535Z</time></trkpt><trkpt lat="43.6965" lon="12.705575"><ele>199.0</ele><time>2026-04-25T12:25:41.533Z</time></trkpt><trkpt lat="43.6965333" lon="12.70573"><ele>199.0</ele><time>2026-04-25T12:25:42.532Z</time></trkpt><trkpt lat="43.6965633" lon="12.7058817"><ele>199.0</ele><time>2026-04-25T12:25:43.533Z</time></trkpt><trkpt lat="43.6965833" lon="12.7060333"><ele>199.0</ele><time>2026-04-25T12:25:44.532Z</time></trkpt><trkpt lat="43.6965733" lon="12.7061917"><ele>199.0</ele><time>2026-04-25T12:25:45.534Z</time></trkpt><trkpt lat="43.6965233" lon="12.7063217"><ele>199.0</ele><time>2026-04-25T12:25:46.531Z</time></trkpt><trkpt lat="43.69645" lon="12.7064417"><ele>199.0</ele><time>2026-04-25T12:25:47.533Z</time></trkpt><trkpt lat="43.69636" lon="12.70657"><ele>200.0</ele><time>2026-04-25T12:25:48.533Z</time></trkpt><trkpt lat="43.6962567" lon="12.7067017"><ele>201.0</ele><time>2026-04-25T12:25:49.533Z</time></trkpt><trkpt lat="43.6960267" lon="12.7069867"><ele>202.0</ele><time>2026-04-25T12:25:51.534Z</time></trkpt><trkpt lat="43.6959133" lon="12.7071467"><ele>202.0</ele><time>2026-04-25T12:25:52.532Z</time></trkpt><trkpt lat="43.6958083" lon="12.70731"><ele>202.0</ele><time>2026-04-25T12:25:53.532Z</time></trkpt><trkpt lat="43.695705" lon="12.7074667"><ele>202.0</ele><time>2026-04-25T12:25:54.532Z</time></trkpt><trkpt lat="43.69562" lon="12.7076217"><ele>204.75</ele><time>2026-04-25T12:25:55.533Z</time></trkpt><trkpt lat="43.6955633" lon="12.7077817"><ele>207.5</ele><time>2026-04-25T12:25:56.534Z</time></trkpt><trkpt lat="43.6955233" lon="12.70795"><ele>210.25</ele><time>2026-04-25T12:25:57.532Z</time></trkpt><trkpt lat="43.695485" lon="12.70812"><ele>213.0</ele><time>2026-04-25T12:25:58.532Z</time></trkpt><trkpt lat="43.6954383" lon="12.7082733"><ele>213.0</ele><time>2026-04-25T12:25:59.533Z</time></trkpt><trkpt lat="43.6953533" lon="12.7083983"><ele>213.0</ele><time>2026-04-25T12:26:00.533Z</time></trkpt><trkpt lat="43.6952433" lon="12.7084867"><ele>213.0</ele><time>2026-04-25T12:26:01.536Z</time></trkpt><trkpt lat="43.6951267" lon="12.70856"><ele>213.0</ele><time>2026-04-25T12:26:02.536Z</time></trkpt><trkpt lat="43.6950233" lon="12.7086417"><ele>212.0</ele><time>2026-04-25T12:26:03.533Z</time></trkpt><trkpt lat="43.6949483" lon="12.7087383"><ele>211.0</ele><time>2026-04-25T12:26:04.534Z</time></trkpt><trkpt lat="43.6948983" lon="12.708845"><ele>210.0</ele><time>2026-04-25T12:26:05.535Z</time></trkpt><trkpt lat="43.6948667" lon="12.70896"><ele>209.0</ele><time>2026-04-25T12:26:06.534Z</time></trkpt><trkpt lat="43.6948583" lon="12.709095"><ele>208.0</ele><time>2026-04-25T12:26:07.534Z</time></trkpt><trkpt lat="43.6948683" lon="12.7092517"><ele>208.0</ele><time>2026-04-25T12:26:08.536Z</time></trkpt><trkpt lat="43.6948783" lon="12.7094017"><ele>208.0</ele><time>2026-04-25T12:26:09.534Z</time></trkpt><trkpt lat="43.6948883" lon="12.7095383"><ele>208.0</ele><time>2026-04-25T12:26:10.531Z</time></trkpt><trkpt lat="43.6949117" lon="12.70975"><ele>208.0</ele><time>2026-04-25T12:26:12.531Z</time></trkpt><trkpt lat="43.6949683" lon="12.7098717"><ele>209.4</ele><time>2026-04-25T12:26:14.532Z</time></trkpt><trkpt lat="43.6950967" lon="12.7098833"><ele>210.8</ele><time>2026-04-25T12:26:16.532Z</time></trkpt><trkpt lat="43.695195" lon="12.7098917"><ele>212.2</ele><time>2026-04-25T12:26:17.534Z</time></trkpt><trkpt lat="43.6952933" lon="12.7099233"><ele>213.6</ele><time>2026-04-25T12:26:18.534Z</time></trkpt><trkpt lat="43.6953917" lon="12.7099717"><ele>215.0</ele><time>2026-04-25T12:26:19.532Z</time></trkpt><trkpt lat="43.6954933" lon="12.7100483"><ele>218.5</ele><time>2026-04-25T12:26:20.534Z</time></trkpt><trkpt lat="43.6956083" lon="12.7101483"><ele>222.0</ele><time>2026-04-25T12:26:21.534Z</time></trkpt><trkpt lat="43.6957217" lon="12.71026"><ele>225.5</ele><time>2026-04-25T12:26:22.534Z</time></trkpt><trkpt lat="43.69584" lon="12.7103783"><ele>229.0</ele><time>2026-04-25T12:26:23.534Z</time></trkpt><trkpt lat="43.69596" lon="12.71049"><ele>237.33333333333331</ele><time>2026-04-25T12:26:24.532Z</time></trkpt><trkpt lat="43.6960917" lon="12.7106067"><ele>245.66666666666669</ele><time>2026-04-25T12:26:25.532Z</time></trkpt><trkpt lat="43.6962233" lon="12.7107167"><ele>254.0</ele><time>2026-04-25T12:26:26.534Z</time></trkpt><trkpt lat="43.6963533" lon="12.7108133"><ele>254.0</ele><time>2026-04-25T12:26:27.532Z</time></trkpt><trkpt lat="43.69646" lon="12.7108983"><ele>253.99999999999997</ele><time>2026-04-25T12:26:28.532Z</time></trkpt><trkpt lat="43.69654" lon="12.7109933"><ele>253.99999999999997</ele><time>2026-04-25T12:26:29.533Z</time></trkpt><trkpt lat="43.6965883" lon="12.7111067"><ele>254.0</ele><time>2026-04-25T12:26:30.533Z</time></trkpt><trkpt lat="43.6966117" lon="12.7112383"><ele>254.0</ele><time>2026-04-25T12:26:31.532Z</time></trkpt><trkpt lat="43.6966233" lon="12.711555"><ele>255.0</ele><time>2026-04-25T12:26:33.534Z</time></trkpt><trkpt lat="43.6966283" lon="12.7117217"><ele>256.0</ele><time>2026-04-25T12:26:34.536Z</time></trkpt><trkpt lat="43.6966367" lon="12.7118917"><ele>257.0</ele><time>2026-04-25T12:26:35.532Z</time></trkpt><trkpt lat="43.6966367" lon="12.71206"><ele>258.0</ele><time>2026-04-25T12:26:36.532Z</time></trkpt><trkpt lat="43.6966417" lon="12.712215"><ele>258.5</ele><time>2026-04-25T12:26:37.538Z</time></trkpt><trkpt lat="43.6966433" lon="12.712345"><ele>259.0</ele><time>2026-04-25T12:26:38.533Z</time></trkpt><trkpt lat="43.696645" lon="12.7124517"><ele>259.5</ele><time>2026-04-25T12:26:39.534Z</time></trkpt><trkpt lat="43.696655" lon="12.7125483"><ele>260.0</ele><time>2026-04-25T12:26:40.534Z</time></trkpt><trkpt lat="43.69671" lon="12.71264"><ele>260.5</ele><time>2026-04-25T12:26:42.534Z</time></trkpt><trkpt lat="43.6968033" lon="12.71256"><ele>261.0</ele><time>2026-04-25T12:26:44.535Z</time></trkpt><trkpt lat="43.69685" lon="12.712465"><ele>261.0</ele><time>2026-04-25T12:26:45.532Z</time></trkpt><trkpt lat="43.6969017" lon="12.7123483"><ele>261.0</ele><time>2026-04-25T12:26:46.532Z</time></trkpt><trkpt lat="43.6969467" lon="12.7122383"><ele>261.0</ele><time>2026-04-25T12:26:47.531Z</time></trkpt><trkpt lat="43.6970017" lon="12.7121333"><ele>261.0</ele><time>2026-04-25T12:26:48.532Z</time></trkpt><trkpt lat="43.697055" lon="12.712025"><ele>261.0</ele><time>2026-04-25T12:26:49.532Z</time></trkpt><trkpt lat="43.6971183" lon="12.7118667"><ele>267.0</ele><time>2026-04-25T12:26:50.532Z</time></trkpt><trkpt lat="43.6971917" lon="12.711705"><ele>273.0</ele><time>2026-04-25T12:26:51.532Z</time></trkpt><trkpt lat="43.6972783" lon="12.711515"><ele>279.0</ele><time>2026-04-25T12:26:52.533Z</time></trkpt><trkpt lat="43.69749" lon="12.7111517"><ele>277.6666666666667</ele><time>2026-04-25T12:26:54.534Z</time></trkpt><trkpt lat="43.6975983" lon="12.7109733"><ele>276.33333333333337</ele><time>2026-04-25T12:26:55.532Z</time></trkpt><trkpt lat="43.6977083" lon="12.71079"><ele>275.0</ele><time>2026-04-25T12:26:56.534Z</time></trkpt><trkpt lat="43.6978217" lon="12.7106017"><ele>279.6666666666667</ele><time>2026-04-25T12:26:57.533Z</time></trkpt><trkpt lat="43.6979283" lon="12.71041"><ele>284.3333333333333</ele><time>2026-04-25T12:26:58.531Z</time></trkpt><trkpt lat="43.6980367" lon="12.71022"><ele>289.0</ele><time>2026-04-25T12:26:59.532Z</time></trkpt><trkpt lat="43.6981283" lon="12.7100483"><ele>289.59999999999997</ele><time>2026-04-25T12:27:00.531Z</time></trkpt><trkpt lat="43.6982" lon="12.7099117"><ele>290.2</ele><time>2026-04-25T12:27:01.534Z</time></trkpt><trkpt lat="43.6982617" lon="12.7098133"><ele>290.79999999999995</ele><time>2026-04-25T12:27:02.532Z</time></trkpt><trkpt lat="43.6983317" lon="12.709765"><ele>291.4</ele><time>2026-04-25T12:27:03.532Z</time></trkpt><trkpt lat="43.6984083" lon="12.7097683"><ele>292.0</ele><time>2026-04-25T12:27:04.532Z</time></trkpt><trkpt lat="43.6984967" lon="12.7097883"><ele>293.6</ele><time>2026-04-25T12:27:05.532Z</time></trkpt><trkpt lat="43.6985867" lon="12.7098117"><ele>295.2</ele><time>2026-04-25T12:27:06.532Z</time></trkpt><trkpt lat="43.6986833" lon="12.7098283"><ele>296.8</ele><time>2026-04-25T12:27:07.533Z</time></trkpt><trkpt lat="43.6987817" lon="12.7098283"><ele>298.4</ele><time>2026-04-25T12:27:08.532Z</time></trkpt><trkpt lat="43.6988733" lon="12.7098167"><ele>300.0</ele><time>2026-04-25T12:27:09.532Z</time></trkpt><trkpt lat="43.6989633" lon="12.7098017"><ele>300.0</ele><time>2026-04-25T12:27:10.532Z</time></trkpt><trkpt lat="43.6990467" lon="12.7098017"><ele>300.0</ele><time>2026-04-25T12:27:11.532Z</time></trkpt><trkpt lat="43.6991267" lon="12.709815"><ele>300.0</ele><time>2026-04-25T12:27:12.533Z</time></trkpt><trkpt lat="43.6992067" lon="12.7099683"><ele>300.0</ele><time>2026-04-25T12:27:13.532Z</time></trkpt><trkpt lat="43.6993267" lon="12.71032"><ele>303.0</ele><time>2026-04-25T12:27:15.534Z</time></trkpt><trkpt lat="43.6993617" lon="12.7105117"><ele>306.0</ele><time>2026-04-25T12:27:16.534Z</time></trkpt><trkpt lat="43.699385" lon="12.7106883"><ele>309.0</ele><time>2026-04-25T12:27:17.531Z</time></trkpt><trkpt lat="43.6993917" lon="12.7108617"><ele>312.0</ele><time>2026-04-25T12:27:18.534Z</time></trkpt><trkpt lat="43.6993633" lon="12.711035"><ele>315.75</ele><time>2026-04-25T12:27:19.534Z</time></trkpt><trkpt lat="43.6993033" lon="12.7112083"><ele>319.5</ele><time>2026-04-25T12:27:20.533Z</time></trkpt><trkpt lat="43.6992317" lon="12.711375"><ele>323.25</ele><time>2026-04-25T12:27:21.534Z</time></trkpt><trkpt lat="43.699155" lon="12.71154"><ele>327.0</ele><time>2026-04-25T12:27:22.533Z</time></trkpt><trkpt lat="43.6990717" lon="12.7117017"><ele>327.0</ele><time>2026-04-25T12:27:23.534Z</time></trkpt><trkpt lat="43.698985" lon="12.711855"><ele>327.0</ele><time>2026-04-25T12:27:24.533Z</time></trkpt><trkpt lat="43.6989133" lon="12.712005"><ele>327.0</ele><time>2026-04-25T12:27:25.533Z</time></trkpt><trkpt lat="43.6988467" lon="12.71216"><ele>327.0</ele><time>2026-04-25T12:27:26.534Z</time></trkpt><trkpt lat="43.6987783" lon="12.7123217"><ele>329.75</ele><time>2026-04-25T12:27:27.534Z</time></trkpt><trkpt lat="43.6987183" lon="12.7124833"><ele>332.5</ele><time>2026-04-25T12:27:28.532Z</time></trkpt><trkpt lat="43.6986667" lon="12.712635"><ele>335.25</ele><time>2026-04-25T12:27:29.535Z</time></trkpt><trkpt lat="43.6986317" lon="12.7127783"><ele>338.0</ele><time>2026-04-25T12:27:30.534Z</time></trkpt><trkpt lat="43.6986217" lon="12.71292"><ele>339.5</ele><time>2026-04-25T12:27:31.534Z</time></trkpt><trkpt lat="43.69863" lon="12.71307"><ele>341.0</ele><time>2026-04-25T12:27:32.533Z</time></trkpt><trkpt lat="43.698645" lon="12.7132317"><ele>342.5</ele><time>2026-04-25T12:27:33.533Z</time></trkpt><trkpt lat="43.698685" lon="12.7134133"><ele>344.0</ele><time>2026-04-25T12:27:34.535Z</time></trkpt><trkpt lat="43.6987317" lon="12.7138017"><ele>345.5</ele><time>2026-04-25T12:27:36.532Z</time></trkpt><trkpt lat="43.698755" lon="12.713995"><ele>347.0</ele><time>2026-04-25T12:27:37.537Z</time></trkpt><trkpt lat="43.6987783" lon="12.7141817"><ele>348.5</ele><time>2026-04-25T12:27:38.531Z</time></trkpt><trkpt lat="43.6987967" lon="12.7143567"><ele>350.0</ele><time>2026-04-25T12:27:39.532Z</time></trkpt><trkpt lat="43.6988067" lon="12.7145183"><ele>350.0</ele><time>2026-04-25T12:27:40.532Z</time></trkpt><trkpt lat="43.6988117" lon="12.71465"><ele>350.0</ele><time>2026-04-25T12:27:41.534Z</time></trkpt><trkpt lat="43.6988217" lon="12.7147617"><ele>350.0</ele><time>2026-04-25T12:27:42.533Z</time></trkpt><trkpt lat="43.6988383" lon="12.7148617"><ele>350.0</ele><time>2026-04-25T12:27:43.533Z</time></trkpt><trkpt lat="43.6988733" lon="12.71494"><ele>350.0</ele><time>2026-04-25T12:27:44.533Z</time></trkpt><trkpt lat="43.6989317" lon="12.7149967"><ele>350.0</ele><time>2026-04-25T12:27:45.532Z</time></trkpt><trkpt lat="43.6990183" lon="12.7150267"><ele>350.0</ele><time>2026-04-25T12:27:46.532Z</time></trkpt><trkpt lat="43.6991183" lon="12.7150583"><ele>350.0</ele><time>2026-04-25T12:27:47.532Z</time></trkpt><trkpt lat="43.6992433" lon="12.7151017"><ele>350.0</ele><time>2026-04-25T12:27:48.531Z</time></trkpt><trkpt lat="43.6993733" lon="12.7151517"><ele>350.0</ele><time>2026-04-25T12:27:49.532Z</time></trkpt><trkpt lat="43.6995267" lon="12.7152117"><ele>347.33333333333337</ele><time>2026-04-25T12:27:50.533Z</time></trkpt><trkpt lat="43.6996733" lon="12.7152667"><ele>344.6666666666667</ele><time>2026-04-25T12:27:51.532Z</time></trkpt><trkpt lat="43.6998167" lon="12.7153367"><ele>342.0</ele><time>2026-04-25T12:27:52.532Z</time></trkpt><trkpt lat="43.699955" lon="12.7154217"><ele>342.0</ele><time>2026-04-25T12:27:53.532Z</time></trkpt><trkpt lat="43.7000867" lon="12.7155083"><ele>342.0</ele><time>2026-04-25T12:27:54.533Z</time></trkpt><trkpt lat="43.70021" lon="12.715595"><ele>342.0</ele><time>2026-04-25T12:27:55.532Z</time></trkpt><trkpt lat="43.7004033" lon="12.71569"><ele>343.8</ele><time>2026-04-25T12:27:57.533Z</time></trkpt><trkpt lat="43.7005" lon="12.7157"><ele>345.6</ele><time>2026-04-25T12:27:58.532Z</time></trkpt><trkpt lat="43.7006067" lon="12.7157"><ele>347.40000000000003</ele><time>2026-04-25T12:27:59.532Z</time></trkpt><trkpt lat="43.700725" lon="12.7156983"><ele>349.20000000000005</ele><time>2026-04-25T12:28:00.536Z</time></trkpt><trkpt lat="43.7008433" lon="12.7156967"><ele>351.0</ele><time>2026-04-25T12:28:01.534Z</time></trkpt><trkpt lat="43.7009633" lon="12.7156783"><ele>351.0</ele><time>2026-04-25T12:28:02.535Z</time></trkpt><trkpt lat="43.70108" lon="12.7156683"><ele>351.0</ele><time>2026-04-25T12:28:03.532Z</time></trkpt><trkpt lat="43.7011967" lon="12.71565"><ele>351.0</ele><time>2026-04-25T12:28:04.533Z</time></trkpt><trkpt lat="43.7013217" lon="12.7156217"><ele>351.0</ele><time>2026-04-25T12:28:05.534Z</time></trkpt><trkpt lat="43.701445" lon="12.71558"><ele>350.8</ele><time>2026-04-25T12:28:06.531Z</time></trkpt><trkpt lat="43.70156" lon="12.7155317"><ele>350.6</ele><time>2026-04-25T12:28:07.532Z</time></trkpt><trkpt lat="43.7016633" lon="12.7154817"><ele>350.4</ele><time>2026-04-25T12:28:08.532Z</time></trkpt><trkpt lat="43.70176" lon="12.7154367"><ele>350.2</ele><time>2026-04-25T12:28:09.531Z</time></trkpt><trkpt lat="43.70186" lon="12.7153933"><ele>350.0</ele><time>2026-04-25T12:28:10.533Z</time></trkpt><trkpt lat="43.7019617" lon="12.7153533"><ele>350.4</ele><time>2026-04-25T12:28:11.531Z</time></trkpt><trkpt lat="43.7020633" lon="12.7153133"><ele>350.8</ele><time>2026-04-25T12:28:12.531Z</time></trkpt><trkpt lat="43.7021683" lon="12.71528"><ele>351.20000000000005</ele><time>2026-04-25T12:28:13.534Z</time></trkpt><trkpt lat="43.7022767" lon="12.715255"><ele>351.6</ele><time>2026-04-25T12:28:14.531Z</time></trkpt><trkpt lat="43.7023883" lon="12.7152383"><ele>352.0</ele><time>2026-04-25T12:28:15.531Z</time></trkpt><trkpt lat="43.7025067" lon="12.7152433"><ele>352.0</ele><time>2026-04-25T12:28:16.531Z</time></trkpt><trkpt lat="43.7027267" lon="12.715305"><ele>352.0</ele><time>2026-04-25T12:28:18.531Z</time></trkpt><trkpt lat="43.7028233" lon="12.7153483"><ele>352.0</ele><time>2026-04-25T12:28:19.531Z</time></trkpt><trkpt lat="43.7029217" lon="12.7153933"><ele>352.0</ele><time>2026-04-25T12:28:20.532Z</time></trkpt><trkpt lat="43.7030083" lon="12.7154333"><ele>349.40000000000003</ele><time>2026-04-25T12:28:21.531Z</time></trkpt><trkpt lat="43.70311" lon="12.7154667"><ele>346.8</ele><time>2026-04-25T12:28:22.532Z</time></trkpt><trkpt lat="43.7032083" lon="12.715495"><ele>344.2</ele><time>2026-04-25T12:28:23.532Z</time></trkpt><trkpt lat="43.70331" lon="12.715525"><ele>341.6</ele><time>2026-04-25T12:28:24.532Z</time></trkpt><trkpt lat="43.703405" lon="12.715555"><ele>339.0</ele><time>2026-04-25T12:28:25.532Z</time></trkpt><trkpt lat="43.7034967" lon="12.715585"><ele>339.0</ele><time>2026-04-25T12:28:26.533Z</time></trkpt><trkpt lat="43.7035783" lon="12.7156117"><ele>339.0</ele><time>2026-04-25T12:28:27.533Z</time></trkpt><trkpt lat="43.703655" lon="12.715625"><ele>339.0</ele><time>2026-04-25T12:28:28.534Z</time></trkpt><trkpt lat="43.7037267" lon="12.7156167"><ele>339.0</ele><time>2026-04-25T12:28:29.531Z</time></trkpt><trkpt lat="43.7038" lon="12.71559"><ele>339.0</ele><time>2026-04-25T12:28:30.534Z</time></trkpt><trkpt lat="43.7038717" lon="12.7155433"><ele>339.0</ele><time>2026-04-25T12:28:31.535Z</time></trkpt><trkpt lat="43.70394" lon="12.7154733"><ele>338.6666666666667</ele><time>2026-04-25T12:28:32.531Z</time></trkpt><trkpt lat="43.7040017" lon="12.7153883"><ele>338.3333333333333</ele><time>2026-04-25T12:28:33.53Z</time></trkpt><trkpt lat="43.704065" lon="12.7153083"><ele>338.0</ele><time>2026-04-25T12:28:34.531Z</time></trkpt><trkpt lat="43.7041233" lon="12.7152433"><ele>337.66666666666663</ele><time>2026-04-25T12:28:35.53Z</time></trkpt><trkpt lat="43.7041833" lon="12.7152067"><ele>337.3333333333333</ele><time>2026-04-25T12:28:36.531Z</time></trkpt><trkpt lat="43.7043033" lon="12.7151933"><ele>337.0</ele><time>2026-04-25T12:28:38.534Z</time></trkpt><trkpt lat="43.70447" lon="12.7152267"><ele>336.40000000000003</ele><time>2026-04-25T12:28:40.531Z</time></trkpt><trkpt lat="43.70456" lon="12.715235"><ele>335.8</ele><time>2026-04-25T12:28:41.532Z</time></trkpt><trkpt lat="43.7046517" lon="12.7152383"><ele>335.2</ele><time>2026-04-25T12:28:42.534Z</time></trkpt><trkpt lat="43.704745" lon="12.715235"><ele>334.6</ele><time>2026-04-25T12:28:43.533Z</time></trkpt><trkpt lat="43.7048367" lon="12.715225"><ele>334.0</ele><time>2026-04-25T12:28:44.533Z</time></trkpt><trkpt lat="43.7049317" lon="12.7152"><ele>336.8333333333333</ele><time>2026-04-25T12:28:45.534Z</time></trkpt><trkpt lat="43.7050283" lon="12.71517"><ele>339.66666666666663</ele><time>2026-04-25T12:28:46.53Z</time></trkpt><trkpt lat="43.7051267" lon="12.71515"><ele>342.5</ele><time>2026-04-25T12:28:47.532Z</time></trkpt><trkpt lat="43.7052133" lon="12.7151333"><ele>345.3333333333333</ele><time>2026-04-25T12:28:48.531Z</time></trkpt><trkpt lat="43.7052883" lon="12.715125"><ele>348.1666666666667</ele><time>2026-04-25T12:28:49.532Z</time></trkpt><trkpt lat="43.7053533" lon="12.715125"><ele>351.0</ele><time>2026-04-25T12:28:50.531Z</time></trkpt><trkpt lat="43.7054317" lon="12.7151033"><ele>357.0</ele><time>2026-04-25T12:28:52.531Z</time></trkpt><trkpt lat="43.7054217" lon="12.71499"><ele>363.0</ele><time>2026-04-25T12:28:55.532Z</time></trkpt><trkpt lat="43.70537" lon="12.714875"><ele>369.0</ele><time>2026-04-25T12:28:57.532Z</time></trkpt><trkpt lat="43.7053817" lon="12.714735"><ele>375.0</ele><time>2026-04-25T12:28:59.532Z</time></trkpt><trkpt lat="43.705505" lon="12.71455"><ele>375.0</ele><time>2026-04-25T12:29:02.531Z</time></trkpt><trkpt lat="43.7055467" lon="12.7144767"><ele>375.0</ele><time>2026-04-25T12:29:03.532Z</time></trkpt><trkpt lat="43.7055933" lon="12.7143967"><ele>375.0</ele><time>2026-04-25T12:29:04.531Z</time></trkpt><trkpt lat="43.7056367" lon="12.7143067"><ele>375.0</ele><time>2026-04-25T12:29:05.532Z</time></trkpt><trkpt lat="43.7056883" lon="12.7142267"><ele>375.0</ele><time>2026-04-25T12:29:06.532Z</time></trkpt><trkpt lat="43.7057567" lon="12.7141517"><ele>375.0</ele><time>2026-04-25T12:29:07.532Z</time></trkpt><trkpt lat="43.7058367" lon="12.7140883"><ele>374.75</ele><time>2026-04-25T12:29:08.532Z</time></trkpt><trkpt lat="43.705925" lon="12.7140333"><ele>374.5</ele><time>2026-04-25T12:29:09.531Z</time></trkpt><trkpt lat="43.7060333" lon="12.7139867"><ele>374.25</ele><time>2026-04-25T12:29:10.533Z</time></trkpt><trkpt lat="43.7061533" lon="12.7139417"><ele>374.0</ele><time>2026-04-25T12:29:11.536Z</time></trkpt><trkpt lat="43.7062767" lon="12.7139033"><ele>377.6</ele><time>2026-04-25T12:29:12.531Z</time></trkpt><trkpt lat="43.7064033" lon="12.7138633"><ele>381.2</ele><time>2026-04-25T12:29:13.533Z</time></trkpt><trkpt lat="43.7065183" lon="12.7138183"><ele>384.8</ele><time>2026-04-25T12:29:14.531Z</time></trkpt><trkpt lat="43.70661" lon="12.7137717"><ele>388.40000000000003</ele><time>2026-04-25T12:29:15.531Z</time></trkpt><trkpt lat="43.70669" lon="12.7137333"><ele>392.0</ele><time>2026-04-25T12:29:16.532Z</time></trkpt><trkpt lat="43.70676" lon="12.7137067"><ele>392.0</ele><time>2026-04-25T12:29:17.533Z</time></trkpt><trkpt lat="43.70686" lon="12.7137433"><ele>392.0</ele><time>2026-04-25T12:29:19.533Z</time></trkpt><trkpt lat="43.7068683" lon="12.713885"><ele>392.0</ele><time>2026-04-25T12:29:21.531Z</time></trkpt><trkpt lat="43.70677" lon="12.7141033"><ele>392.0</ele><time>2026-04-25T12:29:23.533Z</time></trkpt><trkpt lat="43.706665" lon="12.7142367"><ele>392.0</ele><time>2026-04-25T12:29:24.533Z</time></trkpt><trkpt lat="43.7065633" lon="12.714355"><ele>392.0</ele><time>2026-04-25T12:29:25.532Z</time></trkpt><trkpt lat="43.7064767" lon="12.7144733"><ele>392.0</ele><time>2026-04-25T12:29:26.532Z</time></trkpt><trkpt lat="43.7064017" lon="12.7145833"><ele>392.0</ele><time>2026-04-25T12:29:27.533Z</time></trkpt><trkpt lat="43.706335" lon="12.7146717"><ele>392.0</ele><time>2026-04-25T12:29:28.533Z</time></trkpt><trkpt lat="43.7062917" lon="12.714755"><ele>392.0</ele><time>2026-04-25T12:29:29.534Z</time></trkpt><trkpt lat="43.7062717" lon="12.7148383"><ele>392.0</ele><time>2026-04-25T12:29:30.532Z</time></trkpt><trkpt lat="43.7062983" lon="12.7149567"><ele>392.0</ele><time>2026-04-25T12:29:32.533Z</time></trkpt><trkpt lat="43.7064667" lon="12.7149217"><ele>392.0</ele><time>2026-04-25T12:29:34.534Z</time></trkpt><trkpt lat="43.7065783" lon="12.7148833"><ele>392.0</ele><time>2026-04-25T12:29:35.534Z</time></trkpt><trkpt lat="43.70669" lon="12.7148567"><ele>392.0</ele><time>2026-04-25T12:29:36.534Z</time></trkpt><trkpt lat="43.7068067" lon="12.71485"><ele>392.0</ele><time>2026-04-25T12:29:37.534Z</time></trkpt><trkpt lat="43.706935" lon="12.7148617"><ele>392.0</ele><time>2026-04-25T12:29:38.535Z</time></trkpt><trkpt lat="43.707065" lon="12.714875"><ele>394.75</ele><time>2026-04-25T12:29:39.532Z</time></trkpt><trkpt lat="43.7072017" lon="12.714895"><ele>397.5</ele><time>2026-04-25T12:29:40.533Z</time></trkpt><trkpt lat="43.7073333" lon="12.7149133"><ele>400.25</ele><time>2026-04-25T12:29:41.534Z</time></trkpt><trkpt lat="43.7074517" lon="12.71494"><ele>403.0</ele><time>2026-04-25T12:29:42.531Z</time></trkpt><trkpt lat="43.7076833" lon="12.7150117"><ele>406.25</ele><time>2026-04-25T12:29:44.532Z</time></trkpt><trkpt lat="43.707805" lon="12.71503"><ele>409.5</ele><time>2026-04-25T12:29:45.532Z</time></trkpt><trkpt lat="43.70793" lon="12.71503"><ele>412.75</ele><time>2026-04-25T12:29:46.532Z</time></trkpt><trkpt lat="43.7080583" lon="12.7150217"><ele>416.0</ele><time>2026-04-25T12:29:47.533Z</time></trkpt><trkpt lat="43.708185" lon="12.7149983"><ele>416.0</ele><time>2026-04-25T12:29:48.532Z</time></trkpt><trkpt lat="43.7083133" lon="12.7149717"><ele>416.0</ele><time>2026-04-25T12:29:49.533Z</time></trkpt><trkpt lat="43.70844" lon="12.7149483"><ele>416.0</ele><time>2026-04-25T12:29:50.532Z</time></trkpt><trkpt lat="43.7085633" lon="12.7149383"><ele>416.0</ele><time>2026-04-25T12:29:51.532Z</time></trkpt><trkpt lat="43.7086883" lon="12.71495"><ele>419.25</ele><time>2026-04-25T12:29:52.533Z</time></trkpt><trkpt lat="43.70881" lon="12.71499"><ele>422.5</ele><time>2026-04-25T12:29:53.532Z</time></trkpt><trkpt lat="43.708935" lon="12.71504"><ele>425.75</ele><time>2026-04-25T12:29:54.533Z</time></trkpt><trkpt lat="43.7090617" lon="12.71509"><ele>429.0</ele><time>2026-04-25T12:29:55.533Z</time></trkpt><trkpt lat="43.70919" lon="12.715135"><ele>429.0</ele><time>2026-04-25T12:29:56.533Z</time></trkpt><trkpt lat="43.7093133" lon="12.7151767"><ele>429.0</ele><time>2026-04-25T12:29:57.533Z</time></trkpt><trkpt lat="43.7094317" lon="12.715205"><ele>429.0</ele><time>2026-04-25T12:29:58.532Z</time></trkpt><trkpt lat="43.7095517" lon="12.71522"><ele>429.0</ele><time>2026-04-25T12:29:59.533Z</time></trkpt><trkpt lat="43.7096683" lon="12.7152133"><ele>433.0</ele><time>2026-04-25T12:30:00.533Z</time></trkpt><trkpt lat="43.709775" lon="12.7151883"><ele>437.0</ele><time>2026-04-25T12:30:01.534Z</time></trkpt><trkpt lat="43.7098733" lon="12.7151467"><ele>441.0</ele><time>2026-04-25T12:30:02.532Z</time></trkpt><trkpt lat="43.7099617" lon="12.7150933"><ele>445.0</ele><time>2026-04-25T12:30:03.536Z</time></trkpt><trkpt lat="43.7100917" lon="12.714995"><ele>445.00000000000006</ele><time>2026-04-25T12:30:05.535Z</time></trkpt><trkpt lat="43.71017" lon="12.7149667"><ele>445.0</ele><time>2026-04-25T12:30:08.532Z</time></trkpt><trkpt lat="43.7101033" lon="12.7149817"><ele>445.0</ele><time>2026-04-25T12:30:36.533Z</time></trkpt><trkpt lat="43.70997" lon="12.7150383"><ele>445.0</ele><time>2026-04-25T12:30:41.533Z</time></trkpt><trkpt lat="43.7099083" lon="12.715095"><ele>445.00000000000006</ele><time>2026-04-25T12:30:44.532Z</time></trkpt><trkpt lat="43.7099667" lon="12.7151733"><ele>445.0</ele><time>2026-04-25T12:30:48.533Z</time></trkpt><trkpt lat="43.7100617" lon="12.7151917"><ele>445.00000000000006</ele><time>2026-04-25T12:30:50.534Z</time></trkpt><trkpt lat="43.7101833" lon="12.715215"><ele>445.0</ele><time>2026-04-25T12:30:52.535Z</time></trkpt><trkpt lat="43.7102533" lon="12.715245"><ele>445.0</ele><time>2026-04-25T12:30:53.532Z</time></trkpt><trkpt lat="43.7103267" lon="12.7152833"><ele>445.0</ele><time>2026-04-25T12:30:54.533Z</time></trkpt><trkpt lat="43.7104033" lon="12.7153267"><ele>445.00000000000006</ele><time>2026-04-25T12:30:55.534Z</time></trkpt><trkpt lat="43.7104817" lon="12.7153733"><ele>445.0</ele><time>2026-04-25T12:30:56.534Z</time></trkpt><trkpt lat="43.71056" lon="12.7154117"><ele>446.2</ele><time>2026-04-25T12:30:57.532Z</time></trkpt><trkpt lat="43.7107233" lon="12.715485"><ele>447.4</ele><time>2026-04-25T12:30:59.532Z</time></trkpt><trkpt lat="43.7108" lon="12.7155217"><ele>448.6</ele><time>2026-04-25T12:31:00.533Z</time></trkpt><trkpt lat="43.710875" lon="12.7155583"><ele>449.8</ele><time>2026-04-25T12:31:01.533Z</time></trkpt><trkpt lat="43.7109517" lon="12.7155933"><ele>451.0</ele><time>2026-04-25T12:31:02.533Z</time></trkpt><trkpt lat="43.7110217" lon="12.71563"><ele>455.0</ele><time>2026-04-25T12:31:03.534Z</time></trkpt><trkpt lat="43.7111283" lon="12.7156883"><ele>459.0</ele><time>2026-04-25T12:31:05.533Z</time></trkpt><trkpt lat="43.7112433" lon="12.715725"><ele>463.0</ele><time>2026-04-25T12:31:07.533Z</time></trkpt><trkpt lat="43.7113133" lon="12.715735"><ele>467.0</ele><time>2026-04-25T12:31:08.532Z</time></trkpt><trkpt lat="43.71139" lon="12.715745"><ele>471.0</ele><time>2026-04-25T12:31:09.533Z</time></trkpt><trkpt lat="43.7114683" lon="12.7157583"><ele>471.0</ele><time>2026-04-25T12:31:10.536Z</time></trkpt><trkpt lat="43.7115433" lon="12.7157917"><ele>471.0</ele><time>2026-04-25T12:31:11.531Z</time></trkpt><trkpt lat="43.7116133" lon="12.7158367"><ele>471.0</ele><time>2026-04-25T12:31:12.532Z</time></trkpt><trkpt lat="43.7116783" lon="12.7158817"><ele>471.0</ele><time>2026-04-25T12:31:13.534Z</time></trkpt><trkpt lat="43.711745" lon="12.71592"><ele>471.0</ele><time>2026-04-25T12:31:14.533Z</time></trkpt><trkpt lat="43.711815" lon="12.715965"><ele>471.0</ele><time>2026-04-25T12:31:15.534Z</time></trkpt><trkpt lat="43.711885" lon="12.7160117"><ele>472.6666666666667</ele><time>2026-04-25T12:31:16.534Z</time></trkpt><trkpt lat="43.7119533" lon="12.7160617"><ele>474.33333333333337</ele><time>2026-04-25T12:31:17.534Z</time></trkpt><trkpt lat="43.7120167" lon="12.716105"><ele>476.0</ele><time>2026-04-25T12:31:18.535Z</time></trkpt><trkpt lat="43.7121433" lon="12.7161933"><ele>477.6666666666667</ele><time>2026-04-25T12:31:20.533Z</time></trkpt><trkpt lat="43.7122067" lon="12.7162283"><ele>479.33333333333337</ele><time>2026-04-25T12:31:21.533Z</time></trkpt><trkpt lat="43.7122683" lon="12.7162683"><ele>481.0</ele><time>2026-04-25T12:31:22.534Z</time></trkpt><trkpt lat="43.7123883" lon="12.7163367"><ele>481.00000000000006</ele><time>2026-04-25T12:31:24.534Z</time></trkpt><trkpt lat="43.7124533" lon="12.7163567"><ele>481.0</ele><time>2026-04-25T12:31:25.536Z</time></trkpt><trkpt lat="43.7125217" lon="12.716365"><ele>481.0</ele><time>2026-04-25T12:31:26.535Z</time></trkpt><trkpt lat="43.7125933" lon="12.716375"><ele>481.0</ele><time>2026-04-25T12:31:27.533Z</time></trkpt><trkpt lat="43.7126683" lon="12.7163917"><ele>481.00000000000006</ele><time>2026-04-25T12:31:28.532Z</time></trkpt><trkpt lat="43.71273" lon="12.71642"><ele>481.0</ele><time>2026-04-25T12:31:29.533Z</time></trkpt><trkpt lat="43.7128267" lon="12.71651"><ele>483.0</ele><time>2026-04-25T12:31:31.537Z</time></trkpt><trkpt lat="43.712875" lon="12.7166333"><ele>485.0</ele><time>2026-04-25T12:31:33.531Z</time></trkpt><trkpt lat="43.7128683" lon="12.7167683"><ele>487.0</ele><time>2026-04-25T12:31:35.533Z</time></trkpt><trkpt lat="43.7127883" lon="12.7168833"><ele>489.0</ele><time>2026-04-25T12:31:37.531Z</time></trkpt><trkpt lat="43.7127017" lon="12.716935"><ele>491.0</ele><time>2026-04-25T12:31:38.532Z</time></trkpt><trkpt lat="43.7126117" lon="12.716995"><ele>491.0</ele><time>2026-04-25T12:31:39.531Z</time></trkpt><trkpt lat="43.71246" lon="12.7171233"><ele>491.0</ele><time>2026-04-25T12:31:41.531Z</time></trkpt><trkpt lat="43.712395" lon="12.7171783"><ele>491.0</ele><time>2026-04-25T12:31:42.532Z</time></trkpt><trkpt lat="43.7123167" lon="12.7172933"><ele>491.0</ele><time>2026-04-25T12:31:44.532Z</time></trkpt><trkpt lat="43.712295" lon="12.71742"><ele>490.99999999999994</ele><time>2026-04-25T12:31:46.534Z</time></trkpt><trkpt lat="43.71235" lon="12.7175467"><ele>491.0</ele><time>2026-04-25T12:31:48.531Z</time></trkpt><trkpt lat="43.7124" lon="12.717605"><ele>491.0</ele><time>2026-04-25T12:31:49.534Z</time></trkpt><trkpt lat="43.7124617" lon="12.7176617"><ele>491.0</ele><time>2026-04-25T12:31:50.532Z</time></trkpt><trkpt lat="43.7125183" lon="12.7177217"><ele>490.99999999999994</ele><time>2026-04-25T12:31:51.534Z</time></trkpt><trkpt lat="43.7125683" lon="12.7177967"><ele>491.0</ele><time>2026-04-25T12:31:52.531Z</time></trkpt><trkpt lat="43.712605" lon="12.7178733"><ele>494.4</ele><time>2026-04-25T12:31:53.532Z</time></trkpt><trkpt lat="43.7126417" lon="12.7180083"><ele>497.8</ele><time>2026-04-25T12:31:55.532Z</time></trkpt><trkpt lat="43.712615" lon="12.7180983"><ele>501.19999999999993</ele><time>2026-04-25T12:31:57.533Z</time></trkpt><trkpt lat="43.712485" lon="12.7181533"><ele>504.59999999999997</ele><time>2026-04-25T12:31:59.533Z</time></trkpt><trkpt lat="43.7124083" lon="12.71818"><ele>508.0</ele><time>2026-04-25T12:32:00.533Z</time></trkpt><trkpt lat="43.7122383" lon="12.7182217"><ele>508.00000000000006</ele><time>2026-04-25T12:32:02.532Z</time></trkpt><trkpt lat="43.712165" lon="12.7182283"><ele>508.0</ele><time>2026-04-25T12:32:03.532Z</time></trkpt><trkpt lat="43.712075" lon="12.7182233"><ele>508.0</ele><time>2026-04-25T12:32:04.532Z</time></trkpt><trkpt lat="43.7119833" lon="12.7182167"><ele>508.0</ele><time>2026-04-25T12:32:05.532Z</time></trkpt><trkpt lat="43.71189" lon="12.7182217"><ele>508.00000000000006</ele><time>2026-04-25T12:32:06.534Z</time></trkpt><trkpt lat="43.7117967" lon="12.71823"><ele>508.0</ele><time>2026-04-25T12:32:07.536Z</time></trkpt><trkpt lat="43.7116933" lon="12.7182467"><ele>508.83333333333337</ele><time>2026-04-25T12:32:08.532Z</time></trkpt><trkpt lat="43.711605" lon="12.7182717"><ele>509.6666666666667</ele><time>2026-04-25T12:32:09.532Z</time></trkpt><trkpt lat="43.7115183" lon="12.7182933"><ele>510.5</ele><time>2026-04-25T12:32:10.533Z</time></trkpt><trkpt lat="43.7114417" lon="12.718325"><ele>511.33333333333337</ele><time>2026-04-25T12:32:11.532Z</time></trkpt><trkpt lat="43.7113767" lon="12.718375"><ele>512.1666666666666</ele><time>2026-04-25T12:32:12.533Z</time></trkpt><trkpt lat="43.711325" lon="12.7184367"><ele>513.0</ele><time>2026-04-25T12:32:13.532Z</time></trkpt><trkpt lat="43.7112783" lon="12.718575"><ele>513.0</ele><time>2026-04-25T12:32:15.533Z</time></trkpt><trkpt lat="43.7113183" lon="12.7187283"><ele>513.0</ele><time>2026-04-25T12:32:17.535Z</time></trkpt><trkpt lat="43.7113583" lon="12.71881"><ele>513.0</ele><time>2026-04-25T12:32:18.534Z</time></trkpt><trkpt lat="43.7114017" lon="12.7189083"><ele>513.0</ele><time>2026-04-25T12:32:19.535Z</time></trkpt><trkpt lat="43.71144" lon="12.7190017"><ele>513.0</ele><time>2026-04-25T12:32:20.533Z</time></trkpt><trkpt lat="43.7114683" lon="12.7191067"><ele>513.0</ele><time>2026-04-25T12:32:21.532Z</time></trkpt><trkpt lat="43.711505" lon="12.7193517"><ele>513.6666666666666</ele><time>2026-04-25T12:32:23.531Z</time></trkpt><trkpt lat="43.7115217" lon="12.7194817"><ele>514.3333333333334</ele><time>2026-04-25T12:32:24.531Z</time></trkpt><trkpt lat="43.7115367" lon="12.7196067"><ele>515.0</ele><time>2026-04-25T12:32:25.533Z</time></trkpt><trkpt lat="43.7115533" lon="12.71973"><ele>515.6666666666667</ele><time>2026-04-25T12:32:26.531Z</time></trkpt><trkpt lat="43.71157" lon="12.7198483"><ele>516.3333333333334</ele><time>2026-04-25T12:32:27.534Z</time></trkpt><trkpt lat="43.711585" lon="12.71996"><ele>517.0</ele><time>2026-04-25T12:32:28.532Z</time></trkpt><trkpt lat="43.7116083" lon="12.720065"><ele>517.0</ele><time>2026-04-25T12:32:29.533Z</time></trkpt><trkpt lat="43.7116333" lon="12.7201667"><ele>517.0</ele><time>2026-04-25T12:32:30.532Z</time></trkpt><trkpt lat="43.711665" lon="12.7202717"><ele>517.0</ele><time>2026-04-25T12:32:31.533Z</time></trkpt><trkpt lat="43.711705" lon="12.720375"><ele>517.0</ele><time>2026-04-25T12:32:32.532Z</time></trkpt><trkpt lat="43.7117367" lon="12.72047"><ele>517.0</ele><time>2026-04-25T12:32:33.533Z</time></trkpt><trkpt lat="43.7117767" lon="12.7205533"><ele>517.0</ele><time>2026-04-25T12:32:34.532Z</time></trkpt><trkpt lat="43.711825" lon="12.7206333"><ele>515.3333333333334</ele><time>2026-04-25T12:32:35.532Z</time></trkpt><trkpt lat="43.7118733" lon="12.720715"><ele>513.6666666666667</ele><time>2026-04-25T12:32:36.535Z</time></trkpt><trkpt lat="43.7119267" lon="12.7208033"><ele>512.0</ele><time>2026-04-25T12:32:37.534Z</time></trkpt><trkpt lat="43.711975" lon="12.7208817"><ele>510.33333333333337</ele><time>2026-04-25T12:32:38.537Z</time></trkpt><trkpt lat="43.712025" lon="12.7209367"><ele>508.6666666666667</ele><time>2026-04-25T12:32:39.532Z</time></trkpt><trkpt lat="43.7121483" lon="12.7210083"><ele>507.0</ele><time>2026-04-25T12:32:41.532Z</time></trkpt><trkpt lat="43.71222" lon="12.72105"><ele>511.6</ele><time>2026-04-25T12:32:42.534Z</time></trkpt><trkpt lat="43.71236" lon="12.7211717"><ele>516.2</ele><time>2026-04-25T12:32:44.531Z</time></trkpt><trkpt lat="43.71241" lon="12.7212517"><ele>520.8</ele><time>2026-04-25T12:32:45.531Z</time></trkpt><trkpt lat="43.71245" lon="12.7213383"><ele>525.4</ele><time>2026-04-25T12:32:46.532Z</time></trkpt><trkpt lat="43.712475" lon="12.721435"><ele>530.0</ele><time>2026-04-25T12:32:47.532Z</time></trkpt><trkpt lat="43.7124833" lon="12.721535"><ele>530.0</ele><time>2026-04-25T12:32:48.532Z</time></trkpt><trkpt lat="43.71247" lon="12.7216267"><ele>530.0</ele><time>2026-04-25T12:32:49.532Z</time></trkpt><trkpt lat="43.7124667" lon="12.7217283"><ele>530.0</ele><time>2026-04-25T12:32:50.534Z</time></trkpt><trkpt lat="43.7124783" lon="12.721825"><ele>530.0</ele><time>2026-04-25T12:32:51.532Z</time></trkpt><trkpt lat="43.7125083" lon="12.721935"><ele>530.0</ele><time>2026-04-25T12:32:52.534Z</time></trkpt><trkpt lat="43.712545" lon="12.7220583"><ele>530.0</ele><time>2026-04-25T12:32:53.531Z</time></trkpt><trkpt lat="43.71258" lon="12.72218"><ele>529.1666666666666</ele><time>2026-04-25T12:32:54.532Z</time></trkpt><trkpt lat="43.7126" lon="12.722305"><ele>528.3333333333333</ele><time>2026-04-25T12:32:55.533Z</time></trkpt><trkpt lat="43.7126117" lon="12.7224283"><ele>527.5</ele><time>2026-04-25T12:32:56.532Z</time></trkpt><trkpt lat="43.7126183" lon="12.7225533"><ele>526.6666666666666</ele><time>2026-04-25T12:32:57.533Z</time></trkpt><trkpt lat="43.7126333" lon="12.7226733"><ele>525.8333333333334</ele><time>2026-04-25T12:32:58.533Z</time></trkpt><trkpt lat="43.7126617" lon="12.7227867"><ele>525.0</ele><time>2026-04-25T12:32:59.534Z</time></trkpt><trkpt lat="43.7127" lon="12.7228883"><ele>529.6</ele><time>2026-04-25T12:33:00.532Z</time></trkpt><trkpt lat="43.71275" lon="12.7229867"><ele>534.2</ele><time>2026-04-25T12:33:01.533Z</time></trkpt><trkpt lat="43.7128033" lon="12.7230817"><ele>538.8</ele><time>2026-04-25T12:33:02.532Z</time></trkpt><trkpt lat="43.7128533" lon="12.7231717"><ele>543.4</ele><time>2026-04-25T12:33:03.533Z</time></trkpt><trkpt lat="43.7129133" lon="12.723245"><ele>548.0</ele><time>2026-04-25T12:33:04.534Z</time></trkpt><trkpt lat="43.71305" lon="12.7233717"><ele>548.0000000000001</ele><time>2026-04-25T12:33:06.533Z</time></trkpt><trkpt lat="43.7131083" lon="12.7234317"><ele>548.0</ele><time>2026-04-25T12:33:07.533Z</time></trkpt><trkpt lat="43.71315" lon="12.7234983"><ele>548.0</ele><time>2026-04-25T12:33:08.533Z</time></trkpt><trkpt lat="43.7131733" lon="12.7235817"><ele>548.0</ele><time>2026-04-25T12:33:09.532Z</time></trkpt><trkpt lat="43.71318" lon="12.7236683"><ele>548.0</ele><time>2026-04-25T12:33:10.533Z</time></trkpt><trkpt lat="43.7131867" lon="12.7237717"><ele>548.0000000000001</ele><time>2026-04-25T12:33:11.533Z</time></trkpt><trkpt lat="43.7131917" lon="12.7238783"><ele>548.0</ele><time>2026-04-25T12:33:12.534Z</time></trkpt><trkpt lat="43.71321" lon="12.7239783"><ele>548.5</ele><time>2026-04-25T12:33:13.537Z</time></trkpt><trkpt lat="43.7132417" lon="12.724085"><ele>549.0</ele><time>2026-04-25T12:33:14.535Z</time></trkpt><trkpt lat="43.7132917" lon="12.7241883"><ele>549.5</ele><time>2026-04-25T12:33:15.534Z</time></trkpt><trkpt lat="43.7133417" lon="12.7242917"><ele>550.0</ele><time>2026-04-25T12:33:16.532Z</time></trkpt><trkpt lat="43.7133867" lon="12.7243833"><ele>550.5</ele><time>2026-04-25T12:33:17.532Z</time></trkpt><trkpt lat="43.7134217" lon="12.7244733"><ele>551.0</ele><time>2026-04-25T12:33:18.532Z</time></trkpt><trkpt lat="43.7134367" lon="12.7246017"><ele>551.0</ele><time>2026-04-25T12:33:20.532Z</time></trkpt><trkpt lat="43.7133333" lon="12.7246333"><ele>551.0</ele><time>2026-04-25T12:33:23.531Z</time></trkpt><trkpt lat="43.7132333" lon="12.724575"><ele>551.0</ele><time>2026-04-25T12:33:25.534Z</time></trkpt><trkpt lat="43.7131033" lon="12.7245"><ele>551.0</ele><time>2026-04-25T12:33:27.532Z</time></trkpt><trkpt lat="43.7130383" lon="12.7244567"><ele>551.0</ele><time>2026-04-25T12:33:28.533Z</time></trkpt><trkpt lat="43.7129633" lon="12.72441"><ele>549.6666666666666</ele><time>2026-04-25T12:33:29.533Z</time></trkpt><trkpt lat="43.712885" lon="12.7243617"><ele>548.3333333333333</ele><time>2026-04-25T12:33:30.535Z</time></trkpt><trkpt lat="43.71281" lon="12.724315"><ele>547.0</ele><time>2026-04-25T12:33:31.534Z</time></trkpt><trkpt lat="43.7127417" lon="12.7242717"><ele>545.6666666666666</ele><time>2026-04-25T12:33:32.533Z</time></trkpt><trkpt lat="43.7126717" lon="12.7242317"><ele>544.3333333333334</ele><time>2026-04-25T12:33:33.533Z</time></trkpt><trkpt lat="43.7126067" lon="12.724195"><ele>543.0</ele><time>2026-04-25T12:33:34.533Z</time></trkpt><trkpt lat="43.7125367" lon="12.7241483"><ele>541.8333333333334</ele><time>2026-04-25T12:33:35.537Z</time></trkpt><trkpt lat="43.71246" lon="12.7241033"><ele>540.6666666666666</ele><time>2026-04-25T12:33:36.532Z</time></trkpt><trkpt lat="43.7123733" lon="12.7240517"><ele>539.5</ele><time>2026-04-25T12:33:37.534Z</time></trkpt><trkpt lat="43.712285" lon="12.7240033"><ele>538.3333333333333</ele><time>2026-04-25T12:33:38.533Z</time></trkpt><trkpt lat="43.7121983" lon="12.7239667"><ele>537.1666666666666</ele><time>2026-04-25T12:33:39.534Z</time></trkpt><trkpt lat="43.7121217" lon="12.7239367"><ele>536.0</ele><time>2026-04-25T12:33:40.531Z</time></trkpt><trkpt lat="43.7120517" lon="12.7239167"><ele>536.0</ele><time>2026-04-25T12:33:41.532Z</time></trkpt><trkpt lat="43.7119717" lon="12.7239167"><ele>536.0</ele><time>2026-04-25T12:33:43.533Z</time></trkpt><trkpt lat="43.7119567" lon="12.7240033"><ele>536.0</ele><time>2026-04-25T12:33:46.532Z</time></trkpt><trkpt lat="43.712045" lon="12.7241683"><ele>536.0</ele><time>2026-04-25T12:33:50.532Z</time></trkpt><trkpt lat="43.7121133" lon="12.7242767"><ele>536.0</ele><time>2026-04-25T12:33:52.533Z</time></trkpt><trkpt lat="43.7121783" lon="12.724395"><ele>537.3333333333333</ele><time>2026-04-25T12:33:54.533Z</time></trkpt><trkpt lat="43.7122517" lon="12.7245217"><ele>538.6666666666666</ele><time>2026-04-25T12:33:56.532Z</time></trkpt><trkpt lat="43.7122933" lon="12.724595"><ele>540.0</ele><time>2026-04-25T12:33:57.532Z</time></trkpt><trkpt lat="43.7123333" lon="12.7246683"><ele>541.3333333333334</ele><time>2026-04-25T12:33:58.534Z</time></trkpt><trkpt lat="43.7123717" lon="12.72474"><ele>542.6666666666667</ele><time>2026-04-25T12:33:59.532Z</time></trkpt><trkpt lat="43.712415" lon="12.72483"><ele>544.0</ele><time>2026-04-25T12:34:00.533Z</time></trkpt><trkpt lat="43.712465" lon="12.724935"><ele>544.0</ele><time>2026-04-25T12:34:01.534Z</time></trkpt><trkpt lat="43.7125183" lon="12.7250517"><ele>544.0</ele><time>2026-04-25T12:34:02.532Z</time></trkpt><trkpt lat="43.7125667" lon="12.72517"><ele>544.0</ele><time>2026-04-25T12:34:03.532Z</time></trkpt><trkpt lat="43.7126167" lon="12.7252817"><ele>544.0</ele><time>2026-04-25T12:34:04.533Z</time></trkpt><trkpt lat="43.71267" lon="12.7253817"><ele>544.0</ele><time>2026-04-25T12:34:05.533Z</time></trkpt><trkpt lat="43.7127283" lon="12.7254817"><ele>549.0</ele><time>2026-04-25T12:34:06.533Z</time></trkpt><trkpt lat="43.7127817" lon="12.7255783"><ele>554.0</ele><time>2026-04-25T12:34:07.534Z</time></trkpt><trkpt lat="43.7128483" lon="12.7257567"><ele>559.0</ele><time>2026-04-25T12:34:09.535Z</time></trkpt><trkpt lat="43.712845" lon="12.7259167"><ele>564.0</ele><time>2026-04-25T12:34:11.534Z</time></trkpt><trkpt lat="43.712775" lon="12.7260333"><ele>563.8</ele><time>2026-04-25T12:34:13.533Z</time></trkpt><trkpt lat="43.71266" lon="12.72611"><ele>563.5999999999999</ele><time>2026-04-25T12:34:15.532Z</time></trkpt><trkpt lat="43.71258" lon="12.7261433"><ele>563.4</ele><time>2026-04-25T12:34:16.537Z</time></trkpt><trkpt lat="43.7124783" lon="12.7261767"><ele>563.1999999999999</ele><time>2026-04-25T12:34:17.533Z</time></trkpt><trkpt lat="43.7123733" lon="12.7262083"><ele>563.0</ele><time>2026-04-25T12:34:18.533Z</time></trkpt><trkpt lat="43.712265" lon="12.726235"><ele>563.0</ele><time>2026-04-25T12:34:19.533Z</time></trkpt><trkpt lat="43.7121617" lon="12.7262617"><ele>563.0</ele><time>2026-04-25T12:34:20.535Z</time></trkpt><trkpt lat="43.7120567" lon="12.726285"><ele>563.0</ele><time>2026-04-25T12:34:21.534Z</time></trkpt><trkpt lat="43.7119517" lon="12.7263033"><ele>563.0</ele><time>2026-04-25T12:34:22.533Z</time></trkpt><trkpt lat="43.7118517" lon="12.7263233"><ele>563.0</ele><time>2026-04-25T12:34:23.533Z</time></trkpt><trkpt lat="43.7117583" lon="12.7263467"><ele>562.1999999999999</ele><time>2026-04-25T12:34:24.534Z</time></trkpt><trkpt lat="43.7116733" lon="12.726375"><ele>561.4</ele><time>2026-04-25T12:34:25.534Z</time></trkpt><trkpt lat="43.7115867" lon="12.726405"><ele>560.5999999999999</ele><time>2026-04-25T12:34:26.533Z</time></trkpt><trkpt lat="43.7115" lon="12.7264367"><ele>559.8</ele><time>2026-04-25T12:34:27.533Z</time></trkpt><trkpt lat="43.7114217" lon="12.7264633"><ele>559.0</ele><time>2026-04-25T12:34:28.532Z</time></trkpt><trkpt lat="43.711265" lon="12.7265933"><ele>559.0</ele><time>2026-04-25T12:34:31.533Z</time></trkpt><trkpt lat="43.7112617" lon="12.72673"><ele>559.0</ele><time>2026-04-25T12:34:33.533Z</time></trkpt><trkpt lat="43.7113333" lon="12.7268583"><ele>559.0</ele><time>2026-04-25T12:34:35.532Z</time></trkpt><trkpt lat="43.7113883" lon="12.7269217"><ele>559.0</ele><time>2026-04-25T12:34:36.535Z</time></trkpt><trkpt lat="43.7114567" lon="12.7269867"><ele>559.0</ele><time>2026-04-25T12:34:37.533Z</time></trkpt><trkpt lat="43.7115267" lon="12.7270533"><ele>558.8333333333334</ele><time>2026-04-25T12:34:38.532Z</time></trkpt><trkpt lat="43.7115967" lon="12.7271117"><ele>558.6666666666667</ele><time>2026-04-25T12:34:39.532Z</time></trkpt><trkpt lat="43.7116733" lon="12.72717"><ele>558.5</ele><time>2026-04-25T12:34:40.531Z</time></trkpt><trkpt lat="43.711745" lon="12.727235"><ele>558.3333333333334</ele><time>2026-04-25T12:34:41.535Z</time></trkpt><trkpt lat="43.7118133" lon="12.7273083"><ele>558.1666666666666</ele><time>2026-04-25T12:34:42.531Z</time></trkpt><trkpt lat="43.7118783" lon="12.72739"><ele>558.0</ele><time>2026-04-25T12:34:43.536Z</time></trkpt><trkpt lat="43.7119483" lon="12.727465"><ele>558.6</ele><time>2026-04-25T12:34:44.537Z</time></trkpt><trkpt lat="43.7120267" lon="12.7275333"><ele>559.1999999999999</ele><time>2026-04-25T12:34:45.531Z</time></trkpt><trkpt lat="43.712105" lon="12.727615"><ele>559.8</ele><time>2026-04-25T12:34:46.532Z</time></trkpt><trkpt lat="43.7121783" lon="12.7277033"><ele>560.4</ele><time>2026-04-25T12:34:47.534Z</time></trkpt><trkpt lat="43.7122583" lon="12.727785"><ele>561.0</ele><time>2026-04-25T12:34:48.531Z</time></trkpt><trkpt lat="43.71234" lon="12.7278633"><ele>561.0</ele><time>2026-04-25T12:34:49.532Z</time></trkpt><trkpt lat="43.7125183" lon="12.7280067"><ele>561.0</ele><time>2026-04-25T12:34:51.533Z</time></trkpt><trkpt lat="43.7126183" lon="12.7280683"><ele>561.0</ele><time>2026-04-25T12:34:52.533Z</time></trkpt><trkpt lat="43.7127233" lon="12.7281283"><ele>561.0</ele><time>2026-04-25T12:34:53.534Z</time></trkpt><trkpt lat="43.7128383" lon="12.7281933"><ele>564.5</ele><time>2026-04-25T12:34:54.533Z</time></trkpt><trkpt lat="43.712955" lon="12.7282683"><ele>568.0</ele><time>2026-04-25T12:34:55.533Z</time></trkpt><trkpt lat="43.7130717" lon="12.7283567"><ele>571.5</ele><time>2026-04-25T12:34:56.533Z</time></trkpt><trkpt lat="43.7131883" lon="12.7284567"><ele>575.0</ele><time>2026-04-25T12:34:57.532Z</time></trkpt><trkpt lat="43.713305" lon="12.7285533"><ele>575.0</ele><time>2026-04-25T12:34:58.535Z</time></trkpt><trkpt lat="43.7134233" lon="12.72865"><ele>575.0</ele><time>2026-04-25T12:34:59.534Z</time></trkpt><trkpt lat="43.7135417" lon="12.7287383"><ele>575.0</ele><time>2026-04-25T12:35:00.533Z</time></trkpt><trkpt lat="43.7136583" lon="12.7288283"><ele>575.0</ele><time>2026-04-25T12:35:01.538Z</time></trkpt><trkpt lat="43.713775" lon="12.7289117"><ele>575.0</ele><time>2026-04-25T12:35:02.534Z</time></trkpt><trkpt lat="43.7138933" lon="12.7289933"><ele>575.0</ele><time>2026-04-25T12:35:03.533Z</time></trkpt><trkpt lat="43.7140033" lon="12.7290683"><ele>575.0</ele><time>2026-04-25T12:35:04.533Z</time></trkpt><trkpt lat="43.7141017" lon="12.7291333"><ele>575.0</ele><time>2026-04-25T12:35:05.531Z</time></trkpt><trkpt lat="43.7141883" lon="12.7291983"><ele>575.0</ele><time>2026-04-25T12:35:06.533Z</time></trkpt><trkpt lat="43.7142583" lon="12.72926"><ele>575.0</ele><time>2026-04-25T12:35:07.534Z</time></trkpt><trkpt lat="43.7143217" lon="12.72932"><ele>575.0</ele><time>2026-04-25T12:35:08.53Z</time></trkpt><trkpt lat="43.714375" lon="12.7293717"><ele>575.0</ele><time>2026-04-25T12:35:09.534Z</time></trkpt><trkpt lat="43.7144533" lon="12.729445"><ele>575.0</ele><time>2026-04-25T12:35:11.534Z</time></trkpt><trkpt lat="43.7143917" lon="12.7296017"><ele>575.0</ele><time>2026-04-25T12:35:20.533Z</time></trkpt><trkpt lat="43.714335" lon="12.7296467"><ele>573.6666666666666</ele><time>2026-04-25T12:35:21.533Z</time></trkpt><trkpt lat="43.714275" lon="12.7297167"><ele>572.3333333333333</ele><time>2026-04-25T12:35:22.536Z</time></trkpt><trkpt lat="43.7142183" lon="12.7298017"><ele>571.0</ele><time>2026-04-25T12:35:23.533Z</time></trkpt><trkpt lat="43.7141583" lon="12.7298983"><ele>569.6666666666666</ele><time>2026-04-25T12:35:24.535Z</time></trkpt><trkpt lat="43.7140983" lon="12.7299967"><ele>568.3333333333334</ele><time>2026-04-25T12:35:25.533Z</time></trkpt><trkpt lat="43.71404" lon="12.7301"><ele>567.0</ele><time>2026-04-25T12:35:26.533Z</time></trkpt><trkpt lat="43.713975" lon="12.730205"><ele>566.4</ele><time>2026-04-25T12:35:27.533Z</time></trkpt><trkpt lat="43.7139117" lon="12.7303067"><ele>565.8000000000001</ele><time>2026-04-25T12:35:28.536Z</time></trkpt><trkpt lat="43.71385" lon="12.730415"><ele>565.2</ele><time>2026-04-25T12:35:29.533Z</time></trkpt><trkpt lat="43.7137967" lon="12.73053"><ele>564.6</ele><time>2026-04-25T12:35:30.534Z</time></trkpt><trkpt lat="43.713755" lon="12.7306633"><ele>564.0</ele><time>2026-04-25T12:35:31.532Z</time></trkpt><trkpt lat="43.7137217" lon="12.7308117"><ele>565.0</ele><time>2026-04-25T12:35:32.533Z</time></trkpt><trkpt lat="43.713685" lon="12.731155"><ele>566.0</ele><time>2026-04-25T12:35:34.533Z</time></trkpt><trkpt lat="43.713675" lon="12.731335"><ele>567.0</ele><time>2026-04-25T12:35:35.532Z</time></trkpt><trkpt lat="43.7136617" lon="12.7315167"><ele>567.0</ele><time>2026-04-25T12:35:36.532Z</time></trkpt><trkpt lat="43.7136483" lon="12.7317"><ele>567.0</ele><time>2026-04-25T12:35:37.533Z</time></trkpt><trkpt lat="43.7136417" lon="12.73188"><ele>567.0</ele><time>2026-04-25T12:35:38.533Z</time></trkpt><trkpt lat="43.7136467" lon="12.7320633"><ele>567.0</ele><time>2026-04-25T12:35:39.532Z</time></trkpt><trkpt lat="43.71367" lon="12.732245"><ele>567.0</ele><time>2026-04-25T12:35:40.532Z</time></trkpt><trkpt lat="43.7137083" lon="12.7324283"><ele>567.0</ele><time>2026-04-25T12:35:41.533Z</time></trkpt><trkpt lat="43.7137533" lon="12.73262"><ele>567.0</ele><time>2026-04-25T12:35:42.532Z</time></trkpt><trkpt lat="43.7137967" lon="12.7328167"><ele>567.0</ele><time>2026-04-25T12:35:43.532Z</time></trkpt><trkpt lat="43.7138417" lon="12.73302"><ele>567.6666666666666</ele><time>2026-04-25T12:35:44.533Z</time></trkpt><trkpt lat="43.7138883" lon="12.733225"><ele>568.3333333333333</ele><time>2026-04-25T12:35:45.534Z</time></trkpt><trkpt lat="43.7139417" lon="12.7334367"><ele>569.0</ele><time>2026-04-25T12:35:46.533Z</time></trkpt><trkpt lat="43.7139983" lon="12.7336417"><ele>572.3333333333333</ele><time>2026-04-25T12:35:47.533Z</time></trkpt><trkpt lat="43.714065" lon="12.73384"><ele>575.6666666666666</ele><time>2026-04-25T12:35:48.538Z</time></trkpt><trkpt lat="43.71414" lon="12.7340317"><ele>579.0</ele><time>2026-04-25T12:35:49.532Z</time></trkpt><trkpt lat="43.7142233" lon="12.7342217"><ele>581.6666666666666</ele><time>2026-04-25T12:35:50.532Z</time></trkpt><trkpt lat="43.7143083" lon="12.7344083"><ele>584.3333333333333</ele><time>2026-04-25T12:35:51.535Z</time></trkpt><trkpt lat="43.7143967" lon="12.7346017"><ele>587.0</ele><time>2026-04-25T12:35:52.532Z</time></trkpt><trkpt lat="43.71448" lon="12.7347933"><ele>581.5</ele><time>2026-04-25T12:35:53.532Z</time></trkpt><trkpt lat="43.71465" lon="12.7351467"><ele>576.0</ele><time>2026-04-25T12:35:55.535Z</time></trkpt><trkpt lat="43.7147317" lon="12.7353133"><ele>576.0</ele><time>2026-04-25T12:35:56.532Z</time></trkpt><trkpt lat="43.7148017" lon="12.73547"><ele>576.0</ele><time>2026-04-25T12:35:57.533Z</time></trkpt><trkpt lat="43.7148717" lon="12.7356267"><ele>576.0</ele><time>2026-04-25T12:35:58.534Z</time></trkpt><trkpt lat="43.714935" lon="12.7357733"><ele>576.0</ele><time>2026-04-25T12:35:59.532Z</time></trkpt><trkpt lat="43.7149767" lon="12.73591"><ele>576.0</ele><time>2026-04-25T12:36:00.532Z</time></trkpt><trkpt lat="43.71499" lon="12.73604"><ele>576.0</ele><time>2026-04-25T12:36:01.532Z</time></trkpt><trkpt lat="43.7150033" lon="12.73615"><ele>576.0</ele><time>2026-04-25T12:36:02.532Z</time></trkpt><trkpt lat="43.7150183" lon="12.736245"><ele>576.0</ele><time>2026-04-25T12:36:03.532Z</time></trkpt><trkpt lat="43.7150633" lon="12.7363967"><ele>576.0</ele><time>2026-04-25T12:36:05.533Z</time></trkpt><trkpt lat="43.7151017" lon="12.7364867"><ele>576.0</ele><time>2026-04-25T12:36:06.534Z</time></trkpt><trkpt lat="43.7151683" lon="12.7365967"><ele>571.5</ele><time>2026-04-25T12:36:07.534Z</time></trkpt><trkpt lat="43.7152617" lon="12.7366967"><ele>567.0</ele><time>2026-04-25T12:36:08.533Z</time></trkpt><trkpt lat="43.715365" lon="12.73679"><ele>562.5</ele><time>2026-04-25T12:36:09.533Z</time></trkpt><trkpt lat="43.7154733" lon="12.7368767"><ele>558.0</ele><time>2026-04-25T12:36:10.534Z</time></trkpt><trkpt lat="43.715585" lon="12.736945"><ele>554.25</ele><time>2026-04-25T12:36:11.532Z</time></trkpt><trkpt lat="43.7157067" lon="12.7369983"><ele>550.5</ele><time>2026-04-25T12:36:12.533Z</time></trkpt><trkpt lat="43.7158367" lon="12.7370433"><ele>546.75</ele><time>2026-04-25T12:36:13.534Z</time></trkpt><trkpt lat="43.715975" lon="12.7370867"><ele>543.0</ele><time>2026-04-25T12:36:14.533Z</time></trkpt><trkpt lat="43.7162483" lon="12.73715"><ele>542.5</ele><time>2026-04-25T12:36:16.534Z</time></trkpt><trkpt lat="43.71639" lon="12.7371633"><ele>542.0</ele><time>2026-04-25T12:36:17.533Z</time></trkpt><trkpt lat="43.71653" lon="12.73717"><ele>541.5</ele><time>2026-04-25T12:36:18.533Z</time></trkpt><trkpt lat="43.71667" lon="12.7371783"><ele>541.0</ele><time>2026-04-25T12:36:19.534Z</time></trkpt><trkpt lat="43.71681" lon="12.73719"><ele>539.5</ele><time>2026-04-25T12:36:20.533Z</time></trkpt><trkpt lat="43.7169483" lon="12.7372267"><ele>538.0</ele><time>2026-04-25T12:36:21.533Z</time></trkpt><trkpt lat="43.717085" lon="12.7372833"><ele>536.5</ele><time>2026-04-25T12:36:22.532Z</time></trkpt><trkpt lat="43.717225" lon="12.73733"><ele>535.0</ele><time>2026-04-25T12:36:23.534Z</time></trkpt><trkpt lat="43.71736" lon="12.737355"><ele>535.0</ele><time>2026-04-25T12:36:24.534Z</time></trkpt><trkpt lat="43.71748" lon="12.73737"><ele>535.0</ele><time>2026-04-25T12:36:25.535Z</time></trkpt><trkpt lat="43.7175767" lon="12.73739"><ele>535.0</ele><time>2026-04-25T12:36:26.534Z</time></trkpt><trkpt lat="43.7176517" lon="12.73741"><ele>535.0</ele><time>2026-04-25T12:36:27.534Z</time></trkpt><trkpt lat="43.7177183" lon="12.7374083"><ele>535.0</ele><time>2026-04-25T12:36:28.533Z</time></trkpt><trkpt lat="43.7178183" lon="12.73733"><ele>532.8333333333334</ele><time>2026-04-25T12:36:30.532Z</time></trkpt><trkpt lat="43.7178067" lon="12.73724"><ele>530.6666666666667</ele><time>2026-04-25T12:36:31.532Z</time></trkpt><trkpt lat="43.7177583" lon="12.7371233"><ele>528.5</ele><time>2026-04-25T12:36:32.534Z</time></trkpt><trkpt lat="43.71774" lon="12.7370183"><ele>526.3333333333334</ele><time>2026-04-25T12:36:33.532Z</time></trkpt><trkpt lat="43.7177383" lon="12.7369117"><ele>524.1666666666666</ele><time>2026-04-25T12:36:34.532Z</time></trkpt><trkpt lat="43.7177617" lon="12.7368233"><ele>522.0</ele><time>2026-04-25T12:36:35.532Z</time></trkpt><trkpt lat="43.7179067" lon="12.7367167"><ele>521.75</ele><time>2026-04-25T12:36:37.535Z</time></trkpt><trkpt lat="43.7180417" lon="12.7367083"><ele>521.5</ele><time>2026-04-25T12:36:38.532Z</time></trkpt><trkpt lat="43.7182083" lon="12.7367267"><ele>521.25</ele><time>2026-04-25T12:36:39.534Z</time></trkpt><trkpt lat="43.7183417" lon="12.7367433"><ele>521.0</ele><time>2026-04-25T12:36:40.534Z</time></trkpt><trkpt lat="43.7184733" lon="12.7367917"><ele>518.0</ele><time>2026-04-25T12:36:41.531Z</time></trkpt><trkpt lat="43.7185833" lon="12.7368767"><ele>515.0</ele><time>2026-04-25T12:36:42.531Z</time></trkpt><trkpt lat="43.718675" lon="12.73701"><ele>512.0</ele><time>2026-04-25T12:36:43.532Z</time></trkpt><trkpt lat="43.7187433" lon="12.73715"><ele>509.0</ele><time>2026-04-25T12:36:44.533Z</time></trkpt><trkpt lat="43.7187967" lon="12.7372933"><ele>508.99999999999994</ele><time>2026-04-25T12:36:45.536Z</time></trkpt><trkpt lat="43.7188467" lon="12.737405"><ele>509.0</ele><time>2026-04-25T12:36:46.532Z</time></trkpt><trkpt lat="43.7189117" lon="12.7374883"><ele>509.0</ele><time>2026-04-25T12:36:47.534Z</time></trkpt><trkpt lat="43.7189817" lon="12.737555"><ele>509.0</ele><time>2026-04-25T12:36:48.533Z</time></trkpt><trkpt lat="43.7190567" lon="12.7375817"><ele>508.99999999999994</ele><time>2026-04-25T12:36:49.533Z</time></trkpt><trkpt lat="43.719135" lon="12.73755"><ele>509.0</ele><time>2026-04-25T12:36:50.533Z</time></trkpt><trkpt lat="43.7192133" lon="12.7374567"><ele>509.0</ele><time>2026-04-25T12:36:51.532Z</time></trkpt><trkpt lat="43.71929" lon="12.73735"><ele>509.0</ele><time>2026-04-25T12:36:52.534Z</time></trkpt><trkpt lat="43.7193483" lon="12.7371917"><ele>509.0</ele><time>2026-04-25T12:36:53.535Z</time></trkpt><trkpt lat="43.7193767" lon="12.7370467"><ele>509.0</ele><time>2026-04-25T12:36:54.532Z</time></trkpt><trkpt lat="43.719415" lon="12.7369233"><ele>509.0</ele><time>2026-04-25T12:36:55.534Z</time></trkpt><trkpt lat="43.7194433" lon="12.73682"><ele>506.0</ele><time>2026-04-25T12:36:56.533Z</time></trkpt><trkpt lat="43.7196017" lon="12.7368217"><ele>503.0</ele><time>2026-04-25T12:36:59.532Z</time></trkpt><trkpt lat="43.7196817" lon="12.73692"><ele>500.0</ele><time>2026-04-25T12:37:00.538Z</time></trkpt><trkpt lat="43.7197633" lon="12.736965"><ele>497.0</ele><time>2026-04-25T12:37:01.533Z</time></trkpt><trkpt lat="43.719845" lon="12.7369867"><ele>494.0</ele><time>2026-04-25T12:37:02.531Z</time></trkpt><trkpt lat="43.7199117" lon="12.7369833"><ele>494.0</ele><time>2026-04-25T12:37:03.532Z</time></trkpt><trkpt lat="43.7200283" lon="12.736905"><ele>494.0</ele><time>2026-04-25T12:37:05.532Z</time></trkpt><trkpt lat="43.7200783" lon="12.736795"><ele>494.0</ele><time>2026-04-25T12:37:06.533Z</time></trkpt><trkpt lat="43.72009" lon="12.7365817"><ele>494.0</ele><time>2026-04-25T12:37:07.533Z</time></trkpt><trkpt lat="43.7200967" lon="12.7363433"><ele>492.25</ele><time>2026-04-25T12:37:08.538Z</time></trkpt><trkpt lat="43.720135" lon="12.7361167"><ele>490.5</ele><time>2026-04-25T12:37:09.534Z</time></trkpt><trkpt lat="43.720185" lon="12.7359317"><ele>488.75</ele><time>2026-04-25T12:37:10.533Z</time></trkpt><trkpt lat="43.720225" lon="12.7357617"><ele>487.0</ele><time>2026-04-25T12:37:11.535Z</time></trkpt><trkpt lat="43.7202583" lon="12.73562"><ele>482.8</ele><time>2026-04-25T12:37:12.532Z</time></trkpt><trkpt lat="43.7202867" lon="12.7355017"><ele>478.6</ele><time>2026-04-25T12:37:13.534Z</time></trkpt><trkpt lat="43.7203117" lon="12.7353967"><ele>474.40000000000003</ele><time>2026-04-25T12:37:14.532Z</time></trkpt><trkpt lat="43.7203817" lon="12.7353333"><ele>470.20000000000005</ele><time>2026-04-25T12:37:16.538Z</time></trkpt><trkpt lat="43.7204917" lon="12.735355"><ele>466.0</ele><time>2026-04-25T12:37:18.533Z</time></trkpt><trkpt lat="43.7205917" lon="12.7351783"><ele>466.0</ele><time>2026-04-25T12:37:21.532Z</time></trkpt><trkpt lat="43.7206417" lon="12.73506"><ele>466.0</ele><time>2026-04-25T12:37:23.533Z</time></trkpt><trkpt lat="43.7207533" lon="12.7351833"><ele>466.0</ele><time>2026-04-25T12:37:26.533Z</time></trkpt><trkpt lat="43.7208383" lon="12.7353683"><ele>466.0</ele><time>2026-04-25T12:37:27.532Z</time></trkpt><trkpt lat="43.72092" lon="12.73548"><ele>466.0</ele><time>2026-04-25T12:37:28.534Z</time></trkpt><trkpt lat="43.7210183" lon="12.73557"><ele>466.0</ele><time>2026-04-25T12:37:29.533Z</time></trkpt><trkpt lat="43.7211233" lon="12.73565"><ele>466.0</ele><time>2026-04-25T12:37:30.535Z</time></trkpt><trkpt lat="43.7212267" lon="12.7357067"><ele>466.0</ele><time>2026-04-25T12:37:31.533Z</time></trkpt><trkpt lat="43.721335" lon="12.73578"><ele>464.0</ele><time>2026-04-25T12:37:32.535Z</time></trkpt><trkpt lat="43.72145" lon="12.7358683"><ele>462.0</ele><time>2026-04-25T12:37:33.533Z</time></trkpt><trkpt lat="43.7215683" lon="12.7359833"><ele>460.0</ele><time>2026-04-25T12:37:34.533Z</time></trkpt><trkpt lat="43.7216817" lon="12.7361133"><ele>458.0</ele><time>2026-04-25T12:37:35.535Z</time></trkpt><trkpt lat="43.7217867" lon="12.7362417"><ele>458.0</ele><time>2026-04-25T12:37:36.533Z</time></trkpt><trkpt lat="43.721895" lon="12.73637"><ele>458.0</ele><time>2026-04-25T12:37:37.534Z</time></trkpt><trkpt lat="43.7220067" lon="12.7364967"><ele>458.0</ele><time>2026-04-25T12:37:38.533Z</time></trkpt><trkpt lat="43.722135" lon="12.7366017"><ele>458.0</ele><time>2026-04-25T12:37:39.532Z</time></trkpt><trkpt lat="43.7224083" lon="12.7367583"><ele>454.0</ele><time>2026-04-25T12:37:41.533Z</time></trkpt><trkpt lat="43.722535" lon="12.7368183"><ele>450.0</ele><time>2026-04-25T12:37:42.534Z</time></trkpt><trkpt lat="43.7226583" lon="12.7368833"><ele>446.0</ele><time>2026-04-25T12:37:43.535Z</time></trkpt><trkpt lat="43.7227783" lon="12.736975"><ele>442.0</ele><time>2026-04-25T12:37:44.534Z</time></trkpt><trkpt lat="43.7228933" lon="12.73708"><ele>440.75</ele><time>2026-04-25T12:37:45.531Z</time></trkpt><trkpt lat="43.722995" lon="12.737195"><ele>439.5</ele><time>2026-04-25T12:37:46.532Z</time></trkpt><trkpt lat="43.7231" lon="12.7372933"><ele>438.25</ele><time>2026-04-25T12:37:47.534Z</time></trkpt><trkpt lat="43.7232183" lon="12.7373717"><ele>437.0</ele><time>2026-04-25T12:37:48.535Z</time></trkpt><trkpt lat="43.72335" lon="12.7374433"><ele>437.0</ele><time>2026-04-25T12:37:49.534Z</time></trkpt><trkpt lat="43.7234767" lon="12.7375117"><ele>437.0</ele><time>2026-04-25T12:37:50.532Z</time></trkpt><trkpt lat="43.7236" lon="12.73756"><ele>437.0</ele><time>2026-04-25T12:37:51.532Z</time></trkpt><trkpt lat="43.7237417" lon="12.7375783"><ele>437.0</ele><time>2026-04-25T12:37:52.532Z</time></trkpt><trkpt lat="43.7238933" lon="12.737575"><ele>435.3333333333333</ele><time>2026-04-25T12:37:53.532Z</time></trkpt><trkpt lat="43.7240483" lon="12.7375667"><ele>433.66666666666663</ele><time>2026-04-25T12:37:54.532Z</time></trkpt><trkpt lat="43.724205" lon="12.737565"><ele>432.0</ele><time>2026-04-25T12:37:55.533Z</time></trkpt><trkpt lat="43.724355" lon="12.7375833"><ele>431.75</ele><time>2026-04-25T12:37:56.532Z</time></trkpt><trkpt lat="43.7244967" lon="12.7376233"><ele>431.5</ele><time>2026-04-25T12:37:57.532Z</time></trkpt><trkpt lat="43.7246333" lon="12.737685"><ele>431.25</ele><time>2026-04-25T12:37:58.532Z</time></trkpt><trkpt lat="43.7247683" lon="12.737765"><ele>431.0</ele><time>2026-04-25T12:37:59.532Z</time></trkpt><trkpt lat="43.7249033" lon="12.7378567"><ele>428.66666666666663</ele><time>2026-04-25T12:38:00.532Z</time></trkpt><trkpt lat="43.725165" lon="12.7380633"><ele>426.33333333333337</ele><time>2026-04-25T12:38:02.532Z</time></trkpt><trkpt lat="43.72529" lon="12.7381583"><ele>424.0</ele><time>2026-04-25T12:38:03.532Z</time></trkpt><trkpt lat="43.72541" lon="12.7382433"><ele>424.0</ele><time>2026-04-25T12:38:04.532Z</time></trkpt><trkpt lat="43.72552" lon="12.7383217"><ele>424.0</ele><time>2026-04-25T12:38:05.532Z</time></trkpt><trkpt lat="43.72562" lon="12.738385"><ele>424.0</ele><time>2026-04-25T12:38:06.533Z</time></trkpt><trkpt lat="43.725705" lon="12.738445"><ele>424.0</ele><time>2026-04-25T12:38:07.534Z</time></trkpt><trkpt lat="43.7257733" lon="12.73852"><ele>424.0</ele><time>2026-04-25T12:38:08.534Z</time></trkpt><trkpt lat="43.725825" lon="12.73861"><ele>421.50000000000006</ele><time>2026-04-25T12:38:09.532Z</time></trkpt><trkpt lat="43.7258667" lon="12.7387183"><ele>419.0</ele><time>2026-04-25T12:38:10.532Z</time></trkpt><trkpt lat="43.7258917" lon="12.7388467"><ele>416.5</ele><time>2026-04-25T12:38:11.534Z</time></trkpt><trkpt lat="43.7259083" lon="12.7389633"><ele>414.0</ele><time>2026-04-25T12:38:12.534Z</time></trkpt><trkpt lat="43.7259283" lon="12.7390617"><ele>411.50000000000006</ele><time>2026-04-25T12:38:13.534Z</time></trkpt><trkpt lat="43.7259567" lon="12.739145"><ele>409.0</ele><time>2026-04-25T12:38:14.53Z</time></trkpt><trkpt lat="43.7260283" lon="12.7392433"><ele>407.2</ele><time>2026-04-25T12:38:16.537Z</time></trkpt><trkpt lat="43.7261183" lon="12.7391583"><ele>405.4</ele><time>2026-04-25T12:38:18.534Z</time></trkpt><trkpt lat="43.7261783" lon="12.73904"><ele>403.6</ele><time>2026-04-25T12:38:19.533Z</time></trkpt><trkpt lat="43.7262417" lon="12.7389117"><ele>401.8</ele><time>2026-04-25T12:38:20.533Z</time></trkpt><trkpt lat="43.7263117" lon="12.7388233"><ele>400.0</ele><time>2026-04-25T12:38:21.532Z</time></trkpt><trkpt lat="43.7265167" lon="12.7387083"><ele>400.0</ele><time>2026-04-25T12:38:23.533Z</time></trkpt><trkpt lat="43.7266433" lon="12.73867"><ele>400.0</ele><time>2026-04-25T12:38:24.535Z</time></trkpt><trkpt lat="43.726775" lon="12.7386283"><ele>400.0</ele><time>2026-04-25T12:38:25.535Z</time></trkpt><trkpt lat="43.7269083" lon="12.7385867"><ele>400.0</ele><time>2026-04-25T12:38:26.53Z</time></trkpt><trkpt lat="43.7270333" lon="12.7385533"><ele>400.4</ele><time>2026-04-25T12:38:27.531Z</time></trkpt><trkpt lat="43.7271467" lon="12.7385217"><ele>400.8</ele><time>2026-04-25T12:38:28.534Z</time></trkpt><trkpt lat="43.7272483" lon="12.7384883"><ele>401.20000000000005</ele><time>2026-04-25T12:38:29.53Z</time></trkpt><trkpt lat="43.7273433" lon="12.7384533"><ele>401.6</ele><time>2026-04-25T12:38:30.533Z</time></trkpt><trkpt lat="43.727425" lon="12.7383967"><ele>402.0</ele><time>2026-04-25T12:38:31.533Z</time></trkpt><trkpt lat="43.7274933" lon="12.7383"><ele>402.0</ele><time>2026-04-25T12:38:32.531Z</time></trkpt><trkpt lat="43.7275567" lon="12.738175"><ele>402.0</ele><time>2026-04-25T12:38:33.532Z</time></trkpt><trkpt lat="43.7276283" lon="12.7380217"><ele>402.0</ele><time>2026-04-25T12:38:34.534Z</time></trkpt><trkpt lat="43.7277017" lon="12.7378517"><ele>402.0</ele><time>2026-04-25T12:38:35.533Z</time></trkpt><trkpt lat="43.7277783" lon="12.73767"><ele>404.33333333333337</ele><time>2026-04-25T12:38:36.533Z</time></trkpt><trkpt lat="43.7278567" lon="12.7374817"><ele>406.6666666666667</ele><time>2026-04-25T12:38:37.534Z</time></trkpt><trkpt lat="43.727935" lon="12.7372933"><ele>409.0</ele><time>2026-04-25T12:38:38.534Z</time></trkpt><trkpt lat="43.72801" lon="12.7371"><ele>409.0</ele><time>2026-04-25T12:38:39.532Z</time></trkpt><trkpt lat="43.7280833" lon="12.7369233"><ele>409.0</ele><time>2026-04-25T12:38:40.532Z</time></trkpt><trkpt lat="43.7281467" lon="12.73677"><ele>409.0</ele><time>2026-04-25T12:38:41.533Z</time></trkpt><trkpt lat="43.7282117" lon="12.7366433"><ele>409.0</ele><time>2026-04-25T12:38:42.532Z</time></trkpt><trkpt lat="43.728345" lon="12.736415"><ele>406.75</ele><time>2026-04-25T12:38:44.532Z</time></trkpt><trkpt lat="43.7284233" lon="12.7363067"><ele>404.5</ele><time>2026-04-25T12:38:45.532Z</time></trkpt><trkpt lat="43.7285" lon="12.7361883"><ele>402.25</ele><time>2026-04-25T12:38:46.534Z</time></trkpt><trkpt lat="43.7285617" lon="12.73605"><ele>400.0</ele><time>2026-04-25T12:38:47.533Z</time></trkpt><trkpt lat="43.7286067" lon="12.7358867"><ele>400.4</ele><time>2026-04-25T12:38:48.533Z</time></trkpt><trkpt lat="43.72863" lon="12.735715"><ele>400.8</ele><time>2026-04-25T12:38:49.534Z</time></trkpt><trkpt lat="43.7286367" lon="12.73555"><ele>401.20000000000005</ele><time>2026-04-25T12:38:50.534Z</time></trkpt><trkpt lat="43.72864" lon="12.7354033"><ele>401.6</ele><time>2026-04-25T12:38:51.532Z</time></trkpt><trkpt lat="43.7286483" lon="12.7352767"><ele>402.0</ele><time>2026-04-25T12:38:52.532Z</time></trkpt><trkpt lat="43.728665" lon="12.7351617"><ele>402.0</ele><time>2026-04-25T12:38:53.533Z</time></trkpt><trkpt lat="43.7286883" lon="12.7350483"><ele>402.0</ele><time>2026-04-25T12:38:54.533Z</time></trkpt><trkpt lat="43.728735" lon="12.734945"><ele>402.0</ele><time>2026-04-25T12:38:55.531Z</time></trkpt><trkpt lat="43.7287967" lon="12.7348333"><ele>402.0</ele><time>2026-04-25T12:38:56.531Z</time></trkpt><trkpt lat="43.72887" lon="12.7347167"><ele>402.0</ele><time>2026-04-25T12:38:57.531Z</time></trkpt><trkpt lat="43.7289417" lon="12.7345933"><ele>402.0</ele><time>2026-04-25T12:38:58.532Z</time></trkpt><trkpt lat="43.7290133" lon="12.7344767"><ele>402.0</ele><time>2026-04-25T12:38:59.532Z</time></trkpt><trkpt lat="43.7290867" lon="12.734365"><ele>402.0</ele><time>2026-04-25T12:39:00.532Z</time></trkpt><trkpt lat="43.7291633" lon="12.7342583"><ele>402.0</ele><time>2026-04-25T12:39:01.532Z</time></trkpt><trkpt lat="43.7292367" lon="12.7341633"><ele>402.0</ele><time>2026-04-25T12:39:02.531Z</time></trkpt><trkpt lat="43.7293183" lon="12.7340867"><ele>400.0</ele><time>2026-04-25T12:39:03.531Z</time></trkpt><trkpt lat="43.7295083" lon="12.7340067"><ele>398.0</ele><time>2026-04-25T12:39:05.533Z</time></trkpt><trkpt lat="43.7296267" lon="12.7339917"><ele>396.0</ele><time>2026-04-25T12:39:06.533Z</time></trkpt><trkpt lat="43.7297533" lon="12.7339733"><ele>394.0</ele><time>2026-04-25T12:39:07.533Z</time></trkpt><trkpt lat="43.72988" lon="12.7339483"><ele>394.0</ele><time>2026-04-25T12:39:08.531Z</time></trkpt><trkpt lat="43.7300083" lon="12.7339117"><ele>394.0</ele><time>2026-04-25T12:39:09.532Z</time></trkpt><trkpt lat="43.7301333" lon="12.733885"><ele>394.0</ele><time>2026-04-25T12:39:10.531Z</time></trkpt><trkpt lat="43.7302617" lon="12.7338533"><ele>394.0</ele><time>2026-04-25T12:39:11.532Z</time></trkpt><trkpt lat="43.730385" lon="12.7338067"><ele>397.75</ele><time>2026-04-25T12:39:12.532Z</time></trkpt><trkpt lat="43.7305" lon="12.73373"><ele>401.5</ele><time>2026-04-25T12:39:13.532Z</time></trkpt><trkpt lat="43.7306083" lon="12.7336617"><ele>405.25</ele><time>2026-04-25T12:39:14.531Z</time></trkpt><trkpt lat="43.730725" lon="12.73359"><ele>409.0</ele><time>2026-04-25T12:39:15.532Z</time></trkpt><trkpt lat="43.7308317" lon="12.7335317"><ele>400.0</ele><time>2026-04-25T12:39:16.532Z</time></trkpt><trkpt lat="43.7309433" lon="12.7334883"><ele>391.0</ele><time>2026-04-25T12:39:17.532Z</time></trkpt><trkpt lat="43.7310633" lon="12.733455"><ele>382.0</ele><time>2026-04-25T12:39:18.532Z</time></trkpt><trkpt lat="43.73118" lon="12.7334083"><ele>373.0</ele><time>2026-04-25T12:39:19.533Z</time></trkpt><trkpt lat="43.7312833" lon="12.7333433"><ele>373.0</ele><time>2026-04-25T12:39:20.531Z</time></trkpt><trkpt lat="43.731385" lon="12.7332667"><ele>373.0</ele><time>2026-04-25T12:39:21.533Z</time></trkpt><trkpt lat="43.7314717" lon="12.7331883"><ele>373.0</ele><time>2026-04-25T12:39:22.534Z</time></trkpt><trkpt lat="43.7315517" lon="12.7331333"><ele>373.0</ele><time>2026-04-25T12:39:23.531Z</time></trkpt><trkpt lat="43.7316317" lon="12.7330933"><ele>373.0</ele><time>2026-04-25T12:39:24.532Z</time></trkpt><trkpt lat="43.7317783" lon="12.7331183"><ele>373.0</ele><time>2026-04-25T12:39:26.533Z</time></trkpt><trkpt lat="43.7318317" lon="12.7332017"><ele>373.0</ele><time>2026-04-25T12:39:27.532Z</time></trkpt><trkpt lat="43.7318933" lon="12.7332667"><ele>373.0</ele><time>2026-04-25T12:39:28.532Z</time></trkpt><trkpt lat="43.7319517" lon="12.7333217"><ele>373.0</ele><time>2026-04-25T12:39:29.533Z</time></trkpt><trkpt lat="43.732035" lon="12.733385"><ele>373.0</ele><time>2026-04-25T12:39:31.531Z</time></trkpt><trkpt lat="43.7321067" lon="12.7333867"><ele>373.0</ele><time>2026-04-25T12:39:34.532Z</time></trkpt><trkpt lat="43.7321783" lon="12.73335"><ele>374.25</ele><time>2026-04-25T12:54:28.532Z</time></trkpt><trkpt lat="43.7323417" lon="12.7331517"><ele>375.5</ele><time>2026-04-25T12:54:31.532Z</time></trkpt><trkpt lat="43.7324083" lon="12.733075"><ele>376.75</ele><time>2026-04-25T12:54:32.534Z</time></trkpt><trkpt lat="43.7324783" lon="12.7329967"><ele>378.0</ele><time>2026-04-25T12:54:33.534Z</time></trkpt><trkpt lat="43.73255" lon="12.7329283"><ele>378.0</ele><time>2026-04-25T12:54:34.536Z</time></trkpt><trkpt lat="43.73263" lon="12.7328767"><ele>378.0</ele><time>2026-04-25T12:54:35.533Z</time></trkpt><trkpt lat="43.732705" lon="12.73283"><ele>378.0</ele><time>2026-04-25T12:54:36.535Z</time></trkpt><trkpt lat="43.7327783" lon="12.7327917"><ele>378.0</ele><time>2026-04-25T12:54:37.533Z</time></trkpt><trkpt lat="43.7328567" lon="12.7327817"><ele>378.0</ele><time>2026-04-25T12:54:38.532Z</time></trkpt><trkpt lat="43.7329417" lon="12.7327983"><ele>378.0</ele><time>2026-04-25T12:54:39.536Z</time></trkpt><trkpt lat="43.7330483" lon="12.7328883"><ele>376.0</ele><time>2026-04-25T12:54:40.533Z</time></trkpt><trkpt lat="43.7331617" lon="12.7329817"><ele>374.0</ele><time>2026-04-25T12:54:41.534Z</time></trkpt><trkpt lat="43.7332883" lon="12.7331067"><ele>372.0</ele><time>2026-04-25T12:54:42.536Z</time></trkpt><trkpt lat="43.7334133" lon="12.7332167"><ele>370.0</ele><time>2026-04-25T12:54:43.536Z</time></trkpt><trkpt lat="43.7335267" lon="12.73329"><ele>366.66666666666663</ele><time>2026-04-25T12:54:44.536Z</time></trkpt><trkpt lat="43.733625" lon="12.7333467"><ele>363.3333333333333</ele><time>2026-04-25T12:54:45.532Z</time></trkpt><trkpt lat="43.73371" lon="12.7333883"><ele>360.0</ele><time>2026-04-25T12:54:46.531Z</time></trkpt><trkpt lat="43.733775" lon="12.733445"><ele>356.6666666666667</ele><time>2026-04-25T12:54:47.532Z</time></trkpt><trkpt lat="43.7338217" lon="12.7335183"><ele>353.33333333333337</ele><time>2026-04-25T12:54:48.532Z</time></trkpt><trkpt lat="43.7338367" lon="12.733625"><ele>350.0</ele><time>2026-04-25T12:54:49.535Z</time></trkpt><trkpt lat="43.7338167" lon="12.7339167"><ele>350.0</ele><time>2026-04-25T12:54:51.533Z</time></trkpt><trkpt lat="43.7338517" lon="12.734055"><ele>350.0</ele><time>2026-04-25T12:54:52.535Z</time></trkpt><trkpt lat="43.733905" lon="12.7341833"><ele>350.0</ele><time>2026-04-25T12:54:53.532Z</time></trkpt><trkpt lat="43.7339683" lon="12.734305"><ele>350.0</ele><time>2026-04-25T12:54:54.534Z</time></trkpt><trkpt lat="43.734045" lon="12.7344167"><ele>350.0</ele><time>2026-04-25T12:54:55.535Z</time></trkpt><trkpt lat="43.7341183" lon="12.73452"><ele>351.1666666666667</ele><time>2026-04-25T12:54:56.535Z</time></trkpt><trkpt lat="43.7341917" lon="12.7346217"><ele>352.33333333333337</ele><time>2026-04-25T12:54:57.532Z</time></trkpt><trkpt lat="43.7342633" lon="12.7347083"><ele>353.5</ele><time>2026-04-25T12:54:58.533Z</time></trkpt><trkpt lat="43.7343383" lon="12.7347717"><ele>354.6666666666667</ele><time>2026-04-25T12:54:59.533Z</time></trkpt><trkpt lat="43.734415" lon="12.7348067"><ele>355.8333333333333</ele><time>2026-04-25T12:55:00.535Z</time></trkpt><trkpt lat="43.7344917" lon="12.7348067"><ele>357.0</ele><time>2026-04-25T12:55:01.535Z</time></trkpt><trkpt lat="43.734595" lon="12.7347933"><ele>357.0</ele><time>2026-04-25T12:55:02.535Z</time></trkpt><trkpt lat="43.7347167" lon="12.7347767"><ele>357.0</ele><time>2026-04-25T12:55:03.535Z</time></trkpt><trkpt lat="43.7348317" lon="12.734765"><ele>357.0</ele><time>2026-04-25T12:55:04.535Z</time></trkpt><trkpt lat="43.73494" lon="12.734765"><ele>357.0</ele><time>2026-04-25T12:55:05.531Z</time></trkpt><trkpt lat="43.7350417" lon="12.73477"><ele>357.0</ele><time>2026-04-25T12:55:06.536Z</time></trkpt><trkpt lat="43.73513" lon="12.73479"><ele>357.0</ele><time>2026-04-25T12:55:07.534Z</time></trkpt><trkpt lat="43.7352067" lon="12.7348383"><ele>357.0</ele><time>2026-04-25T12:55:08.534Z</time></trkpt><trkpt lat="43.7352783" lon="12.73491"><ele>357.0</ele><time>2026-04-25T12:55:09.534Z</time></trkpt><trkpt lat="43.7353333" lon="12.7350133"><ele>357.0</ele><time>2026-04-25T12:55:10.534Z</time></trkpt><trkpt lat="43.7354433" lon="12.7352817"><ele>355.5</ele><time>2026-04-25T12:55:12.535Z</time></trkpt><trkpt lat="43.7355033" lon="12.7354283"><ele>354.0</ele><time>2026-04-25T12:55:13.533Z</time></trkpt><trkpt lat="43.7355617" lon="12.7355833"><ele>352.5</ele><time>2026-04-25T12:55:14.532Z</time></trkpt><trkpt lat="43.7356267" lon="12.7357417"><ele>351.0</ele><time>2026-04-25T12:55:15.533Z</time></trkpt><trkpt lat="43.7356833" lon="12.7358967"><ele>351.0</ele><time>2026-04-25T12:55:16.532Z</time></trkpt><trkpt lat="43.735745" lon="12.7360417"><ele>351.0</ele><time>2026-04-25T12:55:17.533Z</time></trkpt><trkpt lat="43.7358067" lon="12.7361883"><ele>351.0</ele><time>2026-04-25T12:55:18.534Z</time></trkpt><trkpt lat="43.73588" lon="12.7363183"><ele>351.0</ele><time>2026-04-25T12:55:19.534Z</time></trkpt><trkpt lat="43.7359717" lon="12.7364383"><ele>349.5</ele><time>2026-04-25T12:55:20.534Z</time></trkpt><trkpt lat="43.7360717" lon="12.7365533"><ele>348.0</ele><time>2026-04-25T12:55:21.533Z</time></trkpt><trkpt lat="43.7361733" lon="12.7366517"><ele>346.5</ele><time>2026-04-25T12:55:22.532Z</time></trkpt><trkpt lat="43.7362717" lon="12.7367367"><ele>345.0</ele><time>2026-04-25T12:55:23.533Z</time></trkpt><trkpt lat="43.7363633" lon="12.736805"><ele>345.0</ele><time>2026-04-25T12:55:24.535Z</time></trkpt><trkpt lat="43.7364467" lon="12.7368533"><ele>345.0</ele><time>2026-04-25T12:55:25.533Z</time></trkpt><trkpt lat="43.736525" lon="12.7368767"><ele>345.0</ele><time>2026-04-25T12:55:26.534Z</time></trkpt><trkpt lat="43.7365967" lon="12.7368583"><ele>345.0</ele><time>2026-04-25T12:55:27.534Z</time></trkpt><trkpt lat="43.736655" lon="12.7368083"><ele>345.0</ele><time>2026-04-25T12:55:28.533Z</time></trkpt><trkpt lat="43.7367067" lon="12.7367083"><ele>345.0</ele><time>2026-04-25T12:55:29.534Z</time></trkpt><trkpt lat="43.73677" lon="12.7365983"><ele>345.0</ele><time>2026-04-25T12:55:30.535Z</time></trkpt><trkpt lat="43.7368417" lon="12.73644"><ele>345.0</ele><time>2026-04-25T12:55:31.535Z</time></trkpt><trkpt lat="43.736995" lon="12.7361567"><ele>345.0</ele><time>2026-04-25T12:55:33.534Z</time></trkpt><trkpt lat="43.7370817" lon="12.7360433"><ele>340.75</ele><time>2026-04-25T12:55:34.534Z</time></trkpt><trkpt lat="43.7371767" lon="12.73595"><ele>336.5</ele><time>2026-04-25T12:55:35.532Z</time></trkpt><trkpt lat="43.73728" lon="12.7358683"><ele>332.25</ele><time>2026-04-25T12:55:36.534Z</time></trkpt><trkpt lat="43.7373883" lon="12.73579"><ele>328.0</ele><time>2026-04-25T12:55:37.535Z</time></trkpt><trkpt lat="43.7374933" lon="12.7356917"><ele>328.0</ele><time>2026-04-25T12:55:38.535Z</time></trkpt><trkpt lat="43.7376" lon="12.7355733"><ele>328.0</ele><time>2026-04-25T12:55:39.531Z</time></trkpt><trkpt lat="43.7377" lon="12.7354417"><ele>328.0</ele><time>2026-04-25T12:55:40.534Z</time></trkpt><trkpt lat="43.7377933" lon="12.7353133"><ele>328.0</ele><time>2026-04-25T12:55:41.536Z</time></trkpt><trkpt lat="43.737895" lon="12.7351967"><ele>328.0</ele><time>2026-04-25T12:55:42.535Z</time></trkpt><trkpt lat="43.7380067" lon="12.7351"><ele>328.0</ele><time>2026-04-25T12:55:43.534Z</time></trkpt><trkpt lat="43.7381233" lon="12.7350267"><ele>328.0</ele><time>2026-04-25T12:55:44.531Z</time></trkpt><trkpt lat="43.7382383" lon="12.7349717"><ele>328.0</ele><time>2026-04-25T12:55:45.531Z</time></trkpt><trkpt lat="43.7383483" lon="12.7349383"><ele>328.0</ele><time>2026-04-25T12:55:46.531Z</time></trkpt><trkpt lat="43.738455" lon="12.7349233"><ele>328.0</ele><time>2026-04-25T12:55:47.531Z</time></trkpt><trkpt lat="43.738545" lon="12.7349"><ele>328.0</ele><time>2026-04-25T12:55:48.532Z</time></trkpt><trkpt lat="43.7386333" lon="12.73484"><ele>328.0</ele><time>2026-04-25T12:55:49.531Z</time></trkpt><trkpt lat="43.73872" lon="12.7347533"><ele>328.0</ele><time>2026-04-25T12:55:50.532Z</time></trkpt><trkpt lat="43.7388067" lon="12.734645"><ele>326.3333333333333</ele><time>2026-04-25T12:55:51.531Z</time></trkpt><trkpt lat="43.7389017" lon="12.734535"><ele>324.6666666666667</ele><time>2026-04-25T12:55:52.534Z</time></trkpt><trkpt lat="43.7391117" lon="12.7343617"><ele>323.0</ele><time>2026-04-25T12:55:54.531Z</time></trkpt><trkpt lat="43.7392433" lon="12.7342917"><ele>320.33333333333337</ele><time>2026-04-25T12:55:55.535Z</time></trkpt><trkpt lat="43.7393817" lon="12.73422"><ele>317.6666666666667</ele><time>2026-04-25T12:55:56.531Z</time></trkpt><trkpt lat="43.7395317" lon="12.73415"><ele>315.0</ele><time>2026-04-25T12:55:57.531Z</time></trkpt><trkpt lat="43.739685" lon="12.7340917"><ele>314.25</ele><time>2026-04-25T12:55:58.531Z</time></trkpt><trkpt lat="43.7398267" lon="12.734065"><ele>313.5</ele><time>2026-04-25T12:55:59.531Z</time></trkpt><trkpt lat="43.7399633" lon="12.73408"><ele>312.75</ele><time>2026-04-25T12:56:00.532Z</time></trkpt><trkpt lat="43.7400717" lon="12.7341617"><ele>312.0</ele><time>2026-04-25T12:56:01.533Z</time></trkpt><trkpt lat="43.7401583" lon="12.7343"><ele>311.0</ele><time>2026-04-25T12:56:02.531Z</time></trkpt><trkpt lat="43.740245" lon="12.7344467"><ele>310.0</ele><time>2026-04-25T12:56:03.535Z</time></trkpt><trkpt lat="43.740335" lon="12.734595"><ele>309.0</ele><time>2026-04-25T12:56:04.535Z</time></trkpt><trkpt lat="43.74043" lon="12.7347283"><ele>308.0</ele><time>2026-04-25T12:56:05.534Z</time></trkpt><trkpt lat="43.7405267" lon="12.7348467"><ele>308.0</ele><time>2026-04-25T12:56:06.532Z</time></trkpt><trkpt lat="43.7406317" lon="12.734945"><ele>308.0</ele><time>2026-04-25T12:56:07.533Z</time></trkpt><trkpt lat="43.740735" lon="12.7350067"><ele>308.0</ele><time>2026-04-25T12:56:08.534Z</time></trkpt><trkpt lat="43.7408333" lon="12.7350117"><ele>308.0</ele><time>2026-04-25T12:56:09.532Z</time></trkpt><trkpt lat="43.740895" lon="12.7349767"><ele>308.0</ele><time>2026-04-25T12:56:10.534Z</time></trkpt><trkpt lat="43.7409683" lon="12.7348617"><ele>308.0</ele><time>2026-04-25T12:56:12.536Z</time></trkpt><trkpt lat="43.7409817" lon="12.7347733"><ele>308.0</ele><time>2026-04-25T12:56:13.534Z</time></trkpt><trkpt lat="43.7409683" lon="12.734455"><ele>308.0</ele><time>2026-04-25T12:56:15.535Z</time></trkpt><trkpt lat="43.74097" lon="12.7342867"><ele>308.0</ele><time>2026-04-25T12:56:16.534Z</time></trkpt><trkpt lat="43.7409617" lon="12.7341283"><ele>307.0</ele><time>2026-04-25T12:56:17.534Z</time></trkpt><trkpt lat="43.7409383" lon="12.7339967"><ele>306.0</ele><time>2026-04-25T12:56:18.532Z</time></trkpt><trkpt lat="43.7409033" lon="12.7338917"><ele>305.0</ele><time>2026-04-25T12:56:19.534Z</time></trkpt><trkpt lat="43.7408467" lon="12.7338067"><ele>304.0</ele><time>2026-04-25T12:56:20.531Z</time></trkpt><trkpt lat="43.74076" lon="12.733765"><ele>303.0</ele><time>2026-04-25T12:56:21.532Z</time></trkpt><trkpt lat="43.740675" lon="12.733735"><ele>302.0</ele><time>2026-04-25T12:56:22.532Z</time></trkpt><trkpt lat="43.7406067" lon="12.7336767"><ele>302.0</ele><time>2026-04-25T12:56:23.535Z</time></trkpt><trkpt lat="43.7405383" lon="12.733615"><ele>302.0</ele><time>2026-04-25T12:56:24.532Z</time></trkpt><trkpt lat="43.7404667" lon="12.73353"><ele>302.0</ele><time>2026-04-25T12:56:25.532Z</time></trkpt><trkpt lat="43.740435" lon="12.7334283"><ele>302.0</ele><time>2026-04-25T12:56:26.533Z</time></trkpt><trkpt lat="43.74043" lon="12.7333067"><ele>302.0</ele><time>2026-04-25T12:56:27.531Z</time></trkpt><trkpt lat="43.740445" lon="12.7331683"><ele>302.0</ele><time>2026-04-25T12:56:28.532Z</time></trkpt><trkpt lat="43.7404933" lon="12.733025"><ele>299.0</ele><time>2026-04-25T12:56:29.533Z</time></trkpt><trkpt lat="43.74061" lon="12.7328933"><ele>296.0</ele><time>2026-04-25T12:56:30.541Z</time></trkpt><trkpt lat="43.74074" lon="12.7328"><ele>293.0</ele><time>2026-04-25T12:56:31.532Z</time></trkpt><trkpt lat="43.7408717" lon="12.732715"><ele>290.0</ele><time>2026-04-25T12:56:32.531Z</time></trkpt><trkpt lat="43.74098" lon="12.7326133"><ele>286.5</ele><time>2026-04-25T12:56:33.531Z</time></trkpt><trkpt lat="43.7410883" lon="12.7325283"><ele>283.0</ele><time>2026-04-25T12:56:34.534Z</time></trkpt><trkpt lat="43.7412733" lon="12.732475"><ele>279.5</ele><time>2026-04-25T12:56:36.532Z</time></trkpt><trkpt lat="43.741385" lon="12.7325167"><ele>276.0</ele><time>2026-04-25T12:56:37.532Z</time></trkpt><trkpt lat="43.74151" lon="12.7325583"><ele>276.0</ele><time>2026-04-25T12:56:38.533Z</time></trkpt><trkpt lat="43.7416683" lon="12.732615"><ele>276.0</ele><time>2026-04-25T12:56:39.532Z</time></trkpt><trkpt lat="43.7418333" lon="12.7326633"><ele>276.0</ele><time>2026-04-25T12:56:40.534Z</time></trkpt><trkpt lat="43.7419983" lon="12.7327017"><ele>273.6666666666667</ele><time>2026-04-25T12:56:41.535Z</time></trkpt><trkpt lat="43.7421567" lon="12.7327217"><ele>271.33333333333337</ele><time>2026-04-25T12:56:42.534Z</time></trkpt><trkpt lat="43.7423133" lon="12.732725"><ele>269.0</ele><time>2026-04-25T12:56:43.532Z</time></trkpt><trkpt lat="43.7424617" lon="12.7327217"><ele>269.0</ele><time>2026-04-25T12:56:44.532Z</time></trkpt><trkpt lat="43.742595" lon="12.7327183"><ele>269.0</ele><time>2026-04-25T12:56:45.533Z</time></trkpt><trkpt lat="43.7427283" lon="12.7327333"><ele>269.0</ele><time>2026-04-25T12:56:46.535Z</time></trkpt><trkpt lat="43.7428733" lon="12.7327633"><ele>269.0</ele><time>2026-04-25T12:56:47.531Z</time></trkpt><trkpt lat="43.7430317" lon="12.7328017"><ele>267.6666666666667</ele><time>2026-04-25T12:56:48.534Z</time></trkpt><trkpt lat="43.7431967" lon="12.7328433"><ele>266.3333333333333</ele><time>2026-04-25T12:56:49.533Z</time></trkpt><trkpt lat="43.7433683" lon="12.7328783"><ele>265.0</ele><time>2026-04-25T12:56:50.531Z</time></trkpt><trkpt lat="43.74354" lon="12.732905"><ele>260.3333333333333</ele><time>2026-04-25T12:56:51.532Z</time></trkpt><trkpt lat="43.7437067" lon="12.7329167"><ele>255.66666666666669</ele><time>2026-04-25T12:56:52.531Z</time></trkpt><trkpt lat="43.7438683" lon="12.7329317"><ele>251.0</ele><time>2026-04-25T12:56:53.533Z</time></trkpt><trkpt lat="43.7440217" lon="12.7329567"><ele>251.0</ele><time>2026-04-25T12:56:54.532Z</time></trkpt><trkpt lat="43.7441733" lon="12.7329917"><ele>251.0</ele><time>2026-04-25T12:56:55.532Z</time></trkpt><trkpt lat="43.74445" lon="12.7330833"><ele>251.0</ele><time>2026-04-25T12:56:57.531Z</time></trkpt><trkpt lat="43.7445717" lon="12.73313"><ele>249.0</ele><time>2026-04-25T12:56:58.532Z</time></trkpt><trkpt lat="43.7446833" lon="12.7331783"><ele>247.00000000000003</ele><time>2026-04-25T12:56:59.532Z</time></trkpt><trkpt lat="43.7447833" lon="12.7332267"><ele>245.00000000000003</ele><time>2026-04-25T12:57:00.535Z</time></trkpt><trkpt lat="43.74487" lon="12.73327"><ele>243.0</ele><time>2026-04-25T12:57:01.534Z</time></trkpt><trkpt lat="43.74495" lon="12.7332983"><ele>241.0</ele><time>2026-04-25T12:57:02.534Z</time></trkpt><trkpt lat="43.74502" lon="12.73329"><ele>241.0</ele><time>2026-04-25T12:57:03.534Z</time></trkpt><trkpt lat="43.74511" lon="12.733155"><ele>241.0</ele><time>2026-04-25T12:57:05.531Z</time></trkpt><trkpt lat="43.7451317" lon="12.7330133"><ele>241.0</ele><time>2026-04-25T12:57:06.533Z</time></trkpt><trkpt lat="43.7451167" lon="12.7328033"><ele>241.0</ele><time>2026-04-25T12:57:07.534Z</time></trkpt><trkpt lat="43.745085" lon="12.7325717"><ele>239.0</ele><time>2026-04-25T12:57:08.532Z</time></trkpt><trkpt lat="43.74505" lon="12.7323467"><ele>237.0</ele><time>2026-04-25T12:57:09.532Z</time></trkpt><trkpt lat="43.7450133" lon="12.7321233"><ele>235.0</ele><time>2026-04-25T12:57:10.533Z</time></trkpt><trkpt lat="43.74498" lon="12.7319167"><ele>233.25</ele><time>2026-04-25T12:57:11.531Z</time></trkpt><trkpt lat="43.7449433" lon="12.7317183"><ele>231.5</ele><time>2026-04-25T12:57:12.534Z</time></trkpt><trkpt lat="43.74492" lon="12.7315467"><ele>229.75</ele><time>2026-04-25T12:57:13.532Z</time></trkpt><trkpt lat="43.7449183" lon="12.7313967"><ele>228.0</ele><time>2026-04-25T12:57:14.532Z</time></trkpt><trkpt lat="43.7449433" lon="12.731285"><ele>228.0</ele><time>2026-04-25T12:57:15.534Z</time></trkpt><trkpt lat="43.74505" lon="12.73125"><ele>228.0</ele><time>2026-04-25T12:57:17.532Z</time></trkpt><trkpt lat="43.7453" lon="12.731465"><ele>228.0</ele><time>2026-04-25T12:57:19.533Z</time></trkpt><trkpt lat="43.7454533" lon="12.7316117"><ele>225.66666666666669</ele><time>2026-04-25T12:57:20.535Z</time></trkpt><trkpt lat="43.7456083" lon="12.7317533"><ele>223.33333333333334</ele><time>2026-04-25T12:57:21.534Z</time></trkpt><trkpt lat="43.745765" lon="12.731895"><ele>221.0</ele><time>2026-04-25T12:57:22.534Z</time></trkpt><trkpt lat="43.7459217" lon="12.7320417"><ele>219.0</ele><time>2026-04-25T12:57:23.535Z</time></trkpt><trkpt lat="43.7460733" lon="12.7321917"><ele>217.0</ele><time>2026-04-25T12:57:24.535Z</time></trkpt><trkpt lat="43.7462267" lon="12.7323467"><ele>215.0</ele><time>2026-04-25T12:57:25.535Z</time></trkpt><trkpt lat="43.7463767" lon="12.732505"><ele>215.0</ele><time>2026-04-25T12:57:26.534Z</time></trkpt><trkpt lat="43.7465233" lon="12.7326583"><ele>215.0</ele><time>2026-04-25T12:57:27.532Z</time></trkpt><trkpt lat="43.7466617" lon="12.7328033"><ele>215.0</ele><time>2026-04-25T12:57:28.533Z</time></trkpt><trkpt lat="43.74679" lon="12.7329483"><ele>211.0</ele><time>2026-04-25T12:57:29.533Z</time></trkpt><trkpt lat="43.7469017" lon="12.7330933"><ele>207.0</ele><time>2026-04-25T12:57:30.535Z</time></trkpt><trkpt lat="43.74699" lon="12.7332517"><ele>203.0</ele><time>2026-04-25T12:57:31.534Z</time></trkpt><trkpt lat="43.7470533" lon="12.7334233"><ele>199.0</ele><time>2026-04-25T12:57:32.533Z</time></trkpt><trkpt lat="43.7471083" lon="12.7336083"><ele>198.25</ele><time>2026-04-25T12:57:33.534Z</time></trkpt><trkpt lat="43.747165" lon="12.7337933"><ele>197.5</ele><time>2026-04-25T12:57:34.534Z</time></trkpt><trkpt lat="43.747215" lon="12.7339683"><ele>196.75</ele><time>2026-04-25T12:57:35.534Z</time></trkpt><trkpt lat="43.7472483" lon="12.7341367"><ele>196.0</ele><time>2026-04-25T12:57:36.534Z</time></trkpt><trkpt lat="43.7472517" lon="12.7342967"><ele>193.66666666666666</ele><time>2026-04-25T12:57:37.534Z</time></trkpt><trkpt lat="43.7472383" lon="12.734455"><ele>191.33333333333331</ele><time>2026-04-25T12:57:38.535Z</time></trkpt><trkpt lat="43.747155" lon="12.7347717"><ele>189.0</ele><time>2026-04-25T12:57:40.532Z</time></trkpt><trkpt lat="43.7471067" lon="12.7349233"><ele>189.0</ele><time>2026-04-25T12:57:41.534Z</time></trkpt><trkpt lat="43.7470633" lon="12.73506"><ele>189.0</ele><time>2026-04-25T12:57:42.533Z</time></trkpt><trkpt lat="43.7470317" lon="12.735175"><ele>189.0</ele><time>2026-04-25T12:57:43.534Z</time></trkpt><trkpt lat="43.7470167" lon="12.73528"><ele>189.0</ele><time>2026-04-25T12:57:44.533Z</time></trkpt><trkpt lat="43.7470633" lon="12.7354283"><ele>189.0</ele><time>2026-04-25T12:57:46.534Z</time></trkpt><trkpt lat="43.747125" lon="12.7354483"><ele>188.0</ele><time>2026-04-25T12:57:47.531Z</time></trkpt><trkpt lat="43.7472433" lon="12.7353933"><ele>187.0</ele><time>2026-04-25T12:57:48.533Z</time></trkpt><trkpt lat="43.7473733" lon="12.7353233"><ele>186.0</ele><time>2026-04-25T12:57:49.533Z</time></trkpt><trkpt lat="43.74748" lon="12.7352833"><ele>185.0</ele><time>2026-04-25T12:57:50.533Z</time></trkpt><trkpt lat="43.7475767" lon="12.73527"><ele>185.0</ele><time>2026-04-25T12:57:51.532Z</time></trkpt><trkpt lat="43.747665" lon="12.7352983"><ele>185.0</ele><time>2026-04-25T12:57:52.534Z</time></trkpt><trkpt lat="43.74774" lon="12.7353683"><ele>185.0</ele><time>2026-04-25T12:57:53.531Z</time></trkpt><trkpt lat="43.7478233" lon="12.7354833"><ele>185.0</ele><time>2026-04-25T12:57:54.535Z</time></trkpt><trkpt lat="43.7478933" lon="12.7356633"><ele>185.0</ele><time>2026-04-25T12:57:55.533Z</time></trkpt><trkpt lat="43.7479467" lon="12.7358317"><ele>184.0</ele><time>2026-04-25T12:57:56.534Z</time></trkpt><trkpt lat="43.7480083" lon="12.7360017"><ele>183.0</ele><time>2026-04-25T12:57:57.534Z</time></trkpt><trkpt lat="43.7480733" lon="12.7361633"><ele>182.0</ele><time>2026-04-25T12:57:58.534Z</time></trkpt><trkpt lat="43.7481433" lon="12.7363017"><ele>181.0</ele><time>2026-04-25T12:57:59.531Z</time></trkpt><trkpt lat="43.7483167" lon="12.7365067"><ele>181.0</ele><time>2026-04-25T12:58:01.534Z</time></trkpt><trkpt lat="43.7484067" lon="12.7365717"><ele>181.0</ele><time>2026-04-25T12:58:02.534Z</time></trkpt><trkpt lat="43.74849" lon="12.7366367"><ele>181.0</ele><time>2026-04-25T12:58:03.534Z</time></trkpt><trkpt lat="43.7485517" lon="12.7367183"><ele>181.0</ele><time>2026-04-25T12:58:04.535Z</time></trkpt><trkpt lat="43.7485917" lon="12.7368083"><ele>181.0</ele><time>2026-04-25T12:58:05.534Z</time></trkpt><trkpt lat="43.7486167" lon="12.736905"><ele>181.0</ele><time>2026-04-25T12:58:06.532Z</time></trkpt><trkpt lat="43.7486467" lon="12.7370017"><ele>181.0</ele><time>2026-04-25T12:58:07.532Z</time></trkpt><trkpt lat="43.7487017" lon="12.7370933"><ele>181.0</ele><time>2026-04-25T12:58:08.532Z</time></trkpt><trkpt lat="43.7487983" lon="12.7371833"><ele>181.0</ele><time>2026-04-25T12:58:09.533Z</time></trkpt><trkpt lat="43.74895" lon="12.737295"><ele>181.0</ele><time>2026-04-25T12:58:10.534Z</time></trkpt><trkpt lat="43.7491" lon="12.7374133"><ele>181.0</ele><time>2026-04-25T12:58:11.535Z</time></trkpt><trkpt lat="43.7492567" lon="12.73754"><ele>181.0</ele><time>2026-04-25T12:58:12.534Z</time></trkpt><trkpt lat="43.7494133" lon="12.73767"><ele>181.0</ele><time>2026-04-25T12:58:13.535Z</time></trkpt><trkpt lat="43.7495633" lon="12.7377933"><ele>180.33333333333334</ele><time>2026-04-25T12:58:14.534Z</time></trkpt><trkpt lat="43.7497083" lon="12.7379067"><ele>179.66666666666666</ele><time>2026-04-25T12:58:15.533Z</time></trkpt><trkpt lat="43.7498533" lon="12.73802"><ele>179.0</ele><time>2026-04-25T12:58:16.534Z</time></trkpt><trkpt lat="43.7499933" lon="12.7381317"><ele>179.0</ele><time>2026-04-25T12:58:17.533Z</time></trkpt><trkpt lat="43.7501333" lon="12.7382283"><ele>179.0</ele><time>2026-04-25T12:58:18.533Z</time></trkpt><trkpt lat="43.7502733" lon="12.7383117"><ele>179.0</ele><time>2026-04-25T12:58:19.534Z</time></trkpt><trkpt lat="43.7504183" lon="12.738375"><ele>178.33333333333331</ele><time>2026-04-25T12:58:20.533Z</time></trkpt><trkpt lat="43.7507" lon="12.7384683"><ele>177.66666666666666</ele><time>2026-04-25T12:58:22.532Z</time></trkpt><trkpt lat="43.7508333" lon="12.7384867"><ele>177.0</ele><time>2026-04-25T12:58:23.532Z</time></trkpt><trkpt lat="43.7509633" lon="12.738465"><ele>177.25</ele><time>2026-04-25T12:58:24.535Z</time></trkpt><trkpt lat="43.7510967" lon="12.7384017"><ele>177.5</ele><time>2026-04-25T12:58:25.532Z</time></trkpt><trkpt lat="43.75123" lon="12.73831"><ele>177.75</ele><time>2026-04-25T12:58:26.531Z</time></trkpt><trkpt lat="43.75136" lon="12.7382083"><ele>178.0</ele><time>2026-04-25T12:58:27.531Z</time></trkpt><trkpt lat="43.7514833" lon="12.7381067"><ele>178.0</ele><time>2026-04-25T12:58:28.535Z</time></trkpt><trkpt lat="43.7516" lon="12.7380017"><ele>178.0</ele><time>2026-04-25T12:58:29.535Z</time></trkpt><trkpt lat="43.7517133" lon="12.737895"><ele>178.0</ele><time>2026-04-25T12:58:30.533Z</time></trkpt><trkpt lat="43.75183" lon="12.7377917"><ele>178.0</ele><time>2026-04-25T12:58:31.534Z</time></trkpt><trkpt lat="43.7519517" lon="12.7377017"><ele>176.0</ele><time>2026-04-25T12:58:32.534Z</time></trkpt><trkpt lat="43.7520817" lon="12.7376383"><ele>174.0</ele><time>2026-04-25T12:58:33.534Z</time></trkpt><trkpt lat="43.752215" lon="12.7376017"><ele>172.0</ele><time>2026-04-25T12:58:34.533Z</time></trkpt><trkpt lat="43.7523433" lon="12.73759"><ele>170.0</ele><time>2026-04-25T12:58:35.534Z</time></trkpt><trkpt lat="43.7524767" lon="12.7376033"><ele>170.0</ele><time>2026-04-25T12:58:36.535Z</time></trkpt><trkpt lat="43.752615" lon="12.7376333"><ele>170.0</ele><time>2026-04-25T12:58:37.532Z</time></trkpt><trkpt lat="43.752755" lon="12.73768"><ele>170.0</ele><time>2026-04-25T12:58:38.535Z</time></trkpt><trkpt lat="43.7529017" lon="12.7377317"><ele>170.0</ele><time>2026-04-25T12:58:39.531Z</time></trkpt><trkpt lat="43.7530517" lon="12.73778"><ele>173.0</ele><time>2026-04-25T12:58:40.534Z</time></trkpt><trkpt lat="43.7532133" lon="12.7378083"><ele>176.0</ele><time>2026-04-25T12:58:41.532Z</time></trkpt><trkpt lat="43.7535267" lon="12.7378483"><ele>175.5</ele><time>2026-04-25T12:58:43.533Z</time></trkpt><trkpt lat="43.7536717" lon="12.73788"><ele>175.0</ele><time>2026-04-25T12:58:44.533Z</time></trkpt><trkpt lat="43.753805" lon="12.7379133"><ele>174.5</ele><time>2026-04-25T12:58:45.532Z</time></trkpt><trkpt lat="43.7539383" lon="12.7379433"><ele>174.0</ele><time>2026-04-25T12:58:46.532Z</time></trkpt><trkpt lat="43.7540733" lon="12.7379717"><ele>174.0</ele><time>2026-04-25T12:58:47.534Z</time></trkpt><trkpt lat="43.7542033" lon="12.7380033"><ele>174.0</ele><time>2026-04-25T12:58:48.532Z</time></trkpt><trkpt lat="43.7543333" lon="12.738055"><ele>174.0</ele><time>2026-04-25T12:58:49.533Z</time></trkpt><trkpt lat="43.7544617" lon="12.7381183"><ele>174.0</ele><time>2026-04-25T12:58:50.534Z</time></trkpt><trkpt lat="43.7545867" lon="12.7381683"><ele>174.0</ele><time>2026-04-25T12:58:51.532Z</time></trkpt><trkpt lat="43.754715" lon="12.7381967"><ele>174.0</ele><time>2026-04-25T12:58:52.537Z</time></trkpt><trkpt lat="43.7548383" lon="12.7382183"><ele>174.0</ele><time>2026-04-25T12:58:53.532Z</time></trkpt><trkpt lat="43.754965" lon="12.738225"><ele>174.0</ele><time>2026-04-25T12:58:54.532Z</time></trkpt><trkpt lat="43.7550983" lon="12.7382083"><ele>175.0</ele><time>2026-04-25T12:58:55.532Z</time></trkpt><trkpt lat="43.7552317" lon="12.7381683"><ele>176.0</ele><time>2026-04-25T12:58:56.534Z</time></trkpt><trkpt lat="43.7553783" lon="12.7381233"><ele>177.0</ele><time>2026-04-25T12:58:57.533Z</time></trkpt><trkpt lat="43.755525" lon="12.7380767"><ele>178.0</ele><time>2026-04-25T12:58:58.532Z</time></trkpt><trkpt lat="43.7556683" lon="12.7380433"><ele>178.0</ele><time>2026-04-25T12:58:59.533Z</time></trkpt><trkpt lat="43.7557983" lon="12.73802"><ele>178.0</ele><time>2026-04-25T12:59:00.532Z</time></trkpt><trkpt lat="43.7559183" lon="12.73801"><ele>178.0</ele><time>2026-04-25T12:59:01.539Z</time></trkpt><trkpt lat="43.7560283" lon="12.738015"><ele>178.0</ele><time>2026-04-25T12:59:02.532Z</time></trkpt><trkpt lat="43.756215" lon="12.7380967"><ele>177.2</ele><time>2026-04-25T12:59:04.542Z</time></trkpt><trkpt lat="43.75629" lon="12.7381717"><ele>176.4</ele><time>2026-04-25T12:59:05.532Z</time></trkpt><trkpt lat="43.75636" lon="12.7382683"><ele>175.6</ele><time>2026-04-25T12:59:06.534Z</time></trkpt><trkpt lat="43.756425" lon="12.738375"><ele>174.79999999999998</ele><time>2026-04-25T12:59:07.533Z</time></trkpt><trkpt lat="43.7564917" lon="12.7384733"><ele>174.0</ele><time>2026-04-25T12:59:08.534Z</time></trkpt><trkpt lat="43.7565517" lon="12.7385633"><ele>174.0</ele><time>2026-04-25T12:59:09.534Z</time></trkpt><trkpt lat="43.7566017" lon="12.738645"><ele>174.0</ele><time>2026-04-25T12:59:10.532Z</time></trkpt><trkpt lat="43.7566417" lon="12.73873"><ele>174.0</ele><time>2026-04-25T12:59:11.531Z</time></trkpt><trkpt lat="43.75666" lon="12.7388183"><ele>174.0</ele><time>2026-04-25T12:59:12.534Z</time></trkpt><trkpt lat="43.75666" lon="12.7389167"><ele>174.0</ele><time>2026-04-25T12:59:13.533Z</time></trkpt><trkpt lat="43.7566433" lon="12.739025"><ele>174.0</ele><time>2026-04-25T12:59:14.532Z</time></trkpt><trkpt lat="43.7566017" lon="12.739145"><ele>174.0</ele><time>2026-04-25T12:59:15.53Z</time></trkpt><trkpt lat="43.7565567" lon="12.739275"><ele>174.0</ele><time>2026-04-25T12:59:16.532Z</time></trkpt><trkpt lat="43.756515" lon="12.73939"><ele>174.0</ele><time>2026-04-25T12:59:17.531Z</time></trkpt><trkpt lat="43.75648" lon="12.7395"><ele>174.0</ele><time>2026-04-25T12:59:18.532Z</time></trkpt><trkpt lat="43.756455" lon="12.7396017"><ele>174.0</ele><time>2026-04-25T12:59:19.532Z</time></trkpt><trkpt lat="43.75645" lon="12.739695"><ele>174.0</ele><time>2026-04-25T12:59:20.531Z</time></trkpt><trkpt lat="43.7564767" lon="12.7397867"><ele>174.25</ele><time>2026-04-25T12:59:21.531Z</time></trkpt><trkpt lat="43.7565133" lon="12.7398683"><ele>174.5</ele><time>2026-04-25T12:59:22.532Z</time></trkpt><trkpt lat="43.7566183" lon="12.7399167"><ele>174.75</ele><time>2026-04-25T12:59:24.531Z</time></trkpt><trkpt lat="43.756765" lon="12.7397833"><ele>175.0</ele><time>2026-04-25T12:59:26.532Z</time></trkpt><trkpt lat="43.756835" lon="12.7396767"><ele>177.2</ele><time>2026-04-25T12:59:27.532Z</time></trkpt><trkpt lat="43.75689" lon="12.7395633"><ele>179.4</ele><time>2026-04-25T12:59:28.532Z</time></trkpt><trkpt lat="43.75693" lon="12.739425"><ele>181.60000000000002</ele><time>2026-04-25T12:59:29.532Z</time></trkpt><trkpt lat="43.75697" lon="12.7392917"><ele>183.8</ele><time>2026-04-25T12:59:30.532Z</time></trkpt><trkpt lat="43.7570117" lon="12.7391717"><ele>186.0</ele><time>2026-04-25T12:59:31.533Z</time></trkpt><trkpt lat="43.7570517" lon="12.7390667"><ele>186.0</ele><time>2026-04-25T12:59:32.532Z</time></trkpt><trkpt lat="43.757105" lon="12.7389717"><ele>186.0</ele><time>2026-04-25T12:59:33.533Z</time></trkpt><trkpt lat="43.7571567" lon="12.7388983"><ele>186.0</ele><time>2026-04-25T12:59:34.531Z</time></trkpt><trkpt lat="43.7572233" lon="12.738855"><ele>186.0</ele><time>2026-04-25T12:59:35.532Z</time></trkpt><trkpt lat="43.7572983" lon="12.7388383"><ele>186.0</ele><time>2026-04-25T12:59:36.532Z</time></trkpt><trkpt lat="43.7573783" lon="12.738875"><ele>186.0</ele><time>2026-04-25T12:59:37.532Z</time></trkpt><trkpt lat="43.7574767" lon="12.7389333"><ele>186.0</ele><time>2026-04-25T12:59:38.531Z</time></trkpt><trkpt lat="43.7575917" lon="12.7390317"><ele>186.0</ele><time>2026-04-25T12:59:39.532Z</time></trkpt><trkpt lat="43.7576967" lon="12.73915"><ele>186.0</ele><time>2026-04-25T12:59:40.532Z</time></trkpt><trkpt lat="43.757815" lon="12.7393283"><ele>186.0</ele><time>2026-04-25T12:59:41.531Z</time></trkpt><trkpt lat="43.7579333" lon="12.7394967"><ele>187.75</ele><time>2026-04-25T12:59:42.531Z</time></trkpt><trkpt lat="43.7580467" lon="12.739645"><ele>189.5</ele><time>2026-04-25T12:59:43.535Z</time></trkpt><trkpt lat="43.7581383" lon="12.7397783"><ele>191.25</ele><time>2026-04-25T12:59:44.534Z</time></trkpt><trkpt lat="43.7582117" lon="12.7398967"><ele>193.0</ele><time>2026-04-25T12:59:45.534Z</time></trkpt><trkpt lat="43.7583767" lon="12.7400883"><ele>193.0</ele><time>2026-04-25T12:59:47.534Z</time></trkpt><trkpt lat="43.7584733" lon="12.74016"><ele>193.0</ele><time>2026-04-25T12:59:48.531Z</time></trkpt><trkpt lat="43.7585633" lon="12.7402383"><ele>193.0</ele><time>2026-04-25T12:59:49.532Z</time></trkpt><trkpt lat="43.7586267" lon="12.74033"><ele>193.0</ele><time>2026-04-25T12:59:50.532Z</time></trkpt><trkpt lat="43.7586717" lon="12.7404183"><ele>193.0</ele><time>2026-04-25T12:59:51.533Z</time></trkpt><trkpt lat="43.7587033" lon="12.7405017"><ele>194.60000000000002</ele><time>2026-04-25T12:59:52.532Z</time></trkpt><trkpt lat="43.7586333" lon="12.7405867"><ele>196.20000000000002</ele><time>2026-04-25T12:59:54.534Z</time></trkpt><trkpt lat="43.758475" lon="12.74063"><ele>197.8</ele><time>2026-04-25T12:59:56.535Z</time></trkpt><trkpt lat="43.7583817" lon="12.740675"><ele>199.4</ele><time>2026-04-25T12:59:57.532Z</time></trkpt><trkpt lat="43.7582983" lon="12.74074"><ele>201.0</ele><time>2026-04-25T12:59:58.533Z</time></trkpt><trkpt lat="43.7582283" lon="12.7408233"><ele>203.0</ele><time>2026-04-25T12:59:59.532Z</time></trkpt><trkpt lat="43.7581717" lon="12.74093"><ele>205.0</ele><time>2026-04-25T13:00:00.535Z</time></trkpt><trkpt lat="43.7581333" lon="12.7410317"><ele>207.0</ele><time>2026-04-25T13:00:01.531Z</time></trkpt><trkpt lat="43.7581017" lon="12.7411217"><ele>209.0</ele><time>2026-04-25T13:00:02.534Z</time></trkpt><trkpt lat="43.758095" lon="12.7412617"><ele>211.0</ele><time>2026-04-25T13:00:04.533Z</time></trkpt><trkpt lat="43.758195" lon="12.741335"><ele>214.20000000000002</ele><time>2026-04-25T13:00:06.533Z</time></trkpt><trkpt lat="43.75836" lon="12.7413617"><ele>217.4</ele><time>2026-04-25T13:00:08.532Z</time></trkpt><trkpt lat="43.758435" lon="12.741405"><ele>220.6</ele><time>2026-04-25T13:00:09.533Z</time></trkpt><trkpt lat="43.7584867" lon="12.7414667"><ele>223.8</ele><time>2026-04-25T13:00:10.534Z</time></trkpt><trkpt lat="43.7585183" lon="12.7415567"><ele>227.0</ele><time>2026-04-25T13:00:11.533Z</time></trkpt><trkpt lat="43.7585333" lon="12.741665"><ele>227.00000000000003</ele><time>2026-04-25T13:00:12.534Z</time></trkpt><trkpt lat="43.7585317" lon="12.7417833"><ele>227.0</ele><time>2026-04-25T13:00:13.533Z</time></trkpt><trkpt lat="43.75853" lon="12.7418933"><ele>227.0</ele><time>2026-04-25T13:00:14.533Z</time></trkpt><trkpt lat="43.7585383" lon="12.7419983"><ele>227.0</ele><time>2026-04-25T13:00:15.533Z</time></trkpt><trkpt lat="43.75857" lon="12.7421"><ele>227.00000000000003</ele><time>2026-04-25T13:00:16.533Z</time></trkpt><trkpt lat="43.7586317" lon="12.7421967"><ele>227.0</ele><time>2026-04-25T13:00:17.534Z</time></trkpt><trkpt lat="43.7587283" lon="12.7422967"><ele>227.75</ele><time>2026-04-25T13:00:18.534Z</time></trkpt><trkpt lat="43.7588267" lon="12.7424017"><ele>228.5</ele><time>2026-04-25T13:00:19.533Z</time></trkpt><trkpt lat="43.7589233" lon="12.742495"><ele>229.25</ele><time>2026-04-25T13:00:20.535Z</time></trkpt><trkpt lat="43.75902" lon="12.7425717"><ele>230.0</ele><time>2026-04-25T13:00:21.535Z</time></trkpt><trkpt lat="43.7591317" lon="12.74265"><ele>229.0</ele><time>2026-04-25T13:00:22.532Z</time></trkpt><trkpt lat="43.7592583" lon="12.74273"><ele>228.0</ele><time>2026-04-25T13:00:23.536Z</time></trkpt><trkpt lat="43.759395" lon="12.7428083"><ele>227.0</ele><time>2026-04-25T13:00:24.532Z</time></trkpt><trkpt lat="43.759525" lon="12.7428667"><ele>226.0</ele><time>2026-04-25T13:00:25.532Z</time></trkpt><trkpt lat="43.759645" lon="12.7429067"><ele>231.33333333333331</ele><time>2026-04-25T13:00:26.533Z</time></trkpt><trkpt lat="43.759755" lon="12.7429383"><ele>236.66666666666669</ele><time>2026-04-25T13:00:27.532Z</time></trkpt><trkpt lat="43.7599567" lon="12.7430517"><ele>242.0</ele><time>2026-04-25T13:00:29.533Z</time></trkpt><trkpt lat="43.760065" lon="12.7431233"><ele>242.0</ele><time>2026-04-25T13:00:30.534Z</time></trkpt><trkpt lat="43.7601833" lon="12.743185"><ele>242.0</ele><time>2026-04-25T13:00:31.533Z</time></trkpt><trkpt lat="43.7603117" lon="12.7432383"><ele>242.0</ele><time>2026-04-25T13:00:32.532Z</time></trkpt><trkpt lat="43.760445" lon="12.743285"><ele>242.0</ele><time>2026-04-25T13:00:33.535Z</time></trkpt><trkpt lat="43.7605833" lon="12.74333"><ele>243.8</ele><time>2026-04-25T13:00:34.532Z</time></trkpt><trkpt lat="43.76071" lon="12.7433683"><ele>245.6</ele><time>2026-04-25T13:00:35.532Z</time></trkpt><trkpt lat="43.7608217" lon="12.7434017"><ele>247.40000000000003</ele><time>2026-04-25T13:00:36.534Z</time></trkpt><trkpt lat="43.7609167" lon="12.7434417"><ele>249.20000000000002</ele><time>2026-04-25T13:00:37.533Z</time></trkpt><trkpt lat="43.760995" lon="12.74349"><ele>251.0</ele><time>2026-04-25T13:00:38.532Z</time></trkpt><trkpt lat="43.7610617" lon="12.7435483"><ele>252.50000000000003</ele><time>2026-04-25T13:00:39.533Z</time></trkpt><trkpt lat="43.7611033" lon="12.7436183"><ele>254.0</ele><time>2026-04-25T13:00:40.534Z</time></trkpt><trkpt lat="43.7610983" lon="12.7437583"><ele>255.5</ele><time>2026-04-25T13:00:42.534Z</time></trkpt><trkpt lat="43.7610433" lon="12.7438483"><ele>257.0</ele><time>2026-04-25T13:00:43.533Z</time></trkpt><trkpt lat="43.7610183" lon="12.7439283"><ele>258.5</ele><time>2026-04-25T13:00:44.534Z</time></trkpt><trkpt lat="43.7610167" lon="12.744045"><ele>260.0</ele><time>2026-04-25T13:00:46.531Z</time></trkpt><trkpt lat="43.7610967" lon="12.7440867"><ele>261.75</ele><time>2026-04-25T13:00:48.531Z</time></trkpt><trkpt lat="43.761265" lon="12.7441533"><ele>263.5</ele><time>2026-04-25T13:00:50.532Z</time></trkpt><trkpt lat="43.7613633" lon="12.7442217"><ele>265.25</ele><time>2026-04-25T13:00:51.532Z</time></trkpt><trkpt lat="43.7614733" lon="12.7443217"><ele>267.0</ele><time>2026-04-25T13:00:52.533Z</time></trkpt><trkpt lat="43.7615783" lon="12.7444217"><ele>267.5</ele><time>2026-04-25T13:00:53.535Z</time></trkpt><trkpt lat="43.761685" lon="12.74451"><ele>268.0</ele><time>2026-04-25T13:00:54.534Z</time></trkpt><trkpt lat="43.7617933" lon="12.7445733"><ele>268.5</ele><time>2026-04-25T13:00:55.533Z</time></trkpt><trkpt lat="43.7619083" lon="12.74462"><ele>269.0</ele><time>2026-04-25T13:00:56.532Z</time></trkpt><trkpt lat="43.7620317" lon="12.74466"><ele>271.59999999999997</ele><time>2026-04-25T13:00:57.532Z</time></trkpt><trkpt lat="43.76216" lon="12.7446883"><ele>274.2</ele><time>2026-04-25T13:00:58.533Z</time></trkpt><trkpt lat="43.76228" lon="12.74471"><ele>276.79999999999995</ele><time>2026-04-25T13:00:59.532Z</time></trkpt><trkpt lat="43.7623833" lon="12.7447283"><ele>279.4</ele><time>2026-04-25T13:01:00.535Z</time></trkpt><trkpt lat="43.7624617" lon="12.7447667"><ele>282.0</ele><time>2026-04-25T13:01:01.536Z</time></trkpt><trkpt lat="43.7625283" lon="12.74483"><ele>282.0</ele><time>2026-04-25T13:01:02.536Z</time></trkpt><trkpt lat="43.762575" lon="12.7449133"><ele>282.0</ele><time>2026-04-25T13:01:03.533Z</time></trkpt><trkpt lat="43.7626167" lon="12.74501"><ele>282.0</ele><time>2026-04-25T13:01:04.533Z</time></trkpt><trkpt lat="43.7626633" lon="12.7450983"><ele>282.0</ele><time>2026-04-25T13:01:05.534Z</time></trkpt><trkpt lat="43.7627233" lon="12.7451667"><ele>282.0</ele><time>2026-04-25T13:01:06.533Z</time></trkpt><trkpt lat="43.7627967" lon="12.7452133"><ele>282.0</ele><time>2026-04-25T13:01:07.532Z</time></trkpt><trkpt lat="43.7628867" lon="12.7452333"><ele>286.0</ele><time>2026-04-25T13:01:08.533Z</time></trkpt><trkpt lat="43.76299" lon="12.7452417"><ele>290.0</ele><time>2026-04-25T13:01:09.533Z</time></trkpt><trkpt lat="43.7632167" lon="12.74532"><ele>294.0</ele><time>2026-04-25T13:01:11.533Z</time></trkpt><trkpt lat="43.76332" lon="12.7453767"><ele>298.0</ele><time>2026-04-25T13:01:12.534Z</time></trkpt><trkpt lat="43.7634183" lon="12.74545"><ele>298.0</ele><time>2026-04-25T13:01:13.532Z</time></trkpt><trkpt lat="43.763515" lon="12.7455433"><ele>298.0</ele><time>2026-04-25T13:01:14.532Z</time></trkpt><trkpt lat="43.763605" lon="12.7456467"><ele>298.0</ele><time>2026-04-25T13:01:15.532Z</time></trkpt><trkpt lat="43.763675" lon="12.745745"><ele>298.0</ele><time>2026-04-25T13:01:16.535Z</time></trkpt><trkpt lat="43.7637267" lon="12.7458283"><ele>298.0</ele><time>2026-04-25T13:01:17.534Z</time></trkpt><trkpt lat="43.7637717" lon="12.7459017"><ele>298.8</ele><time>2026-04-25T13:01:18.533Z</time></trkpt><trkpt lat="43.7638317" lon="12.745995"><ele>299.6</ele><time>2026-04-25T13:01:20.532Z</time></trkpt><trkpt lat="43.763905" lon="12.746005"><ele>300.4</ele><time>2026-04-25T13:01:23.532Z</time></trkpt><trkpt lat="43.7639933" lon="12.745885"><ele>301.2</ele><time>2026-04-25T13:01:25.533Z</time></trkpt><trkpt lat="43.764055" lon="12.7457617"><ele>302.0</ele><time>2026-04-25T13:01:26.535Z</time></trkpt><trkpt lat="43.7641433" lon="12.7456"><ele>302.0</ele><time>2026-04-25T13:01:27.533Z</time></trkpt><trkpt lat="43.7642367" lon="12.7454317"><ele>302.0</ele><time>2026-04-25T13:01:28.533Z</time></trkpt><trkpt lat="43.7643333" lon="12.74525"><ele>302.0</ele><time>2026-04-25T13:01:29.532Z</time></trkpt><trkpt lat="43.76443" lon="12.7450633"><ele>298.5</ele><time>2026-04-25T13:01:30.537Z</time></trkpt><trkpt lat="43.7645983" lon="12.74466"><ele>295.0</ele><time>2026-04-25T13:01:32.534Z</time></trkpt><trkpt lat="43.764665" lon="12.7444517"><ele>298.25</ele><time>2026-04-25T13:01:33.533Z</time></trkpt><trkpt lat="43.7647233" lon="12.7442517"><ele>301.5</ele><time>2026-04-25T13:01:34.533Z</time></trkpt><trkpt lat="43.7647767" lon="12.7440667"><ele>304.75</ele><time>2026-04-25T13:01:35.533Z</time></trkpt><trkpt lat="43.7648333" lon="12.7438833"><ele>308.0</ele><time>2026-04-25T13:01:36.535Z</time></trkpt><trkpt lat="43.764895" lon="12.7437"><ele>310.0</ele><time>2026-04-25T13:01:37.533Z</time></trkpt><trkpt lat="43.764965" lon="12.7435117"><ele>312.0</ele><time>2026-04-25T13:01:38.532Z</time></trkpt><trkpt lat="43.7650417" lon="12.7433217"><ele>314.0</ele><time>2026-04-25T13:01:39.533Z</time></trkpt><trkpt lat="43.76512" lon="12.74313"><ele>314.0</ele><time>2026-04-25T13:01:40.534Z</time></trkpt><trkpt lat="43.7652033" lon="12.7429383"><ele>314.0</ele><time>2026-04-25T13:01:41.534Z</time></trkpt><trkpt lat="43.7652917" lon="12.7427433"><ele>314.0</ele><time>2026-04-25T13:01:42.532Z</time></trkpt><trkpt lat="43.7653883" lon="12.7425533"><ele>314.0</ele><time>2026-04-25T13:01:43.532Z</time></trkpt><trkpt lat="43.7654883" lon="12.7423667"><ele>314.0</ele><time>2026-04-25T13:01:44.534Z</time></trkpt><trkpt lat="43.76559" lon="12.7421833"><ele>314.0</ele><time>2026-04-25T13:01:45.532Z</time></trkpt><trkpt lat="43.7656917" lon="12.7420017"><ele>314.33333333333337</ele><time>2026-04-25T13:01:46.533Z</time></trkpt><trkpt lat="43.765795" lon="12.7418217"><ele>314.6666666666667</ele><time>2026-04-25T13:01:47.534Z</time></trkpt><trkpt lat="43.7659017" lon="12.7416383"><ele>315.0</ele><time>2026-04-25T13:01:48.535Z</time></trkpt><trkpt lat="43.7660117" lon="12.7414483"><ele>313.0</ele><time>2026-04-25T13:01:49.534Z</time></trkpt><trkpt lat="43.7661233" lon="12.741265"><ele>311.0</ele><time>2026-04-25T13:01:50.535Z</time></trkpt><trkpt lat="43.7662367" lon="12.7410767"><ele>309.0</ele><time>2026-04-25T13:01:51.531Z</time></trkpt><trkpt lat="43.766475" lon="12.740685"><ele>309.0</ele><time>2026-04-25T13:01:53.532Z</time></trkpt><trkpt lat="43.766595" lon="12.7404883"><ele>309.0</ele><time>2026-04-25T13:01:54.531Z</time></trkpt><trkpt lat="43.7667167" lon="12.7402883"><ele>309.0</ele><time>2026-04-25T13:01:55.532Z</time></trkpt><trkpt lat="43.7668417" lon="12.740095"><ele>307.0</ele><time>2026-04-25T13:01:56.531Z</time></trkpt><trkpt lat="43.766975" lon="12.739925"><ele>305.0</ele><time>2026-04-25T13:01:57.531Z</time></trkpt><trkpt lat="43.767115" lon="12.73978"><ele>303.0</ele><time>2026-04-25T13:01:58.531Z</time></trkpt><trkpt lat="43.76726" lon="12.73966"><ele>303.0</ele><time>2026-04-25T13:01:59.531Z</time></trkpt><trkpt lat="43.767405" lon="12.73957"><ele>303.0</ele><time>2026-04-25T13:02:00.532Z</time></trkpt><trkpt lat="43.7675467" lon="12.7395"><ele>303.0</ele><time>2026-04-25T13:02:01.531Z</time></trkpt><trkpt lat="43.767685" lon="12.7394283"><ele>304.0</ele><time>2026-04-25T13:02:02.531Z</time></trkpt><trkpt lat="43.7678183" lon="12.7393333"><ele>305.0</ele><time>2026-04-25T13:02:03.531Z</time></trkpt><trkpt lat="43.7679467" lon="12.7392083"><ele>306.0</ele><time>2026-04-25T13:02:04.531Z</time></trkpt><trkpt lat="43.76806" lon="12.73906"><ele>306.0</ele><time>2026-04-25T13:02:05.532Z</time></trkpt><trkpt lat="43.768155" lon="12.738885"><ele>306.0</ele><time>2026-04-25T13:02:06.531Z</time></trkpt><trkpt lat="43.76825" lon="12.7387"><ele>306.0</ele><time>2026-04-25T13:02:07.532Z</time></trkpt><trkpt lat="43.76834" lon="12.7385067"><ele>303.0</ele><time>2026-04-25T13:02:08.534Z</time></trkpt><trkpt lat="43.76843" lon="12.7383117"><ele>300.0</ele><time>2026-04-25T13:02:09.534Z</time></trkpt><trkpt lat="43.768515" lon="12.7381333"><ele>297.0</ele><time>2026-04-25T13:02:10.533Z</time></trkpt><trkpt lat="43.7686033" lon="12.7379683"><ele>297.0</ele><time>2026-04-25T13:02:11.534Z</time></trkpt><trkpt lat="43.7686983" lon="12.7378217"><ele>297.0</ele><time>2026-04-25T13:02:12.531Z</time></trkpt><trkpt lat="43.7689267" lon="12.7376067"><ele>297.0</ele><time>2026-04-25T13:02:14.532Z</time></trkpt><trkpt lat="43.76906" lon="12.7375283"><ele>298.6666666666667</ele><time>2026-04-25T13:02:15.534Z</time></trkpt><trkpt lat="43.7692" lon="12.7374533"><ele>300.33333333333337</ele><time>2026-04-25T13:02:16.532Z</time></trkpt><trkpt lat="43.769345" lon="12.7373833"><ele>302.0</ele><time>2026-04-25T13:02:17.533Z</time></trkpt><trkpt lat="43.7694933" lon="12.7373167"><ele>302.0</ele><time>2026-04-25T13:02:18.531Z</time></trkpt><trkpt lat="43.76964" lon="12.7372467"><ele>302.0</ele><time>2026-04-25T13:02:19.533Z</time></trkpt><trkpt lat="43.769785" lon="12.7371733"><ele>302.0</ele><time>2026-04-25T13:02:20.534Z</time></trkpt><trkpt lat="43.769935" lon="12.7371033"><ele>302.0</ele><time>2026-04-25T13:02:21.534Z</time></trkpt><trkpt lat="43.770085" lon="12.73703"><ele>302.0</ele><time>2026-04-25T13:02:22.532Z</time></trkpt><trkpt lat="43.770235" lon="12.736955"><ele>302.0</ele><time>2026-04-25T13:02:23.533Z</time></trkpt><trkpt lat="43.7703917" lon="12.7368817"><ele>300.33333333333337</ele><time>2026-04-25T13:02:24.532Z</time></trkpt><trkpt lat="43.77055" lon="12.73681"><ele>298.6666666666667</ele><time>2026-04-25T13:02:25.534Z</time></trkpt><trkpt lat="43.770705" lon="12.7367367"><ele>297.0</ele><time>2026-04-25T13:02:26.534Z</time></trkpt><trkpt lat="43.7708583" lon="12.7366617"><ele>297.0</ele><time>2026-04-25T13:02:27.532Z</time></trkpt><trkpt lat="43.771015" lon="12.7365867"><ele>297.0</ele><time>2026-04-25T13:02:28.532Z</time></trkpt><trkpt lat="43.7711667" lon="12.7365083"><ele>297.0</ele><time>2026-04-25T13:02:29.532Z</time></trkpt><trkpt lat="43.7713183" lon="12.736425"><ele>295.3333333333333</ele><time>2026-04-25T13:02:30.534Z</time></trkpt><trkpt lat="43.7714717" lon="12.7363283"><ele>293.66666666666663</ele><time>2026-04-25T13:02:31.533Z</time></trkpt><trkpt lat="43.7716217" lon="12.7362167"><ele>292.0</ele><time>2026-04-25T13:02:32.533Z</time></trkpt><trkpt lat="43.7717717" lon="12.736095"><ele>289.0</ele><time>2026-04-25T13:02:33.532Z</time></trkpt><trkpt lat="43.7720733" lon="12.7358333"><ele>286.0</ele><time>2026-04-25T13:02:35.532Z</time></trkpt><trkpt lat="43.7722267" lon="12.7356967"><ele>286.0</ele><time>2026-04-25T13:02:36.533Z</time></trkpt><trkpt lat="43.772375" lon="12.7355633"><ele>286.0</ele><time>2026-04-25T13:02:37.533Z</time></trkpt><trkpt lat="43.7725183" lon="12.7354333"><ele>286.0</ele><time>2026-04-25T13:02:38.532Z</time></trkpt><trkpt lat="43.7726617" lon="12.7353033"><ele>290.0</ele><time>2026-04-25T13:02:39.533Z</time></trkpt><trkpt lat="43.772805" lon="12.735175"><ele>294.0</ele><time>2026-04-25T13:02:40.533Z</time></trkpt><trkpt lat="43.7729467" lon="12.73505"><ele>298.0</ele><time>2026-04-25T13:02:41.534Z</time></trkpt><trkpt lat="43.7730867" lon="12.734925"><ele>298.0</ele><time>2026-04-25T13:02:42.532Z</time></trkpt><trkpt lat="43.77323" lon="12.7348"><ele>298.0</ele><time>2026-04-25T13:02:43.532Z</time></trkpt><trkpt lat="43.7733767" lon="12.73468"><ele>298.0</ele><time>2026-04-25T13:02:44.533Z</time></trkpt><trkpt lat="43.7735233" lon="12.7345717"><ele>300.0</ele><time>2026-04-25T13:02:45.533Z</time></trkpt><trkpt lat="43.7736683" lon="12.7344983"><ele>302.0</ele><time>2026-04-25T13:02:46.532Z</time></trkpt><trkpt lat="43.7738133" lon="12.734445"><ele>304.0</ele><time>2026-04-25T13:02:47.534Z</time></trkpt><trkpt lat="43.7739633" lon="12.7344133"><ele>304.0</ele><time>2026-04-25T13:02:48.532Z</time></trkpt><trkpt lat="43.7741233" lon="12.73439"><ele>304.0</ele><time>2026-04-25T13:02:49.532Z</time></trkpt><trkpt lat="43.774285" lon="12.7343767"><ele>304.0</ele><time>2026-04-25T13:02:50.535Z</time></trkpt><trkpt lat="43.7744467" lon="12.7343617"><ele>303.0</ele><time>2026-04-25T13:02:51.532Z</time></trkpt><trkpt lat="43.774605" lon="12.7343317"><ele>302.0</ele><time>2026-04-25T13:02:52.533Z</time></trkpt><trkpt lat="43.7747617" lon="12.73427"><ele>301.0</ele><time>2026-04-25T13:02:53.534Z</time></trkpt><trkpt lat="43.7749167" lon="12.734165"><ele>301.0</ele><time>2026-04-25T13:02:54.533Z</time></trkpt><trkpt lat="43.77518" lon="12.733845"><ele>301.0</ele><time>2026-04-25T13:02:56.532Z</time></trkpt><trkpt lat="43.775295" lon="12.7336583"><ele>303.0</ele><time>2026-04-25T13:02:57.533Z</time></trkpt><trkpt lat="43.7754083" lon="12.7334683"><ele>305.0</ele><time>2026-04-25T13:02:58.533Z</time></trkpt><trkpt lat="43.7755233" lon="12.7332867"><ele>307.0</ele><time>2026-04-25T13:02:59.534Z</time></trkpt><trkpt lat="43.7756417" lon="12.7331167"><ele>307.0</ele><time>2026-04-25T13:03:00.532Z</time></trkpt><trkpt lat="43.775755" lon="12.7329567"><ele>307.0</ele><time>2026-04-25T13:03:01.533Z</time></trkpt><trkpt lat="43.775855" lon="12.73281"><ele>307.0</ele><time>2026-04-25T13:03:02.534Z</time></trkpt><trkpt lat="43.775955" lon="12.732685"><ele>307.0</ele><time>2026-04-25T13:03:03.532Z</time></trkpt><trkpt lat="43.77605" lon="12.732575"><ele>308.0</ele><time>2026-04-25T13:03:04.533Z</time></trkpt><trkpt lat="43.7761517" lon="12.7324933"><ele>309.0</ele><time>2026-04-25T13:03:05.534Z</time></trkpt><trkpt lat="43.7762617" lon="12.73244"><ele>310.0</ele><time>2026-04-25T13:03:06.532Z</time></trkpt><trkpt lat="43.77637" lon="12.732435"><ele>311.0</ele><time>2026-04-25T13:03:07.532Z</time></trkpt><trkpt lat="43.776485" lon="12.7324633"><ele>311.0</ele><time>2026-04-25T13:03:08.533Z</time></trkpt><trkpt lat="43.7766133" lon="12.7325217"><ele>311.0</ele><time>2026-04-25T13:03:09.536Z</time></trkpt><trkpt lat="43.7767433" lon="12.7326033"><ele>311.0</ele><time>2026-04-25T13:03:10.534Z</time></trkpt><trkpt lat="43.7768783" lon="12.7326867"><ele>311.0</ele><time>2026-04-25T13:03:11.535Z</time></trkpt><trkpt lat="43.7770167" lon="12.7327717"><ele>312.6666666666667</ele><time>2026-04-25T13:03:12.531Z</time></trkpt><trkpt lat="43.7771567" lon="12.7328533"><ele>314.3333333333333</ele><time>2026-04-25T13:03:13.532Z</time></trkpt><trkpt lat="43.7773033" lon="12.7329333"><ele>316.0</ele><time>2026-04-25T13:03:14.531Z</time></trkpt><trkpt lat="43.777455" lon="12.7330117"><ele>315.0</ele><time>2026-04-25T13:03:15.531Z</time></trkpt><trkpt lat="43.777745" lon="12.73318"><ele>314.0</ele><time>2026-04-25T13:03:17.533Z</time></trkpt><trkpt lat="43.7778833" lon="12.7332583"><ele>314.0</ele><time>2026-04-25T13:03:18.532Z</time></trkpt><trkpt lat="43.7780183" lon="12.7333117"><ele>314.0</ele><time>2026-04-25T13:03:19.533Z</time></trkpt><trkpt lat="43.77816" lon="12.7333283"><ele>314.0</ele><time>2026-04-25T13:03:20.531Z</time></trkpt><trkpt lat="43.778305" lon="12.73329"><ele>314.0</ele><time>2026-04-25T13:03:21.532Z</time></trkpt><trkpt lat="43.778445" lon="12.733195"><ele>315.0</ele><time>2026-04-25T13:03:22.531Z</time></trkpt><trkpt lat="43.77858" lon="12.7330667"><ele>316.0</ele><time>2026-04-25T13:03:23.531Z</time></trkpt><trkpt lat="43.7787083" lon="12.7329217"><ele>317.0</ele><time>2026-04-25T13:03:24.532Z</time></trkpt><trkpt lat="43.77884" lon="12.7327717"><ele>312.6666666666667</ele><time>2026-04-25T13:03:25.532Z</time></trkpt><trkpt lat="43.7789833" lon="12.73262"><ele>308.3333333333333</ele><time>2026-04-25T13:03:26.531Z</time></trkpt><trkpt lat="43.7791267" lon="12.7324667"><ele>304.0</ele><time>2026-04-25T13:03:27.532Z</time></trkpt><trkpt lat="43.7792717" lon="12.7323167"><ele>306.0</ele><time>2026-04-25T13:03:28.531Z</time></trkpt><trkpt lat="43.779415" lon="12.7321717"><ele>308.0</ele><time>2026-04-25T13:03:29.532Z</time></trkpt><trkpt lat="43.77956" lon="12.7320267"><ele>310.0</ele><time>2026-04-25T13:03:30.532Z</time></trkpt><trkpt lat="43.779705" lon="12.7318833"><ele>305.0</ele><time>2026-04-25T13:03:31.532Z</time></trkpt><trkpt lat="43.77984" lon="12.7317383"><ele>300.0</ele><time>2026-04-25T13:03:32.532Z</time></trkpt><trkpt lat="43.779955" lon="12.7315783"><ele>295.0</ele><time>2026-04-25T13:03:33.532Z</time></trkpt><trkpt lat="43.7800633" lon="12.7314217"><ele>295.0</ele><time>2026-04-25T13:03:34.531Z</time></trkpt><trkpt lat="43.780165" lon="12.7312683"><ele>295.0</ele><time>2026-04-25T13:03:35.533Z</time></trkpt><trkpt lat="43.7802667" lon="12.7311217"><ele>295.0</ele><time>2026-04-25T13:03:36.532Z</time></trkpt><trkpt lat="43.7804733" lon="12.7308833"><ele>293.25</ele><time>2026-04-25T13:03:38.532Z</time></trkpt><trkpt lat="43.7805817" lon="12.7307883"><ele>291.5</ele><time>2026-04-25T13:03:39.532Z</time></trkpt><trkpt lat="43.78069" lon="12.730705"><ele>289.75</ele><time>2026-04-25T13:03:40.531Z</time></trkpt><trkpt lat="43.7807917" lon="12.7306133"><ele>288.0</ele><time>2026-04-25T13:03:41.532Z</time></trkpt><trkpt lat="43.7808767" lon="12.7305067"><ele>288.0</ele><time>2026-04-25T13:03:42.532Z</time></trkpt><trkpt lat="43.78094" lon="12.73039"><ele>288.0</ele><time>2026-04-25T13:03:43.532Z</time></trkpt><trkpt lat="43.7809733" lon="12.7302667"><ele>288.0</ele><time>2026-04-25T13:03:44.532Z</time></trkpt><trkpt lat="43.7809633" lon="12.7301417"><ele>288.0</ele><time>2026-04-25T13:03:45.532Z</time></trkpt><trkpt lat="43.78093" lon="12.7300267"><ele>288.0</ele><time>2026-04-25T13:03:46.532Z</time></trkpt><trkpt lat="43.7808717" lon="12.729935"><ele>286.75</ele><time>2026-04-25T13:03:47.532Z</time></trkpt><trkpt lat="43.7808117" lon="12.7298567"><ele>285.5</ele><time>2026-04-25T13:03:48.533Z</time></trkpt><trkpt lat="43.7806783" lon="12.7298517"><ele>284.25</ele><time>2026-04-25T13:03:49.536Z</time></trkpt><trkpt lat="43.7805717" lon="12.7298617"><ele>283.0</ele><time>2026-04-25T13:03:50.532Z</time></trkpt><trkpt lat="43.7804367" lon="12.7299083"><ele>283.0</ele><time>2026-04-25T13:03:51.533Z</time></trkpt><trkpt lat="43.780245" lon="12.7300317"><ele>283.0</ele><time>2026-04-25T13:03:52.533Z</time></trkpt><trkpt lat="43.78012" lon="12.7301"><ele>283.0</ele><time>2026-04-25T13:03:53.531Z</time></trkpt><trkpt lat="43.7800083" lon="12.7301717"><ele>283.75</ele><time>2026-04-25T13:03:54.532Z</time></trkpt><trkpt lat="43.7799067" lon="12.7302433"><ele>284.5</ele><time>2026-04-25T13:03:55.534Z</time></trkpt><trkpt lat="43.779805" lon="12.7302767"><ele>285.25</ele><time>2026-04-25T13:03:56.531Z</time></trkpt><trkpt lat="43.77973" lon="12.7302767"><ele>286.0</ele><time>2026-04-25T13:03:57.532Z</time></trkpt><trkpt lat="43.7796117" lon="12.730125"><ele>283.5</ele><time>2026-04-25T13:03:59.534Z</time></trkpt><trkpt lat="43.779595" lon="12.7299933"><ele>281.0</ele><time>2026-04-25T13:04:00.531Z</time></trkpt><trkpt lat="43.7796733" lon="12.7298067"><ele>278.5</ele><time>2026-04-25T13:04:01.539Z</time></trkpt><trkpt lat="43.7797833" lon="12.7296"><ele>276.0</ele><time>2026-04-25T13:04:02.534Z</time></trkpt><trkpt lat="43.7799017" lon="12.72939"><ele>272.3333333333333</ele><time>2026-04-25T13:04:03.532Z</time></trkpt><trkpt lat="43.779995" lon="12.7291817"><ele>268.66666666666663</ele><time>2026-04-25T13:04:04.534Z</time></trkpt><trkpt lat="43.78008" lon="12.7289783"><ele>265.0</ele><time>2026-04-25T13:04:05.534Z</time></trkpt><trkpt lat="43.7801483" lon="12.7287783"><ele>267.0</ele><time>2026-04-25T13:04:06.534Z</time></trkpt><trkpt lat="43.7802133" lon="12.7285783"><ele>269.0</ele><time>2026-04-25T13:04:07.533Z</time></trkpt><trkpt lat="43.7802683" lon="12.72838"><ele>271.0</ele><time>2026-04-25T13:04:08.533Z</time></trkpt><trkpt lat="43.7803017" lon="12.7281867"><ele>271.0</ele><time>2026-04-25T13:04:09.534Z</time></trkpt><trkpt lat="43.78031" lon="12.7279967"><ele>271.0</ele><time>2026-04-25T13:04:10.535Z</time></trkpt><trkpt lat="43.780305" lon="12.727815"><ele>271.0</ele><time>2026-04-25T13:04:11.531Z</time></trkpt><trkpt lat="43.7802783" lon="12.7276383"><ele>271.0</ele><time>2026-04-25T13:04:12.533Z</time></trkpt><trkpt lat="43.7802167" lon="12.7274617"><ele>266.0</ele><time>2026-04-25T13:04:13.533Z</time></trkpt><trkpt lat="43.780135" lon="12.7272933"><ele>261.0</ele><time>2026-04-25T13:04:14.534Z</time></trkpt><trkpt lat="43.780045" lon="12.7271317"><ele>256.0</ele><time>2026-04-25T13:04:15.533Z</time></trkpt><trkpt lat="43.7799667" lon="12.7269717"><ele>251.0</ele><time>2026-04-25T13:04:16.533Z</time></trkpt><trkpt lat="43.7799033" lon="12.7268117"><ele>250.25</ele><time>2026-04-25T13:04:17.533Z</time></trkpt><trkpt lat="43.7798667" lon="12.7266517"><ele>249.5</ele><time>2026-04-25T13:04:18.534Z</time></trkpt><trkpt lat="43.77991" lon="12.72636"><ele>248.75</ele><time>2026-04-25T13:04:20.533Z</time></trkpt><trkpt lat="43.7799933" lon="12.7262583"><ele>248.0</ele><time>2026-04-25T13:04:21.532Z</time></trkpt><trkpt lat="43.7801083" lon="12.7262"><ele>248.25</ele><time>2026-04-25T13:04:22.533Z</time></trkpt><trkpt lat="43.7802383" lon="12.7261633"><ele>248.5</ele><time>2026-04-25T13:04:23.533Z</time></trkpt><trkpt lat="43.7803917" lon="12.726135"><ele>248.75</ele><time>2026-04-25T13:04:24.533Z</time></trkpt><trkpt lat="43.7805483" lon="12.7260883"><ele>249.0</ele><time>2026-04-25T13:04:25.533Z</time></trkpt><trkpt lat="43.780715" lon="12.726025"><ele>245.33333333333331</ele><time>2026-04-25T13:04:26.533Z</time></trkpt><trkpt lat="43.7808717" lon="12.7259433"><ele>241.66666666666666</ele><time>2026-04-25T13:04:27.533Z</time></trkpt><trkpt lat="43.7810183" lon="12.725835"><ele>238.0</ele><time>2026-04-25T13:04:28.535Z</time></trkpt><trkpt lat="43.78116" lon="12.725705"><ele>238.0</ele><time>2026-04-25T13:04:29.535Z</time></trkpt><trkpt lat="43.7813" lon="12.7255583"><ele>238.0</ele><time>2026-04-25T13:04:30.533Z</time></trkpt><trkpt lat="43.7814267" lon="12.7254"><ele>238.0</ele><time>2026-04-25T13:04:31.533Z</time></trkpt><trkpt lat="43.7815383" lon="12.7252417"><ele>234.5</ele><time>2026-04-25T13:04:32.534Z</time></trkpt><trkpt lat="43.7816467" lon="12.7250933"><ele>231.0</ele><time>2026-04-25T13:04:33.533Z</time></trkpt><trkpt lat="43.7817533" lon="12.7249667"><ele>227.5</ele><time>2026-04-25T13:04:34.533Z</time></trkpt><trkpt lat="43.781855" lon="12.72488"><ele>224.0</ele><time>2026-04-25T13:04:35.533Z</time></trkpt><trkpt lat="43.78195" lon="12.7248133"><ele>221.25</ele><time>2026-04-25T13:04:36.533Z</time></trkpt><trkpt lat="43.78203" lon="12.72475"><ele>218.5</ele><time>2026-04-25T13:04:37.533Z</time></trkpt><trkpt lat="43.7820933" lon="12.724675"><ele>215.75</ele><time>2026-04-25T13:04:38.533Z</time></trkpt><trkpt lat="43.7821067" lon="12.7245817"><ele>213.0</ele><time>2026-04-25T13:04:39.534Z</time></trkpt><trkpt lat="43.7819783" lon="12.7243267"><ele>212.4</ele><time>2026-04-25T13:04:42.533Z</time></trkpt><trkpt lat="43.7819117" lon="12.724235"><ele>211.8</ele><time>2026-04-25T13:04:43.533Z</time></trkpt><trkpt lat="43.7818567" lon="12.72412"><ele>211.2</ele><time>2026-04-25T13:04:44.533Z</time></trkpt><trkpt lat="43.7818483" lon="12.7239867"><ele>210.6</ele><time>2026-04-25T13:04:45.535Z</time></trkpt><trkpt lat="43.781885" lon="12.7238683"><ele>210.0</ele><time>2026-04-25T13:04:46.532Z</time></trkpt><trkpt lat="43.7819583" lon="12.723785"><ele>208.0</ele><time>2026-04-25T13:04:47.533Z</time></trkpt><trkpt lat="43.782045" lon="12.7237417"><ele>206.0</ele><time>2026-04-25T13:04:48.534Z</time></trkpt><trkpt lat="43.7821417" lon="12.723745"><ele>204.0</ele><time>2026-04-25T13:04:49.533Z</time></trkpt><trkpt lat="43.7822533" lon="12.7238333"><ele>202.0</ele><time>2026-04-25T13:04:50.533Z</time></trkpt><trkpt lat="43.7823883" lon="12.72403"><ele>202.0</ele><time>2026-04-25T13:04:51.533Z</time></trkpt><trkpt lat="43.7824917" lon="12.72424"><ele>202.0</ele><time>2026-04-25T13:04:52.533Z</time></trkpt><trkpt lat="43.7825867" lon="12.7244117"><ele>202.0</ele><time>2026-04-25T13:04:53.535Z</time></trkpt><trkpt lat="43.7826733" lon="12.7245783"><ele>199.0</ele><time>2026-04-25T13:04:54.533Z</time></trkpt><trkpt lat="43.7827567" lon="12.724755"><ele>196.0</ele><time>2026-04-25T13:04:55.534Z</time></trkpt><trkpt lat="43.782835" lon="12.7249033"><ele>193.0</ele><time>2026-04-25T13:04:56.533Z</time></trkpt><trkpt lat="43.7829217" lon="12.7250267"><ele>190.0</ele><time>2026-04-25T13:04:57.533Z</time></trkpt><trkpt lat="43.783025" lon="12.725115"><ele>190.0</ele><time>2026-04-25T13:04:58.534Z</time></trkpt><trkpt lat="43.7831433" lon="12.7251567"><ele>190.0</ele><time>2026-04-25T13:04:59.536Z</time></trkpt><trkpt lat="43.7832767" lon="12.725155"><ele>190.0</ele><time>2026-04-25T13:05:00.533Z</time></trkpt><trkpt lat="43.7835317" lon="12.72503"><ele>189.2</ele><time>2026-04-25T13:05:02.533Z</time></trkpt><trkpt lat="43.7836533" lon="12.7249617"><ele>188.4</ele><time>2026-04-25T13:05:03.539Z</time></trkpt><trkpt lat="43.7837583" lon="12.72489"><ele>187.60000000000002</ele><time>2026-04-25T13:05:04.533Z</time></trkpt><trkpt lat="43.783835" lon="12.7247967"><ele>186.8</ele><time>2026-04-25T13:05:05.536Z</time></trkpt><trkpt lat="43.7838783" lon="12.7246933"><ele>186.0</ele><time>2026-04-25T13:05:06.533Z</time></trkpt><trkpt lat="43.7839133" lon="12.724605"><ele>186.0</ele><time>2026-04-25T13:05:07.533Z</time></trkpt><trkpt lat="43.783975" lon="12.7245067"><ele>186.0</ele><time>2026-04-25T13:05:09.532Z</time></trkpt><trkpt lat="43.7840683" lon="12.7245867"><ele>186.0</ele><time>2026-04-25T13:05:11.534Z</time></trkpt><trkpt lat="43.7841317" lon="12.7246533"><ele>186.0</ele><time>2026-04-25T13:05:12.531Z</time></trkpt><trkpt lat="43.78419" lon="12.7246967"><ele>186.0</ele><time>2026-04-25T13:05:13.534Z</time></trkpt><trkpt lat="43.784295" lon="12.7247233"><ele>184.8</ele><time>2026-04-25T13:05:15.531Z</time></trkpt><trkpt lat="43.7843717" lon="12.72464"><ele>183.60000000000002</ele><time>2026-04-25T13:05:17.533Z</time></trkpt><trkpt lat="43.7844067" lon="12.724495"><ele>182.4</ele><time>2026-04-25T13:05:19.542Z</time></trkpt><trkpt lat="43.78441" lon="12.7244"><ele>181.2</ele><time>2026-04-25T13:05:20.532Z</time></trkpt><trkpt lat="43.7844067" lon="12.7242933"><ele>180.0</ele><time>2026-04-25T13:05:21.531Z</time></trkpt><trkpt lat="43.784385" lon="12.7240717"><ele>180.0</ele><time>2026-04-25T13:05:23.531Z</time></trkpt><trkpt lat="43.7843633" lon="12.72396"><ele>180.0</ele><time>2026-04-25T13:05:24.531Z</time></trkpt><trkpt lat="43.7843317" lon="12.7238517"><ele>180.0</ele><time>2026-04-25T13:05:25.531Z</time></trkpt><trkpt lat="43.7842933" lon="12.72375"><ele>180.0</ele><time>2026-04-25T13:05:26.532Z</time></trkpt><trkpt lat="43.7842467" lon="12.723665"><ele>180.0</ele><time>2026-04-25T13:05:27.536Z</time></trkpt><trkpt lat="43.784195" lon="12.7235967"><ele>180.0</ele><time>2026-04-25T13:05:28.531Z</time></trkpt><trkpt lat="43.7841367" lon="12.7235367"><ele>178.8</ele><time>2026-04-25T13:05:29.542Z</time></trkpt><trkpt lat="43.784085" lon="12.7234867"><ele>177.6</ele><time>2026-04-25T13:05:30.531Z</time></trkpt><trkpt lat="43.78401" lon="12.7233933"><ele>176.39999999999998</ele><time>2026-04-25T13:05:32.534Z</time></trkpt><trkpt lat="43.783985" lon="12.7232417"><ele>175.2</ele><time>2026-04-25T13:05:34.533Z</time></trkpt><trkpt lat="43.7839933" lon="12.7231283"><ele>174.0</ele><time>2026-04-25T13:05:35.532Z</time></trkpt><trkpt lat="43.784015" lon="12.7230017"><ele>174.0</ele><time>2026-04-25T13:05:36.532Z</time></trkpt><trkpt lat="43.7840567" lon="12.72287"><ele>174.0</ele><time>2026-04-25T13:05:37.532Z</time></trkpt><trkpt lat="43.7841383" lon="12.7227633"><ele>174.0</ele><time>2026-04-25T13:05:38.533Z</time></trkpt><trkpt lat="43.7842217" lon="12.7226883"><ele>174.0</ele><time>2026-04-25T13:05:39.535Z</time></trkpt><trkpt lat="43.784325" lon="12.72265"><ele>174.0</ele><time>2026-04-25T13:05:40.531Z</time></trkpt><trkpt lat="43.7844433" lon="12.7226383"><ele>170.0</ele><time>2026-04-25T13:05:41.531Z</time></trkpt><trkpt lat="43.784565" lon="12.7226417"><ele>166.0</ele><time>2026-04-25T13:05:42.532Z</time></trkpt><trkpt lat="43.7847617" lon="12.7226033"><ele>162.0</ele><time>2026-04-25T13:05:44.531Z</time></trkpt><trkpt lat="43.78485" lon="12.72256"><ele>158.0</ele><time>2026-04-25T13:05:45.531Z</time></trkpt><trkpt lat="43.7849083" lon="12.7224683"><ele>158.0</ele><time>2026-04-25T13:05:46.531Z</time></trkpt><trkpt lat="43.7849367" lon="12.7223567"><ele>158.0</ele><time>2026-04-25T13:05:47.533Z</time></trkpt><trkpt lat="43.784925" lon="12.7222133"><ele>158.0</ele><time>2026-04-25T13:05:48.531Z</time></trkpt><trkpt lat="43.784835" lon="12.7220467"><ele>158.0</ele><time>2026-04-25T13:05:49.531Z</time></trkpt><trkpt lat="43.7847117" lon="12.7218917"><ele>156.66666666666666</ele><time>2026-04-25T13:05:50.531Z</time></trkpt><trkpt lat="43.7845717" lon="12.7217467"><ele>155.33333333333334</ele><time>2026-04-25T13:05:51.532Z</time></trkpt><trkpt lat="43.784415" lon="12.7216"><ele>154.0</ele><time>2026-04-25T13:05:52.531Z</time></trkpt><trkpt lat="43.784265" lon="12.721475"><ele>154.0</ele><time>2026-04-25T13:05:53.533Z</time></trkpt><trkpt lat="43.7841183" lon="12.7213517"><ele>154.0</ele><time>2026-04-25T13:05:54.532Z</time></trkpt><trkpt lat="43.784" lon="12.7212467"><ele>154.0</ele><time>2026-04-25T13:05:55.531Z</time></trkpt><trkpt lat="43.783905" lon="12.7211467"><ele>154.0</ele><time>2026-04-25T13:05:56.534Z</time></trkpt><trkpt lat="43.7838467" lon="12.72104"><ele>152.16666666666669</ele><time>2026-04-25T13:05:57.533Z</time></trkpt><trkpt lat="43.7838133" lon="12.7209267"><ele>150.33333333333334</ele><time>2026-04-25T13:05:58.531Z</time></trkpt><trkpt lat="43.7838117" lon="12.72082"><ele>148.5</ele><time>2026-04-25T13:05:59.531Z</time></trkpt><trkpt lat="43.7838383" lon="12.7207283"><ele>146.66666666666666</ele><time>2026-04-25T13:06:00.532Z</time></trkpt><trkpt lat="43.78388" lon="12.7206617"><ele>144.83333333333331</ele><time>2026-04-25T13:06:01.531Z</time></trkpt><trkpt lat="43.7839883" lon="12.7206383"><ele>143.0</ele><time>2026-04-25T13:06:02.533Z</time></trkpt><trkpt lat="43.784155" lon="12.7206583"><ele>138.5</ele><time>2026-04-25T13:06:03.533Z</time></trkpt><trkpt lat="43.7845283" lon="12.72073"><ele>134.0</ele><time>2026-04-25T13:06:05.531Z</time></trkpt><trkpt lat="43.7846817" lon="12.7207533"><ele>134.0</ele><time>2026-04-25T13:06:06.531Z</time></trkpt><trkpt lat="43.7847917" lon="12.720765"><ele>134.0</ele><time>2026-04-25T13:06:07.534Z</time></trkpt><trkpt lat="43.7848967" lon="12.720785"><ele>134.0</ele><time>2026-04-25T13:06:08.535Z</time></trkpt><trkpt lat="43.7849883" lon="12.7208017"><ele>134.0</ele><time>2026-04-25T13:06:09.532Z</time></trkpt><trkpt lat="43.7850617" lon="12.720805"><ele>134.0</ele><time>2026-04-25T13:06:10.533Z</time></trkpt><trkpt lat="43.7851567" lon="12.7207117"><ele>134.0</ele><time>2026-04-25T13:06:12.535Z</time></trkpt><trkpt lat="43.7851633" lon="12.7206217"><ele>134.0</ele><time>2026-04-25T13:06:13.532Z</time></trkpt><trkpt lat="43.78515" lon="12.7205017"><ele>134.0</ele><time>2026-04-25T13:06:14.531Z</time></trkpt><trkpt lat="43.7851017" lon="12.720365"><ele>134.0</ele><time>2026-04-25T13:06:15.532Z</time></trkpt><trkpt lat="43.7850467" lon="12.7202267"><ele>134.0</ele><time>2026-04-25T13:06:16.536Z</time></trkpt><trkpt lat="43.7849517" lon="12.7201183"><ele>130.25</ele><time>2026-04-25T13:06:17.532Z</time></trkpt><trkpt lat="43.7848167" lon="12.72004"><ele>126.5</ele><time>2026-04-25T13:06:18.531Z</time></trkpt><trkpt lat="43.7846667" lon="12.719975"><ele>122.75</ele><time>2026-04-25T13:06:19.534Z</time></trkpt><trkpt lat="43.7845283" lon="12.7199233"><ele>119.0</ele><time>2026-04-25T13:06:20.531Z</time></trkpt><trkpt lat="43.7844017" lon="12.7198567"><ele>120.5</ele><time>2026-04-25T13:06:21.532Z</time></trkpt><trkpt lat="43.7842967" lon="12.7197633"><ele>122.0</ele><time>2026-04-25T13:06:22.533Z</time></trkpt><trkpt lat="43.78421" lon="12.7196467"><ele>123.5</ele><time>2026-04-25T13:06:23.532Z</time></trkpt><trkpt lat="43.7841517" lon="12.719505"><ele>125.0</ele><time>2026-04-25T13:06:24.532Z</time></trkpt><trkpt lat="43.7841167" lon="12.7191883"><ele>121.5</ele><time>2026-04-25T13:06:26.533Z</time></trkpt><trkpt lat="43.784145" lon="12.7190317"><ele>118.0</ele><time>2026-04-25T13:06:27.532Z</time></trkpt><trkpt lat="43.7842117" lon="12.7188767"><ele>114.5</ele><time>2026-04-25T13:06:28.533Z</time></trkpt><trkpt lat="43.7842933" lon="12.7187083"><ele>111.0</ele><time>2026-04-25T13:06:29.533Z</time></trkpt><trkpt lat="43.7843867" lon="12.718545"><ele>108.33333333333334</ele><time>2026-04-25T13:06:30.536Z</time></trkpt><trkpt lat="43.7844833" lon="12.7183833"><ele>105.66666666666667</ele><time>2026-04-25T13:06:31.533Z</time></trkpt><trkpt lat="43.78458" lon="12.7182217"><ele>103.0</ele><time>2026-04-25T13:06:32.534Z</time></trkpt><trkpt lat="43.784675" lon="12.7180583"><ele>103.0</ele><time>2026-04-25T13:06:33.533Z</time></trkpt><trkpt lat="43.78477" lon="12.7179"><ele>103.0</ele><time>2026-04-25T13:06:34.532Z</time></trkpt><trkpt lat="43.78486" lon="12.717745"><ele>103.0</ele><time>2026-04-25T13:06:35.533Z</time></trkpt><trkpt lat="43.7849517" lon="12.7176"><ele>103.0</ele><time>2026-04-25T13:06:36.537Z</time></trkpt><trkpt lat="43.7850517" lon="12.7174633"><ele>103.5</ele><time>2026-04-25T13:06:37.533Z</time></trkpt><trkpt lat="43.78516" lon="12.717345"><ele>104.0</ele><time>2026-04-25T13:06:38.534Z</time></trkpt><trkpt lat="43.7852817" lon="12.7172517"><ele>104.5</ele><time>2026-04-25T13:06:39.533Z</time></trkpt><trkpt lat="43.78542" lon="12.7171883"><ele>105.0</ele><time>2026-04-25T13:06:40.534Z</time></trkpt><trkpt lat="43.7855717" lon="12.7171567"><ele>105.0</ele><time>2026-04-25T13:06:41.535Z</time></trkpt><trkpt lat="43.7857333" lon="12.7171483"><ele>105.0</ele><time>2026-04-25T13:06:42.532Z</time></trkpt><trkpt lat="43.7859067" lon="12.717145"><ele>105.0</ele><time>2026-04-25T13:06:43.535Z</time></trkpt><trkpt lat="43.78608" lon="12.7171483"><ele>105.0</ele><time>2026-04-25T13:06:44.534Z</time></trkpt><trkpt lat="43.7862533" lon="12.717145"><ele>105.0</ele><time>2026-04-25T13:06:45.531Z</time></trkpt><trkpt lat="43.7865767" lon="12.71714"><ele>105.0</ele><time>2026-04-25T13:06:47.532Z</time></trkpt><trkpt lat="43.7867283" lon="12.7171217"><ele>105.0</ele><time>2026-04-25T13:06:48.534Z</time></trkpt><trkpt lat="43.786875" lon="12.717075"><ele>105.0</ele><time>2026-04-25T13:06:49.532Z</time></trkpt><trkpt lat="43.78702" lon="12.71699"><ele>106.25</ele><time>2026-04-25T13:06:50.532Z</time></trkpt><trkpt lat="43.7871417" lon="12.7168783"><ele>107.5</ele><time>2026-04-25T13:06:51.532Z</time></trkpt><trkpt lat="43.7872467" lon="12.71676"><ele>108.75</ele><time>2026-04-25T13:06:52.537Z</time></trkpt><trkpt lat="43.7873467" lon="12.716655"><ele>110.0</ele><time>2026-04-25T13:06:53.534Z</time></trkpt><trkpt lat="43.7874417" lon="12.7165833"><ele>109.99999999999999</ele><time>2026-04-25T13:06:54.532Z</time></trkpt><trkpt lat="43.78753" lon="12.7165283"><ele>110.0</ele><time>2026-04-25T13:06:55.534Z</time></trkpt><trkpt lat="43.7875933" lon="12.7164683"><ele>110.0</ele><time>2026-04-25T13:06:56.535Z</time></trkpt><trkpt lat="43.7876683" lon="12.7163617"><ele>110.0</ele><time>2026-04-25T13:06:58.533Z</time></trkpt><trkpt lat="43.787655" lon="12.7162483"><ele>109.99999999999999</ele><time>2026-04-25T13:07:00.532Z</time></trkpt><trkpt lat="43.7876167" lon="12.7161583"><ele>110.0</ele><time>2026-04-25T13:07:01.532Z</time></trkpt><trkpt lat="43.7875633" lon="12.71606"><ele>110.75</ele><time>2026-04-25T13:07:02.535Z</time></trkpt><trkpt lat="43.7874817" lon="12.71593"><ele>111.5</ele><time>2026-04-25T13:07:03.532Z</time></trkpt><trkpt lat="43.7873917" lon="12.7157917"><ele>112.25</ele><time>2026-04-25T13:07:04.534Z</time></trkpt><trkpt lat="43.787295" lon="12.7156417"><ele>113.0</ele><time>2026-04-25T13:07:05.534Z</time></trkpt><trkpt lat="43.7871967" lon="12.7154833"><ele>115.0</ele><time>2026-04-25T13:07:06.533Z</time></trkpt><trkpt lat="43.786995" lon="12.7151483"><ele>117.0</ele><time>2026-04-25T13:07:08.532Z</time></trkpt><trkpt lat="43.7869" lon="12.7149867"><ele>116.5</ele><time>2026-04-25T13:07:09.535Z</time></trkpt><trkpt lat="43.7868067" lon="12.7148267"><ele>116.0</ele><time>2026-04-25T13:07:10.532Z</time></trkpt><trkpt lat="43.7867167" lon="12.7146733"><ele>115.5</ele><time>2026-04-25T13:07:11.535Z</time></trkpt><trkpt lat="43.7866317" lon="12.7145183"><ele>115.0</ele><time>2026-04-25T13:07:12.532Z</time></trkpt><trkpt lat="43.786535" lon="12.7143633"><ele>115.0</ele><time>2026-04-25T13:07:13.533Z</time></trkpt><trkpt lat="43.7864367" lon="12.7142067"><ele>115.0</ele><time>2026-04-25T13:07:14.532Z</time></trkpt><trkpt lat="43.7863467" lon="12.71404"><ele>115.0</ele><time>2026-04-25T13:07:15.533Z</time></trkpt><trkpt lat="43.7862583" lon="12.7138717"><ele>115.0</ele><time>2026-04-25T13:07:16.533Z</time></trkpt><trkpt lat="43.786165" lon="12.7136967"><ele>115.0</ele><time>2026-04-25T13:07:17.533Z</time></trkpt><trkpt lat="43.7860717" lon="12.7135183"><ele>115.0</ele><time>2026-04-25T13:07:18.533Z</time></trkpt><trkpt lat="43.7859817" lon="12.7133383"><ele>115.0</ele><time>2026-04-25T13:07:19.533Z</time></trkpt><trkpt lat="43.785895" lon="12.71316"><ele>115.0</ele><time>2026-04-25T13:07:20.533Z</time></trkpt><trkpt lat="43.7858067" lon="12.7129783"><ele>115.0</ele><time>2026-04-25T13:07:21.532Z</time></trkpt><trkpt lat="43.7857183" lon="12.7127917"><ele>116.0</ele><time>2026-04-25T13:07:22.534Z</time></trkpt><trkpt lat="43.78563" lon="12.7126"><ele>117.0</ele><time>2026-04-25T13:07:23.535Z</time></trkpt><trkpt lat="43.7855433" lon="12.7124117"><ele>118.0</ele><time>2026-04-25T13:07:24.533Z</time></trkpt><trkpt lat="43.7854617" lon="12.7122317"><ele>118.0</ele><time>2026-04-25T13:07:25.533Z</time></trkpt><trkpt lat="43.7853817" lon="12.71206"><ele>118.0</ele><time>2026-04-25T13:07:26.533Z</time></trkpt><trkpt lat="43.7852983" lon="12.7118883"><ele>118.0</ele><time>2026-04-25T13:07:27.533Z</time></trkpt><trkpt lat="43.785135" lon="12.7115717"><ele>117.75</ele><time>2026-04-25T13:07:29.533Z</time></trkpt><trkpt lat="43.7850567" lon="12.7114217"><ele>117.5</ele><time>2026-04-25T13:07:30.533Z</time></trkpt><trkpt lat="43.784975" lon="12.711265"><ele>117.25</ele><time>2026-04-25T13:07:31.534Z</time></trkpt><trkpt lat="43.784885" lon="12.7111067"><ele>117.0</ele><time>2026-04-25T13:07:32.532Z</time></trkpt><trkpt lat="43.7847933" lon="12.71094"><ele>117.0</ele><time>2026-04-25T13:07:33.533Z</time></trkpt><trkpt lat="43.7847017" lon="12.71077"><ele>117.0</ele><time>2026-04-25T13:07:34.535Z</time></trkpt><trkpt lat="43.7846067" lon="12.710595"><ele>117.0</ele><time>2026-04-25T13:07:35.532Z</time></trkpt><trkpt lat="43.7845133" lon="12.7104133"><ele>118.0</ele><time>2026-04-25T13:07:36.534Z</time></trkpt><trkpt lat="43.784415" lon="12.710235"><ele>119.0</ele><time>2026-04-25T13:07:37.533Z</time></trkpt><trkpt lat="43.7843233" lon="12.7100667"><ele>120.0</ele><time>2026-04-25T13:07:38.531Z</time></trkpt><trkpt lat="43.784235" lon="12.709905"><ele>119.0</ele><time>2026-04-25T13:07:39.532Z</time></trkpt><trkpt lat="43.7841517" lon="12.709755"><ele>118.0</ele><time>2026-04-25T13:07:40.531Z</time></trkpt><trkpt lat="43.7840733" lon="12.7096133"><ele>117.0</ele><time>2026-04-25T13:07:41.533Z</time></trkpt><trkpt lat="43.7839967" lon="12.7094817"><ele>116.0</ele><time>2026-04-25T13:07:42.532Z</time></trkpt><trkpt lat="43.7839267" lon="12.7093567"><ele>116.0</ele><time>2026-04-25T13:07:43.533Z</time></trkpt><trkpt lat="43.783865" lon="12.709245"><ele>116.0</ele><time>2026-04-25T13:07:44.536Z</time></trkpt><trkpt lat="43.78381" lon="12.709145"><ele>116.0</ele><time>2026-04-25T13:07:45.532Z</time></trkpt><trkpt lat="43.7837583" lon="12.7090383"><ele>116.0</ele><time>2026-04-25T13:07:46.531Z</time></trkpt><trkpt lat="43.783725" lon="12.7089183"><ele>116.0</ele><time>2026-04-25T13:07:47.532Z</time></trkpt><trkpt lat="43.783705" lon="12.70878"><ele>115.66666666666666</ele><time>2026-04-25T13:07:48.531Z</time></trkpt><trkpt lat="43.7837133" lon="12.7084483"><ele>115.33333333333334</ele><time>2026-04-25T13:07:50.532Z</time></trkpt><trkpt lat="43.783725" lon="12.7082483"><ele>115.0</ele><time>2026-04-25T13:07:51.533Z</time></trkpt><trkpt lat="43.7837417" lon="12.7080333"><ele>115.0</ele><time>2026-04-25T13:07:52.531Z</time></trkpt><trkpt lat="43.7837483" lon="12.7078033"><ele>115.0</ele><time>2026-04-25T13:07:53.532Z</time></trkpt><trkpt lat="43.783755" lon="12.707575"><ele>115.0</ele><time>2026-04-25T13:07:54.532Z</time></trkpt><trkpt lat="43.7837517" lon="12.7073633"><ele>116.8</ele><time>2026-04-25T13:07:55.533Z</time></trkpt><trkpt lat="43.78374" lon="12.7071967"><ele>118.6</ele><time>2026-04-25T13:07:56.531Z</time></trkpt><trkpt lat="43.7837167" lon="12.7070583"><ele>120.4</ele><time>2026-04-25T13:07:57.532Z</time></trkpt><trkpt lat="43.7837083" lon="12.7069433"><ele>122.2</ele><time>2026-04-25T13:07:58.533Z</time></trkpt><trkpt lat="43.7837233" lon="12.7068517"><ele>124.0</ele><time>2026-04-25T13:07:59.538Z</time></trkpt><trkpt lat="43.783805" lon="12.706745"><ele>128.0</ele><time>2026-04-25T13:08:01.532Z</time></trkpt><trkpt lat="43.78389" lon="12.70676"><ele>132.0</ele><time>2026-04-25T13:08:02.532Z</time></trkpt><trkpt lat="43.783995" lon="12.7068017"><ele>136.0</ele><time>2026-04-25T13:08:03.531Z</time></trkpt><trkpt lat="43.78409" lon="12.7068083"><ele>140.0</ele><time>2026-04-25T13:08:04.532Z</time></trkpt><trkpt lat="43.7841933" lon="12.7067917"><ele>144.0</ele><time>2026-04-25T13:08:05.532Z</time></trkpt><trkpt lat="43.7842683" lon="12.70673"><ele>144.0</ele><time>2026-04-25T13:08:06.533Z</time></trkpt><trkpt lat="43.78432" lon="12.7066633"><ele>144.0</ele><time>2026-04-25T13:08:07.534Z</time></trkpt><trkpt lat="43.7843567" lon="12.7065917"><ele>144.0</ele><time>2026-04-25T13:08:08.532Z</time></trkpt><trkpt lat="43.784345" lon="12.70649"><ele>144.0</ele><time>2026-04-25T13:08:09.533Z</time></trkpt><trkpt lat="43.784275" lon="12.7061833"><ele>144.0</ele><time>2026-04-25T13:08:11.533Z</time></trkpt><trkpt lat="43.7842467" lon="12.7059817"><ele>147.0</ele><time>2026-04-25T13:08:12.533Z</time></trkpt><trkpt lat="43.7842367" lon="12.7057817"><ele>150.0</ele><time>2026-04-25T13:08:13.534Z</time></trkpt><trkpt lat="43.7842267" lon="12.7055833"><ele>153.0</ele><time>2026-04-25T13:08:14.534Z</time></trkpt><trkpt lat="43.7842" lon="12.7053667"><ele>156.0</ele><time>2026-04-25T13:08:15.533Z</time></trkpt><trkpt lat="43.7842083" lon="12.705155"><ele>159.0</ele><time>2026-04-25T13:08:16.533Z</time></trkpt><trkpt lat="43.7842233" lon="12.70493"><ele>162.0</ele><time>2026-04-25T13:08:17.535Z</time></trkpt><trkpt lat="43.7842367" lon="12.7047"><ele>165.0</ele><time>2026-04-25T13:08:18.533Z</time></trkpt><trkpt lat="43.7842633" lon="12.70449"><ele>165.75</ele><time>2026-04-25T13:08:19.533Z</time></trkpt><trkpt lat="43.7843" lon="12.704295"><ele>166.5</ele><time>2026-04-25T13:08:20.533Z</time></trkpt><trkpt lat="43.7843567" lon="12.7040983"><ele>167.25</ele><time>2026-04-25T13:08:21.532Z</time></trkpt><trkpt lat="43.7844283" lon="12.703915"><ele>168.0</ele><time>2026-04-25T13:08:22.534Z</time></trkpt><trkpt lat="43.7845017" lon="12.7037267"><ele>171.0</ele><time>2026-04-25T13:08:23.53Z</time></trkpt><trkpt lat="43.7845783" lon="12.70353"><ele>174.0</ele><time>2026-04-25T13:08:24.531Z</time></trkpt><trkpt lat="43.7846583" lon="12.703315"><ele>177.0</ele><time>2026-04-25T13:08:25.532Z</time></trkpt><trkpt lat="43.7847367" lon="12.70309"><ele>177.0</ele><time>2026-04-25T13:08:26.532Z</time></trkpt><trkpt lat="43.7848067" lon="12.702865"><ele>177.0</ele><time>2026-04-25T13:08:27.531Z</time></trkpt><trkpt lat="43.7848617" lon="12.70265"><ele>177.0</ele><time>2026-04-25T13:08:28.531Z</time></trkpt><trkpt lat="43.7849133" lon="12.7024367"><ele>180.0</ele><time>2026-04-25T13:08:29.533Z</time></trkpt><trkpt lat="43.7849617" lon="12.70221"><ele>183.0</ele><time>2026-04-25T13:08:30.531Z</time></trkpt><trkpt lat="43.7850533" lon="12.7017633"><ele>184.25</ele><time>2026-04-25T13:08:32.531Z</time></trkpt><trkpt lat="43.785095" lon="12.7015733"><ele>185.5</ele><time>2026-04-25T13:08:33.531Z</time></trkpt><trkpt lat="43.7851483" lon="12.7014133"><ele>186.75</ele><time>2026-04-25T13:08:34.531Z</time></trkpt><trkpt lat="43.7852267" lon="12.7012767"><ele>188.0</ele><time>2026-04-25T13:08:35.531Z</time></trkpt><trkpt lat="43.7853317" lon="12.70117"><ele>188.0</ele><time>2026-04-25T13:08:36.533Z</time></trkpt><trkpt lat="43.7854383" lon="12.701095"><ele>188.0</ele><time>2026-04-25T13:08:37.532Z</time></trkpt><trkpt lat="43.785545" lon="12.7010333"><ele>188.0</ele><time>2026-04-25T13:08:38.531Z</time></trkpt><trkpt lat="43.7856383" lon="12.7009533"><ele>188.0</ele><time>2026-04-25T13:08:39.531Z</time></trkpt><trkpt lat="43.785735" lon="12.7008583"><ele>190.75</ele><time>2026-04-25T13:08:40.531Z</time></trkpt><trkpt lat="43.7858383" lon="12.7007483"><ele>193.5</ele><time>2026-04-25T13:08:41.533Z</time></trkpt><trkpt lat="43.7859583" lon="12.70064"><ele>196.25</ele><time>2026-04-25T13:08:42.531Z</time></trkpt><trkpt lat="43.7860783" lon="12.7005433"><ele>199.0</ele><time>2026-04-25T13:08:43.533Z</time></trkpt><trkpt lat="43.7862017" lon="12.70047"><ele>200.0</ele><time>2026-04-25T13:08:44.532Z</time></trkpt><trkpt lat="43.7863383" lon="12.70042"><ele>201.0</ele><time>2026-04-25T13:08:45.535Z</time></trkpt><trkpt lat="43.7864833" lon="12.7003883"><ele>202.0</ele><time>2026-04-25T13:08:46.532Z</time></trkpt><trkpt lat="43.7866383" lon="12.7003683"><ele>203.0</ele><time>2026-04-25T13:08:47.532Z</time></trkpt><trkpt lat="43.7868033" lon="12.7003417"><ele>202.33333333333334</ele><time>2026-04-25T13:08:48.531Z</time></trkpt><trkpt lat="43.78698" lon="12.7003"><ele>201.66666666666669</ele><time>2026-04-25T13:08:49.531Z</time></trkpt><trkpt lat="43.78716" lon="12.700235"><ele>201.0</ele><time>2026-04-25T13:08:50.532Z</time></trkpt><trkpt lat="43.7873433" lon="12.7001467"><ele>206.5</ele><time>2026-04-25T13:08:51.531Z</time></trkpt><trkpt lat="43.7877217" lon="12.6999"><ele>212.0</ele><time>2026-04-25T13:08:53.532Z</time></trkpt><trkpt lat="43.7879183" lon="12.6997533"><ele>212.0</ele><time>2026-04-25T13:08:54.531Z</time></trkpt><trkpt lat="43.7881117" lon="12.6996017"><ele>212.0</ele><time>2026-04-25T13:08:55.533Z</time></trkpt><trkpt lat="43.7883017" lon="12.69944"><ele>212.0</ele><time>2026-04-25T13:08:56.535Z</time></trkpt><trkpt lat="43.7884983" lon="12.6992767"><ele>213.66666666666669</ele><time>2026-04-25T13:08:57.533Z</time></trkpt><trkpt lat="43.7886917" lon="12.6991117"><ele>215.33333333333331</ele><time>2026-04-25T13:08:58.531Z</time></trkpt><trkpt lat="43.7888767" lon="12.6989483"><ele>217.0</ele><time>2026-04-25T13:08:59.533Z</time></trkpt><trkpt lat="43.78905" lon="12.6987933"><ele>217.0</ele><time>2026-04-25T13:09:00.533Z</time></trkpt><trkpt lat="43.78921" lon="12.69864"><ele>217.0</ele><time>2026-04-25T13:09:01.534Z</time></trkpt><trkpt lat="43.7893683" lon="12.6984733"><ele>217.0</ele><time>2026-04-25T13:09:02.534Z</time></trkpt><trkpt lat="43.78953" lon="12.6983067"><ele>218.33333333333331</ele><time>2026-04-25T13:09:03.534Z</time></trkpt><trkpt lat="43.78969" lon="12.6981333"><ele>219.66666666666669</ele><time>2026-04-25T13:09:04.531Z</time></trkpt><trkpt lat="43.789845" lon="12.6979533"><ele>221.0</ele><time>2026-04-25T13:09:05.534Z</time></trkpt><trkpt lat="43.7900067" lon="12.69777"><ele>223.33333333333334</ele><time>2026-04-25T13:09:06.535Z</time></trkpt><trkpt lat="43.790165" lon="12.6975917"><ele>225.66666666666669</ele><time>2026-04-25T13:09:07.534Z</time></trkpt><trkpt lat="43.7903133" lon="12.697435"><ele>228.0</ele><time>2026-04-25T13:09:08.533Z</time></trkpt><trkpt lat="43.7904483" lon="12.6972967"><ele>228.0</ele><time>2026-04-25T13:09:09.534Z</time></trkpt><trkpt lat="43.7905683" lon="12.697175"><ele>228.0</ele><time>2026-04-25T13:09:10.531Z</time></trkpt><trkpt lat="43.7906783" lon="12.6970667"><ele>228.0</ele><time>2026-04-25T13:09:11.53Z</time></trkpt><trkpt lat="43.7907833" lon="12.6969667"><ele>228.0</ele><time>2026-04-25T13:09:12.531Z</time></trkpt><trkpt lat="43.79099" lon="12.6967817"><ele>231.25</ele><time>2026-04-25T13:09:14.534Z</time></trkpt><trkpt lat="43.7910983" lon="12.69671"><ele>234.5</ele><time>2026-04-25T13:09:15.531Z</time></trkpt><trkpt lat="43.7912183" lon="12.6966467"><ele>237.75</ele><time>2026-04-25T13:09:16.531Z</time></trkpt><trkpt lat="43.7913533" lon="12.6965883"><ele>241.0</ele><time>2026-04-25T13:09:17.533Z</time></trkpt><trkpt lat="43.7914883" lon="12.696535"><ele>241.0</ele><time>2026-04-25T13:09:18.535Z</time></trkpt><trkpt lat="43.79162" lon="12.6964967"><ele>241.0</ele><time>2026-04-25T13:09:19.534Z</time></trkpt><trkpt lat="43.7917567" lon="12.6964883"><ele>241.0</ele><time>2026-04-25T13:09:20.531Z</time></trkpt><trkpt lat="43.7918983" lon="12.6965183"><ele>241.0</ele><time>2026-04-25T13:09:21.537Z</time></trkpt><trkpt lat="43.79205" lon="12.69659"><ele>244.0</ele><time>2026-04-25T13:09:22.533Z</time></trkpt><trkpt lat="43.7922" lon="12.6966883"><ele>247.0</ele><time>2026-04-25T13:09:23.534Z</time></trkpt><trkpt lat="43.7923517" lon="12.696795"><ele>250.0</ele><time>2026-04-25T13:09:24.534Z</time></trkpt><trkpt lat="43.7925017" lon="12.6969167"><ele>251.66666666666666</ele><time>2026-04-25T13:09:25.531Z</time></trkpt><trkpt lat="43.7926517" lon="12.6970517"><ele>253.33333333333331</ele><time>2026-04-25T13:09:26.534Z</time></trkpt><trkpt lat="43.7928033" lon="12.6971933"><ele>255.0</ele><time>2026-04-25T13:09:27.534Z</time></trkpt><trkpt lat="43.7929567" lon="12.697335"><ele>255.0</ele><time>2026-04-25T13:09:28.534Z</time></trkpt><trkpt lat="43.793105" lon="12.6974717"><ele>255.0</ele><time>2026-04-25T13:09:29.531Z</time></trkpt><trkpt lat="43.79324" lon="12.6975967"><ele>255.0</ele><time>2026-04-25T13:09:30.533Z</time></trkpt><trkpt lat="43.7933617" lon="12.697715"><ele>254.75</ele><time>2026-04-25T13:09:31.534Z</time></trkpt><trkpt lat="43.7934683" lon="12.6978233"><ele>254.5</ele><time>2026-04-25T13:09:32.534Z</time></trkpt><trkpt lat="43.79356" lon="12.6979183"><ele>254.25</ele><time>2026-04-25T13:09:33.536Z</time></trkpt><trkpt lat="43.7937283" lon="12.69807"><ele>254.0</ele><time>2026-04-25T13:09:36.531Z</time></trkpt><trkpt lat="43.7937417" lon="12.697935"><ele>254.0</ele><time>2026-04-25T13:09:40.532Z</time></trkpt><trkpt lat="43.7937317" lon="12.69784"><ele>253.99999999999997</ele><time>2026-04-25T13:09:41.531Z</time></trkpt><trkpt lat="43.7937267" lon="12.6977167"><ele>253.99999999999997</ele><time>2026-04-25T13:09:42.532Z</time></trkpt><trkpt lat="43.7937367" lon="12.6975867"><ele>254.0</ele><time>2026-04-25T13:09:43.533Z</time></trkpt><trkpt lat="43.7937717" lon="12.697445"><ele>254.0</ele><time>2026-04-25T13:09:44.534Z</time></trkpt><trkpt lat="43.7938217" lon="12.6972867"><ele>254.75</ele><time>2026-04-25T13:09:45.533Z</time></trkpt><trkpt lat="43.7938683" lon="12.69712"><ele>255.5</ele><time>2026-04-25T13:09:46.531Z</time></trkpt><trkpt lat="43.79392" lon="12.696955"><ele>256.25</ele><time>2026-04-25T13:09:47.53Z</time></trkpt><trkpt lat="43.7939617" lon="12.6967867"><ele>257.0</ele><time>2026-04-25T13:09:48.531Z</time></trkpt><trkpt lat="43.793995" lon="12.69662"><ele>255.25</ele><time>2026-04-25T13:09:49.531Z</time></trkpt><trkpt lat="43.7940033" lon="12.6964533"><ele>253.5</ele><time>2026-04-25T13:09:50.532Z</time></trkpt><trkpt lat="43.79399" lon="12.6962817"><ele>251.75</ele><time>2026-04-25T13:09:51.531Z</time></trkpt><trkpt lat="43.7939433" lon="12.69612"><ele>250.0</ele><time>2026-04-25T13:09:52.533Z</time></trkpt><trkpt lat="43.7938667" lon="12.6959533"><ele>246.66666666666666</ele><time>2026-04-25T13:09:53.532Z</time></trkpt><trkpt lat="43.7937867" lon="12.695785"><ele>243.33333333333331</ele><time>2026-04-25T13:09:54.533Z</time></trkpt><trkpt lat="43.79366" lon="12.6954533"><ele>240.0</ele><time>2026-04-25T13:09:56.537Z</time></trkpt><trkpt lat="43.7936083" lon="12.695275"><ele>239.33333333333331</ele><time>2026-04-25T13:09:57.531Z</time></trkpt><trkpt lat="43.793575" lon="12.6950817"><ele>238.66666666666666</ele><time>2026-04-25T13:09:58.532Z</time></trkpt><trkpt lat="43.7935633" lon="12.69487"><ele>238.0</ele><time>2026-04-25T13:09:59.533Z</time></trkpt><trkpt lat="43.793575" lon="12.6946433"><ele>237.66666666666666</ele><time>2026-04-25T13:10:00.531Z</time></trkpt><trkpt lat="43.7936067" lon="12.6943983"><ele>237.33333333333331</ele><time>2026-04-25T13:10:01.532Z</time></trkpt><trkpt lat="43.7936567" lon="12.69415"><ele>237.0</ele><time>2026-04-25T13:10:02.532Z</time></trkpt><trkpt lat="43.7937117" lon="12.6939067"><ele>237.0</ele><time>2026-04-25T13:10:03.533Z</time></trkpt><trkpt lat="43.7937533" lon="12.693665"><ele>237.0</ele><time>2026-04-25T13:10:04.534Z</time></trkpt><trkpt lat="43.79377" lon="12.6934217"><ele>237.0</ele><time>2026-04-25T13:10:05.532Z</time></trkpt><trkpt lat="43.79376" lon="12.6931683"><ele>237.0</ele><time>2026-04-25T13:10:06.532Z</time></trkpt><trkpt lat="43.7937233" lon="12.6928967"><ele>237.0</ele><time>2026-04-25T13:10:07.532Z</time></trkpt><trkpt lat="43.7936833" lon="12.6926217"><ele>237.0</ele><time>2026-04-25T13:10:08.532Z</time></trkpt><trkpt lat="43.7936467" lon="12.6923567"><ele>239.0</ele><time>2026-04-25T13:10:09.532Z</time></trkpt><trkpt lat="43.79362" lon="12.6921133"><ele>241.0</ele><time>2026-04-25T13:10:10.532Z</time></trkpt><trkpt lat="43.7936133" lon="12.6919067"><ele>243.0</ele><time>2026-04-25T13:10:11.533Z</time></trkpt><trkpt lat="43.7936333" lon="12.6917333"><ele>244.5</ele><time>2026-04-25T13:10:12.532Z</time></trkpt><trkpt lat="43.7936817" lon="12.6915683"><ele>246.0</ele><time>2026-04-25T13:10:13.532Z</time></trkpt><trkpt lat="43.7937533" lon="12.6914"><ele>247.5</ele><time>2026-04-25T13:10:14.534Z</time></trkpt><trkpt lat="43.7938317" lon="12.6912067"><ele>249.0</ele><time>2026-04-25T13:10:15.534Z</time></trkpt><trkpt lat="43.7939483" lon="12.6907267"><ele>250.0</ele><time>2026-04-25T13:10:17.533Z</time></trkpt><trkpt lat="43.793985" lon="12.6904517"><ele>251.0</ele><time>2026-04-25T13:10:18.532Z</time></trkpt><trkpt lat="43.79401" lon="12.6901567"><ele>252.0</ele><time>2026-04-25T13:10:19.535Z</time></trkpt><trkpt lat="43.79402" lon="12.68987"><ele>253.66666666666669</ele><time>2026-04-25T13:10:20.532Z</time></trkpt><trkpt lat="43.7940283" lon="12.6896083"><ele>255.33333333333334</ele><time>2026-04-25T13:10:21.537Z</time></trkpt><trkpt lat="43.7940483" lon="12.6893783"><ele>257.0</ele><time>2026-04-25T13:10:22.534Z</time></trkpt><trkpt lat="43.794085" lon="12.689175"><ele>260.6666666666667</ele><time>2026-04-25T13:10:23.532Z</time></trkpt><trkpt lat="43.7941467" lon="12.6889883"><ele>264.3333333333333</ele><time>2026-04-25T13:10:24.532Z</time></trkpt><trkpt lat="43.7942317" lon="12.6887983"><ele>268.0</ele><time>2026-04-25T13:10:25.533Z</time></trkpt><trkpt lat="43.794325" lon="12.688595"><ele>267.3333333333333</ele><time>2026-04-25T13:10:26.533Z</time></trkpt><trkpt lat="43.7944183" lon="12.6883717"><ele>266.6666666666667</ele><time>2026-04-25T13:10:27.532Z</time></trkpt><trkpt lat="43.7945033" lon="12.6881383"><ele>266.0</ele><time>2026-04-25T13:10:28.534Z</time></trkpt><trkpt lat="43.7945717" lon="12.6879167"><ele>269.0</ele><time>2026-04-25T13:10:29.534Z</time></trkpt><trkpt lat="43.7946267" lon="12.6877117"><ele>272.0</ele><time>2026-04-25T13:10:30.532Z</time></trkpt><trkpt lat="43.7946817" lon="12.687535"><ele>275.0</ele><time>2026-04-25T13:10:31.532Z</time></trkpt><trkpt lat="43.7947483" lon="12.6873767"><ele>278.0</ele><time>2026-04-25T13:10:32.533Z</time></trkpt><trkpt lat="43.794835" lon="12.68723"><ele>278.0</ele><time>2026-04-25T13:10:33.533Z</time></trkpt><trkpt lat="43.7949383" lon="12.6871033"><ele>278.0</ele><time>2026-04-25T13:10:34.533Z</time></trkpt><trkpt lat="43.7950583" lon="12.6870033"><ele>278.0</ele><time>2026-04-25T13:10:35.533Z</time></trkpt><trkpt lat="43.7951917" lon="12.686935"><ele>278.0</ele><time>2026-04-25T13:10:36.533Z</time></trkpt><trkpt lat="43.7955083" lon="12.686855"><ele>279.33333333333337</ele><time>2026-04-25T13:10:38.533Z</time></trkpt><trkpt lat="43.7956717" lon="12.6868267"><ele>280.6666666666667</ele><time>2026-04-25T13:10:39.533Z</time></trkpt><trkpt lat="43.7958367" lon="12.6867967"><ele>282.0</ele><time>2026-04-25T13:10:40.533Z</time></trkpt><trkpt lat="43.7960133" lon="12.6867667"><ele>282.0</ele><time>2026-04-25T13:10:41.532Z</time></trkpt><trkpt lat="43.7962" lon="12.68674"><ele>282.0</ele><time>2026-04-25T13:10:42.534Z</time></trkpt><trkpt lat="43.79639" lon="12.686715"><ele>282.0</ele><time>2026-04-25T13:10:43.533Z</time></trkpt><trkpt lat="43.7965733" lon="12.68669"><ele>282.0</ele><time>2026-04-25T13:10:44.535Z</time></trkpt><trkpt lat="43.7967533" lon="12.68667"><ele>282.0</ele><time>2026-04-25T13:10:45.534Z</time></trkpt><trkpt lat="43.7969233" lon="12.6866533"><ele>282.0</ele><time>2026-04-25T13:10:46.532Z</time></trkpt><trkpt lat="43.7970817" lon="12.6866383"><ele>281.5</ele><time>2026-04-25T13:10:47.535Z</time></trkpt><trkpt lat="43.7972333" lon="12.686635"><ele>281.0</ele><time>2026-04-25T13:10:48.535Z</time></trkpt><trkpt lat="43.7973733" lon="12.6866533"><ele>280.5</ele><time>2026-04-25T13:10:49.535Z</time></trkpt><trkpt lat="43.7975033" lon="12.6867017"><ele>280.0</ele><time>2026-04-25T13:10:50.531Z</time></trkpt><trkpt lat="43.7976267" lon="12.6867767"><ele>281.66666666666663</ele><time>2026-04-25T13:10:51.533Z</time></trkpt><trkpt lat="43.7977567" lon="12.686885"><ele>283.3333333333333</ele><time>2026-04-25T13:10:52.533Z</time></trkpt><trkpt lat="43.797885" lon="12.6870067"><ele>285.0</ele><time>2026-04-25T13:10:53.534Z</time></trkpt><trkpt lat="43.798015" lon="12.6871283"><ele>279.3333333333333</ele><time>2026-04-25T13:10:54.534Z</time></trkpt><trkpt lat="43.7981517" lon="12.6872517"><ele>273.66666666666663</ele><time>2026-04-25T13:10:55.531Z</time></trkpt><trkpt lat="43.798285" lon="12.68737"><ele>268.0</ele><time>2026-04-25T13:10:56.532Z</time></trkpt><trkpt lat="43.7984167" lon="12.6874883"><ele>269.66666666666663</ele><time>2026-04-25T13:10:57.534Z</time></trkpt><trkpt lat="43.798675" lon="12.68771"><ele>271.3333333333333</ele><time>2026-04-25T13:10:59.534Z</time></trkpt><trkpt lat="43.7987967" lon="12.6878133"><ele>273.0</ele><time>2026-04-25T13:11:00.534Z</time></trkpt><trkpt lat="43.7989167" lon="12.6879183"><ele>270.5</ele><time>2026-04-25T13:11:01.534Z</time></trkpt><trkpt lat="43.799035" lon="12.68802"><ele>268.0</ele><time>2026-04-25T13:11:02.535Z</time></trkpt><trkpt lat="43.7991483" lon="12.6881183"><ele>265.5</ele><time>2026-04-25T13:11:03.536Z</time></trkpt><trkpt lat="43.79926" lon="12.6882167"><ele>263.0</ele><time>2026-04-25T13:11:04.535Z</time></trkpt><trkpt lat="43.7993683" lon="12.6883117"><ele>262.8</ele><time>2026-04-25T13:11:05.534Z</time></trkpt><trkpt lat="43.7994683" lon="12.6883967"><ele>262.6</ele><time>2026-04-25T13:11:06.535Z</time></trkpt><trkpt lat="43.7995567" lon="12.688455"><ele>262.4</ele><time>2026-04-25T13:11:07.534Z</time></trkpt><trkpt lat="43.79964" lon="12.6884833"><ele>262.2</ele><time>2026-04-25T13:11:08.534Z</time></trkpt><trkpt lat="43.7997267" lon="12.688475"><ele>262.0</ele><time>2026-04-25T13:11:09.534Z</time></trkpt><trkpt lat="43.7998" lon="12.6884183"><ele>262.0</ele><time>2026-04-25T13:11:10.534Z</time></trkpt><trkpt lat="43.7998483" lon="12.6883217"><ele>262.0</ele><time>2026-04-25T13:11:11.531Z</time></trkpt><trkpt lat="43.7998883" lon="12.68821"><ele>262.0</ele><time>2026-04-25T13:11:12.534Z</time></trkpt><trkpt lat="43.799895" lon="12.6880517"><ele>262.0</ele><time>2026-04-25T13:11:13.533Z</time></trkpt><trkpt lat="43.7999067" lon="12.6878717"><ele>262.0</ele><time>2026-04-25T13:11:14.532Z</time></trkpt><trkpt lat="43.7998967" lon="12.6876367"><ele>262.3333333333333</ele><time>2026-04-25T13:11:15.533Z</time></trkpt><trkpt lat="43.7998783" lon="12.68739"><ele>262.6666666666667</ele><time>2026-04-25T13:11:16.532Z</time></trkpt><trkpt lat="43.7998583" lon="12.687145"><ele>263.0</ele><time>2026-04-25T13:11:17.533Z</time></trkpt><trkpt lat="43.79983" lon="12.6869017"><ele>263.5</ele><time>2026-04-25T13:11:18.534Z</time></trkpt><trkpt lat="43.799785" lon="12.6864467"><ele>264.0</ele><time>2026-04-25T13:11:20.532Z</time></trkpt><trkpt lat="43.7997633" lon="12.68622"><ele>263.6666666666667</ele><time>2026-04-25T13:11:21.532Z</time></trkpt><trkpt lat="43.799735" lon="12.68599"><ele>263.33333333333337</ele><time>2026-04-25T13:11:22.534Z</time></trkpt><trkpt lat="43.7997083" lon="12.6857483"><ele>263.0</ele><time>2026-04-25T13:11:23.533Z</time></trkpt><trkpt lat="43.7996833" lon="12.6855033"><ele>261.6666666666667</ele><time>2026-04-25T13:11:24.533Z</time></trkpt><trkpt lat="43.799665" lon="12.6852567"><ele>260.3333333333333</ele><time>2026-04-25T13:11:25.533Z</time></trkpt><trkpt lat="43.7996433" lon="12.6850167"><ele>259.0</ele><time>2026-04-25T13:11:26.533Z</time></trkpt><trkpt lat="43.7996283" lon="12.6847733"><ele>259.0</ele><time>2026-04-25T13:11:27.532Z</time></trkpt><trkpt lat="43.7996033" lon="12.6845333"><ele>259.0</ele><time>2026-04-25T13:11:28.533Z</time></trkpt><trkpt lat="43.7995783" lon="12.68431"><ele>259.0</ele><time>2026-04-25T13:11:29.535Z</time></trkpt><trkpt lat="43.7995567" lon="12.6840917"><ele>258.66666666666663</ele><time>2026-04-25T13:11:30.532Z</time></trkpt><trkpt lat="43.79954" lon="12.6838783"><ele>258.3333333333333</ele><time>2026-04-25T13:11:31.533Z</time></trkpt><trkpt lat="43.7995217" lon="12.6836617"><ele>258.0</ele><time>2026-04-25T13:11:32.533Z</time></trkpt><trkpt lat="43.799505" lon="12.6834517"><ele>258.0</ele><time>2026-04-25T13:11:33.535Z</time></trkpt><trkpt lat="43.7994933" lon="12.6832617"><ele>258.0</ele><time>2026-04-25T13:11:34.534Z</time></trkpt><trkpt lat="43.7994867" lon="12.6830817"><ele>258.0</ele><time>2026-04-25T13:11:35.531Z</time></trkpt><trkpt lat="43.7994933" lon="12.6829133"><ele>258.0</ele><time>2026-04-25T13:11:36.532Z</time></trkpt><trkpt lat="43.7995017" lon="12.682745"><ele>256.0</ele><time>2026-04-25T13:11:37.533Z</time></trkpt><trkpt lat="43.79951" lon="12.68257"><ele>254.0</ele><time>2026-04-25T13:11:38.533Z</time></trkpt><trkpt lat="43.7995117" lon="12.6823817"><ele>252.0</ele><time>2026-04-25T13:11:39.533Z</time></trkpt><trkpt lat="43.79951" lon="12.6819733"><ele>250.75</ele><time>2026-04-25T13:11:41.534Z</time></trkpt><trkpt lat="43.7995083" lon="12.6817733"><ele>249.5</ele><time>2026-04-25T13:11:42.534Z</time></trkpt><trkpt lat="43.7995" lon="12.6815833"><ele>248.25</ele><time>2026-04-25T13:11:43.534Z</time></trkpt><trkpt lat="43.79949" lon="12.6814117"><ele>247.0</ele><time>2026-04-25T13:11:44.533Z</time></trkpt><trkpt lat="43.7994783" lon="12.68126"><ele>247.0</ele><time>2026-04-25T13:11:45.531Z</time></trkpt><trkpt lat="43.79946" lon="12.6811417"><ele>247.0</ele><time>2026-04-25T13:11:46.531Z</time></trkpt><trkpt lat="43.7994517" lon="12.68104"><ele>247.0</ele><time>2026-04-25T13:11:47.536Z</time></trkpt><trkpt lat="43.7994483" lon="12.6808917"><ele>247.0</ele><time>2026-04-25T13:11:49.535Z</time></trkpt><trkpt lat="43.7995217" lon="12.68081"><ele>247.0</ele><time>2026-04-25T13:11:51.531Z</time></trkpt><trkpt lat="43.7996417" lon="12.680765"><ele>246.66666666666666</ele><time>2026-04-25T13:11:52.531Z</time></trkpt><trkpt lat="43.7997767" lon="12.6806833"><ele>246.33333333333331</ele><time>2026-04-25T13:11:53.534Z</time></trkpt><trkpt lat="43.7999183" lon="12.6805867"><ele>246.0</ele><time>2026-04-25T13:11:54.532Z</time></trkpt><trkpt lat="43.8000633" lon="12.6804867"><ele>241.66666666666669</ele><time>2026-04-25T13:11:55.531Z</time></trkpt><trkpt lat="43.8002067" lon="12.6803917"><ele>237.33333333333334</ele><time>2026-04-25T13:11:56.532Z</time></trkpt><trkpt lat="43.8003467" lon="12.68031"><ele>233.0</ele><time>2026-04-25T13:11:57.531Z</time></trkpt><trkpt lat="43.8004917" lon="12.6802683"><ele>233.0</ele><time>2026-04-25T13:11:58.531Z</time></trkpt><trkpt lat="43.8006567" lon="12.6802683"><ele>233.0</ele><time>2026-04-25T13:11:59.533Z</time></trkpt><trkpt lat="43.80082" lon="12.6802917"><ele>233.0</ele><time>2026-04-25T13:12:00.534Z</time></trkpt><trkpt lat="43.8011367" lon="12.6803367"><ele>230.66666666666669</ele><time>2026-04-25T13:12:02.532Z</time></trkpt><trkpt lat="43.8012883" lon="12.680365"><ele>228.33333333333331</ele><time>2026-04-25T13:12:03.534Z</time></trkpt><trkpt lat="43.8014367" lon="12.6804133"><ele>226.0</ele><time>2026-04-25T13:12:04.533Z</time></trkpt><trkpt lat="43.80158" lon="12.6804833"><ele>226.0</ele><time>2026-04-25T13:12:05.534Z</time></trkpt><trkpt lat="43.8017267" lon="12.680575"><ele>226.0</ele><time>2026-04-25T13:12:06.534Z</time></trkpt><trkpt lat="43.801875" lon="12.68068"><ele>226.0</ele><time>2026-04-25T13:12:07.533Z</time></trkpt><trkpt lat="43.80203" lon="12.6807917"><ele>223.0</ele><time>2026-04-25T13:12:08.534Z</time></trkpt><trkpt lat="43.8021883" lon="12.6809033"><ele>220.0</ele><time>2026-04-25T13:12:09.534Z</time></trkpt><trkpt lat="43.8023517" lon="12.681005"><ele>217.0</ele><time>2026-04-25T13:12:10.534Z</time></trkpt><trkpt lat="43.8025283" lon="12.6810917"><ele>216.0</ele><time>2026-04-25T13:12:11.533Z</time></trkpt><trkpt lat="43.80271" lon="12.681175"><ele>215.0</ele><time>2026-04-25T13:12:12.533Z</time></trkpt><trkpt lat="43.8028867" lon="12.6812567"><ele>214.0</ele><time>2026-04-25T13:12:13.534Z</time></trkpt><trkpt lat="43.8030567" lon="12.6813333"><ele>214.0</ele><time>2026-04-25T13:12:14.534Z</time></trkpt><trkpt lat="43.8032233" lon="12.6814083"><ele>214.0</ele><time>2026-04-25T13:12:15.533Z</time></trkpt><trkpt lat="43.8033917" lon="12.68149"><ele>214.0</ele><time>2026-04-25T13:12:16.532Z</time></trkpt><trkpt lat="43.8035567" lon="12.6815883"><ele>214.33333333333331</ele><time>2026-04-25T13:12:17.531Z</time></trkpt><trkpt lat="43.8037083" lon="12.681705"><ele>214.66666666666669</ele><time>2026-04-25T13:12:18.531Z</time></trkpt><trkpt lat="43.8038517" lon="12.681835"><ele>215.0</ele><time>2026-04-25T13:12:19.531Z</time></trkpt><trkpt lat="43.804" lon="12.681975"><ele>213.5</ele><time>2026-04-25T13:12:20.53Z</time></trkpt><trkpt lat="43.80415" lon="12.6821183"><ele>212.0</ele><time>2026-04-25T13:12:21.532Z</time></trkpt><trkpt lat="43.8044483" lon="12.6824167"><ele>212.0</ele><time>2026-04-25T13:12:23.535Z</time></trkpt><trkpt lat="43.8045883" lon="12.6825783"><ele>212.0</ele><time>2026-04-25T13:12:24.533Z</time></trkpt><trkpt lat="43.8047267" lon="12.6827383"><ele>212.0</ele><time>2026-04-25T13:12:25.535Z</time></trkpt><trkpt lat="43.8048617" lon="12.682905"><ele>211.33333333333334</ele><time>2026-04-25T13:12:26.534Z</time></trkpt><trkpt lat="43.804995" lon="12.6830767"><ele>210.66666666666669</ele><time>2026-04-25T13:12:27.535Z</time></trkpt><trkpt lat="43.8051283" lon="12.68325"><ele>210.0</ele><time>2026-04-25T13:12:28.533Z</time></trkpt><trkpt lat="43.8052583" lon="12.683425"><ele>210.0</ele><time>2026-04-25T13:12:29.534Z</time></trkpt><trkpt lat="43.8053867" lon="12.6836017"><ele>210.0</ele><time>2026-04-25T13:12:30.533Z</time></trkpt><trkpt lat="43.805515" lon="12.6837817"><ele>210.0</ele><time>2026-04-25T13:12:31.535Z</time></trkpt><trkpt lat="43.805645" lon="12.6839633"><ele>210.0</ele><time>2026-04-25T13:12:32.531Z</time></trkpt><trkpt lat="43.8057783" lon="12.68414"><ele>210.0</ele><time>2026-04-25T13:12:33.531Z</time></trkpt><trkpt lat="43.80592" lon="12.6843067"><ele>210.0</ele><time>2026-04-25T13:12:34.531Z</time></trkpt><trkpt lat="43.8060683" lon="12.6844667"><ele>213.33333333333331</ele><time>2026-04-25T13:12:35.532Z</time></trkpt><trkpt lat="43.80622" lon="12.68463"><ele>216.66666666666666</ele><time>2026-04-25T13:12:36.537Z</time></trkpt><trkpt lat="43.80637" lon="12.6847883"><ele>220.0</ele><time>2026-04-25T13:12:37.534Z</time></trkpt><trkpt lat="43.8065183" lon="12.6849483"><ele>220.0</ele><time>2026-04-25T13:12:38.535Z</time></trkpt><trkpt lat="43.806665" lon="12.6851117"><ele>220.0</ele><time>2026-04-25T13:12:39.534Z</time></trkpt><trkpt lat="43.8068033" lon="12.6852717"><ele>220.0</ele><time>2026-04-25T13:12:40.534Z</time></trkpt><trkpt lat="43.80694" lon="12.68543"><ele>226.0</ele><time>2026-04-25T13:12:41.533Z</time></trkpt><trkpt lat="43.8070717" lon="12.6855817"><ele>232.0</ele><time>2026-04-25T13:12:42.533Z</time></trkpt><trkpt lat="43.80732" lon="12.6858617"><ele>232.0</ele><time>2026-04-25T13:12:44.53Z</time></trkpt><trkpt lat="43.8074367" lon="12.6860117"><ele>232.0</ele><time>2026-04-25T13:12:45.533Z</time></trkpt><trkpt lat="43.807545" lon="12.6861767"><ele>232.0</ele><time>2026-04-25T13:12:46.53Z</time></trkpt><trkpt lat="43.8076417" lon="12.6863617"><ele>230.66666666666666</ele><time>2026-04-25T13:12:47.531Z</time></trkpt><trkpt lat="43.80772" lon="12.68657"><ele>229.33333333333331</ele><time>2026-04-25T13:12:48.531Z</time></trkpt><trkpt lat="43.80778" lon="12.6867967"><ele>228.0</ele><time>2026-04-25T13:12:49.532Z</time></trkpt><trkpt lat="43.8078317" lon="12.6870333"><ele>228.0</ele><time>2026-04-25T13:12:50.531Z</time></trkpt><trkpt lat="43.8078833" lon="12.6872733"><ele>228.0</ele><time>2026-04-25T13:12:51.531Z</time></trkpt><trkpt lat="43.8079367" lon="12.6875117"><ele>228.0</ele><time>2026-04-25T13:12:52.532Z</time></trkpt><trkpt lat="43.807995" lon="12.687735"><ele>229.0</ele><time>2026-04-25T13:12:53.532Z</time></trkpt><trkpt lat="43.8080567" lon="12.6879467"><ele>230.0</ele><time>2026-04-25T13:12:54.536Z</time></trkpt><trkpt lat="43.808125" lon="12.688155"><ele>231.0</ele><time>2026-04-25T13:12:55.532Z</time></trkpt><trkpt lat="43.8081933" lon="12.6883633"><ele>231.0</ele><time>2026-04-25T13:12:56.534Z</time></trkpt><trkpt lat="43.8082617" lon="12.6885767"><ele>231.0</ele><time>2026-04-25T13:12:57.531Z</time></trkpt><trkpt lat="43.8083333" lon="12.688795"><ele>231.0</ele><time>2026-04-25T13:12:58.531Z</time></trkpt><trkpt lat="43.808405" lon="12.68901"><ele>231.0</ele><time>2026-04-25T13:12:59.531Z</time></trkpt><trkpt lat="43.8084733" lon="12.6892217"><ele>231.0</ele><time>2026-04-25T13:13:00.534Z</time></trkpt><trkpt lat="43.8085367" lon="12.6894333"><ele>231.0</ele><time>2026-04-25T13:13:01.534Z</time></trkpt><trkpt lat="43.80859" lon="12.68965"><ele>231.0</ele><time>2026-04-25T13:13:02.536Z</time></trkpt><trkpt lat="43.8086317" lon="12.6898667"><ele>231.0</ele><time>2026-04-25T13:13:03.534Z</time></trkpt><trkpt lat="43.808705" lon="12.6902933"><ele>231.0</ele><time>2026-04-25T13:13:05.534Z</time></trkpt><trkpt lat="43.8087433" lon="12.6904967"><ele>231.0</ele><time>2026-04-25T13:13:06.533Z</time></trkpt><trkpt lat="43.8087883" lon="12.690695"><ele>231.0</ele><time>2026-04-25T13:13:07.534Z</time></trkpt><trkpt lat="43.80884" lon="12.6908883"><ele>231.0</ele><time>2026-04-25T13:13:08.534Z</time></trkpt><trkpt lat="43.8089017" lon="12.69108"><ele>231.0</ele><time>2026-04-25T13:13:09.531Z</time></trkpt><trkpt lat="43.8089733" lon="12.691265"><ele>231.0</ele><time>2026-04-25T13:13:10.533Z</time></trkpt><trkpt lat="43.8090517" lon="12.6914433"><ele>230.66666666666669</ele><time>2026-04-25T13:13:11.531Z</time></trkpt><trkpt lat="43.80914" lon="12.6916217"><ele>230.33333333333334</ele><time>2026-04-25T13:13:12.532Z</time></trkpt><trkpt lat="43.809235" lon="12.691795"><ele>230.0</ele><time>2026-04-25T13:13:13.532Z</time></trkpt><trkpt lat="43.8093383" lon="12.6919567"><ele>230.0</ele><time>2026-04-25T13:13:14.535Z</time></trkpt><trkpt lat="43.8094533" lon="12.692105"><ele>230.0</ele><time>2026-04-25T13:13:15.533Z</time></trkpt><trkpt lat="43.8095783" lon="12.69225"><ele>230.0</ele><time>2026-04-25T13:13:16.535Z</time></trkpt><trkpt lat="43.8096967" lon="12.6924033"><ele>230.0</ele><time>2026-04-25T13:13:17.532Z</time></trkpt><trkpt lat="43.8098017" lon="12.6925817"><ele>230.0</ele><time>2026-04-25T13:13:18.531Z</time></trkpt><trkpt lat="43.809895" lon="12.6927833"><ele>230.0</ele><time>2026-04-25T13:13:19.532Z</time></trkpt><trkpt lat="43.8099783" lon="12.6930033"><ele>232.0</ele><time>2026-04-25T13:13:20.531Z</time></trkpt><trkpt lat="43.8100583" lon="12.6932267"><ele>234.0</ele><time>2026-04-25T13:13:21.532Z</time></trkpt><trkpt lat="43.81013" lon="12.6934517"><ele>236.0</ele><time>2026-04-25T13:13:22.532Z</time></trkpt><trkpt lat="43.8102033" lon="12.6936767"><ele>242.5</ele><time>2026-04-25T13:13:23.532Z</time></trkpt><trkpt lat="43.8102733" lon="12.6938983"><ele>249.0</ele><time>2026-04-25T13:13:24.534Z</time></trkpt><trkpt lat="43.8104133" lon="12.69433"><ele>250.25</ele><time>2026-04-25T13:13:26.534Z</time></trkpt><trkpt lat="43.8104783" lon="12.69453"><ele>251.5</ele><time>2026-04-25T13:13:27.532Z</time></trkpt><trkpt lat="43.8105383" lon="12.69472"><ele>252.75</ele><time>2026-04-25T13:13:28.533Z</time></trkpt><trkpt lat="43.8105967" lon="12.6948967"><ele>254.0</ele><time>2026-04-25T13:13:29.536Z</time></trkpt><trkpt lat="43.810655" lon="12.6950533"><ele>254.0</ele><time>2026-04-25T13:13:30.532Z</time></trkpt><trkpt lat="43.8107183" lon="12.695175"><ele>253.99999999999997</ele><time>2026-04-25T13:13:31.535Z</time></trkpt><trkpt lat="43.8108017" lon="12.69526"><ele>253.99999999999997</ele><time>2026-04-25T13:13:32.534Z</time></trkpt><trkpt lat="43.810905" lon="12.6953067"><ele>254.0</ele><time>2026-04-25T13:13:33.534Z</time></trkpt><trkpt lat="43.8110217" lon="12.6953117"><ele>254.0</ele><time>2026-04-25T13:13:34.533Z</time></trkpt><trkpt lat="43.8111483" lon="12.6952783"><ele>257.0</ele><time>2026-04-25T13:13:35.536Z</time></trkpt><trkpt lat="43.8112833" lon="12.69523"><ele>260.0</ele><time>2026-04-25T13:13:36.534Z</time></trkpt><trkpt lat="43.8114233" lon="12.69518"><ele>263.0</ele><time>2026-04-25T13:13:37.534Z</time></trkpt><trkpt lat="43.8115583" lon="12.695135"><ele>266.0</ele><time>2026-04-25T13:13:38.532Z</time></trkpt><trkpt lat="43.811685" lon="12.6951083"><ele>266.0</ele><time>2026-04-25T13:13:39.535Z</time></trkpt><trkpt lat="43.8118017" lon="12.6951083"><ele>266.0</ele><time>2026-04-25T13:13:40.531Z</time></trkpt><trkpt lat="43.8119133" lon="12.695145"><ele>266.0</ele><time>2026-04-25T13:13:41.531Z</time></trkpt><trkpt lat="43.812015" lon="12.6952383"><ele>266.0</ele><time>2026-04-25T13:13:42.531Z</time></trkpt><trkpt lat="43.81208" lon="12.6953883"><ele>268.0</ele><time>2026-04-25T13:13:43.534Z</time></trkpt><trkpt lat="43.8121117" lon="12.6955833"><ele>270.0</ele><time>2026-04-25T13:13:44.534Z</time></trkpt><trkpt lat="43.8121383" lon="12.6957717"><ele>272.0</ele><time>2026-04-25T13:13:45.537Z</time></trkpt><trkpt lat="43.8121683" lon="12.6960917"><ele>272.33333333333337</ele><time>2026-04-25T13:13:47.535Z</time></trkpt><trkpt lat="43.8121883" lon="12.696215"><ele>272.6666666666667</ele><time>2026-04-25T13:13:48.532Z</time></trkpt><trkpt lat="43.8122083" lon="12.6963133"><ele>273.0</ele><time>2026-04-25T13:13:49.533Z</time></trkpt><trkpt lat="43.8122517" lon="12.6963883"><ele>273.3333333333333</ele><time>2026-04-25T13:13:50.536Z</time></trkpt><trkpt lat="43.8123133" lon="12.6964133"><ele>273.66666666666663</ele><time>2026-04-25T13:13:51.532Z</time></trkpt><trkpt lat="43.8124" lon="12.696395"><ele>274.0</ele><time>2026-04-25T13:13:52.537Z</time></trkpt><trkpt lat="43.8124917" lon="12.6963383"><ele>274.0</ele><time>2026-04-25T13:13:53.535Z</time></trkpt><trkpt lat="43.81257" lon="12.6962517"><ele>274.0</ele><time>2026-04-25T13:13:54.538Z</time></trkpt><trkpt lat="43.8126383" lon="12.6961683"><ele>274.0</ele><time>2026-04-25T13:13:55.533Z</time></trkpt><trkpt lat="43.8126933" lon="12.6960617"><ele>274.0</ele><time>2026-04-25T13:13:56.536Z</time></trkpt><trkpt lat="43.8127483" lon="12.695945"><ele>274.0</ele><time>2026-04-25T13:13:57.531Z</time></trkpt><trkpt lat="43.8127767" lon="12.6957933"><ele>270.75</ele><time>2026-04-25T13:13:58.532Z</time></trkpt><trkpt lat="43.8128217" lon="12.6956467"><ele>267.5</ele><time>2026-04-25T13:13:59.533Z</time></trkpt><trkpt lat="43.81288" lon="12.6955"><ele>264.25</ele><time>2026-04-25T13:14:00.533Z</time></trkpt><trkpt lat="43.812945" lon="12.6953633"><ele>261.0</ele><time>2026-04-25T13:14:01.533Z</time></trkpt><trkpt lat="43.8130267" lon="12.6952483"><ele>259.5</ele><time>2026-04-25T13:14:02.531Z</time></trkpt><trkpt lat="43.8131167" lon="12.6951383"><ele>258.0</ele><time>2026-04-25T13:14:03.532Z</time></trkpt><trkpt lat="43.8132083" lon="12.6950383"><ele>256.5</ele><time>2026-04-25T13:14:04.533Z</time></trkpt><trkpt lat="43.813305" lon="12.6949533"><ele>255.0</ele><time>2026-04-25T13:14:05.533Z</time></trkpt><trkpt lat="43.8134017" lon="12.6948683"><ele>251.33333333333331</ele><time>2026-04-25T13:14:06.532Z</time></trkpt><trkpt lat="43.8135983" lon="12.6947067"><ele>247.66666666666666</ele><time>2026-04-25T13:14:08.534Z</time></trkpt><trkpt lat="43.813705" lon="12.694635"><ele>244.0</ele><time>2026-04-25T13:14:09.532Z</time></trkpt><trkpt lat="43.81381" lon="12.6945533"><ele>244.0</ele><time>2026-04-25T13:14:10.534Z</time></trkpt><trkpt lat="43.81392" lon="12.69447"><ele>244.0</ele><time>2026-04-25T13:14:11.532Z</time></trkpt><trkpt lat="43.8140283" lon="12.6943967"><ele>244.0</ele><time>2026-04-25T13:14:12.533Z</time></trkpt><trkpt lat="43.814145" lon="12.694325"><ele>244.0</ele><time>2026-04-25T13:14:13.536Z</time></trkpt><trkpt lat="43.8142583" lon="12.6942533"><ele>243.0</ele><time>2026-04-25T13:14:14.535Z</time></trkpt><trkpt lat="43.8143633" lon="12.69418"><ele>242.0</ele><time>2026-04-25T13:14:15.532Z</time></trkpt><trkpt lat="43.814465" lon="12.694105"><ele>241.0</ele><time>2026-04-25T13:14:16.532Z</time></trkpt><trkpt lat="43.814565" lon="12.6940433"><ele>240.0</ele><time>2026-04-25T13:14:17.533Z</time></trkpt><trkpt lat="43.81467" lon="12.693985"><ele>240.0</ele><time>2026-04-25T13:14:18.534Z</time></trkpt><trkpt lat="43.8147833" lon="12.6939367"><ele>240.0</ele><time>2026-04-25T13:14:19.536Z</time></trkpt><trkpt lat="43.8149" lon="12.69388"><ele>240.0</ele><time>2026-04-25T13:14:20.534Z</time></trkpt><trkpt lat="43.8150217" lon="12.6938217"><ele>240.0</ele><time>2026-04-25T13:14:21.536Z</time></trkpt><trkpt lat="43.815125" lon="12.6937617"><ele>239.2</ele><time>2026-04-25T13:14:22.538Z</time></trkpt><trkpt lat="43.8151967" lon="12.6936967"><ele>238.4</ele><time>2026-04-25T13:14:23.535Z</time></trkpt><trkpt lat="43.8152467" lon="12.6936317"><ele>237.60000000000002</ele><time>2026-04-25T13:14:24.532Z</time></trkpt><trkpt lat="43.8152667" lon="12.6934933"><ele>236.8</ele><time>2026-04-25T13:14:26.532Z</time></trkpt><trkpt lat="43.8152433" lon="12.6933883"><ele>236.0</ele><time>2026-04-25T13:14:27.533Z</time></trkpt><trkpt lat="43.815175" lon="12.6931033"><ele>240.25</ele><time>2026-04-25T13:14:29.533Z</time></trkpt><trkpt lat="43.8151283" lon="12.6929317"><ele>244.5</ele><time>2026-04-25T13:14:30.534Z</time></trkpt><trkpt lat="43.8150767" lon="12.6927417"><ele>248.75</ele><time>2026-04-25T13:14:31.533Z</time></trkpt><trkpt lat="43.8150167" lon="12.6925533"><ele>253.0</ele><time>2026-04-25T13:14:32.533Z</time></trkpt><trkpt lat="43.8149583" lon="12.692375"><ele>253.25</ele><time>2026-04-25T13:14:33.533Z</time></trkpt><trkpt lat="43.814895" lon="12.6922033"><ele>253.5</ele><time>2026-04-25T13:14:34.536Z</time></trkpt><trkpt lat="43.8148433" lon="12.69205"><ele>253.75</ele><time>2026-04-25T13:14:35.533Z</time></trkpt><trkpt lat="43.8147867" lon="12.6919117"><ele>254.0</ele><time>2026-04-25T13:14:36.534Z</time></trkpt><trkpt lat="43.8147133" lon="12.691785"><ele>254.0</ele><time>2026-04-25T13:14:37.539Z</time></trkpt><trkpt lat="43.8146367" lon="12.69167"><ele>253.99999999999997</ele><time>2026-04-25T13:14:38.533Z</time></trkpt><trkpt lat="43.814555" lon="12.6915683"><ele>253.99999999999997</ele><time>2026-04-25T13:14:39.532Z</time></trkpt><trkpt lat="43.8144683" lon="12.6914617"><ele>254.0</ele><time>2026-04-25T13:14:40.535Z</time></trkpt><trkpt lat="43.8143917" lon="12.69136"><ele>254.0</ele><time>2026-04-25T13:14:41.532Z</time></trkpt><trkpt lat="43.81433" lon="12.6912483"><ele>252.00000000000003</ele><time>2026-04-25T13:14:42.533Z</time></trkpt><trkpt lat="43.8142917" lon="12.6911417"><ele>250.0</ele><time>2026-04-25T13:14:43.532Z</time></trkpt><trkpt lat="43.814275" lon="12.6910317"><ele>248.0</ele><time>2026-04-25T13:14:44.533Z</time></trkpt><trkpt lat="43.81429" lon="12.6909267"><ele>246.0</ele><time>2026-04-25T13:14:45.533Z</time></trkpt><trkpt lat="43.8143367" lon="12.69085"><ele>244.00000000000003</ele><time>2026-04-25T13:14:46.532Z</time></trkpt><trkpt lat="43.81441" lon="12.6908033"><ele>242.0</ele><time>2026-04-25T13:14:47.533Z</time></trkpt><trkpt lat="43.8144917" lon="12.690775"><ele>242.0</ele><time>2026-04-25T13:14:48.534Z</time></trkpt><trkpt lat="43.8146983" lon="12.6907233"><ele>242.0</ele><time>2026-04-25T13:14:50.534Z</time></trkpt><trkpt lat="43.8148083" lon="12.6906933"><ele>242.0</ele><time>2026-04-25T13:14:51.533Z</time></trkpt><trkpt lat="43.8149" lon="12.69064"><ele>242.0</ele><time>2026-04-25T13:14:52.534Z</time></trkpt><trkpt lat="43.814995" lon="12.69057"><ele>242.0</ele><time>2026-04-25T13:14:53.533Z</time></trkpt><trkpt lat="43.81507" lon="12.6904767"><ele>242.0</ele><time>2026-04-25T13:14:54.533Z</time></trkpt><trkpt lat="43.8151217" lon="12.690345"><ele>242.0</ele><time>2026-04-25T13:14:55.534Z</time></trkpt><trkpt lat="43.8151517" lon="12.6901883"><ele>242.0</ele><time>2026-04-25T13:14:56.533Z</time></trkpt><trkpt lat="43.8151717" lon="12.6900183"><ele>236.0</ele><time>2026-04-25T13:14:57.533Z</time></trkpt><trkpt lat="43.8151917" lon="12.6898567"><ele>230.0</ele><time>2026-04-25T13:14:58.536Z</time></trkpt><trkpt lat="43.815205" lon="12.6897017"><ele>224.0</ele><time>2026-04-25T13:14:59.531Z</time></trkpt><trkpt lat="43.815215" lon="12.68956"><ele>218.0</ele><time>2026-04-25T13:15:00.532Z</time></trkpt><trkpt lat="43.8151933" lon="12.6894167"><ele>212.0</ele><time>2026-04-25T13:15:01.534Z</time></trkpt><trkpt lat="43.8151533" lon="12.6892817"><ele>212.0</ele><time>2026-04-25T13:15:02.535Z</time></trkpt><trkpt lat="43.815105" lon="12.68916"><ele>212.0</ele><time>2026-04-25T13:15:03.531Z</time></trkpt><trkpt lat="43.81505" lon="12.68904"><ele>212.0</ele><time>2026-04-25T13:15:04.535Z</time></trkpt><trkpt lat="43.814995" lon="12.6889233"><ele>212.0</ele><time>2026-04-25T13:15:05.534Z</time></trkpt><trkpt lat="43.8149517" lon="12.6888017"><ele>212.0</ele><time>2026-04-25T13:15:06.535Z</time></trkpt><trkpt lat="43.81495" lon="12.688675"><ele>209.0</ele><time>2026-04-25T13:15:07.535Z</time></trkpt><trkpt lat="43.8149883" lon="12.6885533"><ele>206.0</ele><time>2026-04-25T13:15:08.532Z</time></trkpt><trkpt lat="43.8150583" lon="12.6884467"><ele>203.0</ele><time>2026-04-25T13:15:09.534Z</time></trkpt><trkpt lat="43.8152033" lon="12.6882567"><ele>200.0</ele><time>2026-04-25T13:15:11.533Z</time></trkpt><trkpt lat="43.8152717" lon="12.6881867"><ele>199.6</ele><time>2026-04-25T13:15:12.534Z</time></trkpt><trkpt lat="43.8153367" lon="12.688125"><ele>199.2</ele><time>2026-04-25T13:15:13.533Z</time></trkpt><trkpt lat="43.8154067" lon="12.68811"><ele>198.8</ele><time>2026-04-25T13:15:14.533Z</time></trkpt><trkpt lat="43.81548" lon="12.6881433"><ele>198.4</ele><time>2026-04-25T13:15:15.534Z</time></trkpt><trkpt lat="43.8155583" lon="12.6881867"><ele>198.0</ele><time>2026-04-25T13:15:16.533Z</time></trkpt><trkpt lat="43.8156833" lon="12.688325"><ele>198.0</ele><time>2026-04-25T13:15:17.53Z</time></trkpt><trkpt lat="43.81581" lon="12.6885017"><ele>198.0</ele><time>2026-04-25T13:15:18.533Z</time></trkpt><trkpt lat="43.8159267" lon="12.6886433"><ele>198.0</ele><time>2026-04-25T13:15:19.531Z</time></trkpt><trkpt lat="43.8160433" lon="12.6887783"><ele>196.5</ele><time>2026-04-25T13:15:20.531Z</time></trkpt><trkpt lat="43.8161583" lon="12.6889167"><ele>195.0</ele><time>2026-04-25T13:15:21.532Z</time></trkpt><trkpt lat="43.8162717" lon="12.6890517"><ele>193.5</ele><time>2026-04-25T13:15:22.531Z</time></trkpt><trkpt lat="43.81638" lon="12.6891817"><ele>192.0</ele><time>2026-04-25T13:15:23.533Z</time></trkpt><trkpt lat="43.8164817" lon="12.6893033"><ele>192.0</ele><time>2026-04-25T13:15:24.531Z</time></trkpt><trkpt lat="43.8165733" lon="12.6894217"><ele>192.0</ele><time>2026-04-25T13:15:25.531Z</time></trkpt><trkpt lat="43.816655" lon="12.6895333"><ele>192.0</ele><time>2026-04-25T13:15:26.532Z</time></trkpt><trkpt lat="43.8167267" lon="12.6896467"><ele>192.0</ele><time>2026-04-25T13:15:27.531Z</time></trkpt><trkpt lat="43.8167917" lon="12.6897767"><ele>190.5</ele><time>2026-04-25T13:15:28.531Z</time></trkpt><trkpt lat="43.816845" lon="12.68991"><ele>189.0</ele><time>2026-04-25T13:15:29.534Z</time></trkpt><trkpt lat="43.81689" lon="12.690045"><ele>187.5</ele><time>2026-04-25T13:15:30.53Z</time></trkpt><trkpt lat="43.8169933" lon="12.6903067"><ele>186.0</ele><time>2026-04-25T13:15:32.531Z</time></trkpt><trkpt lat="43.8170633" lon="12.6904033"><ele>190.20000000000002</ele><time>2026-04-25T13:15:33.532Z</time></trkpt><trkpt lat="43.81715" lon="12.6904583"><ele>194.4</ele><time>2026-04-25T13:15:34.53Z</time></trkpt><trkpt lat="43.8172483" lon="12.6904683"><ele>198.6</ele><time>2026-04-25T13:15:35.532Z</time></trkpt><trkpt lat="43.8173467" lon="12.690465"><ele>202.8</ele><time>2026-04-25T13:15:36.531Z</time></trkpt><trkpt lat="43.8174433" lon="12.6904533"><ele>207.0</ele><time>2026-04-25T13:15:37.532Z</time></trkpt><trkpt lat="43.817555" lon="12.6904333"><ele>206.75</ele><time>2026-04-25T13:15:38.531Z</time></trkpt><trkpt lat="43.817665" lon="12.69041"><ele>206.5</ele><time>2026-04-25T13:15:39.531Z</time></trkpt><trkpt lat="43.8177733" lon="12.690365"><ele>206.25</ele><time>2026-04-25T13:15:40.53Z</time></trkpt><trkpt lat="43.81788" lon="12.6903"><ele>206.0</ele><time>2026-04-25T13:15:41.531Z</time></trkpt><trkpt lat="43.8179917" lon="12.690225"><ele>202.0</ele><time>2026-04-25T13:15:42.531Z</time></trkpt><trkpt lat="43.8180967" lon="12.69014"><ele>198.0</ele><time>2026-04-25T13:15:43.533Z</time></trkpt><trkpt lat="43.8181883" lon="12.690035"><ele>194.0</ele><time>2026-04-25T13:15:44.532Z</time></trkpt><trkpt lat="43.8182733" lon="12.6899183"><ele>190.0</ele><time>2026-04-25T13:15:45.531Z</time></trkpt><trkpt lat="43.81836" lon="12.6897733"><ele>190.0</ele><time>2026-04-25T13:15:46.534Z</time></trkpt><trkpt lat="43.8184533" lon="12.6896217"><ele>190.0</ele><time>2026-04-25T13:15:47.531Z</time></trkpt><trkpt lat="43.8185533" lon="12.6894617"><ele>190.0</ele><time>2026-04-25T13:15:48.531Z</time></trkpt><trkpt lat="43.81866" lon="12.6892933"><ele>184.0</ele><time>2026-04-25T13:15:49.531Z</time></trkpt><trkpt lat="43.8187567" lon="12.689115"><ele>178.0</ele><time>2026-04-25T13:15:50.532Z</time></trkpt><trkpt lat="43.81885" lon="12.6889433"><ele>172.0</ele><time>2026-04-25T13:15:51.532Z</time></trkpt><trkpt lat="43.819035" lon="12.6886033"><ele>169.75</ele><time>2026-04-25T13:15:53.531Z</time></trkpt><trkpt lat="43.81912" lon="12.688435"><ele>167.5</ele><time>2026-04-25T13:15:54.531Z</time></trkpt><trkpt lat="43.8192017" lon="12.6882733"><ele>165.25</ele><time>2026-04-25T13:15:55.531Z</time></trkpt><trkpt lat="43.8192817" lon="12.6881217"><ele>163.0</ele><time>2026-04-25T13:15:56.532Z</time></trkpt><trkpt lat="43.8193567" lon="12.6879817"><ele>162.83333333333334</ele><time>2026-04-25T13:15:57.533Z</time></trkpt><trkpt lat="43.8194267" lon="12.6878633"><ele>162.66666666666669</ele><time>2026-04-25T13:15:58.534Z</time></trkpt><trkpt lat="43.8195" lon="12.68778"><ele>162.5</ele><time>2026-04-25T13:15:59.532Z</time></trkpt><trkpt lat="43.81957" lon="12.68773"><ele>162.33333333333334</ele><time>2026-04-25T13:16:00.532Z</time></trkpt><trkpt lat="43.8196367" lon="12.6877183"><ele>162.16666666666666</ele><time>2026-04-25T13:16:01.532Z</time></trkpt><trkpt lat="43.8197017" lon="12.6877767"><ele>162.0</ele><time>2026-04-25T13:16:02.531Z</time></trkpt><trkpt lat="43.819765" lon="12.6879"><ele>162.0</ele><time>2026-04-25T13:16:03.534Z</time></trkpt><trkpt lat="43.8198383" lon="12.6880583"><ele>162.0</ele><time>2026-04-25T13:16:04.533Z</time></trkpt><trkpt lat="43.8199367" lon="12.6882333"><ele>162.0</ele><time>2026-04-25T13:16:05.534Z</time></trkpt><trkpt lat="43.8200433" lon="12.6883967"><ele>158.33333333333334</ele><time>2026-04-25T13:16:06.534Z</time></trkpt><trkpt lat="43.820155" lon="12.6885683"><ele>154.66666666666669</ele><time>2026-04-25T13:16:07.534Z</time></trkpt><trkpt lat="43.8202667" lon="12.688735"><ele>151.0</ele><time>2026-04-25T13:16:08.534Z</time></trkpt><trkpt lat="43.8203767" lon="12.6888967"><ele>151.0</ele><time>2026-04-25T13:16:09.531Z</time></trkpt><trkpt lat="43.82048" lon="12.6890517"><ele>151.0</ele><time>2026-04-25T13:16:10.535Z</time></trkpt><trkpt lat="43.8205767" lon="12.68919"><ele>151.0</ele><time>2026-04-25T13:16:11.531Z</time></trkpt><trkpt lat="43.8206633" lon="12.6893217"><ele>151.0</ele><time>2026-04-25T13:16:12.531Z</time></trkpt><trkpt lat="43.8208133" lon="12.689535"><ele>151.33333333333334</ele><time>2026-04-25T13:16:14.534Z</time></trkpt><trkpt lat="43.8208967" lon="12.6895933"><ele>151.66666666666669</ele><time>2026-04-25T13:16:15.534Z</time></trkpt><trkpt lat="43.820985" lon="12.6896167"><ele>152.0</ele><time>2026-04-25T13:16:16.531Z</time></trkpt><trkpt lat="43.821065" lon="12.6896067"><ele>152.33333333333334</ele><time>2026-04-25T13:16:17.531Z</time></trkpt><trkpt lat="43.82114" lon="12.6895667"><ele>152.66666666666666</ele><time>2026-04-25T13:16:18.531Z</time></trkpt><trkpt lat="43.821195" lon="12.6894633"><ele>153.0</ele><time>2026-04-25T13:16:19.533Z</time></trkpt><trkpt lat="43.8212533" lon="12.6893267"><ele>151.25</ele><time>2026-04-25T13:16:20.531Z</time></trkpt><trkpt lat="43.8213133" lon="12.6891817"><ele>149.5</ele><time>2026-04-25T13:16:21.531Z</time></trkpt><trkpt lat="43.82138" lon="12.6890217"><ele>147.75</ele><time>2026-04-25T13:16:22.533Z</time></trkpt><trkpt lat="43.8214517" lon="12.68884"><ele>146.0</ele><time>2026-04-25T13:16:23.531Z</time></trkpt><trkpt lat="43.8215233" lon="12.6886483"><ele>145.0</ele><time>2026-04-25T13:16:24.532Z</time></trkpt><trkpt lat="43.8215933" lon="12.6884583"><ele>144.0</ele><time>2026-04-25T13:16:25.532Z</time></trkpt><trkpt lat="43.821655" lon="12.6882633"><ele>143.0</ele><time>2026-04-25T13:16:26.532Z</time></trkpt><trkpt lat="43.82171" lon="12.6880717"><ele>143.0</ele><time>2026-04-25T13:16:27.53Z</time></trkpt><trkpt lat="43.8217633" lon="12.68787"><ele>143.0</ele><time>2026-04-25T13:16:28.534Z</time></trkpt><trkpt lat="43.82181" lon="12.6876667"><ele>143.0</ele><time>2026-04-25T13:16:29.531Z</time></trkpt><trkpt lat="43.8218533" lon="12.6874683"><ele>143.0</ele><time>2026-04-25T13:16:30.534Z</time></trkpt><trkpt lat="43.8218917" lon="12.6872767"><ele>143.0</ele><time>2026-04-25T13:16:31.531Z</time></trkpt><trkpt lat="43.82193" lon="12.68709"><ele>143.0</ele><time>2026-04-25T13:16:32.531Z</time></trkpt><trkpt lat="43.8219467" lon="12.6869017"><ele>143.0</ele><time>2026-04-25T13:16:33.532Z</time></trkpt><trkpt lat="43.8219633" lon="12.6865533"><ele>138.5</ele><time>2026-04-25T13:16:35.531Z</time></trkpt><trkpt lat="43.821945" lon="12.6863683"><ele>134.0</ele><time>2026-04-25T13:16:36.534Z</time></trkpt><trkpt lat="43.821915" lon="12.6861717"><ele>129.5</ele><time>2026-04-25T13:16:37.531Z</time></trkpt><trkpt lat="43.821885" lon="12.685965"><ele>125.0</ele><time>2026-04-25T13:16:38.534Z</time></trkpt><trkpt lat="43.82187" lon="12.6857583"><ele>120.5</ele><time>2026-04-25T13:16:39.535Z</time></trkpt><trkpt lat="43.8218683" lon="12.6855567"><ele>116.0</ele><time>2026-04-25T13:16:40.533Z</time></trkpt><trkpt lat="43.8218767" lon="12.6853617"><ele>111.5</ele><time>2026-04-25T13:16:41.531Z</time></trkpt><trkpt lat="43.8218983" lon="12.6851733"><ele>107.0</ele><time>2026-04-25T13:16:42.538Z</time></trkpt><trkpt lat="43.8219333" lon="12.6849917"><ele>105.25</ele><time>2026-04-25T13:16:43.537Z</time></trkpt><trkpt lat="43.821985" lon="12.6848117"><ele>103.5</ele><time>2026-04-25T13:16:44.531Z</time></trkpt><trkpt lat="43.8220383" lon="12.684625"><ele>101.75</ele><time>2026-04-25T13:16:45.53Z</time></trkpt><trkpt lat="43.8220883" lon="12.6844267"><ele>100.0</ele><time>2026-04-25T13:16:46.532Z</time></trkpt><trkpt lat="43.8221333" lon="12.68421"><ele>96.66666666666667</ele><time>2026-04-25T13:16:47.532Z</time></trkpt><trkpt lat="43.822185" lon="12.6839867"><ele>93.33333333333334</ele><time>2026-04-25T13:16:48.532Z</time></trkpt><trkpt lat="43.8222317" lon="12.6837683"><ele>90.0</ele><time>2026-04-25T13:16:49.531Z</time></trkpt><trkpt lat="43.8222817" lon="12.6835583"><ele>88.0</ele><time>2026-04-25T13:16:50.533Z</time></trkpt><trkpt lat="43.8223317" lon="12.68336"><ele>86.0</ele><time>2026-04-25T13:16:51.531Z</time></trkpt><trkpt lat="43.8223817" lon="12.6831833"><ele>84.0</ele><time>2026-04-25T13:16:52.531Z</time></trkpt><trkpt lat="43.8224267" lon="12.683025"><ele>82.0</ele><time>2026-04-25T13:16:53.533Z</time></trkpt><trkpt lat="43.8224667" lon="12.682885"><ele>81.25</ele><time>2026-04-25T13:16:54.532Z</time></trkpt><trkpt lat="43.8225333" lon="12.682675"><ele>80.5</ele><time>2026-04-25T13:16:56.533Z</time></trkpt><trkpt lat="43.822585" lon="12.68256"><ele>79.75</ele><time>2026-04-25T13:16:58.531Z</time></trkpt><trkpt lat="43.8226933" lon="12.6825817"><ele>79.0</ele><time>2026-04-25T13:17:01.545Z</time></trkpt><trkpt lat="43.822755" lon="12.6826517"><ele>77.60000000000001</ele><time>2026-04-25T13:17:02.531Z</time></trkpt><trkpt lat="43.82283" lon="12.6827433"><ele>76.2</ele><time>2026-04-25T13:17:03.532Z</time></trkpt><trkpt lat="43.8228917" lon="12.6828417"><ele>74.80000000000001</ele><time>2026-04-25T13:17:04.531Z</time></trkpt><trkpt lat="43.8229533" lon="12.68298"><ele>73.4</ele><time>2026-04-25T13:17:05.532Z</time></trkpt><trkpt lat="43.82301" lon="12.683125"><ele>72.0</ele><time>2026-04-25T13:17:06.532Z</time></trkpt><trkpt lat="43.823065" lon="12.6832717"><ele>72.0</ele><time>2026-04-25T13:17:07.534Z</time></trkpt><trkpt lat="43.8231233" lon="12.6834217"><ele>72.0</ele><time>2026-04-25T13:17:08.532Z</time></trkpt><trkpt lat="43.82318" lon="12.6835683"><ele>72.0</ele><time>2026-04-25T13:17:09.533Z</time></trkpt><trkpt lat="43.8232417" lon="12.68371"><ele>72.0</ele><time>2026-04-25T13:17:10.532Z</time></trkpt><trkpt lat="43.823305" lon="12.6838367"><ele>71.8</ele><time>2026-04-25T13:17:11.531Z</time></trkpt><trkpt lat="43.8233683" lon="12.6839483"><ele>71.6</ele><time>2026-04-25T13:17:12.533Z</time></trkpt><trkpt lat="43.8234333" lon="12.68405"><ele>71.39999999999999</ele><time>2026-04-25T13:17:13.534Z</time></trkpt><trkpt lat="43.8234967" lon="12.6841317"><ele>71.2</ele><time>2026-04-25T13:17:14.531Z</time></trkpt><trkpt lat="43.8235583" lon="12.6841867"><ele>71.0</ele><time>2026-04-25T13:17:15.531Z</time></trkpt><trkpt lat="43.8236983" lon="12.684195"><ele>71.0</ele><time>2026-04-25T13:17:17.533Z</time></trkpt><trkpt lat="43.8237617" lon="12.6841233"><ele>71.0</ele><time>2026-04-25T13:17:18.531Z</time></trkpt><trkpt lat="43.82384" lon="12.684025"><ele>71.0</ele><time>2026-04-25T13:17:19.533Z</time></trkpt><trkpt lat="43.823955" lon="12.6839217"><ele>71.0</ele><time>2026-04-25T13:17:20.531Z</time></trkpt><trkpt lat="43.8240433" lon="12.6838317"><ele>71.0</ele><time>2026-04-25T13:17:21.531Z</time></trkpt><trkpt lat="43.8241333" lon="12.6837333"><ele>71.0</ele><time>2026-04-25T13:17:22.534Z</time></trkpt><trkpt lat="43.8242167" lon="12.6836433"><ele>71.0</ele><time>2026-04-25T13:17:23.534Z</time></trkpt><trkpt lat="43.8242817" lon="12.6835467"><ele>71.0</ele><time>2026-04-25T13:17:24.532Z</time></trkpt><trkpt lat="43.8243267" lon="12.6834367"><ele>71.0</ele><time>2026-04-25T13:17:25.533Z</time></trkpt><trkpt lat="43.82436" lon="12.6833317"><ele>71.0</ele><time>2026-04-25T13:17:26.535Z</time></trkpt><trkpt lat="43.8243867" lon="12.683225"><ele>73.0</ele><time>2026-04-25T13:17:27.532Z</time></trkpt><trkpt lat="43.8243967" lon="12.6831017"><ele>75.0</ele><time>2026-04-25T13:17:28.533Z</time></trkpt><trkpt lat="43.8243967" lon="12.682955"><ele>77.0</ele><time>2026-04-25T13:17:29.533Z</time></trkpt><trkpt lat="43.82426" lon="12.682725"><ele>79.0</ele><time>2026-04-25T13:17:30.532Z</time></trkpt><trkpt lat="43.8241733" lon="12.6825217"><ele>79.0</ele><time>2026-04-25T13:17:31.532Z</time></trkpt><trkpt lat="43.824075" lon="12.682325"><ele>79.0</ele><time>2026-04-25T13:17:32.532Z</time></trkpt><trkpt lat="43.82401" lon="12.6821617"><ele>79.0</ele><time>2026-04-25T13:17:33.531Z</time></trkpt><trkpt lat="43.82393" lon="12.6819933"><ele>80.25</ele><time>2026-04-25T13:17:34.532Z</time></trkpt><trkpt lat="43.8238933" lon="12.68185"><ele>81.5</ele><time>2026-04-25T13:17:35.532Z</time></trkpt><trkpt lat="43.823885" lon="12.6817083"><ele>82.75</ele><time>2026-04-25T13:17:36.535Z</time></trkpt><trkpt lat="43.8239467" lon="12.6814367"><ele>84.0</ele><time>2026-04-25T13:17:38.533Z</time></trkpt><trkpt lat="43.8240067" lon="12.6813417"><ele>84.0</ele><time>2026-04-25T13:17:39.535Z</time></trkpt><trkpt lat="43.824125" lon="12.6813367"><ele>84.0</ele><time>2026-04-25T13:17:40.531Z</time></trkpt><trkpt lat="43.8242683" lon="12.681295"><ele>84.0</ele><time>2026-04-25T13:17:41.532Z</time></trkpt><trkpt lat="43.8244" lon="12.6812417"><ele>84.0</ele><time>2026-04-25T13:17:42.534Z</time></trkpt><trkpt lat="43.8245483" lon="12.68118"><ele>85.0</ele><time>2026-04-25T13:17:43.532Z</time></trkpt><trkpt lat="43.8247083" lon="12.6811117"><ele>86.0</ele><time>2026-04-25T13:17:44.536Z</time></trkpt><trkpt lat="43.8248733" lon="12.6810383"><ele>87.0</ele><time>2026-04-25T13:17:45.535Z</time></trkpt><trkpt lat="43.8250383" lon="12.6809633"><ele>87.0</ele><time>2026-04-25T13:17:46.532Z</time></trkpt><trkpt lat="43.8252083" lon="12.6808817"><ele>87.0</ele><time>2026-04-25T13:17:47.537Z</time></trkpt><trkpt lat="43.8253817" lon="12.6807983"><ele>87.0</ele><time>2026-04-25T13:17:48.532Z</time></trkpt><trkpt lat="43.82556" lon="12.680715"><ele>87.0</ele><time>2026-04-25T13:17:49.533Z</time></trkpt><trkpt lat="43.8257383" lon="12.6806267"><ele>87.0</ele><time>2026-04-25T13:17:50.532Z</time></trkpt><trkpt lat="43.8259217" lon="12.6805367"><ele>87.0</ele><time>2026-04-25T13:17:51.532Z</time></trkpt><trkpt lat="43.8261067" lon="12.68045"><ele>87.0</ele><time>2026-04-25T13:17:52.536Z</time></trkpt><trkpt lat="43.8262933" lon="12.68038"><ele>87.0</ele><time>2026-04-25T13:17:53.535Z</time></trkpt><trkpt lat="43.826475" lon="12.6803217"><ele>87.0</ele><time>2026-04-25T13:17:54.532Z</time></trkpt><trkpt lat="43.826675" lon="12.6802933"><ele>84.0</ele><time>2026-04-25T13:17:55.532Z</time></trkpt><trkpt lat="43.826875" lon="12.6803"><ele>81.0</ele><time>2026-04-25T13:17:56.533Z</time></trkpt><trkpt lat="43.8270667" lon="12.6803467"><ele>78.0</ele><time>2026-04-25T13:17:57.531Z</time></trkpt><trkpt lat="43.8274067" lon="12.6805283"><ele>78.0</ele><time>2026-04-25T13:17:59.534Z</time></trkpt><trkpt lat="43.8275567" lon="12.68065"><ele>78.0</ele><time>2026-04-25T13:18:00.534Z</time></trkpt><trkpt lat="43.8277017" lon="12.680775"><ele>78.0</ele><time>2026-04-25T13:18:01.534Z</time></trkpt><trkpt lat="43.8278367" lon="12.6808967"><ele>78.0</ele><time>2026-04-25T13:18:02.533Z</time></trkpt><trkpt lat="43.8279667" lon="12.6810117"><ele>78.0</ele><time>2026-04-25T13:18:03.532Z</time></trkpt><trkpt lat="43.8280883" lon="12.6811217"><ele>78.0</ele><time>2026-04-25T13:18:04.535Z</time></trkpt><trkpt lat="43.8282017" lon="12.6812233"><ele>78.0</ele><time>2026-04-25T13:18:05.531Z</time></trkpt><trkpt lat="43.8283083" lon="12.681315"><ele>78.0</ele><time>2026-04-25T13:18:06.534Z</time></trkpt><trkpt lat="43.8284017" lon="12.6813967"><ele>78.0</ele><time>2026-04-25T13:18:07.537Z</time></trkpt><trkpt lat="43.8284817" lon="12.68147"><ele>78.0</ele><time>2026-04-25T13:18:08.534Z</time></trkpt><trkpt lat="43.82855" lon="12.6815333"><ele>78.0</ele><time>2026-04-25T13:18:09.535Z</time></trkpt><trkpt lat="43.8286133" lon="12.681595"><ele>78.0</ele><time>2026-04-25T13:18:10.531Z</time></trkpt><trkpt lat="43.8286767" lon="12.6816483"><ele>78.0</ele><time>2026-04-25T13:18:11.535Z</time></trkpt><trkpt lat="43.8287333" lon="12.6816983"><ele>79.2</ele><time>2026-04-25T13:18:12.532Z</time></trkpt><trkpt lat="43.8288133" lon="12.6817633"><ele>80.4</ele><time>2026-04-25T13:18:14.532Z</time></trkpt><trkpt lat="43.82889" lon="12.6817617"><ele>81.60000000000001</ele><time>2026-04-25T13:18:17.532Z</time></trkpt><trkpt lat="43.82882" lon="12.6816767"><ele>82.8</ele><time>2026-04-25T13:18:19.532Z</time></trkpt><trkpt lat="43.828685" lon="12.681575"><ele>84.0</ele><time>2026-04-25T13:18:21.533Z</time></trkpt><trkpt lat="43.8286317" lon="12.6815233"><ele>84.0</ele><time>2026-04-25T13:18:22.534Z</time></trkpt><trkpt lat="43.82858" lon="12.6813767"><ele>84.0</ele><time>2026-04-25T13:18:24.533Z</time></trkpt><trkpt lat="43.82863" lon="12.681235"><ele>84.0</ele><time>2026-04-25T13:18:26.532Z</time></trkpt><trkpt lat="43.8286983" lon="12.6811783"><ele>84.0</ele><time>2026-04-25T13:18:27.532Z</time></trkpt><trkpt lat="43.82875" lon="12.6811167"><ele>84.0</ele><time>2026-04-25T13:18:28.532Z</time></trkpt><trkpt lat="43.8287933" lon="12.6810483"><ele>84.0</ele><time>2026-04-25T13:18:29.532Z</time></trkpt><trkpt lat="43.8288433" lon="12.68091"><ele>84.4</ele><time>2026-04-25T13:18:31.534Z</time></trkpt><trkpt lat="43.82884" lon="12.6807933"><ele>84.80000000000001</ele><time>2026-04-25T13:19:07.532Z</time></trkpt><trkpt lat="43.8287917" lon="12.68056"><ele>85.19999999999999</ele><time>2026-04-25T13:19:11.531Z</time></trkpt><trkpt lat="43.8288667" lon="12.680475"><ele>85.6</ele><time>2026-04-25T13:19:22.53Z</time></trkpt><trkpt lat="43.8289433" lon="12.6804183"><ele>86.0</ele><time>2026-04-25T13:19:23.531Z</time></trkpt><trkpt lat="43.8290267" lon="12.6803667"><ele>86.0</ele><time>2026-04-25T13:19:24.534Z</time></trkpt><trkpt lat="43.829115" lon="12.680315"><ele>86.0</ele><time>2026-04-25T13:19:25.533Z</time></trkpt><trkpt lat="43.8292167" lon="12.6802467"><ele>86.0</ele><time>2026-04-25T13:19:26.533Z</time></trkpt><trkpt lat="43.8293133" lon="12.6801817"><ele>86.0</ele><time>2026-04-25T13:19:27.531Z</time></trkpt><trkpt lat="43.8294117" lon="12.6801183"><ele>86.0</ele><time>2026-04-25T13:19:28.534Z</time></trkpt><trkpt lat="43.829575" lon="12.6799133"><ele>85.8</ele><time>2026-04-25T13:19:30.532Z</time></trkpt><trkpt lat="43.82962" lon="12.6797867"><ele>85.6</ele><time>2026-04-25T13:19:31.533Z</time></trkpt><trkpt lat="43.8296483" lon="12.6796433"><ele>85.4</ele><time>2026-04-25T13:19:32.532Z</time></trkpt><trkpt lat="43.8296617" lon="12.67949"><ele>85.2</ele><time>2026-04-25T13:19:33.531Z</time></trkpt><trkpt lat="43.829675" lon="12.6793283"><ele>85.0</ele><time>2026-04-25T13:19:34.531Z</time></trkpt><trkpt lat="43.8297033" lon="12.6791767"><ele>85.6</ele><time>2026-04-25T13:19:35.532Z</time></trkpt><trkpt lat="43.82975" lon="12.6790517"><ele>86.2</ele><time>2026-04-25T13:19:36.533Z</time></trkpt><trkpt lat="43.8298083" lon="12.678935"><ele>86.80000000000001</ele><time>2026-04-25T13:19:37.534Z</time></trkpt><trkpt lat="43.8298683" lon="12.67882"><ele>87.4</ele><time>2026-04-25T13:19:38.533Z</time></trkpt><trkpt lat="43.829925" lon="12.678715"><ele>88.0</ele><time>2026-04-25T13:19:39.534Z</time></trkpt><trkpt lat="43.8299767" lon="12.6786217"><ele>89.0</ele><time>2026-04-25T13:19:40.536Z</time></trkpt><trkpt lat="43.8300283" lon="12.6785467"><ele>90.0</ele><time>2026-04-25T13:19:41.535Z</time></trkpt><trkpt lat="43.8300833" lon="12.678495"><ele>91.0</ele><time>2026-04-25T13:19:42.53Z</time></trkpt><trkpt lat="43.8302083" lon="12.6784633"><ele>92.0</ele><time>2026-04-25T13:19:44.531Z</time></trkpt><trkpt lat="43.8302767" lon="12.678475"><ele>93.0</ele><time>2026-04-25T13:19:45.534Z</time></trkpt><trkpt lat="43.8303467" lon="12.6785033"><ele>94.0</ele><time>2026-04-25T13:19:46.535Z</time></trkpt><trkpt lat="43.8304233" lon="12.67853"><ele>96.0</ele><time>2026-04-25T13:19:47.533Z</time></trkpt><trkpt lat="43.8304983" lon="12.67854"><ele>98.0</ele><time>2026-04-25T13:19:48.534Z</time></trkpt><trkpt lat="43.8305767" lon="12.6785317"><ele>100.0</ele><time>2026-04-25T13:19:49.532Z</time></trkpt><trkpt lat="43.830745" lon="12.678475"><ele>102.0</ele><time>2026-04-25T13:19:51.531Z</time></trkpt><trkpt lat="43.8308333" lon="12.6784383"><ele>104.0</ele><time>2026-04-25T13:19:52.534Z</time></trkpt><trkpt lat="43.83093" lon="12.6784083"><ele>107.2</ele><time>2026-04-25T13:19:53.534Z</time></trkpt><trkpt lat="43.8310267" lon="12.6783817"><ele>110.4</ele><time>2026-04-25T13:19:54.533Z</time></trkpt><trkpt lat="43.8311183" lon="12.678365"><ele>113.6</ele><time>2026-04-25T13:19:55.535Z</time></trkpt><trkpt lat="43.8312133" lon="12.67837"><ele>116.8</ele><time>2026-04-25T13:19:56.534Z</time></trkpt><trkpt lat="43.8313067" lon="12.6783783"><ele>120.0</ele><time>2026-04-25T13:19:57.531Z</time></trkpt><trkpt lat="43.8314" lon="12.6783933"><ele>120.0</ele><time>2026-04-25T13:19:58.532Z</time></trkpt><trkpt lat="43.831495" lon="12.6784183"><ele>120.0</ele><time>2026-04-25T13:19:59.531Z</time></trkpt><trkpt lat="43.8315983" lon="12.6784517"><ele>120.0</ele><time>2026-04-25T13:20:00.535Z</time></trkpt><trkpt lat="43.8317017" lon="12.678495"><ele>120.0</ele><time>2026-04-25T13:20:01.535Z</time></trkpt><trkpt lat="43.831795" lon="12.6785433"><ele>120.0</ele><time>2026-04-25T13:20:02.53Z</time></trkpt><trkpt lat="43.83188" lon="12.6785967"><ele>120.16666666666667</ele><time>2026-04-25T13:20:03.53Z</time></trkpt><trkpt lat="43.8319583" lon="12.6786467"><ele>120.33333333333334</ele><time>2026-04-25T13:20:04.532Z</time></trkpt><trkpt lat="43.832025" lon="12.6786883"><ele>120.5</ele><time>2026-04-25T13:20:05.53Z</time></trkpt><trkpt lat="43.8321267" lon="12.6787717"><ele>120.66666666666667</ele><time>2026-04-25T13:20:07.531Z</time></trkpt><trkpt lat="43.8321783" lon="12.6788233"><ele>120.83333333333334</ele><time>2026-04-25T13:20:08.53Z</time></trkpt><trkpt lat="43.8322317" lon="12.6788817"><ele>121.0</ele><time>2026-04-25T13:20:09.531Z</time></trkpt><trkpt lat="43.8322917" lon="12.6789433"><ele>121.0</ele><time>2026-04-25T13:20:10.531Z</time></trkpt><trkpt lat="43.83244" lon="12.679035"><ele>121.0</ele><time>2026-04-25T13:20:12.532Z</time></trkpt><trkpt lat="43.8325267" lon="12.6790567"><ele>121.0</ele><time>2026-04-25T13:20:13.531Z</time></trkpt><trkpt lat="43.8326167" lon="12.6790617"><ele>121.0</ele><time>2026-04-25T13:20:14.53Z</time></trkpt><trkpt lat="43.83271" lon="12.6790567"><ele>121.0</ele><time>2026-04-25T13:20:15.531Z</time></trkpt><trkpt lat="43.8328033" lon="12.6790533"><ele>121.8</ele><time>2026-04-25T13:20:16.531Z</time></trkpt><trkpt lat="43.8328917" lon="12.6790333"><ele>122.6</ele><time>2026-04-25T13:20:17.532Z</time></trkpt><trkpt lat="43.832975" lon="12.6789933"><ele>123.4</ele><time>2026-04-25T13:20:18.531Z</time></trkpt><trkpt lat="43.8330417" lon="12.678935"><ele>124.2</ele><time>2026-04-25T13:20:19.531Z</time></trkpt><trkpt lat="43.8330867" lon="12.6787933"><ele>125.0</ele><time>2026-04-25T13:20:21.534Z</time></trkpt><trkpt lat="43.8330583" lon="12.6786633"><ele>129.2</ele><time>2026-04-25T13:20:23.534Z</time></trkpt><trkpt lat="43.832995" lon="12.6785817"><ele>133.4</ele><time>2026-04-25T13:20:25.532Z</time></trkpt><trkpt lat="43.8328883" lon="12.678535"><ele>137.6</ele><time>2026-04-25T13:20:27.531Z</time></trkpt><trkpt lat="43.8327783" lon="12.67853"><ele>141.8</ele><time>2026-04-25T13:20:29.533Z</time></trkpt><trkpt lat="43.8326883" lon="12.67847"><ele>146.0</ele><time>2026-04-25T13:20:31.532Z</time></trkpt><trkpt lat="43.832515" lon="12.6782833"><ele>146.0</ele><time>2026-04-25T13:20:35.532Z</time></trkpt><trkpt lat="43.83248" lon="12.6782083"><ele>146.0</ele><time>2026-04-25T13:20:36.532Z</time></trkpt><trkpt lat="43.8324567" lon="12.6781217"><ele>146.0</ele><time>2026-04-25T13:20:37.533Z</time></trkpt><trkpt lat="43.8324617" lon="12.6779967"><ele>146.0</ele><time>2026-04-25T13:20:39.532Z</time></trkpt><trkpt lat="43.8325517" lon="12.6778983"><ele>146.0</ele><time>2026-04-25T13:20:41.532Z</time></trkpt><trkpt lat="43.8325983" lon="12.6778367"><ele>146.0</ele><time>2026-04-25T13:20:42.534Z</time></trkpt><trkpt lat="43.8326383" lon="12.67776"><ele>150.6</ele><time>2026-04-25T13:20:43.531Z</time></trkpt><trkpt lat="43.8326633" lon="12.677655"><ele>155.2</ele><time>2026-04-25T13:20:44.534Z</time></trkpt><trkpt lat="43.8326783" lon="12.677535"><ele>159.79999999999998</ele><time>2026-04-25T13:20:45.533Z</time></trkpt><trkpt lat="43.832695" lon="12.677405"><ele>164.39999999999998</ele><time>2026-04-25T13:20:46.532Z</time></trkpt><trkpt lat="43.8327233" lon="12.6772767"><ele>169.0</ele><time>2026-04-25T13:20:47.531Z</time></trkpt><trkpt lat="43.8327467" lon="12.67715"><ele>169.0</ele><time>2026-04-25T13:20:48.531Z</time></trkpt><trkpt lat="43.8327717" lon="12.677035"><ele>169.0</ele><time>2026-04-25T13:20:49.532Z</time></trkpt><trkpt lat="43.8327917" lon="12.67693"><ele>169.0</ele><time>2026-04-25T13:20:50.531Z</time></trkpt><trkpt lat="43.8328217" lon="12.6768383"><ele>169.0</ele><time>2026-04-25T13:20:51.533Z</time></trkpt><trkpt lat="43.8328533" lon="12.6767533"><ele>169.0</ele><time>2026-04-25T13:20:52.531Z</time></trkpt><trkpt lat="43.8329167" lon="12.6765767"><ele>169.0</ele><time>2026-04-25T13:20:54.531Z</time></trkpt><trkpt lat="43.83294" lon="12.676475"><ele>170.16666666666669</ele><time>2026-04-25T13:20:55.532Z</time></trkpt><trkpt lat="43.8329567" lon="12.67638"><ele>171.33333333333334</ele><time>2026-04-25T13:20:56.531Z</time></trkpt><trkpt lat="43.8329633" lon="12.67628"><ele>172.5</ele><time>2026-04-25T13:20:57.536Z</time></trkpt><trkpt lat="43.8329617" lon="12.6761733"><ele>173.66666666666666</ele><time>2026-04-25T13:20:58.533Z</time></trkpt><trkpt lat="43.83297" lon="12.6760667"><ele>174.83333333333331</ele><time>2026-04-25T13:20:59.531Z</time></trkpt><trkpt lat="43.8329867" lon="12.6759617"><ele>176.0</ele><time>2026-04-25T13:21:00.531Z</time></trkpt><trkpt lat="43.8330117" lon="12.675855"><ele>177.8</ele><time>2026-04-25T13:21:01.533Z</time></trkpt><trkpt lat="43.83305" lon="12.6757517"><ele>179.60000000000002</ele><time>2026-04-25T13:21:02.532Z</time></trkpt><trkpt lat="43.8331033" lon="12.6756467"><ele>181.4</ele><time>2026-04-25T13:21:03.534Z</time></trkpt><trkpt lat="43.833165" lon="12.67554"><ele>183.2</ele><time>2026-04-25T13:21:04.534Z</time></trkpt><trkpt lat="43.8332333" lon="12.6754367"><ele>185.0</ele><time>2026-04-25T13:21:05.532Z</time></trkpt><trkpt lat="43.833295" lon="12.6753233"><ele>186.2</ele><time>2026-04-25T13:21:06.534Z</time></trkpt><trkpt lat="43.83335" lon="12.675195"><ele>187.4</ele><time>2026-04-25T13:21:07.534Z</time></trkpt><trkpt lat="43.8334033" lon="12.67506"><ele>188.60000000000002</ele><time>2026-04-25T13:21:08.534Z</time></trkpt><trkpt lat="43.8334517" lon="12.6749217"><ele>189.8</ele><time>2026-04-25T13:21:09.531Z</time></trkpt><trkpt lat="43.8334967" lon="12.6747833"><ele>191.0</ele><time>2026-04-25T13:21:10.534Z</time></trkpt><trkpt lat="43.833535" lon="12.67464"><ele>189.0</ele><time>2026-04-25T13:21:11.534Z</time></trkpt><trkpt lat="43.83357" lon="12.6745033"><ele>187.0</ele><time>2026-04-25T13:21:12.534Z</time></trkpt><trkpt lat="43.8336017" lon="12.6743667"><ele>185.0</ele><time>2026-04-25T13:21:13.535Z</time></trkpt><trkpt lat="43.8336267" lon="12.67411"><ele>183.0</ele><time>2026-04-25T13:21:15.538Z</time></trkpt><trkpt lat="43.8336033" lon="12.6739933"><ele>183.0</ele><time>2026-04-25T13:21:16.534Z</time></trkpt><trkpt lat="43.83356" lon="12.6738817"><ele>183.0</ele><time>2026-04-25T13:21:17.538Z</time></trkpt><trkpt lat="43.8335033" lon="12.6737617"><ele>183.0</ele><time>2026-04-25T13:21:18.532Z</time></trkpt><trkpt lat="43.8334383" lon="12.673635"><ele>183.0</ele><time>2026-04-25T13:21:19.534Z</time></trkpt><trkpt lat="43.8333667" lon="12.6735083"><ele>183.0</ele><time>2026-04-25T13:21:20.531Z</time></trkpt><trkpt lat="43.8333017" lon="12.6733917"><ele>188.4</ele><time>2026-04-25T13:21:21.533Z</time></trkpt><trkpt lat="43.8332367" lon="12.673275"><ele>193.8</ele><time>2026-04-25T13:21:22.534Z</time></trkpt><trkpt lat="43.8331683" lon="12.67316"><ele>199.2</ele><time>2026-04-25T13:21:23.532Z</time></trkpt><trkpt lat="43.8330967" lon="12.6730483"><ele>204.6</ele><time>2026-04-25T13:21:24.532Z</time></trkpt><trkpt lat="43.8330267" lon="12.6729483"><ele>210.0</ele><time>2026-04-25T13:21:25.532Z</time></trkpt><trkpt lat="43.8329517" lon="12.6728583"><ele>211.2</ele><time>2026-04-25T13:21:26.531Z</time></trkpt><trkpt lat="43.8328833" lon="12.672765"><ele>212.4</ele><time>2026-04-25T13:21:27.535Z</time></trkpt><trkpt lat="43.83282" lon="12.6726583"><ele>213.60000000000002</ele><time>2026-04-25T13:21:28.534Z</time></trkpt><trkpt lat="43.8327683" lon="12.67254"><ele>214.8</ele><time>2026-04-25T13:21:29.533Z</time></trkpt><trkpt lat="43.8327133" lon="12.6724217"><ele>216.0</ele><time>2026-04-25T13:21:30.532Z</time></trkpt><trkpt lat="43.8326583" lon="12.6723017"><ele>216.4</ele><time>2026-04-25T13:21:31.534Z</time></trkpt><trkpt lat="43.8326083" lon="12.6721933"><ele>216.8</ele><time>2026-04-25T13:21:32.535Z</time></trkpt><trkpt lat="43.83256" lon="12.6720917"><ele>217.20000000000002</ele><time>2026-04-25T13:21:33.532Z</time></trkpt><trkpt lat="43.8325217" lon="12.6719933"><ele>217.60000000000002</ele><time>2026-04-25T13:21:34.533Z</time></trkpt><trkpt lat="43.8325083" lon="12.6718"><ele>218.0</ele><time>2026-04-25T13:21:36.531Z</time></trkpt><trkpt lat="43.8325333" lon="12.6716933"><ele>218.25</ele><time>2026-04-25T13:21:37.534Z</time></trkpt><trkpt lat="43.8325767" lon="12.6715683"><ele>218.5</ele><time>2026-04-25T13:21:38.535Z</time></trkpt><trkpt lat="43.8326333" lon="12.6714267"><ele>218.75</ele><time>2026-04-25T13:21:39.534Z</time></trkpt><trkpt lat="43.83269" lon="12.6712767"><ele>219.0</ele><time>2026-04-25T13:21:40.535Z</time></trkpt><trkpt lat="43.8327467" lon="12.671125"><ele>221.75</ele><time>2026-04-25T13:21:41.536Z</time></trkpt><trkpt lat="43.8328133" lon="12.6709867"><ele>224.5</ele><time>2026-04-25T13:21:42.537Z</time></trkpt><trkpt lat="43.8328817" lon="12.670865"><ele>227.25</ele><time>2026-04-25T13:21:43.537Z</time></trkpt><trkpt lat="43.8329633" lon="12.67076"><ele>230.0</ele><time>2026-04-25T13:21:44.539Z</time></trkpt><trkpt lat="43.8330483" lon="12.670665"><ele>230.0</ele><time>2026-04-25T13:21:45.532Z</time></trkpt><trkpt lat="43.8331367" lon="12.670565"><ele>230.0</ele><time>2026-04-25T13:21:46.532Z</time></trkpt><trkpt lat="43.83322" lon="12.6704683"><ele>230.0</ele><time>2026-04-25T13:21:47.531Z</time></trkpt><trkpt lat="43.83329" lon="12.67038"><ele>230.0</ele><time>2026-04-25T13:21:48.537Z</time></trkpt><trkpt lat="43.8333567" lon="12.6702917"><ele>230.0</ele><time>2026-04-25T13:21:49.533Z</time></trkpt><trkpt lat="43.8334217" lon="12.6702117"><ele>230.66666666666669</ele><time>2026-04-25T13:21:50.532Z</time></trkpt><trkpt lat="43.8334833" lon="12.6701383"><ele>231.33333333333334</ele><time>2026-04-25T13:21:51.534Z</time></trkpt><trkpt lat="43.83354" lon="12.6700667"><ele>232.0</ele><time>2026-04-25T13:21:52.532Z</time></trkpt><trkpt lat="43.8335917" lon="12.6699983"><ele>232.66666666666669</ele><time>2026-04-25T13:21:53.531Z</time></trkpt><trkpt lat="43.83364" lon="12.6699367"><ele>233.33333333333334</ele><time>2026-04-25T13:21:54.534Z</time></trkpt><trkpt lat="43.8336833" lon="12.6698433"><ele>234.0</ele><time>2026-04-25T13:21:56.532Z</time></trkpt><trkpt lat="43.8334883" lon="12.6696983"><ele>233.0</ele><time>2026-04-25T13:22:01.535Z</time></trkpt><trkpt lat="43.83336" lon="12.6696883"><ele>232.0</ele><time>2026-04-25T13:22:02.535Z</time></trkpt><trkpt lat="43.8332133" lon="12.6697017"><ele>231.0</ele><time>2026-04-25T13:22:03.535Z</time></trkpt><trkpt lat="43.8330833" lon="12.6697233"><ele>230.0</ele><time>2026-04-25T13:22:04.534Z</time></trkpt><trkpt lat="43.832955" lon="12.669755"><ele>230.0</ele><time>2026-04-25T13:22:05.535Z</time></trkpt><trkpt lat="43.832825" lon="12.6697717"><ele>230.0</ele><time>2026-04-25T13:22:06.535Z</time></trkpt><trkpt lat="43.832695" lon="12.66975"><ele>230.0</ele><time>2026-04-25T13:22:07.534Z</time></trkpt><trkpt lat="43.8325733" lon="12.669685"><ele>230.0</ele><time>2026-04-25T13:22:08.535Z</time></trkpt><trkpt lat="43.8324767" lon="12.6695883"><ele>229.83333333333334</ele><time>2026-04-25T13:22:09.532Z</time></trkpt><trkpt lat="43.8323967" lon="12.6694817"><ele>229.66666666666669</ele><time>2026-04-25T13:22:10.532Z</time></trkpt><trkpt lat="43.8323217" lon="12.6693833"><ele>229.5</ele><time>2026-04-25T13:22:11.533Z</time></trkpt><trkpt lat="43.832255" lon="12.6693017"><ele>229.33333333333331</ele><time>2026-04-25T13:22:12.534Z</time></trkpt><trkpt lat="43.832195" lon="12.6692333"><ele>229.16666666666666</ele><time>2026-04-25T13:22:13.535Z</time></trkpt><trkpt lat="43.8321433" lon="12.6691767"><ele>229.0</ele><time>2026-04-25T13:22:14.539Z</time></trkpt><trkpt lat="43.8320533" lon="12.66909"><ele>226.25</ele><time>2026-04-25T13:22:16.532Z</time></trkpt><trkpt lat="43.8319917" lon="12.669015"><ele>223.5</ele><time>2026-04-25T13:22:18.531Z</time></trkpt><trkpt lat="43.8319117" lon="12.6688433"><ele>220.75</ele><time>2026-04-25T13:23:38.534Z</time></trkpt><trkpt lat="43.8318633" lon="12.6686533"><ele>218.0</ele><time>2026-04-25T13:23:40.533Z</time></trkpt><trkpt lat="43.83185" lon="12.6685383"><ele>215.0</ele><time>2026-04-25T13:23:41.534Z</time></trkpt><trkpt lat="43.8318483" lon="12.66842"><ele>212.0</ele><time>2026-04-25T13:23:42.531Z</time></trkpt><trkpt lat="43.8318583" lon="12.6682967"><ele>209.0</ele><time>2026-04-25T13:23:43.534Z</time></trkpt><trkpt lat="43.8318817" lon="12.6681733"><ele>206.0</ele><time>2026-04-25T13:23:44.531Z</time></trkpt><trkpt lat="43.831905" lon="12.6680467"><ele>203.0</ele><time>2026-04-25T13:23:45.534Z</time></trkpt><trkpt lat="43.831935" lon="12.6679167"><ele>203.0</ele><time>2026-04-25T13:23:46.531Z</time></trkpt><trkpt lat="43.8319567" lon="12.6677817"><ele>203.0</ele><time>2026-04-25T13:23:47.532Z</time></trkpt><trkpt lat="43.83196" lon="12.6676483"><ele>203.0</ele><time>2026-04-25T13:23:48.532Z</time></trkpt><trkpt lat="43.83195" lon="12.66752"><ele>203.0</ele><time>2026-04-25T13:23:49.532Z</time></trkpt><trkpt lat="43.8319217" lon="12.6673967"><ele>203.0</ele><time>2026-04-25T13:23:50.532Z</time></trkpt><trkpt lat="43.8318783" lon="12.6672867"><ele>201.25</ele><time>2026-04-25T13:23:51.532Z</time></trkpt><trkpt lat="43.8317933" lon="12.6671767"><ele>199.5</ele><time>2026-04-25T13:23:52.531Z</time></trkpt><trkpt lat="43.83169" lon="12.66706"><ele>197.75</ele><time>2026-04-25T13:23:53.531Z</time></trkpt><trkpt lat="43.8316133" lon="12.6669217"><ele>196.0</ele><time>2026-04-25T13:23:54.535Z</time></trkpt><trkpt lat="43.8315583" lon="12.666765"><ele>196.0</ele><time>2026-04-25T13:23:55.531Z</time></trkpt><trkpt lat="43.8315233" lon="12.6666133"><ele>196.0</ele><time>2026-04-25T13:23:56.534Z</time></trkpt><trkpt lat="43.8314767" lon="12.6664733"><ele>196.0</ele><time>2026-04-25T13:23:57.531Z</time></trkpt><trkpt lat="43.83141" lon="12.666345"><ele>196.0</ele><time>2026-04-25T13:23:58.534Z</time></trkpt><trkpt lat="43.8313267" lon="12.6662517"><ele>196.0</ele><time>2026-04-25T13:23:59.534Z</time></trkpt><trkpt lat="43.8311133" lon="12.6661867"><ele>196.0</ele><time>2026-04-25T13:24:01.532Z</time></trkpt><trkpt lat="43.830995" lon="12.6661867"><ele>196.0</ele><time>2026-04-25T13:24:02.534Z</time></trkpt><trkpt lat="43.8308717" lon="12.6661983"><ele>196.0</ele><time>2026-04-25T13:24:03.531Z</time></trkpt><trkpt lat="43.8307583" lon="12.6661933"><ele>196.0</ele><time>2026-04-25T13:24:04.532Z</time></trkpt><trkpt lat="43.830645" lon="12.6661567"><ele>194.0</ele><time>2026-04-25T13:24:05.532Z</time></trkpt><trkpt lat="43.8305333" lon="12.6660817"><ele>192.0</ele><time>2026-04-25T13:24:06.532Z</time></trkpt><trkpt lat="43.8304333" lon="12.6659833"><ele>190.0</ele><time>2026-04-25T13:24:07.532Z</time></trkpt><trkpt lat="43.8303433" lon="12.6658783"><ele>188.0</ele><time>2026-04-25T13:24:08.531Z</time></trkpt><trkpt lat="43.8302583" lon="12.66577"><ele>188.0</ele><time>2026-04-25T13:24:09.531Z</time></trkpt><trkpt lat="43.830165" lon="12.6656867"><ele>188.0</ele><time>2026-04-25T13:24:10.532Z</time></trkpt><trkpt lat="43.8300583" lon="12.66565"><ele>188.0</ele><time>2026-04-25T13:24:11.533Z</time></trkpt><trkpt lat="43.8299483" lon="12.66566"><ele>188.0</ele><time>2026-04-25T13:24:12.537Z</time></trkpt><trkpt lat="43.829825" lon="12.6657283"><ele>189.0</ele><time>2026-04-25T13:24:13.532Z</time></trkpt><trkpt lat="43.8296983" lon="12.6658317"><ele>190.0</ele><time>2026-04-25T13:24:14.531Z</time></trkpt><trkpt lat="43.82958" lon="12.665945"><ele>191.0</ele><time>2026-04-25T13:24:15.531Z</time></trkpt><trkpt lat="43.82946" lon="12.6660583"><ele>192.0</ele><time>2026-04-25T13:24:16.532Z</time></trkpt><trkpt lat="43.8293417" lon="12.6661667"><ele>188.8</ele><time>2026-04-25T13:24:17.533Z</time></trkpt><trkpt lat="43.8292367" lon="12.6662683"><ele>185.6</ele><time>2026-04-25T13:24:18.532Z</time></trkpt><trkpt lat="43.8291483" lon="12.666345"><ele>182.4</ele><time>2026-04-25T13:24:19.533Z</time></trkpt><trkpt lat="43.8290783" lon="12.66639"><ele>179.20000000000002</ele><time>2026-04-25T13:24:20.531Z</time></trkpt><trkpt lat="43.82895" lon="12.6663167"><ele>176.0</ele><time>2026-04-25T13:24:23.532Z</time></trkpt><trkpt lat="43.8290117" lon="12.6661683"><ele>175.33333333333331</ele><time>2026-04-25T13:24:25.532Z</time></trkpt><trkpt lat="43.829105" lon="12.6660517"><ele>174.66666666666666</ele><time>2026-04-25T13:24:26.533Z</time></trkpt><trkpt lat="43.829235" lon="12.665875"><ele>174.0</ele><time>2026-04-25T13:24:27.533Z</time></trkpt><trkpt lat="43.8293683" lon="12.6656883"><ele>174.33333333333334</ele><time>2026-04-25T13:24:28.533Z</time></trkpt><trkpt lat="43.829485" lon="12.6655067"><ele>174.66666666666669</ele><time>2026-04-25T13:24:29.532Z</time></trkpt><trkpt lat="43.8296" lon="12.665325"><ele>175.0</ele><time>2026-04-25T13:24:30.532Z</time></trkpt><trkpt lat="43.829705" lon="12.6651617"><ele>175.0</ele><time>2026-04-25T13:24:31.534Z</time></trkpt><trkpt lat="43.8298033" lon="12.66501"><ele>175.0</ele><time>2026-04-25T13:24:32.531Z</time></trkpt><trkpt lat="43.8299083" lon="12.6648533"><ele>175.0</ele><time>2026-04-25T13:24:33.532Z</time></trkpt><trkpt lat="43.8300067" lon="12.6647067"><ele>175.0</ele><time>2026-04-25T13:24:34.531Z</time></trkpt><trkpt lat="43.8300717" lon="12.6645583"><ele>172.75</ele><time>2026-04-25T13:24:35.533Z</time></trkpt><trkpt lat="43.8300933" lon="12.664415"><ele>170.5</ele><time>2026-04-25T13:24:36.532Z</time></trkpt><trkpt lat="43.8300883" lon="12.6642483"><ele>168.25</ele><time>2026-04-25T13:24:37.532Z</time></trkpt><trkpt lat="43.8300683" lon="12.6640833"><ele>166.0</ele><time>2026-04-25T13:24:38.531Z</time></trkpt><trkpt lat="43.830035" lon="12.6639217"><ele>166.0</ele><time>2026-04-25T13:24:39.532Z</time></trkpt><trkpt lat="43.8299833" lon="12.6637733"><ele>166.0</ele><time>2026-04-25T13:24:40.531Z</time></trkpt><trkpt lat="43.8299017" lon="12.6636133"><ele>166.0</ele><time>2026-04-25T13:24:41.532Z</time></trkpt><trkpt lat="43.8296967" lon="12.6633183"><ele>162.75</ele><time>2026-04-25T13:24:43.531Z</time></trkpt><trkpt lat="43.8296067" lon="12.6631767"><ele>159.5</ele><time>2026-04-25T13:24:44.531Z</time></trkpt><trkpt lat="43.8295233" lon="12.6630367"><ele>156.25</ele><time>2026-04-25T13:24:45.533Z</time></trkpt><trkpt lat="43.8294483" lon="12.662915"><ele>153.0</ele><time>2026-04-25T13:24:46.531Z</time></trkpt><trkpt lat="43.829375" lon="12.6628117"><ele>152.33333333333334</ele><time>2026-04-25T13:24:47.533Z</time></trkpt><trkpt lat="43.8292917" lon="12.66279"><ele>151.66666666666666</ele><time>2026-04-25T13:24:48.531Z</time></trkpt><trkpt lat="43.8292067" lon="12.662835"><ele>151.0</ele><time>2026-04-25T13:24:49.536Z</time></trkpt><trkpt lat="43.8291383" lon="12.6629067"><ele>150.33333333333331</ele><time>2026-04-25T13:24:50.533Z</time></trkpt><trkpt lat="43.82911" lon="12.6630217"><ele>149.66666666666666</ele><time>2026-04-25T13:24:51.531Z</time></trkpt><trkpt lat="43.8290917" lon="12.66312"><ele>149.0</ele><time>2026-04-25T13:24:52.531Z</time></trkpt><trkpt lat="43.829115" lon="12.6632833"><ele>149.0</ele><time>2026-04-25T13:24:53.532Z</time></trkpt><trkpt lat="43.82914" lon="12.663445"><ele>149.0</ele><time>2026-04-25T13:24:54.532Z</time></trkpt><trkpt lat="43.8292" lon="12.66368"><ele>149.0</ele><time>2026-04-25T13:24:55.532Z</time></trkpt><trkpt lat="43.829185" lon="12.6638433"><ele>149.0</ele><time>2026-04-25T13:24:56.532Z</time></trkpt><trkpt lat="43.8291667" lon="12.6640117"><ele>149.5</ele><time>2026-04-25T13:24:57.532Z</time></trkpt><trkpt lat="43.8290983" lon="12.664155"><ele>150.0</ele><time>2026-04-25T13:24:58.534Z</time></trkpt><trkpt lat="43.8289933" lon="12.664285"><ele>150.5</ele><time>2026-04-25T13:24:59.531Z</time></trkpt><trkpt lat="43.8288967" lon="12.6644333"><ele>151.0</ele><time>2026-04-25T13:25:00.532Z</time></trkpt><trkpt lat="43.8288033" lon="12.66459"><ele>153.0</ele><time>2026-04-25T13:25:01.533Z</time></trkpt><trkpt lat="43.8287067" lon="12.6647317"><ele>155.0</ele><time>2026-04-25T13:25:02.531Z</time></trkpt><trkpt lat="43.8284817" lon="12.6649733"><ele>157.0</ele><time>2026-04-25T13:25:04.533Z</time></trkpt><trkpt lat="43.82835" lon="12.6650733"><ele>155.66666666666669</ele><time>2026-04-25T13:25:05.533Z</time></trkpt><trkpt lat="43.8282117" lon="12.6651717"><ele>154.33333333333334</ele><time>2026-04-25T13:25:06.533Z</time></trkpt><trkpt lat="43.8280667" lon="12.6652683"><ele>153.0</ele><time>2026-04-25T13:25:07.534Z</time></trkpt><trkpt lat="43.8279233" lon="12.6653567"><ele>153.0</ele><time>2026-04-25T13:25:08.532Z</time></trkpt><trkpt lat="43.827785" lon="12.6654317"><ele>153.0</ele><time>2026-04-25T13:25:09.531Z</time></trkpt><trkpt lat="43.8276467" lon="12.6654933"><ele>153.0</ele><time>2026-04-25T13:25:10.532Z</time></trkpt><trkpt lat="43.827515" lon="12.66555"><ele>153.0</ele><time>2026-04-25T13:25:11.532Z</time></trkpt><trkpt lat="43.8273933" lon="12.6656067"><ele>149.6</ele><time>2026-04-25T13:25:12.531Z</time></trkpt><trkpt lat="43.8272933" lon="12.6656783"><ele>146.20000000000002</ele><time>2026-04-25T13:25:13.531Z</time></trkpt><trkpt lat="43.8272167" lon="12.665765"><ele>142.8</ele><time>2026-04-25T13:25:14.531Z</time></trkpt><trkpt lat="43.8271683" lon="12.6658717"><ele>139.4</ele><time>2026-04-25T13:25:15.532Z</time></trkpt><trkpt lat="43.8271517" lon="12.6659867"><ele>136.0</ele><time>2026-04-25T13:25:16.534Z</time></trkpt><trkpt lat="43.8271733" lon="12.6661117"><ele>135.8</ele><time>2026-04-25T13:25:17.537Z</time></trkpt><trkpt lat="43.8272417" lon="12.6662317"><ele>135.6</ele><time>2026-04-25T13:25:18.536Z</time></trkpt><trkpt lat="43.82733" lon="12.6663517"><ele>135.4</ele><time>2026-04-25T13:25:19.532Z</time></trkpt><trkpt lat="43.8273883" lon="12.6664633"><ele>135.2</ele><time>2026-04-25T13:25:20.532Z</time></trkpt><trkpt lat="43.827425" lon="12.6665817"><ele>135.0</ele><time>2026-04-25T13:25:21.532Z</time></trkpt><trkpt lat="43.8274517" lon="12.6667167"><ele>135.0</ele><time>2026-04-25T13:25:22.533Z</time></trkpt><trkpt lat="43.8274533" lon="12.6668633"><ele>135.0</ele><time>2026-04-25T13:25:23.531Z</time></trkpt><trkpt lat="43.8273033" lon="12.6670783"><ele>135.0</ele><time>2026-04-25T13:25:26.531Z</time></trkpt><trkpt lat="43.8270917" lon="12.6670317"><ele>137.0</ele><time>2026-04-25T13:25:27.531Z</time></trkpt><trkpt lat="43.82693" lon="12.6669617"><ele>139.0</ele><time>2026-04-25T13:25:28.531Z</time></trkpt><trkpt lat="43.8267783" lon="12.6668483"><ele>141.0</ele><time>2026-04-25T13:25:29.535Z</time></trkpt><trkpt lat="43.82663" lon="12.6667367"><ele>136.5</ele><time>2026-04-25T13:25:30.531Z</time></trkpt><trkpt lat="43.826505" lon="12.6666517"><ele>132.0</ele><time>2026-04-25T13:25:31.536Z</time></trkpt><trkpt lat="43.8263883" lon="12.666595"><ele>127.5</ele><time>2026-04-25T13:25:32.531Z</time></trkpt><trkpt lat="43.826275" lon="12.66659"><ele>123.0</ele><time>2026-04-25T13:25:33.531Z</time></trkpt><trkpt lat="43.826185" lon="12.6666233"><ele>123.0</ele><time>2026-04-25T13:25:34.531Z</time></trkpt><trkpt lat="43.826115" lon="12.6666767"><ele>123.00000000000001</ele><time>2026-04-25T13:25:35.533Z</time></trkpt><trkpt lat="43.826055" lon="12.66672"><ele>123.00000000000001</ele><time>2026-04-25T13:25:36.531Z</time></trkpt><trkpt lat="43.8259783" lon="12.6667517"><ele>123.0</ele><time>2026-04-25T13:25:38.532Z</time></trkpt><trkpt lat="43.826045" lon="12.6666533"><ele>123.0</ele><time>2026-04-25T13:25:42.532Z</time></trkpt><trkpt lat="43.8261517" lon="12.66655"><ele>123.0</ele><time>2026-04-25T13:25:43.535Z</time></trkpt><trkpt lat="43.826265" lon="12.6664517"><ele>123.0</ele><time>2026-04-25T13:25:44.532Z</time></trkpt><trkpt lat="43.8264367" lon="12.6662917"><ele>123.0</ele><time>2026-04-25T13:25:46.532Z</time></trkpt><trkpt lat="43.8265083" lon="12.6661517"><ele>121.0</ele><time>2026-04-25T13:25:47.531Z</time></trkpt><trkpt lat="43.8265367" lon="12.66601"><ele>119.0</ele><time>2026-04-25T13:25:48.532Z</time></trkpt><trkpt lat="43.82656" lon="12.6658467"><ele>117.0</ele><time>2026-04-25T13:25:49.533Z</time></trkpt><trkpt lat="43.826565" lon="12.6656817"><ele>115.0</ele><time>2026-04-25T13:25:50.531Z</time></trkpt><trkpt lat="43.8265767" lon="12.665515"><ele>115.0</ele><time>2026-04-25T13:25:51.533Z</time></trkpt><trkpt lat="43.8266" lon="12.6653433"><ele>115.0</ele><time>2026-04-25T13:25:52.531Z</time></trkpt><trkpt lat="43.8266317" lon="12.6651933"><ele>115.0</ele><time>2026-04-25T13:25:53.533Z</time></trkpt><trkpt lat="43.8266833" lon="12.6650617"><ele>115.0</ele><time>2026-04-25T13:25:54.532Z</time></trkpt><trkpt lat="43.8267467" lon="12.6649333"><ele>115.0</ele><time>2026-04-25T13:25:55.532Z</time></trkpt><trkpt lat="43.82682" lon="12.6648067"><ele>115.0</ele><time>2026-04-25T13:25:56.533Z</time></trkpt><trkpt lat="43.826905" lon="12.66467"><ele>115.0</ele><time>2026-04-25T13:25:57.531Z</time></trkpt><trkpt lat="43.8269867" lon="12.6645167"><ele>115.0</ele><time>2026-04-25T13:25:58.532Z</time></trkpt><trkpt lat="43.8270517" lon="12.6643417"><ele>115.0</ele><time>2026-04-25T13:25:59.532Z</time></trkpt><trkpt lat="43.8271" lon="12.6641483"><ele>115.0</ele><time>2026-04-25T13:26:00.531Z</time></trkpt><trkpt lat="43.827135" lon="12.6639533"><ele>115.0</ele><time>2026-04-25T13:26:01.536Z</time></trkpt><trkpt lat="43.8271633" lon="12.6637717"><ele>115.0</ele><time>2026-04-25T13:26:02.532Z</time></trkpt><trkpt lat="43.827195" lon="12.6636"><ele>112.33333333333334</ele><time>2026-04-25T13:26:03.532Z</time></trkpt><trkpt lat="43.8272333" lon="12.6634317"><ele>109.66666666666666</ele><time>2026-04-25T13:26:04.532Z</time></trkpt><trkpt lat="43.827295" lon="12.663265"><ele>107.0</ele><time>2026-04-25T13:26:05.533Z</time></trkpt><trkpt lat="43.82742" lon="12.6629233"><ele>105.75</ele><time>2026-04-25T13:26:07.532Z</time></trkpt><trkpt lat="43.8274817" lon="12.662745"><ele>104.5</ele><time>2026-04-25T13:26:08.532Z</time></trkpt><trkpt lat="43.8275417" lon="12.6625633"><ele>103.25</ele><time>2026-04-25T13:26:09.533Z</time></trkpt><trkpt lat="43.827605" lon="12.6623833"><ele>102.0</ele><time>2026-04-25T13:26:10.534Z</time></trkpt><trkpt lat="43.8276617" lon="12.66221"><ele>104.25</ele><time>2026-04-25T13:26:11.533Z</time></trkpt><trkpt lat="43.8277217" lon="12.6620433"><ele>106.5</ele><time>2026-04-25T13:26:12.532Z</time></trkpt><trkpt lat="43.8277783" lon="12.6618783"><ele>108.75</ele><time>2026-04-25T13:26:13.533Z</time></trkpt><trkpt lat="43.8278317" lon="12.6617183"><ele>111.0</ele><time>2026-04-25T13:26:14.533Z</time></trkpt><trkpt lat="43.8278917" lon="12.6615533"><ele>111.0</ele><time>2026-04-25T13:26:15.532Z</time></trkpt><trkpt lat="43.8279583" lon="12.6613933"><ele>111.0</ele><time>2026-04-25T13:26:16.534Z</time></trkpt><trkpt lat="43.8280317" lon="12.6612317"><ele>111.0</ele><time>2026-04-25T13:26:17.531Z</time></trkpt><trkpt lat="43.828105" lon="12.66107"><ele>111.0</ele><time>2026-04-25T13:26:18.531Z</time></trkpt><trkpt lat="43.828185" lon="12.6608933"><ele>106.33333333333334</ele><time>2026-04-25T13:26:19.532Z</time></trkpt><trkpt lat="43.82828" lon="12.660715"><ele>101.66666666666667</ele><time>2026-04-25T13:26:20.531Z</time></trkpt><trkpt lat="43.8283783" lon="12.6605333"><ele>97.0</ele><time>2026-04-25T13:26:21.532Z</time></trkpt><trkpt lat="43.82847" lon="12.6603517"><ele>97.66666666666667</ele><time>2026-04-25T13:26:22.531Z</time></trkpt><trkpt lat="43.8285683" lon="12.6601767"><ele>98.33333333333334</ele><time>2026-04-25T13:26:23.533Z</time></trkpt><trkpt lat="43.8286633" lon="12.6599983"><ele>99.0</ele><time>2026-04-25T13:26:24.532Z</time></trkpt><trkpt lat="43.8287517" lon="12.6597983"><ele>99.0</ele><time>2026-04-25T13:26:25.534Z</time></trkpt><trkpt lat="43.8288433" lon="12.6595917"><ele>99.0</ele><time>2026-04-25T13:26:26.534Z</time></trkpt><trkpt lat="43.8290167" lon="12.6592067"><ele>98.25</ele><time>2026-04-25T13:26:28.533Z</time></trkpt><trkpt lat="43.829095" lon="12.6590317"><ele>97.5</ele><time>2026-04-25T13:26:29.531Z</time></trkpt><trkpt lat="43.82917" lon="12.6588617"><ele>96.75</ele><time>2026-04-25T13:26:30.53Z</time></trkpt><trkpt lat="43.8292367" lon="12.658705"><ele>96.0</ele><time>2026-04-25T13:26:31.533Z</time></trkpt><trkpt lat="43.8292983" lon="12.6585583"><ele>97.5</ele><time>2026-04-25T13:26:32.531Z</time></trkpt><trkpt lat="43.8293667" lon="12.6584217"><ele>99.0</ele><time>2026-04-25T13:26:33.534Z</time></trkpt><trkpt lat="43.8294467" lon="12.65829"><ele>100.5</ele><time>2026-04-25T13:26:34.535Z</time></trkpt><trkpt lat="43.8295433" lon="12.6581633"><ele>102.0</ele><time>2026-04-25T13:26:35.533Z</time></trkpt><trkpt lat="43.829655" lon="12.6580433"><ele>102.0</ele><time>2026-04-25T13:26:36.532Z</time></trkpt><trkpt lat="43.8297733" lon="12.65792"><ele>102.0</ele><time>2026-04-25T13:26:37.532Z</time></trkpt><trkpt lat="43.8298983" lon="12.6577983"><ele>102.0</ele><time>2026-04-25T13:26:38.531Z</time></trkpt><trkpt lat="43.8300233" lon="12.6576733"><ele>104.25</ele><time>2026-04-25T13:26:39.533Z</time></trkpt><trkpt lat="43.8301417" lon="12.6575483"><ele>106.5</ele><time>2026-04-25T13:26:40.531Z</time></trkpt><trkpt lat="43.8302483" lon="12.65743"><ele>108.75</ele><time>2026-04-25T13:26:41.532Z</time></trkpt><trkpt lat="43.8303417" lon="12.6573033"><ele>111.0</ele><time>2026-04-25T13:26:42.532Z</time></trkpt><trkpt lat="43.8304317" lon="12.65718"><ele>111.0</ele><time>2026-04-25T13:26:43.533Z</time></trkpt><trkpt lat="43.8305183" lon="12.6570483"><ele>111.0</ele><time>2026-04-25T13:26:44.533Z</time></trkpt><trkpt lat="43.830605" lon="12.656915"><ele>111.0</ele><time>2026-04-25T13:26:45.534Z</time></trkpt><trkpt lat="43.8306883" lon="12.6567833"><ele>111.0</ele><time>2026-04-25T13:26:46.531Z</time></trkpt><trkpt lat="43.8307683" lon="12.6566583"><ele>112.25</ele><time>2026-04-25T13:26:47.532Z</time></trkpt><trkpt lat="43.8309183" lon="12.656425"><ele>113.5</ele><time>2026-04-25T13:26:49.532Z</time></trkpt><trkpt lat="43.8310033" lon="12.6563333"><ele>114.75</ele><time>2026-04-25T13:26:50.532Z</time></trkpt><trkpt lat="43.8310967" lon="12.656255"><ele>116.0</ele><time>2026-04-25T13:26:51.531Z</time></trkpt><trkpt lat="43.8312" lon="12.6561917"><ele>116.0</ele><time>2026-04-25T13:26:52.53Z</time></trkpt><trkpt lat="43.831315" lon="12.6561383"><ele>116.0</ele><time>2026-04-25T13:26:53.531Z</time></trkpt><trkpt lat="43.8314317" lon="12.656085"><ele>116.0</ele><time>2026-04-25T13:26:54.531Z</time></trkpt><trkpt lat="43.831545" lon="12.6560217"><ele>116.0</ele><time>2026-04-25T13:26:55.531Z</time></trkpt><trkpt lat="43.8316567" lon="12.655935"><ele>115.75</ele><time>2026-04-25T13:26:56.532Z</time></trkpt><trkpt lat="43.8317667" lon="12.6558217"><ele>115.5</ele><time>2026-04-25T13:26:57.531Z</time></trkpt><trkpt lat="43.83188" lon="12.6556917"><ele>115.25</ele><time>2026-04-25T13:26:58.531Z</time></trkpt><trkpt lat="43.8320017" lon="12.65555"><ele>115.0</ele><time>2026-04-25T13:26:59.531Z</time></trkpt><trkpt lat="43.8321233" lon="12.6554167"><ele>115.0</ele><time>2026-04-25T13:27:00.534Z</time></trkpt><trkpt lat="43.83225" lon="12.6552917"><ele>115.0</ele><time>2026-04-25T13:27:01.534Z</time></trkpt><trkpt lat="43.8323683" lon="12.6551717"><ele>115.0</ele><time>2026-04-25T13:27:02.533Z</time></trkpt><trkpt lat="43.8324967" lon="12.6550717"><ele>115.0</ele><time>2026-04-25T13:27:03.534Z</time></trkpt><trkpt lat="43.832635" lon="12.6549933"><ele>112.66666666666667</ele><time>2026-04-25T13:27:04.533Z</time></trkpt><trkpt lat="43.832785" lon="12.6549383"><ele>110.33333333333334</ele><time>2026-04-25T13:27:05.534Z</time></trkpt><trkpt lat="43.8329417" lon="12.6549083"><ele>108.0</ele><time>2026-04-25T13:27:06.534Z</time></trkpt><trkpt lat="43.8331" lon="12.6548917"><ele>108.0</ele><time>2026-04-25T13:27:07.536Z</time></trkpt><trkpt lat="43.83326" lon="12.65487"><ele>108.0</ele><time>2026-04-25T13:27:08.533Z</time></trkpt><trkpt lat="43.83359" lon="12.6548067"><ele>110.66666666666666</ele><time>2026-04-25T13:27:10.531Z</time></trkpt><trkpt lat="43.8337617" lon="12.6547517"><ele>113.33333333333333</ele><time>2026-04-25T13:27:11.533Z</time></trkpt><trkpt lat="43.833925" lon="12.6546883"><ele>116.0</ele><time>2026-04-25T13:27:12.531Z</time></trkpt><trkpt lat="43.8340933" lon="12.6546167"><ele>116.0</ele><time>2026-04-25T13:27:13.534Z</time></trkpt><trkpt lat="43.8342617" lon="12.654535"><ele>116.0</ele><time>2026-04-25T13:27:14.535Z</time></trkpt><trkpt lat="43.834435" lon="12.6544483"><ele>116.0</ele><time>2026-04-25T13:27:15.531Z</time></trkpt><trkpt lat="43.834605" lon="12.65436"><ele>114.66666666666666</ele><time>2026-04-25T13:27:16.531Z</time></trkpt><trkpt lat="43.83477" lon="12.6542717"><ele>113.33333333333334</ele><time>2026-04-25T13:27:17.532Z</time></trkpt><trkpt lat="43.8349217" lon="12.6541817"><ele>112.0</ele><time>2026-04-25T13:27:18.532Z</time></trkpt><trkpt lat="43.83507" lon="12.654085"><ele>117.33333333333334</ele><time>2026-04-25T13:27:19.531Z</time></trkpt><trkpt lat="43.8352167" lon="12.6539767"><ele>122.66666666666666</ele><time>2026-04-25T13:27:20.532Z</time></trkpt><trkpt lat="43.8353617" lon="12.6538583"><ele>128.0</ele><time>2026-04-25T13:27:21.531Z</time></trkpt><trkpt lat="43.835495" lon="12.6537317"><ele>121.66666666666666</ele><time>2026-04-25T13:27:22.531Z</time></trkpt><trkpt lat="43.8356267" lon="12.653605"><ele>115.33333333333334</ele><time>2026-04-25T13:27:23.534Z</time></trkpt><trkpt lat="43.835755" lon="12.653475"><ele>109.0</ele><time>2026-04-25T13:27:24.532Z</time></trkpt><trkpt lat="43.8358833" lon="12.653345"><ele>111.0</ele><time>2026-04-25T13:27:25.532Z</time></trkpt><trkpt lat="43.83601" lon="12.6532083"><ele>113.0</ele><time>2026-04-25T13:27:26.532Z</time></trkpt><trkpt lat="43.8361433" lon="12.653075"><ele>115.0</ele><time>2026-04-25T13:27:27.531Z</time></trkpt><trkpt lat="43.8362683" lon="12.6529383"><ele>115.0</ele><time>2026-04-25T13:27:28.531Z</time></trkpt><trkpt lat="43.83639" lon="12.6527967"><ele>115.0</ele><time>2026-04-25T13:27:29.531Z</time></trkpt><trkpt lat="43.8366183" lon="12.652525"><ele>114.5</ele><time>2026-04-25T13:27:31.532Z</time></trkpt><trkpt lat="43.8367233" lon="12.6523933"><ele>114.0</ele><time>2026-04-25T13:27:32.531Z</time></trkpt><trkpt lat="43.836815" lon="12.6522633"><ele>113.5</ele><time>2026-04-25T13:27:33.532Z</time></trkpt><trkpt lat="43.8368933" lon="12.6521333"><ele>113.0</ele><time>2026-04-25T13:27:34.532Z</time></trkpt><trkpt lat="43.8369717" lon="12.65201"><ele>111.60000000000001</ele><time>2026-04-25T13:27:35.532Z</time></trkpt><trkpt lat="43.8370433" lon="12.6518817"><ele>110.20000000000002</ele><time>2026-04-25T13:27:36.532Z</time></trkpt><trkpt lat="43.8371033" lon="12.651755"><ele>108.8</ele><time>2026-04-25T13:27:37.531Z</time></trkpt><trkpt lat="43.8371483" lon="12.6516333"><ele>107.4</ele><time>2026-04-25T13:27:38.535Z</time></trkpt><trkpt lat="43.8371817" lon="12.6515167"><ele>106.0</ele><time>2026-04-25T13:27:39.537Z</time></trkpt><trkpt lat="43.83721" lon="12.6514033"><ele>106.0</ele><time>2026-04-25T13:27:40.531Z</time></trkpt><trkpt lat="43.8372417" lon="12.6512817"><ele>106.0</ele><time>2026-04-25T13:27:41.535Z</time></trkpt><trkpt lat="43.837275" lon="12.65115"><ele>106.0</ele><time>2026-04-25T13:27:42.534Z</time></trkpt><trkpt lat="43.8373067" lon="12.6510183"><ele>106.0</ele><time>2026-04-25T13:27:43.531Z</time></trkpt><trkpt lat="43.8373283" lon="12.650895"><ele>106.0</ele><time>2026-04-25T13:27:44.534Z</time></trkpt><trkpt lat="43.837325" lon="12.6507767"><ele>105.8</ele><time>2026-04-25T13:27:45.534Z</time></trkpt><trkpt lat="43.83729" lon="12.65067"><ele>105.6</ele><time>2026-04-25T13:27:46.534Z</time></trkpt><trkpt lat="43.8372417" lon="12.6505583"><ele>105.4</ele><time>2026-04-25T13:27:47.532Z</time></trkpt><trkpt lat="43.8371967" lon="12.65045"><ele>105.2</ele><time>2026-04-25T13:27:48.532Z</time></trkpt><trkpt lat="43.8371767" lon="12.6503233"><ele>105.0</ele><time>2026-04-25T13:27:49.532Z</time></trkpt><trkpt lat="43.837185" lon="12.6501983"><ele>106.0</ele><time>2026-04-25T13:27:50.531Z</time></trkpt><trkpt lat="43.83726" lon="12.64992"><ele>107.0</ele><time>2026-04-25T13:27:52.531Z</time></trkpt><trkpt lat="43.83731" lon="12.6497617"><ele>108.0</ele><time>2026-04-25T13:27:53.533Z</time></trkpt><trkpt lat="43.8373617" lon="12.64959"><ele>107.5</ele><time>2026-04-25T13:27:54.531Z</time></trkpt><trkpt lat="43.8374133" lon="12.6494117"><ele>107.0</ele><time>2026-04-25T13:27:55.533Z</time></trkpt><trkpt lat="43.8374683" lon="12.6492283"><ele>106.5</ele><time>2026-04-25T13:27:56.531Z</time></trkpt><trkpt lat="43.8375267" lon="12.649045"><ele>106.0</ele><time>2026-04-25T13:27:57.53Z</time></trkpt><trkpt lat="43.8375933" lon="12.64888"><ele>107.5</ele><time>2026-04-25T13:27:58.532Z</time></trkpt><trkpt lat="43.8376667" lon="12.6487333"><ele>109.0</ele><time>2026-04-25T13:27:59.534Z</time></trkpt><trkpt lat="43.8377467" lon="12.64861"><ele>110.5</ele><time>2026-04-25T13:28:00.531Z</time></trkpt><trkpt lat="43.8378367" lon="12.648515"><ele>112.0</ele><time>2026-04-25T13:28:01.533Z</time></trkpt><trkpt lat="43.8379417" lon="12.64845"><ele>112.0</ele><time>2026-04-25T13:28:02.533Z</time></trkpt><trkpt lat="43.8380633" lon="12.6483883"><ele>112.0</ele><time>2026-04-25T13:28:03.534Z</time></trkpt><trkpt lat="43.8381933" lon="12.6483217"><ele>112.0</ele><time>2026-04-25T13:28:04.531Z</time></trkpt><trkpt lat="43.83832" lon="12.6482333"><ele>112.0</ele><time>2026-04-25T13:28:05.533Z</time></trkpt><trkpt lat="43.8384383" lon="12.6481117"><ele>114.0</ele><time>2026-04-25T13:28:06.532Z</time></trkpt><trkpt lat="43.838545" lon="12.6479817"><ele>116.0</ele><time>2026-04-25T13:28:07.532Z</time></trkpt><trkpt lat="43.8386333" lon="12.6478633"><ele>118.0</ele><time>2026-04-25T13:28:08.536Z</time></trkpt><trkpt lat="43.8387017" lon="12.6477617"><ele>120.0</ele><time>2026-04-25T13:28:09.533Z</time></trkpt><trkpt lat="43.83876" lon="12.647675"><ele>120.0</ele><time>2026-04-25T13:28:10.532Z</time></trkpt><trkpt lat="43.8388117" lon="12.6475983"><ele>120.0</ele><time>2026-04-25T13:28:11.532Z</time></trkpt><trkpt lat="43.8388817" lon="12.647425"><ele>120.0</ele><time>2026-04-25T13:28:13.534Z</time></trkpt><trkpt lat="43.8388983" lon="12.6473067"><ele>120.0</ele><time>2026-04-25T13:28:14.534Z</time></trkpt><trkpt lat="43.838905" lon="12.64716"><ele>120.0</ele><time>2026-04-25T13:28:15.53Z</time></trkpt><trkpt lat="43.838935" lon="12.64702"><ele>119.75</ele><time>2026-04-25T13:28:16.531Z</time></trkpt><trkpt lat="43.838995" lon="12.6468883"><ele>119.5</ele><time>2026-04-25T13:28:17.532Z</time></trkpt><trkpt lat="43.8390767" lon="12.6467833"><ele>119.25</ele><time>2026-04-25T13:28:18.532Z</time></trkpt><trkpt lat="43.8391867" lon="12.646705"><ele>119.0</ele><time>2026-04-25T13:28:19.533Z</time></trkpt><trkpt lat="43.8393183" lon="12.6466483"><ele>119.5</ele><time>2026-04-25T13:28:20.531Z</time></trkpt><trkpt lat="43.83944" lon="12.6465933"><ele>120.0</ele><time>2026-04-25T13:28:21.531Z</time></trkpt><trkpt lat="43.839565" lon="12.6465483"><ele>120.5</ele><time>2026-04-25T13:28:22.532Z</time></trkpt><trkpt lat="43.8396933" lon="12.6465083"><ele>121.0</ele><time>2026-04-25T13:28:23.532Z</time></trkpt><trkpt lat="43.8398233" lon="12.6464717"><ele>121.0</ele><time>2026-04-25T13:28:24.532Z</time></trkpt><trkpt lat="43.83995" lon="12.6464233"><ele>121.0</ele><time>2026-04-25T13:28:25.531Z</time></trkpt><trkpt lat="43.8400717" lon="12.64637"><ele>121.0</ele><time>2026-04-25T13:28:26.532Z</time></trkpt><trkpt lat="43.8401817" lon="12.6463183"><ele>121.0</ele><time>2026-04-25T13:28:27.532Z</time></trkpt><trkpt lat="43.84028" lon="12.6462583"><ele>120.8</ele><time>2026-04-25T13:28:28.531Z</time></trkpt><trkpt lat="43.840365" lon="12.646185"><ele>120.6</ele><time>2026-04-25T13:28:29.535Z</time></trkpt><trkpt lat="43.8404433" lon="12.64609"><ele>120.4</ele><time>2026-04-25T13:28:30.534Z</time></trkpt><trkpt lat="43.8405117" lon="12.6459833"><ele>120.2</ele><time>2026-04-25T13:28:31.533Z</time></trkpt><trkpt lat="43.8405717" lon="12.6458633"><ele>120.0</ele><time>2026-04-25T13:28:32.532Z</time></trkpt><trkpt lat="43.8406517" lon="12.6455767"><ele>120.0</ele><time>2026-04-25T13:28:34.531Z</time></trkpt><trkpt lat="43.840675" lon="12.645415"><ele>120.0</ele><time>2026-04-25T13:28:35.532Z</time></trkpt><trkpt lat="43.8407067" lon="12.64526"><ele>120.0</ele><time>2026-04-25T13:28:36.536Z</time></trkpt><trkpt lat="43.840745" lon="12.6451117"><ele>120.0</ele><time>2026-04-25T13:28:37.535Z</time></trkpt><trkpt lat="43.84078" lon="12.6449617"><ele>119.5</ele><time>2026-04-25T13:28:38.532Z</time></trkpt><trkpt lat="43.8407983" lon="12.6447933"><ele>119.0</ele><time>2026-04-25T13:28:39.534Z</time></trkpt><trkpt lat="43.840805" lon="12.6446167"><ele>118.5</ele><time>2026-04-25T13:28:40.531Z</time></trkpt><trkpt lat="43.8408083" lon="12.64445"><ele>118.0</ele><time>2026-04-25T13:28:41.533Z</time></trkpt><trkpt lat="43.8408217" lon="12.6442833"><ele>117.75</ele><time>2026-04-25T13:28:42.531Z</time></trkpt><trkpt lat="43.840855" lon="12.6441133"><ele>117.5</ele><time>2026-04-25T13:28:43.532Z</time></trkpt><trkpt lat="43.8409033" lon="12.643935"><ele>117.25</ele><time>2026-04-25T13:28:44.531Z</time></trkpt><trkpt lat="43.840955" lon="12.64374"><ele>117.0</ele><time>2026-04-25T13:28:45.534Z</time></trkpt><trkpt lat="43.8410117" lon="12.64354"><ele>119.66666666666666</ele><time>2026-04-25T13:28:46.531Z</time></trkpt><trkpt lat="43.841065" lon="12.6433317"><ele>122.33333333333333</ele><time>2026-04-25T13:28:47.531Z</time></trkpt><trkpt lat="43.8411167" lon="12.6431233"><ele>125.0</ele><time>2026-04-25T13:28:48.532Z</time></trkpt><trkpt lat="43.841165" lon="12.642925"><ele>124.0</ele><time>2026-04-25T13:28:49.536Z</time></trkpt><trkpt lat="43.8412133" lon="12.6427317"><ele>123.0</ele><time>2026-04-25T13:28:50.532Z</time></trkpt><trkpt lat="43.8412583" lon="12.64254"><ele>122.0</ele><time>2026-04-25T13:28:51.531Z</time></trkpt><trkpt lat="43.841295" lon="12.6423467"><ele>121.0</ele><time>2026-04-25T13:28:52.531Z</time></trkpt><trkpt lat="43.8413267" lon="12.6421583"><ele>120.66666666666667</ele><time>2026-04-25T13:28:53.532Z</time></trkpt><trkpt lat="43.841385" lon="12.6418333"><ele>120.33333333333334</ele><time>2026-04-25T13:28:55.532Z</time></trkpt><trkpt lat="43.8414283" lon="12.6417017"><ele>120.0</ele><time>2026-04-25T13:28:56.532Z</time></trkpt><trkpt lat="43.841475" lon="12.6415683"><ele>120.0</ele><time>2026-04-25T13:28:57.531Z</time></trkpt><trkpt lat="43.8415167" lon="12.6414283"><ele>120.0</ele><time>2026-04-25T13:28:58.532Z</time></trkpt><trkpt lat="43.8415383" lon="12.6412933"><ele>120.0</ele><time>2026-04-25T13:28:59.541Z</time></trkpt><trkpt lat="43.841545" lon="12.641175"><ele>120.0</ele><time>2026-04-25T13:29:00.534Z</time></trkpt><trkpt lat="43.841545" lon="12.6410783"><ele>120.0</ele><time>2026-04-25T13:29:01.535Z</time></trkpt><trkpt lat="43.8415583" lon="12.64092"><ele>119.66666666666667</ele><time>2026-04-25T13:29:03.535Z</time></trkpt><trkpt lat="43.8415867" lon="12.6408417"><ele>119.33333333333334</ele><time>2026-04-25T13:29:04.531Z</time></trkpt><trkpt lat="43.8416333" lon="12.6407683"><ele>119.0</ele><time>2026-04-25T13:29:05.535Z</time></trkpt><trkpt lat="43.8417017" lon="12.6407"><ele>118.66666666666667</ele><time>2026-04-25T13:29:06.535Z</time></trkpt><trkpt lat="43.8417917" lon="12.6406467"><ele>118.33333333333334</ele><time>2026-04-25T13:29:07.536Z</time></trkpt><trkpt lat="43.8418983" lon="12.6406067"><ele>118.0</ele><time>2026-04-25T13:29:08.535Z</time></trkpt><trkpt lat="43.8420133" lon="12.6405783"><ele>119.2</ele><time>2026-04-25T13:29:09.534Z</time></trkpt><trkpt lat="43.8421283" lon="12.6405767"><ele>120.4</ele><time>2026-04-25T13:29:10.531Z</time></trkpt><trkpt lat="43.84223" lon="12.64061"><ele>121.60000000000001</ele><time>2026-04-25T13:29:11.535Z</time></trkpt><trkpt lat="43.8423083" lon="12.64067"><ele>122.80000000000001</ele><time>2026-04-25T13:29:12.532Z</time></trkpt><trkpt lat="43.84237" lon="12.6407583"><ele>124.0</ele><time>2026-04-25T13:29:13.535Z</time></trkpt><trkpt lat="43.8424217" lon="12.6408817"><ele>124.0</ele><time>2026-04-25T13:29:14.534Z</time></trkpt><trkpt lat="43.8425583" lon="12.6411167"><ele>124.0</ele><time>2026-04-25T13:29:16.535Z</time></trkpt><trkpt lat="43.8426533" lon="12.6412167"><ele>124.0</ele><time>2026-04-25T13:29:17.53Z</time></trkpt><trkpt lat="43.8427567" lon="12.641315"><ele>127.75</ele><time>2026-04-25T13:29:18.532Z</time></trkpt><trkpt lat="43.84287" lon="12.64141"><ele>131.5</ele><time>2026-04-25T13:29:19.533Z</time></trkpt><trkpt lat="43.84299" lon="12.6415033"><ele>135.25</ele><time>2026-04-25T13:29:20.531Z</time></trkpt><trkpt lat="43.8431183" lon="12.641595"><ele>139.0</ele><time>2026-04-25T13:29:21.531Z</time></trkpt><trkpt lat="43.8432533" lon="12.6416817"><ele>139.0</ele><time>2026-04-25T13:29:22.533Z</time></trkpt><trkpt lat="43.843395" lon="12.6417633"><ele>139.0</ele><time>2026-04-25T13:29:23.534Z</time></trkpt><trkpt lat="43.8435367" lon="12.64184"><ele>139.0</ele><time>2026-04-25T13:29:24.534Z</time></trkpt><trkpt lat="43.8436667" lon="12.6419083"><ele>139.0</ele><time>2026-04-25T13:29:25.534Z</time></trkpt><trkpt lat="43.8437867" lon="12.6419783"><ele>142.5</ele><time>2026-04-25T13:29:26.534Z</time></trkpt><trkpt lat="43.843905" lon="12.6420467"><ele>146.0</ele><time>2026-04-25T13:29:27.531Z</time></trkpt><trkpt lat="43.84402" lon="12.6421133"><ele>149.5</ele><time>2026-04-25T13:29:28.531Z</time></trkpt><trkpt lat="43.844135" lon="12.642185"><ele>153.0</ele><time>2026-04-25T13:29:29.532Z</time></trkpt><trkpt lat="43.8442467" lon="12.6422617"><ele>156.75</ele><time>2026-04-25T13:29:30.531Z</time></trkpt><trkpt lat="43.8443567" lon="12.642345"><ele>160.5</ele><time>2026-04-25T13:29:31.532Z</time></trkpt><trkpt lat="43.8444667" lon="12.6424333"><ele>164.25</ele><time>2026-04-25T13:29:32.533Z</time></trkpt><trkpt lat="43.8445783" lon="12.642505"><ele>168.0</ele><time>2026-04-25T13:29:33.536Z</time></trkpt><trkpt lat="43.84469" lon="12.6425717"><ele>168.0</ele><time>2026-04-25T13:29:34.532Z</time></trkpt><trkpt lat="43.8447967" lon="12.64262"><ele>168.0</ele><time>2026-04-25T13:29:35.532Z</time></trkpt><trkpt lat="43.84501" lon="12.6425983"><ele>168.0</ele><time>2026-04-25T13:29:37.532Z</time></trkpt><trkpt lat="43.845115" lon="12.64253"><ele>168.0</ele><time>2026-04-25T13:29:38.532Z</time></trkpt><trkpt lat="43.8452217" lon="12.642455"><ele>170.8</ele><time>2026-04-25T13:29:39.532Z</time></trkpt><trkpt lat="43.845325" lon="12.6424033"><ele>173.60000000000002</ele><time>2026-04-25T13:29:40.531Z</time></trkpt><trkpt lat="43.8454183" lon="12.6423933"><ele>176.39999999999998</ele><time>2026-04-25T13:29:41.532Z</time></trkpt><trkpt lat="43.8455017" lon="12.6424217"><ele>179.2</ele><time>2026-04-25T13:29:42.531Z</time></trkpt><trkpt lat="43.845565" lon="12.6424817"><ele>182.0</ele><time>2026-04-25T13:29:43.532Z</time></trkpt><trkpt lat="43.845605" lon="12.6425917"><ele>182.0</ele><time>2026-04-25T13:29:44.536Z</time></trkpt><trkpt lat="43.8456283" lon="12.6427283"><ele>182.0</ele><time>2026-04-25T13:29:45.534Z</time></trkpt><trkpt lat="43.8456667" lon="12.6428517"><ele>182.0</ele><time>2026-04-25T13:29:46.532Z</time></trkpt><trkpt lat="43.845725" lon="12.6429517"><ele>182.0</ele><time>2026-04-25T13:29:47.536Z</time></trkpt><trkpt lat="43.8457967" lon="12.6430233"><ele>182.0</ele><time>2026-04-25T13:29:48.533Z</time></trkpt><trkpt lat="43.845875" lon="12.6430617"><ele>182.39999999999998</ele><time>2026-04-25T13:29:49.533Z</time></trkpt><trkpt lat="43.8459583" lon="12.6430717"><ele>182.79999999999998</ele><time>2026-04-25T13:29:50.533Z</time></trkpt><trkpt lat="43.846055" lon="12.6430517"><ele>183.2</ele><time>2026-04-25T13:29:51.534Z</time></trkpt><trkpt lat="43.846165" lon="12.6429967"><ele>183.6</ele><time>2026-04-25T13:29:52.531Z</time></trkpt><trkpt lat="43.8462867" lon="12.6429367"><ele>184.0</ele><time>2026-04-25T13:29:53.535Z</time></trkpt><trkpt lat="43.846415" lon="12.6428717"><ele>188.0</ele><time>2026-04-25T13:29:54.536Z</time></trkpt><trkpt lat="43.8465517" lon="12.642805"><ele>192.0</ele><time>2026-04-25T13:29:55.536Z</time></trkpt><trkpt lat="43.84669" lon="12.6427433"><ele>196.0</ele><time>2026-04-25T13:29:56.536Z</time></trkpt><trkpt lat="43.84694" lon="12.6426383"><ele>200.4</ele><time>2026-04-25T13:29:58.532Z</time></trkpt><trkpt lat="43.8470333" lon="12.642615"><ele>204.8</ele><time>2026-04-25T13:29:59.531Z</time></trkpt><trkpt lat="43.847115" lon="12.6426133"><ele>209.20000000000002</ele><time>2026-04-25T13:30:00.532Z</time></trkpt><trkpt lat="43.8471917" lon="12.6427183"><ele>213.60000000000002</ele><time>2026-04-25T13:30:02.53Z</time></trkpt><trkpt lat="43.8472267" lon="12.6429067"><ele>218.0</ele><time>2026-04-25T13:30:04.53Z</time></trkpt><trkpt lat="43.8472533" lon="12.6430133"><ele>218.33333333333334</ele><time>2026-04-25T13:30:05.534Z</time></trkpt><trkpt lat="43.8473" lon="12.6431117"><ele>218.66666666666669</ele><time>2026-04-25T13:30:06.534Z</time></trkpt><trkpt lat="43.8473583" lon="12.6432017"><ele>219.0</ele><time>2026-04-25T13:30:07.532Z</time></trkpt><trkpt lat="43.8474233" lon="12.643265"><ele>219.33333333333331</ele><time>2026-04-25T13:30:08.53Z</time></trkpt><trkpt lat="43.84751" lon="12.6433033"><ele>219.66666666666666</ele><time>2026-04-25T13:30:09.531Z</time></trkpt><trkpt lat="43.8476133" lon="12.6433167"><ele>220.0</ele><time>2026-04-25T13:30:10.532Z</time></trkpt><trkpt lat="43.847715" lon="12.6433133"><ele>221.2</ele><time>2026-04-25T13:30:11.534Z</time></trkpt><trkpt lat="43.8477883" lon="12.64325"><ele>222.4</ele><time>2026-04-25T13:30:12.534Z</time></trkpt><trkpt lat="43.84786" lon="12.6431733"><ele>223.60000000000002</ele><time>2026-04-25T13:30:13.531Z</time></trkpt><trkpt lat="43.84791" lon="12.64306"><ele>224.8</ele><time>2026-04-25T13:30:14.53Z</time></trkpt><trkpt lat="43.847935" lon="12.6429267"><ele>226.0</ele><time>2026-04-25T13:30:15.534Z</time></trkpt><trkpt lat="43.84794" lon="12.6427867"><ele>227.20000000000002</ele><time>2026-04-25T13:30:16.536Z</time></trkpt><trkpt lat="43.8479383" lon="12.6426617"><ele>228.40000000000003</ele><time>2026-04-25T13:30:17.531Z</time></trkpt><trkpt lat="43.8479617" lon="12.6424267"><ele>229.6</ele><time>2026-04-25T13:30:19.531Z</time></trkpt><trkpt lat="43.848005" lon="12.6423267"><ele>230.8</ele><time>2026-04-25T13:30:20.53Z</time></trkpt><trkpt lat="43.848065" lon="12.64224"><ele>232.0</ele><time>2026-04-25T13:30:21.531Z</time></trkpt><trkpt lat="43.848145" lon="12.6421767"><ele>232.0</ele><time>2026-04-25T13:30:22.532Z</time></trkpt><trkpt lat="43.84824" lon="12.6421433"><ele>232.0</ele><time>2026-04-25T13:30:23.531Z</time></trkpt><trkpt lat="43.8483533" lon="12.6421317"><ele>232.0</ele><time>2026-04-25T13:30:24.53Z</time></trkpt><trkpt lat="43.848455" lon="12.642115"><ele>232.0</ele><time>2026-04-25T13:30:25.535Z</time></trkpt><trkpt lat="43.84855" lon="12.642085"><ele>232.0</ele><time>2026-04-25T13:30:26.531Z</time></trkpt><trkpt lat="43.8486467" lon="12.6420433"><ele>232.25</ele><time>2026-04-25T13:30:27.532Z</time></trkpt><trkpt lat="43.8487383" lon="12.64198"><ele>232.5</ele><time>2026-04-25T13:30:28.538Z</time></trkpt><trkpt lat="43.8488317" lon="12.6419017"><ele>232.75</ele><time>2026-04-25T13:30:29.535Z</time></trkpt><trkpt lat="43.8489317" lon="12.6418133"><ele>233.0</ele><time>2026-04-25T13:30:30.531Z</time></trkpt><trkpt lat="43.8490317" lon="12.6417083"><ele>235.75</ele><time>2026-04-25T13:30:31.532Z</time></trkpt><trkpt lat="43.8491317" lon="12.64159"><ele>238.5</ele><time>2026-04-25T13:30:32.53Z</time></trkpt><trkpt lat="43.8492283" lon="12.6414567"><ele>241.25</ele><time>2026-04-25T13:30:33.535Z</time></trkpt><trkpt lat="43.849315" lon="12.64131"><ele>244.0</ele><time>2026-04-25T13:30:34.531Z</time></trkpt><trkpt lat="43.8494" lon="12.6411567"><ele>247.25</ele><time>2026-04-25T13:30:35.531Z</time></trkpt><trkpt lat="43.8494933" lon="12.6410117"><ele>250.5</ele><time>2026-04-25T13:30:36.534Z</time></trkpt><trkpt lat="43.8495883" lon="12.6408933"><ele>253.75</ele><time>2026-04-25T13:30:37.532Z</time></trkpt><trkpt lat="43.8496833" lon="12.6407933"><ele>257.0</ele><time>2026-04-25T13:30:38.53Z</time></trkpt><trkpt lat="43.849865" lon="12.6406583"><ele>257.0</ele><time>2026-04-25T13:30:40.533Z</time></trkpt><trkpt lat="43.8499483" lon="12.640615"><ele>257.0</ele><time>2026-04-25T13:30:41.531Z</time></trkpt><trkpt lat="43.8500283" lon="12.6405917"><ele>257.0</ele><time>2026-04-25T13:30:42.532Z</time></trkpt><trkpt lat="43.8501167" lon="12.64059"><ele>257.0</ele><time>2026-04-25T13:30:43.539Z</time></trkpt><trkpt lat="43.85021" lon="12.6406183"><ele>257.0</ele><time>2026-04-25T13:30:44.532Z</time></trkpt><trkpt lat="43.8503133" lon="12.6406683"><ele>258.75</ele><time>2026-04-25T13:30:45.534Z</time></trkpt><trkpt lat="43.8504417" lon="12.6407217"><ele>260.5</ele><time>2026-04-25T13:30:46.531Z</time></trkpt><trkpt lat="43.8505667" lon="12.6407633"><ele>262.25</ele><time>2026-04-25T13:30:47.534Z</time></trkpt><trkpt lat="43.850685" lon="12.6408"><ele>264.0</ele><time>2026-04-25T13:30:48.534Z</time></trkpt><trkpt lat="43.850785" lon="12.6408517"><ele>264.0</ele><time>2026-04-25T13:30:49.541Z</time></trkpt><trkpt lat="43.850865" lon="12.6409233"><ele>264.0</ele><time>2026-04-25T13:30:50.533Z</time></trkpt><trkpt lat="43.850905" lon="12.6410133"><ele>264.0</ele><time>2026-04-25T13:30:51.531Z</time></trkpt><trkpt lat="43.8509317" lon="12.6411333"><ele>264.0</ele><time>2026-04-25T13:30:52.532Z</time></trkpt><trkpt lat="43.85096" lon="12.641265"><ele>264.0</ele><time>2026-04-25T13:30:53.531Z</time></trkpt><trkpt lat="43.850995" lon="12.6414017"><ele>265.8</ele><time>2026-04-25T13:30:54.532Z</time></trkpt><trkpt lat="43.8510367" lon="12.6415317"><ele>267.59999999999997</ele><time>2026-04-25T13:30:55.536Z</time></trkpt><trkpt lat="43.8510883" lon="12.6416433"><ele>269.4</ele><time>2026-04-25T13:30:56.534Z</time></trkpt><trkpt lat="43.8511567" lon="12.6417383"><ele>271.2</ele><time>2026-04-25T13:30:57.533Z</time></trkpt><trkpt lat="43.85124" lon="12.641825"><ele>273.0</ele><time>2026-04-25T13:30:58.531Z</time></trkpt><trkpt lat="43.851335" lon="12.6419183"><ele>270.25</ele><time>2026-04-25T13:30:59.533Z</time></trkpt><trkpt lat="43.851515" lon="12.6421083"><ele>267.5</ele><time>2026-04-25T13:31:01.534Z</time></trkpt><trkpt lat="43.8515933" lon="12.642195"><ele>264.75</ele><time>2026-04-25T13:31:02.531Z</time></trkpt><trkpt lat="43.8516567" lon="12.64227"><ele>262.0</ele><time>2026-04-25T13:31:03.532Z</time></trkpt><trkpt lat="43.8517383" lon="12.6423717"><ele>263.0</ele><time>2026-04-25T13:31:05.533Z</time></trkpt><trkpt lat="43.8517933" lon="12.6424483"><ele>264.0</ele><time>2026-04-25T13:31:10.535Z</time></trkpt><trkpt lat="43.85187" lon="12.6424433"><ele>265.0</ele><time>2026-04-25T13:31:14.531Z</time></trkpt><trkpt lat="43.85197" lon="12.64245"><ele>266.0</ele><time>2026-04-25T13:31:16.534Z</time></trkpt><trkpt lat="43.8520883" lon="12.642455"><ele>267.0</ele><time>2026-04-25T13:31:18.531Z</time></trkpt><trkpt lat="43.85222" lon="12.642515"><ele>267.0</ele><time>2026-04-25T13:31:20.532Z</time></trkpt><trkpt lat="43.852355" lon="12.6426417"><ele>267.0</ele><time>2026-04-25T13:31:22.534Z</time></trkpt><trkpt lat="43.8524433" lon="12.6427633"><ele>267.0</ele><time>2026-04-25T13:31:24.531Z</time></trkpt><trkpt lat="43.852505" lon="12.64285"><ele>267.0</ele><time>2026-04-25T13:31:25.531Z</time></trkpt><trkpt lat="43.8525617" lon="12.64294"><ele>266.0</ele><time>2026-04-25T13:31:26.531Z</time></trkpt><trkpt lat="43.8526133" lon="12.64305"><ele>265.0</ele><time>2026-04-25T13:31:27.531Z</time></trkpt><trkpt lat="43.8526617" lon="12.6431683"><ele>264.0</ele><time>2026-04-25T13:31:28.532Z</time></trkpt><trkpt lat="43.8527117" lon="12.6432833"><ele>263.0</ele><time>2026-04-25T13:31:29.532Z</time></trkpt><trkpt lat="43.852775" lon="12.643395"><ele>262.0</ele><time>2026-04-25T13:31:30.531Z</time></trkpt><trkpt lat="43.852865" lon="12.6435"><ele>264.25</ele><time>2026-04-25T13:31:31.533Z</time></trkpt><trkpt lat="43.8529633" lon="12.6435967"><ele>266.5</ele><time>2026-04-25T13:31:32.534Z</time></trkpt><trkpt lat="43.8530767" lon="12.64369"><ele>268.75</ele><time>2026-04-25T13:31:33.531Z</time></trkpt><trkpt lat="43.8531917" lon="12.643775"><ele>271.0</ele><time>2026-04-25T13:31:34.531Z</time></trkpt><trkpt lat="43.8532967" lon="12.6438467"><ele>271.0</ele><time>2026-04-25T13:31:35.532Z</time></trkpt><trkpt lat="43.8533967" lon="12.6438967"><ele>271.0</ele><time>2026-04-25T13:31:36.531Z</time></trkpt><trkpt lat="43.8535" lon="12.643925"><ele>271.0</ele><time>2026-04-25T13:31:37.531Z</time></trkpt><trkpt lat="43.8536117" lon="12.643925"><ele>271.0</ele><time>2026-04-25T13:31:38.531Z</time></trkpt><trkpt lat="43.8537283" lon="12.64391"><ele>271.0</ele><time>2026-04-25T13:31:39.531Z</time></trkpt><trkpt lat="43.853845" lon="12.6438933"><ele>274.75</ele><time>2026-04-25T13:31:40.534Z</time></trkpt><trkpt lat="43.85395" lon="12.6438817"><ele>278.5</ele><time>2026-04-25T13:31:41.531Z</time></trkpt><trkpt lat="43.8541383" lon="12.6439267"><ele>282.25</ele><time>2026-04-25T13:31:43.533Z</time></trkpt><trkpt lat="43.8542283" lon="12.643985"><ele>286.0</ele><time>2026-04-25T13:31:44.531Z</time></trkpt><trkpt lat="43.8543117" lon="12.6440733"><ele>292.75</ele><time>2026-04-25T13:31:45.531Z</time></trkpt><trkpt lat="43.854405" lon="12.64417"><ele>299.5</ele><time>2026-04-25T13:31:46.532Z</time></trkpt><trkpt lat="43.85451" lon="12.6442683"><ele>306.25</ele><time>2026-04-25T13:31:47.535Z</time></trkpt><trkpt lat="43.8546233" lon="12.6443617"><ele>313.0</ele><time>2026-04-25T13:31:48.532Z</time></trkpt><trkpt lat="43.8547467" lon="12.6444567"><ele>314.75</ele><time>2026-04-25T13:31:49.534Z</time></trkpt><trkpt lat="43.8548717" lon="12.6445567"><ele>316.5</ele><time>2026-04-25T13:31:50.532Z</time></trkpt><trkpt lat="43.854995" lon="12.6446533"><ele>318.25</ele><time>2026-04-25T13:31:51.533Z</time></trkpt><trkpt lat="43.85511" lon="12.6447517"><ele>320.0</ele><time>2026-04-25T13:31:52.531Z</time></trkpt><trkpt lat="43.8552267" lon="12.644845"><ele>320.0</ele><time>2026-04-25T13:31:53.532Z</time></trkpt><trkpt lat="43.8553283" lon="12.6449333"><ele>320.0</ele><time>2026-04-25T13:31:54.534Z</time></trkpt><trkpt lat="43.855435" lon="12.6449933"><ele>320.0</ele><time>2026-04-25T13:31:55.531Z</time></trkpt><trkpt lat="43.8555367" lon="12.645075"><ele>320.0</ele><time>2026-04-25T13:31:56.533Z</time></trkpt><trkpt lat="43.8556267" lon="12.64517"><ele>320.0</ele><time>2026-04-25T13:31:57.531Z</time></trkpt><trkpt lat="43.8557" lon="12.6452933"><ele>320.0</ele><time>2026-04-25T13:31:58.531Z</time></trkpt><trkpt lat="43.85574" lon="12.6454417"><ele>320.0</ele><time>2026-04-25T13:31:59.535Z</time></trkpt><trkpt lat="43.85574" lon="12.64562"><ele>320.0</ele><time>2026-04-25T13:32:00.531Z</time></trkpt><trkpt lat="43.85571" lon="12.645795"><ele>319.33333333333337</ele><time>2026-04-25T13:32:01.531Z</time></trkpt><trkpt lat="43.8556467" lon="12.64596"><ele>318.6666666666667</ele><time>2026-04-25T13:32:02.532Z</time></trkpt><trkpt lat="43.8554783" lon="12.6462717"><ele>318.0</ele><time>2026-04-25T13:32:04.531Z</time></trkpt><trkpt lat="43.8554167" lon="12.64642"><ele>321.25</ele><time>2026-04-25T13:32:05.533Z</time></trkpt><trkpt lat="43.855375" lon="12.646565"><ele>324.5</ele><time>2026-04-25T13:32:06.532Z</time></trkpt><trkpt lat="43.8553483" lon="12.6467167"><ele>327.75</ele><time>2026-04-25T13:32:07.532Z</time></trkpt><trkpt lat="43.8553433" lon="12.6468917"><ele>331.0</ele><time>2026-04-25T13:32:08.532Z</time></trkpt><trkpt lat="43.8553467" lon="12.6470767"><ele>332.25</ele><time>2026-04-25T13:32:09.532Z</time></trkpt><trkpt lat="43.8553433" lon="12.6472667"><ele>333.5</ele><time>2026-04-25T13:32:10.532Z</time></trkpt><trkpt lat="43.8553183" lon="12.6474483"><ele>334.75</ele><time>2026-04-25T13:32:11.531Z</time></trkpt><trkpt lat="43.855265" lon="12.6476183"><ele>336.0</ele><time>2026-04-25T13:32:12.535Z</time></trkpt><trkpt lat="43.8551933" lon="12.64777"><ele>336.0</ele><time>2026-04-25T13:32:13.531Z</time></trkpt><trkpt lat="43.8551017" lon="12.6479133"><ele>336.0</ele><time>2026-04-25T13:32:14.532Z</time></trkpt><trkpt lat="43.854995" lon="12.6480317"><ele>336.0</ele><time>2026-04-25T13:32:15.531Z</time></trkpt><trkpt lat="43.854885" lon="12.6481267"><ele>336.0</ele><time>2026-04-25T13:32:16.531Z</time></trkpt><trkpt lat="43.854775" lon="12.648205"><ele>336.0</ele><time>2026-04-25T13:32:17.533Z</time></trkpt><trkpt lat="43.8546833" lon="12.6482817"><ele>336.0</ele><time>2026-04-25T13:32:18.531Z</time></trkpt><trkpt lat="43.8546183" lon="12.6483567"><ele>336.0</ele><time>2026-04-25T13:32:19.534Z</time></trkpt><trkpt lat="43.854585" lon="12.64845"><ele>336.0</ele><time>2026-04-25T13:32:20.535Z</time></trkpt><trkpt lat="43.854585" lon="12.6485467"><ele>336.0</ele><time>2026-04-25T13:32:21.531Z</time></trkpt><trkpt lat="43.85458" lon="12.6486467"><ele>336.0</ele><time>2026-04-25T13:32:22.534Z</time></trkpt><trkpt lat="43.854635" lon="12.6487483"><ele>338.0</ele><time>2026-04-25T13:32:23.531Z</time></trkpt><trkpt lat="43.8548767" lon="12.6490133"><ele>340.0</ele><time>2026-04-25T13:32:25.532Z</time></trkpt><trkpt lat="43.8549817" lon="12.649155"><ele>340.0</ele><time>2026-04-25T13:32:26.531Z</time></trkpt><trkpt lat="43.8550767" lon="12.6493033"><ele>340.0</ele><time>2026-04-25T13:32:27.532Z</time></trkpt><trkpt lat="43.8551533" lon="12.6494733"><ele>340.0</ele><time>2026-04-25T13:32:28.534Z</time></trkpt><trkpt lat="43.85521" lon="12.64966"><ele>340.0</ele><time>2026-04-25T13:32:29.531Z</time></trkpt><trkpt lat="43.855255" lon="12.6498683"><ele>347.0</ele><time>2026-04-25T13:32:30.626Z</time></trkpt><trkpt lat="43.855305" lon="12.6500867"><ele>354.0</ele><time>2026-04-25T13:32:31.535Z</time></trkpt><trkpt lat="43.8553617" lon="12.650315"><ele>361.0</ele><time>2026-04-25T13:32:32.531Z</time></trkpt><trkpt lat="43.85541" lon="12.650545"><ele>361.0</ele><time>2026-04-25T13:32:33.531Z</time></trkpt><trkpt lat="43.8554517" lon="12.6507767"><ele>361.0</ele><time>2026-04-25T13:32:34.533Z</time></trkpt><trkpt lat="43.85549" lon="12.6509933"><ele>361.0</ele><time>2026-04-25T13:32:35.532Z</time></trkpt><trkpt lat="43.8555267" lon="12.6512"><ele>361.25</ele><time>2026-04-25T13:32:36.532Z</time></trkpt><trkpt lat="43.8555617" lon="12.6513883"><ele>361.5</ele><time>2026-04-25T13:32:37.537Z</time></trkpt><trkpt lat="43.8555817" lon="12.651555"><ele>361.75</ele><time>2026-04-25T13:32:38.533Z</time></trkpt><trkpt lat="43.855595" lon="12.6517017"><ele>362.0</ele><time>2026-04-25T13:32:39.531Z</time></trkpt><trkpt lat="43.8555983" lon="12.651825"><ele>362.0</ele><time>2026-04-25T13:32:40.531Z</time></trkpt><trkpt lat="43.855595" lon="12.6519333"><ele>362.0</ele><time>2026-04-25T13:32:41.533Z</time></trkpt><trkpt lat="43.8555917" lon="12.65203"><ele>362.0</ele><time>2026-04-25T13:32:42.534Z</time></trkpt><trkpt lat="43.8555917" lon="12.65212"><ele>362.0</ele><time>2026-04-25T13:32:43.534Z</time></trkpt><trkpt lat="43.8555967" lon="12.65222"><ele>362.0</ele><time>2026-04-25T13:32:44.532Z</time></trkpt><trkpt lat="43.8555983" lon="12.6524817"><ele>362.0</ele><time>2026-04-25T13:32:46.533Z</time></trkpt><trkpt lat="43.8555867" lon="12.6526533"><ele>362.0</ele><time>2026-04-25T13:32:47.532Z</time></trkpt><trkpt lat="43.8555767" lon="12.6528317"><ele>362.0</ele><time>2026-04-25T13:32:48.532Z</time></trkpt><trkpt lat="43.8555667" lon="12.6530117"><ele>362.0</ele><time>2026-04-25T13:32:49.535Z</time></trkpt><trkpt lat="43.8555617" lon="12.65319"><ele>363.25</ele><time>2026-04-25T13:32:50.532Z</time></trkpt><trkpt lat="43.8555583" lon="12.653375"><ele>364.5</ele><time>2026-04-25T13:32:51.531Z</time></trkpt><trkpt lat="43.8555583" lon="12.6535667"><ele>365.75</ele><time>2026-04-25T13:32:52.532Z</time></trkpt><trkpt lat="43.8555717" lon="12.6537633"><ele>367.0</ele><time>2026-04-25T13:32:53.535Z</time></trkpt><trkpt lat="43.85561" lon="12.65396"><ele>370.0</ele><time>2026-04-25T13:32:54.534Z</time></trkpt><trkpt lat="43.8556783" lon="12.6541433"><ele>373.0</ele><time>2026-04-25T13:32:55.535Z</time></trkpt><trkpt lat="43.8557667" lon="12.6543133"><ele>376.0</ele><time>2026-04-25T13:32:56.534Z</time></trkpt><trkpt lat="43.8558683" lon="12.6544667"><ele>376.5</ele><time>2026-04-25T13:32:57.532Z</time></trkpt><trkpt lat="43.8559783" lon="12.6545967"><ele>377.0</ele><time>2026-04-25T13:32:58.531Z</time></trkpt><trkpt lat="43.856105" lon="12.6546983"><ele>377.5</ele><time>2026-04-25T13:32:59.532Z</time></trkpt><trkpt lat="43.8562383" lon="12.6547817"><ele>378.0</ele><time>2026-04-25T13:33:00.532Z</time></trkpt><trkpt lat="43.8563733" lon="12.6548517"><ele>378.0</ele><time>2026-04-25T13:33:01.532Z</time></trkpt><trkpt lat="43.8564883" lon="12.6549233"><ele>378.0</ele><time>2026-04-25T13:33:02.532Z</time></trkpt><trkpt lat="43.8565883" lon="12.655005"><ele>378.0</ele><time>2026-04-25T13:33:03.532Z</time></trkpt><trkpt lat="43.8566683" lon="12.65511"><ele>378.0</ele><time>2026-04-25T13:33:04.532Z</time></trkpt><trkpt lat="43.8567233" lon="12.6552283"><ele>381.33333333333337</ele><time>2026-04-25T13:33:05.532Z</time></trkpt><trkpt lat="43.856745" lon="12.655575"><ele>384.6666666666667</ele><time>2026-04-25T13:33:07.533Z</time></trkpt><trkpt lat="43.8567433" lon="12.65578"><ele>388.0</ele><time>2026-04-25T13:33:08.533Z</time></trkpt><trkpt lat="43.85675" lon="12.6559817"><ele>389.75</ele><time>2026-04-25T13:33:09.532Z</time></trkpt><trkpt lat="43.8567817" lon="12.6561633"><ele>391.5</ele><time>2026-04-25T13:33:10.534Z</time></trkpt><trkpt lat="43.85684" lon="12.6563133"><ele>393.25</ele><time>2026-04-25T13:33:11.535Z</time></trkpt><trkpt lat="43.8569217" lon="12.6564333"><ele>395.0</ele><time>2026-04-25T13:33:12.534Z</time></trkpt><trkpt lat="43.857015" lon="12.6565267"><ele>391.2</ele><time>2026-04-25T13:33:13.533Z</time></trkpt><trkpt lat="43.85712" lon="12.6566033"><ele>387.4</ele><time>2026-04-25T13:33:14.534Z</time></trkpt><trkpt lat="43.8572133" lon="12.6566867"><ele>383.6</ele><time>2026-04-25T13:33:15.534Z</time></trkpt><trkpt lat="43.85729" lon="12.65679"><ele>379.8</ele><time>2026-04-25T13:33:16.531Z</time></trkpt><trkpt lat="43.8573217" lon="12.65691"><ele>376.0</ele><time>2026-04-25T13:33:17.532Z</time></trkpt><trkpt lat="43.857305" lon="12.65705"><ele>376.0</ele><time>2026-04-25T13:33:18.534Z</time></trkpt><trkpt lat="43.8572467" lon="12.6572067"><ele>376.0</ele><time>2026-04-25T13:33:19.531Z</time></trkpt><trkpt lat="43.8571833" lon="12.6573633"><ele>376.0</ele><time>2026-04-25T13:33:20.531Z</time></trkpt><trkpt lat="43.85713" lon="12.6575133"><ele>376.0</ele><time>2026-04-25T13:33:21.531Z</time></trkpt><trkpt lat="43.8570983" lon="12.6576633"><ele>377.75</ele><time>2026-04-25T13:33:22.532Z</time></trkpt><trkpt lat="43.8570967" lon="12.65781"><ele>379.5</ele><time>2026-04-25T13:33:23.531Z</time></trkpt><trkpt lat="43.8571383" lon="12.6579533"><ele>381.25</ele><time>2026-04-25T13:33:24.534Z</time></trkpt><trkpt lat="43.8572167" lon="12.6580967"><ele>383.0</ele><time>2026-04-25T13:33:25.534Z</time></trkpt><trkpt lat="43.8573167" lon="12.6582383"><ele>383.0</ele><time>2026-04-25T13:33:26.531Z</time></trkpt><trkpt lat="43.8575133" lon="12.6584983"><ele>383.0</ele><time>2026-04-25T13:33:28.534Z</time></trkpt><trkpt lat="43.8575933" lon="12.6586367"><ele>383.0</ele><time>2026-04-25T13:33:29.531Z</time></trkpt><trkpt lat="43.857665" lon="12.658785"><ele>377.0</ele><time>2026-04-25T13:33:30.531Z</time></trkpt><trkpt lat="43.8577167" lon="12.6589433"><ele>371.0</ele><time>2026-04-25T13:33:31.532Z</time></trkpt><trkpt lat="43.85773" lon="12.659125"><ele>365.0</ele><time>2026-04-25T13:33:32.531Z</time></trkpt><trkpt lat="43.8577067" lon="12.65931"><ele>359.0</ele><time>2026-04-25T13:33:33.534Z</time></trkpt><trkpt lat="43.85766" lon="12.6595"><ele>365.33333333333337</ele><time>2026-04-25T13:33:34.532Z</time></trkpt><trkpt lat="43.8575933" lon="12.65969"><ele>371.6666666666667</ele><time>2026-04-25T13:33:35.532Z</time></trkpt><trkpt lat="43.8575133" lon="12.659875"><ele>378.0</ele><time>2026-04-25T13:33:36.532Z</time></trkpt><trkpt lat="43.857425" lon="12.66006"><ele>378.0</ele><time>2026-04-25T13:33:37.531Z</time></trkpt><trkpt lat="43.8573383" lon="12.6602467"><ele>378.0</ele><time>2026-04-25T13:33:38.531Z</time></trkpt><trkpt lat="43.857255" lon="12.6604333"><ele>378.0</ele><time>2026-04-25T13:33:39.531Z</time></trkpt><trkpt lat="43.85718" lon="12.6606333"><ele>377.3333333333333</ele><time>2026-04-25T13:33:40.531Z</time></trkpt><trkpt lat="43.8571317" lon="12.6608583"><ele>376.66666666666663</ele><time>2026-04-25T13:33:41.531Z</time></trkpt><trkpt lat="43.857095" lon="12.6610933"><ele>376.0</ele><time>2026-04-25T13:33:42.53Z</time></trkpt><trkpt lat="43.8570667" lon="12.6613283"><ele>379.66666666666663</ele><time>2026-04-25T13:33:43.531Z</time></trkpt><trkpt lat="43.8570433" lon="12.6615667"><ele>383.3333333333333</ele><time>2026-04-25T13:33:44.531Z</time></trkpt><trkpt lat="43.857015" lon="12.661795"><ele>387.0</ele><time>2026-04-25T13:33:45.531Z</time></trkpt><trkpt lat="43.856985" lon="12.66201"><ele>388.66666666666663</ele><time>2026-04-25T13:33:46.532Z</time></trkpt><trkpt lat="43.8569583" lon="12.66221"><ele>390.3333333333333</ele><time>2026-04-25T13:33:47.532Z</time></trkpt><trkpt lat="43.8569483" lon="12.6626017"><ele>392.0</ele><time>2026-04-25T13:33:49.533Z</time></trkpt><trkpt lat="43.8569767" lon="12.6628033"><ele>392.3333333333333</ele><time>2026-04-25T13:33:50.531Z</time></trkpt><trkpt lat="43.8570233" lon="12.6630133"><ele>392.66666666666663</ele><time>2026-04-25T13:33:51.53Z</time></trkpt><trkpt lat="43.8570767" lon="12.6632217"><ele>393.0</ele><time>2026-04-25T13:33:52.531Z</time></trkpt><trkpt lat="43.85713" lon="12.6634233"><ele>390.66666666666663</ele><time>2026-04-25T13:33:53.533Z</time></trkpt><trkpt lat="43.857185" lon="12.6636233"><ele>388.3333333333333</ele><time>2026-04-25T13:33:54.531Z</time></trkpt><trkpt lat="43.8572417" lon="12.6638233"><ele>386.0</ele><time>2026-04-25T13:33:55.532Z</time></trkpt><trkpt lat="43.8572983" lon="12.6640267"><ele>386.0</ele><time>2026-04-25T13:33:56.531Z</time></trkpt><trkpt lat="43.8573517" lon="12.6642233"><ele>386.0</ele><time>2026-04-25T13:33:57.53Z</time></trkpt><trkpt lat="43.8574067" lon="12.6644183"><ele>386.0</ele><time>2026-04-25T13:33:58.532Z</time></trkpt><trkpt lat="43.8574583" lon="12.6646"><ele>386.0</ele><time>2026-04-25T13:33:59.531Z</time></trkpt><trkpt lat="43.8574883" lon="12.664775"><ele>386.0</ele><time>2026-04-25T13:34:00.53Z</time></trkpt><trkpt lat="43.8574983" lon="12.6649383"><ele>386.0</ele><time>2026-04-25T13:34:01.533Z</time></trkpt><trkpt lat="43.8574833" lon="12.66509"><ele>386.0</ele><time>2026-04-25T13:34:02.532Z</time></trkpt><trkpt lat="43.8574333" lon="12.6652283"><ele>386.0</ele><time>2026-04-25T13:34:03.53Z</time></trkpt><trkpt lat="43.857355" lon="12.66533"><ele>386.0</ele><time>2026-04-25T13:34:04.531Z</time></trkpt><trkpt lat="43.8572467" lon="12.6653917"><ele>385.5</ele><time>2026-04-25T13:34:05.532Z</time></trkpt><trkpt lat="43.8571217" lon="12.66542"><ele>385.0</ele><time>2026-04-25T13:34:06.532Z</time></trkpt><trkpt lat="43.8570083" lon="12.6654433"><ele>384.5</ele><time>2026-04-25T13:34:07.534Z</time></trkpt><trkpt lat="43.856905" lon="12.6654667"><ele>384.0</ele><time>2026-04-25T13:34:08.533Z</time></trkpt><trkpt lat="43.8567083" lon="12.6655167"><ele>384.0</ele><time>2026-04-25T13:34:10.534Z</time></trkpt><trkpt lat="43.8566267" lon="12.6655533"><ele>384.0</ele><time>2026-04-25T13:34:11.532Z</time></trkpt><trkpt lat="43.85656" lon="12.665615"><ele>384.0</ele><time>2026-04-25T13:34:12.533Z</time></trkpt><trkpt lat="43.8565" lon="12.665685"><ele>384.0</ele><time>2026-04-25T13:34:13.532Z</time></trkpt><trkpt lat="43.856455" lon="12.665775"><ele>384.0</ele><time>2026-04-25T13:34:14.534Z</time></trkpt><trkpt lat="43.8564167" lon="12.66587"><ele>384.0</ele><time>2026-04-25T13:34:15.53Z</time></trkpt><trkpt lat="43.8563867" lon="12.6659767"><ele>384.0</ele><time>2026-04-25T13:34:16.531Z</time></trkpt><trkpt lat="43.85637" lon="12.66609"><ele>384.0</ele><time>2026-04-25T13:34:17.532Z</time></trkpt><trkpt lat="43.856365" lon="12.6661983"><ele>384.0</ele><time>2026-04-25T13:34:18.531Z</time></trkpt><trkpt lat="43.8563767" lon="12.6663083"><ele>384.0</ele><time>2026-04-25T13:34:19.532Z</time></trkpt><trkpt lat="43.8564117" lon="12.666425"><ele>384.0</ele><time>2026-04-25T13:34:20.534Z</time></trkpt><trkpt lat="43.856455" lon="12.6665333"><ele>384.0</ele><time>2026-04-25T13:34:21.534Z</time></trkpt><trkpt lat="43.8564933" lon="12.666635"><ele>384.0</ele><time>2026-04-25T13:34:22.536Z</time></trkpt><trkpt lat="43.8565333" lon="12.66673"><ele>384.0</ele><time>2026-04-25T13:34:23.534Z</time></trkpt><trkpt lat="43.856575" lon="12.6668217"><ele>384.0</ele><time>2026-04-25T13:34:24.536Z</time></trkpt><trkpt lat="43.8566183" lon="12.6669183"><ele>384.0</ele><time>2026-04-25T13:34:25.532Z</time></trkpt><trkpt lat="43.8566583" lon="12.667015"><ele>384.0</ele><time>2026-04-25T13:34:26.535Z</time></trkpt><trkpt lat="43.8567" lon="12.667115"><ele>384.0</ele><time>2026-04-25T13:34:27.532Z</time></trkpt><trkpt lat="43.8567433" lon="12.667225"><ele>384.6</ele><time>2026-04-25T13:34:28.534Z</time></trkpt><trkpt lat="43.8567867" lon="12.6673367"><ele>385.2</ele><time>2026-04-25T13:34:29.53Z</time></trkpt><trkpt lat="43.8568683" lon="12.6675383"><ele>385.8</ele><time>2026-04-25T13:34:31.534Z</time></trkpt><trkpt lat="43.85691" lon="12.6676317"><ele>386.40000000000003</ele><time>2026-04-25T13:34:32.531Z</time></trkpt><trkpt lat="43.85696" lon="12.6677233"><ele>387.0</ele><time>2026-04-25T13:34:33.532Z</time></trkpt><trkpt lat="43.8570233" lon="12.6678133"><ele>385.8</ele><time>2026-04-25T13:34:34.534Z</time></trkpt><trkpt lat="43.8570967" lon="12.6678983"><ele>384.6</ele><time>2026-04-25T13:34:35.535Z</time></trkpt><trkpt lat="43.8571733" lon="12.667985"><ele>383.40000000000003</ele><time>2026-04-25T13:34:36.532Z</time></trkpt><trkpt lat="43.8572433" lon="12.6680783"><ele>382.20000000000005</ele><time>2026-04-25T13:34:37.535Z</time></trkpt><trkpt lat="43.857305" lon="12.6681817"><ele>381.0</ele><time>2026-04-25T13:34:38.535Z</time></trkpt><trkpt lat="43.8573567" lon="12.6682983"><ele>381.0</ele><time>2026-04-25T13:34:39.53Z</time></trkpt><trkpt lat="43.8574033" lon="12.66842"><ele>381.0</ele><time>2026-04-25T13:34:40.534Z</time></trkpt><trkpt lat="43.8574433" lon="12.6685433"><ele>381.0</ele><time>2026-04-25T13:34:41.531Z</time></trkpt><trkpt lat="43.8574767" lon="12.668675"><ele>381.0</ele><time>2026-04-25T13:34:42.536Z</time></trkpt><trkpt lat="43.857505" lon="12.6688017"><ele>381.0</ele><time>2026-04-25T13:34:43.531Z</time></trkpt><trkpt lat="43.85753" lon="12.6689317"><ele>380.6</ele><time>2026-04-25T13:34:44.531Z</time></trkpt><trkpt lat="43.857555" lon="12.6690533"><ele>380.20000000000005</ele><time>2026-04-25T13:34:45.53Z</time></trkpt><trkpt lat="43.8575783" lon="12.6691783"><ele>379.79999999999995</ele><time>2026-04-25T13:34:46.531Z</time></trkpt><trkpt lat="43.8576033" lon="12.6693033"><ele>379.4</ele><time>2026-04-25T13:34:47.533Z</time></trkpt><trkpt lat="43.8576317" lon="12.6694267"><ele>379.0</ele><time>2026-04-25T13:34:48.532Z</time></trkpt><trkpt lat="43.857655" lon="12.6695433"><ele>378.5</ele><time>2026-04-25T13:34:49.531Z</time></trkpt><trkpt lat="43.8576767" lon="12.6696567"><ele>378.0</ele><time>2026-04-25T13:34:50.532Z</time></trkpt><trkpt lat="43.85772" lon="12.6698583"><ele>377.5</ele><time>2026-04-25T13:34:52.531Z</time></trkpt><trkpt lat="43.8577417" lon="12.6699517"><ele>377.0</ele><time>2026-04-25T13:34:53.536Z</time></trkpt><trkpt lat="43.85776" lon="12.67004"><ele>376.5</ele><time>2026-04-25T13:34:54.533Z</time></trkpt><trkpt lat="43.857775" lon="12.6701283"><ele>376.0</ele><time>2026-04-25T13:34:55.534Z</time></trkpt><trkpt lat="43.857805" lon="12.67027"><ele>376.0</ele><time>2026-04-25T13:34:57.532Z</time></trkpt><trkpt lat="43.8578833" lon="12.6703133"><ele>376.0</ele><time>2026-04-25T13:35:00.532Z</time></trkpt><trkpt lat="43.8579367" lon="12.6702133"><ele>376.0</ele><time>2026-04-25T13:35:02.531Z</time></trkpt><trkpt lat="43.8579667" lon="12.6701317"><ele>376.0</ele><time>2026-04-25T13:35:03.532Z</time></trkpt><trkpt lat="43.8580067" lon="12.6700583"><ele>376.0</ele><time>2026-04-25T13:35:04.531Z</time></trkpt><trkpt lat="43.858105" lon="12.6699483"><ele>376.0</ele><time>2026-04-25T13:35:06.536Z</time></trkpt><trkpt lat="43.8581633" lon="12.6699017"><ele>376.0</ele><time>2026-04-25T13:35:07.532Z</time></trkpt><trkpt lat="43.8582367" lon="12.669855"><ele>376.0</ele><time>2026-04-25T13:35:08.532Z</time></trkpt><trkpt lat="43.8583133" lon="12.6698067"><ele>376.0</ele><time>2026-04-25T13:35:09.532Z</time></trkpt><trkpt lat="43.8583867" lon="12.6697617"><ele>376.0</ele><time>2026-04-25T13:35:10.532Z</time></trkpt><trkpt lat="43.8584583" lon="12.6697217"><ele>376.0</ele><time>2026-04-25T13:35:11.533Z</time></trkpt><trkpt lat="43.8586033" lon="12.6696333"><ele>372.16666666666663</ele><time>2026-04-25T13:35:13.531Z</time></trkpt><trkpt lat="43.858675" lon="12.6695817"><ele>368.3333333333333</ele><time>2026-04-25T13:35:14.535Z</time></trkpt><trkpt lat="43.8587383" lon="12.6695117"><ele>364.5</ele><time>2026-04-25T13:35:15.53Z</time></trkpt><trkpt lat="43.8587867" lon="12.6694167"><ele>360.6666666666667</ele><time>2026-04-25T13:35:16.53Z</time></trkpt><trkpt lat="43.8588183" lon="12.669295"><ele>356.83333333333337</ele><time>2026-04-25T13:35:17.531Z</time></trkpt><trkpt lat="43.85881" lon="12.6691433"><ele>353.0</ele><time>2026-04-25T13:35:18.531Z</time></trkpt><trkpt lat="43.8587867" lon="12.668995"><ele>353.0</ele><time>2026-04-25T13:35:19.532Z</time></trkpt><trkpt lat="43.8587417" lon="12.6688433"><ele>353.0</ele><time>2026-04-25T13:35:20.531Z</time></trkpt><trkpt lat="43.858675" lon="12.6686717"><ele>353.0</ele><time>2026-04-25T13:35:21.533Z</time></trkpt><trkpt lat="43.8585883" lon="12.6684833"><ele>353.0</ele><time>2026-04-25T13:35:22.531Z</time></trkpt><trkpt lat="43.8584983" lon="12.6682983"><ele>358.5</ele><time>2026-04-25T13:35:23.532Z</time></trkpt><trkpt lat="43.858425" lon="12.6681167"><ele>364.0</ele><time>2026-04-25T13:35:24.534Z</time></trkpt><trkpt lat="43.858385" lon="12.6679367"><ele>369.5</ele><time>2026-04-25T13:35:25.534Z</time></trkpt><trkpt lat="43.8583833" lon="12.66776"><ele>375.0</ele><time>2026-04-25T13:35:26.533Z</time></trkpt><trkpt lat="43.85842" lon="12.6675733"><ele>369.75</ele><time>2026-04-25T13:35:27.53Z</time></trkpt><trkpt lat="43.858475" lon="12.667385"><ele>364.5</ele><time>2026-04-25T13:35:28.531Z</time></trkpt><trkpt lat="43.8585383" lon="12.6672017"><ele>359.25</ele><time>2026-04-25T13:35:29.531Z</time></trkpt><trkpt lat="43.8586167" lon="12.6670217"><ele>354.0</ele><time>2026-04-25T13:35:30.531Z</time></trkpt><trkpt lat="43.8586983" lon="12.6668467"><ele>354.0</ele><time>2026-04-25T13:35:31.532Z</time></trkpt><trkpt lat="43.85878" lon="12.6666733"><ele>354.0</ele><time>2026-04-25T13:35:32.531Z</time></trkpt><trkpt lat="43.8589633" lon="12.6663817"><ele>354.0</ele><time>2026-04-25T13:35:34.532Z</time></trkpt><trkpt lat="43.85908" lon="12.6662867"><ele>354.0</ele><time>2026-04-25T13:35:35.532Z</time></trkpt><trkpt lat="43.8592133" lon="12.6662383"><ele>354.0</ele><time>2026-04-25T13:35:36.532Z</time></trkpt><trkpt lat="43.8593683" lon="12.6662217"><ele>354.0</ele><time>2026-04-25T13:35:37.534Z</time></trkpt><trkpt lat="43.859535" lon="12.6662283"><ele>350.3333333333333</ele><time>2026-04-25T13:35:38.534Z</time></trkpt><trkpt lat="43.8597067" lon="12.66626"><ele>346.66666666666663</ele><time>2026-04-25T13:35:39.534Z</time></trkpt><trkpt lat="43.8598833" lon="12.6663033"><ele>343.0</ele><time>2026-04-25T13:35:40.532Z</time></trkpt><trkpt lat="43.8600633" lon="12.6663583"><ele>341.3333333333333</ele><time>2026-04-25T13:35:41.535Z</time></trkpt><trkpt lat="43.8602483" lon="12.6664017"><ele>339.6666666666667</ele><time>2026-04-25T13:35:42.531Z</time></trkpt><trkpt lat="43.8604367" lon="12.6664333"><ele>338.0</ele><time>2026-04-25T13:35:43.532Z</time></trkpt><trkpt lat="43.8606283" lon="12.6664583"><ele>338.0</ele><time>2026-04-25T13:35:44.532Z</time></trkpt><trkpt lat="43.86081" lon="12.6664617"><ele>338.0</ele><time>2026-04-25T13:35:45.535Z</time></trkpt><trkpt lat="43.86099" lon="12.6664633"><ele>338.0</ele><time>2026-04-25T13:35:46.533Z</time></trkpt><trkpt lat="43.8611683" lon="12.6664767"><ele>336.6666666666667</ele><time>2026-04-25T13:35:47.534Z</time></trkpt><trkpt lat="43.861345" lon="12.6665067"><ele>335.3333333333333</ele><time>2026-04-25T13:35:48.531Z</time></trkpt><trkpt lat="43.8615267" lon="12.6665433"><ele>334.0</ele><time>2026-04-25T13:35:49.532Z</time></trkpt><trkpt lat="43.8617067" lon="12.6665867"><ele>333.66666666666663</ele><time>2026-04-25T13:35:50.531Z</time></trkpt><trkpt lat="43.86188" lon="12.6666317"><ele>333.3333333333333</ele><time>2026-04-25T13:35:51.532Z</time></trkpt><trkpt lat="43.8620533" lon="12.66667"><ele>333.0</ele><time>2026-04-25T13:35:52.531Z</time></trkpt><trkpt lat="43.8622233" lon="12.6667117"><ele>333.0</ele><time>2026-04-25T13:35:53.533Z</time></trkpt><trkpt lat="43.86257" lon="12.6667717"><ele>333.0</ele><time>2026-04-25T13:35:55.533Z</time></trkpt><trkpt lat="43.86274" lon="12.6667883"><ele>332.6666666666667</ele><time>2026-04-25T13:35:56.534Z</time></trkpt><trkpt lat="43.8629017" lon="12.6668067"><ele>332.33333333333337</ele><time>2026-04-25T13:35:57.531Z</time></trkpt><trkpt lat="43.8630633" lon="12.6668233"><ele>332.0</ele><time>2026-04-25T13:35:58.531Z</time></trkpt><trkpt lat="43.863225" lon="12.6668367"><ele>332.0</ele><time>2026-04-25T13:35:59.534Z</time></trkpt><trkpt lat="43.8633783" lon="12.6668533"><ele>332.0</ele><time>2026-04-25T13:36:00.534Z</time></trkpt><trkpt lat="43.8635217" lon="12.666875"><ele>332.0</ele><time>2026-04-25T13:36:01.533Z</time></trkpt><trkpt lat="43.8636683" lon="12.6669033"><ele>332.0</ele><time>2026-04-25T13:36:02.533Z</time></trkpt><trkpt lat="43.863805" lon="12.66693"><ele>329.6666666666667</ele><time>2026-04-25T13:36:03.531Z</time></trkpt><trkpt lat="43.863955" lon="12.6669467"><ele>327.3333333333333</ele><time>2026-04-25T13:36:04.532Z</time></trkpt><trkpt lat="43.86411" lon="12.666935"><ele>325.0</ele><time>2026-04-25T13:36:05.532Z</time></trkpt><trkpt lat="43.8642733" lon="12.6668983"><ele>322.3333333333333</ele><time>2026-04-25T13:36:06.532Z</time></trkpt><trkpt lat="43.8644433" lon="12.6668467"><ele>319.6666666666667</ele><time>2026-04-25T13:36:07.532Z</time></trkpt><trkpt lat="43.8646217" lon="12.6667883"><ele>317.0</ele><time>2026-04-25T13:36:08.531Z</time></trkpt><trkpt lat="43.8648067" lon="12.66674"><ele>317.0</ele><time>2026-04-25T13:36:09.531Z</time></trkpt><trkpt lat="43.86499" lon="12.6666883"><ele>317.0</ele><time>2026-04-25T13:36:10.532Z</time></trkpt><trkpt lat="43.865175" lon="12.6666317"><ele>317.0</ele><time>2026-04-25T13:36:11.531Z</time></trkpt><trkpt lat="43.865365" lon="12.6665733"><ele>313.33333333333337</ele><time>2026-04-25T13:36:12.532Z</time></trkpt><trkpt lat="43.865555" lon="12.6665117"><ele>309.6666666666667</ele><time>2026-04-25T13:36:13.532Z</time></trkpt><trkpt lat="43.865745" lon="12.6664483"><ele>306.0</ele><time>2026-04-25T13:36:14.532Z</time></trkpt><trkpt lat="43.86612" lon="12.66628"><ele>307.0</ele><time>2026-04-25T13:36:16.532Z</time></trkpt><trkpt lat="43.8663083" lon="12.666185"><ele>308.0</ele><time>2026-04-25T13:36:17.534Z</time></trkpt><trkpt lat="43.8664867" lon="12.66608"><ele>309.0</ele><time>2026-04-25T13:36:18.532Z</time></trkpt><trkpt lat="43.8666567" lon="12.665985"><ele>311.3333333333333</ele><time>2026-04-25T13:36:19.531Z</time></trkpt><trkpt lat="43.86682" lon="12.66589"><ele>313.66666666666663</ele><time>2026-04-25T13:36:20.533Z</time></trkpt><trkpt lat="43.8669883" lon="12.6658017"><ele>316.0</ele><time>2026-04-25T13:36:21.531Z</time></trkpt><trkpt lat="43.8671583" lon="12.6657217"><ele>316.0</ele><time>2026-04-25T13:36:22.532Z</time></trkpt><trkpt lat="43.8673183" lon="12.6656417"><ele>316.0</ele><time>2026-04-25T13:36:23.532Z</time></trkpt><trkpt lat="43.8674667" lon="12.6655433"><ele>316.0</ele><time>2026-04-25T13:36:24.535Z</time></trkpt><trkpt lat="43.8676" lon="12.6654133"><ele>319.3333333333333</ele><time>2026-04-25T13:36:25.534Z</time></trkpt><trkpt lat="43.8677033" lon="12.6652417"><ele>322.6666666666667</ele><time>2026-04-25T13:36:26.534Z</time></trkpt><trkpt lat="43.8677767" lon="12.6650517"><ele>326.0</ele><time>2026-04-25T13:36:27.535Z</time></trkpt><trkpt lat="43.8678367" lon="12.6648767"><ele>326.0</ele><time>2026-04-25T13:36:28.534Z</time></trkpt><trkpt lat="43.8679033" lon="12.6647317"><ele>326.0</ele><time>2026-04-25T13:36:29.532Z</time></trkpt><trkpt lat="43.8679867" lon="12.664625"><ele>326.0</ele><time>2026-04-25T13:36:30.531Z</time></trkpt><trkpt lat="43.8680867" lon="12.6645733"><ele>326.0</ele><time>2026-04-25T13:36:31.534Z</time></trkpt><trkpt lat="43.8681917" lon="12.6645833"><ele>326.0</ele><time>2026-04-25T13:36:32.533Z</time></trkpt><trkpt lat="43.8683033" lon="12.664655"><ele>326.0</ele><time>2026-04-25T13:36:33.531Z</time></trkpt><trkpt lat="43.8684217" lon="12.664775"><ele>326.0</ele><time>2026-04-25T13:36:34.531Z</time></trkpt><trkpt lat="43.8685283" lon="12.6648833"><ele>326.0</ele><time>2026-04-25T13:36:35.532Z</time></trkpt><trkpt lat="43.8687417" lon="12.6651067"><ele>324.5</ele><time>2026-04-25T13:36:37.532Z</time></trkpt><trkpt lat="43.86885" lon="12.665225"><ele>323.0</ele><time>2026-04-25T13:36:38.534Z</time></trkpt><trkpt lat="43.8689567" lon="12.66534"><ele>321.5</ele><time>2026-04-25T13:36:39.531Z</time></trkpt><trkpt lat="43.8690633" lon="12.66545"><ele>320.0</ele><time>2026-04-25T13:36:40.535Z</time></trkpt><trkpt lat="43.8691683" lon="12.6655583"><ele>323.5</ele><time>2026-04-25T13:36:41.532Z</time></trkpt><trkpt lat="43.86927" lon="12.66567"><ele>327.0</ele><time>2026-04-25T13:36:42.532Z</time></trkpt><trkpt lat="43.869365" lon="12.6657717"><ele>330.5</ele><time>2026-04-25T13:36:43.535Z</time></trkpt><trkpt lat="43.8694533" lon="12.6658767"><ele>334.0</ele><time>2026-04-25T13:36:44.534Z</time></trkpt><trkpt lat="43.869535" lon="12.665985"><ele>334.0</ele><time>2026-04-25T13:36:45.534Z</time></trkpt><trkpt lat="43.869605" lon="12.666105"><ele>334.0</ele><time>2026-04-25T13:36:46.535Z</time></trkpt><trkpt lat="43.8696633" lon="12.6662333"><ele>334.0</ele><time>2026-04-25T13:36:47.534Z</time></trkpt><trkpt lat="43.8697133" lon="12.66637"><ele>334.0</ele><time>2026-04-25T13:36:48.531Z</time></trkpt><trkpt lat="43.8697567" lon="12.6665083"><ele>334.0</ele><time>2026-04-25T13:36:49.532Z</time></trkpt><trkpt lat="43.8698033" lon="12.6666433"><ele>335.5</ele><time>2026-04-25T13:36:50.532Z</time></trkpt><trkpt lat="43.8698533" lon="12.6667717"><ele>337.0</ele><time>2026-04-25T13:36:51.531Z</time></trkpt><trkpt lat="43.86991" lon="12.6669"><ele>338.5</ele><time>2026-04-25T13:36:52.532Z</time></trkpt><trkpt lat="43.8699733" lon="12.6670367"><ele>340.0</ele><time>2026-04-25T13:36:53.533Z</time></trkpt><trkpt lat="43.8700383" lon="12.6671933"><ele>340.0</ele><time>2026-04-25T13:36:54.532Z</time></trkpt><trkpt lat="43.8701033" lon="12.6673633"><ele>340.0</ele><time>2026-04-25T13:36:55.532Z</time></trkpt><trkpt lat="43.87016" lon="12.667535"><ele>340.0</ele><time>2026-04-25T13:36:56.534Z</time></trkpt><trkpt lat="43.8702533" lon="12.6679033"><ele>339.5</ele><time>2026-04-25T13:36:58.536Z</time></trkpt><trkpt lat="43.8702933" lon="12.6680917"><ele>339.0</ele><time>2026-04-25T13:36:59.536Z</time></trkpt><trkpt lat="43.87033" lon="12.6682767"><ele>338.5</ele><time>2026-04-25T13:37:00.532Z</time></trkpt><trkpt lat="43.8703517" lon="12.6684533"><ele>338.0</ele><time>2026-04-25T13:37:01.534Z</time></trkpt><trkpt lat="43.870365" lon="12.668635"><ele>338.0</ele><time>2026-04-25T13:37:02.532Z</time></trkpt><trkpt lat="43.8703767" lon="12.6688133"><ele>338.0</ele><time>2026-04-25T13:37:03.532Z</time></trkpt><trkpt lat="43.870395" lon="12.66898"><ele>338.0</ele><time>2026-04-25T13:37:04.532Z</time></trkpt><trkpt lat="43.87043" lon="12.669125"><ele>338.0</ele><time>2026-04-25T13:37:05.536Z</time></trkpt><trkpt lat="43.870485" lon="12.6692467"><ele>338.0</ele><time>2026-04-25T13:37:06.532Z</time></trkpt><trkpt lat="43.870565" lon="12.669315"><ele>338.0</ele><time>2026-04-25T13:37:07.533Z</time></trkpt><trkpt lat="43.870665" lon="12.6693383"><ele>338.0</ele><time>2026-04-25T13:37:08.533Z</time></trkpt><trkpt lat="43.8707667" lon="12.669325"><ele>338.0</ele><time>2026-04-25T13:37:09.535Z</time></trkpt><trkpt lat="43.870855" lon="12.6692767"><ele>338.0</ele><time>2026-04-25T13:37:10.532Z</time></trkpt><trkpt lat="43.87093" lon="12.6692133"><ele>337.2</ele><time>2026-04-25T13:37:11.532Z</time></trkpt><trkpt lat="43.8710067" lon="12.6691383"><ele>336.4</ele><time>2026-04-25T13:37:12.534Z</time></trkpt><trkpt lat="43.8710933" lon="12.6690633"><ele>335.59999999999997</ele><time>2026-04-25T13:37:13.532Z</time></trkpt><trkpt lat="43.8711967" lon="12.6689967"><ele>334.79999999999995</ele><time>2026-04-25T13:37:14.532Z</time></trkpt><trkpt lat="43.8713017" lon="12.6689483"><ele>334.0</ele><time>2026-04-25T13:37:15.534Z</time></trkpt><trkpt lat="43.87141" lon="12.6689283"><ele>334.0</ele><time>2026-04-25T13:37:16.531Z</time></trkpt><trkpt lat="43.87152" lon="12.6689217"><ele>334.0</ele><time>2026-04-25T13:37:17.532Z</time></trkpt><trkpt lat="43.8717167" lon="12.668945"><ele>334.0</ele><time>2026-04-25T13:37:19.534Z</time></trkpt><trkpt lat="43.8718083" lon="12.6689517"><ele>334.0</ele><time>2026-04-25T13:37:20.532Z</time></trkpt><trkpt lat="43.8718933" lon="12.6689667"><ele>335.7142857142857</ele><time>2026-04-25T13:37:21.534Z</time></trkpt><trkpt lat="43.87197" lon="12.6689867"><ele>337.42857142857144</ele><time>2026-04-25T13:37:22.531Z</time></trkpt><trkpt lat="43.872035" lon="12.6690017"><ele>339.1428571428571</ele><time>2026-04-25T13:37:23.534Z</time></trkpt><trkpt lat="43.8721017" lon="12.669035"><ele>340.8571428571429</ele><time>2026-04-25T13:37:26.533Z</time></trkpt><trkpt lat="43.8721717" lon="12.669085"><ele>342.5714285714286</ele><time>2026-04-25T13:37:33.531Z</time></trkpt><trkpt lat="43.8722333" lon="12.6691417"><ele>344.2857142857143</ele><time>2026-04-25T13:37:35.531Z</time></trkpt><trkpt lat="43.87229" lon="12.66921"><ele>346.0</ele><time>2026-04-25T13:37:37.531Z</time></trkpt><trkpt lat="43.8723367" lon="12.669295"><ele>342.5</ele><time>2026-04-25T13:37:39.53Z</time></trkpt><trkpt lat="43.8724033" lon="12.6695067"><ele>339.0</ele><time>2026-04-25T13:37:43.533Z</time></trkpt><trkpt lat="43.87245" lon="12.6696317"><ele>335.5</ele><time>2026-04-25T13:37:45.53Z</time></trkpt><trkpt lat="43.8725417" lon="12.6697417"><ele>332.0</ele><time>2026-04-25T13:37:47.53Z</time></trkpt><trkpt lat="43.8726017" lon="12.6698"><ele>332.33333333333337</ele><time>2026-04-25T13:37:48.534Z</time></trkpt><trkpt lat="43.87267" lon="12.669855"><ele>332.6666666666667</ele><time>2026-04-25T13:37:49.536Z</time></trkpt><trkpt lat="43.87274" lon="12.6699117"><ele>333.0</ele><time>2026-04-25T13:37:50.53Z</time></trkpt><trkpt lat="43.87281" lon="12.66996"><ele>333.3333333333333</ele><time>2026-04-25T13:37:51.534Z</time></trkpt><trkpt lat="43.8728833" lon="12.67"><ele>333.66666666666663</ele><time>2026-04-25T13:37:52.532Z</time></trkpt><trkpt lat="43.8729533" lon="12.67003"><ele>334.0</ele><time>2026-04-25T13:37:53.53Z</time></trkpt><trkpt lat="43.8730183" lon="12.6700483"><ele>334.0</ele><time>2026-04-25T13:37:54.531Z</time></trkpt><trkpt lat="43.87312" lon="12.67006"><ele>334.0</ele><time>2026-04-25T13:37:56.532Z</time></trkpt><trkpt lat="43.8732067" lon="12.6700467"><ele>334.0</ele><time>2026-04-25T13:37:58.535Z</time></trkpt><trkpt lat="43.8733017" lon="12.669975"><ele>334.0</ele><time>2026-04-25T13:38:00.531Z</time></trkpt><trkpt lat="43.87344" lon="12.6697767"><ele>332.6</ele><time>2026-04-25T13:38:04.532Z</time></trkpt><trkpt lat="43.873505" lon="12.6696733"><ele>331.2</ele><time>2026-04-25T13:38:06.531Z</time></trkpt><trkpt lat="43.87355" lon="12.669605"><ele>329.8</ele><time>2026-04-25T13:38:07.531Z</time></trkpt><trkpt lat="43.873605" lon="12.6695117"><ele>328.40000000000003</ele><time>2026-04-25T13:38:08.531Z</time></trkpt><trkpt lat="43.8736683" lon="12.6694067"><ele>327.0</ele><time>2026-04-25T13:38:09.531Z</time></trkpt><trkpt lat="43.873735" lon="12.6693033"><ele>327.0</ele><time>2026-04-25T13:38:10.53Z</time></trkpt><trkpt lat="43.8738033" lon="12.6692067"><ele>327.0</ele><time>2026-04-25T13:38:11.532Z</time></trkpt><trkpt lat="43.8738717" lon="12.669115"><ele>327.0</ele><time>2026-04-25T13:38:12.536Z</time></trkpt><trkpt lat="43.8739383" lon="12.66902"><ele>327.0</ele><time>2026-04-25T13:38:13.534Z</time></trkpt><trkpt lat="43.8740017" lon="12.668925"><ele>327.0</ele><time>2026-04-25T13:38:14.535Z</time></trkpt><trkpt lat="43.87406" lon="12.6688367"><ele>327.0</ele><time>2026-04-25T13:38:15.537Z</time></trkpt><trkpt lat="43.8741133" lon="12.668755"><ele>327.0</ele><time>2026-04-25T13:38:16.534Z</time></trkpt><trkpt lat="43.8741667" lon="12.6686783"><ele>327.0</ele><time>2026-04-25T13:38:17.534Z</time></trkpt><trkpt lat="43.8742117" lon="12.6686083"><ele>327.0</ele><time>2026-04-25T13:38:18.531Z</time></trkpt><trkpt lat="43.8742983" lon="12.6684983"><ele>327.0</ele><time>2026-04-25T13:38:20.531Z</time></trkpt><trkpt lat="43.8744017" lon="12.6684783"><ele>327.0</ele><time>2026-04-25T13:38:22.531Z</time></trkpt><trkpt lat="43.8744967" lon="12.6687"><ele>323.5</ele><time>2026-04-25T13:38:25.536Z</time></trkpt><trkpt lat="43.8744983" lon="12.6688367"><ele>320.0</ele><time>2026-04-25T13:38:26.533Z</time></trkpt><trkpt lat="43.8744933" lon="12.668995"><ele>316.5</ele><time>2026-04-25T13:38:27.534Z</time></trkpt><trkpt lat="43.8744817" lon="12.6691767"><ele>313.0</ele><time>2026-04-25T13:38:28.534Z</time></trkpt><trkpt lat="43.874475" lon="12.6693533"><ele>310.75</ele><time>2026-04-25T13:38:29.533Z</time></trkpt><trkpt lat="43.8744683" lon="12.669525"><ele>308.5</ele><time>2026-04-25T13:38:30.534Z</time></trkpt><trkpt lat="43.8744567" lon="12.6696967"><ele>306.25</ele><time>2026-04-25T13:38:31.535Z</time></trkpt><trkpt lat="43.8744383" lon="12.6698633"><ele>304.0</ele><time>2026-04-25T13:38:32.533Z</time></trkpt><trkpt lat="43.8744067" lon="12.67003"><ele>304.0</ele><time>2026-04-25T13:38:33.531Z</time></trkpt><trkpt lat="43.8743583" lon="12.6702017"><ele>304.0</ele><time>2026-04-25T13:38:34.533Z</time></trkpt><trkpt lat="43.8742983" lon="12.6703617"><ele>304.0</ele><time>2026-04-25T13:38:35.53Z</time></trkpt><trkpt lat="43.87423" lon="12.6705217"><ele>304.0</ele><time>2026-04-25T13:38:36.534Z</time></trkpt><trkpt lat="43.8741567" lon="12.6706917"><ele>303.0</ele><time>2026-04-25T13:38:37.535Z</time></trkpt><trkpt lat="43.8740817" lon="12.6708667"><ele>302.0</ele><time>2026-04-25T13:38:38.531Z</time></trkpt><trkpt lat="43.874005" lon="12.6710367"><ele>301.0</ele><time>2026-04-25T13:38:39.534Z</time></trkpt><trkpt lat="43.8739333" lon="12.67121"><ele>300.0</ele><time>2026-04-25T13:38:40.533Z</time></trkpt><trkpt lat="43.8738617" lon="12.6713867"><ele>300.0</ele><time>2026-04-25T13:38:41.531Z</time></trkpt><trkpt lat="43.8737917" lon="12.6715717"><ele>300.0</ele><time>2026-04-25T13:38:42.531Z</time></trkpt><trkpt lat="43.8737217" lon="12.6717633"><ele>300.0</ele><time>2026-04-25T13:38:43.535Z</time></trkpt><trkpt lat="43.873595" lon="12.6721567"><ele>302.0</ele><time>2026-04-25T13:38:45.531Z</time></trkpt><trkpt lat="43.8735333" lon="12.6723483"><ele>304.0</ele><time>2026-04-25T13:38:46.531Z</time></trkpt><trkpt lat="43.8734733" lon="12.6725467"><ele>306.0</ele><time>2026-04-25T13:38:47.535Z</time></trkpt><trkpt lat="43.873415" lon="12.672745"><ele>305.3333333333333</ele><time>2026-04-25T13:38:48.533Z</time></trkpt><trkpt lat="43.873355" lon="12.6729433"><ele>304.66666666666663</ele><time>2026-04-25T13:38:49.534Z</time></trkpt><trkpt lat="43.873295" lon="12.6731367"><ele>304.0</ele><time>2026-04-25T13:38:50.534Z</time></trkpt><trkpt lat="43.87324" lon="12.673325"><ele>304.0</ele><time>2026-04-25T13:38:51.535Z</time></trkpt><trkpt lat="43.873185" lon="12.6735133"><ele>304.0</ele><time>2026-04-25T13:38:52.534Z</time></trkpt><trkpt lat="43.8731367" lon="12.673705"><ele>304.0</ele><time>2026-04-25T13:38:53.533Z</time></trkpt><trkpt lat="43.8731" lon="12.673905"><ele>304.0</ele><time>2026-04-25T13:38:54.53Z</time></trkpt><trkpt lat="43.8730783" lon="12.6741117"><ele>304.0</ele><time>2026-04-25T13:38:55.531Z</time></trkpt><trkpt lat="43.8730833" lon="12.6743233"><ele>304.0</ele><time>2026-04-25T13:38:56.532Z</time></trkpt><trkpt lat="43.8731117" lon="12.6745417"><ele>304.0</ele><time>2026-04-25T13:38:57.533Z</time></trkpt><trkpt lat="43.8731633" lon="12.6747683"><ele>301.66666666666663</ele><time>2026-04-25T13:38:58.535Z</time></trkpt><trkpt lat="43.8732317" lon="12.6749967"><ele>299.3333333333333</ele><time>2026-04-25T13:38:59.534Z</time></trkpt><trkpt lat="43.8733067" lon="12.6752283"><ele>297.0</ele><time>2026-04-25T13:39:00.533Z</time></trkpt><trkpt lat="43.8733767" lon="12.67546"><ele>296.6666666666667</ele><time>2026-04-25T13:39:01.534Z</time></trkpt><trkpt lat="43.873445" lon="12.6756817"><ele>296.33333333333337</ele><time>2026-04-25T13:39:02.533Z</time></trkpt><trkpt lat="43.8735133" lon="12.6758917"><ele>296.0</ele><time>2026-04-25T13:39:03.534Z</time></trkpt><trkpt lat="43.873575" lon="12.6760933"><ele>291.6666666666667</ele><time>2026-04-25T13:39:04.533Z</time></trkpt><trkpt lat="43.873705" lon="12.6764433"><ele>287.3333333333333</ele><time>2026-04-25T13:39:06.531Z</time></trkpt><trkpt lat="43.87379" lon="12.676575"><ele>283.0</ele><time>2026-04-25T13:39:07.531Z</time></trkpt><trkpt lat="43.8738933" lon="12.676675"><ele>283.0</ele><time>2026-04-25T13:39:08.531Z</time></trkpt><trkpt lat="43.87401" lon="12.6767267"><ele>283.0</ele><time>2026-04-25T13:39:09.531Z</time></trkpt><trkpt lat="43.8741283" lon="12.6767333"><ele>283.0</ele><time>2026-04-25T13:39:10.532Z</time></trkpt><trkpt lat="43.87425" lon="12.6766933"><ele>283.0</ele><time>2026-04-25T13:39:11.536Z</time></trkpt><trkpt lat="43.87437" lon="12.6766267"><ele>280.0</ele><time>2026-04-25T13:39:12.533Z</time></trkpt><trkpt lat="43.8744933" lon="12.67655"><ele>277.0</ele><time>2026-04-25T13:39:13.534Z</time></trkpt><trkpt lat="43.8746183" lon="12.67647"><ele>274.0</ele><time>2026-04-25T13:39:14.531Z</time></trkpt><trkpt lat="43.8747467" lon="12.67639"><ele>271.0</ele><time>2026-04-25T13:39:15.534Z</time></trkpt><trkpt lat="43.8748783" lon="12.67631"><ele>271.0</ele><time>2026-04-25T13:39:16.531Z</time></trkpt><trkpt lat="43.8750083" lon="12.6762133"><ele>271.0</ele><time>2026-04-25T13:39:17.531Z</time></trkpt><trkpt lat="43.8751267" lon="12.6760983"><ele>271.0</ele><time>2026-04-25T13:39:18.531Z</time></trkpt><trkpt lat="43.8752283" lon="12.6759483"><ele>271.0</ele><time>2026-04-25T13:39:19.533Z</time></trkpt><trkpt lat="43.8753067" lon="12.6757717"><ele>269.25</ele><time>2026-04-25T13:39:20.531Z</time></trkpt><trkpt lat="43.87538" lon="12.675595"><ele>267.5</ele><time>2026-04-25T13:39:21.534Z</time></trkpt><trkpt lat="43.8754467" lon="12.6754367"><ele>265.75</ele><time>2026-04-25T13:39:22.531Z</time></trkpt><trkpt lat="43.8755067" lon="12.6752967"><ele>264.0</ele><time>2026-04-25T13:39:23.532Z</time></trkpt><trkpt lat="43.8755583" lon="12.6751767"><ele>264.0</ele><time>2026-04-25T13:39:24.532Z</time></trkpt><trkpt lat="43.8756017" lon="12.6750683"><ele>264.0</ele><time>2026-04-25T13:39:25.532Z</time></trkpt><trkpt lat="43.8756733" lon="12.674875"><ele>264.0</ele><time>2026-04-25T13:39:27.53Z</time></trkpt><trkpt lat="43.8757117" lon="12.6747417"><ele>264.0</ele><time>2026-04-25T13:39:29.533Z</time></trkpt><trkpt lat="43.8756433" lon="12.674865"><ele>264.0</ele><time>2026-04-25T13:39:38.531Z</time></trkpt><trkpt lat="43.8756133" lon="12.67496"><ele>264.0</ele><time>2026-04-25T13:39:39.53Z</time></trkpt><trkpt lat="43.8755867" lon="12.675045"><ele>264.0</ele><time>2026-04-25T13:39:40.531Z</time></trkpt><trkpt lat="43.875545" lon="12.67515"><ele>264.0</ele><time>2026-04-25T13:39:42.534Z</time></trkpt><trkpt lat="43.8755317" lon="12.6752817"><ele>264.0</ele><time>2026-04-25T13:39:47.531Z</time></trkpt><trkpt lat="43.8755483" lon="12.6755817"><ele>263.8</ele><time>2026-04-25T13:39:50.533Z</time></trkpt><trkpt lat="43.8755433" lon="12.67573"><ele>263.59999999999997</ele><time>2026-04-25T13:39:51.532Z</time></trkpt><trkpt lat="43.875565" lon="12.6758783"><ele>263.4</ele><time>2026-04-25T13:39:52.533Z</time></trkpt><trkpt lat="43.8756017" lon="12.6760283"><ele>263.2</ele><time>2026-04-25T13:39:53.533Z</time></trkpt><trkpt lat="43.8756483" lon="12.6761717"><ele>263.0</ele><time>2026-04-25T13:39:54.532Z</time></trkpt><trkpt lat="43.875695" lon="12.6763183"><ele>260.5</ele><time>2026-04-25T13:39:55.532Z</time></trkpt><trkpt lat="43.8757317" lon="12.6764683"><ele>258.0</ele><time>2026-04-25T13:39:56.532Z</time></trkpt><trkpt lat="43.8757717" lon="12.6766183"><ele>255.5</ele><time>2026-04-25T13:39:57.531Z</time></trkpt><trkpt lat="43.87581" lon="12.6767667"><ele>253.0</ele><time>2026-04-25T13:39:58.53Z</time></trkpt><trkpt lat="43.8758433" lon="12.6769133"><ele>251.4</ele><time>2026-04-25T13:39:59.532Z</time></trkpt><trkpt lat="43.8758767" lon="12.6770517"><ele>249.8</ele><time>2026-04-25T13:40:00.532Z</time></trkpt><trkpt lat="43.87591" lon="12.6771783"><ele>248.2</ele><time>2026-04-25T13:40:01.532Z</time></trkpt><trkpt lat="43.8759417" lon="12.6773"><ele>246.6</ele><time>2026-04-25T13:40:02.531Z</time></trkpt><trkpt lat="43.8759717" lon="12.6774133"><ele>245.0</ele><time>2026-04-25T13:40:03.544Z</time></trkpt><trkpt lat="43.8760017" lon="12.6775167"><ele>241.8</ele><time>2026-04-25T13:40:04.532Z</time></trkpt><trkpt lat="43.8760367" lon="12.6776133"><ele>238.6</ele><time>2026-04-25T13:40:05.532Z</time></trkpt><trkpt lat="43.87607" lon="12.6776983"><ele>235.39999999999998</ele><time>2026-04-25T13:40:06.532Z</time></trkpt><trkpt lat="43.8761133" lon="12.6777683"><ele>232.2</ele><time>2026-04-25T13:40:07.535Z</time></trkpt><trkpt lat="43.8762033" lon="12.6778983"><ele>229.0</ele><time>2026-04-25T13:40:09.532Z</time></trkpt><trkpt lat="43.87632" lon="12.6780033"><ele>228.33333333333331</ele><time>2026-04-25T13:40:11.532Z</time></trkpt><trkpt lat="43.87639" lon="12.678045"><ele>227.66666666666666</ele><time>2026-04-25T13:40:12.531Z</time></trkpt><trkpt lat="43.8764683" lon="12.678075"><ele>227.0</ele><time>2026-04-25T13:40:13.533Z</time></trkpt><trkpt lat="43.8765517" lon="12.6781033"><ele>226.33333333333331</ele><time>2026-04-25T13:40:14.531Z</time></trkpt><trkpt lat="43.8766467" lon="12.6781267"><ele>225.66666666666666</ele><time>2026-04-25T13:40:15.533Z</time></trkpt><trkpt lat="43.8767467" lon="12.6781467"><ele>225.0</ele><time>2026-04-25T13:40:16.534Z</time></trkpt><trkpt lat="43.8768467" lon="12.6781667"><ele>221.8</ele><time>2026-04-25T13:40:17.538Z</time></trkpt><trkpt lat="43.87695" lon="12.6781883"><ele>218.6</ele><time>2026-04-25T13:40:18.531Z</time></trkpt><trkpt lat="43.877045" lon="12.6782083"><ele>215.39999999999998</ele><time>2026-04-25T13:40:19.531Z</time></trkpt><trkpt lat="43.8771383" lon="12.678225"><ele>212.2</ele><time>2026-04-25T13:40:20.531Z</time></trkpt><trkpt lat="43.8772333" lon="12.6782483"><ele>209.0</ele><time>2026-04-25T13:40:21.531Z</time></trkpt><trkpt lat="43.8773283" lon="12.6782817"><ele>209.0</ele><time>2026-04-25T13:40:22.531Z</time></trkpt><trkpt lat="43.8774217" lon="12.6783317"><ele>209.0</ele><time>2026-04-25T13:40:23.532Z</time></trkpt><trkpt lat="43.8775133" lon="12.6784067"><ele>209.0</ele><time>2026-04-25T13:40:24.531Z</time></trkpt><trkpt lat="43.8776017" lon="12.67849"><ele>209.0</ele><time>2026-04-25T13:40:25.532Z</time></trkpt><trkpt lat="43.8776883" lon="12.67858"><ele>209.0</ele><time>2026-04-25T13:40:26.531Z</time></trkpt><trkpt lat="43.877765" lon="12.6786833"><ele>203.5</ele><time>2026-04-25T13:40:27.533Z</time></trkpt><trkpt lat="43.8778267" lon="12.6787967"><ele>198.0</ele><time>2026-04-25T13:40:28.535Z</time></trkpt><trkpt lat="43.8778767" lon="12.6789267"><ele>192.5</ele><time>2026-04-25T13:40:29.531Z</time></trkpt><trkpt lat="43.8779233" lon="12.679075"><ele>187.0</ele><time>2026-04-25T13:40:30.532Z</time></trkpt><trkpt lat="43.87802" lon="12.6793867"><ele>186.39999999999998</ele><time>2026-04-25T13:40:32.534Z</time></trkpt><trkpt lat="43.8780733" lon="12.6795333"><ele>185.79999999999998</ele><time>2026-04-25T13:40:33.535Z</time></trkpt><trkpt lat="43.8781267" lon="12.6796683"><ele>185.2</ele><time>2026-04-25T13:40:34.535Z</time></trkpt><trkpt lat="43.87818" lon="12.6798"><ele>184.6</ele><time>2026-04-25T13:40:35.531Z</time></trkpt><trkpt lat="43.8782367" lon="12.6799317"><ele>184.0</ele><time>2026-04-25T13:40:36.531Z</time></trkpt><trkpt lat="43.87831" lon="12.6800517"><ele>184.0</ele><time>2026-04-25T13:40:37.534Z</time></trkpt><trkpt lat="43.8783933" lon="12.680165"><ele>184.0</ele><time>2026-04-25T13:40:38.534Z</time></trkpt><trkpt lat="43.8784817" lon="12.680265"><ele>184.0</ele><time>2026-04-25T13:40:39.542Z</time></trkpt><trkpt lat="43.8785667" lon="12.6803533"><ele>184.0</ele><time>2026-04-25T13:40:40.531Z</time></trkpt><trkpt lat="43.878645" lon="12.68043"><ele>184.0</ele><time>2026-04-25T13:40:41.532Z</time></trkpt><trkpt lat="43.8787117" lon="12.680495"><ele>182.0</ele><time>2026-04-25T13:40:42.532Z</time></trkpt><trkpt lat="43.87877" lon="12.6805533"><ele>180.0</ele><time>2026-04-25T13:40:43.533Z</time></trkpt><trkpt lat="43.8788333" lon="12.68063"><ele>178.0</ele><time>2026-04-25T13:40:45.533Z</time></trkpt><trkpt lat="43.8788933" lon="12.6805967"><ele>176.0</ele><time>2026-04-25T13:40:49.531Z</time></trkpt><trkpt lat="43.8789533" lon="12.6804067"><ele>174.0</ele><time>2026-04-25T13:40:51.532Z</time></trkpt><trkpt lat="43.8790183" lon="12.6801617"><ele>174.0</ele><time>2026-04-25T13:40:53.536Z</time></trkpt><trkpt lat="43.8790633" lon="12.68005"><ele>174.0</ele><time>2026-04-25T13:40:54.531Z</time></trkpt><trkpt lat="43.8791183" lon="12.6799283"><ele>174.0</ele><time>2026-04-25T13:40:55.532Z</time></trkpt><trkpt lat="43.8791867" lon="12.6798017"><ele>174.0</ele><time>2026-04-25T13:40:56.531Z</time></trkpt><trkpt lat="43.8792567" lon="12.679665"><ele>174.0</ele><time>2026-04-25T13:40:57.531Z</time></trkpt><trkpt lat="43.8793317" lon="12.6795333"><ele>169.75</ele><time>2026-04-25T13:40:58.533Z</time></trkpt><trkpt lat="43.879405" lon="12.6794"><ele>165.5</ele><time>2026-04-25T13:40:59.531Z</time></trkpt><trkpt lat="43.8794733" lon="12.6792667"><ele>161.25</ele><time>2026-04-25T13:41:00.533Z</time></trkpt><trkpt lat="43.8795333" lon="12.67913"><ele>157.0</ele><time>2026-04-25T13:41:01.533Z</time></trkpt><trkpt lat="43.8795783" lon="12.6789717"><ele>157.0</ele><time>2026-04-25T13:41:02.535Z</time></trkpt><trkpt lat="43.8796067" lon="12.6788017"><ele>157.0</ele><time>2026-04-25T13:41:03.534Z</time></trkpt><trkpt lat="43.8796317" lon="12.6786333"><ele>157.0</ele><time>2026-04-25T13:41:04.535Z</time></trkpt><trkpt lat="43.87966" lon="12.67847"><ele>157.0</ele><time>2026-04-25T13:41:05.534Z</time></trkpt><trkpt lat="43.8796967" lon="12.6783083"><ele>157.25</ele><time>2026-04-25T13:41:06.533Z</time></trkpt><trkpt lat="43.8797467" lon="12.678155"><ele>157.5</ele><time>2026-04-25T13:41:07.532Z</time></trkpt><trkpt lat="43.8798017" lon="12.6780133"><ele>157.75</ele><time>2026-04-25T13:41:08.534Z</time></trkpt><trkpt lat="43.879855" lon="12.677875"><ele>158.0</ele><time>2026-04-25T13:41:09.531Z</time></trkpt><trkpt lat="43.87991" lon="12.6777467"><ele>158.66666666666666</ele><time>2026-04-25T13:41:10.535Z</time></trkpt><trkpt lat="43.87996" lon="12.6776267"><ele>159.33333333333334</ele><time>2026-04-25T13:41:11.533Z</time></trkpt><trkpt lat="43.8800217" lon="12.6775033"><ele>160.0</ele><time>2026-04-25T13:41:12.53Z</time></trkpt><trkpt lat="43.8801833" lon="12.6772517"><ele>157.75</ele><time>2026-04-25T13:41:14.53Z</time></trkpt><trkpt lat="43.8802783" lon="12.6771267"><ele>155.5</ele><time>2026-04-25T13:41:15.53Z</time></trkpt><trkpt lat="43.8803667" lon="12.676995"><ele>153.25</ele><time>2026-04-25T13:41:16.531Z</time></trkpt><trkpt lat="43.880455" lon="12.6768717"><ele>151.0</ele><time>2026-04-25T13:41:17.531Z</time></trkpt><trkpt lat="43.8805417" lon="12.6767567"><ele>151.0</ele><time>2026-04-25T13:41:18.532Z</time></trkpt><trkpt lat="43.8806233" lon="12.6766517"><ele>151.0</ele><time>2026-04-25T13:41:19.531Z</time></trkpt><trkpt lat="43.8807017" lon="12.6765667"><ele>151.0</ele><time>2026-04-25T13:41:20.53Z</time></trkpt><trkpt lat="43.8807767" lon="12.6765083"><ele>151.0</ele><time>2026-04-25T13:41:21.532Z</time></trkpt><trkpt lat="43.8808417" lon="12.6764783"><ele>151.0</ele><time>2026-04-25T13:41:22.53Z</time></trkpt><trkpt lat="43.8809517" lon="12.67654"><ele>147.0</ele><time>2026-04-25T13:41:24.532Z</time></trkpt><trkpt lat="43.8809717" lon="12.6766433"><ele>143.0</ele><time>2026-04-25T13:41:25.531Z</time></trkpt><trkpt lat="43.880995" lon="12.67675"><ele>139.0</ele><time>2026-04-25T13:41:26.531Z</time></trkpt><trkpt lat="43.8809883" lon="12.6769367"><ele>135.0</ele><time>2026-04-25T13:41:27.531Z</time></trkpt><trkpt lat="43.8809383" lon="12.6771667"><ele>138.33333333333334</ele><time>2026-04-25T13:41:28.531Z</time></trkpt><trkpt lat="43.8808967" lon="12.677395"><ele>141.66666666666669</ele><time>2026-04-25T13:41:29.53Z</time></trkpt><trkpt lat="43.8808683" lon="12.677605"><ele>145.0</ele><time>2026-04-25T13:41:30.533Z</time></trkpt><trkpt lat="43.880855" lon="12.67779"><ele>145.0</ele><time>2026-04-25T13:41:31.533Z</time></trkpt><trkpt lat="43.8808483" lon="12.6779783"><ele>145.0</ele><time>2026-04-25T13:41:32.531Z</time></trkpt><trkpt lat="43.8808467" lon="12.67816"><ele>145.0</ele><time>2026-04-25T13:41:33.53Z</time></trkpt><trkpt lat="43.880865" lon="12.6784733"><ele>144.6</ele><time>2026-04-25T13:41:35.535Z</time></trkpt><trkpt lat="43.88089" lon="12.67861"><ele>144.2</ele><time>2026-04-25T13:41:36.533Z</time></trkpt><trkpt lat="43.8809383" lon="12.6787367"><ele>143.8</ele><time>2026-04-25T13:41:37.534Z</time></trkpt><trkpt lat="43.8810067" lon="12.678845"><ele>143.4</ele><time>2026-04-25T13:41:38.53Z</time></trkpt><trkpt lat="43.8811" lon="12.6789367"><ele>143.0</ele><time>2026-04-25T13:41:39.533Z</time></trkpt><trkpt lat="43.8812067" lon="12.6790133"><ele>140.6</ele><time>2026-04-25T13:41:40.533Z</time></trkpt><trkpt lat="43.8813167" lon="12.679085"><ele>138.20000000000002</ele><time>2026-04-25T13:41:41.533Z</time></trkpt><trkpt lat="43.8814167" lon="12.6791617"><ele>135.8</ele><time>2026-04-25T13:41:42.532Z</time></trkpt><trkpt lat="43.881505" lon="12.67925"><ele>133.4</ele><time>2026-04-25T13:41:43.531Z</time></trkpt><trkpt lat="43.8815817" lon="12.6793467"><ele>131.0</ele><time>2026-04-25T13:41:44.531Z</time></trkpt><trkpt lat="43.8816467" lon="12.6794533"><ele>130.75</ele><time>2026-04-25T13:41:45.531Z</time></trkpt><trkpt lat="43.8817083" lon="12.6795733"><ele>130.5</ele><time>2026-04-25T13:41:46.531Z</time></trkpt><trkpt lat="43.8817683" lon="12.6797117"><ele>130.25</ele><time>2026-04-25T13:41:47.534Z</time></trkpt><trkpt lat="43.8818333" lon="12.6798583"><ele>130.0</ele><time>2026-04-25T13:41:48.534Z</time></trkpt><trkpt lat="43.881905" lon="12.6799933"><ele>128.0</ele><time>2026-04-25T13:41:49.534Z</time></trkpt><trkpt lat="43.881975" lon="12.6801183"><ele>126.0</ele><time>2026-04-25T13:41:50.534Z</time></trkpt><trkpt lat="43.8820383" lon="12.6802417"><ele>124.0</ele><time>2026-04-25T13:41:51.533Z</time></trkpt><trkpt lat="43.882085" lon="12.6803633"><ele>122.0</ele><time>2026-04-25T13:41:52.531Z</time></trkpt><trkpt lat="43.882105" lon="12.6804933"><ele>120.0</ele><time>2026-04-25T13:41:53.531Z</time></trkpt><trkpt lat="43.8820967" lon="12.68063"><ele>118.66666666666666</ele><time>2026-04-25T13:41:54.535Z</time></trkpt><trkpt lat="43.8820817" lon="12.680925"><ele>117.33333333333333</ele><time>2026-04-25T13:41:56.532Z</time></trkpt><trkpt lat="43.88211" lon="12.6810833"><ele>116.0</ele><time>2026-04-25T13:41:57.53Z</time></trkpt><trkpt lat="43.8821667" lon="12.6812417"><ele>115.5</ele><time>2026-04-25T13:41:58.532Z</time></trkpt><trkpt lat="43.8822367" lon="12.6814017"><ele>115.0</ele><time>2026-04-25T13:41:59.532Z</time></trkpt><trkpt lat="43.88231" lon="12.6815667"><ele>114.5</ele><time>2026-04-25T13:42:00.53Z</time></trkpt><trkpt lat="43.8823817" lon="12.6817433"><ele>114.0</ele><time>2026-04-25T13:42:01.531Z</time></trkpt><trkpt lat="43.88245" lon="12.6819283"><ele>114.33333333333334</ele><time>2026-04-25T13:42:02.531Z</time></trkpt><trkpt lat="43.88252" lon="12.68212"><ele>114.66666666666667</ele><time>2026-04-25T13:42:03.532Z</time></trkpt><trkpt lat="43.8825917" lon="12.682305"><ele>115.0</ele><time>2026-04-25T13:42:04.531Z</time></trkpt><trkpt lat="43.8826617" lon="12.6824833"><ele>111.0</ele><time>2026-04-25T13:42:05.532Z</time></trkpt><trkpt lat="43.88273" lon="12.6826617"><ele>107.0</ele><time>2026-04-25T13:42:06.531Z</time></trkpt><trkpt lat="43.8827883" lon="12.68284"><ele>103.0</ele><time>2026-04-25T13:42:07.53Z</time></trkpt><trkpt lat="43.8828317" lon="12.683015"><ele>99.0</ele><time>2026-04-25T13:42:08.53Z</time></trkpt><trkpt lat="43.8828583" lon="12.6831883"><ele>98.75</ele><time>2026-04-25T13:42:09.531Z</time></trkpt><trkpt lat="43.8828667" lon="12.68336"><ele>98.5</ele><time>2026-04-25T13:42:10.531Z</time></trkpt><trkpt lat="43.882855" lon="12.6835317"><ele>98.25</ele><time>2026-04-25T13:42:11.532Z</time></trkpt><trkpt lat="43.8828267" lon="12.6837083"><ele>98.0</ele><time>2026-04-25T13:42:12.532Z</time></trkpt><trkpt lat="43.8828" lon="12.6838917"><ele>97.0</ele><time>2026-04-25T13:42:13.53Z</time></trkpt><trkpt lat="43.88279" lon="12.6840867"><ele>96.0</ele><time>2026-04-25T13:42:14.533Z</time></trkpt><trkpt lat="43.8827933" lon="12.68428"><ele>95.0</ele><time>2026-04-25T13:42:15.531Z</time></trkpt><trkpt lat="43.882805" lon="12.6846317"><ele>93.75</ele><time>2026-04-25T13:42:17.531Z</time></trkpt><trkpt lat="43.8828017" lon="12.6847967"><ele>92.5</ele><time>2026-04-25T13:42:18.531Z</time></trkpt><trkpt lat="43.882785" lon="12.6849583"><ele>91.25</ele><time>2026-04-25T13:42:19.531Z</time></trkpt><trkpt lat="43.8827617" lon="12.6851267"><ele>90.0</ele><time>2026-04-25T13:42:20.535Z</time></trkpt><trkpt lat="43.88273" lon="12.685295"><ele>89.5</ele><time>2026-04-25T13:42:21.532Z</time></trkpt><trkpt lat="43.882705" lon="12.6854633"><ele>89.0</ele><time>2026-04-25T13:42:22.532Z</time></trkpt><trkpt lat="43.8827083" lon="12.685635"><ele>88.5</ele><time>2026-04-25T13:42:23.534Z</time></trkpt><trkpt lat="43.8827317" lon="12.6858033"><ele>88.0</ele><time>2026-04-25T13:42:24.53Z</time></trkpt><trkpt lat="43.882765" lon="12.68596"><ele>88.0</ele><time>2026-04-25T13:42:25.531Z</time></trkpt><trkpt lat="43.8828033" lon="12.6861183"><ele>88.0</ele><time>2026-04-25T13:42:26.532Z</time></trkpt><trkpt lat="43.882835" lon="12.686275"><ele>88.0</ele><time>2026-04-25T13:42:27.531Z</time></trkpt><trkpt lat="43.88285" lon="12.6864317"><ele>88.0</ele><time>2026-04-25T13:42:28.535Z</time></trkpt><trkpt lat="43.882845" lon="12.6865833"><ele>88.0</ele><time>2026-04-25T13:42:29.533Z</time></trkpt><trkpt lat="43.8828283" lon="12.686735"><ele>88.0</ele><time>2026-04-25T13:42:30.532Z</time></trkpt><trkpt lat="43.882805" lon="12.6868833"><ele>88.0</ele><time>2026-04-25T13:42:31.534Z</time></trkpt><trkpt lat="43.8827833" lon="12.68702"><ele>88.0</ele><time>2026-04-25T13:42:32.531Z</time></trkpt><trkpt lat="43.8827767" lon="12.6871517"><ele>88.0</ele><time>2026-04-25T13:42:33.532Z</time></trkpt><trkpt lat="43.8828017" lon="12.6872767"><ele>87.66666666666666</ele><time>2026-04-25T13:42:34.533Z</time></trkpt><trkpt lat="43.88285" lon="12.6874017"><ele>87.33333333333333</ele><time>2026-04-25T13:42:35.533Z</time></trkpt><trkpt lat="43.8829167" lon="12.6875283"><ele>87.0</ele><time>2026-04-25T13:42:36.533Z</time></trkpt><trkpt lat="43.8830783" lon="12.68779"><ele>87.0</ele><time>2026-04-25T13:42:38.533Z</time></trkpt><trkpt lat="43.883165" lon="12.6879283"><ele>87.0</ele><time>2026-04-25T13:42:39.533Z</time></trkpt><trkpt lat="43.8832533" lon="12.68807"><ele>87.0</ele><time>2026-04-25T13:42:40.533Z</time></trkpt><trkpt lat="43.88335" lon="12.6882117"><ele>87.0</ele><time>2026-04-25T13:42:41.531Z</time></trkpt><trkpt lat="43.883445" lon="12.68835"><ele>87.0</ele><time>2026-04-25T13:42:42.531Z</time></trkpt><trkpt lat="43.88354" lon="12.688485"><ele>87.0</ele><time>2026-04-25T13:42:43.531Z</time></trkpt><trkpt lat="43.8836283" lon="12.6886183"><ele>87.0</ele><time>2026-04-25T13:42:44.534Z</time></trkpt><trkpt lat="43.883715" lon="12.6887467"><ele>87.0</ele><time>2026-04-25T13:42:45.533Z</time></trkpt><trkpt lat="43.883795" lon="12.6888683"><ele>86.19999999999999</ele><time>2026-04-25T13:42:46.531Z</time></trkpt><trkpt lat="43.88386" lon="12.6889717"><ele>85.4</ele><time>2026-04-25T13:42:47.531Z</time></trkpt><trkpt lat="43.8839317" lon="12.689075"><ele>84.6</ele><time>2026-04-25T13:42:48.53Z</time></trkpt><trkpt lat="43.88399" lon="12.6891817"><ele>83.80000000000001</ele><time>2026-04-25T13:42:49.532Z</time></trkpt><trkpt lat="43.8840533" lon="12.6892983"><ele>83.0</ele><time>2026-04-25T13:42:50.531Z</time></trkpt><trkpt lat="43.8841133" lon="12.6894267"><ele>82.5</ele><time>2026-04-25T13:42:51.535Z</time></trkpt><trkpt lat="43.8841783" lon="12.6895667"><ele>82.0</ele><time>2026-04-25T13:42:52.53Z</time></trkpt><trkpt lat="43.8842417" lon="12.6897117"><ele>81.5</ele><time>2026-04-25T13:42:53.532Z</time></trkpt><trkpt lat="43.88431" lon="12.6898667"><ele>81.0</ele><time>2026-04-25T13:42:54.53Z</time></trkpt><trkpt lat="43.8843833" lon="12.69003"><ele>82.66666666666667</ele><time>2026-04-25T13:42:55.531Z</time></trkpt><trkpt lat="43.884455" lon="12.6901983"><ele>84.33333333333334</ele><time>2026-04-25T13:42:56.53Z</time></trkpt><trkpt lat="43.88453" lon="12.6903717"><ele>86.0</ele><time>2026-04-25T13:42:57.53Z</time></trkpt><trkpt lat="43.8846883" lon="12.6907117"><ele>86.0</ele><time>2026-04-25T13:42:59.532Z</time></trkpt><trkpt lat="43.884765" lon="12.6908833"><ele>86.0</ele><time>2026-04-25T13:43:00.531Z</time></trkpt><trkpt lat="43.88484" lon="12.69106"><ele>86.0</ele><time>2026-04-25T13:43:01.531Z</time></trkpt><trkpt lat="43.8849117" lon="12.6912283"><ele>86.0</ele><time>2026-04-25T13:43:02.531Z</time></trkpt><trkpt lat="43.884975" lon="12.6913883"><ele>85.75</ele><time>2026-04-25T13:43:03.531Z</time></trkpt><trkpt lat="43.8850433" lon="12.69156"><ele>85.5</ele><time>2026-04-25T13:43:04.53Z</time></trkpt><trkpt lat="43.8850933" lon="12.6917267"><ele>85.25</ele><time>2026-04-25T13:43:05.531Z</time></trkpt><trkpt lat="43.8851417" lon="12.69191"><ele>85.0</ele><time>2026-04-25T13:43:06.531Z</time></trkpt><trkpt lat="43.88518" lon="12.6920983"><ele>85.0</ele><time>2026-04-25T13:43:07.531Z</time></trkpt><trkpt lat="43.8852117" lon="12.6922817"><ele>85.0</ele><time>2026-04-25T13:43:08.532Z</time></trkpt><trkpt lat="43.885245" lon="12.6924567"><ele>85.0</ele><time>2026-04-25T13:43:09.532Z</time></trkpt><trkpt lat="43.8852783" lon="12.692615"><ele>85.0</ele><time>2026-04-25T13:43:10.531Z</time></trkpt><trkpt lat="43.88531" lon="12.6927617"><ele>84.0</ele><time>2026-04-25T13:43:11.532Z</time></trkpt><trkpt lat="43.8853383" lon="12.6929017"><ele>83.0</ele><time>2026-04-25T13:43:12.531Z</time></trkpt><trkpt lat="43.8853583" lon="12.6930267"><ele>82.0</ele><time>2026-04-25T13:43:13.531Z</time></trkpt><trkpt lat="43.8853667" lon="12.6931517"><ele>81.0</ele><time>2026-04-25T13:43:14.532Z</time></trkpt><trkpt lat="43.88537" lon="12.6932833"><ele>80.0</ele><time>2026-04-25T13:43:15.531Z</time></trkpt><trkpt lat="43.88537" lon="12.6934117"><ele>80.0</ele><time>2026-04-25T13:43:16.531Z</time></trkpt><trkpt lat="43.8853567" lon="12.6935433"><ele>80.0</ele><time>2026-04-25T13:43:17.532Z</time></trkpt><trkpt lat="43.8853483" lon="12.6936733"><ele>80.0</ele><time>2026-04-25T13:43:18.532Z</time></trkpt><trkpt lat="43.8853283" lon="12.6939433"><ele>80.0</ele><time>2026-04-25T13:43:20.53Z</time></trkpt><trkpt lat="43.8853167" lon="12.6940867"><ele>79.75</ele><time>2026-04-25T13:43:21.53Z</time></trkpt><trkpt lat="43.8853033" lon="12.6942383"><ele>79.5</ele><time>2026-04-25T13:43:22.53Z</time></trkpt><trkpt lat="43.8852917" lon="12.6943967"><ele>79.25</ele><time>2026-04-25T13:43:23.532Z</time></trkpt><trkpt lat="43.8852817" lon="12.6945617"><ele>79.0</ele><time>2026-04-25T13:43:24.537Z</time></trkpt><trkpt lat="43.88527" lon="12.6947333"><ele>79.0</ele><time>2026-04-25T13:43:25.532Z</time></trkpt><trkpt lat="43.88526" lon="12.6949117"><ele>79.0</ele><time>2026-04-25T13:43:26.531Z</time></trkpt><trkpt lat="43.8852483" lon="12.695095"><ele>79.0</ele><time>2026-04-25T13:43:27.53Z</time></trkpt><trkpt lat="43.88524" lon="12.695285"><ele>79.0</ele><time>2026-04-25T13:43:28.534Z</time></trkpt><trkpt lat="43.8852267" lon="12.6954717"><ele>80.75</ele><time>2026-04-25T13:43:29.531Z</time></trkpt><trkpt lat="43.8852183" lon="12.6956633"><ele>82.5</ele><time>2026-04-25T13:43:30.534Z</time></trkpt><trkpt lat="43.8852067" lon="12.6958383"><ele>84.25</ele><time>2026-04-25T13:43:31.535Z</time></trkpt><trkpt lat="43.885195" lon="12.6960067"><ele>86.0</ele><time>2026-04-25T13:43:32.53Z</time></trkpt><trkpt lat="43.8851817" lon="12.696175"><ele>87.0</ele><time>2026-04-25T13:43:33.531Z</time></trkpt><trkpt lat="43.8851717" lon="12.6963417"><ele>88.0</ele><time>2026-04-25T13:43:34.531Z</time></trkpt><trkpt lat="43.88516" lon="12.6964933"><ele>89.0</ele><time>2026-04-25T13:43:35.532Z</time></trkpt><trkpt lat="43.885155" lon="12.69662"><ele>90.0</ele><time>2026-04-25T13:43:36.534Z</time></trkpt><trkpt lat="43.8851583" lon="12.6967333"><ele>91.0</ele><time>2026-04-25T13:43:37.535Z</time></trkpt><trkpt lat="43.8851717" lon="12.6968517"><ele>92.25</ele><time>2026-04-25T13:43:38.532Z</time></trkpt><trkpt lat="43.8852" lon="12.6969783"><ele>93.5</ele><time>2026-04-25T13:43:39.535Z</time></trkpt><trkpt lat="43.885255" lon="12.697255"><ele>94.75</ele><time>2026-04-25T13:43:41.533Z</time></trkpt><trkpt lat="43.8852533" lon="12.6974033"><ele>96.0</ele><time>2026-04-25T13:43:42.536Z</time></trkpt><trkpt lat="43.8852333" lon="12.6975467"><ele>96.0</ele><time>2026-04-25T13:43:43.532Z</time></trkpt><trkpt lat="43.8852" lon="12.69768"><ele>96.0</ele><time>2026-04-25T13:43:44.533Z</time></trkpt><trkpt lat="43.8851567" lon="12.6978017"><ele>96.0</ele><time>2026-04-25T13:43:45.531Z</time></trkpt><trkpt lat="43.8851017" lon="12.6979217"><ele>96.0</ele><time>2026-04-25T13:43:46.532Z</time></trkpt><trkpt lat="43.8850317" lon="12.6980333"><ele>96.0</ele><time>2026-04-25T13:43:47.531Z</time></trkpt><trkpt lat="43.884965" lon="12.6981483"><ele>95.0</ele><time>2026-04-25T13:43:48.531Z</time></trkpt><trkpt lat="43.884905" lon="12.6982783"><ele>94.0</ele><time>2026-04-25T13:43:49.533Z</time></trkpt><trkpt lat="43.884855" lon="12.698425"><ele>93.0</ele><time>2026-04-25T13:43:50.532Z</time></trkpt><trkpt lat="43.8848167" lon="12.6985917"><ele>92.0</ele><time>2026-04-25T13:43:51.531Z</time></trkpt><trkpt lat="43.8847817" lon="12.698775"><ele>92.0</ele><time>2026-04-25T13:43:52.531Z</time></trkpt><trkpt lat="43.8847467" lon="12.6989683"><ele>92.0</ele><time>2026-04-25T13:43:53.532Z</time></trkpt><trkpt lat="43.8847117" lon="12.69917"><ele>92.0</ele><time>2026-04-25T13:43:54.531Z</time></trkpt><trkpt lat="43.8846717" lon="12.6993717"><ele>92.0</ele><time>2026-04-25T13:43:55.532Z</time></trkpt><trkpt lat="43.8846283" lon="12.6995667"><ele>91.75</ele><time>2026-04-25T13:43:56.534Z</time></trkpt><trkpt lat="43.8845933" lon="12.6997517"><ele>91.5</ele><time>2026-04-25T13:43:57.534Z</time></trkpt><trkpt lat="43.884565" lon="12.6999383"><ele>91.25</ele><time>2026-04-25T13:43:58.535Z</time></trkpt><trkpt lat="43.8845433" lon="12.7001317"><ele>91.0</ele><time>2026-04-25T13:43:59.531Z</time></trkpt><trkpt lat="43.8845317" lon="12.7003117"><ele>90.0</ele><time>2026-04-25T13:44:00.534Z</time></trkpt><trkpt lat="43.8845467" lon="12.7006417"><ele>89.0</ele><time>2026-04-25T13:44:02.535Z</time></trkpt><trkpt lat="43.8845733" lon="12.700795"><ele>88.0</ele><time>2026-04-25T13:44:03.534Z</time></trkpt><trkpt lat="43.88461" lon="12.70094"><ele>88.0</ele><time>2026-04-25T13:44:04.534Z</time></trkpt><trkpt lat="43.8846667" lon="12.7010733"><ele>88.0</ele><time>2026-04-25T13:44:05.534Z</time></trkpt><trkpt lat="43.884745" lon="12.7011967"><ele>88.0</ele><time>2026-04-25T13:44:06.535Z</time></trkpt><trkpt lat="43.8848367" lon="12.7013167"><ele>88.0</ele><time>2026-04-25T13:44:07.537Z</time></trkpt><trkpt lat="43.88494" lon="12.7014267"><ele>87.2</ele><time>2026-04-25T13:44:08.535Z</time></trkpt><trkpt lat="43.8850383" lon="12.7015233"><ele>86.4</ele><time>2026-04-25T13:44:09.533Z</time></trkpt><trkpt lat="43.885125" lon="12.701605"><ele>85.60000000000001</ele><time>2026-04-25T13:44:10.534Z</time></trkpt><trkpt lat="43.8852" lon="12.7016867"><ele>84.80000000000001</ele><time>2026-04-25T13:44:11.531Z</time></trkpt><trkpt lat="43.88526" lon="12.701775"><ele>84.0</ele><time>2026-04-25T13:44:12.531Z</time></trkpt><trkpt lat="43.8853" lon="12.7018683"><ele>86.33333333333333</ele><time>2026-04-25T13:44:13.531Z</time></trkpt><trkpt lat="43.8853117" lon="12.7019683"><ele>88.66666666666666</ele><time>2026-04-25T13:44:14.532Z</time></trkpt><trkpt lat="43.8852883" lon="12.7020683"><ele>91.0</ele><time>2026-04-25T13:44:15.532Z</time></trkpt><trkpt lat="43.88525" lon="12.7021583"><ele>93.33333333333333</ele><time>2026-04-25T13:44:16.532Z</time></trkpt><trkpt lat="43.8852183" lon="12.7022517"><ele>95.66666666666666</ele><time>2026-04-25T13:44:17.535Z</time></trkpt><trkpt lat="43.8851883" lon="12.7023317"><ele>98.0</ele><time>2026-04-25T13:44:18.534Z</time></trkpt><trkpt lat="43.88515" lon="12.70245"><ele>98.0</ele><time>2026-04-25T13:44:20.535Z</time></trkpt><trkpt lat="43.88512" lon="12.7025667"><ele>98.0</ele><time>2026-04-25T13:44:32.537Z</time></trkpt><trkpt lat="43.885295" lon="12.702545"><ele>98.0</ele><time>2026-04-25T13:44:36.532Z</time></trkpt><trkpt lat="43.8854217" lon="12.7024983"><ele>98.0</ele><time>2026-04-25T13:44:38.535Z</time></trkpt><trkpt lat="43.8855017" lon="12.702485"><ele>98.0</ele><time>2026-04-25T13:44:39.531Z</time></trkpt><trkpt lat="43.88559" lon="12.7024733"><ele>98.0</ele><time>2026-04-25T13:44:40.531Z</time></trkpt><trkpt lat="43.885685" lon="12.7024617"><ele>98.0</ele><time>2026-04-25T13:44:41.532Z</time></trkpt><trkpt lat="43.8857833" lon="12.7024483"><ele>98.0</ele><time>2026-04-25T13:44:42.533Z</time></trkpt><trkpt lat="43.885885" lon="12.7024317"><ele>98.0</ele><time>2026-04-25T13:44:43.532Z</time></trkpt><trkpt lat="43.8859883" lon="12.7024133"><ele>100.2</ele><time>2026-04-25T13:44:44.531Z</time></trkpt><trkpt lat="43.8860883" lon="12.7023917"><ele>102.4</ele><time>2026-04-25T13:44:45.532Z</time></trkpt><trkpt lat="43.8861817" lon="12.7023683"><ele>104.60000000000001</ele><time>2026-04-25T13:44:46.531Z</time></trkpt><trkpt lat="43.8862733" lon="12.702335"><ele>106.80000000000001</ele><time>2026-04-25T13:44:47.535Z</time></trkpt><trkpt lat="43.886365" lon="12.7022933"><ele>109.0</ele><time>2026-04-25T13:44:48.531Z</time></trkpt><trkpt lat="43.8864583" lon="12.7022467"><ele>109.0</ele><time>2026-04-25T13:44:49.533Z</time></trkpt><trkpt lat="43.8865533" lon="12.7021917"><ele>109.0</ele><time>2026-04-25T13:44:50.532Z</time></trkpt><trkpt lat="43.886645" lon="12.7021333"><ele>109.0</ele><time>2026-04-25T13:44:51.534Z</time></trkpt><trkpt lat="43.8867317" lon="12.7020767"><ele>109.0</ele><time>2026-04-25T13:44:52.531Z</time></trkpt><trkpt lat="43.8868133" lon="12.702025"><ele>109.0</ele><time>2026-04-25T13:44:53.534Z</time></trkpt><trkpt lat="43.886975" lon="12.7019667"><ele>109.66666666666667</ele><time>2026-04-25T13:44:55.533Z</time></trkpt><trkpt lat="43.887055" lon="12.7019433"><ele>110.33333333333334</ele><time>2026-04-25T13:44:56.534Z</time></trkpt><trkpt lat="43.8871367" lon="12.701905"><ele>111.0</ele><time>2026-04-25T13:44:57.531Z</time></trkpt><trkpt lat="43.8872117" lon="12.7018533"><ele>111.66666666666666</ele><time>2026-04-25T13:44:58.533Z</time></trkpt><trkpt lat="43.8872833" lon="12.7017833"><ele>112.33333333333333</ele><time>2026-04-25T13:44:59.534Z</time></trkpt><trkpt lat="43.8873517" lon="12.7017017"><ele>113.0</ele><time>2026-04-25T13:45:00.531Z</time></trkpt><trkpt lat="43.8874183" lon="12.7016133"><ele>114.2</ele><time>2026-04-25T13:45:01.533Z</time></trkpt><trkpt lat="43.88749" lon="12.701525"><ele>115.4</ele><time>2026-04-25T13:45:02.535Z</time></trkpt><trkpt lat="43.8875683" lon="12.7014317"><ele>116.60000000000001</ele><time>2026-04-25T13:45:03.534Z</time></trkpt><trkpt lat="43.8876483" lon="12.7013417"><ele>117.80000000000001</ele><time>2026-04-25T13:45:04.533Z</time></trkpt><trkpt lat="43.8877283" lon="12.7012617"><ele>119.0</ele><time>2026-04-25T13:45:05.533Z</time></trkpt><trkpt lat="43.8878083" lon="12.701185"><ele>119.4</ele><time>2026-04-25T13:45:06.53Z</time></trkpt><trkpt lat="43.887885" lon="12.7011067"><ele>119.80000000000001</ele><time>2026-04-25T13:45:07.533Z</time></trkpt><trkpt lat="43.8879533" lon="12.701025"><ele>120.19999999999999</ele><time>2026-04-25T13:45:08.529Z</time></trkpt><trkpt lat="43.8880233" lon="12.7009433"><ele>120.6</ele><time>2026-04-25T13:45:09.53Z</time></trkpt><trkpt lat="43.8880983" lon="12.7008583"><ele>121.0</ele><time>2026-04-25T13:45:10.531Z</time></trkpt><trkpt lat="43.88818" lon="12.7007733"><ele>122.0</ele><time>2026-04-25T13:45:11.531Z</time></trkpt><trkpt lat="43.8882617" lon="12.700685"><ele>123.0</ele><time>2026-04-25T13:45:12.531Z</time></trkpt><trkpt lat="43.8883467" lon="12.7005917"><ele>124.0</ele><time>2026-04-25T13:45:13.531Z</time></trkpt><trkpt lat="43.88843" lon="12.7004967"><ele>125.0</ele><time>2026-04-25T13:45:14.531Z</time></trkpt><trkpt lat="43.888605" lon="12.7003117"><ele>126.8</ele><time>2026-04-25T13:45:16.531Z</time></trkpt><trkpt lat="43.8886833" lon="12.7002283"><ele>128.6</ele><time>2026-04-25T13:45:17.531Z</time></trkpt><trkpt lat="43.8887483" lon="12.7001617"><ele>130.4</ele><time>2026-04-25T13:45:18.53Z</time></trkpt><trkpt lat="43.88883" lon="12.700065"><ele>132.2</ele><time>2026-04-25T13:45:20.533Z</time></trkpt><trkpt lat="43.8889" lon="12.7000067"><ele>134.0</ele><time>2026-04-25T13:45:26.53Z</time></trkpt><trkpt lat="43.888985" lon="12.7000033"><ele>134.0</ele><time>2026-04-25T13:45:28.531Z</time></trkpt><trkpt lat="43.8890867" lon="12.7000017"><ele>134.0</ele><time>2026-04-25T13:45:30.533Z</time></trkpt><trkpt lat="43.8892067" lon="12.69999"><ele>134.0</ele><time>2026-04-25T13:45:32.532Z</time></trkpt><trkpt lat="43.8892783" lon="12.6999833"><ele>134.0</ele><time>2026-04-25T13:45:33.532Z</time></trkpt><trkpt lat="43.8893483" lon="12.6999767"><ele>134.0</ele><time>2026-04-25T13:45:34.532Z</time></trkpt><trkpt lat="43.889425" lon="12.6999717"><ele>134.0</ele><time>2026-04-25T13:45:35.531Z</time></trkpt><trkpt lat="43.88958" lon="12.69997"><ele>133.71428571428572</ele><time>2026-04-25T13:45:37.531Z</time></trkpt><trkpt lat="43.8896583" lon="12.6999717"><ele>133.42857142857142</ele><time>2026-04-25T13:45:38.534Z</time></trkpt><trkpt lat="43.889735" lon="12.6999717"><ele>133.14285714285714</ele><time>2026-04-25T13:45:39.535Z</time></trkpt><trkpt lat="43.8898083" lon="12.6999667"><ele>132.85714285714286</ele><time>2026-04-25T13:45:40.53Z</time></trkpt><trkpt lat="43.8898767" lon="12.6999633"><ele>132.57142857142858</ele><time>2026-04-25T13:45:41.53Z</time></trkpt><trkpt lat="43.889945" lon="12.6999583"><ele>132.28571428571428</ele><time>2026-04-25T13:45:42.53Z</time></trkpt><trkpt lat="43.8900083" lon="12.699945"><ele>132.0</ele><time>2026-04-25T13:45:43.535Z</time></trkpt><trkpt lat="43.8901283" lon="12.6999067"><ele>131.66666666666666</ele><time>2026-04-25T13:45:45.534Z</time></trkpt><trkpt lat="43.89019" lon="12.6998883"><ele>131.33333333333334</ele><time>2026-04-25T13:45:46.531Z</time></trkpt><trkpt lat="43.8903083" lon="12.6998583"><ele>131.0</ele><time>2026-04-25T13:45:48.532Z</time></trkpt><trkpt lat="43.8904333" lon="12.6998267"><ele>130.66666666666669</ele><time>2026-04-25T13:45:50.53Z</time></trkpt><trkpt lat="43.8904983" lon="12.6998083"><ele>130.33333333333334</ele><time>2026-04-25T13:45:51.531Z</time></trkpt><trkpt lat="43.8905617" lon="12.69979"><ele>130.0</ele><time>2026-04-25T13:45:52.53Z</time></trkpt><trkpt lat="43.8906733" lon="12.6997567"><ele>130.0</ele><time>2026-04-25T13:45:54.533Z</time></trkpt><trkpt lat="43.890775" lon="12.69972"><ele>130.0</ele><time>2026-04-25T13:45:56.531Z</time></trkpt><trkpt lat="43.890985" lon="12.699655"><ele>130.0</ele><time>2026-04-25T13:46:00.532Z</time></trkpt><trkpt lat="43.89108" lon="12.6996267"><ele>130.0</ele><time>2026-04-25T13:46:02.53Z</time></trkpt><trkpt lat="43.8911817" lon="12.6996017"><ele>129.66666666666669</ele><time>2026-04-25T13:46:04.531Z</time></trkpt><trkpt lat="43.8912817" lon="12.6995733"><ele>129.33333333333334</ele><time>2026-04-25T13:46:06.53Z</time></trkpt><trkpt lat="43.8913933" lon="12.6995367"><ele>129.0</ele><time>2026-04-25T13:46:08.531Z</time></trkpt><trkpt lat="43.8914617" lon="12.6995167"><ele>128.66666666666666</ele><time>2026-04-25T13:46:09.53Z</time></trkpt><trkpt lat="43.89153" lon="12.6995017"><ele>128.33333333333331</ele><time>2026-04-25T13:46:10.534Z</time></trkpt><trkpt lat="43.8915983" lon="12.6994833"><ele>128.0</ele><time>2026-04-25T13:46:11.532Z</time></trkpt><trkpt lat="43.8916733" lon="12.699465"><ele>127.99999999999999</ele><time>2026-04-25T13:46:12.531Z</time></trkpt><trkpt lat="43.8917467" lon="12.699445"><ele>128.0</ele><time>2026-04-25T13:46:13.535Z</time></trkpt><trkpt lat="43.8918233" lon="12.6994267"><ele>128.0</ele><time>2026-04-25T13:46:14.534Z</time></trkpt><trkpt lat="43.8918967" lon="12.6994033"><ele>128.0</ele><time>2026-04-25T13:46:15.531Z</time></trkpt><trkpt lat="43.89197" lon="12.6993817"><ele>127.99999999999999</ele><time>2026-04-25T13:46:16.531Z</time></trkpt><trkpt lat="43.8920383" lon="12.69936"><ele>128.0</ele><time>2026-04-25T13:46:17.532Z</time></trkpt><trkpt lat="43.8921683" lon="12.6993183"><ele>128.5</ele><time>2026-04-25T13:46:19.531Z</time></trkpt><trkpt lat="43.892235" lon="12.6993"><ele>129.0</ele><time>2026-04-25T13:46:20.53Z</time></trkpt><trkpt lat="43.8923067" lon="12.6992767"><ele>129.5</ele><time>2026-04-25T13:46:21.531Z</time></trkpt><trkpt lat="43.8923817" lon="12.6992517"><ele>130.0</ele><time>2026-04-25T13:46:22.532Z</time></trkpt><trkpt lat="43.8924567" lon="12.6992283"><ele>130.5</ele><time>2026-04-25T13:46:23.531Z</time></trkpt><trkpt lat="43.892535" lon="12.69921"><ele>131.0</ele><time>2026-04-25T13:46:24.532Z</time></trkpt><trkpt lat="43.8926217" lon="12.699195"><ele>131.0</ele><time>2026-04-25T13:46:25.532Z</time></trkpt><trkpt lat="43.8927083" lon="12.699175"><ele>131.0</ele><time>2026-04-25T13:46:26.53Z</time></trkpt><trkpt lat="43.8928" lon="12.69915"><ele>131.0</ele><time>2026-04-25T13:46:27.53Z</time></trkpt><trkpt lat="43.8928933" lon="12.69912"><ele>131.0</ele><time>2026-04-25T13:46:28.533Z</time></trkpt><trkpt lat="43.8929867" lon="12.6990917"><ele>131.0</ele><time>2026-04-25T13:46:29.532Z</time></trkpt><trkpt lat="43.893075" lon="12.6990533"><ele>131.0</ele><time>2026-04-25T13:46:30.531Z</time></trkpt><trkpt lat="43.8931583" lon="12.699015"><ele>131.0</ele><time>2026-04-25T13:46:31.531Z</time></trkpt><trkpt lat="43.8932317" lon="12.6989767"><ele>131.0</ele><time>2026-04-25T13:46:32.531Z</time></trkpt><trkpt lat="43.8932967" lon="12.698935"><ele>131.0</ele><time>2026-04-25T13:46:33.532Z</time></trkpt><trkpt lat="43.893355" lon="12.6988867"><ele>131.0</ele><time>2026-04-25T13:46:34.532Z</time></trkpt><trkpt lat="43.89342" lon="12.6988417"><ele>131.0</ele><time>2026-04-25T13:46:35.531Z</time></trkpt><trkpt lat="43.8934883" lon="12.69879"><ele>130.75</ele><time>2026-04-25T13:46:36.533Z</time></trkpt><trkpt lat="43.8935583" lon="12.6987217"><ele>130.5</ele><time>2026-04-25T13:46:37.535Z</time></trkpt><trkpt lat="43.8936317" lon="12.6986317"><ele>130.25</ele><time>2026-04-25T13:46:38.534Z</time></trkpt><trkpt lat="43.893795" lon="12.6983917"><ele>130.0</ele><time>2026-04-25T13:46:40.533Z</time></trkpt><trkpt lat="43.893885" lon="12.69826"><ele>132.5</ele><time>2026-04-25T13:46:41.533Z</time></trkpt><trkpt lat="43.8939767" lon="12.6981267"><ele>135.0</ele><time>2026-04-25T13:46:42.53Z</time></trkpt><trkpt lat="43.8940717" lon="12.69799"><ele>137.5</ele><time>2026-04-25T13:46:43.532Z</time></trkpt><trkpt lat="43.8941667" lon="12.697855"><ele>140.0</ele><time>2026-04-25T13:46:44.534Z</time></trkpt><trkpt lat="43.894265" lon="12.69773"><ele>143.75</ele><time>2026-04-25T13:46:45.532Z</time></trkpt><trkpt lat="43.89436" lon="12.6976117"><ele>147.5</ele><time>2026-04-25T13:46:46.532Z</time></trkpt><trkpt lat="43.8944583" lon="12.6975033"><ele>151.25</ele><time>2026-04-25T13:46:47.53Z</time></trkpt><trkpt lat="43.894565" lon="12.6974033"><ele>155.0</ele><time>2026-04-25T13:46:48.532Z</time></trkpt><trkpt lat="43.8946733" lon="12.697305"><ele>155.0</ele><time>2026-04-25T13:46:49.535Z</time></trkpt><trkpt lat="43.8947767" lon="12.6972233"><ele>155.0</ele><time>2026-04-25T13:46:50.531Z</time></trkpt><trkpt lat="43.8948717" lon="12.69716"><ele>155.0</ele><time>2026-04-25T13:46:51.532Z</time></trkpt><trkpt lat="43.894965" lon="12.6971117"><ele>155.0</ele><time>2026-04-25T13:46:52.534Z</time></trkpt><trkpt lat="43.895065" lon="12.6970717"><ele>155.0</ele><time>2026-04-25T13:46:53.53Z</time></trkpt><trkpt lat="43.895175" lon="12.6970317"><ele>155.5</ele><time>2026-04-25T13:46:54.533Z</time></trkpt><trkpt lat="43.8952917" lon="12.6969817"><ele>156.0</ele><time>2026-04-25T13:46:55.534Z</time></trkpt><trkpt lat="43.8954067" lon="12.6969317"><ele>156.5</ele><time>2026-04-25T13:46:56.53Z</time></trkpt><trkpt lat="43.8955167" lon="12.69689"><ele>157.0</ele><time>2026-04-25T13:46:57.533Z</time></trkpt><trkpt lat="43.8956217" lon="12.6968767"><ele>159.0</ele><time>2026-04-25T13:46:58.533Z</time></trkpt><trkpt lat="43.895725" lon="12.69689"><ele>161.0</ele><time>2026-04-25T13:46:59.533Z</time></trkpt><trkpt lat="43.8959317" lon="12.6969467"><ele>163.0</ele><time>2026-04-25T13:47:01.534Z</time></trkpt><trkpt lat="43.896035" lon="12.6969633"><ele>165.0</ele><time>2026-04-25T13:47:02.534Z</time></trkpt><trkpt lat="43.896135" lon="12.6969667"><ele>165.5</ele><time>2026-04-25T13:47:03.533Z</time></trkpt><trkpt lat="43.89623" lon="12.6969567"><ele>166.0</ele><time>2026-04-25T13:47:04.531Z</time></trkpt><trkpt lat="43.896315" lon="12.696925"><ele>166.5</ele><time>2026-04-25T13:47:05.532Z</time></trkpt><trkpt lat="43.8963967" lon="12.6968717"><ele>167.0</ele><time>2026-04-25T13:47:06.532Z</time></trkpt><trkpt lat="43.8964683" lon="12.6968067"><ele>167.5</ele><time>2026-04-25T13:47:07.534Z</time></trkpt><trkpt lat="43.8965367" lon="12.6967467"><ele>168.0</ele><time>2026-04-25T13:47:08.53Z</time></trkpt><trkpt lat="43.8966133" lon="12.6966883"><ele>168.0</ele><time>2026-04-25T13:47:09.53Z</time></trkpt><trkpt lat="43.8967" lon="12.6966267"><ele>168.0</ele><time>2026-04-25T13:47:10.532Z</time></trkpt><trkpt lat="43.8967833" lon="12.6965617"><ele>168.0</ele><time>2026-04-25T13:47:11.532Z</time></trkpt><trkpt lat="43.8968583" lon="12.6964867"><ele>168.0</ele><time>2026-04-25T13:47:12.535Z</time></trkpt><trkpt lat="43.8969283" lon="12.6963983"><ele>168.0</ele><time>2026-04-25T13:47:13.533Z</time></trkpt><trkpt lat="43.8969883" lon="12.696295"><ele>167.4</ele><time>2026-04-25T13:47:14.534Z</time></trkpt><trkpt lat="43.897045" lon="12.6961767"><ele>166.8</ele><time>2026-04-25T13:47:15.533Z</time></trkpt><trkpt lat="43.8971017" lon="12.6960533"><ele>166.2</ele><time>2026-04-25T13:47:16.532Z</time></trkpt><trkpt lat="43.897165" lon="12.6959267"><ele>165.6</ele><time>2026-04-25T13:47:17.532Z</time></trkpt><trkpt lat="43.8972167" lon="12.6958067"><ele>165.0</ele><time>2026-04-25T13:47:18.531Z</time></trkpt><trkpt lat="43.8972617" lon="12.69569"><ele>165.0</ele><time>2026-04-25T13:47:19.535Z</time></trkpt><trkpt lat="43.89729" lon="12.6955733"><ele>165.0</ele><time>2026-04-25T13:47:20.533Z</time></trkpt><trkpt lat="43.8972933" lon="12.6953067"><ele>165.0</ele><time>2026-04-25T13:47:22.532Z</time></trkpt><trkpt lat="43.8972833" lon="12.6951667"><ele>165.0</ele><time>2026-04-25T13:47:23.533Z</time></trkpt><trkpt lat="43.8972767" lon="12.6950383"><ele>163.83333333333334</ele><time>2026-04-25T13:47:24.536Z</time></trkpt><trkpt lat="43.897275" lon="12.694915"><ele>162.66666666666666</ele><time>2026-04-25T13:47:25.535Z</time></trkpt><trkpt lat="43.897275" lon="12.6947967"><ele>161.5</ele><time>2026-04-25T13:47:26.535Z</time></trkpt><trkpt lat="43.89727" lon="12.6946883"><ele>160.33333333333331</ele><time>2026-04-25T13:47:27.53Z</time></trkpt><trkpt lat="43.8972667" lon="12.6945967"><ele>159.16666666666666</ele><time>2026-04-25T13:47:28.531Z</time></trkpt><trkpt lat="43.8972933" lon="12.69447"><ele>158.0</ele><time>2026-04-25T13:47:30.532Z</time></trkpt><trkpt lat="43.89739" lon="12.6945517"><ele>158.0</ele><time>2026-04-25T13:47:33.531Z</time></trkpt><trkpt lat="43.8974533" lon="12.69467"><ele>158.0</ele><time>2026-04-25T13:47:34.532Z</time></trkpt><trkpt lat="43.89752" lon="12.6947883"><ele>158.0</ele><time>2026-04-25T13:47:35.535Z</time></trkpt><trkpt lat="43.8976217" lon="12.6949517"><ele>158.0</ele><time>2026-04-25T13:47:36.533Z</time></trkpt><trkpt lat="43.897725" lon="12.6951117"><ele>157.33333333333331</ele><time>2026-04-25T13:47:37.535Z</time></trkpt><trkpt lat="43.8978333" lon="12.6952767"><ele>156.66666666666666</ele><time>2026-04-25T13:47:38.533Z</time></trkpt><trkpt lat="43.8979467" lon="12.695435"><ele>156.0</ele><time>2026-04-25T13:47:39.533Z</time></trkpt><trkpt lat="43.898065" lon="12.695585"><ele>156.0</ele><time>2026-04-25T13:47:40.531Z</time></trkpt><trkpt lat="43.8982" lon="12.6957267"><ele>156.0</ele><time>2026-04-25T13:47:41.532Z</time></trkpt><trkpt lat="43.8985067" lon="12.696"><ele>157.33333333333334</ele><time>2026-04-25T13:47:43.535Z</time></trkpt><trkpt lat="43.8986667" lon="12.6961317"><ele>158.66666666666669</ele><time>2026-04-25T13:47:44.534Z</time></trkpt><trkpt lat="43.8988283" lon="12.6962467"><ele>160.0</ele><time>2026-04-25T13:47:45.537Z</time></trkpt><trkpt lat="43.8989817" lon="12.69634"><ele>160.0</ele><time>2026-04-25T13:47:46.532Z</time></trkpt><trkpt lat="43.8991267" lon="12.6964183"><ele>160.0</ele><time>2026-04-25T13:47:47.533Z</time></trkpt><trkpt lat="43.899255" lon="12.69649"><ele>160.0</ele><time>2026-04-25T13:47:48.532Z</time></trkpt><trkpt lat="43.899365" lon="12.6965633"><ele>160.0</ele><time>2026-04-25T13:47:49.532Z</time></trkpt><trkpt lat="43.8994517" lon="12.6966367"><ele>158.83333333333334</ele><time>2026-04-25T13:47:50.532Z</time></trkpt><trkpt lat="43.8995117" lon="12.6967183"><ele>157.66666666666669</ele><time>2026-04-25T13:47:51.531Z</time></trkpt><trkpt lat="43.8995483" lon="12.69679"><ele>156.5</ele><time>2026-04-25T13:47:52.532Z</time></trkpt><trkpt lat="43.8996367" lon="12.696895"><ele>155.33333333333334</ele><time>2026-04-25T13:47:54.534Z</time></trkpt><trkpt lat="43.89971" lon="12.696915"><ele>154.16666666666666</ele><time>2026-04-25T13:47:55.533Z</time></trkpt><trkpt lat="43.8998117" lon="12.6969067"><ele>153.0</ele><time>2026-04-25T13:47:56.534Z</time></trkpt><trkpt lat="43.8999267" lon="12.6968933"><ele>153.0</ele><time>2026-04-25T13:47:57.532Z</time></trkpt><trkpt lat="43.9000467" lon="12.6968817"><ele>153.0</ele><time>2026-04-25T13:47:58.532Z</time></trkpt><trkpt lat="43.90017" lon="12.69688"><ele>153.0</ele><time>2026-04-25T13:47:59.532Z</time></trkpt><trkpt lat="43.9002983" lon="12.6968833"><ele>153.0</ele><time>2026-04-25T13:48:00.535Z</time></trkpt><trkpt lat="43.90043" lon="12.6968817"><ele>151.33333333333334</ele><time>2026-04-25T13:48:01.534Z</time></trkpt><trkpt lat="43.9005667" lon="12.6968833"><ele>149.66666666666669</ele><time>2026-04-25T13:48:02.534Z</time></trkpt><trkpt lat="43.9008517" lon="12.6969033"><ele>148.0</ele><time>2026-04-25T13:48:04.534Z</time></trkpt><trkpt lat="43.9010033" lon="12.6969283"><ele>146.33333333333334</ele><time>2026-04-25T13:48:05.534Z</time></trkpt><trkpt lat="43.9011617" lon="12.69696"><ele>144.66666666666666</ele><time>2026-04-25T13:48:06.536Z</time></trkpt><trkpt lat="43.9013233" lon="12.6970017"><ele>143.0</ele><time>2026-04-25T13:48:07.538Z</time></trkpt><trkpt lat="43.9014917" lon="12.697055"><ele>143.0</ele><time>2026-04-25T13:48:08.534Z</time></trkpt><trkpt lat="43.90166" lon="12.6971083"><ele>143.0</ele><time>2026-04-25T13:48:09.53Z</time></trkpt><trkpt lat="43.9018233" lon="12.6971583"><ele>143.0</ele><time>2026-04-25T13:48:10.532Z</time></trkpt><trkpt lat="43.90198" lon="12.6972"><ele>141.66666666666666</ele><time>2026-04-25T13:48:11.534Z</time></trkpt><trkpt lat="43.9021367" lon="12.6972283"><ele>140.33333333333334</ele><time>2026-04-25T13:48:12.534Z</time></trkpt><trkpt lat="43.9022933" lon="12.697225"><ele>139.0</ele><time>2026-04-25T13:48:13.532Z</time></trkpt><trkpt lat="43.9024517" lon="12.6971883"><ele>140.0</ele><time>2026-04-25T13:48:14.534Z</time></trkpt><trkpt lat="43.9026133" lon="12.6971217"><ele>141.0</ele><time>2026-04-25T13:48:15.534Z</time></trkpt><trkpt lat="43.90277" lon="12.6970467"><ele>142.0</ele><time>2026-04-25T13:48:16.531Z</time></trkpt><trkpt lat="43.902925" lon="12.69697"><ele>142.33333333333334</ele><time>2026-04-25T13:48:17.532Z</time></trkpt><trkpt lat="43.9030767" lon="12.696915"><ele>142.66666666666666</ele><time>2026-04-25T13:48:18.532Z</time></trkpt><trkpt lat="43.9032367" lon="12.6968733"><ele>143.0</ele><time>2026-04-25T13:48:19.531Z</time></trkpt><trkpt lat="43.9034033" lon="12.6968533"><ele>144.66666666666666</ele><time>2026-04-25T13:48:20.531Z</time></trkpt><trkpt lat="43.9035633" lon="12.6968317"><ele>146.33333333333334</ele><time>2026-04-25T13:48:21.534Z</time></trkpt><trkpt lat="43.903725" lon="12.6967967"><ele>148.0</ele><time>2026-04-25T13:48:22.532Z</time></trkpt><trkpt lat="43.9038717" lon="12.6967583"><ele>148.0</ele><time>2026-04-25T13:48:23.534Z</time></trkpt><trkpt lat="43.904145" lon="12.6967283"><ele>148.0</ele><time>2026-04-25T13:48:25.532Z</time></trkpt><trkpt lat="43.9042783" lon="12.69677"><ele>148.0</ele><time>2026-04-25T13:48:26.533Z</time></trkpt><trkpt lat="43.9044033" lon="12.696845"><ele>149.33333333333334</ele><time>2026-04-25T13:48:27.531Z</time></trkpt><trkpt lat="43.904525" lon="12.6969567"><ele>150.66666666666666</ele><time>2026-04-25T13:48:28.532Z</time></trkpt><trkpt lat="43.904655" lon="12.6971"><ele>152.0</ele><time>2026-04-25T13:48:29.532Z</time></trkpt><trkpt lat="43.9047933" lon="12.6972483"><ele>152.0</ele><time>2026-04-25T13:48:30.534Z</time></trkpt><trkpt lat="43.9049317" lon="12.6973883"><ele>152.0</ele><time>2026-04-25T13:48:31.535Z</time></trkpt><trkpt lat="43.9050767" lon="12.6975283"><ele>152.0</ele><time>2026-04-25T13:48:32.534Z</time></trkpt><trkpt lat="43.9052267" lon="12.6976683"><ele>152.33333333333331</ele><time>2026-04-25T13:48:33.531Z</time></trkpt><trkpt lat="43.9053783" lon="12.6978033"><ele>152.66666666666666</ele><time>2026-04-25T13:48:34.534Z</time></trkpt><trkpt lat="43.90553" lon="12.6979383"><ele>153.0</ele><time>2026-04-25T13:48:35.532Z</time></trkpt><trkpt lat="43.9056833" lon="12.6980767"><ele>153.0</ele><time>2026-04-25T13:48:36.534Z</time></trkpt><trkpt lat="43.9058417" lon="12.6982167"><ele>153.0</ele><time>2026-04-25T13:48:37.534Z</time></trkpt><trkpt lat="43.906" lon="12.698355"><ele>153.0</ele><time>2026-04-25T13:48:38.534Z</time></trkpt><trkpt lat="43.9061533" lon="12.6984867"><ele>152.66666666666666</ele><time>2026-04-25T13:48:39.532Z</time></trkpt><trkpt lat="43.9062967" lon="12.69861"><ele>152.33333333333331</ele><time>2026-04-25T13:48:40.532Z</time></trkpt><trkpt lat="43.9064317" lon="12.698725"><ele>152.0</ele><time>2026-04-25T13:48:41.537Z</time></trkpt><trkpt lat="43.9065617" lon="12.6988333"><ele>152.0</ele><time>2026-04-25T13:48:42.534Z</time></trkpt><trkpt lat="43.9066917" lon="12.6989417"><ele>152.0</ele><time>2026-04-25T13:48:43.534Z</time></trkpt><trkpt lat="43.9068217" lon="12.6990533"><ele>152.0</ele><time>2026-04-25T13:48:44.532Z</time></trkpt><trkpt lat="43.9070683" lon="12.6992667"><ele>150.75</ele><time>2026-04-25T13:48:46.532Z</time></trkpt><trkpt lat="43.9071883" lon="12.6993667"><ele>149.5</ele><time>2026-04-25T13:48:47.532Z</time></trkpt><trkpt lat="43.9073067" lon="12.69947"><ele>148.25</ele><time>2026-04-25T13:48:48.532Z</time></trkpt><trkpt lat="43.9074233" lon="12.6995783"><ele>147.0</ele><time>2026-04-25T13:48:49.533Z</time></trkpt><trkpt lat="43.9075367" lon="12.69969"><ele>147.5</ele><time>2026-04-25T13:48:50.532Z</time></trkpt><trkpt lat="43.907645" lon="12.6998083"><ele>148.0</ele><time>2026-04-25T13:48:51.532Z</time></trkpt><trkpt lat="43.9077467" lon="12.6999367"><ele>148.5</ele><time>2026-04-25T13:48:52.539Z</time></trkpt><trkpt lat="43.9078367" lon="12.7000683"><ele>149.0</ele><time>2026-04-25T13:48:53.534Z</time></trkpt><trkpt lat="43.90792" lon="12.700195"><ele>147.75</ele><time>2026-04-25T13:48:54.534Z</time></trkpt><trkpt lat="43.9079983" lon="12.7003183"><ele>146.5</ele><time>2026-04-25T13:48:55.535Z</time></trkpt><trkpt lat="43.90808" lon="12.700435"><ele>145.25</ele><time>2026-04-25T13:48:56.534Z</time></trkpt><trkpt lat="43.9081633" lon="12.7005383"><ele>144.0</ele><time>2026-04-25T13:48:57.533Z</time></trkpt><trkpt lat="43.908255" lon="12.7006183"><ele>144.0</ele><time>2026-04-25T13:48:58.533Z</time></trkpt><trkpt lat="43.9083533" lon="12.7006683"><ele>144.0</ele><time>2026-04-25T13:48:59.533Z</time></trkpt><trkpt lat="43.9084517" lon="12.7006883"><ele>144.0</ele><time>2026-04-25T13:49:00.533Z</time></trkpt><trkpt lat="43.90855" lon="12.7006783"><ele>144.0</ele><time>2026-04-25T13:49:01.53Z</time></trkpt><trkpt lat="43.9086533" lon="12.70064"><ele>144.0</ele><time>2026-04-25T13:49:02.53Z</time></trkpt><trkpt lat="43.90876" lon="12.700575"><ele>144.0</ele><time>2026-04-25T13:49:03.532Z</time></trkpt><trkpt lat="43.908865" lon="12.7004967"><ele>144.0</ele><time>2026-04-25T13:49:04.53Z</time></trkpt><trkpt lat="43.908965" lon="12.70042"><ele>144.0</ele><time>2026-04-25T13:49:05.53Z</time></trkpt><trkpt lat="43.9091483" lon="12.7002933"><ele>144.0</ele><time>2026-04-25T13:49:07.531Z</time></trkpt><trkpt lat="43.909225" lon="12.7002367"><ele>141.66666666666666</ele><time>2026-04-25T13:49:08.531Z</time></trkpt><trkpt lat="43.9092933" lon="12.7001817"><ele>139.33333333333334</ele><time>2026-04-25T13:49:09.534Z</time></trkpt><trkpt lat="43.909355" lon="12.700135"><ele>137.0</ele><time>2026-04-25T13:49:10.531Z</time></trkpt><trkpt lat="43.909455" lon="12.7000583"><ele>134.66666666666669</ele><time>2026-04-25T13:49:12.53Z</time></trkpt><trkpt lat="43.9095117" lon="12.7000017"><ele>132.33333333333334</ele><time>2026-04-25T13:49:14.529Z</time></trkpt><trkpt lat="43.9095783" lon="12.6999233"><ele>130.0</ele><time>2026-04-25T13:49:16.531Z</time></trkpt><trkpt lat="43.909655" lon="12.6998167"><ele>130.0</ele><time>2026-04-25T13:49:18.531Z</time></trkpt><trkpt lat="43.9097033" lon="12.6997383"><ele>130.0</ele><time>2026-04-25T13:49:20.531Z</time></trkpt><trkpt lat="43.9096383" lon="12.6997683"><ele>130.0</ele><time>2026-04-25T13:49:25.535Z</time></trkpt><trkpt lat="43.90972" lon="12.6996933"><ele>130.0</ele><time>2026-04-25T13:50:12.531Z</time></trkpt><trkpt lat="43.9098333" lon="12.6995283"><ele>130.0</ele><time>2026-04-25T13:50:14.533Z</time></trkpt><trkpt lat="43.9099117" lon="12.69941"><ele>131.25</ele><time>2026-04-25T13:50:15.531Z</time></trkpt><trkpt lat="43.9100067" lon="12.6992717"><ele>132.5</ele><time>2026-04-25T13:50:16.534Z</time></trkpt><trkpt lat="43.910105" lon="12.6991267"><ele>133.75</ele><time>2026-04-25T13:50:17.533Z</time></trkpt><trkpt lat="43.9102" lon="12.698985"><ele>135.0</ele><time>2026-04-25T13:50:18.533Z</time></trkpt><trkpt lat="43.9102867" lon="12.6988533"><ele>133.0</ele><time>2026-04-25T13:50:19.534Z</time></trkpt><trkpt lat="43.9103683" lon="12.6987317"><ele>131.0</ele><time>2026-04-25T13:50:20.536Z</time></trkpt><trkpt lat="43.9104483" lon="12.6986083"><ele>129.0</ele><time>2026-04-25T13:50:21.533Z</time></trkpt><trkpt lat="43.9105317" lon="12.698485"><ele>127.0</ele><time>2026-04-25T13:50:22.532Z</time></trkpt><trkpt lat="43.9106167" lon="12.6983533"><ele>127.0</ele><time>2026-04-25T13:50:23.534Z</time></trkpt><trkpt lat="43.910705" lon="12.6982167"><ele>127.0</ele><time>2026-04-25T13:50:24.533Z</time></trkpt><trkpt lat="43.910795" lon="12.69808"><ele>127.0</ele><time>2026-04-25T13:50:25.531Z</time></trkpt><trkpt lat="43.9108867" lon="12.697945"><ele>127.0</ele><time>2026-04-25T13:50:26.53Z</time></trkpt><trkpt lat="43.9109783" lon="12.6978083"><ele>127.0</ele><time>2026-04-25T13:50:27.531Z</time></trkpt><trkpt lat="43.9110633" lon="12.697675"><ele>127.0</ele><time>2026-04-25T13:50:28.531Z</time></trkpt><trkpt lat="43.911145" lon="12.6975467"><ele>127.0</ele><time>2026-04-25T13:50:29.53Z</time></trkpt><trkpt lat="43.9112267" lon="12.6974217"><ele>127.0</ele><time>2026-04-25T13:50:30.533Z</time></trkpt><trkpt lat="43.9113083" lon="12.6973017"><ele>127.0</ele><time>2026-04-25T13:50:31.531Z</time></trkpt><trkpt lat="43.9113867" lon="12.697185"><ele>127.0</ele><time>2026-04-25T13:50:32.53Z</time></trkpt><trkpt lat="43.9114767" lon="12.697075"><ele>127.0</ele><time>2026-04-25T13:50:33.531Z</time></trkpt><trkpt lat="43.9117" lon="12.6968833"><ele>127.0</ele><time>2026-04-25T13:50:35.53Z</time></trkpt><trkpt lat="43.9118433" lon="12.696795"><ele>127.0</ele><time>2026-04-25T13:50:36.53Z</time></trkpt><trkpt lat="43.9119967" lon="12.6967033"><ele>127.0</ele><time>2026-04-25T13:50:37.534Z</time></trkpt><trkpt lat="43.912155" lon="12.6966033"><ele>127.0</ele><time>2026-04-25T13:50:38.53Z</time></trkpt><trkpt lat="43.9123167" lon="12.6964983"><ele>127.0</ele><time>2026-04-25T13:50:39.53Z</time></trkpt><trkpt lat="43.9124767" lon="12.6963933"><ele>127.0</ele><time>2026-04-25T13:50:40.531Z</time></trkpt><trkpt lat="43.9126283" lon="12.6962933"><ele>127.66666666666667</ele><time>2026-04-25T13:50:41.533Z</time></trkpt><trkpt lat="43.9127733" lon="12.6961967"><ele>128.33333333333334</ele><time>2026-04-25T13:50:42.532Z</time></trkpt><trkpt lat="43.91292" lon="12.6961017"><ele>129.0</ele><time>2026-04-25T13:50:43.532Z</time></trkpt><trkpt lat="43.913065" lon="12.69601"><ele>129.0</ele><time>2026-04-25T13:50:44.531Z</time></trkpt><trkpt lat="43.9132117" lon="12.6959133"><ele>129.0</ele><time>2026-04-25T13:50:45.531Z</time></trkpt><trkpt lat="43.9133567" lon="12.69581"><ele>129.0</ele><time>2026-04-25T13:50:46.531Z</time></trkpt><trkpt lat="43.9135" lon="12.6957"><ele>126.66666666666666</ele><time>2026-04-25T13:50:47.531Z</time></trkpt><trkpt lat="43.91363" lon="12.6955817"><ele>124.33333333333333</ele><time>2026-04-25T13:50:48.531Z</time></trkpt><trkpt lat="43.9137433" lon="12.69545"><ele>122.0</ele><time>2026-04-25T13:50:49.531Z</time></trkpt><trkpt lat="43.9138417" lon="12.6952983"><ele>124.0</ele><time>2026-04-25T13:50:50.53Z</time></trkpt><trkpt lat="43.91393" lon="12.6951267"><ele>126.0</ele><time>2026-04-25T13:50:51.534Z</time></trkpt><trkpt lat="43.914015" lon="12.694945"><ele>128.0</ele><time>2026-04-25T13:50:52.531Z</time></trkpt><trkpt lat="43.9141083" lon="12.694785"><ele>128.0</ele><time>2026-04-25T13:50:53.53Z</time></trkpt><trkpt lat="43.91422" lon="12.6946633"><ele>128.0</ele><time>2026-04-25T13:50:54.53Z</time></trkpt><trkpt lat="43.9144733" lon="12.694475"><ele>128.0</ele><time>2026-04-25T13:50:56.53Z</time></trkpt><trkpt lat="43.9146017" lon="12.6943933"><ele>127.0</ele><time>2026-04-25T13:50:57.532Z</time></trkpt><trkpt lat="43.914725" lon="12.6943217"><ele>126.0</ele><time>2026-04-25T13:50:58.532Z</time></trkpt><trkpt lat="43.9148517" lon="12.69425"><ele>125.0</ele><time>2026-04-25T13:50:59.53Z</time></trkpt><trkpt lat="43.9149867" lon="12.6941733"><ele>124.0</ele><time>2026-04-25T13:51:00.531Z</time></trkpt><trkpt lat="43.9151333" lon="12.694085"><ele>122.0</ele><time>2026-04-25T13:51:01.532Z</time></trkpt><trkpt lat="43.9152883" lon="12.6939967"><ele>120.0</ele><time>2026-04-25T13:51:02.53Z</time></trkpt><trkpt lat="43.9154467" lon="12.693915"><ele>118.0</ele><time>2026-04-25T13:51:03.536Z</time></trkpt><trkpt lat="43.91561" lon="12.693845"><ele>118.0</ele><time>2026-04-25T13:51:04.535Z</time></trkpt><trkpt lat="43.9157783" lon="12.6937967"><ele>118.0</ele><time>2026-04-25T13:51:05.534Z</time></trkpt><trkpt lat="43.9159533" lon="12.693755"><ele>118.0</ele><time>2026-04-25T13:51:06.533Z</time></trkpt><trkpt lat="43.9161333" lon="12.6937167"><ele>117.0</ele><time>2026-04-25T13:51:07.534Z</time></trkpt><trkpt lat="43.9163167" lon="12.6936783"><ele>116.0</ele><time>2026-04-25T13:51:08.534Z</time></trkpt><trkpt lat="43.916505" lon="12.6936383"><ele>115.0</ele><time>2026-04-25T13:51:09.533Z</time></trkpt><trkpt lat="43.9166967" lon="12.6936083"><ele>115.0</ele><time>2026-04-25T13:51:10.534Z</time></trkpt><trkpt lat="43.916885" lon="12.6935883"><ele>115.0</ele><time>2026-04-25T13:51:11.53Z</time></trkpt><trkpt lat="43.9170767" lon="12.6935733"><ele>115.0</ele><time>2026-04-25T13:51:12.531Z</time></trkpt><trkpt lat="43.917275" lon="12.6935667"><ele>115.0</ele><time>2026-04-25T13:51:13.531Z</time></trkpt><trkpt lat="43.9174733" lon="12.693565"><ele>115.0</ele><time>2026-04-25T13:51:14.531Z</time></trkpt><trkpt lat="43.9176733" lon="12.6935733"><ele>115.0</ele><time>2026-04-25T13:51:15.531Z</time></trkpt><trkpt lat="43.9180633" lon="12.6936017"><ele>115.66666666666667</ele><time>2026-04-25T13:51:17.531Z</time></trkpt><trkpt lat="43.918245" lon="12.6936133"><ele>116.33333333333334</ele><time>2026-04-25T13:51:18.531Z</time></trkpt><trkpt lat="43.918425" lon="12.69362"><ele>117.0</ele><time>2026-04-25T13:51:19.531Z</time></trkpt><trkpt lat="43.9186067" lon="12.6936267"><ele>118.33333333333334</ele><time>2026-04-25T13:51:20.531Z</time></trkpt><trkpt lat="43.9187883" lon="12.6936333"><ele>119.66666666666667</ele><time>2026-04-25T13:51:21.533Z</time></trkpt><trkpt lat="43.9189667" lon="12.6936483"><ele>121.0</ele><time>2026-04-25T13:51:22.532Z</time></trkpt><trkpt lat="43.9191317" lon="12.6936783"><ele>121.0</ele><time>2026-04-25T13:51:23.532Z</time></trkpt><trkpt lat="43.9192817" lon="12.69373"><ele>121.0</ele><time>2026-04-25T13:51:24.533Z</time></trkpt><trkpt lat="43.9194283" lon="12.6938033"><ele>121.0</ele><time>2026-04-25T13:51:25.532Z</time></trkpt><trkpt lat="43.9195733" lon="12.6938833"><ele>121.0</ele><time>2026-04-25T13:51:26.531Z</time></trkpt><trkpt lat="43.91973" lon="12.6939567"><ele>121.0</ele><time>2026-04-25T13:51:27.533Z</time></trkpt><trkpt lat="43.919895" lon="12.6940033"><ele>121.0</ele><time>2026-04-25T13:51:28.533Z</time></trkpt><trkpt lat="43.9200617" lon="12.6940317"><ele>120.0</ele><time>2026-04-25T13:51:29.531Z</time></trkpt><trkpt lat="43.9202233" lon="12.6940533"><ele>119.0</ele><time>2026-04-25T13:51:30.532Z</time></trkpt><trkpt lat="43.9203733" lon="12.694075"><ele>118.0</ele><time>2026-04-25T13:51:31.534Z</time></trkpt><trkpt lat="43.92052" lon="12.69411"><ele>118.0</ele><time>2026-04-25T13:51:32.536Z</time></trkpt><trkpt lat="43.9206733" lon="12.69416"><ele>118.0</ele><time>2026-04-25T13:51:33.531Z</time></trkpt><trkpt lat="43.9208333" lon="12.694225"><ele>118.0</ele><time>2026-04-25T13:51:34.533Z</time></trkpt><trkpt lat="43.921005" lon="12.6943017"><ele>117.33333333333334</ele><time>2026-04-25T13:51:35.534Z</time></trkpt><trkpt lat="43.9211767" lon="12.6943817"><ele>116.66666666666666</ele><time>2026-04-25T13:51:36.534Z</time></trkpt><trkpt lat="43.9213433" lon="12.6944633"><ele>116.0</ele><time>2026-04-25T13:51:37.534Z</time></trkpt><trkpt lat="43.9216583" lon="12.6946367"><ele>114.33333333333333</ele><time>2026-04-25T13:51:39.534Z</time></trkpt><trkpt lat="43.9218083" lon="12.694715"><ele>112.66666666666666</ele><time>2026-04-25T13:51:40.533Z</time></trkpt><trkpt lat="43.9219533" lon="12.6947983"><ele>111.0</ele><time>2026-04-25T13:51:41.534Z</time></trkpt><trkpt lat="43.922095" lon="12.694885"><ele>111.0</ele><time>2026-04-25T13:51:42.533Z</time></trkpt><trkpt lat="43.9222283" lon="12.6949833"><ele>111.0</ele><time>2026-04-25T13:51:43.532Z</time></trkpt><trkpt lat="43.9223517" lon="12.6951117"><ele>111.0</ele><time>2026-04-25T13:51:44.533Z</time></trkpt><trkpt lat="43.9224583" lon="12.6952567"><ele>110.5</ele><time>2026-04-25T13:51:45.534Z</time></trkpt><trkpt lat="43.9225583" lon="12.695405"><ele>110.0</ele><time>2026-04-25T13:51:46.535Z</time></trkpt><trkpt lat="43.92266" lon="12.695545"><ele>109.5</ele><time>2026-04-25T13:51:47.531Z</time></trkpt><trkpt lat="43.9227733" lon="12.6956767"><ele>109.0</ele><time>2026-04-25T13:51:48.531Z</time></trkpt><trkpt lat="43.9229017" lon="12.6957883"><ele>109.0</ele><time>2026-04-25T13:51:49.533Z</time></trkpt><trkpt lat="43.9230433" lon="12.6958867"><ele>109.0</ele><time>2026-04-25T13:51:50.532Z</time></trkpt><trkpt lat="43.9231883" lon="12.6959817"><ele>109.0</ele><time>2026-04-25T13:51:51.533Z</time></trkpt><trkpt lat="43.923335" lon="12.6960783"><ele>109.0</ele><time>2026-04-25T13:51:52.531Z</time></trkpt><trkpt lat="43.9234833" lon="12.6961767"><ele>109.0</ele><time>2026-04-25T13:51:53.531Z</time></trkpt><trkpt lat="43.9236317" lon="12.6962767"><ele>109.0</ele><time>2026-04-25T13:51:54.531Z</time></trkpt><trkpt lat="43.9237817" lon="12.6963767"><ele>109.0</ele><time>2026-04-25T13:51:55.533Z</time></trkpt><trkpt lat="43.9239233" lon="12.6964733"><ele>109.0</ele><time>2026-04-25T13:51:56.531Z</time></trkpt><trkpt lat="43.9240567" lon="12.6965633"><ele>109.0</ele><time>2026-04-25T13:51:57.531Z</time></trkpt><trkpt lat="43.92418" lon="12.696655"><ele>109.0</ele><time>2026-04-25T13:51:58.534Z</time></trkpt><trkpt lat="43.9243917" lon="12.6968683"><ele>109.0</ele><time>2026-04-25T13:52:00.533Z</time></trkpt><trkpt lat="43.924485" lon="12.697"><ele>109.0</ele><time>2026-04-25T13:52:01.534Z</time></trkpt><trkpt lat="43.9245733" lon="12.6971433"><ele>109.0</ele><time>2026-04-25T13:52:02.535Z</time></trkpt><trkpt lat="43.9246567" lon="12.6973033"><ele>109.0</ele><time>2026-04-25T13:52:03.533Z</time></trkpt><trkpt lat="43.9247333" lon="12.6974767"><ele>109.0</ele><time>2026-04-25T13:52:04.535Z</time></trkpt><trkpt lat="43.9248" lon="12.6976567"><ele>109.0</ele><time>2026-04-25T13:52:05.533Z</time></trkpt><trkpt lat="43.92486" lon="12.6978467"><ele>109.0</ele><time>2026-04-25T13:52:06.533Z</time></trkpt><trkpt lat="43.924915" lon="12.6980467"><ele>109.0</ele><time>2026-04-25T13:52:07.531Z</time></trkpt><trkpt lat="43.9249733" lon="12.69825"><ele>109.33333333333334</ele><time>2026-04-25T13:52:08.531Z</time></trkpt><trkpt lat="43.9250317" lon="12.69846"><ele>109.66666666666666</ele><time>2026-04-25T13:52:09.532Z</time></trkpt><trkpt lat="43.9250933" lon="12.6986733"><ele>110.0</ele><time>2026-04-25T13:52:10.531Z</time></trkpt><trkpt lat="43.925155" lon="12.6988867"><ele>109.33333333333333</ele><time>2026-04-25T13:52:11.535Z</time></trkpt><trkpt lat="43.925225" lon="12.6990933"><ele>108.66666666666666</ele><time>2026-04-25T13:52:12.534Z</time></trkpt><trkpt lat="43.925305" lon="12.6992867"><ele>108.0</ele><time>2026-04-25T13:52:13.535Z</time></trkpt><trkpt lat="43.92539" lon="12.69947"><ele>108.0</ele><time>2026-04-25T13:52:14.536Z</time></trkpt><trkpt lat="43.9254767" lon="12.6996467"><ele>108.0</ele><time>2026-04-25T13:52:15.534Z</time></trkpt><trkpt lat="43.9255633" lon="12.6998267"><ele>108.0</ele><time>2026-04-25T13:52:16.531Z</time></trkpt><trkpt lat="43.9256483" lon="12.7000083"><ele>108.0</ele><time>2026-04-25T13:52:17.532Z</time></trkpt><trkpt lat="43.925725" lon="12.7001933"><ele>108.0</ele><time>2026-04-25T13:52:18.534Z</time></trkpt><trkpt lat="43.9257933" lon="12.7003783"><ele>108.0</ele><time>2026-04-25T13:52:19.532Z</time></trkpt><trkpt lat="43.9259133" lon="12.70075"><ele>108.0</ele><time>2026-04-25T13:52:21.531Z</time></trkpt><trkpt lat="43.925975" lon="12.7009333"><ele>108.0</ele><time>2026-04-25T13:52:22.533Z</time></trkpt><trkpt lat="43.9260333" lon="12.7011083"><ele>108.0</ele><time>2026-04-25T13:52:23.533Z</time></trkpt><trkpt lat="43.926095" lon="12.7012683"><ele>108.0</ele><time>2026-04-25T13:52:24.532Z</time></trkpt><trkpt lat="43.9261683" lon="12.7014117"><ele>108.0</ele><time>2026-04-25T13:52:25.532Z</time></trkpt><trkpt lat="43.92626" lon="12.70155"><ele>108.0</ele><time>2026-04-25T13:52:26.533Z</time></trkpt><trkpt lat="43.92637" lon="12.7016867"><ele>108.0</ele><time>2026-04-25T13:52:27.532Z</time></trkpt><trkpt lat="43.9264883" lon="12.7018267"><ele>108.0</ele><time>2026-04-25T13:52:28.532Z</time></trkpt><trkpt lat="43.92661" lon="12.70197"><ele>106.0</ele><time>2026-04-25T13:52:29.532Z</time></trkpt><trkpt lat="43.9267383" lon="12.7021183"><ele>104.0</ele><time>2026-04-25T13:52:30.535Z</time></trkpt><trkpt lat="43.92687" lon="12.7022583"><ele>102.0</ele><time>2026-04-25T13:52:31.536Z</time></trkpt><trkpt lat="43.9269983" lon="12.7023883"><ele>102.0</ele><time>2026-04-25T13:52:32.533Z</time></trkpt><trkpt lat="43.927125" lon="12.7025083"><ele>102.0</ele><time>2026-04-25T13:52:33.532Z</time></trkpt><trkpt lat="43.9272517" lon="12.7026233"><ele>102.0</ele><time>2026-04-25T13:52:34.535Z</time></trkpt><trkpt lat="43.9273667" lon="12.7027417"><ele>102.0</ele><time>2026-04-25T13:52:35.534Z</time></trkpt><trkpt lat="43.9274833" lon="12.70287"><ele>100.0</ele><time>2026-04-25T13:52:36.533Z</time></trkpt><trkpt lat="43.9275967" lon="12.7030183"><ele>98.0</ele><time>2026-04-25T13:52:37.534Z</time></trkpt><trkpt lat="43.9277033" lon="12.7031733"><ele>96.0</ele><time>2026-04-25T13:52:38.533Z</time></trkpt><trkpt lat="43.92781" lon="12.703325"><ele>96.0</ele><time>2026-04-25T13:52:39.534Z</time></trkpt><trkpt lat="43.9279167" lon="12.7034717"><ele>96.0</ele><time>2026-04-25T13:52:40.534Z</time></trkpt><trkpt lat="43.9281483" lon="12.70376"><ele>96.33333333333334</ele><time>2026-04-25T13:52:42.534Z</time></trkpt><trkpt lat="43.9282767" lon="12.7038933"><ele>96.66666666666667</ele><time>2026-04-25T13:52:43.535Z</time></trkpt><trkpt lat="43.9284117" lon="12.7040217"><ele>97.0</ele><time>2026-04-25T13:52:44.535Z</time></trkpt><trkpt lat="43.9285483" lon="12.7041433"><ele>97.25</ele><time>2026-04-25T13:52:45.532Z</time></trkpt><trkpt lat="43.92868" lon="12.704255"><ele>97.5</ele><time>2026-04-25T13:52:46.534Z</time></trkpt><trkpt lat="43.9288067" lon="12.704365"><ele>97.75</ele><time>2026-04-25T13:52:47.532Z</time></trkpt><trkpt lat="43.928925" lon="12.7044767"><ele>98.0</ele><time>2026-04-25T13:52:48.53Z</time></trkpt><trkpt lat="43.9290283" lon="12.7045983"><ele>98.0</ele><time>2026-04-25T13:52:49.532Z</time></trkpt><trkpt lat="43.92912" lon="12.7047383"><ele>98.0</ele><time>2026-04-25T13:52:50.53Z</time></trkpt><trkpt lat="43.9291983" lon="12.7048983"><ele>98.0</ele><time>2026-04-25T13:52:51.531Z</time></trkpt><trkpt lat="43.9292633" lon="12.7050867"><ele>98.0</ele><time>2026-04-25T13:52:52.53Z</time></trkpt><trkpt lat="43.929325" lon="12.7052733"><ele>98.25</ele><time>2026-04-25T13:52:53.531Z</time></trkpt><trkpt lat="43.92939" lon="12.705445"><ele>98.5</ele><time>2026-04-25T13:52:54.532Z</time></trkpt><trkpt lat="43.92946" lon="12.7056017"><ele>98.75</ele><time>2026-04-25T13:52:55.532Z</time></trkpt><trkpt lat="43.9295433" lon="12.7057483"><ele>99.0</ele><time>2026-04-25T13:52:56.532Z</time></trkpt><trkpt lat="43.9296367" lon="12.7058883"><ele>99.0</ele><time>2026-04-25T13:52:57.531Z</time></trkpt><trkpt lat="43.9297317" lon="12.7060233"><ele>99.0</ele><time>2026-04-25T13:52:58.533Z</time></trkpt><trkpt lat="43.9298283" lon="12.706155"><ele>99.0</ele><time>2026-04-25T13:52:59.533Z</time></trkpt><trkpt lat="43.92992" lon="12.7062783"><ele>99.0</ele><time>2026-04-25T13:53:00.532Z</time></trkpt><trkpt lat="43.9300117" lon="12.7063933"><ele>96.75</ele><time>2026-04-25T13:53:01.534Z</time></trkpt><trkpt lat="43.93018" lon="12.7066017"><ele>94.5</ele><time>2026-04-25T13:53:03.533Z</time></trkpt><trkpt lat="43.930265" lon="12.7066883"><ele>92.25</ele><time>2026-04-25T13:53:04.533Z</time></trkpt><trkpt lat="43.9303567" lon="12.7067583"><ele>90.0</ele><time>2026-04-25T13:53:05.531Z</time></trkpt><trkpt lat="43.9304567" lon="12.706815"><ele>90.0</ele><time>2026-04-25T13:53:06.536Z</time></trkpt><trkpt lat="43.9305583" lon="12.7068667"><ele>90.0</ele><time>2026-04-25T13:53:07.531Z</time></trkpt><trkpt lat="43.9306583" lon="12.7069183"><ele>90.0</ele><time>2026-04-25T13:53:08.532Z</time></trkpt><trkpt lat="43.93075" lon="12.7069917"><ele>90.0</ele><time>2026-04-25T13:53:09.53Z</time></trkpt><trkpt lat="43.9308333" lon="12.7070983"><ele>90.0</ele><time>2026-04-25T13:53:10.53Z</time></trkpt><trkpt lat="43.93092" lon="12.7072233"><ele>88.5</ele><time>2026-04-25T13:53:11.533Z</time></trkpt><trkpt lat="43.9310067" lon="12.7073517"><ele>87.0</ele><time>2026-04-25T13:53:12.533Z</time></trkpt><trkpt lat="43.9311" lon="12.7074667"><ele>85.5</ele><time>2026-04-25T13:53:13.535Z</time></trkpt><trkpt lat="43.93121" lon="12.70756"><ele>84.0</ele><time>2026-04-25T13:53:14.531Z</time></trkpt><trkpt lat="43.9313333" lon="12.7076417"><ele>84.0</ele><time>2026-04-25T13:53:15.531Z</time></trkpt><trkpt lat="43.9314583" lon="12.7077217"><ele>84.0</ele><time>2026-04-25T13:53:16.53Z</time></trkpt><trkpt lat="43.9315817" lon="12.707805"><ele>84.0</ele><time>2026-04-25T13:53:17.534Z</time></trkpt><trkpt lat="43.9317" lon="12.7079"><ele>84.0</ele><time>2026-04-25T13:53:18.533Z</time></trkpt><trkpt lat="43.9318167" lon="12.7080167"><ele>82.33333333333333</ele><time>2026-04-25T13:53:19.534Z</time></trkpt><trkpt lat="43.93193" lon="12.7081483"><ele>80.66666666666666</ele><time>2026-04-25T13:53:20.532Z</time></trkpt><trkpt lat="43.9320517" lon="12.7082817"><ele>79.0</ele><time>2026-04-25T13:53:21.534Z</time></trkpt><trkpt lat="43.9321717" lon="12.70841"><ele>78.33333333333333</ele><time>2026-04-25T13:53:22.533Z</time></trkpt><trkpt lat="43.9324083" lon="12.7086517"><ele>77.66666666666667</ele><time>2026-04-25T13:53:24.533Z</time></trkpt><trkpt lat="43.9325233" lon="12.70877"><ele>77.0</ele><time>2026-04-25T13:53:25.535Z</time></trkpt><trkpt lat="43.932635" lon="12.7088833"><ele>73.5</ele><time>2026-04-25T13:53:26.533Z</time></trkpt><trkpt lat="43.9327433" lon="12.709"><ele>70.0</ele><time>2026-04-25T13:53:27.533Z</time></trkpt><trkpt lat="43.93285" lon="12.7091117"><ele>66.5</ele><time>2026-04-25T13:53:28.534Z</time></trkpt><trkpt lat="43.9329533" lon="12.70922"><ele>63.0</ele><time>2026-04-25T13:53:29.533Z</time></trkpt><trkpt lat="43.9330517" lon="12.7093317"><ele>64.5</ele><time>2026-04-25T13:53:30.531Z</time></trkpt><trkpt lat="43.933145" lon="12.7094467"><ele>66.0</ele><time>2026-04-25T13:53:31.532Z</time></trkpt><trkpt lat="43.93323" lon="12.70957"><ele>67.5</ele><time>2026-04-25T13:53:32.534Z</time></trkpt><trkpt lat="43.9333067" lon="12.7096967"><ele>69.0</ele><time>2026-04-25T13:53:33.534Z</time></trkpt><trkpt lat="43.9333667" lon="12.7098317"><ele>67.0</ele><time>2026-04-25T13:53:34.532Z</time></trkpt><trkpt lat="43.93343" lon="12.7099567"><ele>65.0</ele><time>2026-04-25T13:53:35.534Z</time></trkpt><trkpt lat="43.93349" lon="12.7100783"><ele>63.00000000000001</ele><time>2026-04-25T13:53:36.534Z</time></trkpt><trkpt lat="43.9335483" lon="12.7101883"><ele>61.0</ele><time>2026-04-25T13:53:37.534Z</time></trkpt><trkpt lat="43.933605" lon="12.7102933"><ele>59.0</ele><time>2026-04-25T13:53:38.533Z</time></trkpt><trkpt lat="43.9336567" lon="12.710395"><ele>59.0</ele><time>2026-04-25T13:53:39.533Z</time></trkpt><trkpt lat="43.9337067" lon="12.7104933"><ele>59.00000000000001</ele><time>2026-04-25T13:53:40.533Z</time></trkpt><trkpt lat="43.93375" lon="12.710595"><ele>59.00000000000001</ele><time>2026-04-25T13:53:41.534Z</time></trkpt><trkpt lat="43.93379" lon="12.7106983"><ele>59.0</ele><time>2026-04-25T13:53:42.533Z</time></trkpt><trkpt lat="43.9338217" lon="12.7108167"><ele>59.0</ele><time>2026-04-25T13:53:43.533Z</time></trkpt><trkpt lat="43.9338717" lon="12.7110867"><ele>58.6</ele><time>2026-04-25T13:53:45.534Z</time></trkpt><trkpt lat="43.9338933" lon="12.7112233"><ele>58.2</ele><time>2026-04-25T13:53:46.531Z</time></trkpt><trkpt lat="43.9339167" lon="12.7113517"><ele>57.800000000000004</ele><time>2026-04-25T13:53:47.533Z</time></trkpt><trkpt lat="43.9339333" lon="12.7114733"><ele>57.400000000000006</ele><time>2026-04-25T13:53:48.53Z</time></trkpt><trkpt lat="43.9339383" lon="12.7115967"><ele>57.0</ele><time>2026-04-25T13:53:49.532Z</time></trkpt><trkpt lat="43.93393" lon="12.7117267"><ele>57.0</ele><time>2026-04-25T13:53:50.53Z</time></trkpt><trkpt lat="43.9339017" lon="12.7118667"><ele>57.0</ele><time>2026-04-25T13:53:51.53Z</time></trkpt><trkpt lat="43.9338617" lon="12.712015"><ele>57.0</ele><time>2026-04-25T13:53:52.53Z</time></trkpt><trkpt lat="43.9338133" lon="12.7121683"><ele>57.0</ele><time>2026-04-25T13:53:53.533Z</time></trkpt><trkpt lat="43.93377" lon="12.7123167"><ele>56.0</ele><time>2026-04-25T13:53:54.536Z</time></trkpt><trkpt lat="43.933735" lon="12.7124633"><ele>55.0</ele><time>2026-04-25T13:53:55.533Z</time></trkpt><trkpt lat="43.9337067" lon="12.71261"><ele>54.0</ele><time>2026-04-25T13:53:56.53Z</time></trkpt><trkpt lat="43.93369" lon="12.7127617"><ele>53.0</ele><time>2026-04-25T13:53:57.531Z</time></trkpt><trkpt lat="43.9336817" lon="12.7129183"><ele>52.0</ele><time>2026-04-25T13:53:58.534Z</time></trkpt><trkpt lat="43.9336833" lon="12.713075"><ele>51.75</ele><time>2026-04-25T13:53:59.533Z</time></trkpt><trkpt lat="43.9336933" lon="12.71324"><ele>51.5</ele><time>2026-04-25T13:54:00.532Z</time></trkpt><trkpt lat="43.93372" lon="12.7134117"><ele>51.25</ele><time>2026-04-25T13:54:01.534Z</time></trkpt><trkpt lat="43.9337517" lon="12.7135717"><ele>51.0</ele><time>2026-04-25T13:54:02.533Z</time></trkpt><trkpt lat="43.93379" lon="12.7137217"><ele>51.0</ele><time>2026-04-25T13:54:03.53Z</time></trkpt><trkpt lat="43.9338317" lon="12.7138667"><ele>51.0</ele><time>2026-04-25T13:54:04.534Z</time></trkpt><trkpt lat="43.9339167" lon="12.7141467"><ele>51.0</ele><time>2026-04-25T13:54:06.531Z</time></trkpt><trkpt lat="43.9339583" lon="12.71428"><ele>51.0</ele><time>2026-04-25T13:54:07.532Z</time></trkpt><trkpt lat="43.934" lon="12.7144117"><ele>51.199999999999996</ele><time>2026-04-25T13:54:08.531Z</time></trkpt><trkpt lat="43.9340383" lon="12.71454"><ele>51.4</ele><time>2026-04-25T13:54:09.531Z</time></trkpt><trkpt lat="43.9340733" lon="12.7146633"><ele>51.6</ele><time>2026-04-25T13:54:10.53Z</time></trkpt><trkpt lat="43.9340933" lon="12.7147933"><ele>51.8</ele><time>2026-04-25T13:54:11.531Z</time></trkpt><trkpt lat="43.934095" lon="12.7149333"><ele>52.0</ele><time>2026-04-25T13:54:12.53Z</time></trkpt><trkpt lat="43.9340783" lon="12.7150717"><ele>52.0</ele><time>2026-04-25T13:54:13.532Z</time></trkpt><trkpt lat="43.9340517" lon="12.71521"><ele>52.0</ele><time>2026-04-25T13:54:14.532Z</time></trkpt><trkpt lat="43.93402" lon="12.7153367"><ele>52.0</ele><time>2026-04-25T13:54:15.531Z</time></trkpt><trkpt lat="43.93399" lon="12.7154617"><ele>52.0</ele><time>2026-04-25T13:54:16.533Z</time></trkpt><trkpt lat="43.9339683" lon="12.7155833"><ele>52.0</ele><time>2026-04-25T13:54:17.533Z</time></trkpt><trkpt lat="43.933955" lon="12.7156933"><ele>51.33333333333333</ele><time>2026-04-25T13:54:18.533Z</time></trkpt><trkpt lat="43.9339583" lon="12.7157967"><ele>50.666666666666664</ele><time>2026-04-25T13:54:19.535Z</time></trkpt><trkpt lat="43.9339867" lon="12.7158983"><ele>50.0</ele><time>2026-04-25T13:54:20.533Z</time></trkpt><trkpt lat="43.9340333" lon="12.7159817"><ele>49.33333333333333</ele><time>2026-04-25T13:54:21.533Z</time></trkpt><trkpt lat="43.9340917" lon="12.7160333"><ele>48.666666666666664</ele><time>2026-04-25T13:54:22.533Z</time></trkpt><trkpt lat="43.9341567" lon="12.7160417"><ele>48.0</ele><time>2026-04-25T13:54:23.532Z</time></trkpt><trkpt lat="43.93427" lon="12.7159767"><ele>45.8</ele><time>2026-04-25T13:54:25.534Z</time></trkpt><trkpt lat="43.9343717" lon="12.7158217"><ele>43.599999999999994</ele><time>2026-04-25T13:54:27.531Z</time></trkpt><trkpt lat="43.934405" lon="12.7157317"><ele>41.400000000000006</ele><time>2026-04-25T13:54:28.532Z</time></trkpt><trkpt lat="43.93442" lon="12.7156317"><ele>39.2</ele><time>2026-04-25T13:54:29.531Z</time></trkpt><trkpt lat="43.934435" lon="12.7155183"><ele>37.0</ele><time>2026-04-25T13:54:30.534Z</time></trkpt><trkpt lat="43.9344517" lon="12.7153967"><ele>37.0</ele><time>2026-04-25T13:54:31.536Z</time></trkpt><trkpt lat="43.9344683" lon="12.7152633"><ele>37.0</ele><time>2026-04-25T13:54:32.534Z</time></trkpt><trkpt lat="43.9344883" lon="12.71512"><ele>37.0</ele><time>2026-04-25T13:54:33.531Z</time></trkpt><trkpt lat="43.9345083" lon="12.714975"><ele>37.0</ele><time>2026-04-25T13:54:34.532Z</time></trkpt><trkpt lat="43.934525" lon="12.71483"><ele>37.0</ele><time>2026-04-25T13:54:35.532Z</time></trkpt><trkpt lat="43.9345417" lon="12.71469"><ele>37.16666666666667</ele><time>2026-04-25T13:54:36.531Z</time></trkpt><trkpt lat="43.9345633" lon="12.7145683"><ele>37.333333333333336</ele><time>2026-04-25T13:54:37.532Z</time></trkpt><trkpt lat="43.9345917" lon="12.7144617"><ele>37.5</ele><time>2026-04-25T13:54:38.53Z</time></trkpt><trkpt lat="43.93463" lon="12.714375"><ele>37.666666666666664</ele><time>2026-04-25T13:54:39.53Z</time></trkpt><trkpt lat="43.9347467" lon="12.7143517"><ele>37.83333333333333</ele><time>2026-04-25T13:54:41.533Z</time></trkpt><trkpt lat="43.9347983" lon="12.7144317"><ele>38.0</ele><time>2026-04-25T13:54:42.539Z</time></trkpt><trkpt lat="43.9348433" lon="12.7145633"><ele>38.0</ele><time>2026-04-25T13:54:43.533Z</time></trkpt><trkpt lat="43.9348983" lon="12.7146867"><ele>38.0</ele><time>2026-04-25T13:54:44.534Z</time></trkpt><trkpt lat="43.934955" lon="12.7147933"><ele>38.0</ele><time>2026-04-25T13:54:45.534Z</time></trkpt><trkpt lat="43.9350217" lon="12.714875"><ele>38.0</ele><time>2026-04-25T13:54:46.533Z</time></trkpt><trkpt lat="43.9352217" lon="12.7149617"><ele>36.5</ele><time>2026-04-25T13:54:48.536Z</time></trkpt><trkpt lat="43.9353433" lon="12.714965"><ele>35.0</ele><time>2026-04-25T13:54:49.532Z</time></trkpt><trkpt lat="43.9354733" lon="12.7149683"><ele>33.5</ele><time>2026-04-25T13:54:50.532Z</time></trkpt><trkpt lat="43.9355967" lon="12.7149783"><ele>32.0</ele><time>2026-04-25T13:54:51.533Z</time></trkpt><trkpt lat="43.9357133" lon="12.71498"><ele>32.0</ele><time>2026-04-25T13:54:52.533Z</time></trkpt><trkpt lat="43.9358233" lon="12.7149867"><ele>32.0</ele><time>2026-04-25T13:54:53.53Z</time></trkpt><trkpt lat="43.935925" lon="12.7149917"><ele>32.0</ele><time>2026-04-25T13:54:54.533Z</time></trkpt><trkpt lat="43.93602" lon="12.714995"><ele>32.0</ele><time>2026-04-25T13:54:55.532Z</time></trkpt><trkpt lat="43.9361033" lon="12.7149917"><ele>32.0</ele><time>2026-04-25T13:54:56.532Z</time></trkpt><trkpt lat="43.9361833" lon="12.7150017"><ele>31.6</ele><time>2026-04-25T13:54:57.531Z</time></trkpt><trkpt lat="43.9362517" lon="12.7150183"><ele>31.200000000000003</ele><time>2026-04-25T13:54:58.531Z</time></trkpt><trkpt lat="43.9363083" lon="12.7151217"><ele>30.8</ele><time>2026-04-25T13:55:00.53Z</time></trkpt><trkpt lat="43.9362333" lon="12.71526"><ele>30.4</ele><time>2026-04-25T13:55:02.531Z</time></trkpt><trkpt lat="43.9361517" lon="12.71535"><ele>30.0</ele><time>2026-04-25T13:55:03.534Z</time></trkpt><trkpt lat="43.936055" lon="12.7154517"><ele>30.0</ele><time>2026-04-25T13:55:04.533Z</time></trkpt><trkpt lat="43.9359217" lon="12.7156167"><ele>30.0</ele><time>2026-04-25T13:55:05.534Z</time></trkpt><trkpt lat="43.9357967" lon="12.7157733"><ele>30.0</ele><time>2026-04-25T13:55:06.534Z</time></trkpt><trkpt lat="43.9356783" lon="12.715935"><ele>30.5</ele><time>2026-04-25T13:55:07.535Z</time></trkpt><trkpt lat="43.9354517" lon="12.7162367"><ele>31.0</ele><time>2026-04-25T13:55:09.531Z</time></trkpt><trkpt lat="43.9353433" lon="12.7163783"><ele>31.0</ele><time>2026-04-25T13:55:10.533Z</time></trkpt><trkpt lat="43.9352433" lon="12.7165183"><ele>31.0</ele><time>2026-04-25T13:55:11.533Z</time></trkpt><trkpt lat="43.9351433" lon="12.7166483"><ele>31.0</ele><time>2026-04-25T13:55:12.534Z</time></trkpt><trkpt lat="43.935045" lon="12.7167817"><ele>31.0</ele><time>2026-04-25T13:55:13.531Z</time></trkpt><trkpt lat="43.9349467" lon="12.7169183"><ele>30.75</ele><time>2026-04-25T13:55:14.531Z</time></trkpt><trkpt lat="43.9348483" lon="12.7170633"><ele>30.5</ele><time>2026-04-25T13:55:15.534Z</time></trkpt><trkpt lat="43.93475" lon="12.7172167"><ele>30.25</ele><time>2026-04-25T13:55:16.532Z</time></trkpt><trkpt lat="43.9346517" lon="12.7173683"><ele>30.0</ele><time>2026-04-25T13:55:17.535Z</time></trkpt><trkpt lat="43.93455" lon="12.7175233"><ele>30.0</ele><time>2026-04-25T13:55:18.531Z</time></trkpt><trkpt lat="43.9344483" lon="12.71768"><ele>30.0</ele><time>2026-04-25T13:55:19.533Z</time></trkpt><trkpt lat="43.9343483" lon="12.7178383"><ele>30.0</ele><time>2026-04-25T13:55:20.533Z</time></trkpt><trkpt lat="43.934245" lon="12.717995"><ele>29.666666666666664</ele><time>2026-04-25T13:55:21.531Z</time></trkpt><trkpt lat="43.9341433" lon="12.7181567"><ele>29.333333333333332</ele><time>2026-04-25T13:55:22.536Z</time></trkpt><trkpt lat="43.9340433" lon="12.7183183"><ele>29.0</ele><time>2026-04-25T13:55:23.531Z</time></trkpt><trkpt lat="43.9339483" lon="12.7184683"><ele>28.75</ele><time>2026-04-25T13:55:24.532Z</time></trkpt><trkpt lat="43.9338583" lon="12.7186083"><ele>28.5</ele><time>2026-04-25T13:55:25.532Z</time></trkpt><trkpt lat="43.9337733" lon="12.7187383"><ele>28.25</ele><time>2026-04-25T13:55:26.534Z</time></trkpt><trkpt lat="43.9336933" lon="12.7188683"><ele>28.0</ele><time>2026-04-25T13:55:27.533Z</time></trkpt><trkpt lat="43.933615" lon="12.7189983"><ele>28.0</ele><time>2026-04-25T13:55:28.531Z</time></trkpt><trkpt lat="43.9334433" lon="12.71927"><ele>28.0</ele><time>2026-04-25T13:55:30.534Z</time></trkpt><trkpt lat="43.9333533" lon="12.7194033"><ele>28.0</ele><time>2026-04-25T13:55:31.535Z</time></trkpt><trkpt lat="43.9332517" lon="12.7195417"><ele>28.0</ele><time>2026-04-25T13:55:32.533Z</time></trkpt><trkpt lat="43.93314" lon="12.71968"><ele>28.0</ele><time>2026-04-25T13:55:33.534Z</time></trkpt><trkpt lat="43.933015" lon="12.719815"><ele>28.0</ele><time>2026-04-25T13:55:34.53Z</time></trkpt><trkpt lat="43.9328783" lon="12.7199367"><ele>28.0</ele><time>2026-04-25T13:55:35.531Z</time></trkpt><trkpt lat="43.9327317" lon="12.7200417"><ele>28.0</ele><time>2026-04-25T13:55:36.532Z</time></trkpt><trkpt lat="43.9325783" lon="12.720135"><ele>28.0</ele><time>2026-04-25T13:55:37.535Z</time></trkpt><trkpt lat="43.9324233" lon="12.7202133"><ele>27.0</ele><time>2026-04-25T13:55:38.534Z</time></trkpt><trkpt lat="43.9321217" lon="12.7203233"><ele>26.0</ele><time>2026-04-25T13:55:40.533Z</time></trkpt><trkpt lat="43.931975" lon="12.7203583"><ele>26.0</ele><time>2026-04-25T13:55:41.535Z</time></trkpt><trkpt lat="43.93183" lon="12.7203933"><ele>26.0</ele><time>2026-04-25T13:55:42.534Z</time></trkpt><trkpt lat="43.9316817" lon="12.7204317"><ele>26.0</ele><time>2026-04-25T13:55:43.534Z</time></trkpt><trkpt lat="43.9315283" lon="12.72047"><ele>25.666666666666664</ele><time>2026-04-25T13:55:44.535Z</time></trkpt><trkpt lat="43.9313717" lon="12.7205133"><ele>25.333333333333336</ele><time>2026-04-25T13:55:45.533Z</time></trkpt><trkpt lat="43.93121" lon="12.7205583"><ele>25.0</ele><time>2026-04-25T13:55:46.534Z</time></trkpt><trkpt lat="43.9310433" lon="12.7206"><ele>26.0</ele><time>2026-04-25T13:55:47.533Z</time></trkpt><trkpt lat="43.9308783" lon="12.7206417"><ele>27.0</ele><time>2026-04-25T13:55:48.534Z</time></trkpt><trkpt lat="43.9307117" lon="12.7206867"><ele>28.0</ele><time>2026-04-25T13:55:49.534Z</time></trkpt><trkpt lat="43.930375" lon="12.7207717"><ele>28.0</ele><time>2026-04-25T13:55:51.533Z</time></trkpt><trkpt lat="43.9302017" lon="12.7208117"><ele>28.0</ele><time>2026-04-25T13:55:52.535Z</time></trkpt><trkpt lat="43.9300267" lon="12.720845"><ele>28.0</ele><time>2026-04-25T13:55:53.534Z</time></trkpt><trkpt lat="43.9298517" lon="12.72088"><ele>28.333333333333336</ele><time>2026-04-25T13:55:54.533Z</time></trkpt><trkpt lat="43.9296733" lon="12.72091"><ele>28.666666666666664</ele><time>2026-04-25T13:55:55.535Z</time></trkpt><trkpt lat="43.929495" lon="12.7209417"><ele>29.0</ele><time>2026-04-25T13:55:56.533Z</time></trkpt><trkpt lat="43.92932" lon="12.720975"><ele>29.333333333333332</ele><time>2026-04-25T13:55:57.532Z</time></trkpt><trkpt lat="43.9291433" lon="12.7210117"><ele>29.666666666666664</ele><time>2026-04-25T13:55:58.531Z</time></trkpt><trkpt lat="43.9289667" lon="12.72105"><ele>30.0</ele><time>2026-04-25T13:55:59.531Z</time></trkpt><trkpt lat="43.92879" lon="12.7210933"><ele>30.0</ele><time>2026-04-25T13:56:00.531Z</time></trkpt><trkpt lat="43.92861" lon="12.7211383"><ele>30.0</ele><time>2026-04-25T13:56:01.533Z</time></trkpt><trkpt lat="43.9284317" lon="12.7211933"><ele>30.0</ele><time>2026-04-25T13:56:02.531Z</time></trkpt><trkpt lat="43.9282567" lon="12.721255"><ele>30.0</ele><time>2026-04-25T13:56:03.534Z</time></trkpt><trkpt lat="43.9280933" lon="12.721325"><ele>30.0</ele><time>2026-04-25T13:56:04.534Z</time></trkpt><trkpt lat="43.9279383" lon="12.7214017"><ele>30.0</ele><time>2026-04-25T13:56:05.533Z</time></trkpt><trkpt lat="43.927795" lon="12.721475"><ele>30.0</ele><time>2026-04-25T13:56:06.535Z</time></trkpt><trkpt lat="43.9276617" lon="12.721545"><ele>30.0</ele><time>2026-04-25T13:56:07.534Z</time></trkpt><trkpt lat="43.9275467" lon="12.7216067"><ele>30.0</ele><time>2026-04-25T13:56:08.533Z</time></trkpt><trkpt lat="43.9274417" lon="12.7216633"><ele>30.0</ele><time>2026-04-25T13:56:09.534Z</time></trkpt><trkpt lat="43.9273317" lon="12.721725"><ele>30.0</ele><time>2026-04-25T13:56:10.535Z</time></trkpt><trkpt lat="43.9270617" lon="12.7218717"><ele>30.0</ele><time>2026-04-25T13:56:12.532Z</time></trkpt><trkpt lat="43.9269133" lon="12.7219517"><ele>30.0</ele><time>2026-04-25T13:56:13.534Z</time></trkpt><trkpt lat="43.926765" lon="12.72203"><ele>29.333333333333336</ele><time>2026-04-25T13:56:14.532Z</time></trkpt><trkpt lat="43.9266233" lon="12.7221067"><ele>28.666666666666668</ele><time>2026-04-25T13:56:15.534Z</time></trkpt><trkpt lat="43.9264833" lon="12.72218"><ele>28.0</ele><time>2026-04-25T13:56:16.531Z</time></trkpt><trkpt lat="43.92634" lon="12.7222583"><ele>28.0</ele><time>2026-04-25T13:56:17.531Z</time></trkpt><trkpt lat="43.9261867" lon="12.7223417"><ele>28.0</ele><time>2026-04-25T13:56:18.533Z</time></trkpt><trkpt lat="43.9260233" lon="12.7224267"><ele>28.0</ele><time>2026-04-25T13:56:19.532Z</time></trkpt><trkpt lat="43.9258583" lon="12.7225133"><ele>28.0</ele><time>2026-04-25T13:56:20.532Z</time></trkpt><trkpt lat="43.9256867" lon="12.7226"><ele>28.0</ele><time>2026-04-25T13:56:21.533Z</time></trkpt><trkpt lat="43.9255133" lon="12.72269"><ele>28.0</ele><time>2026-04-25T13:56:22.533Z</time></trkpt><trkpt lat="43.9253417" lon="12.72278"><ele>28.333333333333336</ele><time>2026-04-25T13:56:23.532Z</time></trkpt><trkpt lat="43.92517" lon="12.7228717"><ele>28.666666666666664</ele><time>2026-04-25T13:56:24.532Z</time></trkpt><trkpt lat="43.9249967" lon="12.7229667"><ele>29.0</ele><time>2026-04-25T13:56:25.533Z</time></trkpt><trkpt lat="43.9248233" lon="12.72306"><ele>29.0</ele><time>2026-04-25T13:56:26.535Z</time></trkpt><trkpt lat="43.924645" lon="12.72315"><ele>29.0</ele><time>2026-04-25T13:56:27.534Z</time></trkpt><trkpt lat="43.924465" lon="12.7232383"><ele>29.0</ele><time>2026-04-25T13:56:28.533Z</time></trkpt><trkpt lat="43.9242867" lon="12.723325"><ele>30.5</ele><time>2026-04-25T13:56:29.532Z</time></trkpt><trkpt lat="43.9241033" lon="12.723415"><ele>32.0</ele><time>2026-04-25T13:56:30.535Z</time></trkpt><trkpt lat="43.92373" lon="12.7235933"><ele>32.0</ele><time>2026-04-25T13:56:32.531Z</time></trkpt><trkpt lat="43.9235483" lon="12.7236783"><ele>32.0</ele><time>2026-04-25T13:56:33.534Z</time></trkpt><trkpt lat="43.9233717" lon="12.7237617"><ele>32.0</ele><time>2026-04-25T13:56:34.533Z</time></trkpt><trkpt lat="43.9232067" lon="12.72384"><ele>32.33333333333333</ele><time>2026-04-25T13:56:35.531Z</time></trkpt><trkpt lat="43.9230467" lon="12.723915"><ele>32.666666666666664</ele><time>2026-04-25T13:56:36.533Z</time></trkpt><trkpt lat="43.9228933" lon="12.7239917"><ele>33.0</ele><time>2026-04-25T13:56:37.532Z</time></trkpt><trkpt lat="43.9227383" lon="12.7240667"><ele>33.0</ele><time>2026-04-25T13:56:38.532Z</time></trkpt><trkpt lat="43.9225767" lon="12.72414"><ele>33.0</ele><time>2026-04-25T13:56:39.533Z</time></trkpt><trkpt lat="43.9224083" lon="12.724215"><ele>33.0</ele><time>2026-04-25T13:56:40.534Z</time></trkpt><trkpt lat="43.9222367" lon="12.7242933"><ele>33.666666666666664</ele><time>2026-04-25T13:56:41.533Z</time></trkpt><trkpt lat="43.9220633" lon="12.7243783"><ele>34.33333333333333</ele><time>2026-04-25T13:56:42.532Z</time></trkpt><trkpt lat="43.9218867" lon="12.72447"><ele>35.0</ele><time>2026-04-25T13:56:43.533Z</time></trkpt><trkpt lat="43.9217117" lon="12.724575"><ele>33.33333333333333</ele><time>2026-04-25T13:56:44.534Z</time></trkpt><trkpt lat="43.9215383" lon="12.7246883"><ele>31.666666666666664</ele><time>2026-04-25T13:56:45.532Z</time></trkpt><trkpt lat="43.92137" lon="12.724815"><ele>30.0</ele><time>2026-04-25T13:56:46.532Z</time></trkpt><trkpt lat="43.9212083" lon="12.7249383"><ele>30.0</ele><time>2026-04-25T13:56:47.529Z</time></trkpt><trkpt lat="43.9210583" lon="12.7250583"><ele>30.0</ele><time>2026-04-25T13:56:48.53Z</time></trkpt><trkpt lat="43.9209117" lon="12.7251683"><ele>30.0</ele><time>2026-04-25T13:56:49.531Z</time></trkpt><trkpt lat="43.9207683" lon="12.7252833"><ele>30.5</ele><time>2026-04-25T13:56:50.532Z</time></trkpt><trkpt lat="43.9206283" lon="12.7253917"><ele>31.0</ele><time>2026-04-25T13:56:51.534Z</time></trkpt><trkpt lat="43.9203683" lon="12.7256"><ele>31.0</ele><time>2026-04-25T13:56:53.533Z</time></trkpt><trkpt lat="43.9202433" lon="12.7256967"><ele>31.0</ele><time>2026-04-25T13:56:54.534Z</time></trkpt><trkpt lat="43.9201167" lon="12.7257933"><ele>31.0</ele><time>2026-04-25T13:56:55.53Z</time></trkpt><trkpt lat="43.9199933" lon="12.7258817"><ele>31.0</ele><time>2026-04-25T13:56:56.531Z</time></trkpt><trkpt lat="43.9198767" lon="12.7259733"><ele>30.5</ele><time>2026-04-25T13:56:57.53Z</time></trkpt><trkpt lat="43.9197583" lon="12.726065"><ele>30.0</ele><time>2026-04-25T13:56:58.532Z</time></trkpt><trkpt lat="43.9196383" lon="12.7261617"><ele>29.5</ele><time>2026-04-25T13:56:59.533Z</time></trkpt><trkpt lat="43.91952" lon="12.726255"><ele>29.0</ele><time>2026-04-25T13:57:00.531Z</time></trkpt><trkpt lat="43.919405" lon="12.726345"><ele>29.0</ele><time>2026-04-25T13:57:01.531Z</time></trkpt><trkpt lat="43.9192983" lon="12.72643"><ele>29.0</ele><time>2026-04-25T13:57:02.532Z</time></trkpt><trkpt lat="43.9191983" lon="12.72651"><ele>29.0</ele><time>2026-04-25T13:57:03.53Z</time></trkpt><trkpt lat="43.9191" lon="12.7265883"><ele>29.0</ele><time>2026-04-25T13:57:04.531Z</time></trkpt><trkpt lat="43.919" lon="12.726665"><ele>29.2</ele><time>2026-04-25T13:57:05.534Z</time></trkpt><trkpt lat="43.9189017" lon="12.7267433"><ele>29.4</ele><time>2026-04-25T13:57:06.533Z</time></trkpt><trkpt lat="43.9188083" lon="12.7268183"><ele>29.6</ele><time>2026-04-25T13:57:07.535Z</time></trkpt><trkpt lat="43.918715" lon="12.7268917"><ele>29.8</ele><time>2026-04-25T13:57:08.534Z</time></trkpt><trkpt lat="43.9186233" lon="12.7269633"><ele>30.0</ele><time>2026-04-25T13:57:09.53Z</time></trkpt><trkpt lat="43.9185317" lon="12.7270383"><ele>30.666666666666664</ele><time>2026-04-25T13:57:10.53Z</time></trkpt><trkpt lat="43.91844" lon="12.7271133"><ele>31.333333333333332</ele><time>2026-04-25T13:57:11.53Z</time></trkpt><trkpt lat="43.9183467" lon="12.72719"><ele>32.0</ele><time>2026-04-25T13:57:12.53Z</time></trkpt><trkpt lat="43.91814" lon="12.727355"><ele>32.0</ele><time>2026-04-25T13:57:14.533Z</time></trkpt><trkpt lat="43.918035" lon="12.7274433"><ele>32.0</ele><time>2026-04-25T13:57:15.531Z</time></trkpt><trkpt lat="43.9179283" lon="12.7275283"><ele>32.0</ele><time>2026-04-25T13:57:16.534Z</time></trkpt><trkpt lat="43.9178233" lon="12.7276133"><ele>32.0</ele><time>2026-04-25T13:57:17.532Z</time></trkpt><trkpt lat="43.9177183" lon="12.727695"><ele>31.75</ele><time>2026-04-25T13:57:18.531Z</time></trkpt><trkpt lat="43.9176133" lon="12.7277783"><ele>31.5</ele><time>2026-04-25T13:57:19.53Z</time></trkpt><trkpt lat="43.9175083" lon="12.7278567"><ele>31.25</ele><time>2026-04-25T13:57:20.531Z</time></trkpt><trkpt lat="43.9174083" lon="12.727935"><ele>31.0</ele><time>2026-04-25T13:57:21.53Z</time></trkpt><trkpt lat="43.91731" lon="12.728015"><ele>31.0</ele><time>2026-04-25T13:57:22.53Z</time></trkpt><trkpt lat="43.9172133" lon="12.7281017"><ele>31.0</ele><time>2026-04-25T13:57:23.532Z</time></trkpt><trkpt lat="43.9171167" lon="12.7282017"><ele>31.0</ele><time>2026-04-25T13:57:24.532Z</time></trkpt><trkpt lat="43.917025" lon="12.7283117"><ele>31.0</ele><time>2026-04-25T13:57:25.531Z</time></trkpt><trkpt lat="43.91694" lon="12.7284333"><ele>30.25</ele><time>2026-04-25T13:57:26.53Z</time></trkpt><trkpt lat="43.9168667" lon="12.728565"><ele>29.5</ele><time>2026-04-25T13:57:27.533Z</time></trkpt><trkpt lat="43.9168" lon="12.7287"><ele>28.75</ele><time>2026-04-25T13:57:28.533Z</time></trkpt><trkpt lat="43.9167417" lon="12.72884"><ele>28.0</ele><time>2026-04-25T13:57:29.53Z</time></trkpt><trkpt lat="43.9166833" lon="12.728985"><ele>28.0</ele><time>2026-04-25T13:57:30.533Z</time></trkpt><trkpt lat="43.9166233" lon="12.72913"><ele>28.0</ele><time>2026-04-25T13:57:31.534Z</time></trkpt><trkpt lat="43.9165617" lon="12.7292817"><ele>28.0</ele><time>2026-04-25T13:57:32.533Z</time></trkpt><trkpt lat="43.9165" lon="12.7294317"><ele>28.0</ele><time>2026-04-25T13:57:33.533Z</time></trkpt><trkpt lat="43.91638" lon="12.7297333"><ele>28.25</ele><time>2026-04-25T13:57:35.533Z</time></trkpt><trkpt lat="43.9163217" lon="12.7298733"><ele>28.5</ele><time>2026-04-25T13:57:36.533Z</time></trkpt><trkpt lat="43.9162667" lon="12.73001"><ele>28.75</ele><time>2026-04-25T13:57:37.534Z</time></trkpt><trkpt lat="43.9162117" lon="12.7301467"><ele>29.0</ele><time>2026-04-25T13:57:38.534Z</time></trkpt><trkpt lat="43.9161567" lon="12.7302883"><ele>29.6</ele><time>2026-04-25T13:57:39.533Z</time></trkpt><trkpt lat="43.916105" lon="12.73043"><ele>30.2</ele><time>2026-04-25T13:57:40.532Z</time></trkpt><trkpt lat="43.9160517" lon="12.7305667"><ele>30.800000000000004</ele><time>2026-04-25T13:57:41.53Z</time></trkpt><trkpt lat="43.9159967" lon="12.7307"><ele>31.400000000000002</ele><time>2026-04-25T13:57:42.53Z</time></trkpt><trkpt lat="43.9159433" lon="12.7308367"><ele>32.0</ele><time>2026-04-25T13:57:43.534Z</time></trkpt><trkpt lat="43.9158867" lon="12.730975"><ele>32.75</ele><time>2026-04-25T13:57:44.533Z</time></trkpt><trkpt lat="43.9158267" lon="12.7311083"><ele>33.5</ele><time>2026-04-25T13:57:45.53Z</time></trkpt><trkpt lat="43.9157667" lon="12.731245"><ele>34.25</ele><time>2026-04-25T13:57:46.53Z</time></trkpt><trkpt lat="43.9157" lon="12.7313783"><ele>35.0</ele><time>2026-04-25T13:57:47.531Z</time></trkpt><trkpt lat="43.915625" lon="12.7315033"><ele>35.0</ele><time>2026-04-25T13:57:48.53Z</time></trkpt><trkpt lat="43.9155433" lon="12.7316133"><ele>35.0</ele><time>2026-04-25T13:57:49.531Z</time></trkpt><trkpt lat="43.915455" lon="12.7317117"><ele>35.0</ele><time>2026-04-25T13:57:50.531Z</time></trkpt><trkpt lat="43.915355" lon="12.7317983"><ele>35.0</ele><time>2026-04-25T13:57:51.53Z</time></trkpt><trkpt lat="43.91525" lon="12.7318733"><ele>35.0</ele><time>2026-04-25T13:57:52.531Z</time></trkpt><trkpt lat="43.9151467" lon="12.7319333"><ele>35.0</ele><time>2026-04-25T13:57:53.531Z</time></trkpt><trkpt lat="43.9150433" lon="12.7319833"><ele>35.0</ele><time>2026-04-25T13:57:54.533Z</time></trkpt><trkpt lat="43.914865" lon="12.732055"><ele>35.0</ele><time>2026-04-25T13:57:56.532Z</time></trkpt><trkpt lat="43.9147883" lon="12.73208"><ele>35.0</ele><time>2026-04-25T13:57:57.533Z</time></trkpt><trkpt lat="43.91472" lon="12.7320933"><ele>35.0</ele><time>2026-04-25T13:57:58.531Z</time></trkpt><trkpt lat="43.9146517" lon="12.73209"><ele>35.0</ele><time>2026-04-25T13:57:59.531Z</time></trkpt><trkpt lat="43.9145883" lon="12.7320833"><ele>35.0</ele><time>2026-04-25T13:58:00.531Z</time></trkpt><trkpt lat="43.914525" lon="12.7321"><ele>35.0</ele><time>2026-04-25T13:58:01.537Z</time></trkpt><trkpt lat="43.9144683" lon="12.7322183"><ele>35.0</ele><time>2026-04-25T13:58:03.533Z</time></trkpt><trkpt lat="43.9145217" lon="12.7323717"><ele>35.0</ele><time>2026-04-25T13:58:05.534Z</time></trkpt><trkpt lat="43.914565" lon="12.73244"><ele>35.0</ele><time>2026-04-25T13:58:06.533Z</time></trkpt><trkpt lat="43.9146767" lon="12.7325217"><ele>35.0</ele><time>2026-04-25T13:58:07.534Z</time></trkpt><trkpt lat="43.9148467" lon="12.7326267"><ele>35.0</ele><time>2026-04-25T13:58:08.532Z</time></trkpt><trkpt lat="43.91499" lon="12.7327183"><ele>34.666666666666664</ele><time>2026-04-25T13:58:09.532Z</time></trkpt><trkpt lat="43.91514" lon="12.7328133"><ele>34.333333333333336</ele><time>2026-04-25T13:58:10.531Z</time></trkpt><trkpt lat="43.91529" lon="12.732915"><ele>34.0</ele><time>2026-04-25T13:58:11.532Z</time></trkpt><trkpt lat="43.9154433" lon="12.73302"><ele>34.0</ele><time>2026-04-25T13:58:12.534Z</time></trkpt><trkpt lat="43.9156" lon="12.7331267"><ele>34.0</ele><time>2026-04-25T13:58:13.532Z</time></trkpt><trkpt lat="43.9157583" lon="12.7332367"><ele>34.0</ele><time>2026-04-25T13:58:14.53Z</time></trkpt><trkpt lat="43.9159233" lon="12.7333433"><ele>34.5</ele><time>2026-04-25T13:58:15.531Z</time></trkpt><trkpt lat="43.916275" lon="12.7335233"><ele>35.0</ele><time>2026-04-25T13:58:17.531Z</time></trkpt><trkpt lat="43.9164533" lon="12.7335967"><ele>35.0</ele><time>2026-04-25T13:58:18.531Z</time></trkpt><trkpt lat="43.916625" lon="12.733655"><ele>35.0</ele><time>2026-04-25T13:58:19.533Z</time></trkpt><trkpt lat="43.9167917" lon="12.7336967"><ele>35.0</ele><time>2026-04-25T13:58:20.53Z</time></trkpt><trkpt lat="43.9169533" lon="12.733715"><ele>35.0</ele><time>2026-04-25T13:58:21.53Z</time></trkpt><trkpt lat="43.9171183" lon="12.7337033"><ele>35.0</ele><time>2026-04-25T13:58:22.531Z</time></trkpt><trkpt lat="43.9172833" lon="12.7336533"><ele>35.0</ele><time>2026-04-25T13:58:23.534Z</time></trkpt><trkpt lat="43.9174533" lon="12.7335733"><ele>34.33333333333333</ele><time>2026-04-25T13:58:24.533Z</time></trkpt><trkpt lat="43.9176217" lon="12.7334783"><ele>33.666666666666664</ele><time>2026-04-25T13:58:25.534Z</time></trkpt><trkpt lat="43.91779" lon="12.7333717"><ele>33.0</ele><time>2026-04-25T13:58:26.533Z</time></trkpt><trkpt lat="43.917955" lon="12.7332517"><ele>33.0</ele><time>2026-04-25T13:58:27.533Z</time></trkpt><trkpt lat="43.9181167" lon="12.7331183"><ele>33.0</ele><time>2026-04-25T13:58:28.532Z</time></trkpt><trkpt lat="43.91827" lon="12.7329917"><ele>33.0</ele><time>2026-04-25T13:58:29.531Z</time></trkpt><trkpt lat="43.9184217" lon="12.7328617"><ele>32.666666666666664</ele><time>2026-04-25T13:58:30.533Z</time></trkpt><trkpt lat="43.918575" lon="12.7327233"><ele>32.33333333333333</ele><time>2026-04-25T13:58:31.534Z</time></trkpt><trkpt lat="43.91873" lon="12.7325767"><ele>32.0</ele><time>2026-04-25T13:58:32.531Z</time></trkpt><trkpt lat="43.91889" lon="12.732425"><ele>32.0</ele><time>2026-04-25T13:58:33.534Z</time></trkpt><trkpt lat="43.9190567" lon="12.7323017"><ele>32.0</ele><time>2026-04-25T13:58:34.533Z</time></trkpt><trkpt lat="43.919235" lon="12.73221"><ele>32.0</ele><time>2026-04-25T13:58:35.537Z</time></trkpt><trkpt lat="43.9194233" lon="12.7321533"><ele>32.0</ele><time>2026-04-25T13:58:36.534Z</time></trkpt><trkpt lat="43.9198117" lon="12.7321233"><ele>32.0</ele><time>2026-04-25T13:58:38.533Z</time></trkpt><trkpt lat="43.92001" lon="12.7321117"><ele>31.666666666666664</ele><time>2026-04-25T13:58:39.534Z</time></trkpt><trkpt lat="43.9202083" lon="12.7320983"><ele>31.333333333333336</ele><time>2026-04-25T13:58:40.532Z</time></trkpt><trkpt lat="43.9203967" lon="12.7320917"><ele>31.0</ele><time>2026-04-25T13:58:41.532Z</time></trkpt><trkpt lat="43.92058" lon="12.7321233"><ele>31.0</ele><time>2026-04-25T13:58:42.532Z</time></trkpt><trkpt lat="43.9207567" lon="12.7321883"><ele>31.0</ele><time>2026-04-25T13:58:43.532Z</time></trkpt><trkpt lat="43.9209217" lon="12.732275"><ele>31.0</ele><time>2026-04-25T13:58:44.53Z</time></trkpt><trkpt lat="43.9210667" lon="12.732375"><ele>31.0</ele><time>2026-04-25T13:58:45.531Z</time></trkpt><trkpt lat="43.9211967" lon="12.7324733"><ele>31.0</ele><time>2026-04-25T13:58:46.532Z</time></trkpt><trkpt lat="43.9213117" lon="12.7325683"><ele>31.0</ele><time>2026-04-25T13:58:47.533Z</time></trkpt><trkpt lat="43.92141" lon="12.7326617"><ele>31.0</ele><time>2026-04-25T13:58:48.53Z</time></trkpt><trkpt lat="43.921505" lon="12.7327517"><ele>32.0</ele><time>2026-04-25T13:58:49.532Z</time></trkpt><trkpt lat="43.9216083" lon="12.7328383"><ele>33.0</ele><time>2026-04-25T13:58:50.53Z</time></trkpt><trkpt lat="43.9217333" lon="12.7329117"><ele>34.0</ele><time>2026-04-25T13:58:51.532Z</time></trkpt><trkpt lat="43.921875" lon="12.73297"><ele>35.0</ele><time>2026-04-25T13:58:52.53Z</time></trkpt><trkpt lat="43.9220267" lon="12.7330183"><ele>35.666666666666664</ele><time>2026-04-25T13:58:53.532Z</time></trkpt><trkpt lat="43.92218" lon="12.7330567"><ele>36.333333333333336</ele><time>2026-04-25T13:58:54.533Z</time></trkpt><trkpt lat="43.922335" lon="12.733125"><ele>37.0</ele><time>2026-04-25T13:58:55.534Z</time></trkpt><trkpt lat="43.9224883" lon="12.7332117"><ele>35.0</ele><time>2026-04-25T13:58:56.53Z</time></trkpt><trkpt lat="43.9226467" lon="12.7332933"><ele>33.0</ele><time>2026-04-25T13:58:57.53Z</time></trkpt><trkpt lat="43.92299" lon="12.733435"><ele>33.0</ele><time>2026-04-25T13:58:59.533Z</time></trkpt><trkpt lat="43.9231717" lon="12.73349"><ele>33.0</ele><time>2026-04-25T13:59:00.533Z</time></trkpt><trkpt lat="43.9233567" lon="12.733535"><ele>33.0</ele><time>2026-04-25T13:59:01.531Z</time></trkpt><trkpt lat="43.9235383" lon="12.733575"><ele>32.333333333333336</ele><time>2026-04-25T13:59:02.533Z</time></trkpt><trkpt lat="43.9237083" lon="12.7336133"><ele>31.666666666666668</ele><time>2026-04-25T13:59:03.533Z</time></trkpt><trkpt lat="43.92387" lon="12.7336733"><ele>31.0</ele><time>2026-04-25T13:59:04.533Z</time></trkpt><trkpt lat="43.924015" lon="12.73377"><ele>31.0</ele><time>2026-04-25T13:59:05.534Z</time></trkpt><trkpt lat="43.924155" lon="12.733895"><ele>31.0</ele><time>2026-04-25T13:59:06.533Z</time></trkpt><trkpt lat="43.9242883" lon="12.73404"><ele>31.0</ele><time>2026-04-25T13:59:07.534Z</time></trkpt><trkpt lat="43.9244117" lon="12.7342067"><ele>29.666666666666668</ele><time>2026-04-25T13:59:08.533Z</time></trkpt><trkpt lat="43.92452" lon="12.734395"><ele>28.333333333333336</ele><time>2026-04-25T13:59:09.533Z</time></trkpt><trkpt lat="43.9246083" lon="12.734605"><ele>27.0</ele><time>2026-04-25T13:59:10.533Z</time></trkpt><trkpt lat="43.9246817" lon="12.7348283"><ele>27.0</ele><time>2026-04-25T13:59:11.53Z</time></trkpt><trkpt lat="43.9247467" lon="12.73506"><ele>27.0</ele><time>2026-04-25T13:59:12.533Z</time></trkpt><trkpt lat="43.9248083" lon="12.7352917"><ele>27.0</ele><time>2026-04-25T13:59:13.537Z</time></trkpt><trkpt lat="43.924855" lon="12.735525"><ele>27.666666666666664</ele><time>2026-04-25T13:59:14.533Z</time></trkpt><trkpt lat="43.9248867" lon="12.7357683"><ele>28.333333333333332</ele><time>2026-04-25T13:59:15.531Z</time></trkpt><trkpt lat="43.9249083" lon="12.7360183"><ele>29.0</ele><time>2026-04-25T13:59:16.531Z</time></trkpt><trkpt lat="43.92493" lon="12.7362717"><ele>29.0</ele><time>2026-04-25T13:59:17.531Z</time></trkpt><trkpt lat="43.9249583" lon="12.736515"><ele>29.0</ele><time>2026-04-25T13:59:18.532Z</time></trkpt><trkpt lat="43.9250567" lon="12.7369533"><ele>28.333333333333332</ele><time>2026-04-25T13:59:20.534Z</time></trkpt><trkpt lat="43.9251467" lon="12.7371283"><ele>27.666666666666664</ele><time>2026-04-25T13:59:21.531Z</time></trkpt><trkpt lat="43.92526" lon="12.73727"><ele>27.0</ele><time>2026-04-25T13:59:22.531Z</time></trkpt><trkpt lat="43.9253933" lon="12.7373717"><ele>27.0</ele><time>2026-04-25T13:59:23.534Z</time></trkpt><trkpt lat="43.9255417" lon="12.7374483"><ele>27.0</ele><time>2026-04-25T13:59:24.532Z</time></trkpt><trkpt lat="43.92571" lon="12.7375067"><ele>27.0</ele><time>2026-04-25T13:59:25.531Z</time></trkpt><trkpt lat="43.9258967" lon="12.7375617"><ele>27.0</ele><time>2026-04-25T13:59:26.534Z</time></trkpt><trkpt lat="43.926085" lon="12.7376333"><ele>27.0</ele><time>2026-04-25T13:59:27.535Z</time></trkpt><trkpt lat="43.9262667" lon="12.73773"><ele>27.0</ele><time>2026-04-25T13:59:28.531Z</time></trkpt><trkpt lat="43.9264417" lon="12.73784"><ele>27.0</ele><time>2026-04-25T13:59:29.531Z</time></trkpt><trkpt lat="43.9266067" lon="12.7379533"><ele>27.0</ele><time>2026-04-25T13:59:30.533Z</time></trkpt><trkpt lat="43.9267633" lon="12.73808"><ele>27.0</ele><time>2026-04-25T13:59:31.534Z</time></trkpt><trkpt lat="43.92691" lon="12.73823"><ele>27.333333333333336</ele><time>2026-04-25T13:59:32.533Z</time></trkpt><trkpt lat="43.927045" lon="12.7384083"><ele>27.666666666666668</ele><time>2026-04-25T13:59:33.533Z</time></trkpt><trkpt lat="43.9271717" lon="12.73861"><ele>28.0</ele><time>2026-04-25T13:59:34.531Z</time></trkpt><trkpt lat="43.927295" lon="12.7388233"><ele>28.0</ele><time>2026-04-25T13:59:35.534Z</time></trkpt><trkpt lat="43.9274183" lon="12.7390383"><ele>28.0</ele><time>2026-04-25T13:59:36.533Z</time></trkpt><trkpt lat="43.9275417" lon="12.7392517"><ele>28.0</ele><time>2026-04-25T13:59:37.534Z</time></trkpt><trkpt lat="43.92766" lon="12.7394567"><ele>28.5</ele><time>2026-04-25T13:59:38.536Z</time></trkpt><trkpt lat="43.9277767" lon="12.7396517"><ele>29.0</ele><time>2026-04-25T13:59:39.534Z</time></trkpt><trkpt lat="43.9280033" lon="12.7400117"><ele>29.0</ele><time>2026-04-25T13:59:41.533Z</time></trkpt><trkpt lat="43.9280983" lon="12.7401717"><ele>29.0</ele><time>2026-04-25T13:59:42.535Z</time></trkpt><trkpt lat="43.9281883" lon="12.740325"><ele>29.0</ele><time>2026-04-25T13:59:43.531Z</time></trkpt><trkpt lat="43.9282667" lon="12.740455"><ele>29.0</ele><time>2026-04-25T13:59:44.53Z</time></trkpt><trkpt lat="43.9283433" lon="12.7405667"><ele>29.166666666666664</ele><time>2026-04-25T13:59:45.533Z</time></trkpt><trkpt lat="43.9284017" lon="12.7406583"><ele>29.333333333333332</ele><time>2026-04-25T13:59:46.533Z</time></trkpt><trkpt lat="43.92846" lon="12.7407233"><ele>29.5</ele><time>2026-04-25T13:59:47.531Z</time></trkpt><trkpt lat="43.9285217" lon="12.740765"><ele>29.666666666666664</ele><time>2026-04-25T13:59:48.531Z</time></trkpt><trkpt lat="43.9285967" lon="12.740795"><ele>29.833333333333332</ele><time>2026-04-25T13:59:49.531Z</time></trkpt><trkpt lat="43.9286983" lon="12.7408267"><ele>30.0</ele><time>2026-04-25T13:59:50.531Z</time></trkpt><trkpt lat="43.928825" lon="12.7408367"><ele>30.0</ele><time>2026-04-25T13:59:51.532Z</time></trkpt><trkpt lat="43.9289683" lon="12.7408317"><ele>30.0</ele><time>2026-04-25T13:59:52.533Z</time></trkpt><trkpt lat="43.92912" lon="12.74081"><ele>30.0</ele><time>2026-04-25T13:59:53.532Z</time></trkpt><trkpt lat="43.9292783" lon="12.7407783"><ele>30.0</ele><time>2026-04-25T13:59:54.533Z</time></trkpt><trkpt lat="43.9294333" lon="12.7407383"><ele>30.0</ele><time>2026-04-25T13:59:55.535Z</time></trkpt><trkpt lat="43.9295817" lon="12.7406983"><ele>30.0</ele><time>2026-04-25T13:59:56.531Z</time></trkpt><trkpt lat="43.9297267" lon="12.7406567"><ele>30.0</ele><time>2026-04-25T13:59:57.532Z</time></trkpt><trkpt lat="43.929865" lon="12.740625"><ele>30.0</ele><time>2026-04-25T13:59:58.533Z</time></trkpt><trkpt lat="43.9300017" lon="12.740595"><ele>30.0</ele><time>2026-04-25T13:59:59.533Z</time></trkpt><trkpt lat="43.9301367" lon="12.7405767"><ele>30.0</ele><time>2026-04-25T14:00:00.531Z</time></trkpt><trkpt lat="43.930275" lon="12.7405617"><ele>29.0</ele><time>2026-04-25T14:00:01.535Z</time></trkpt><trkpt lat="43.9305533" lon="12.7405433"><ele>28.0</ele><time>2026-04-25T14:00:03.532Z</time></trkpt><trkpt lat="43.9306917" lon="12.7405333"><ele>27.0</ele><time>2026-04-25T14:00:04.532Z</time></trkpt><trkpt lat="43.9308317" lon="12.740505"><ele>26.75</ele><time>2026-04-25T14:00:05.533Z</time></trkpt><trkpt lat="43.93097" lon="12.7404633"><ele>26.5</ele><time>2026-04-25T14:00:06.532Z</time></trkpt><trkpt lat="43.9310983" lon="12.7404117"><ele>26.25</ele><time>2026-04-25T14:00:07.533Z</time></trkpt><trkpt lat="43.9312033" lon="12.740365"><ele>26.0</ele><time>2026-04-25T14:00:08.533Z</time></trkpt><trkpt lat="43.9312933" lon="12.7403333"><ele>25.999999999999996</ele><time>2026-04-25T14:00:09.531Z</time></trkpt><trkpt lat="43.931375" lon="12.7403167"><ele>26.0</ele><time>2026-04-25T14:00:10.531Z</time></trkpt><trkpt lat="43.9314483" lon="12.7403217"><ele>26.0</ele><time>2026-04-25T14:00:11.532Z</time></trkpt><trkpt lat="43.93151" lon="12.7403583"><ele>26.0</ele><time>2026-04-25T14:00:12.531Z</time></trkpt><trkpt lat="43.9315717" lon="12.7404367"><ele>25.999999999999996</ele><time>2026-04-25T14:00:13.532Z</time></trkpt><trkpt lat="43.9316367" lon="12.74056"><ele>26.0</ele><time>2026-04-25T14:00:14.533Z</time></trkpt><trkpt lat="43.9317317" lon="12.7406883"><ele>26.25</ele><time>2026-04-25T14:00:15.534Z</time></trkpt><trkpt lat="43.9318383" lon="12.7408017"><ele>26.5</ele><time>2026-04-25T14:00:16.531Z</time></trkpt><trkpt lat="43.9319583" lon="12.74091"><ele>26.75</ele><time>2026-04-25T14:00:17.532Z</time></trkpt><trkpt lat="43.9320883" lon="12.741015"><ele>27.0</ele><time>2026-04-25T14:00:18.532Z</time></trkpt><trkpt lat="43.9322217" lon="12.7411167"><ele>27.25</ele><time>2026-04-25T14:00:19.532Z</time></trkpt><trkpt lat="43.9323433" lon="12.7412133"><ele>27.5</ele><time>2026-04-25T14:00:20.533Z</time></trkpt><trkpt lat="43.9324583" lon="12.7412967"><ele>27.75</ele><time>2026-04-25T14:00:21.533Z</time></trkpt><trkpt lat="43.9325633" lon="12.741365"><ele>28.0</ele><time>2026-04-25T14:00:22.533Z</time></trkpt><trkpt lat="43.93277" lon="12.74143"><ele>28.75</ele><time>2026-04-25T14:00:24.532Z</time></trkpt><trkpt lat="43.932885" lon="12.7414117"><ele>29.5</ele><time>2026-04-25T14:00:25.532Z</time></trkpt><trkpt lat="43.9330083" lon="12.7413717"><ele>30.25</ele><time>2026-04-25T14:00:26.532Z</time></trkpt><trkpt lat="43.9331383" lon="12.7413233"><ele>31.0</ele><time>2026-04-25T14:00:27.533Z</time></trkpt><trkpt lat="43.9332717" lon="12.7412833"><ele>31.75</ele><time>2026-04-25T14:00:28.533Z</time></trkpt><trkpt lat="43.9334033" lon="12.7412567"><ele>32.5</ele><time>2026-04-25T14:00:29.531Z</time></trkpt><trkpt lat="43.9335333" lon="12.7412467"><ele>33.25</ele><time>2026-04-25T14:00:30.531Z</time></trkpt><trkpt lat="43.933655" lon="12.7412633"><ele>34.0</ele><time>2026-04-25T14:00:31.532Z</time></trkpt><trkpt lat="43.9337717" lon="12.7412983"><ele>34.0</ele><time>2026-04-25T14:00:32.531Z</time></trkpt><trkpt lat="43.9338833" lon="12.7413433"><ele>34.0</ele><time>2026-04-25T14:00:33.533Z</time></trkpt><trkpt lat="43.934" lon="12.7413817"><ele>34.0</ele><time>2026-04-25T14:00:34.531Z</time></trkpt><trkpt lat="43.9341217" lon="12.7414083"><ele>34.0</ele><time>2026-04-25T14:00:35.532Z</time></trkpt><trkpt lat="43.9342467" lon="12.7414317"><ele>35.75</ele><time>2026-04-25T14:00:36.532Z</time></trkpt><trkpt lat="43.93437" lon="12.741455"><ele>37.5</ele><time>2026-04-25T14:00:37.531Z</time></trkpt><trkpt lat="43.9344883" lon="12.74148"><ele>39.25</ele><time>2026-04-25T14:00:38.533Z</time></trkpt><trkpt lat="43.9346083" lon="12.74151"><ele>41.0</ele><time>2026-04-25T14:00:39.533Z</time></trkpt><trkpt lat="43.9347267" lon="12.7415317"><ele>41.0</ele><time>2026-04-25T14:00:40.533Z</time></trkpt><trkpt lat="43.9348417" lon="12.7415417"><ele>41.0</ele><time>2026-04-25T14:00:41.531Z</time></trkpt><trkpt lat="43.934955" lon="12.7415333"><ele>41.0</ele><time>2026-04-25T14:00:42.533Z</time></trkpt><trkpt lat="43.9350717" lon="12.7415217"><ele>41.0</ele><time>2026-04-25T14:00:43.535Z</time></trkpt><trkpt lat="43.9353067" lon="12.7414883"><ele>41.5</ele><time>2026-04-25T14:00:45.534Z</time></trkpt><trkpt lat="43.9354117" lon="12.74148"><ele>42.0</ele><time>2026-04-25T14:00:46.531Z</time></trkpt><trkpt lat="43.9354983" lon="12.74147"><ele>42.5</ele><time>2026-04-25T14:00:47.532Z</time></trkpt><trkpt lat="43.935565" lon="12.7414583"><ele>43.0</ele><time>2026-04-25T14:00:48.533Z</time></trkpt><trkpt lat="43.9356433" lon="12.7414617"><ele>43.5</ele><time>2026-04-25T14:00:50.533Z</time></trkpt><trkpt lat="43.9357117" lon="12.7414667"><ele>44.0</ele><time>2026-04-25T14:01:01.532Z</time></trkpt><trkpt lat="43.9357933" lon="12.741445"><ele>44.0</ele><time>2026-04-25T14:01:02.534Z</time></trkpt><trkpt lat="43.9358867" lon="12.7414133"><ele>44.0</ele><time>2026-04-25T14:01:03.532Z</time></trkpt><trkpt lat="43.9359817" lon="12.7413983"><ele>44.0</ele><time>2026-04-25T14:01:04.53Z</time></trkpt><trkpt lat="43.9361933" lon="12.7413933"><ele>44.0</ele><time>2026-04-25T14:01:06.531Z</time></trkpt><trkpt lat="43.9363133" lon="12.741405"><ele>41.25</ele><time>2026-04-25T14:01:07.532Z</time></trkpt><trkpt lat="43.9364417" lon="12.74143"><ele>38.5</ele><time>2026-04-25T14:01:08.531Z</time></trkpt><trkpt lat="43.936575" lon="12.741465"><ele>35.75</ele><time>2026-04-25T14:01:09.53Z</time></trkpt><trkpt lat="43.9367067" lon="12.7415117"><ele>33.0</ele><time>2026-04-25T14:01:10.534Z</time></trkpt><trkpt lat="43.9368367" lon="12.7415617"><ele>30.5</ele><time>2026-04-25T14:01:11.531Z</time></trkpt><trkpt lat="43.93697" lon="12.7415883"><ele>28.0</ele><time>2026-04-25T14:01:12.53Z</time></trkpt><trkpt lat="43.9371067" lon="12.74158"><ele>25.5</ele><time>2026-04-25T14:01:13.53Z</time></trkpt><trkpt lat="43.9372417" lon="12.74154"><ele>23.0</ele><time>2026-04-25T14:01:14.531Z</time></trkpt><trkpt lat="43.9373733" lon="12.7414833"><ele>23.0</ele><time>2026-04-25T14:01:15.53Z</time></trkpt><trkpt lat="43.9375083" lon="12.7414233"><ele>23.0</ele><time>2026-04-25T14:01:16.53Z</time></trkpt><trkpt lat="43.9376467" lon="12.7413883"><ele>23.0</ele><time>2026-04-25T14:01:17.532Z</time></trkpt><trkpt lat="43.9377783" lon="12.74139"><ele>23.0</ele><time>2026-04-25T14:01:18.53Z</time></trkpt><trkpt lat="43.9379017" lon="12.7414217"><ele>21.75</ele><time>2026-04-25T14:01:19.532Z</time></trkpt><trkpt lat="43.9380267" lon="12.7414467"><ele>20.5</ele><time>2026-04-25T14:01:20.532Z</time></trkpt><trkpt lat="43.938145" lon="12.7414667"><ele>19.25</ele><time>2026-04-25T14:01:21.531Z</time></trkpt><trkpt lat="43.93826" lon="12.7414733"><ele>18.0</ele><time>2026-04-25T14:01:22.53Z</time></trkpt><trkpt lat="43.93837" lon="12.7414717"><ele>17.4</ele><time>2026-04-25T14:01:23.53Z</time></trkpt><trkpt lat="43.93847" lon="12.7414667"><ele>16.8</ele><time>2026-04-25T14:01:24.532Z</time></trkpt><trkpt lat="43.9385533" lon="12.7414717"><ele>16.2</ele><time>2026-04-25T14:01:25.531Z</time></trkpt><trkpt lat="43.9387167" lon="12.741595"><ele>15.6</ele><time>2026-04-25T14:01:28.53Z</time></trkpt><trkpt lat="43.9387567" lon="12.741685"><ele>15.0</ele><time>2026-04-25T14:01:29.533Z</time></trkpt><trkpt lat="43.9388" lon="12.7418217"><ele>15.666666666666668</ele><time>2026-04-25T14:01:30.533Z</time></trkpt><trkpt lat="43.9388333" lon="12.7420417"><ele>16.333333333333336</ele><time>2026-04-25T14:01:31.53Z</time></trkpt><trkpt lat="43.9388883" lon="12.742245"><ele>17.0</ele><time>2026-04-25T14:01:32.53Z</time></trkpt><trkpt lat="43.9389667" lon="12.74244"><ele>17.0</ele><time>2026-04-25T14:01:33.531Z</time></trkpt><trkpt lat="43.93907" lon="12.7426283"><ele>17.0</ele><time>2026-04-25T14:01:34.53Z</time></trkpt><trkpt lat="43.939185" lon="12.7428017"><ele>17.0</ele><time>2026-04-25T14:01:35.531Z</time></trkpt><trkpt lat="43.9393033" lon="12.742965"><ele>16.666666666666668</ele><time>2026-04-25T14:01:36.531Z</time></trkpt><trkpt lat="43.93942" lon="12.7431267"><ele>16.333333333333332</ele><time>2026-04-25T14:01:37.531Z</time></trkpt><trkpt lat="43.9395417" lon="12.7432917"><ele>16.0</ele><time>2026-04-25T14:01:38.532Z</time></trkpt><trkpt lat="43.939665" lon="12.7434583"><ele>16.0</ele><time>2026-04-25T14:01:39.532Z</time></trkpt><trkpt lat="43.9397867" lon="12.743625"><ele>16.0</ele><time>2026-04-25T14:01:40.53Z</time></trkpt><trkpt lat="43.93991" lon="12.7437917"><ele>16.0</ele><time>2026-04-25T14:01:41.531Z</time></trkpt><trkpt lat="43.940035" lon="12.74396"><ele>15.666666666666666</ele><time>2026-04-25T14:01:42.531Z</time></trkpt><trkpt lat="43.9401667" lon="12.74413"><ele>15.333333333333332</ele><time>2026-04-25T14:01:43.53Z</time></trkpt><trkpt lat="43.940295" lon="12.7443017"><ele>15.0</ele><time>2026-04-25T14:01:44.531Z</time></trkpt><trkpt lat="43.9404233" lon="12.744475"><ele>15.0</ele><time>2026-04-25T14:01:45.531Z</time></trkpt><trkpt lat="43.9405533" lon="12.7446467"><ele>15.0</ele><time>2026-04-25T14:01:46.532Z</time></trkpt><trkpt lat="43.940815" lon="12.74499"><ele>15.0</ele><time>2026-04-25T14:01:48.531Z</time></trkpt><trkpt lat="43.940945" lon="12.7451567"><ele>15.0</ele><time>2026-04-25T14:01:49.531Z</time></trkpt><trkpt lat="43.94107" lon="12.7453183"><ele>15.0</ele><time>2026-04-25T14:01:50.534Z</time></trkpt><trkpt lat="43.9412017" lon="12.7454767"><ele>15.0</ele><time>2026-04-25T14:01:51.531Z</time></trkpt><trkpt lat="43.9413317" lon="12.7456383"><ele>15.0</ele><time>2026-04-25T14:01:52.533Z</time></trkpt><trkpt lat="43.9414683" lon="12.7458017"><ele>15.0</ele><time>2026-04-25T14:01:53.53Z</time></trkpt><trkpt lat="43.9415983" lon="12.7459667"><ele>15.333333333333332</ele><time>2026-04-25T14:01:54.531Z</time></trkpt><trkpt lat="43.9417267" lon="12.7461317"><ele>15.666666666666666</ele><time>2026-04-25T14:01:55.53Z</time></trkpt><trkpt lat="43.9418533" lon="12.7462917"><ele>16.0</ele><time>2026-04-25T14:01:56.531Z</time></trkpt><trkpt lat="43.94198" lon="12.7464517"><ele>16.0</ele><time>2026-04-25T14:01:57.531Z</time></trkpt><trkpt lat="43.9421067" lon="12.7466167"><ele>16.0</ele><time>2026-04-25T14:01:58.531Z</time></trkpt><trkpt lat="43.942235" lon="12.7467867"><ele>16.0</ele><time>2026-04-25T14:01:59.531Z</time></trkpt><trkpt lat="43.9423567" lon="12.74696"><ele>16.333333333333332</ele><time>2026-04-25T14:02:00.53Z</time></trkpt><trkpt lat="43.9424717" lon="12.7471433"><ele>16.666666666666668</ele><time>2026-04-25T14:02:01.531Z</time></trkpt><trkpt lat="43.9425767" lon="12.7473417"><ele>17.0</ele><time>2026-04-25T14:02:02.532Z</time></trkpt><trkpt lat="43.94267" lon="12.7475583"><ele>17.666666666666668</ele><time>2026-04-25T14:02:03.53Z</time></trkpt><trkpt lat="43.9427583" lon="12.7477717"><ele>18.333333333333332</ele><time>2026-04-25T14:02:04.53Z</time></trkpt><trkpt lat="43.9428383" lon="12.7479783"><ele>19.0</ele><time>2026-04-25T14:02:05.531Z</time></trkpt><trkpt lat="43.9429167" lon="12.7481817"><ele>19.0</ele><time>2026-04-25T14:02:06.531Z</time></trkpt><trkpt lat="43.9429883" lon="12.748375"><ele>19.0</ele><time>2026-04-25T14:02:07.531Z</time></trkpt><trkpt lat="43.94312" lon="12.748715"><ele>19.0</ele><time>2026-04-25T14:02:09.53Z</time></trkpt><trkpt lat="43.9431817" lon="12.7488683"><ele>19.0</ele><time>2026-04-25T14:02:10.531Z</time></trkpt><trkpt lat="43.9432367" lon="12.74901"><ele>19.0</ele><time>2026-04-25T14:02:11.531Z</time></trkpt><trkpt lat="43.9432817" lon="12.7491367"><ele>19.0</ele><time>2026-04-25T14:02:12.53Z</time></trkpt><trkpt lat="43.9433167" lon="12.7492417"><ele>19.0</ele><time>2026-04-25T14:02:13.531Z</time></trkpt><trkpt lat="43.9433467" lon="12.7493283"><ele>19.0</ele><time>2026-04-25T14:02:14.531Z</time></trkpt><trkpt lat="43.943445" lon="12.7494117"><ele>19.25</ele><time>2026-04-25T14:02:16.533Z</time></trkpt><trkpt lat="43.9435917" lon="12.749355"><ele>19.5</ele><time>2026-04-25T14:02:18.53Z</time></trkpt><trkpt lat="43.9436917" lon="12.7492783"><ele>19.75</ele><time>2026-04-25T14:02:19.531Z</time></trkpt><trkpt lat="43.9438117" lon="12.74916"><ele>20.0</ele><time>2026-04-25T14:02:20.534Z</time></trkpt><trkpt lat="43.9439483" lon="12.7490183"><ele>20.0</ele><time>2026-04-25T14:02:21.531Z</time></trkpt><trkpt lat="43.9440833" lon="12.7488933"><ele>20.0</ele><time>2026-04-25T14:02:22.532Z</time></trkpt><trkpt lat="43.9442183" lon="12.7487717"><ele>20.0</ele><time>2026-04-25T14:02:23.531Z</time></trkpt><trkpt lat="43.9443533" lon="12.748655"><ele>19.333333333333336</ele><time>2026-04-25T14:02:24.531Z</time></trkpt><trkpt lat="43.94449" lon="12.74854"><ele>18.666666666666668</ele><time>2026-04-25T14:02:25.53Z</time></trkpt><trkpt lat="43.9446283" lon="12.7484283"><ele>18.0</ele><time>2026-04-25T14:02:26.531Z</time></trkpt><trkpt lat="43.9447633" lon="12.7483267"><ele>18.0</ele><time>2026-04-25T14:02:27.533Z</time></trkpt><trkpt lat="43.9448983" lon="12.7482383"><ele>18.0</ele><time>2026-04-25T14:02:28.53Z</time></trkpt><trkpt lat="43.945185" lon="12.748095"><ele>18.666666666666668</ele><time>2026-04-25T14:02:30.531Z</time></trkpt><trkpt lat="43.945335" lon="12.7480367"><ele>19.333333333333336</ele><time>2026-04-25T14:02:31.531Z</time></trkpt><trkpt lat="43.9454883" lon="12.7479883"><ele>20.0</ele><time>2026-04-25T14:02:32.531Z</time></trkpt><trkpt lat="43.9456433" lon="12.7479417"><ele>20.0</ele><time>2026-04-25T14:02:33.531Z</time></trkpt><trkpt lat="43.9457983" lon="12.747895"><ele>20.0</ele><time>2026-04-25T14:02:34.533Z</time></trkpt><trkpt lat="43.945955" lon="12.7478483"><ele>20.0</ele><time>2026-04-25T14:02:35.532Z</time></trkpt><trkpt lat="43.94611" lon="12.7478"><ele>20.25</ele><time>2026-04-25T14:02:36.531Z</time></trkpt><trkpt lat="43.9462567" lon="12.7477583"><ele>20.5</ele><time>2026-04-25T14:02:37.531Z</time></trkpt><trkpt lat="43.9464" lon="12.747715"><ele>20.75</ele><time>2026-04-25T14:02:38.531Z</time></trkpt><trkpt lat="43.9465367" lon="12.7476717"><ele>21.0</ele><time>2026-04-25T14:02:39.531Z</time></trkpt><trkpt lat="43.9466733" lon="12.7476283"><ele>20.0</ele><time>2026-04-25T14:02:40.533Z</time></trkpt><trkpt lat="43.9468067" lon="12.7475883"><ele>19.0</ele><time>2026-04-25T14:02:41.53Z</time></trkpt><trkpt lat="43.9469317" lon="12.74755"><ele>18.0</ele><time>2026-04-25T14:02:42.532Z</time></trkpt><trkpt lat="43.9470517" lon="12.74751"><ele>17.0</ele><time>2026-04-25T14:02:43.535Z</time></trkpt><trkpt lat="43.9471683" lon="12.7474733"><ele>17.0</ele><time>2026-04-25T14:02:44.532Z</time></trkpt><trkpt lat="43.9472817" lon="12.7474417"><ele>17.0</ele><time>2026-04-25T14:02:45.533Z</time></trkpt><trkpt lat="43.947395" lon="12.7474133"><ele>17.0</ele><time>2026-04-25T14:02:46.533Z</time></trkpt><trkpt lat="43.9475067" lon="12.7473917"><ele>17.0</ele><time>2026-04-25T14:02:47.531Z</time></trkpt><trkpt lat="43.947615" lon="12.7473783"><ele>16.25</ele><time>2026-04-25T14:02:48.53Z</time></trkpt><trkpt lat="43.947715" lon="12.7473783"><ele>15.5</ele><time>2026-04-25T14:02:49.534Z</time></trkpt><trkpt lat="43.9478883" lon="12.7474383"><ele>14.75</ele><time>2026-04-25T14:02:51.53Z</time></trkpt><trkpt lat="43.947965" lon="12.7474967"><ele>14.0</ele><time>2026-04-25T14:02:52.53Z</time></trkpt><trkpt lat="43.9480433" lon="12.7475433"><ele>14.0</ele><time>2026-04-25T14:02:53.532Z</time></trkpt><trkpt lat="43.9481267" lon="12.747565"><ele>13.999999999999998</ele><time>2026-04-25T14:02:54.53Z</time></trkpt><trkpt lat="43.9482217" lon="12.7475767"><ele>13.999999999999998</ele><time>2026-04-25T14:02:55.532Z</time></trkpt><trkpt lat="43.9483183" lon="12.7475983"><ele>14.0</ele><time>2026-04-25T14:02:56.532Z</time></trkpt><trkpt lat="43.9484117" lon="12.7476333"><ele>14.0</ele><time>2026-04-25T14:02:57.53Z</time></trkpt><trkpt lat="43.9485017" lon="12.747685"><ele>14.25</ele><time>2026-04-25T14:02:58.53Z</time></trkpt><trkpt lat="43.9485933" lon="12.747755"><ele>14.5</ele><time>2026-04-25T14:02:59.531Z</time></trkpt><trkpt lat="43.9486967" lon="12.7478333"><ele>14.75</ele><time>2026-04-25T14:03:00.531Z</time></trkpt><trkpt lat="43.9488033" lon="12.7479183"><ele>15.0</ele><time>2026-04-25T14:03:01.532Z</time></trkpt><trkpt lat="43.948915" lon="12.7480067"><ele>15.0</ele><time>2026-04-25T14:03:02.531Z</time></trkpt><trkpt lat="43.9490333" lon="12.7480967"><ele>15.0</ele><time>2026-04-25T14:03:03.531Z</time></trkpt><trkpt lat="43.94916" lon="12.74819"><ele>15.0</ele><time>2026-04-25T14:03:04.532Z</time></trkpt><trkpt lat="43.949295" lon="12.74829"><ele>15.0</ele><time>2026-04-25T14:03:05.533Z</time></trkpt><trkpt lat="43.9494333" lon="12.748395"><ele>14.0</ele><time>2026-04-25T14:03:06.531Z</time></trkpt><trkpt lat="43.9495683" lon="12.7484967"><ele>13.0</ele><time>2026-04-25T14:03:07.533Z</time></trkpt><trkpt lat="43.9496967" lon="12.748595"><ele>12.0</ele><time>2026-04-25T14:03:08.533Z</time></trkpt><trkpt lat="43.9498217" lon="12.7486917"><ele>11.0</ele><time>2026-04-25T14:03:09.532Z</time></trkpt><trkpt lat="43.9499467" lon="12.7487867"><ele>11.333333333333332</ele><time>2026-04-25T14:03:10.532Z</time></trkpt><trkpt lat="43.9502033" lon="12.7489817"><ele>11.666666666666666</ele><time>2026-04-25T14:03:12.531Z</time></trkpt><trkpt lat="43.9503317" lon="12.7490817"><ele>12.0</ele><time>2026-04-25T14:03:13.532Z</time></trkpt><trkpt lat="43.950465" lon="12.7491783"><ele>12.0</ele><time>2026-04-25T14:03:14.533Z</time></trkpt><trkpt lat="43.9505967" lon="12.749275"><ele>12.0</ele><time>2026-04-25T14:03:15.532Z</time></trkpt><trkpt lat="43.95072" lon="12.7493733"><ele>12.0</ele><time>2026-04-25T14:03:16.533Z</time></trkpt><trkpt lat="43.9508383" lon="12.749465"><ele>12.0</ele><time>2026-04-25T14:03:17.534Z</time></trkpt><trkpt lat="43.9509517" lon="12.7495583"><ele>12.25</ele><time>2026-04-25T14:03:18.532Z</time></trkpt><trkpt lat="43.9510617" lon="12.7496533"><ele>12.5</ele><time>2026-04-25T14:03:19.532Z</time></trkpt><trkpt lat="43.9511717" lon="12.7497517"><ele>12.75</ele><time>2026-04-25T14:03:20.532Z</time></trkpt><trkpt lat="43.9512767" lon="12.7498517"><ele>13.0</ele><time>2026-04-25T14:03:21.531Z</time></trkpt><trkpt lat="43.95138" lon="12.7499583"><ele>13.0</ele><time>2026-04-25T14:03:22.532Z</time></trkpt><trkpt lat="43.9514833" lon="12.7500683"><ele>13.0</ele><time>2026-04-25T14:03:23.534Z</time></trkpt><trkpt lat="43.9515833" lon="12.75018"><ele>13.0</ele><time>2026-04-25T14:03:24.533Z</time></trkpt><trkpt lat="43.95168" lon="12.750285"><ele>13.0</ele><time>2026-04-25T14:03:25.532Z</time></trkpt><trkpt lat="43.9517717" lon="12.750385"><ele>13.0</ele><time>2026-04-25T14:03:26.532Z</time></trkpt><trkpt lat="43.9518633" lon="12.7504883"><ele>13.0</ele><time>2026-04-25T14:03:27.532Z</time></trkpt><trkpt lat="43.9519567" lon="12.7505933"><ele>13.0</ele><time>2026-04-25T14:03:28.532Z</time></trkpt><trkpt lat="43.9520467" lon="12.7506967"><ele>13.0</ele><time>2026-04-25T14:03:29.532Z</time></trkpt><trkpt lat="43.9521283" lon="12.75079"><ele>13.0</ele><time>2026-04-25T14:03:30.533Z</time></trkpt><trkpt lat="43.9522017" lon="12.7508717"><ele>13.0</ele><time>2026-04-25T14:03:31.533Z</time></trkpt><trkpt lat="43.95235" lon="12.7510467"><ele>13.0</ele><time>2026-04-25T14:03:33.532Z</time></trkpt><trkpt lat="43.9524267" lon="12.75114"><ele>13.0</ele><time>2026-04-25T14:03:34.532Z</time></trkpt><trkpt lat="43.95251" lon="12.7512383"><ele>12.8</ele><time>2026-04-25T14:03:35.532Z</time></trkpt><trkpt lat="43.952595" lon="12.7513367"><ele>12.600000000000001</ele><time>2026-04-25T14:03:36.532Z</time></trkpt><trkpt lat="43.95268" lon="12.7514333"><ele>12.399999999999999</ele><time>2026-04-25T14:03:37.534Z</time></trkpt><trkpt lat="43.952765" lon="12.7515267"><ele>12.2</ele><time>2026-04-25T14:03:38.534Z</time></trkpt><trkpt lat="43.9528517" lon="12.7516217"><ele>12.0</ele><time>2026-04-25T14:03:39.53Z</time></trkpt><trkpt lat="43.95294" lon="12.7517217"><ele>12.0</ele><time>2026-04-25T14:03:40.531Z</time></trkpt><trkpt lat="43.9530283" lon="12.751825"><ele>12.0</ele><time>2026-04-25T14:03:41.531Z</time></trkpt><trkpt lat="43.953115" lon="12.751925"><ele>12.0</ele><time>2026-04-25T14:03:42.531Z</time></trkpt><trkpt lat="43.9531983" lon="12.7520217"><ele>12.0</ele><time>2026-04-25T14:03:43.531Z</time></trkpt><trkpt lat="43.95328" lon="12.7521183"><ele>12.0</ele><time>2026-04-25T14:03:44.531Z</time></trkpt><trkpt lat="43.9533617" lon="12.7522133"><ele>12.0</ele><time>2026-04-25T14:03:45.531Z</time></trkpt><trkpt lat="43.95344" lon="12.7523033"><ele>12.0</ele><time>2026-04-25T14:03:46.531Z</time></trkpt><trkpt lat="43.9535183" lon="12.75239"><ele>12.0</ele><time>2026-04-25T14:03:47.531Z</time></trkpt><trkpt lat="43.9535933" lon="12.7524717"><ele>12.0</ele><time>2026-04-25T14:03:48.531Z</time></trkpt><trkpt lat="43.9536583" lon="12.7525467"><ele>12.0</ele><time>2026-04-25T14:03:49.533Z</time></trkpt><trkpt lat="43.9537167" lon="12.7526167"><ele>12.0</ele><time>2026-04-25T14:03:50.531Z</time></trkpt><trkpt lat="43.9537633" lon="12.7526833"><ele>12.0</ele><time>2026-04-25T14:03:51.531Z</time></trkpt><trkpt lat="43.9538217" lon="12.7528317"><ele>12.0</ele><time>2026-04-25T14:03:53.531Z</time></trkpt><trkpt lat="43.9538333" lon="12.7530867"><ele>12.0</ele><time>2026-04-25T14:03:56.531Z</time></trkpt><trkpt lat="43.95386" lon="12.7531833"><ele>12.0</ele><time>2026-04-25T14:03:57.532Z</time></trkpt><trkpt lat="43.953905" lon="12.7532767"><ele>12.0</ele><time>2026-04-25T14:03:58.534Z</time></trkpt><trkpt lat="43.953975" lon="12.7533633"><ele>12.0</ele><time>2026-04-25T14:03:59.533Z</time></trkpt><trkpt lat="43.954075" lon="12.7534217"><ele>12.0</ele><time>2026-04-25T14:04:00.533Z</time></trkpt><trkpt lat="43.954195" lon="12.7534417"><ele>12.0</ele><time>2026-04-25T14:04:01.534Z</time></trkpt><trkpt lat="43.95433" lon="12.753445"><ele>11.25</ele><time>2026-04-25T14:04:02.535Z</time></trkpt><trkpt lat="43.954465" lon="12.7534667"><ele>10.5</ele><time>2026-04-25T14:04:03.533Z</time></trkpt><trkpt lat="43.9545917" lon="12.7535383"><ele>9.75</ele><time>2026-04-25T14:04:04.535Z</time></trkpt><trkpt lat="43.9547117" lon="12.7536333"><ele>9.0</ele><time>2026-04-25T14:04:05.535Z</time></trkpt><trkpt lat="43.9548433" lon="12.7537033"><ele>8.666666666666666</ele><time>2026-04-25T14:04:06.533Z</time></trkpt><trkpt lat="43.954985" lon="12.75376"><ele>8.333333333333332</ele><time>2026-04-25T14:04:07.534Z</time></trkpt><trkpt lat="43.9551283" lon="12.7538333"><ele>8.0</ele><time>2026-04-25T14:04:08.533Z</time></trkpt><trkpt lat="43.9552633" lon="12.7539433"><ele>7.666666666666666</ele><time>2026-04-25T14:04:09.532Z</time></trkpt><trkpt lat="43.95539" lon="12.7540817"><ele>7.333333333333334</ele><time>2026-04-25T14:04:10.533Z</time></trkpt><trkpt lat="43.9555183" lon="12.75422"><ele>7.0</ele><time>2026-04-25T14:04:11.533Z</time></trkpt><trkpt lat="43.9556567" lon="12.75435"><ele>6.666666666666667</ele><time>2026-04-25T14:04:12.533Z</time></trkpt><trkpt lat="43.9557967" lon="12.75448"><ele>6.333333333333334</ele><time>2026-04-25T14:04:13.533Z</time></trkpt><trkpt lat="43.9559417" lon="12.7546083"><ele>6.0</ele><time>2026-04-25T14:04:14.532Z</time></trkpt><trkpt lat="43.95623" lon="12.7548633"><ele>6.666666666666666</ele><time>2026-04-25T14:04:16.533Z</time></trkpt><trkpt lat="43.956375" lon="12.7549883"><ele>7.333333333333333</ele><time>2026-04-25T14:04:17.531Z</time></trkpt><trkpt lat="43.9565217" lon="12.7551117"><ele>8.0</ele><time>2026-04-25T14:04:18.531Z</time></trkpt><trkpt lat="43.9566633" lon="12.75523"><ele>8.666666666666666</ele><time>2026-04-25T14:04:19.531Z</time></trkpt><trkpt lat="43.9568" lon="12.7553433"><ele>9.333333333333334</ele><time>2026-04-25T14:04:20.532Z</time></trkpt><trkpt lat="43.9569333" lon="12.7554533"><ele>10.0</ele><time>2026-04-25T14:04:21.531Z</time></trkpt><trkpt lat="43.95706" lon="12.7555617"><ele>10.0</ele><time>2026-04-25T14:04:22.531Z</time></trkpt><trkpt lat="43.9571767" lon="12.7556667"><ele>10.0</ele><time>2026-04-25T14:04:23.534Z</time></trkpt><trkpt lat="43.957285" lon="12.7557733"><ele>10.0</ele><time>2026-04-25T14:04:24.531Z</time></trkpt><trkpt lat="43.9573733" lon="12.7558767"><ele>10.0</ele><time>2026-04-25T14:04:25.533Z</time></trkpt><trkpt lat="43.9574517" lon="12.755965"><ele>10.0</ele><time>2026-04-25T14:04:26.533Z</time></trkpt><trkpt lat="43.9575217" lon="12.7560283"><ele>10.0</ele><time>2026-04-25T14:04:27.531Z</time></trkpt><trkpt lat="43.9575967" lon="12.7560617"><ele>10.0</ele><time>2026-04-25T14:04:28.532Z</time></trkpt><trkpt lat="43.9576683" lon="12.7560683"><ele>10.0</ele><time>2026-04-25T14:04:29.531Z</time></trkpt><trkpt lat="43.95774" lon="12.7560617"><ele>10.0</ele><time>2026-04-25T14:04:30.534Z</time></trkpt><trkpt lat="43.9578167" lon="12.756055"><ele>10.0</ele><time>2026-04-25T14:04:31.532Z</time></trkpt><trkpt lat="43.9578967" lon="12.7560567"><ele>9.6</ele><time>2026-04-25T14:04:32.533Z</time></trkpt><trkpt lat="43.9579767" lon="12.7560667"><ele>9.2</ele><time>2026-04-25T14:04:33.531Z</time></trkpt><trkpt lat="43.9580567" lon="12.75608"><ele>8.8</ele><time>2026-04-25T14:04:34.532Z</time></trkpt><trkpt lat="43.9581383" lon="12.7560883"><ele>8.4</ele><time>2026-04-25T14:04:35.535Z</time></trkpt><trkpt lat="43.9583083" lon="12.75611"><ele>8.0</ele><time>2026-04-25T14:04:37.532Z</time></trkpt><trkpt lat="43.958395" lon="12.75612"><ele>7.999999999999999</ele><time>2026-04-25T14:04:38.532Z</time></trkpt><trkpt lat="43.9584767" lon="12.7561333"><ele>8.0</ele><time>2026-04-25T14:04:39.532Z</time></trkpt><trkpt lat="43.958555" lon="12.7561417"><ele>8.0</ele><time>2026-04-25T14:04:40.532Z</time></trkpt><trkpt lat="43.95862" lon="12.7561517"><ele>8.0</ele><time>2026-04-25T14:04:41.532Z</time></trkpt><trkpt lat="43.9587133" lon="12.7561633"><ele>7.999999999999999</ele><time>2026-04-25T14:04:43.532Z</time></trkpt><trkpt lat="43.9588083" lon="12.756185"><ele>8.0</ele><time>2026-04-25T14:04:45.533Z</time></trkpt><trkpt lat="43.9589083" lon="12.7561817"><ele>8.0</ele><time>2026-04-25T14:04:47.531Z</time></trkpt><trkpt lat="43.95901" lon="12.75616"><ele>8.0</ele><time>2026-04-25T14:04:49.532Z</time></trkpt><trkpt lat="43.9591217" lon="12.7561783"><ele>8.0</ele><time>2026-04-25T14:04:51.531Z</time></trkpt><trkpt lat="43.95922" lon="12.7562067"><ele>8.0</ele><time>2026-04-25T14:04:53.532Z</time></trkpt><trkpt lat="43.959305" lon="12.756235"><ele>8.0</ele><time>2026-04-25T14:04:55.532Z</time></trkpt><trkpt lat="43.959375" lon="12.7562483"><ele>8.25</ele><time>2026-04-25T14:04:57.531Z</time></trkpt><trkpt lat="43.9595183" lon="12.7563233"><ele>8.5</ele><time>2026-04-25T14:05:01.535Z</time></trkpt><trkpt lat="43.9596383" lon="12.756325"><ele>8.75</ele><time>2026-04-25T14:05:03.533Z</time></trkpt><trkpt lat="43.95972" lon="12.7563233"><ele>9.0</ele><time>2026-04-25T14:05:04.533Z</time></trkpt><trkpt lat="43.9598183" lon="12.7563267"><ele>9.0</ele><time>2026-04-25T14:05:05.533Z</time></trkpt><trkpt lat="43.9599233" lon="12.7563333"><ele>9.0</ele><time>2026-04-25T14:05:06.532Z</time></trkpt><trkpt lat="43.960025" lon="12.7563483"><ele>9.0</ele><time>2026-04-25T14:05:07.533Z</time></trkpt><trkpt lat="43.9601333" lon="12.756365"><ele>9.0</ele><time>2026-04-25T14:05:08.532Z</time></trkpt><trkpt lat="43.960245" lon="12.7563783"><ele>9.0</ele><time>2026-04-25T14:05:09.533Z</time></trkpt><trkpt lat="43.9603533" lon="12.7563917"><ele>9.0</ele><time>2026-04-25T14:05:10.533Z</time></trkpt><trkpt lat="43.9604617" lon="12.756405"><ele>9.0</ele><time>2026-04-25T14:05:11.534Z</time></trkpt><trkpt lat="43.9605717" lon="12.756415"><ele>9.0</ele><time>2026-04-25T14:05:12.533Z</time></trkpt><trkpt lat="43.9606733" lon="12.756425"><ele>9.0</ele><time>2026-04-25T14:05:13.532Z</time></trkpt><trkpt lat="43.9607733" lon="12.7564317"><ele>9.0</ele><time>2026-04-25T14:05:14.533Z</time></trkpt><trkpt lat="43.9608767" lon="12.7564383"><ele>8.0</ele><time>2026-04-25T14:05:15.532Z</time></trkpt><trkpt lat="43.9609833" lon="12.7564433"><ele>7.0</ele><time>2026-04-25T14:05:16.533Z</time></trkpt><trkpt lat="43.9610883" lon="12.7564617"><ele>6.0</ele><time>2026-04-25T14:05:17.533Z</time></trkpt><trkpt lat="43.9612" lon="12.7564867"><ele>5.0</ele><time>2026-04-25T14:05:18.533Z</time></trkpt><trkpt lat="43.9614233" lon="12.7565317"><ele>5.0</ele><time>2026-04-25T14:05:20.533Z</time></trkpt><trkpt lat="43.96154" lon="12.756545"><ele>5.0</ele><time>2026-04-25T14:05:21.533Z</time></trkpt><trkpt lat="43.9616583" lon="12.75655"><ele>5.0</ele><time>2026-04-25T14:05:22.532Z</time></trkpt><trkpt lat="43.96177" lon="12.7565533"><ele>5.0</ele><time>2026-04-25T14:05:23.533Z</time></trkpt><trkpt lat="43.961875" lon="12.75656"><ele>5.166666666666667</ele><time>2026-04-25T14:05:24.532Z</time></trkpt><trkpt lat="43.9619733" lon="12.75657"><ele>5.333333333333334</ele><time>2026-04-25T14:05:25.534Z</time></trkpt><trkpt lat="43.9620617" lon="12.7565817"><ele>5.5</ele><time>2026-04-25T14:05:26.532Z</time></trkpt><trkpt lat="43.9621433" lon="12.7565933"><ele>5.666666666666667</ele><time>2026-04-25T14:05:27.531Z</time></trkpt><trkpt lat="43.9622183" lon="12.756615"><ele>5.833333333333333</ele><time>2026-04-25T14:05:28.532Z</time></trkpt><trkpt lat="43.96229" lon="12.75665"><ele>6.0</ele><time>2026-04-25T14:05:29.531Z</time></trkpt><trkpt lat="43.9623483" lon="12.7567183"><ele>6.0</ele><time>2026-04-25T14:05:30.532Z</time></trkpt><trkpt lat="43.96244" lon="12.756795"><ele>6.0</ele><time>2026-04-25T14:05:32.531Z</time></trkpt><trkpt lat="43.9625683" lon="12.7567517"><ele>6.0</ele><time>2026-04-25T14:05:34.531Z</time></trkpt><trkpt lat="43.9626467" lon="12.7567033"><ele>6.0</ele><time>2026-04-25T14:05:35.534Z</time></trkpt><trkpt lat="43.9627283" lon="12.7566767"><ele>6.0</ele><time>2026-04-25T14:05:36.533Z</time></trkpt><trkpt lat="43.9628183" lon="12.7566567"><ele>6.5</ele><time>2026-04-25T14:05:37.53Z</time></trkpt><trkpt lat="43.962915" lon="12.7566333"><ele>7.0</ele><time>2026-04-25T14:05:38.531Z</time></trkpt><trkpt lat="43.96302" lon="12.7566083"><ele>7.5</ele><time>2026-04-25T14:05:39.533Z</time></trkpt><trkpt lat="43.9632167" lon="12.7565733"><ele>8.0</ele><time>2026-04-25T14:05:41.531Z</time></trkpt><trkpt lat="43.9633183" lon="12.7565633"><ele>8.8</ele><time>2026-04-25T14:05:42.533Z</time></trkpt><trkpt lat="43.9634183" lon="12.7565517"><ele>9.600000000000001</ele><time>2026-04-25T14:05:43.531Z</time></trkpt><trkpt lat="43.9635217" lon="12.7565333"><ele>10.399999999999999</ele><time>2026-04-25T14:05:44.531Z</time></trkpt><trkpt lat="43.9636267" lon="12.75652"><ele>11.2</ele><time>2026-04-25T14:05:45.531Z</time></trkpt><trkpt lat="43.9637283" lon="12.7565083"><ele>12.0</ele><time>2026-04-25T14:05:46.531Z</time></trkpt><trkpt lat="43.9638317" lon="12.7564983"><ele>12.0</ele><time>2026-04-25T14:05:47.532Z</time></trkpt><trkpt lat="43.9639367" lon="12.7564933"><ele>12.0</ele><time>2026-04-25T14:05:48.531Z</time></trkpt><trkpt lat="43.9640417" lon="12.7564917"><ele>12.0</ele><time>2026-04-25T14:05:49.531Z</time></trkpt><trkpt lat="43.9641533" lon="12.7564817"><ele>12.0</ele><time>2026-04-25T14:05:50.53Z</time></trkpt><trkpt lat="43.9642667" lon="12.75647"><ele>12.0</ele><time>2026-04-25T14:05:51.53Z</time></trkpt><trkpt lat="43.9643767" lon="12.756465"><ele>12.6</ele><time>2026-04-25T14:05:52.532Z</time></trkpt><trkpt lat="43.9644817" lon="12.7564617"><ele>13.2</ele><time>2026-04-25T14:05:53.531Z</time></trkpt><trkpt lat="43.9645833" lon="12.7564667"><ele>13.8</ele><time>2026-04-25T14:05:54.53Z</time></trkpt><trkpt lat="43.9646817" lon="12.7564817"><ele>14.4</ele><time>2026-04-25T14:05:55.531Z</time></trkpt><trkpt lat="43.96477" lon="12.75649"><ele>15.0</ele><time>2026-04-25T14:05:56.531Z</time></trkpt><trkpt lat="43.9648533" lon="12.756505"><ele>15.0</ele><time>2026-04-25T14:05:57.532Z</time></trkpt><trkpt lat="43.9649383" lon="12.756515"><ele>15.0</ele><time>2026-04-25T14:05:58.53Z</time></trkpt><trkpt lat="43.9650233" lon="12.7565283"><ele>15.0</ele><time>2026-04-25T14:05:59.53Z</time></trkpt><trkpt lat="43.9651033" lon="12.75654"><ele>15.0</ele><time>2026-04-25T14:06:00.532Z</time></trkpt><trkpt lat="43.9652483" lon="12.7566017"><ele>15.0</ele><time>2026-04-25T14:06:02.531Z</time></trkpt><trkpt lat="43.9653517" lon="12.7566517"><ele>14.333333333333334</ele><time>2026-04-25T14:06:04.531Z</time></trkpt><trkpt lat="43.96543" lon="12.7566917"><ele>13.666666666666666</ele><time>2026-04-25T14:06:06.53Z</time></trkpt><trkpt lat="43.9655167" lon="12.7567183"><ele>13.0</ele><time>2026-04-25T14:06:09.532Z</time></trkpt><trkpt lat="43.965595" lon="12.7567317"><ele>12.333333333333332</ele><time>2026-04-25T14:06:11.531Z</time></trkpt><trkpt lat="43.9656583" lon="12.75675"><ele>11.666666666666666</ele><time>2026-04-25T14:06:12.531Z</time></trkpt><trkpt lat="43.96573" lon="12.7567733"><ele>11.0</ele><time>2026-04-25T14:06:13.531Z</time></trkpt><trkpt lat="43.9658067" lon="12.7567917"><ele>10.600000000000001</ele><time>2026-04-25T14:06:14.53Z</time></trkpt><trkpt lat="43.965875" lon="12.756795"><ele>10.200000000000001</ele><time>2026-04-25T14:06:15.53Z</time></trkpt><trkpt lat="43.9660033" lon="12.7567767"><ele>9.8</ele><time>2026-04-25T14:06:17.531Z</time></trkpt><trkpt lat="43.9661217" lon="12.7567717"><ele>9.4</ele><time>2026-04-25T14:06:19.531Z</time></trkpt><trkpt lat="43.9662133" lon="12.75677"><ele>9.0</ele><time>2026-04-25T14:06:21.533Z</time></trkpt><trkpt lat="43.9663783" lon="12.7567433"><ele>9.0</ele><time>2026-04-25T14:06:25.531Z</time></trkpt><trkpt lat="43.96645" lon="12.756755"><ele>9.0</ele><time>2026-04-25T14:06:27.533Z</time></trkpt><trkpt lat="43.9665217" lon="12.756775"><ele>9.0</ele><time>2026-04-25T14:06:29.534Z</time></trkpt><trkpt lat="43.966575" lon="12.7568717"><ele>9.0</ele><time>2026-04-25T14:06:32.53Z</time></trkpt><trkpt lat="43.96655" lon="12.7570083"><ele>9.0</ele><time>2026-04-25T14:06:35.53Z</time></trkpt><trkpt lat="43.9665017" lon="12.7571633"><ele>9.0</ele><time>2026-04-25T14:06:37.532Z</time></trkpt><trkpt lat="43.9664767" lon="12.7572483"><ele>9.0</ele><time>2026-04-25T14:06:38.531Z</time></trkpt><trkpt lat="43.9664517" lon="12.7573383"><ele>9.0</ele><time>2026-04-25T14:06:39.532Z</time></trkpt><trkpt lat="43.9664233" lon="12.757445"><ele>9.0</ele><time>2026-04-25T14:06:40.532Z</time></trkpt><trkpt lat="43.9663967" lon="12.7575417"><ele>9.0</ele><time>2026-04-25T14:06:41.532Z</time></trkpt><trkpt lat="43.9663717" lon="12.7576483"><ele>9.0</ele><time>2026-04-25T14:06:42.531Z</time></trkpt><trkpt lat="43.9663267" lon="12.75785"><ele>9.000000000000002</ele><time>2026-04-25T14:06:44.532Z</time></trkpt><trkpt lat="43.9663" lon="12.757945"><ele>9.0</ele><time>2026-04-25T14:06:45.533Z</time></trkpt><trkpt lat="43.9662783" lon="12.7580317"><ele>9.0</ele><time>2026-04-25T14:06:46.532Z</time></trkpt><trkpt lat="43.9662533" lon="12.758115"><ele>9.0</ele><time>2026-04-25T14:06:47.533Z</time></trkpt><trkpt lat="43.9662417" lon="12.7582017"><ele>9.0</ele><time>2026-04-25T14:06:48.533Z</time></trkpt><trkpt lat="43.9662133" lon="12.7582833"><ele>9.000000000000002</ele><time>2026-04-25T14:06:49.531Z</time></trkpt><trkpt lat="43.9662" lon="12.75837"><ele>9.0</ele><time>2026-04-25T14:06:50.531Z</time></trkpt><trkpt lat="43.9661733" lon="12.7585383"><ele>8.833333333333334</ele><time>2026-04-25T14:06:52.535Z</time></trkpt><trkpt lat="43.9662117" lon="12.7586833"><ele>8.666666666666666</ele><time>2026-04-25T14:06:54.534Z</time></trkpt><trkpt lat="43.9662667" lon="12.7587317"><ele>8.5</ele><time>2026-04-25T14:06:55.532Z</time></trkpt><trkpt lat="43.9663533" lon="12.758755"><ele>8.333333333333332</ele><time>2026-04-25T14:06:56.533Z</time></trkpt><trkpt lat="43.9664283" lon="12.7587867"><ele>8.166666666666666</ele><time>2026-04-25T14:06:57.53Z</time></trkpt><trkpt lat="43.9665017" lon="12.7588267"><ele>8.0</ele><time>2026-04-25T14:06:58.533Z</time></trkpt><trkpt lat="43.9665633" lon="12.75887"><ele>8.0</ele><time>2026-04-25T14:06:59.531Z</time></trkpt><trkpt lat="43.9666" lon="12.759005"><ele>8.0</ele><time>2026-04-25T14:07:01.531Z</time></trkpt><trkpt lat="43.966595" lon="12.7591033"><ele>8.0</ele><time>2026-04-25T14:07:02.53Z</time></trkpt><trkpt lat="43.96657" lon="12.759215"><ele>8.0</ele><time>2026-04-25T14:07:03.53Z</time></trkpt><trkpt lat="43.9665217" lon="12.7594367"><ele>8.0</ele><time>2026-04-25T14:07:05.53Z</time></trkpt><trkpt lat="43.9664983" lon="12.7595467"><ele>7.499999999999999</ele><time>2026-04-25T14:07:06.531Z</time></trkpt><trkpt lat="43.9664733" lon="12.75966"><ele>7.0</ele><time>2026-04-25T14:07:07.531Z</time></trkpt><trkpt lat="43.9664517" lon="12.7597733"><ele>6.5</ele><time>2026-04-25T14:07:08.53Z</time></trkpt><trkpt lat="43.9664267" lon="12.7598833"><ele>6.0</ele><time>2026-04-25T14:07:09.531Z</time></trkpt><trkpt lat="43.9663967" lon="12.7599933"><ele>5.5</ele><time>2026-04-25T14:07:10.531Z</time></trkpt><trkpt lat="43.966365" lon="12.7601083"><ele>5.0</ele><time>2026-04-25T14:07:11.53Z</time></trkpt><trkpt lat="43.96633" lon="12.760225"><ele>4.833333333333334</ele><time>2026-04-25T14:07:12.532Z</time></trkpt><trkpt lat="43.9662917" lon="12.7603433"><ele>4.666666666666667</ele><time>2026-04-25T14:07:13.532Z</time></trkpt><trkpt lat="43.9662533" lon="12.7604533"><ele>4.5</ele><time>2026-04-25T14:07:14.534Z</time></trkpt><trkpt lat="43.9662183" lon="12.7605617"><ele>4.333333333333333</ele><time>2026-04-25T14:07:15.533Z</time></trkpt><trkpt lat="43.9661833" lon="12.7606683"><ele>4.166666666666666</ele><time>2026-04-25T14:07:16.534Z</time></trkpt><trkpt lat="43.9661483" lon="12.7607717"><ele>4.0</ele><time>2026-04-25T14:07:17.531Z</time></trkpt><trkpt lat="43.966115" lon="12.7608783"><ele>3.9999999999999996</ele><time>2026-04-25T14:07:18.531Z</time></trkpt><trkpt lat="43.96609" lon="12.760995"><ele>4.0</ele><time>2026-04-25T14:07:19.535Z</time></trkpt><trkpt lat="43.966065" lon="12.76111"><ele>4.0</ele><time>2026-04-25T14:07:20.53Z</time></trkpt><trkpt lat="43.9660417" lon="12.761215"><ele>4.0</ele><time>2026-04-25T14:07:21.531Z</time></trkpt><trkpt lat="43.966015" lon="12.761305"><ele>3.9999999999999996</ele><time>2026-04-25T14:07:22.531Z</time></trkpt><trkpt lat="43.96597" lon="12.7614517"><ele>4.0</ele><time>2026-04-25T14:07:24.531Z</time></trkpt><trkpt lat="43.9659883" lon="12.76175"><ele>3.8571428571428568</ele><time>2026-04-25T14:07:28.533Z</time></trkpt><trkpt lat="43.965995" lon="12.76184"><ele>3.714285714285714</ele><time>2026-04-25T14:07:29.535Z</time></trkpt><trkpt lat="43.966" lon="12.76193"><ele>3.571428571428571</ele><time>2026-04-25T14:07:30.535Z</time></trkpt><trkpt lat="43.9660083" lon="12.7620183"><ele>3.4285714285714284</ele><time>2026-04-25T14:07:31.531Z</time></trkpt><trkpt lat="43.9660267" lon="12.7621067"><ele>3.2857142857142856</ele><time>2026-04-25T14:07:32.533Z</time></trkpt><trkpt lat="43.9660583" lon="12.76219"><ele>3.1428571428571423</ele><time>2026-04-25T14:07:33.533Z</time></trkpt><trkpt lat="43.9660967" lon="12.7622633"><ele>3.0</ele><time>2026-04-25T14:07:34.534Z</time></trkpt><trkpt lat="43.9661517" lon="12.7623783"><ele>3.0</ele><time>2026-04-25T14:07:36.533Z</time></trkpt><trkpt lat="43.9661783" lon="12.7624933"><ele>3.0</ele><time>2026-04-25T14:07:38.534Z</time></trkpt><trkpt lat="43.9661817" lon="12.7625983"><ele>3.0</ele><time>2026-04-25T14:07:42.532Z</time></trkpt><trkpt lat="43.9661733" lon="12.7627"><ele>2.0</ele><time>2026-04-25T14:07:45.531Z</time></trkpt></trkseg></trk></gpx>